<?xml version="1.0" encoding="UTF-8"?>
<gpx creator="Garmin Connect" version="1.1"
  xsi:schemaLocation="http://www.topografix.com/GPX/1/1 http://www.topografix.com/GPX/11.xsd"
  xmlns:ns3="http://www.garmin.com/xmlschemas/TrackPointExtension/v1"
  xmlns="http://www.topografix.com/GPX/1/1"
  xmlns:xsi="http://www.w3.org/2001/XMLSchema-instance" xmlns:ns2="http://www.garmin.com/xmlschemas/GpxExtensions/v3">
  <metadata>
    <link href="connect.garmin.com">
      <text>Garmin Connect</text>
    </link>
    <time>2025-09-05T11:04:09.000Z</time>
  </metadata>
  <trk>
    <name>sandlings 1/3</name>
    <desc></desc>
    <type>running</type>
    <trkseg>
      <trkpt lat="52.06143558025360107421875" lon="1.197664998471736907958984375">
        <ele>191.8000030517578125</ele>
        <time>2025-09-05T11:04:09.000Z</time>
        <extensions>
          <ns3:TrackPointExtension>
            <ns3:hr>142</ns3:hr>
            <ns3:cad>62</ns3:cad>
          </ns3:TrackPointExtension>
        </extensions>
      </trkpt>
      <trkpt lat="52.0614380948245525360107421875" lon="1.197690479457378387451171875">
        <ele>191.8000030517578125</ele>
        <time>2025-09-05T11:04:10.000Z</time>
        <extensions>
          <ns3:TrackPointExtension>
            <ns3:hr>140</ns3:hr>
            <ns3:cad>62</ns3:cad>
          </ns3:TrackPointExtension>
        </extensions>
      </trkpt>
      <trkpt lat="52.0614556968212127685546875" lon="1.1977350711822509765625">
        <ele>191.8000030517578125</ele>
        <time>2025-09-05T11:04:12.000Z</time>
        <extensions>
          <ns3:TrackPointExtension>
            <ns3:hr>137</ns3:hr>
            <ns3:cad>62</ns3:cad>
          </ns3:TrackPointExtension>
        </extensions>
      </trkpt>
      <trkpt lat="52.0612691156566143035888671875" lon="1.19809909723699092864990234375">
        <ele>192</ele>
        <time>2025-09-05T11:04:14.000Z</time>
        <extensions>
          <ns3:TrackPointExtension>
            <ns3:hr>139</ns3:hr>
            <ns3:cad>62</ns3:cad>
          </ns3:TrackPointExtension>
        </extensions>
      </trkpt>
      <trkpt lat="52.06126919947564601898193359375" lon="1.19814787991344928741455078125">
        <ele>192</ele>
        <time>2025-09-05T11:04:15.000Z</time>
        <extensions>
          <ns3:TrackPointExtension>
            <ns3:hr>140</ns3:hr>
            <ns3:cad>62</ns3:cad>
          </ns3:TrackPointExtension>
        </extensions>
      </trkpt>
      <trkpt lat="52.0611794292926788330078125" lon="1.19824427179992198944091796875">
        <ele>192</ele>
        <time>2025-09-05T11:04:17.000Z</time>
        <extensions>
          <ns3:TrackPointExtension>
            <ns3:hr>136</ns3:hr>
            <ns3:cad>62</ns3:cad>
          </ns3:TrackPointExtension>
        </extensions>
      </trkpt>
      <trkpt lat="52.0611658506095409393310546875" lon="1.1983370594680309295654296875">
        <ele>191.8000030517578125</ele>
        <time>2025-09-05T11:04:20.000Z</time>
        <extensions>
          <ns3:TrackPointExtension>
            <ns3:hr>140</ns3:hr>
            <ns3:cad>62</ns3:cad>
          </ns3:TrackPointExtension>
        </extensions>
      </trkpt>
      <trkpt lat="52.06117129884660243988037109375" lon="1.198368072509765625">
        <ele>191.8000030517578125</ele>
        <time>2025-09-05T11:04:21.000Z</time>
        <extensions>
          <ns3:TrackPointExtension>
            <ns3:hr>140</ns3:hr>
            <ns3:cad>62</ns3:cad>
          </ns3:TrackPointExtension>
        </extensions>
      </trkpt>
      <trkpt lat="52.06117649562656879425048828125" lon="1.198523975908756256103515625">
        <ele>191.8000030517578125</ele>
        <time>2025-09-05T11:04:27.000Z</time>
        <extensions>
          <ns3:TrackPointExtension>
            <ns3:hr>140</ns3:hr>
            <ns3:cad>63</ns3:cad>
          </ns3:TrackPointExtension>
        </extensions>
      </trkpt>
      <trkpt lat="52.0611303113400936126708984375" lon="1.19871198199689388275146484375">
        <ele>191.600006103515625</ele>
        <time>2025-09-05T11:04:35.000Z</time>
        <extensions>
          <ns3:TrackPointExtension>
            <ns3:hr>137</ns3:hr>
            <ns3:cad>63</ns3:cad>
          </ns3:TrackPointExtension>
        </extensions>
      </trkpt>
      <trkpt lat="52.061121426522731781005859375" lon="1.19873528368771076202392578125">
        <ele>191.600006103515625</ele>
        <time>2025-09-05T11:04:36.000Z</time>
        <extensions>
          <ns3:TrackPointExtension>
            <ns3:hr>137</ns3:hr>
            <ns3:cad>63</ns3:cad>
          </ns3:TrackPointExtension>
        </extensions>
      </trkpt>
      <trkpt lat="52.06109234131872653961181640625" lon="1.19879814796149730682373046875">
        <ele>191.600006103515625</ele>
        <time>2025-09-05T11:04:39.000Z</time>
        <extensions>
          <ns3:TrackPointExtension>
            <ns3:hr>134</ns3:hr>
            <ns3:cad>63</ns3:cad>
          </ns3:TrackPointExtension>
        </extensions>
      </trkpt>
      <trkpt lat="52.06106786616146564483642578125" lon="1.19882245548069477081298828125">
        <ele>191.8000030517578125</ele>
        <time>2025-09-05T11:04:42.000Z</time>
        <extensions>
          <ns3:TrackPointExtension>
            <ns3:hr>131</ns3:hr>
            <ns3:cad>63</ns3:cad>
          </ns3:TrackPointExtension>
        </extensions>
      </trkpt>
      <trkpt lat="52.06101338379085063934326171875" lon="1.1988909356296062469482421875">
        <ele>192.1999969482421875</ele>
        <time>2025-09-05T11:04:46.000Z</time>
        <extensions>
          <ns3:TrackPointExtension>
            <ns3:hr>130</ns3:hr>
            <ns3:cad>62</ns3:cad>
          </ns3:TrackPointExtension>
        </extensions>
      </trkpt>
      <trkpt lat="52.060985304415225982666015625" lon="1.19896209798753261566162109375">
        <ele>192.600006103515625</ele>
        <time>2025-09-05T11:04:50.000Z</time>
        <extensions>
          <ns3:TrackPointExtension>
            <ns3:hr>127</ns3:hr>
            <ns3:cad>62</ns3:cad>
          </ns3:TrackPointExtension>
        </extensions>
      </trkpt>
      <trkpt lat="52.0609599910676479339599609375" lon="1.1989868246018886566162109375">
        <ele>192.8000030517578125</ele>
        <time>2025-09-05T11:04:51.000Z</time>
        <extensions>
          <ns3:TrackPointExtension>
            <ns3:hr>128</ns3:hr>
            <ns3:cad>0</ns3:cad>
          </ns3:TrackPointExtension>
        </extensions>
      </trkpt>
      <trkpt lat="52.06094448454678058624267578125" lon="1.19899529032409191131591796875">
        <ele>193</ele>
        <time>2025-09-05T11:04:53.000Z</time>
        <extensions>
          <ns3:TrackPointExtension>
            <ns3:hr>131</ns3:hr>
            <ns3:cad>60</ns3:cad>
          </ns3:TrackPointExtension>
        </extensions>
      </trkpt>
      <trkpt lat="52.0609273016452789306640625" lon="1.19901054538786411285400390625">
        <ele>193</ele>
        <time>2025-09-05T11:04:54.000Z</time>
        <extensions>
          <ns3:TrackPointExtension>
            <ns3:hr>131</ns3:hr>
            <ns3:cad>61</ns3:cad>
          </ns3:TrackPointExtension>
        </extensions>
      </trkpt>
      <trkpt lat="52.06082914955914020538330078125" lon="1.19905714876949787139892578125">
        <ele>193.399993896484375</ele>
        <time>2025-09-05T11:05:00.000Z</time>
        <extensions>
          <ns3:TrackPointExtension>
            <ns3:hr>128</ns3:hr>
            <ns3:cad>62</ns3:cad>
          </ns3:TrackPointExtension>
        </extensions>
      </trkpt>
      <trkpt lat="52.06078086979687213897705078125" lon="1.199076510965824127197265625">
        <ele>193.600006103515625</ele>
        <time>2025-09-05T11:05:03.000Z</time>
        <extensions>
          <ns3:TrackPointExtension>
            <ns3:hr>127</ns3:hr>
            <ns3:cad>62</ns3:cad>
          </ns3:TrackPointExtension>
        </extensions>
      </trkpt>
      <trkpt lat="52.06067291088402271270751953125" lon="1.19912235997617244720458984375">
        <ele>193.8000030517578125</ele>
        <time>2025-09-05T11:05:10.000Z</time>
        <extensions>
          <ns3:TrackPointExtension>
            <ns3:hr>125</ns3:hr>
            <ns3:cad>63</ns3:cad>
          </ns3:TrackPointExtension>
        </extensions>
      </trkpt>
      <trkpt lat="52.0605040155351161956787109375" lon="1.199222020804882049560546875">
        <ele>193.8000030517578125</ele>
        <time>2025-09-05T11:05:19.000Z</time>
        <extensions>
          <ns3:TrackPointExtension>
            <ns3:hr>124</ns3:hr>
            <ns3:cad>63</ns3:cad>
          </ns3:TrackPointExtension>
        </extensions>
      </trkpt>
      <trkpt lat="52.06041625700891017913818359375" lon="1.19931019842624664306640625">
        <ele>193.600006103515625</ele>
        <time>2025-09-05T11:05:26.000Z</time>
        <extensions>
          <ns3:TrackPointExtension>
            <ns3:hr>121</ns3:hr>
            <ns3:cad>62</ns3:cad>
          </ns3:TrackPointExtension>
        </extensions>
      </trkpt>
      <trkpt lat="52.060392200946807861328125" lon="1.199336349964141845703125">
        <ele>193.399993896484375</ele>
        <time>2025-09-05T11:05:28.000Z</time>
        <extensions>
          <ns3:TrackPointExtension>
            <ns3:hr>121</ns3:hr>
            <ns3:cad>0</ns3:cad>
          </ns3:TrackPointExtension>
        </extensions>
      </trkpt>
      <trkpt lat="52.06026370637118816375732421875" lon="1.1994344182312488555908203125">
        <ele>193.1999969482421875</ele>
        <time>2025-09-05T11:05:36.000Z</time>
        <extensions>
          <ns3:TrackPointExtension>
            <ns3:hr>120</ns3:hr>
            <ns3:cad>62</ns3:cad>
          </ns3:TrackPointExtension>
        </extensions>
      </trkpt>
      <trkpt lat="52.0601549930870532989501953125" lon="1.19949803687632083892822265625">
        <ele>193.1999969482421875</ele>
        <time>2025-09-05T11:05:43.000Z</time>
        <extensions>
          <ns3:TrackPointExtension>
            <ns3:hr>115</ns3:hr>
            <ns3:cad>62</ns3:cad>
          </ns3:TrackPointExtension>
        </extensions>
      </trkpt>
      <trkpt lat="52.06014066003262996673583984375" lon="1.19950759224593639373779296875">
        <ele>193.1999969482421875</ele>
        <time>2025-09-05T11:05:44.000Z</time>
        <extensions>
          <ns3:TrackPointExtension>
            <ns3:hr>119</ns3:hr>
            <ns3:cad>62</ns3:cad>
          </ns3:TrackPointExtension>
        </extensions>
      </trkpt>
      <trkpt lat="52.06004058010876178741455078125" lon="1.19959375821053981781005859375">
        <ele>193.1999969482421875</ele>
        <time>2025-09-05T11:05:51.000Z</time>
        <extensions>
          <ns3:TrackPointExtension>
            <ns3:hr>116</ns3:hr>
            <ns3:cad>62</ns3:cad>
          </ns3:TrackPointExtension>
        </extensions>
      </trkpt>
      <trkpt lat="52.06002566032111644744873046875" lon="1.19960264302790164947509765625">
        <ele>193.1999969482421875</ele>
        <time>2025-09-05T11:05:52.000Z</time>
        <extensions>
          <ns3:TrackPointExtension>
            <ns3:hr>117</ns3:hr>
            <ns3:cad>62</ns3:cad>
          </ns3:TrackPointExtension>
        </extensions>
      </trkpt>
      <trkpt lat="52.05989942885935306549072265625" lon="1.199665255844593048095703125">
        <ele>193.1999969482421875</ele>
        <time>2025-09-05T11:05:59.000Z</time>
        <extensions>
          <ns3:TrackPointExtension>
            <ns3:hr>115</ns3:hr>
            <ns3:cad>63</ns3:cad>
          </ns3:TrackPointExtension>
        </extensions>
      </trkpt>
      <trkpt lat="52.0598257519304752349853515625" lon="1.19970087893307209014892578125">
        <ele>192.8000030517578125</ele>
        <time>2025-09-05T11:06:04.000Z</time>
        <extensions>
          <ns3:TrackPointExtension>
            <ns3:hr>112</ns3:hr>
            <ns3:cad>63</ns3:cad>
          </ns3:TrackPointExtension>
        </extensions>
      </trkpt>
      <trkpt lat="52.059792391955852508544921875" lon="1.199719905853271484375">
        <ele>192.8000030517578125</ele>
        <time>2025-09-05T11:06:06.000Z</time>
        <extensions>
          <ns3:TrackPointExtension>
            <ns3:hr>114</ns3:hr>
            <ns3:cad>63</ns3:cad>
          </ns3:TrackPointExtension>
        </extensions>
      </trkpt>
      <trkpt lat="52.05966657958924770355224609375" lon="1.19977279566228389739990234375">
        <ele>192.600006103515625</ele>
        <time>2025-09-05T11:06:13.000Z</time>
        <extensions>
          <ns3:TrackPointExtension>
            <ns3:hr>113</ns3:hr>
            <ns3:cad>62</ns3:cad>
          </ns3:TrackPointExtension>
        </extensions>
      </trkpt>
      <trkpt lat="52.0595387555658817291259765625" lon="1.199837587773799896240234375">
        <ele>192.399993896484375</ele>
        <time>2025-09-05T11:06:20.000Z</time>
        <extensions>
          <ns3:TrackPointExtension>
            <ns3:hr>110</ns3:hr>
            <ns3:cad>62</ns3:cad>
          </ns3:TrackPointExtension>
        </extensions>
      </trkpt>
      <trkpt lat="52.05952442251145839691162109375" lon="1.199849657714366912841796875">
        <ele>192.399993896484375</ele>
        <time>2025-09-05T11:06:21.000Z</time>
        <extensions>
          <ns3:TrackPointExtension>
            <ns3:hr>110</ns3:hr>
            <ns3:cad>62</ns3:cad>
          </ns3:TrackPointExtension>
        </extensions>
      </trkpt>
      <trkpt lat="52.059469185769557952880859375" lon="1.19989533908665180206298828125">
        <ele>192.399993896484375</ele>
        <time>2025-09-05T11:06:25.000Z</time>
        <extensions>
          <ns3:TrackPointExtension>
            <ns3:hr>113</ns3:hr>
            <ns3:cad>62</ns3:cad>
          </ns3:TrackPointExtension>
        </extensions>
      </trkpt>
      <trkpt lat="52.0594026334583759307861328125" lon="1.19993381202220916748046875">
        <ele>192.399993896484375</ele>
        <time>2025-09-05T11:06:28.000Z</time>
        <extensions>
          <ns3:TrackPointExtension>
            <ns3:hr>112</ns3:hr>
            <ns3:cad>63</ns3:cad>
          </ns3:TrackPointExtension>
        </extensions>
      </trkpt>
      <trkpt lat="52.05922820605337619781494140625" lon="1.200036071240901947021484375">
        <ele>192.1999969482421875</ele>
        <time>2025-09-05T11:06:39.000Z</time>
        <extensions>
          <ns3:TrackPointExtension>
            <ns3:hr>110</ns3:hr>
            <ns3:cad>63</ns3:cad>
          </ns3:TrackPointExtension>
        </extensions>
      </trkpt>
      <trkpt lat="52.05909878946840763092041015625" lon="1.20009130798280239105224609375">
        <ele>192.1999969482421875</ele>
        <time>2025-09-05T11:06:46.000Z</time>
        <extensions>
          <ns3:TrackPointExtension>
            <ns3:hr>110</ns3:hr>
            <ns3:cad>62</ns3:cad>
          </ns3:TrackPointExtension>
        </extensions>
      </trkpt>
      <trkpt lat="52.0590586401522159576416015625" lon="1.20011142455041408538818359375">
        <ele>192.1999969482421875</ele>
        <time>2025-09-05T11:06:49.000Z</time>
        <extensions>
          <ns3:TrackPointExtension>
            <ns3:hr>107</ns3:hr>
            <ns3:cad>62</ns3:cad>
          </ns3:TrackPointExtension>
        </extensions>
      </trkpt>
      <trkpt lat="52.05899275839328765869140625" lon="1.200140006840229034423828125">
        <ele>192.399993896484375</ele>
        <time>2025-09-05T11:06:54.000Z</time>
        <extensions>
          <ns3:TrackPointExtension>
            <ns3:hr>109</ns3:hr>
            <ns3:cad>63</ns3:cad>
          </ns3:TrackPointExtension>
        </extensions>
      </trkpt>
      <trkpt lat="52.0589349232614040374755859375" lon="1.2001663260161876678466796875">
        <ele>192.399993896484375</ele>
        <time>2025-09-05T11:06:58.000Z</time>
        <extensions>
          <ns3:TrackPointExtension>
            <ns3:hr>106</ns3:hr>
            <ns3:cad>62</ns3:cad>
          </ns3:TrackPointExtension>
        </extensions>
      </trkpt>
      <trkpt lat="52.05887180753052234649658203125" lon="1.20019256137311458587646484375">
        <ele>192.399993896484375</ele>
        <time>2025-09-05T11:07:02.000Z</time>
        <extensions>
          <ns3:TrackPointExtension>
            <ns3:hr>110</ns3:hr>
            <ns3:cad>62</ns3:cad>
          </ns3:TrackPointExtension>
        </extensions>
      </trkpt>
      <trkpt lat="52.05885521136224269866943359375" lon="1.20019943453371524810791015625">
        <ele>192.399993896484375</ele>
        <time>2025-09-05T11:07:03.000Z</time>
        <extensions>
          <ns3:TrackPointExtension>
            <ns3:hr>110</ns3:hr>
            <ns3:cad>63</ns3:cad>
          </ns3:TrackPointExtension>
        </extensions>
      </trkpt>
      <trkpt lat="52.05882369540631771087646484375" lon="1.20021368376910686492919921875">
        <ele>192.1999969482421875</ele>
        <time>2025-09-05T11:07:05.000Z</time>
        <extensions>
          <ns3:TrackPointExtension>
            <ns3:hr>107</ns3:hr>
            <ns3:cad>63</ns3:cad>
          </ns3:TrackPointExtension>
        </extensions>
      </trkpt>
      <trkpt lat="52.05869679339230060577392578125" lon="1.20026146061718463897705078125">
        <ele>192.1999969482421875</ele>
        <time>2025-09-05T11:07:13.000Z</time>
        <extensions>
          <ns3:TrackPointExtension>
            <ns3:hr>107</ns3:hr>
            <ns3:cad>62</ns3:cad>
          </ns3:TrackPointExtension>
        </extensions>
      </trkpt>
      <trkpt lat="52.05857676453888416290283203125" lon="1.20030001737177371978759765625">
        <ele>192.1999969482421875</ele>
        <time>2025-09-05T11:07:20.000Z</time>
        <extensions>
          <ns3:TrackPointExtension>
            <ns3:hr>106</ns3:hr>
            <ns3:cad>61</ns3:cad>
          </ns3:TrackPointExtension>
        </extensions>
      </trkpt>
      <trkpt lat="52.05844290554523468017578125" lon="1.2003664858639240264892578125">
        <ele>192.1999969482421875</ele>
        <time>2025-09-05T11:07:29.000Z</time>
        <extensions>
          <ns3:TrackPointExtension>
            <ns3:hr>105</ns3:hr>
            <ns3:cad>61</ns3:cad>
          </ns3:TrackPointExtension>
        </extensions>
      </trkpt>
      <trkpt lat="52.058319188654422760009765625" lon="1.2004224769771099090576171875">
        <ele>192.1999969482421875</ele>
        <time>2025-09-05T11:07:37.000Z</time>
        <extensions>
          <ns3:TrackPointExtension>
            <ns3:hr>104</ns3:hr>
            <ns3:cad>62</ns3:cad>
          </ns3:TrackPointExtension>
        </extensions>
      </trkpt>
      <trkpt lat="52.05821751616895198822021484375" lon="1.20047586970031261444091796875">
        <ele>192.1999969482421875</ele>
        <time>2025-09-05T11:07:43.000Z</time>
        <extensions>
          <ns3:TrackPointExtension>
            <ns3:hr>105</ns3:hr>
            <ns3:cad>63</ns3:cad>
          </ns3:TrackPointExtension>
        </extensions>
      </trkpt>
      <trkpt lat="52.05810360610485076904296875" lon="1.20053705759346485137939453125">
        <ele>192.1999969482421875</ele>
        <time>2025-09-05T11:07:50.000Z</time>
        <extensions>
          <ns3:TrackPointExtension>
            <ns3:hr>104</ns3:hr>
            <ns3:cad>61</ns3:cad>
          </ns3:TrackPointExtension>
        </extensions>
      </trkpt>
      <trkpt lat="52.0580117404460906982421875" lon="1.20057192631065845489501953125">
        <ele>192.1999969482421875</ele>
        <time>2025-09-05T11:07:56.000Z</time>
        <extensions>
          <ns3:TrackPointExtension>
            <ns3:hr>105</ns3:hr>
            <ns3:cad>62</ns3:cad>
          </ns3:TrackPointExtension>
        </extensions>
      </trkpt>
      <trkpt lat="52.05788307823240756988525390625" lon="1.2006313540041446685791015625">
        <ele>192.1999969482421875</ele>
        <time>2025-09-05T11:08:04.000Z</time>
        <extensions>
          <ns3:TrackPointExtension>
            <ns3:hr>104</ns3:hr>
            <ns3:cad>62</ns3:cad>
          </ns3:TrackPointExtension>
        </extensions>
      </trkpt>
      <trkpt lat="52.057761959731578826904296875" lon="1.20069815777242183685302734375">
        <ele>192.1999969482421875</ele>
        <time>2025-09-05T11:08:11.000Z</time>
        <extensions>
          <ns3:TrackPointExtension>
            <ns3:hr>104</ns3:hr>
            <ns3:cad>63</ns3:cad>
          </ns3:TrackPointExtension>
        </extensions>
      </trkpt>
      <trkpt lat="52.05759842880070209503173828125" lon="1.20076655410230159759521484375">
        <ele>192.1999969482421875</ele>
        <time>2025-09-05T11:08:20.000Z</time>
        <extensions>
          <ns3:TrackPointExtension>
            <ns3:hr>104</ns3:hr>
            <ns3:cad>63</ns3:cad>
          </ns3:TrackPointExtension>
        </extensions>
      </trkpt>
      <trkpt lat="52.0575173757970333099365234375" lon="1.20080150663852691650390625">
        <ele>192.1999969482421875</ele>
        <time>2025-09-05T11:08:24.000Z</time>
        <extensions>
          <ns3:TrackPointExtension>
            <ns3:hr>101</ns3:hr>
            <ns3:cad>63</ns3:cad>
          </ns3:TrackPointExtension>
        </extensions>
      </trkpt>
      <trkpt lat="52.057490050792694091796875" lon="1.2008197791874408721923828125">
        <ele>192.1999969482421875</ele>
        <time>2025-09-05T11:08:26.000Z</time>
        <extensions>
          <ns3:TrackPointExtension>
            <ns3:hr>104</ns3:hr>
            <ns3:cad>63</ns3:cad>
          </ns3:TrackPointExtension>
        </extensions>
      </trkpt>
      <trkpt lat="52.05742022953927516937255859375" lon="1.2008585035800933837890625">
        <ele>192.1999969482421875</ele>
        <time>2025-09-05T11:08:31.000Z</time>
        <extensions>
          <ns3:TrackPointExtension>
            <ns3:hr>101</ns3:hr>
            <ns3:cad>62</ns3:cad>
          </ns3:TrackPointExtension>
        </extensions>
      </trkpt>
      <trkpt lat="52.0574127696454524993896484375" lon="1.20085691101849079132080078125">
        <ele>192.1999969482421875</ele>
        <time>2025-09-05T11:08:32.000Z</time>
        <extensions>
          <ns3:TrackPointExtension>
            <ns3:hr>101</ns3:hr>
            <ns3:cad>59</ns3:cad>
          </ns3:TrackPointExtension>
        </extensions>
      </trkpt>
      <trkpt lat="52.057387121021747589111328125" lon="1.2008596770465373992919921875">
        <ele>192.1999969482421875</ele>
        <time>2025-09-05T11:08:35.000Z</time>
        <extensions>
          <ns3:TrackPointExtension>
            <ns3:hr>97</ns3:hr>
            <ns3:cad>56</ns3:cad>
          </ns3:TrackPointExtension>
        </extensions>
      </trkpt>
      <trkpt lat="52.05735258758068084716796875" lon="1.2008834816515445709228515625">
        <ele>192.1999969482421875</ele>
        <time>2025-09-05T11:08:38.000Z</time>
        <extensions>
          <ns3:TrackPointExtension>
            <ns3:hr>100</ns3:hr>
            <ns3:cad>57</ns3:cad>
          </ns3:TrackPointExtension>
        </extensions>
      </trkpt>
      <trkpt lat="52.05729584209620952606201171875" lon="1.2008978985249996185302734375">
        <ele>192.1999969482421875</ele>
        <time>2025-09-05T11:08:41.000Z</time>
        <extensions>
          <ns3:TrackPointExtension>
            <ns3:hr>101</ns3:hr>
            <ns3:cad>61</ns3:cad>
          </ns3:TrackPointExtension>
        </extensions>
      </trkpt>
      <trkpt lat="52.0572568662464618682861328125" lon="1.20090250857174396514892578125">
        <ele>192.1999969482421875</ele>
        <time>2025-09-05T11:08:44.000Z</time>
        <extensions>
          <ns3:TrackPointExtension>
            <ns3:hr>100</ns3:hr>
            <ns3:cad>61</ns3:cad>
          </ns3:TrackPointExtension>
        </extensions>
      </trkpt>
      <trkpt lat="52.05722996033728122711181640625" lon="1.20094835758209228515625">
        <ele>192.1999969482421875</ele>
        <time>2025-09-05T11:08:47.000Z</time>
        <extensions>
          <ns3:TrackPointExtension>
            <ns3:hr>101</ns3:hr>
            <ns3:cad>61</ns3:cad>
          </ns3:TrackPointExtension>
        </extensions>
      </trkpt>
      <trkpt lat="52.05715217627584934234619140625" lon="1.20103997178375720977783203125">
        <ele>192.1999969482421875</ele>
        <time>2025-09-05T11:08:54.000Z</time>
        <extensions>
          <ns3:TrackPointExtension>
            <ns3:hr>100</ns3:hr>
            <ns3:cad>62</ns3:cad>
          </ns3:TrackPointExtension>
        </extensions>
      </trkpt>
      <trkpt lat="52.0570540241897106170654296875" lon="1.201128065586090087890625">
        <ele>192.1999969482421875</ele>
        <time>2025-09-05T11:09:00.000Z</time>
        <extensions>
          <ns3:TrackPointExtension>
            <ns3:hr>100</ns3:hr>
            <ns3:cad>62</ns3:cad>
          </ns3:TrackPointExtension>
        </extensions>
      </trkpt>
      <trkpt lat="52.056892253458499908447265625" lon="1.20119537226855754852294921875">
        <ele>192.1999969482421875</ele>
        <time>2025-09-05T11:09:09.000Z</time>
        <extensions>
          <ns3:TrackPointExtension>
            <ns3:hr>101</ns3:hr>
            <ns3:cad>61</ns3:cad>
          </ns3:TrackPointExtension>
        </extensions>
      </trkpt>
      <trkpt lat="52.05679611302912235260009765625" lon="1.2012465856969356536865234375">
        <ele>192.1999969482421875</ele>
        <time>2025-09-05T11:09:15.000Z</time>
        <extensions>
          <ns3:TrackPointExtension>
            <ns3:hr>105</ns3:hr>
            <ns3:cad>78</ns3:cad>
          </ns3:TrackPointExtension>
        </extensions>
      </trkpt>
      <trkpt lat="52.05673475749790668487548828125" lon="1.20127785019576549530029296875">
        <ele>192.1999969482421875</ele>
        <time>2025-09-05T11:09:18.000Z</time>
        <extensions>
          <ns3:TrackPointExtension>
            <ns3:hr>106</ns3:hr>
            <ns3:cad>79</ns3:cad>
          </ns3:TrackPointExtension>
        </extensions>
      </trkpt>
      <trkpt lat="52.0566919259727001190185546875" lon="1.20129771530628204345703125">
        <ele>192.1999969482421875</ele>
        <time>2025-09-05T11:09:20.000Z</time>
        <extensions>
          <ns3:TrackPointExtension>
            <ns3:hr>109</ns3:hr>
            <ns3:cad>79</ns3:cad>
          </ns3:TrackPointExtension>
        </extensions>
      </trkpt>
      <trkpt lat="52.05661020241677761077880859375" lon="1.2013361044228076934814453125">
        <ele>192.1999969482421875</ele>
        <time>2025-09-05T11:09:24.000Z</time>
        <extensions>
          <ns3:TrackPointExtension>
            <ns3:hr>112</ns3:hr>
            <ns3:cad>80</ns3:cad>
          </ns3:TrackPointExtension>
        </extensions>
      </trkpt>
      <trkpt lat="52.05656745471060276031494140625" lon="1.2013555504381656646728515625">
        <ele>192.1999969482421875</ele>
        <time>2025-09-05T11:09:26.000Z</time>
        <extensions>
          <ns3:TrackPointExtension>
            <ns3:hr>112</ns3:hr>
            <ns3:cad>81</ns3:cad>
          </ns3:TrackPointExtension>
        </extensions>
      </trkpt>
      <trkpt lat="52.05643736757338047027587890625" lon="1.20139159262180328369140625">
        <ele>192.8000030517578125</ele>
        <time>2025-09-05T11:09:31.000Z</time>
        <extensions>
          <ns3:TrackPointExtension>
            <ns3:hr>115</ns3:hr>
            <ns3:cad>81</ns3:cad>
          </ns3:TrackPointExtension>
        </extensions>
      </trkpt>
      <trkpt lat="52.0564156584441661834716796875" lon="1.20139435864984989166259765625">
        <ele>192.8000030517578125</ele>
        <time>2025-09-05T11:09:33.000Z</time>
        <extensions>
          <ns3:TrackPointExtension>
            <ns3:hr>116</ns3:hr>
            <ns3:cad>81</ns3:cad>
          </ns3:TrackPointExtension>
        </extensions>
      </trkpt>
      <trkpt lat="52.056378610432147979736328125" lon="1.20140659622848033905029296875">
        <ele>193</ele>
        <time>2025-09-05T11:09:34.000Z</time>
        <extensions>
          <ns3:TrackPointExtension>
            <ns3:hr>119</ns3:hr>
            <ns3:cad>81</ns3:cad>
          </ns3:TrackPointExtension>
        </extensions>
      </trkpt>
      <trkpt lat="52.05631993710994720458984375" lon="1.201427467167377471923828125">
        <ele>193.399993896484375</ele>
        <time>2025-09-05T11:09:37.000Z</time>
        <extensions>
          <ns3:TrackPointExtension>
            <ns3:hr>122</ns3:hr>
            <ns3:cad>81</ns3:cad>
          </ns3:TrackPointExtension>
        </extensions>
      </trkpt>
      <trkpt lat="52.05625682137906551361083984375" lon="1.20143978856503963470458984375">
        <ele>193.8000030517578125</ele>
        <time>2025-09-05T11:09:41.000Z</time>
        <extensions>
          <ns3:TrackPointExtension>
            <ns3:hr>124</ns3:hr>
            <ns3:cad>82</ns3:cad>
          </ns3:TrackPointExtension>
        </extensions>
      </trkpt>
      <trkpt lat="52.056235112249851226806640625" lon="1.20145051740109920501708984375">
        <ele>194</ele>
        <time>2025-09-05T11:09:42.000Z</time>
        <extensions>
          <ns3:TrackPointExtension>
            <ns3:hr>126</ns3:hr>
            <ns3:cad>81</ns3:cad>
          </ns3:TrackPointExtension>
        </extensions>
      </trkpt>
      <trkpt lat="52.056128494441509246826171875" lon="1.20150550268590450286865234375">
        <ele>195.1999969482421875</ele>
        <time>2025-09-05T11:09:47.000Z</time>
        <extensions>
          <ns3:TrackPointExtension>
            <ns3:hr>124</ns3:hr>
            <ns3:cad>80</ns3:cad>
          </ns3:TrackPointExtension>
        </extensions>
      </trkpt>
      <trkpt lat="52.05610577948391437530517578125" lon="1.20152176357805728912353515625">
        <ele>195.1999969482421875</ele>
        <time>2025-09-05T11:09:48.000Z</time>
        <extensions>
          <ns3:TrackPointExtension>
            <ns3:hr>124</ns3:hr>
            <ns3:cad>80</ns3:cad>
          </ns3:TrackPointExtension>
        </extensions>
      </trkpt>
      <trkpt lat="52.0560609363019466400146484375" lon="1.20155663229525089263916015625">
        <ele>195.399993896484375</ele>
        <time>2025-09-05T11:09:50.000Z</time>
        <extensions>
          <ns3:TrackPointExtension>
            <ns3:hr>127</ns3:hr>
            <ns3:cad>81</ns3:cad>
          </ns3:TrackPointExtension>
        </extensions>
      </trkpt>
      <trkpt lat="52.05590779893100261688232421875" lon="1.2016448937356472015380859375">
        <ele>196</ele>
        <time>2025-09-05T11:09:57.000Z</time>
        <extensions>
          <ns3:TrackPointExtension>
            <ns3:hr>128</ns3:hr>
            <ns3:cad>81</ns3:cad>
          </ns3:TrackPointExtension>
        </extensions>
      </trkpt>
      <trkpt lat="52.0558664761483669281005859375" lon="1.20166425593197345733642578125">
        <ele>196.1999969482421875</ele>
        <time>2025-09-05T11:09:59.000Z</time>
        <extensions>
          <ns3:TrackPointExtension>
            <ns3:hr>129</ns3:hr>
            <ns3:cad>82</ns3:cad>
          </ns3:TrackPointExtension>
        </extensions>
      </trkpt>
      <trkpt lat="52.055735550820827484130859375" lon="1.201713122427463531494140625">
        <ele>196.600006103515625</ele>
        <time>2025-09-05T11:10:05.000Z</time>
        <extensions>
          <ns3:TrackPointExtension>
            <ns3:hr>129</ns3:hr>
            <ns3:cad>81</ns3:cad>
          </ns3:TrackPointExtension>
        </extensions>
      </trkpt>
      <trkpt lat="52.0555915497243404388427734375" lon="1.20173625648021697998046875">
        <ele>197</ele>
        <time>2025-09-05T11:10:12.000Z</time>
        <extensions>
          <ns3:TrackPointExtension>
            <ns3:hr>129</ns3:hr>
            <ns3:cad>80</ns3:cad>
          </ns3:TrackPointExtension>
        </extensions>
      </trkpt>
      <trkpt lat="52.05553178675472736358642578125" lon="1.201743967831134796142578125">
        <ele>197.1999969482421875</ele>
        <time>2025-09-05T11:10:15.000Z</time>
        <extensions>
          <ns3:TrackPointExtension>
            <ns3:hr>132</ns3:hr>
            <ns3:cad>81</ns3:cad>
          </ns3:TrackPointExtension>
        </extensions>
      </trkpt>
      <trkpt lat="52.05546431243419647216796875" lon="1.20176701806485652923583984375">
        <ele>197.1999969482421875</ele>
        <time>2025-09-05T11:10:17.000Z</time>
        <extensions>
          <ns3:TrackPointExtension>
            <ns3:hr>131</ns3:hr>
            <ns3:cad>81</ns3:cad>
          </ns3:TrackPointExtension>
        </extensions>
      </trkpt>
      <trkpt lat="52.0553756318986415863037109375" lon="1.20178763754665851593017578125">
        <ele>197.399993896484375</ele>
        <time>2025-09-05T11:10:21.000Z</time>
        <extensions>
          <ns3:TrackPointExtension>
            <ns3:hr>132</ns3:hr>
            <ns3:cad>82</ns3:cad>
          </ns3:TrackPointExtension>
        </extensions>
      </trkpt>
      <trkpt lat="52.05527563579380512237548828125" lon="1.201812364161014556884765625">
        <ele>197.399993896484375</ele>
        <time>2025-09-05T11:10:27.000Z</time>
        <extensions>
          <ns3:TrackPointExtension>
            <ns3:hr>135</ns3:hr>
            <ns3:cad>82</ns3:cad>
          </ns3:TrackPointExtension>
        </extensions>
      </trkpt>
      <trkpt lat="52.0552224107086658477783203125" lon="1.201826445758342742919921875">
        <ele>197.399993896484375</ele>
        <time>2025-09-05T11:10:30.000Z</time>
        <extensions>
          <ns3:TrackPointExtension>
            <ns3:hr>135</ns3:hr>
            <ns3:cad>82</ns3:cad>
          </ns3:TrackPointExtension>
        </extensions>
      </trkpt>
      <trkpt lat="52.05505653284490108489990234375" lon="1.2017890624701976776123046875">
        <ele>197.1999969482421875</ele>
        <time>2025-09-05T11:10:38.000Z</time>
        <extensions>
          <ns3:TrackPointExtension>
            <ns3:hr>138</ns3:hr>
            <ns3:cad>82</ns3:cad>
          </ns3:TrackPointExtension>
        </extensions>
      </trkpt>
      <trkpt lat="52.05495762638747692108154296875" lon="1.2017743103206157684326171875">
        <ele>197.1999969482421875</ele>
        <time>2025-09-05T11:10:42.000Z</time>
        <extensions>
          <ns3:TrackPointExtension>
            <ns3:hr>135</ns3:hr>
            <ns3:cad>81</ns3:cad>
          </ns3:TrackPointExtension>
        </extensions>
      </trkpt>
      <trkpt lat="52.05486441962420940399169921875" lon="1.20176165364682674407958984375">
        <ele>197.1999969482421875</ele>
        <time>2025-09-05T11:10:46.000Z</time>
        <extensions>
          <ns3:TrackPointExtension>
            <ns3:hr>136</ns3:hr>
            <ns3:cad>81</ns3:cad>
          </ns3:TrackPointExtension>
        </extensions>
      </trkpt>
      <trkpt lat="52.05477305687963962554931640625" lon="1.20174237526953220367431640625">
        <ele>197.1999969482421875</ele>
        <time>2025-09-05T11:10:50.000Z</time>
        <extensions>
          <ns3:TrackPointExtension>
            <ns3:hr>133</ns3:hr>
            <ns3:cad>81</ns3:cad>
          </ns3:TrackPointExtension>
        </extensions>
      </trkpt>
      <trkpt lat="52.0547054149210453033447265625" lon="1.20173499919474124908447265625">
        <ele>197.1999969482421875</ele>
        <time>2025-09-05T11:10:53.000Z</time>
        <extensions>
          <ns3:TrackPointExtension>
            <ns3:hr>131</ns3:hr>
            <ns3:cad>81</ns3:cad>
          </ns3:TrackPointExtension>
        </extensions>
      </trkpt>
      <trkpt lat="52.0546819455921649932861328125" lon="1.2017355859279632568359375">
        <ele>197.1999969482421875</ele>
        <time>2025-09-05T11:10:54.000Z</time>
        <extensions>
          <ns3:TrackPointExtension>
            <ns3:hr>128</ns3:hr>
            <ns3:cad>80</ns3:cad>
          </ns3:TrackPointExtension>
        </extensions>
      </trkpt>
      <trkpt lat="52.05458329059183597564697265625" lon="1.2018138729035854339599609375">
        <ele>197.399993896484375</ele>
        <time>2025-09-05T11:10:59.000Z</time>
        <extensions>
          <ns3:TrackPointExtension>
            <ns3:hr>126</ns3:hr>
            <ns3:cad>80</ns3:cad>
          </ns3:TrackPointExtension>
        </extensions>
      </trkpt>
      <trkpt lat="52.05454423092305660247802734375" lon="1.2018427066504955291748046875">
        <ele>197.399993896484375</ele>
        <time>2025-09-05T11:11:00.000Z</time>
        <extensions>
          <ns3:TrackPointExtension>
            <ns3:hr>123</ns3:hr>
            <ns3:cad>80</ns3:cad>
          </ns3:TrackPointExtension>
        </extensions>
      </trkpt>
      <trkpt lat="52.05447566695511341094970703125" lon="1.20184379629790782928466796875">
        <ele>197.399993896484375</ele>
        <time>2025-09-05T11:11:04.000Z</time>
        <extensions>
          <ns3:TrackPointExtension>
            <ns3:hr>125</ns3:hr>
            <ns3:cad>81</ns3:cad>
          </ns3:TrackPointExtension>
        </extensions>
      </trkpt>
      <trkpt lat="52.0543825440108776092529296875" lon="1.20183357037603855133056640625">
        <ele>197.399993896484375</ele>
        <time>2025-09-05T11:11:08.000Z</time>
        <extensions>
          <ns3:TrackPointExtension>
            <ns3:hr>129</ns3:hr>
            <ns3:cad>82</ns3:cad>
          </ns3:TrackPointExtension>
        </extensions>
      </trkpt>
      <trkpt lat="52.05426628701388835906982421875" lon="1.20181228034198284149169921875">
        <ele>197.600006103515625</ele>
        <time>2025-09-05T11:11:13.000Z</time>
        <extensions>
          <ns3:TrackPointExtension>
            <ns3:hr>128</ns3:hr>
            <ns3:cad>81</ns3:cad>
          </ns3:TrackPointExtension>
        </extensions>
      </trkpt>
      <trkpt lat="52.05421683378517627716064453125" lon="1.20180037803947925567626953125">
        <ele>197.600006103515625</ele>
        <time>2025-09-05T11:11:15.000Z</time>
        <extensions>
          <ns3:TrackPointExtension>
            <ns3:hr>132</ns3:hr>
            <ns3:cad>81</ns3:cad>
          </ns3:TrackPointExtension>
        </extensions>
      </trkpt>
      <trkpt lat="52.05414961092174053192138671875" lon="1.2017860449850559234619140625">
        <ele>197.8000030517578125</ele>
        <time>2025-09-05T11:11:18.000Z</time>
        <extensions>
          <ns3:TrackPointExtension>
            <ns3:hr>135</ns3:hr>
            <ns3:cad>82</ns3:cad>
          </ns3:TrackPointExtension>
        </extensions>
      </trkpt>
      <trkpt lat="52.05412647686898708343505859375" lon="1.2017838656902313232421875">
        <ele>197.8000030517578125</ele>
        <time>2025-09-05T11:11:19.000Z</time>
        <extensions>
          <ns3:TrackPointExtension>
            <ns3:hr>132</ns3:hr>
            <ns3:cad>82</ns3:cad>
          </ns3:TrackPointExtension>
        </extensions>
      </trkpt>
      <trkpt lat="52.0540150813758373260498046875" lon="1.20175746269524097442626953125">
        <ele>198</ele>
        <time>2025-09-05T11:11:24.000Z</time>
        <extensions>
          <ns3:TrackPointExtension>
            <ns3:hr>134</ns3:hr>
            <ns3:cad>81</ns3:cad>
          </ns3:TrackPointExtension>
        </extensions>
      </trkpt>
      <trkpt lat="52.05389312468469142913818359375" lon="1.20172460563480854034423828125">
        <ele>198.1999969482421875</ele>
        <time>2025-09-05T11:11:30.000Z</time>
        <extensions>
          <ns3:TrackPointExtension>
            <ns3:hr>135</ns3:hr>
            <ns3:cad>82</ns3:cad>
          </ns3:TrackPointExtension>
        </extensions>
      </trkpt>
      <trkpt lat="52.0537770353257656097412109375" lon="1.201741956174373626708984375">
        <ele>198.399993896484375</ele>
        <time>2025-09-05T11:11:34.000Z</time>
        <extensions>
          <ns3:TrackPointExtension>
            <ns3:hr>138</ns3:hr>
            <ns3:cad>81</ns3:cad>
          </ns3:TrackPointExtension>
        </extensions>
      </trkpt>
      <trkpt lat="52.05375163815915584564208984375" lon="1.20173717848956584930419921875">
        <ele>198.399993896484375</ele>
        <time>2025-09-05T11:11:36.000Z</time>
        <extensions>
          <ns3:TrackPointExtension>
            <ns3:hr>140</ns3:hr>
            <ns3:cad>81</ns3:cad>
          </ns3:TrackPointExtension>
        </extensions>
      </trkpt>
      <trkpt lat="52.05359254963696002960205078125" lon="1.2016827799379825592041015625">
        <ele>199.1999969482421875</ele>
        <time>2025-09-05T11:11:43.000Z</time>
        <extensions>
          <ns3:TrackPointExtension>
            <ns3:hr>139</ns3:hr>
            <ns3:cad>81</ns3:cad>
          </ns3:TrackPointExtension>
        </extensions>
      </trkpt>
      <trkpt lat="52.05352331511676311492919921875" lon="1.2016613222658634185791015625">
        <ele>199.399993896484375</ele>
        <time>2025-09-05T11:11:46.000Z</time>
        <extensions>
          <ns3:TrackPointExtension>
            <ns3:hr>138</ns3:hr>
            <ns3:cad>81</ns3:cad>
          </ns3:TrackPointExtension>
        </extensions>
      </trkpt>
      <trkpt lat="52.05339859239757061004638671875" lon="1.20165637694299221038818359375">
        <ele>199.8000030517578125</ele>
        <time>2025-09-05T11:11:51.000Z</time>
        <extensions>
          <ns3:TrackPointExtension>
            <ns3:hr>140</ns3:hr>
            <ns3:cad>81</ns3:cad>
          </ns3:TrackPointExtension>
        </extensions>
      </trkpt>
      <trkpt lat="52.05321804620325565338134765625" lon="1.2016049958765506744384765625">
        <ele>200.1999969482421875</ele>
        <time>2025-09-05T11:11:59.000Z</time>
        <extensions>
          <ns3:TrackPointExtension>
            <ns3:hr>141</ns3:hr>
            <ns3:cad>82</ns3:cad>
          </ns3:TrackPointExtension>
        </extensions>
      </trkpt>
      <trkpt lat="52.05306247808039188385009765625" lon="1.2015775032341480255126953125">
        <ele>200.399993896484375</ele>
        <time>2025-09-05T11:12:06.000Z</time>
        <extensions>
          <ns3:TrackPointExtension>
            <ns3:hr>142</ns3:hr>
            <ns3:cad>82</ns3:cad>
          </ns3:TrackPointExtension>
        </extensions>
      </trkpt>
      <trkpt lat="52.05304118804633617401123046875" lon="1.2015728093683719635009765625">
        <ele>200.600006103515625</ele>
        <time>2025-09-05T11:12:07.000Z</time>
        <extensions>
          <ns3:TrackPointExtension>
            <ns3:hr>141</ns3:hr>
            <ns3:cad>81</ns3:cad>
          </ns3:TrackPointExtension>
        </extensions>
      </trkpt>
      <trkpt lat="52.0529478974640369415283203125" lon="1.20154447853565216064453125">
        <ele>200.600006103515625</ele>
        <time>2025-09-05T11:12:11.000Z</time>
        <extensions>
          <ns3:TrackPointExtension>
            <ns3:hr>144</ns3:hr>
            <ns3:cad>82</ns3:cad>
          </ns3:TrackPointExtension>
        </extensions>
      </trkpt>
      <trkpt lat="52.0528801716864109039306640625" lon="1.20152159593999385833740234375">
        <ele>200.600006103515625</ele>
        <time>2025-09-05T11:12:14.000Z</time>
        <extensions>
          <ns3:TrackPointExtension>
            <ns3:hr>148</ns3:hr>
            <ns3:cad>82</ns3:cad>
          </ns3:TrackPointExtension>
        </extensions>
      </trkpt>
      <trkpt lat="52.0528318919241428375244140625" lon="1.2015117891132831573486328125">
        <ele>200.600006103515625</ele>
        <time>2025-09-05T11:12:16.000Z</time>
        <extensions>
          <ns3:TrackPointExtension>
            <ns3:hr>147</ns3:hr>
            <ns3:cad>82</ns3:cad>
          </ns3:TrackPointExtension>
        </extensions>
      </trkpt>
      <trkpt lat="52.0526538603007793426513671875" lon="1.20145521126687526702880859375">
        <ele>201</ele>
        <time>2025-09-05T11:12:24.000Z</time>
        <extensions>
          <ns3:TrackPointExtension>
            <ns3:hr>147</ns3:hr>
            <ns3:cad>82</ns3:cad>
          </ns3:TrackPointExtension>
        </extensions>
      </trkpt>
      <trkpt lat="52.05248077400028705596923828125" lon="1.201420761644840240478515625">
        <ele>200.8000030517578125</ele>
        <time>2025-09-05T11:12:32.000Z</time>
        <extensions>
          <ns3:TrackPointExtension>
            <ns3:hr>143</ns3:hr>
            <ns3:cad>83</ns3:cad>
          </ns3:TrackPointExtension>
        </extensions>
      </trkpt>
      <trkpt lat="52.0523122139275074005126953125" lon="1.201365105807781219482421875">
        <ele>200.8000030517578125</ele>
        <time>2025-09-05T11:12:40.000Z</time>
        <extensions>
          <ns3:TrackPointExtension>
            <ns3:hr>145</ns3:hr>
            <ns3:cad>82</ns3:cad>
          </ns3:TrackPointExtension>
        </extensions>
      </trkpt>
      <trkpt lat="52.0522009022533893585205078125" lon="1.20134591124951839447021484375">
        <ele>200.600006103515625</ele>
        <time>2025-09-05T11:12:44.000Z</time>
        <extensions>
          <ns3:TrackPointExtension>
            <ns3:hr>142</ns3:hr>
            <ns3:cad>82</ns3:cad>
          </ns3:TrackPointExtension>
        </extensions>
      </trkpt>
      <trkpt lat="52.05213208682835102081298828125" lon="1.2013461627066135406494140625">
        <ele>200.600006103515625</ele>
        <time>2025-09-05T11:12:47.000Z</time>
        <extensions>
          <ns3:TrackPointExtension>
            <ns3:hr>143</ns3:hr>
            <ns3:cad>81</ns3:cad>
          </ns3:TrackPointExtension>
        </extensions>
      </trkpt>
      <trkpt lat="52.0520009100437164306640625" lon="1.2013149820268154144287109375">
        <ele>201</ele>
        <time>2025-09-05T11:12:54.000Z</time>
        <extensions>
          <ns3:TrackPointExtension>
            <ns3:hr>140</ns3:hr>
            <ns3:cad>82</ns3:cad>
          </ns3:TrackPointExtension>
        </extensions>
      </trkpt>
      <trkpt lat="52.051873505115509033203125" lon="1.201302073895931243896484375">
        <ele>201.1999969482421875</ele>
        <time>2025-09-05T11:12:59.000Z</time>
        <extensions>
          <ns3:TrackPointExtension>
            <ns3:hr>143</ns3:hr>
            <ns3:cad>82</ns3:cad>
          </ns3:TrackPointExtension>
        </extensions>
      </trkpt>
      <trkpt lat="52.05180636607110500335693359375" lon="1.20129042305052280426025390625">
        <ele>201.1999969482421875</ele>
        <time>2025-09-05T11:13:02.000Z</time>
        <extensions>
          <ns3:TrackPointExtension>
            <ns3:hr>144</ns3:hr>
            <ns3:cad>82</ns3:cad>
          </ns3:TrackPointExtension>
        </extensions>
      </trkpt>
      <trkpt lat="52.05164291895925998687744140625" lon="1.201260499656200408935546875">
        <ele>201.399993896484375</ele>
        <time>2025-09-05T11:13:09.000Z</time>
        <extensions>
          <ns3:TrackPointExtension>
            <ns3:hr>144</ns3:hr>
            <ns3:cad>82</ns3:cad>
          </ns3:TrackPointExtension>
        </extensions>
      </trkpt>
      <trkpt lat="52.051483578979969024658203125" lon="1.20123174972832202911376953125">
        <ele>201.399993896484375</ele>
        <time>2025-09-05T11:13:16.000Z</time>
        <extensions>
          <ns3:TrackPointExtension>
            <ns3:hr>143</ns3:hr>
            <ns3:cad>82</ns3:cad>
          </ns3:TrackPointExtension>
        </extensions>
      </trkpt>
      <trkpt lat="52.0514431782066822052001953125" lon="1.20122051797807216644287109375">
        <ele>201.600006103515625</ele>
        <time>2025-09-05T11:13:18.000Z</time>
        <extensions>
          <ns3:TrackPointExtension>
            <ns3:hr>143</ns3:hr>
            <ns3:cad>82</ns3:cad>
          </ns3:TrackPointExtension>
        </extensions>
      </trkpt>
      <trkpt lat="52.051334716379642486572265625" lon="1.2011654488742351531982421875">
        <ele>201.8000030517578125</ele>
        <time>2025-09-05T11:13:23.000Z</time>
        <extensions>
          <ns3:TrackPointExtension>
            <ns3:hr>142</ns3:hr>
            <ns3:cad>80</ns3:cad>
          </ns3:TrackPointExtension>
        </extensions>
      </trkpt>
      <trkpt lat="52.05120898783206939697265625" lon="1.2011513672769069671630859375">
        <ele>201.8000030517578125</ele>
        <time>2025-09-05T11:13:29.000Z</time>
        <extensions>
          <ns3:TrackPointExtension>
            <ns3:hr>141</ns3:hr>
            <ns3:cad>80</ns3:cad>
          </ns3:TrackPointExtension>
        </extensions>
      </trkpt>
      <trkpt lat="52.05117219127714633941650390625" lon="1.20113971643149852752685546875">
        <ele>201.8000030517578125</ele>
        <time>2025-09-05T11:13:30.000Z</time>
        <extensions>
          <ns3:TrackPointExtension>
            <ns3:hr>140</ns3:hr>
            <ns3:cad>80</ns3:cad>
          </ns3:TrackPointExtension>
        </extensions>
      </trkpt>
      <trkpt lat="52.05105031840503215789794921875" lon="1.2010118924081325531005859375">
        <ele>201.600006103515625</ele>
        <time>2025-09-05T11:13:37.000Z</time>
        <extensions>
          <ns3:TrackPointExtension>
            <ns3:hr>140</ns3:hr>
            <ns3:cad>81</ns3:cad>
          </ns3:TrackPointExtension>
        </extensions>
      </trkpt>
      <trkpt lat="52.0508913137018680572509765625" lon="1.20102874003350734710693359375">
        <ele>201.399993896484375</ele>
        <time>2025-09-05T11:13:44.000Z</time>
        <extensions>
          <ns3:TrackPointExtension>
            <ns3:hr>139</ns3:hr>
            <ns3:cad>76</ns3:cad>
          </ns3:TrackPointExtension>
        </extensions>
      </trkpt>
      <trkpt lat="52.050784192979335784912109375" lon="1.201057322323322296142578125">
        <ele>201.1999969482421875</ele>
        <time>2025-09-05T11:13:49.000Z</time>
        <extensions>
          <ns3:TrackPointExtension>
            <ns3:hr>142</ns3:hr>
            <ns3:cad>76</ns3:cad>
          </ns3:TrackPointExtension>
        </extensions>
      </trkpt>
      <trkpt lat="52.050715796649456024169921875" lon="1.201094873249530792236328125">
        <ele>201.1999969482421875</ele>
        <time>2025-09-05T11:13:52.000Z</time>
        <extensions>
          <ns3:TrackPointExtension>
            <ns3:hr>141</ns3:hr>
            <ns3:cad>79</ns3:cad>
          </ns3:TrackPointExtension>
        </extensions>
      </trkpt>
      <trkpt lat="52.0505473203957080841064453125" lon="1.20109654963016510009765625">
        <ele>201.1999969482421875</ele>
        <time>2025-09-05T11:13:59.000Z</time>
        <extensions>
          <ns3:TrackPointExtension>
            <ns3:hr>142</ns3:hr>
            <ns3:cad>80</ns3:cad>
          </ns3:TrackPointExtension>
        </extensions>
      </trkpt>
      <trkpt lat="52.05037708394229412078857421875" lon="1.2010410614311695098876953125">
        <ele>201</ele>
        <time>2025-09-05T11:14:06.000Z</time>
        <extensions>
          <ns3:TrackPointExtension>
            <ns3:hr>142</ns3:hr>
            <ns3:cad>81</ns3:cad>
          </ns3:TrackPointExtension>
        </extensions>
      </trkpt>
      <trkpt lat="52.0502422191202640533447265625" lon="1.20106545276939868927001953125">
        <ele>200.600006103515625</ele>
        <time>2025-09-05T11:14:12.000Z</time>
        <extensions>
          <ns3:TrackPointExtension>
            <ns3:hr>143</ns3:hr>
            <ns3:cad>81</ns3:cad>
          </ns3:TrackPointExtension>
        </extensions>
      </trkpt>
      <trkpt lat="52.0502214320003986358642578125" lon="1.201063357293605804443359375">
        <ele>200.600006103515625</ele>
        <time>2025-09-05T11:14:13.000Z</time>
        <extensions>
          <ns3:TrackPointExtension>
            <ns3:hr>143</ns3:hr>
            <ns3:cad>81</ns3:cad>
          </ns3:TrackPointExtension>
        </extensions>
      </trkpt>
      <trkpt lat="52.050044238567352294921875" lon="1.20102169923484325408935546875">
        <ele>200.1999969482421875</ele>
        <time>2025-09-05T11:14:21.000Z</time>
        <extensions>
          <ns3:TrackPointExtension>
            <ns3:hr>143</ns3:hr>
            <ns3:cad>80</ns3:cad>
          </ns3:TrackPointExtension>
        </extensions>
      </trkpt>
      <trkpt lat="52.049905769526958465576171875" lon="1.2009766884148120880126953125">
        <ele>199.600006103515625</ele>
        <time>2025-09-05T11:14:28.000Z</time>
        <extensions>
          <ns3:TrackPointExtension>
            <ns3:hr>143</ns3:hr>
            <ns3:cad>81</ns3:cad>
          </ns3:TrackPointExtension>
        </extensions>
      </trkpt>
      <trkpt lat="52.049813903868198394775390625" lon="1.20094760321080684661865234375">
        <ele>199.399993896484375</ele>
        <time>2025-09-05T11:14:31.000Z</time>
        <extensions>
          <ns3:TrackPointExtension>
            <ns3:hr>142</ns3:hr>
            <ns3:cad>80</ns3:cad>
          </ns3:TrackPointExtension>
        </extensions>
      </trkpt>
      <trkpt lat="52.04978917725384235382080078125" lon="1.20094492100179195404052734375">
        <ele>199.399993896484375</ele>
        <time>2025-09-05T11:14:32.000Z</time>
        <extensions>
          <ns3:TrackPointExtension>
            <ns3:hr>146</ns3:hr>
            <ns3:cad>80</ns3:cad>
          </ns3:TrackPointExtension>
        </extensions>
      </trkpt>
      <trkpt lat="52.0497232116758823394775390625" lon="1.20093301869928836822509765625">
        <ele>199.399993896484375</ele>
        <time>2025-09-05T11:14:35.000Z</time>
        <extensions>
          <ns3:TrackPointExtension>
            <ns3:hr>147</ns3:hr>
            <ns3:cad>80</ns3:cad>
          </ns3:TrackPointExtension>
        </extensions>
      </trkpt>
      <trkpt lat="52.04955046065151691436767578125" lon="1.20090820826590061187744140625">
        <ele>199.399993896484375</ele>
        <time>2025-09-05T11:14:43.000Z</time>
        <extensions>
          <ns3:TrackPointExtension>
            <ns3:hr>149</ns3:hr>
            <ns3:cad>81</ns3:cad>
          </ns3:TrackPointExtension>
        </extensions>
      </trkpt>
      <trkpt lat="52.04946345649659633636474609375" lon="1.20086587965488433837890625">
        <ele>199.600006103515625</ele>
        <time>2025-09-05T11:14:50.000Z</time>
        <extensions>
          <ns3:TrackPointExtension>
            <ns3:hr>148</ns3:hr>
            <ns3:cad>40</ns3:cad>
          </ns3:TrackPointExtension>
        </extensions>
      </trkpt>
      <trkpt lat="52.049438059329986572265625" lon="1.20084517635405063629150390625">
        <ele>199.600006103515625</ele>
        <time>2025-09-05T11:14:51.000Z</time>
        <extensions>
          <ns3:TrackPointExtension>
            <ns3:hr>149</ns3:hr>
            <ns3:cad>40</ns3:cad>
          </ns3:TrackPointExtension>
        </extensions>
      </trkpt>
      <trkpt lat="52.04938181675970554351806640625" lon="1.20086495764553546905517578125">
        <ele>199.600006103515625</ele>
        <time>2025-09-05T11:14:54.000Z</time>
        <extensions>
          <ns3:TrackPointExtension>
            <ns3:hr>148</ns3:hr>
            <ns3:cad>0</ns3:cad>
          </ns3:TrackPointExtension>
        </extensions>
      </trkpt>
      <trkpt lat="52.04926379956305027008056640625" lon="1.20087183080613613128662109375">
        <ele>199.399993896484375</ele>
        <time>2025-09-05T11:15:01.000Z</time>
        <extensions>
          <ns3:TrackPointExtension>
            <ns3:hr>147</ns3:hr>
            <ns3:cad>80</ns3:cad>
          </ns3:TrackPointExtension>
        </extensions>
      </trkpt>
      <trkpt lat="52.04908736050128936767578125" lon="1.2008030153810977935791015625">
        <ele>198.8000030517578125</ele>
        <time>2025-09-05T11:15:08.000Z</time>
        <extensions>
          <ns3:TrackPointExtension>
            <ns3:hr>148</ns3:hr>
            <ns3:cad>81</ns3:cad>
          </ns3:TrackPointExtension>
        </extensions>
      </trkpt>
      <trkpt lat="52.04897043295204639434814453125" lon="1.20074258185923099517822265625">
        <ele>198.399993896484375</ele>
        <time>2025-09-05T11:15:14.000Z</time>
        <extensions>
          <ns3:TrackPointExtension>
            <ns3:hr>149</ns3:hr>
            <ns3:cad>81</ns3:cad>
          </ns3:TrackPointExtension>
        </extensions>
      </trkpt>
      <trkpt lat="52.048930786550045013427734375" lon="1.20073302648961544036865234375">
        <ele>198.600006103515625</ele>
        <time>2025-09-05T11:15:16.000Z</time>
        <extensions>
          <ns3:TrackPointExtension>
            <ns3:hr>149</ns3:hr>
            <ns3:cad>81</ns3:cad>
          </ns3:TrackPointExtension>
        </extensions>
      </trkpt>
      <trkpt lat="52.048789970576763153076171875" lon="1.20070385746657848358154296875">
        <ele>198.600006103515625</ele>
        <time>2025-09-05T11:15:22.000Z</time>
        <extensions>
          <ns3:TrackPointExtension>
            <ns3:hr>149</ns3:hr>
            <ns3:cad>82</ns3:cad>
          </ns3:TrackPointExtension>
        </extensions>
      </trkpt>
      <trkpt lat="52.048675306141376495361328125" lon="1.20067217387259006500244140625">
        <ele>198.8000030517578125</ele>
        <time>2025-09-05T11:15:27.000Z</time>
        <extensions>
          <ns3:TrackPointExtension>
            <ns3:hr>152</ns3:hr>
            <ns3:cad>81</ns3:cad>
          </ns3:TrackPointExtension>
        </extensions>
      </trkpt>
      <trkpt lat="52.0486540161073207855224609375" lon="1.2006600201129913330078125">
        <ele>198.8000030517578125</ele>
        <time>2025-09-05T11:15:29.000Z</time>
        <extensions>
          <ns3:TrackPointExtension>
            <ns3:hr>150</ns3:hr>
            <ns3:cad>81</ns3:cad>
          </ns3:TrackPointExtension>
        </extensions>
      </trkpt>
      <trkpt lat="52.0484967716038227081298828125" lon="1.200613081455230712890625">
        <ele>198.8000030517578125</ele>
        <time>2025-09-05T11:15:35.000Z</time>
        <extensions>
          <ns3:TrackPointExtension>
            <ns3:hr>149</ns3:hr>
            <ns3:cad>81</ns3:cad>
          </ns3:TrackPointExtension>
        </extensions>
      </trkpt>
      <trkpt lat="52.04831832088530063629150390625" lon="1.200569830834865570068359375">
        <ele>198.8000030517578125</ele>
        <time>2025-09-05T11:15:43.000Z</time>
        <extensions>
          <ns3:TrackPointExtension>
            <ns3:hr>150</ns3:hr>
            <ns3:cad>82</ns3:cad>
          </ns3:TrackPointExtension>
        </extensions>
      </trkpt>
      <trkpt lat="52.04813257791101932525634765625" lon="1.2005374766886234283447265625">
        <ele>198.1999969482421875</ele>
        <time>2025-09-05T11:15:52.000Z</time>
        <extensions>
          <ns3:TrackPointExtension>
            <ns3:hr>148</ns3:hr>
            <ns3:cad>81</ns3:cad>
          </ns3:TrackPointExtension>
        </extensions>
      </trkpt>
      <trkpt lat="52.0480017364025115966796875" lon="1.20049531571567058563232421875">
        <ele>197.8000030517578125</ele>
        <time>2025-09-05T11:15:59.000Z</time>
        <extensions>
          <ns3:TrackPointExtension>
            <ns3:hr>151</ns3:hr>
            <ns3:cad>81</ns3:cad>
          </ns3:TrackPointExtension>
        </extensions>
      </trkpt>
      <trkpt lat="52.0479777641594409942626953125" lon="1.2004928849637508392333984375">
        <ele>197.8000030517578125</ele>
        <time>2025-09-05T11:16:00.000Z</time>
        <extensions>
          <ns3:TrackPointExtension>
            <ns3:hr>149</ns3:hr>
            <ns3:cad>81</ns3:cad>
          </ns3:TrackPointExtension>
        </extensions>
      </trkpt>
      <trkpt lat="52.04783937893807888031005859375" lon="1.200461871922016143798828125">
        <ele>197.399993896484375</ele>
        <time>2025-09-05T11:16:05.000Z</time>
        <extensions>
          <ns3:TrackPointExtension>
            <ns3:hr>149</ns3:hr>
            <ns3:cad>81</ns3:cad>
          </ns3:TrackPointExtension>
        </extensions>
      </trkpt>
      <trkpt lat="52.04776712693274021148681640625" lon="1.20044569484889507293701171875">
        <ele>197.1999969482421875</ele>
        <time>2025-09-05T11:16:08.000Z</time>
        <extensions>
          <ns3:TrackPointExtension>
            <ns3:hr>150</ns3:hr>
            <ns3:cad>82</ns3:cad>
          </ns3:TrackPointExtension>
        </extensions>
      </trkpt>
      <trkpt lat="52.0476128160953521728515625" lon="1.2004073895514011383056640625">
        <ele>197</ele>
        <time>2025-09-05T11:16:15.000Z</time>
        <extensions>
          <ns3:TrackPointExtension>
            <ns3:hr>151</ns3:hr>
            <ns3:cad>81</ns3:cad>
          </ns3:TrackPointExtension>
        </extensions>
      </trkpt>
      <trkpt lat="52.04744241200387477874755859375" lon="1.20034729130566120147705078125">
        <ele>196.399993896484375</ele>
        <time>2025-09-05T11:16:23.000Z</time>
        <extensions>
          <ns3:TrackPointExtension>
            <ns3:hr>150</ns3:hr>
            <ns3:cad>81</ns3:cad>
          </ns3:TrackPointExtension>
        </extensions>
      </trkpt>
      <trkpt lat="52.0474205352365970611572265625" lon="1.20034016668796539306640625">
        <ele>196.399993896484375</ele>
        <time>2025-09-05T11:16:24.000Z</time>
        <extensions>
          <ns3:TrackPointExtension>
            <ns3:hr>150</ns3:hr>
            <ns3:cad>81</ns3:cad>
          </ns3:TrackPointExtension>
        </extensions>
      </trkpt>
      <trkpt lat="52.04725817777216434478759765625" lon="1.20031602680683135986328125">
        <ele>196</ele>
        <time>2025-09-05T11:16:31.000Z</time>
        <extensions>
          <ns3:TrackPointExtension>
            <ns3:hr>151</ns3:hr>
            <ns3:cad>81</ns3:cad>
          </ns3:TrackPointExtension>
        </extensions>
      </trkpt>
      <trkpt lat="52.047061622142791748046875" lon="1.2003091536462306976318359375">
        <ele>195.8000030517578125</ele>
        <time>2025-09-05T11:16:39.000Z</time>
        <extensions>
          <ns3:TrackPointExtension>
            <ns3:hr>151</ns3:hr>
            <ns3:cad>81</ns3:cad>
          </ns3:TrackPointExtension>
        </extensions>
      </trkpt>
      <trkpt lat="52.04686959274113178253173828125" lon="1.20027554221451282501220703125">
        <ele>195.600006103515625</ele>
        <time>2025-09-05T11:16:47.000Z</time>
        <extensions>
          <ns3:TrackPointExtension>
            <ns3:hr>154</ns3:hr>
            <ns3:cad>82</ns3:cad>
          </ns3:TrackPointExtension>
        </extensions>
      </trkpt>
      <trkpt lat="52.0468431897461414337158203125" lon="1.200270764529705047607421875">
        <ele>195.600006103515625</ele>
        <time>2025-09-05T11:16:48.000Z</time>
        <extensions>
          <ns3:TrackPointExtension>
            <ns3:hr>151</ns3:hr>
            <ns3:cad>82</ns3:cad>
          </ns3:TrackPointExtension>
        </extensions>
      </trkpt>
      <trkpt lat="52.04679113812744617462158203125" lon="1.20026665739715099334716796875">
        <ele>195.399993896484375</ele>
        <time>2025-09-05T11:16:50.000Z</time>
        <extensions>
          <ns3:TrackPointExtension>
            <ns3:hr>151</ns3:hr>
            <ns3:cad>82</ns3:cad>
          </ns3:TrackPointExtension>
        </extensions>
      </trkpt>
      <trkpt lat="52.046712934970855712890625" lon="1.20026213116943836212158203125">
        <ele>195.399993896484375</ele>
        <time>2025-09-05T11:16:53.000Z</time>
        <extensions>
          <ns3:TrackPointExtension>
            <ns3:hr>149</ns3:hr>
            <ns3:cad>82</ns3:cad>
          </ns3:TrackPointExtension>
        </extensions>
      </trkpt>
      <trkpt lat="52.04662132076919078826904296875" lon="1.20023681782186031341552734375">
        <ele>195.1999969482421875</ele>
        <time>2025-09-05T11:16:57.000Z</time>
        <extensions>
          <ns3:TrackPointExtension>
            <ns3:hr>151</ns3:hr>
            <ns3:cad>81</ns3:cad>
          </ns3:TrackPointExtension>
        </extensions>
      </trkpt>
      <trkpt lat="52.04643457196652889251708984375" lon="1.2001971714198589324951171875">
        <ele>194.600006103515625</ele>
        <time>2025-09-05T11:17:05.000Z</time>
        <extensions>
          <ns3:TrackPointExtension>
            <ns3:hr>151</ns3:hr>
            <ns3:cad>82</ns3:cad>
          </ns3:TrackPointExtension>
        </extensions>
      </trkpt>
      <trkpt lat="52.04633616842329502105712890625" lon="1.20018887333571910858154296875">
        <ele>194.1999969482421875</ele>
        <time>2025-09-05T11:17:09.000Z</time>
        <extensions>
          <ns3:TrackPointExtension>
            <ns3:hr>150</ns3:hr>
            <ns3:cad>82</ns3:cad>
          </ns3:TrackPointExtension>
        </extensions>
      </trkpt>
      <trkpt lat="52.046225108206272125244140625" lon="1.200160793960094451904296875">
        <ele>193.8000030517578125</ele>
        <time>2025-09-05T11:17:14.000Z</time>
        <extensions>
          <ns3:TrackPointExtension>
            <ns3:hr>150</ns3:hr>
            <ns3:cad>81</ns3:cad>
          </ns3:TrackPointExtension>
        </extensions>
      </trkpt>
      <trkpt lat="52.0460472442209720611572265625" lon="1.2001173757016658782958984375">
        <ele>193.399993896484375</ele>
        <time>2025-09-05T11:17:22.000Z</time>
        <extensions>
          <ns3:TrackPointExtension>
            <ns3:hr>148</ns3:hr>
            <ns3:cad>82</ns3:cad>
          </ns3:TrackPointExtension>
        </extensions>
      </trkpt>
      <trkpt lat="52.04600776545703411102294921875" lon="1.200103126466274261474609375">
        <ele>193.1999969482421875</ele>
        <time>2025-09-05T11:17:25.000Z</time>
        <extensions>
          <ns3:TrackPointExtension>
            <ns3:hr>147</ns3:hr>
            <ns3:cad>81</ns3:cad>
          </ns3:TrackPointExtension>
        </extensions>
      </trkpt>
      <trkpt lat="52.04589561559259891510009765625" lon="1.20006247423589229583740234375">
        <ele>192.8000030517578125</ele>
        <time>2025-09-05T11:17:29.000Z</time>
        <extensions>
          <ns3:TrackPointExtension>
            <ns3:hr>146</ns3:hr>
            <ns3:cad>80</ns3:cad>
          </ns3:TrackPointExtension>
        </extensions>
      </trkpt>
      <trkpt lat="52.0458081923425197601318359375" lon="1.20004512369632720947265625">
        <ele>192.1999969482421875</ele>
        <time>2025-09-05T11:17:33.000Z</time>
        <extensions>
          <ns3:TrackPointExtension>
            <ns3:hr>147</ns3:hr>
            <ns3:cad>79</ns3:cad>
          </ns3:TrackPointExtension>
        </extensions>
      </trkpt>
      <trkpt lat="52.04573987983167171478271484375" lon="1.2000291980803012847900390625">
        <ele>192</ele>
        <time>2025-09-05T11:17:36.000Z</time>
        <extensions>
          <ns3:TrackPointExtension>
            <ns3:hr>145</ns3:hr>
            <ns3:cad>79</ns3:cad>
          </ns3:TrackPointExtension>
        </extensions>
      </trkpt>
      <trkpt lat="52.0455976389348506927490234375" lon="1.19997806847095489501953125">
        <ele>191.399993896484375</ele>
        <time>2025-09-05T11:17:43.000Z</time>
        <extensions>
          <ns3:TrackPointExtension>
            <ns3:hr>143</ns3:hr>
            <ns3:cad>79</ns3:cad>
          </ns3:TrackPointExtension>
        </extensions>
      </trkpt>
      <trkpt lat="52.0455309189856052398681640625" lon="1.19996130466461181640625">
        <ele>191</ele>
        <time>2025-09-05T11:17:46.000Z</time>
        <extensions>
          <ns3:TrackPointExtension>
            <ns3:hr>143</ns3:hr>
            <ns3:cad>80</ns3:cad>
          </ns3:TrackPointExtension>
        </extensions>
      </trkpt>
      <trkpt lat="52.045468054711818695068359375" lon="1.19992115534842014312744140625">
        <ele>190.8000030517578125</ele>
        <time>2025-09-05T11:17:49.000Z</time>
        <extensions>
          <ns3:TrackPointExtension>
            <ns3:hr>147</ns3:hr>
            <ns3:cad>81</ns3:cad>
          </ns3:TrackPointExtension>
        </extensions>
      </trkpt>
      <trkpt lat="52.04544601030647754669189453125" lon="1.1999128572642803192138671875">
        <ele>190.8000030517578125</ele>
        <time>2025-09-05T11:17:50.000Z</time>
        <extensions>
          <ns3:TrackPointExtension>
            <ns3:hr>146</ns3:hr>
            <ns3:cad>81</ns3:cad>
          </ns3:TrackPointExtension>
        </extensions>
      </trkpt>
      <trkpt lat="52.04528306610882282257080078125" lon="1.1998541839420795440673828125">
        <ele>190</ele>
        <time>2025-09-05T11:17:57.000Z</time>
        <extensions>
          <ns3:TrackPointExtension>
            <ns3:hr>148</ns3:hr>
            <ns3:cad>81</ns3:cad>
          </ns3:TrackPointExtension>
        </extensions>
      </trkpt>
      <trkpt lat="52.04526194371283054351806640625" lon="1.19984395802021026611328125">
        <ele>190</ele>
        <time>2025-09-05T11:17:58.000Z</time>
        <extensions>
          <ns3:TrackPointExtension>
            <ns3:hr>147</ns3:hr>
            <ns3:cad>81</ns3:cad>
          </ns3:TrackPointExtension>
        </extensions>
      </trkpt>
      <trkpt lat="52.04513386823236942291259765625" lon="1.19979492388665676116943359375">
        <ele>189.600006103515625</ele>
        <time>2025-09-05T11:18:04.000Z</time>
        <extensions>
          <ns3:TrackPointExtension>
            <ns3:hr>148</ns3:hr>
            <ns3:cad>82</ns3:cad>
          </ns3:TrackPointExtension>
        </extensions>
      </trkpt>
      <trkpt lat="52.0449632965028285980224609375" lon="1.1997217498719692230224609375">
        <ele>189</ele>
        <time>2025-09-05T11:18:12.000Z</time>
        <extensions>
          <ns3:TrackPointExtension>
            <ns3:hr>150</ns3:hr>
            <ns3:cad>82</ns3:cad>
          </ns3:TrackPointExtension>
        </extensions>
      </trkpt>
      <trkpt lat="52.04494007863104343414306640625" lon="1.1997076682746410369873046875">
        <ele>189</ele>
        <time>2025-09-05T11:18:13.000Z</time>
        <extensions>
          <ns3:TrackPointExtension>
            <ns3:hr>151</ns3:hr>
            <ns3:cad>82</ns3:cad>
          </ns3:TrackPointExtension>
        </extensions>
      </trkpt>
      <trkpt lat="52.04476833343505859375" lon="1.1996473185718059539794921875">
        <ele>188.600006103515625</ele>
        <time>2025-09-05T11:18:21.000Z</time>
        <extensions>
          <ns3:TrackPointExtension>
            <ns3:hr>151</ns3:hr>
            <ns3:cad>82</ns3:cad>
          </ns3:TrackPointExtension>
        </extensions>
      </trkpt>
      <trkpt lat="52.0447259210050106048583984375" lon="1.19962426833808422088623046875">
        <ele>188.600006103515625</ele>
        <time>2025-09-05T11:18:23.000Z</time>
        <extensions>
          <ns3:TrackPointExtension>
            <ns3:hr>148</ns3:hr>
            <ns3:cad>82</ns3:cad>
          </ns3:TrackPointExtension>
        </extensions>
      </trkpt>
      <trkpt lat="52.04468107782304286956787109375" lon="1.19960113428533077239990234375">
        <ele>188.399993896484375</ele>
        <time>2025-09-05T11:18:25.000Z</time>
        <extensions>
          <ns3:TrackPointExtension>
            <ns3:hr>145</ns3:hr>
            <ns3:cad>82</ns3:cad>
          </ns3:TrackPointExtension>
        </extensions>
      </trkpt>
      <trkpt lat="52.0445847697556018829345703125" lon="1.19955536909401416778564453125">
        <ele>188.399993896484375</ele>
        <time>2025-09-05T11:18:29.000Z</time>
        <extensions>
          <ns3:TrackPointExtension>
            <ns3:hr>146</ns3:hr>
            <ns3:cad>82</ns3:cad>
          </ns3:TrackPointExtension>
        </extensions>
      </trkpt>
      <trkpt lat="52.0445073209702968597412109375" lon="1.1995400302112102508544921875">
        <ele>188.600006103515625</ele>
        <time>2025-09-05T11:18:34.000Z</time>
        <extensions>
          <ns3:TrackPointExtension>
            <ns3:hr>144</ns3:hr>
            <ns3:cad>82</ns3:cad>
          </ns3:TrackPointExtension>
        </extensions>
      </trkpt>
      <trkpt lat="52.04449583776295185089111328125" lon="1.19957297109067440032958984375">
        <ele>188.600006103515625</ele>
        <time>2025-09-05T11:18:36.000Z</time>
        <extensions>
          <ns3:TrackPointExtension>
            <ns3:hr>146</ns3:hr>
            <ns3:cad>40</ns3:cad>
          </ns3:TrackPointExtension>
        </extensions>
      </trkpt>
      <trkpt lat="52.04445694573223590850830078125" lon="1.19963851757347583770751953125">
        <ele>188.600006103515625</ele>
        <time>2025-09-05T11:18:39.000Z</time>
        <extensions>
          <ns3:TrackPointExtension>
            <ns3:hr>146</ns3:hr>
            <ns3:cad>80</ns3:cad>
          </ns3:TrackPointExtension>
        </extensions>
      </trkpt>
      <trkpt lat="52.04433138482272624969482421875" lon="1.1996962688863277435302734375">
        <ele>188.1999969482421875</ele>
        <time>2025-09-05T11:18:45.000Z</time>
        <extensions>
          <ns3:TrackPointExtension>
            <ns3:hr>144</ns3:hr>
            <ns3:cad>80</ns3:cad>
          </ns3:TrackPointExtension>
        </extensions>
      </trkpt>
      <trkpt lat="52.0442649163305759429931640625" lon="1.19967103935778141021728515625">
        <ele>188</ele>
        <time>2025-09-05T11:18:48.000Z</time>
        <extensions>
          <ns3:TrackPointExtension>
            <ns3:hr>143</ns3:hr>
            <ns3:cad>80</ns3:cad>
          </ns3:TrackPointExtension>
        </extensions>
      </trkpt>
      <trkpt lat="52.04415972344577312469482421875" lon="1.199623681604862213134765625">
        <ele>187.8000030517578125</ele>
        <time>2025-09-05T11:18:52.000Z</time>
        <extensions>
          <ns3:TrackPointExtension>
            <ns3:hr>146</ns3:hr>
            <ns3:cad>81</ns3:cad>
          </ns3:TrackPointExtension>
        </extensions>
      </trkpt>
      <trkpt lat="52.04403080977499485015869140625" lon="1.199553273618221282958984375">
        <ele>187.399993896484375</ele>
        <time>2025-09-05T11:18:58.000Z</time>
        <extensions>
          <ns3:TrackPointExtension>
            <ns3:hr>149</ns3:hr>
            <ns3:cad>82</ns3:cad>
          </ns3:TrackPointExtension>
        </extensions>
      </trkpt>
      <trkpt lat="52.04396811313927173614501953125" lon="1.19952385313808917999267578125">
        <ele>187.1999969482421875</ele>
        <time>2025-09-05T11:19:01.000Z</time>
        <extensions>
          <ns3:TrackPointExtension>
            <ns3:hr>148</ns3:hr>
            <ns3:cad>82</ns3:cad>
          </ns3:TrackPointExtension>
        </extensions>
      </trkpt>
      <trkpt lat="52.04385160468518733978271484375" lon="1.19946174323558807373046875">
        <ele>187</ele>
        <time>2025-09-05T11:19:06.000Z</time>
        <extensions>
          <ns3:TrackPointExtension>
            <ns3:hr>147</ns3:hr>
            <ns3:cad>82</ns3:cad>
          </ns3:TrackPointExtension>
        </extensions>
      </trkpt>
      <trkpt lat="52.0437938533723354339599609375" lon="1.1994317360222339630126953125">
        <ele>186.8000030517578125</ele>
        <time>2025-09-05T11:19:09.000Z</time>
        <extensions>
          <ns3:TrackPointExtension>
            <ns3:hr>148</ns3:hr>
            <ns3:cad>82</ns3:cad>
          </ns3:TrackPointExtension>
        </extensions>
      </trkpt>
      <trkpt lat="52.04365831799805164337158203125" lon="1.19935034774243831634521484375">
        <ele>186.600006103515625</ele>
        <time>2025-09-05T11:19:16.000Z</time>
        <extensions>
          <ns3:TrackPointExtension>
            <ns3:hr>150</ns3:hr>
            <ns3:cad>82</ns3:cad>
          </ns3:TrackPointExtension>
        </extensions>
      </trkpt>
      <trkpt lat="52.04348028637468814849853515625" lon="1.1992221884429454803466796875">
        <ele>186.600006103515625</ele>
        <time>2025-09-05T11:19:24.000Z</time>
        <extensions>
          <ns3:TrackPointExtension>
            <ns3:hr>149</ns3:hr>
            <ns3:cad>82</ns3:cad>
          </ns3:TrackPointExtension>
        </extensions>
      </trkpt>
      <trkpt lat="52.04339529387652873992919921875" lon="1.1991712264716625213623046875">
        <ele>186.399993896484375</ele>
        <time>2025-09-05T11:19:30.000Z</time>
        <extensions>
          <ns3:TrackPointExtension>
            <ns3:hr>149</ns3:hr>
            <ns3:cad>74</ns3:cad>
          </ns3:TrackPointExtension>
        </extensions>
      </trkpt>
      <trkpt lat="52.04323134385049343109130859375" lon="1.19905932806432247161865234375">
        <ele>186.1999969482421875</ele>
        <time>2025-09-05T11:19:37.000Z</time>
        <extensions>
          <ns3:TrackPointExtension>
            <ns3:hr>149</ns3:hr>
            <ns3:cad>79</ns3:cad>
          </ns3:TrackPointExtension>
        </extensions>
      </trkpt>
      <trkpt lat="52.04312824644148349761962890625" lon="1.1989942006766796112060546875">
        <ele>186</ele>
        <time>2025-09-05T11:19:42.000Z</time>
        <extensions>
          <ns3:TrackPointExtension>
            <ns3:hr>150</ns3:hr>
            <ns3:cad>82</ns3:cad>
          </ns3:TrackPointExtension>
        </extensions>
      </trkpt>
      <trkpt lat="52.043108046054840087890625" lon="1.19897685013711452484130859375">
        <ele>185.8000030517578125</ele>
        <time>2025-09-05T11:19:43.000Z</time>
        <extensions>
          <ns3:TrackPointExtension>
            <ns3:hr>148</ns3:hr>
            <ns3:cad>82</ns3:cad>
          </ns3:TrackPointExtension>
        </extensions>
      </trkpt>
      <trkpt lat="52.043051384389400482177734375" lon="1.19893728755414485931396484375">
        <ele>185.600006103515625</ele>
        <time>2025-09-05T11:19:47.000Z</time>
        <extensions>
          <ns3:TrackPointExtension>
            <ns3:hr>151</ns3:hr>
            <ns3:cad>82</ns3:cad>
          </ns3:TrackPointExtension>
        </extensions>
      </trkpt>
      <trkpt lat="52.04295708797872066497802734375" lon="1.19889521040022373199462890625">
        <ele>185.399993896484375</ele>
        <time>2025-09-05T11:19:51.000Z</time>
        <extensions>
          <ns3:TrackPointExtension>
            <ns3:hr>153</ns3:hr>
            <ns3:cad>82</ns3:cad>
          </ns3:TrackPointExtension>
        </extensions>
      </trkpt>
      <trkpt lat="52.0428037829697132110595703125" lon="1.1988222040235996246337890625">
        <ele>185</ele>
        <time>2025-09-05T11:19:58.000Z</time>
        <extensions>
          <ns3:TrackPointExtension>
            <ns3:hr>152</ns3:hr>
            <ns3:cad>81</ns3:cad>
          </ns3:TrackPointExtension>
        </extensions>
      </trkpt>
      <trkpt lat="52.0426612906157970428466796875" lon="1.19872807525098323822021484375">
        <ele>185</ele>
        <time>2025-09-05T11:20:05.000Z</time>
        <extensions>
          <ns3:TrackPointExtension>
            <ns3:hr>152</ns3:hr>
            <ns3:cad>82</ns3:cad>
          </ns3:TrackPointExtension>
        </extensions>
      </trkpt>
      <trkpt lat="52.04255173914134502410888671875" lon="1.19866311550140380859375">
        <ele>184.8000030517578125</ele>
        <time>2025-09-05T11:20:10.000Z</time>
        <extensions>
          <ns3:TrackPointExtension>
            <ns3:hr>153</ns3:hr>
            <ns3:cad>82</ns3:cad>
          </ns3:TrackPointExtension>
        </extensions>
      </trkpt>
      <trkpt lat="52.04247076995670795440673828125" lon="1.19861911050975322723388671875">
        <ele>185</ele>
        <time>2025-09-05T11:20:15.000Z</time>
        <extensions>
          <ns3:TrackPointExtension>
            <ns3:hr>154</ns3:hr>
            <ns3:cad>82</ns3:cad>
          </ns3:TrackPointExtension>
        </extensions>
      </trkpt>
      <trkpt lat="52.04236180521547794342041015625" lon="1.19857083074748516082763671875">
        <ele>185</ele>
        <time>2025-09-05T11:20:23.000Z</time>
        <extensions>
          <ns3:TrackPointExtension>
            <ns3:hr>154</ns3:hr>
            <ns3:cad>61</ns3:cad>
          </ns3:TrackPointExtension>
        </extensions>
      </trkpt>
      <trkpt lat="52.0423075743019580841064453125" lon="1.198540069162845611572265625">
        <ele>185.399993896484375</ele>
        <time>2025-09-05T11:20:29.000Z</time>
        <extensions>
          <ns3:TrackPointExtension>
            <ns3:hr>151</ns3:hr>
            <ns3:cad>61</ns3:cad>
          </ns3:TrackPointExtension>
        </extensions>
      </trkpt>
      <trkpt lat="52.0422918163239955902099609375" lon="1.19853101670742034912109375">
        <ele>185.600006103515625</ele>
        <time>2025-09-05T11:20:30.000Z</time>
        <extensions>
          <ns3:TrackPointExtension>
            <ns3:hr>151</ns3:hr>
            <ns3:cad>61</ns3:cad>
          </ns3:TrackPointExtension>
        </extensions>
      </trkpt>
      <trkpt lat="52.042259462177753448486328125" lon="1.1985238082706928253173828125">
        <ele>185.600006103515625</ele>
        <time>2025-09-05T11:20:32.000Z</time>
        <extensions>
          <ns3:TrackPointExtension>
            <ns3:hr>154</ns3:hr>
            <ns3:cad>61</ns3:cad>
          </ns3:TrackPointExtension>
        </extensions>
      </trkpt>
      <trkpt lat="52.04219768755137920379638671875" lon="1.198542751371860504150390625">
        <ele>186</ele>
        <time>2025-09-05T11:20:36.000Z</time>
        <extensions>
          <ns3:TrackPointExtension>
            <ns3:hr>153</ns3:hr>
            <ns3:cad>63</ns3:cad>
          </ns3:TrackPointExtension>
        </extensions>
      </trkpt>
      <trkpt lat="52.0421322248876094818115234375" lon="1.19859999977052211761474609375">
        <ele>186.8000030517578125</ele>
        <time>2025-09-05T11:20:40.000Z</time>
        <extensions>
          <ns3:TrackPointExtension>
            <ns3:hr>153</ns3:hr>
            <ns3:cad>61</ns3:cad>
          </ns3:TrackPointExtension>
        </extensions>
      </trkpt>
      <trkpt lat="52.0421214960515499114990234375" lon="1.19861550629138946533203125">
        <ele>187</ele>
        <time>2025-09-05T11:20:41.000Z</time>
        <extensions>
          <ns3:TrackPointExtension>
            <ns3:hr>151</ns3:hr>
            <ns3:cad>60</ns3:cad>
          </ns3:TrackPointExtension>
        </extensions>
      </trkpt>
      <trkpt lat="52.04207480885088443756103515625" lon="1.1986830644309520721435546875">
        <ele>187.399993896484375</ele>
        <time>2025-09-05T11:20:46.000Z</time>
        <extensions>
          <ns3:TrackPointExtension>
            <ns3:hr>147</ns3:hr>
            <ns3:cad>60</ns3:cad>
          </ns3:TrackPointExtension>
        </extensions>
      </trkpt>
      <trkpt lat="52.0420539379119873046875" lon="1.19870670139789581298828125">
        <ele>187.399993896484375</ele>
        <time>2025-09-05T11:20:48.000Z</time>
        <extensions>
          <ns3:TrackPointExtension>
            <ns3:hr>147</ns3:hr>
            <ns3:cad>62</ns3:cad>
          </ns3:TrackPointExtension>
        </extensions>
      </trkpt>
      <trkpt lat="52.04198780469596385955810546875" lon="1.19882949627935886383056640625">
        <ele>187.600006103515625</ele>
        <time>2025-09-05T11:20:56.000Z</time>
        <extensions>
          <ns3:TrackPointExtension>
            <ns3:hr>145</ns3:hr>
            <ns3:cad>62</ns3:cad>
          </ns3:TrackPointExtension>
        </extensions>
      </trkpt>
      <trkpt lat="52.0419506728649139404296875" lon="1.19892798364162445068359375">
        <ele>187.399993896484375</ele>
        <time>2025-09-05T11:20:59.000Z</time>
        <extensions>
          <ns3:TrackPointExtension>
            <ns3:hr>142</ns3:hr>
            <ns3:cad>62</ns3:cad>
          </ns3:TrackPointExtension>
        </extensions>
      </trkpt>
      <trkpt lat="52.04193365760147571563720703125" lon="1.19896444492042064666748046875">
        <ele>187.399993896484375</ele>
        <time>2025-09-05T11:21:02.000Z</time>
        <extensions>
          <ns3:TrackPointExtension>
            <ns3:hr>145</ns3:hr>
            <ns3:cad>61</ns3:cad>
          </ns3:TrackPointExtension>
        </extensions>
      </trkpt>
      <trkpt lat="52.04190281219780445098876953125" lon="1.19901490397751331329345703125">
        <ele>187.399993896484375</ele>
        <time>2025-09-05T11:21:05.000Z</time>
        <extensions>
          <ns3:TrackPointExtension>
            <ns3:hr>144</ns3:hr>
            <ns3:cad>63</ns3:cad>
          </ns3:TrackPointExtension>
        </extensions>
      </trkpt>
      <trkpt lat="52.04184028320014476776123046875" lon="1.19914582930505275726318359375">
        <ele>187</ele>
        <time>2025-09-05T11:21:12.000Z</time>
        <extensions>
          <ns3:TrackPointExtension>
            <ns3:hr>141</ns3:hr>
            <ns3:cad>60</ns3:cad>
          </ns3:TrackPointExtension>
        </extensions>
      </trkpt>
      <trkpt lat="52.0418246090412139892578125" lon="1.19918824173510074615478515625">
        <ele>187</ele>
        <time>2025-09-05T11:21:13.000Z</time>
        <extensions>
          <ns3:TrackPointExtension>
            <ns3:hr>139</ns3:hr>
            <ns3:cad>60</ns3:cad>
          </ns3:TrackPointExtension>
        </extensions>
      </trkpt>
      <trkpt lat="52.04179577529430389404296875" lon="1.19929553009569644927978515625">
        <ele>186.600006103515625</ele>
        <time>2025-09-05T11:21:21.000Z</time>
        <extensions>
          <ns3:TrackPointExtension>
            <ns3:hr>140</ns3:hr>
            <ns3:cad>0</ns3:cad>
          </ns3:TrackPointExtension>
        </extensions>
      </trkpt>
      <trkpt lat="52.04180491156876087188720703125" lon="1.199313886463642120361328125">
        <ele>186</ele>
        <time>2025-09-05T11:21:30.000Z</time>
        <extensions>
          <ns3:TrackPointExtension>
            <ns3:hr>141</ns3:hr>
            <ns3:cad>0</ns3:cad>
          </ns3:TrackPointExtension>
        </extensions>
      </trkpt>
      <trkpt lat="52.041808180510997772216796875" lon="1.19931816123425960540771484375">
        <ele>185.399993896484375</ele>
        <time>2025-09-05T11:21:32.000Z</time>
        <extensions>
          <ns3:TrackPointExtension>
            <ns3:hr>141</ns3:hr>
            <ns3:cad>0</ns3:cad>
          </ns3:TrackPointExtension>
        </extensions>
      </trkpt>
      <trkpt lat="52.041824273765087127685546875" lon="1.1993351764976978302001953125">
        <ele>184.8000030517578125</ele>
        <time>2025-09-05T11:21:35.000Z</time>
        <extensions>
          <ns3:TrackPointExtension>
            <ns3:hr>141</ns3:hr>
            <ns3:cad>55</ns3:cad>
          </ns3:TrackPointExtension>
        </extensions>
      </trkpt>
      <trkpt lat="52.04187280498445034027099609375" lon="1.1994045786559581756591796875">
        <ele>184</ele>
        <time>2025-09-05T11:21:39.000Z</time>
        <extensions>
          <ns3:TrackPointExtension>
            <ns3:hr>137</ns3:hr>
            <ns3:cad>0</ns3:cad>
          </ns3:TrackPointExtension>
        </extensions>
      </trkpt>
      <trkpt lat="52.04188856296241283416748046875" lon="1.19941757060587406158447265625">
        <ele>184</ele>
        <time>2025-09-05T11:21:40.000Z</time>
        <extensions>
          <ns3:TrackPointExtension>
            <ns3:hr>140</ns3:hr>
            <ns3:cad>80</ns3:cad>
          </ns3:TrackPointExtension>
        </extensions>
      </trkpt>
      <trkpt lat="52.04189929179847240447998046875" lon="1.19943131692707538604736328125">
        <ele>183.8000030517578125</ele>
        <time>2025-09-05T11:21:41.000Z</time>
        <extensions>
          <ns3:TrackPointExtension>
            <ns3:hr>143</ns3:hr>
            <ns3:cad>80</ns3:cad>
          </ns3:TrackPointExtension>
        </extensions>
      </trkpt>
      <trkpt lat="52.04192611388862133026123046875" lon="1.19946417398750782012939453125">
        <ele>183.1999969482421875</ele>
        <time>2025-09-05T11:21:43.000Z</time>
        <extensions>
          <ns3:TrackPointExtension>
            <ns3:hr>146</ns3:hr>
            <ns3:cad>80</ns3:cad>
          </ns3:TrackPointExtension>
        </extensions>
      </trkpt>
      <trkpt lat="52.04194555990397930145263671875" lon="1.1994847096502780914306640625">
        <ele>183</ele>
        <time>2025-09-05T11:21:44.000Z</time>
        <extensions>
          <ns3:TrackPointExtension>
            <ns3:hr>149</ns3:hr>
            <ns3:cad>80</ns3:cad>
          </ns3:TrackPointExtension>
        </extensions>
      </trkpt>
      <trkpt lat="52.041965089738368988037109375" lon="1.1995004676282405853271484375">
        <ele>182.8000030517578125</ele>
        <time>2025-09-05T11:21:45.000Z</time>
        <extensions>
          <ns3:TrackPointExtension>
            <ns3:hr>150</ns3:hr>
            <ns3:cad>80</ns3:cad>
          </ns3:TrackPointExtension>
        </extensions>
      </trkpt>
      <trkpt lat="52.0420232601463794708251953125" lon="1.199548244476318359375">
        <ele>182</ele>
        <time>2025-09-05T11:21:48.000Z</time>
        <extensions>
          <ns3:TrackPointExtension>
            <ns3:hr>152</ns3:hr>
            <ns3:cad>81</ns3:cad>
          </ns3:TrackPointExtension>
        </extensions>
      </trkpt>
      <trkpt lat="52.04205988906323909759521484375" lon="1.19957565329968929290771484375">
        <ele>181.600006103515625</ele>
        <time>2025-09-05T11:21:50.000Z</time>
        <extensions>
          <ns3:TrackPointExtension>
            <ns3:hr>154</ns3:hr>
            <ns3:cad>81</ns3:cad>
          </ns3:TrackPointExtension>
        </extensions>
      </trkpt>
      <trkpt lat="52.04208905808627605438232421875" lon="1.19960934855043888092041015625">
        <ele>181.1999969482421875</ele>
        <time>2025-09-05T11:21:52.000Z</time>
        <extensions>
          <ns3:TrackPointExtension>
            <ns3:hr>157</ns3:hr>
            <ns3:cad>80</ns3:cad>
          </ns3:TrackPointExtension>
        </extensions>
      </trkpt>
      <trkpt lat="52.0421268604695796966552734375" lon="1.1996734701097011566162109375">
        <ele>180.600006103515625</ele>
        <time>2025-09-05T11:21:55.000Z</time>
        <extensions>
          <ns3:TrackPointExtension>
            <ns3:hr>158</ns3:hr>
            <ns3:cad>82</ns3:cad>
          </ns3:TrackPointExtension>
        </extensions>
      </trkpt>
      <trkpt lat="52.04213448800146579742431640625" lon="1.1997012980282306671142578125">
        <ele>180.399993896484375</ele>
        <time>2025-09-05T11:21:56.000Z</time>
        <extensions>
          <ns3:TrackPointExtension>
            <ns3:hr>158</ns3:hr>
            <ns3:cad>82</ns3:cad>
          </ns3:TrackPointExtension>
        </extensions>
      </trkpt>
      <trkpt lat="52.042186371982097625732421875" lon="1.19979157112538814544677734375">
        <ele>180</ele>
        <time>2025-09-05T11:22:00.000Z</time>
        <extensions>
          <ns3:TrackPointExtension>
            <ns3:hr>163</ns3:hr>
            <ns3:cad>82</ns3:cad>
          </ns3:TrackPointExtension>
        </extensions>
      </trkpt>
      <trkpt lat="52.0422720350325107574462890625" lon="1.1998635716736316680908203125">
        <ele>179.8000030517578125</ele>
        <time>2025-09-05T11:22:05.000Z</time>
        <extensions>
          <ns3:TrackPointExtension>
            <ns3:hr>162</ns3:hr>
            <ns3:cad>82</ns3:cad>
          </ns3:TrackPointExtension>
        </extensions>
      </trkpt>
      <trkpt lat="52.042372785508632659912109375" lon="1.19993473403155803680419921875">
        <ele>180</ele>
        <time>2025-09-05T11:22:11.000Z</time>
        <extensions>
          <ns3:TrackPointExtension>
            <ns3:hr>162</ns3:hr>
            <ns3:cad>61</ns3:cad>
          </ns3:TrackPointExtension>
        </extensions>
      </trkpt>
      <trkpt lat="52.04245568253099918365478515625" lon="1.20008460246026515960693359375">
        <ele>180.8000030517578125</ele>
        <time>2025-09-05T11:22:19.000Z</time>
        <extensions>
          <ns3:TrackPointExtension>
            <ns3:hr>162</ns3:hr>
            <ns3:cad>61</ns3:cad>
          </ns3:TrackPointExtension>
        </extensions>
      </trkpt>
      <trkpt lat="52.0424527488648891448974609375" lon="1.20028342120349407196044921875">
        <ele>180.8000030517578125</ele>
        <time>2025-09-05T11:22:25.000Z</time>
        <extensions>
          <ns3:TrackPointExtension>
            <ns3:hr>158</ns3:hr>
            <ns3:cad>78</ns3:cad>
          </ns3:TrackPointExtension>
        </extensions>
      </trkpt>
      <trkpt lat="52.042396254837512969970703125" lon="1.20048039592802524566650390625">
        <ele>181</ele>
        <time>2025-09-05T11:22:32.000Z</time>
        <extensions>
          <ns3:TrackPointExtension>
            <ns3:hr>158</ns3:hr>
            <ns3:cad>81</ns3:cad>
          </ns3:TrackPointExtension>
        </extensions>
      </trkpt>
      <trkpt lat="52.04236146993935108184814453125" lon="1.2006001733243465423583984375">
        <ele>181.1999969482421875</ele>
        <time>2025-09-05T11:22:37.000Z</time>
        <extensions>
          <ns3:TrackPointExtension>
            <ns3:hr>155</ns3:hr>
            <ns3:cad>81</ns3:cad>
          </ns3:TrackPointExtension>
        </extensions>
      </trkpt>
      <trkpt lat="52.04231654293835163116455078125" lon="1.200708635151386260986328125">
        <ele>181.1999969482421875</ele>
        <time>2025-09-05T11:22:41.000Z</time>
        <extensions>
          <ns3:TrackPointExtension>
            <ns3:hr>157</ns3:hr>
            <ns3:cad>81</ns3:cad>
          </ns3:TrackPointExtension>
        </extensions>
      </trkpt>
      <trkpt lat="52.0422867871820926666259765625" lon="1.20079991407692432403564453125">
        <ele>181.600006103515625</ele>
        <time>2025-09-05T11:22:44.000Z</time>
        <extensions>
          <ns3:TrackPointExtension>
            <ns3:hr>157</ns3:hr>
            <ns3:cad>81</ns3:cad>
          </ns3:TrackPointExtension>
        </extensions>
      </trkpt>
      <trkpt lat="52.0422663353383541107177734375" lon="1.20088272728025913238525390625">
        <ele>182</ele>
        <time>2025-09-05T11:22:48.000Z</time>
        <extensions>
          <ns3:TrackPointExtension>
            <ns3:hr>158</ns3:hr>
            <ns3:cad>81</ns3:cad>
          </ns3:TrackPointExtension>
        </extensions>
      </trkpt>
      <trkpt lat="52.04220506362617015838623046875" lon="1.20105497539043426513671875">
        <ele>182.600006103515625</ele>
        <time>2025-09-05T11:22:54.000Z</time>
        <extensions>
          <ns3:TrackPointExtension>
            <ns3:hr>157</ns3:hr>
            <ns3:cad>81</ns3:cad>
          </ns3:TrackPointExtension>
        </extensions>
      </trkpt>
      <trkpt lat="52.0421925745904445648193359375" lon="1.20110853575170040130615234375">
        <ele>182.8000030517578125</ele>
        <time>2025-09-05T11:22:56.000Z</time>
        <extensions>
          <ns3:TrackPointExtension>
            <ns3:hr>156</ns3:hr>
            <ns3:cad>82</ns3:cad>
          </ns3:TrackPointExtension>
        </extensions>
      </trkpt>
      <trkpt lat="52.04208889044821262359619140625" lon="1.201353706419467926025390625">
        <ele>183.1999969482421875</ele>
        <time>2025-09-05T11:23:05.000Z</time>
        <extensions>
          <ns3:TrackPointExtension>
            <ns3:hr>155</ns3:hr>
            <ns3:cad>81</ns3:cad>
          </ns3:TrackPointExtension>
        </extensions>
      </trkpt>
      <trkpt lat="52.0420775748789310455322265625" lon="1.20137474499642848968505859375">
        <ele>183.399993896484375</ele>
        <time>2025-09-05T11:23:06.000Z</time>
        <extensions>
          <ns3:TrackPointExtension>
            <ns3:hr>156</ns3:hr>
            <ns3:cad>81</ns3:cad>
          </ns3:TrackPointExtension>
        </extensions>
      </trkpt>
      <trkpt lat="52.04203574918210506439208984375" lon="1.201421432197093963623046875">
        <ele>183.600006103515625</ele>
        <time>2025-09-05T11:23:10.000Z</time>
        <extensions>
          <ns3:TrackPointExtension>
            <ns3:hr>157</ns3:hr>
            <ns3:cad>80</ns3:cad>
          </ns3:TrackPointExtension>
        </extensions>
      </trkpt>
      <trkpt lat="52.04197690822184085845947265625" lon="1.20149007998406887054443359375">
        <ele>184</ele>
        <time>2025-09-05T11:23:15.000Z</time>
        <extensions>
          <ns3:TrackPointExtension>
            <ns3:hr>156</ns3:hr>
            <ns3:cad>80</ns3:cad>
          </ns3:TrackPointExtension>
        </extensions>
      </trkpt>
      <trkpt lat="52.04190230928361415863037109375" lon="1.20175612159073352813720703125">
        <ele>184.1999969482421875</ele>
        <time>2025-09-05T11:23:21.000Z</time>
        <extensions>
          <ns3:TrackPointExtension>
            <ns3:hr>156</ns3:hr>
            <ns3:cad>81</ns3:cad>
          </ns3:TrackPointExtension>
        </extensions>
      </trkpt>
      <trkpt lat="52.041863501071929931640625" lon="1.2019084207713603973388671875">
        <ele>184.1999969482421875</ele>
        <time>2025-09-05T11:23:27.000Z</time>
        <extensions>
          <ns3:TrackPointExtension>
            <ns3:hr>158</ns3:hr>
            <ns3:cad>81</ns3:cad>
          </ns3:TrackPointExtension>
        </extensions>
      </trkpt>
      <trkpt lat="52.04184145666658878326416015625" lon="1.20215593837201595306396484375">
        <ele>183.8000030517578125</ele>
        <time>2025-09-05T11:23:34.000Z</time>
        <extensions>
          <ns3:TrackPointExtension>
            <ns3:hr>157</ns3:hr>
            <ns3:cad>81</ns3:cad>
          </ns3:TrackPointExtension>
        </extensions>
      </trkpt>
      <trkpt lat="52.04184941947460174560546875" lon="1.2025035358965396881103515625">
        <ele>183.8000030517578125</ele>
        <time>2025-09-05T11:23:40.000Z</time>
        <extensions>
          <ns3:TrackPointExtension>
            <ns3:hr>158</ns3:hr>
            <ns3:cad>81</ns3:cad>
          </ns3:TrackPointExtension>
        </extensions>
      </trkpt>
      <trkpt lat="52.041843719780445098876953125" lon="1.20255826972424983978271484375">
        <ele>184</ele>
        <time>2025-09-05T11:23:41.000Z</time>
        <extensions>
          <ns3:TrackPointExtension>
            <ns3:hr>157</ns3:hr>
            <ns3:cad>81</ns3:cad>
          </ns3:TrackPointExtension>
        </extensions>
      </trkpt>
      <trkpt lat="52.04183441586792469024658203125" lon="1.20284023694694042205810546875">
        <ele>184.399993896484375</ele>
        <time>2025-09-05T11:23:48.000Z</time>
        <extensions>
          <ns3:TrackPointExtension>
            <ns3:hr>155</ns3:hr>
            <ns3:cad>81</ns3:cad>
          </ns3:TrackPointExtension>
        </extensions>
      </trkpt>
      <trkpt lat="52.04184916801750659942626953125" lon="1.20291869156062602996826171875">
        <ele>184.600006103515625</ele>
        <time>2025-09-05T11:23:50.000Z</time>
        <extensions>
          <ns3:TrackPointExtension>
            <ns3:hr>156</ns3:hr>
            <ns3:cad>81</ns3:cad>
          </ns3:TrackPointExtension>
        </extensions>
      </trkpt>
      <trkpt lat="52.04187179915606975555419921875" lon="1.2031928636133670806884765625">
        <ele>185.399993896484375</ele>
        <time>2025-09-05T11:23:57.000Z</time>
        <extensions>
          <ns3:TrackPointExtension>
            <ns3:hr>155</ns3:hr>
            <ns3:cad>80</ns3:cad>
          </ns3:TrackPointExtension>
        </extensions>
      </trkpt>
      <trkpt lat="52.041874565184116363525390625" lon="1.2033068574965000152587890625">
        <ele>185.600006103515625</ele>
        <time>2025-09-05T11:24:03.000Z</time>
        <extensions>
          <ns3:TrackPointExtension>
            <ns3:hr>153</ns3:hr>
            <ns3:cad>77</ns3:cad>
          </ns3:TrackPointExtension>
        </extensions>
      </trkpt>
      <trkpt lat="52.04184598289430141448974609375" lon="1.20331129990518093109130859375">
        <ele>185.600006103515625</ele>
        <time>2025-09-05T11:24:06.000Z</time>
        <extensions>
          <ns3:TrackPointExtension>
            <ns3:hr>151</ns3:hr>
            <ns3:cad>79</ns3:cad>
          </ns3:TrackPointExtension>
        </extensions>
      </trkpt>
      <trkpt lat="52.041772641241550445556640625" lon="1.20331230573356151580810546875">
        <ele>185.600006103515625</ele>
        <time>2025-09-05T11:24:10.000Z</time>
        <extensions>
          <ns3:TrackPointExtension>
            <ns3:hr>152</ns3:hr>
            <ns3:cad>79</ns3:cad>
          </ns3:TrackPointExtension>
        </extensions>
      </trkpt>
      <trkpt lat="52.041700221598148345947265625" lon="1.2034575641155242919921875">
        <ele>184.8000030517578125</ele>
        <time>2025-09-05T11:24:16.000Z</time>
        <extensions>
          <ns3:TrackPointExtension>
            <ns3:hr>153</ns3:hr>
            <ns3:cad>77</ns3:cad>
          </ns3:TrackPointExtension>
        </extensions>
      </trkpt>
      <trkpt lat="52.04169829376041889190673828125" lon="1.20349151082336902618408203125">
        <ele>184.399993896484375</ele>
        <time>2025-09-05T11:24:17.000Z</time>
        <extensions>
          <ns3:TrackPointExtension>
            <ns3:hr>156</ns3:hr>
            <ns3:cad>77</ns3:cad>
          </ns3:TrackPointExtension>
        </extensions>
      </trkpt>
      <trkpt lat="52.0416953600943088531494140625" lon="1.203584969043731689453125">
        <ele>183.8000030517578125</ele>
        <time>2025-09-05T11:24:21.000Z</time>
        <extensions>
          <ns3:TrackPointExtension>
            <ns3:hr>156</ns3:hr>
            <ns3:cad>79</ns3:cad>
          </ns3:TrackPointExtension>
        </extensions>
      </trkpt>
      <trkpt lat="52.041686140000820159912109375" lon="1.2035868130624294281005859375">
        <ele>183.600006103515625</ele>
        <time>2025-09-05T11:24:24.000Z</time>
        <extensions>
          <ns3:TrackPointExtension>
            <ns3:hr>157</ns3:hr>
            <ns3:cad>0</ns3:cad>
          </ns3:TrackPointExtension>
        </extensions>
      </trkpt>
      <trkpt lat="52.041666023433208465576171875" lon="1.20359108783304691314697265625">
        <ele>183.399993896484375</ele>
        <time>2025-09-05T11:24:29.000Z</time>
        <extensions>
          <ns3:TrackPointExtension>
            <ns3:cad>0</ns3:cad>
          </ns3:TrackPointExtension>
        </extensions>
      </trkpt>
      <trkpt lat="52.041656970977783203125" lon="1.20359628461301326751708984375">
        <ele>183.1999969482421875</ele>
        <time>2025-09-05T11:24:34.000Z</time>
        <extensions>
          <ns3:TrackPointExtension>
            <ns3:hr>154</ns3:hr>
            <ns3:cad>0</ns3:cad>
          </ns3:TrackPointExtension>
        </extensions>
      </trkpt>
      <trkpt lat="52.0416487567126750946044921875" lon="1.20359946973621845245361328125">
        <ele>183.1999969482421875</ele>
        <time>2025-09-05T11:24:38.000Z</time>
        <extensions>
          <ns3:TrackPointExtension>
            <ns3:hr>151</ns3:hr>
            <ns3:cad>0</ns3:cad>
          </ns3:TrackPointExtension>
        </extensions>
      </trkpt>
      <trkpt lat="52.0416413806378841400146484375" lon="1.203610785305500030517578125">
        <ele>183</ele>
        <time>2025-09-05T11:24:42.000Z</time>
        <extensions>
          <ns3:TrackPointExtension>
            <ns3:hr>148</ns3:hr>
            <ns3:cad>0</ns3:cad>
          </ns3:TrackPointExtension>
        </extensions>
      </trkpt>
      <trkpt lat="52.0416346751153469085693359375" lon="1.20361170731484889984130859375">
        <ele>182.8000030517578125</ele>
        <time>2025-09-05T11:24:46.000Z</time>
        <extensions>
          <ns3:TrackPointExtension>
            <ns3:hr>149</ns3:hr>
            <ns3:cad>0</ns3:cad>
          </ns3:TrackPointExtension>
        </extensions>
      </trkpt>
      <trkpt lat="52.041631154716014862060546875" lon="1.20361640118062496185302734375">
        <ele>182.8000030517578125</ele>
        <time>2025-09-05T11:24:49.000Z</time>
        <extensions>
          <ns3:TrackPointExtension>
            <ns3:hr>153</ns3:hr>
            <ns3:cad>0</ns3:cad>
          </ns3:TrackPointExtension>
        </extensions>
      </trkpt>
      <trkpt lat="52.0416303165256977081298828125" lon="1.2036220170557498931884765625">
        <ele>182.600006103515625</ele>
        <time>2025-09-05T11:24:51.000Z</time>
        <extensions>
          <ns3:TrackPointExtension>
            <ns3:hr>157</ns3:hr>
            <ns3:cad>0</ns3:cad>
          </ns3:TrackPointExtension>
        </extensions>
      </trkpt>
      <trkpt lat="52.04163081943988800048828125" lon="1.2036250345408916473388671875">
        <ele>182.399993896484375</ele>
        <time>2025-09-05T11:24:52.000Z</time>
        <extensions>
          <ns3:TrackPointExtension>
            <ns3:hr>157</ns3:hr>
            <ns3:cad>0</ns3:cad>
          </ns3:TrackPointExtension>
        </extensions>
      </trkpt>
      <trkpt lat="52.04163023270666599273681640625" lon="1.20365269482135772705078125">
        <ele>181.399993896484375</ele>
        <time>2025-09-05T11:24:56.000Z</time>
        <extensions>
          <ns3:TrackPointExtension>
            <ns3:hr>156</ns3:hr>
            <ns3:cad>0</ns3:cad>
          </ns3:TrackPointExtension>
        </extensions>
      </trkpt>
      <trkpt lat="52.04162185080349445343017578125" lon="1.20370374061167240142822265625">
        <ele>180.8000030517578125</ele>
        <time>2025-09-05T11:24:59.000Z</time>
        <extensions>
          <ns3:TrackPointExtension>
            <ns3:hr>155</ns3:hr>
            <ns3:cad>0</ns3:cad>
          </ns3:TrackPointExtension>
        </extensions>
      </trkpt>
      <trkpt lat="52.04162277281284332275390625" lon="1.2037547864019870758056640625">
        <ele>180.1999969482421875</ele>
        <time>2025-09-05T11:25:01.000Z</time>
        <extensions>
          <ns3:TrackPointExtension>
            <ns3:hr>153</ns3:hr>
            <ns3:cad>0</ns3:cad>
          </ns3:TrackPointExtension>
        </extensions>
      </trkpt>
      <trkpt lat="52.04162788577377796173095703125" lon="1.20389350689947605133056640625">
        <ele>179</ele>
        <time>2025-09-05T11:25:07.000Z</time>
        <extensions>
          <ns3:TrackPointExtension>
            <ns3:hr>151</ns3:hr>
            <ns3:cad>0</ns3:cad>
          </ns3:TrackPointExtension>
        </extensions>
      </trkpt>
      <trkpt lat="52.0416252873837947845458984375" lon="1.2039381824433803558349609375">
        <ele>178.1999969482421875</ele>
        <time>2025-09-05T11:25:09.000Z</time>
        <extensions>
          <ns3:TrackPointExtension>
            <ns3:hr>151</ns3:hr>
            <ns3:cad>61</ns3:cad>
          </ns3:TrackPointExtension>
        </extensions>
      </trkpt>
      <trkpt lat="52.0416212640702724456787109375" lon="1.2039804272353649139404296875">
        <ele>177.8000030517578125</ele>
        <time>2025-09-05T11:25:11.000Z</time>
        <extensions>
          <ns3:TrackPointExtension>
            <ns3:hr>144</ns3:hr>
            <ns3:cad>61</ns3:cad>
          </ns3:TrackPointExtension>
        </extensions>
      </trkpt>
      <trkpt lat="52.04161874949932098388671875" lon="1.2040028907358646392822265625">
        <ele>177.600006103515625</ele>
        <time>2025-09-05T11:25:12.000Z</time>
        <extensions>
          <ns3:TrackPointExtension>
            <ns3:hr>140</ns3:hr>
            <ns3:cad>60</ns3:cad>
          </ns3:TrackPointExtension>
        </extensions>
      </trkpt>
      <trkpt lat="52.04161011613905429840087890625" lon="1.204046308994293212890625">
        <ele>177.1999969482421875</ele>
        <time>2025-09-05T11:25:14.000Z</time>
        <extensions>
          <ns3:TrackPointExtension>
            <ns3:hr>136</ns3:hr>
            <ns3:cad>58</ns3:cad>
          </ns3:TrackPointExtension>
        </extensions>
      </trkpt>
      <trkpt lat="52.04160441644489765167236328125" lon="1.2040997855365276336669921875">
        <ele>176.8000030517578125</ele>
        <time>2025-09-05T11:25:17.000Z</time>
        <extensions>
          <ns3:TrackPointExtension>
            <ns3:hr>132</ns3:hr>
            <ns3:cad>58</ns3:cad>
          </ns3:TrackPointExtension>
        </extensions>
      </trkpt>
      <trkpt lat="52.04158253967761993408203125" lon="1.20422065258026123046875">
        <ele>176</ele>
        <time>2025-09-05T11:25:22.000Z</time>
        <extensions>
          <ns3:TrackPointExtension>
            <ns3:hr>129</ns3:hr>
            <ns3:cad>57</ns3:cad>
          </ns3:TrackPointExtension>
        </extensions>
      </trkpt>
      <trkpt lat="52.041574157774448394775390625" lon="1.20425610803067684173583984375">
        <ele>175.8000030517578125</ele>
        <time>2025-09-05T11:25:23.000Z</time>
        <extensions>
          <ns3:TrackPointExtension>
            <ns3:hr>129</ns3:hr>
            <ns3:cad>57</ns3:cad>
          </ns3:TrackPointExtension>
        </extensions>
      </trkpt>
      <trkpt lat="52.0415656082332134246826171875" lon="1.2042922340333461761474609375">
        <ele>175.600006103515625</ele>
        <time>2025-09-05T11:25:24.000Z</time>
        <extensions>
          <ns3:TrackPointExtension>
            <ns3:hr>127</ns3:hr>
            <ns3:cad>75</ns3:cad>
          </ns3:TrackPointExtension>
        </extensions>
      </trkpt>
      <trkpt lat="52.0415454916656017303466796875" lon="1.2044974230229854583740234375">
        <ele>174.399993896484375</ele>
        <time>2025-09-05T11:25:29.000Z</time>
        <extensions>
          <ns3:TrackPointExtension>
            <ns3:hr>131</ns3:hr>
            <ns3:cad>81</ns3:cad>
          </ns3:TrackPointExtension>
        </extensions>
      </trkpt>
      <trkpt lat="52.041540630161762237548828125" lon="1.2045400030910968780517578125">
        <ele>174</ele>
        <time>2025-09-05T11:25:30.000Z</time>
        <extensions>
          <ns3:TrackPointExtension>
            <ns3:hr>134</ns3:hr>
            <ns3:cad>81</ns3:cad>
          </ns3:TrackPointExtension>
        </extensions>
      </trkpt>
      <trkpt lat="52.0415350981056690216064453125" lon="1.204582750797271728515625">
        <ele>173.600006103515625</ele>
        <time>2025-09-05T11:25:31.000Z</time>
        <extensions>
          <ns3:TrackPointExtension>
            <ns3:hr>138</ns3:hr>
            <ns3:cad>81</ns3:cad>
          </ns3:TrackPointExtension>
        </extensions>
      </trkpt>
      <trkpt lat="52.04152126796543598175048828125" lon="1.20466447435319423675537109375">
        <ele>173.1999969482421875</ele>
        <time>2025-09-05T11:25:33.000Z</time>
        <extensions>
          <ns3:TrackPointExtension>
            <ns3:hr>142</ns3:hr>
            <ns3:cad>82</ns3:cad>
          </ns3:TrackPointExtension>
        </extensions>
      </trkpt>
      <trkpt lat="52.04151489771902561187744140625" lon="1.204706467688083648681640625">
        <ele>173.1999969482421875</ele>
        <time>2025-09-05T11:25:34.000Z</time>
        <extensions>
          <ns3:TrackPointExtension>
            <ns3:hr>145</ns3:hr>
            <ns3:cad>82</ns3:cad>
          </ns3:TrackPointExtension>
        </extensions>
      </trkpt>
      <trkpt lat="52.0415049232542514801025390625" lon="1.204791627824306488037109375">
        <ele>173</ele>
        <time>2025-09-05T11:25:36.000Z</time>
        <extensions>
          <ns3:TrackPointExtension>
            <ns3:hr>149</ns3:hr>
            <ns3:cad>82</ns3:cad>
          </ns3:TrackPointExtension>
        </extensions>
      </trkpt>
      <trkpt lat="52.04149494878947734832763671875" lon="1.20488005690276622772216796875">
        <ele>172.8000030517578125</ele>
        <time>2025-09-05T11:25:38.000Z</time>
        <extensions>
          <ns3:TrackPointExtension>
            <ns3:hr>152</ns3:hr>
            <ns3:cad>83</ns3:cad>
          </ns3:TrackPointExtension>
        </extensions>
      </trkpt>
      <trkpt lat="52.04148237593472003936767578125" lon="1.20492749847471714019775390625">
        <ele>172.8000030517578125</ele>
        <time>2025-09-05T11:25:39.000Z</time>
        <extensions>
          <ns3:TrackPointExtension>
            <ns3:hr>152</ns3:hr>
            <ns3:cad>83</ns3:cad>
          </ns3:TrackPointExtension>
        </extensions>
      </trkpt>
      <trkpt lat="52.04145806841552257537841796875" lon="1.2051367945969104766845703125">
        <ele>172.399993896484375</ele>
        <time>2025-09-05T11:25:44.000Z</time>
        <extensions>
          <ns3:TrackPointExtension>
            <ns3:hr>155</ns3:hr>
            <ns3:cad>83</ns3:cad>
          </ns3:TrackPointExtension>
        </extensions>
      </trkpt>
      <trkpt lat="52.041457481682300567626953125" lon="1.205169148743152618408203125">
        <ele>172.399993896484375</ele>
        <time>2025-09-05T11:25:45.000Z</time>
        <extensions>
          <ns3:TrackPointExtension>
            <ns3:hr>152</ns3:hr>
            <ns3:cad>83</ns3:cad>
          </ns3:TrackPointExtension>
        </extensions>
      </trkpt>
      <trkpt lat="52.04144868068397045135498046875" lon="1.20523444376885890960693359375">
        <ele>172.1999969482421875</ele>
        <time>2025-09-05T11:25:47.000Z</time>
        <extensions>
          <ns3:TrackPointExtension>
            <ns3:hr>155</ns3:hr>
            <ns3:cad>83</ns3:cad>
          </ns3:TrackPointExtension>
        </extensions>
      </trkpt>
      <trkpt lat="52.04144348390400409698486328125" lon="1.20529596693813800811767578125">
        <ele>172.1999969482421875</ele>
        <time>2025-09-05T11:25:49.000Z</time>
        <extensions>
          <ns3:TrackPointExtension>
            <ns3:hr>156</ns3:hr>
            <ns3:cad>83</ns3:cad>
          </ns3:TrackPointExtension>
        </extensions>
      </trkpt>
      <trkpt lat="52.04141431488096714019775390625" lon="1.2054083682596683502197265625">
        <ele>172</ele>
        <time>2025-09-05T11:25:54.000Z</time>
        <extensions>
          <ns3:TrackPointExtension>
            <ns3:hr>155</ns3:hr>
            <ns3:cad>82</ns3:cad>
          </ns3:TrackPointExtension>
        </extensions>
      </trkpt>
      <trkpt lat="52.0413979701697826385498046875" lon="1.205448769032955169677734375">
        <ele>172</ele>
        <time>2025-09-05T11:25:56.000Z</time>
        <extensions>
          <ns3:TrackPointExtension>
            <ns3:hr>158</ns3:hr>
            <ns3:cad>82</ns3:cad>
          </ns3:TrackPointExtension>
        </extensions>
      </trkpt>
      <trkpt lat="52.0413718186318874359130859375" lon="1.20551825501024723052978515625">
        <ele>171.8000030517578125</ele>
        <time>2025-09-05T11:25:59.000Z</time>
        <extensions>
          <ns3:TrackPointExtension>
            <ns3:hr>155</ns3:hr>
            <ns3:cad>82</ns3:cad>
          </ns3:TrackPointExtension>
        </extensions>
      </trkpt>
      <trkpt lat="52.04134918749332427978515625" lon="1.2056102044880390167236328125">
        <ele>171.8000030517578125</ele>
        <time>2025-09-05T11:26:02.000Z</time>
        <extensions>
          <ns3:TrackPointExtension>
            <ns3:hr>155</ns3:hr>
            <ns3:cad>81</ns3:cad>
          </ns3:TrackPointExtension>
        </extensions>
      </trkpt>
      <trkpt lat="52.04135052859783172607421875" lon="1.2058071792125701904296875">
        <ele>171.8000030517578125</ele>
        <time>2025-09-05T11:26:09.000Z</time>
        <extensions>
          <ns3:TrackPointExtension>
            <ns3:hr>155</ns3:hr>
            <ns3:cad>83</ns3:cad>
          </ns3:TrackPointExtension>
        </extensions>
      </trkpt>
      <trkpt lat="52.041287831962108612060546875" lon="1.20602284558117389678955078125">
        <ele>171.8000030517578125</ele>
        <time>2025-09-05T11:26:16.000Z</time>
        <extensions>
          <ns3:TrackPointExtension>
            <ns3:hr>154</ns3:hr>
            <ns3:cad>82</ns3:cad>
          </ns3:TrackPointExtension>
        </extensions>
      </trkpt>
      <trkpt lat="52.041212059557437896728515625" lon="1.20617103762924671173095703125">
        <ele>171.8000030517578125</ele>
        <time>2025-09-05T11:26:23.000Z</time>
        <extensions>
          <ns3:TrackPointExtension>
            <ns3:hr>157</ns3:hr>
            <ns3:cad>82</ns3:cad>
          </ns3:TrackPointExtension>
        </extensions>
      </trkpt>
      <trkpt lat="52.04113335348665714263916015625" lon="1.20626089163124561309814453125">
        <ele>172</ele>
        <time>2025-09-05T11:26:28.000Z</time>
        <extensions>
          <ns3:TrackPointExtension>
            <ns3:hr>154</ns3:hr>
            <ns3:cad>82</ns3:cad>
          </ns3:TrackPointExtension>
        </extensions>
      </trkpt>
      <trkpt lat="52.04107803292572498321533203125" lon="1.2063141167163848876953125">
        <ele>172</ele>
        <time>2025-09-05T11:26:31.000Z</time>
        <extensions>
          <ns3:TrackPointExtension>
            <ns3:hr>154</ns3:hr>
            <ns3:cad>82</ns3:cad>
          </ns3:TrackPointExtension>
        </extensions>
      </trkpt>
      <trkpt lat="52.04098683781921863555908203125" lon="1.20630078949034214019775390625">
        <ele>172.1999969482421875</ele>
        <time>2025-09-05T11:26:36.000Z</time>
        <extensions>
          <ns3:TrackPointExtension>
            <ns3:hr>150</ns3:hr>
            <ns3:cad>78</ns3:cad>
          </ns3:TrackPointExtension>
        </extensions>
      </trkpt>
      <trkpt lat="52.040972672402858734130859375" lon="1.20629140175879001617431640625">
        <ele>172.399993896484375</ele>
        <time>2025-09-05T11:26:37.000Z</time>
        <extensions>
          <ns3:TrackPointExtension>
            <ns3:hr>151</ns3:hr>
            <ns3:cad>79</ns3:cad>
          </ns3:TrackPointExtension>
        </extensions>
      </trkpt>
      <trkpt lat="52.0409124903380870819091796875" lon="1.2063280306756496429443359375">
        <ele>172.399993896484375</ele>
        <time>2025-09-05T11:26:43.000Z</time>
        <extensions>
          <ns3:TrackPointExtension>
            <ns3:hr>154</ns3:hr>
            <ns3:cad>0</ns3:cad>
          </ns3:TrackPointExtension>
        </extensions>
      </trkpt>
      <trkpt lat="52.04087980091571807861328125" lon="1.20632509700953960418701171875">
        <ele>172.399993896484375</ele>
        <time>2025-09-05T11:26:45.000Z</time>
        <extensions>
          <ns3:TrackPointExtension>
            <ns3:hr>157</ns3:hr>
            <ns3:cad>52</ns3:cad>
          </ns3:TrackPointExtension>
        </extensions>
      </trkpt>
      <trkpt lat="52.040810398757457733154296875" lon="1.20629475452005863189697265625">
        <ele>172.1999969482421875</ele>
        <time>2025-09-05T11:26:50.000Z</time>
        <extensions>
          <ns3:TrackPointExtension>
            <ns3:hr>161</ns3:hr>
            <ns3:cad>80</ns3:cad>
          </ns3:TrackPointExtension>
        </extensions>
      </trkpt>
      <trkpt lat="52.0407865941524505615234375" lon="1.206278242170810699462890625">
        <ele>172.1999969482421875</ele>
        <time>2025-09-05T11:26:51.000Z</time>
        <extensions>
          <ns3:TrackPointExtension>
            <ns3:hr>160</ns3:hr>
            <ns3:cad>80</ns3:cad>
          </ns3:TrackPointExtension>
        </extensions>
      </trkpt>
      <trkpt lat="52.0406095683574676513671875" lon="1.206217892467975616455078125">
        <ele>172</ele>
        <time>2025-09-05T11:26:59.000Z</time>
        <extensions>
          <ns3:TrackPointExtension>
            <ns3:hr>162</ns3:hr>
            <ns3:cad>81</ns3:cad>
          </ns3:TrackPointExtension>
        </extensions>
      </trkpt>
      <trkpt lat="52.04045944847166538238525390625" lon="1.20614052750170230865478515625">
        <ele>172.600006103515625</ele>
        <time>2025-09-05T11:27:07.000Z</time>
        <extensions>
          <ns3:TrackPointExtension>
            <ns3:hr>164</ns3:hr>
            <ns3:cad>79</ns3:cad>
          </ns3:TrackPointExtension>
        </extensions>
      </trkpt>
      <trkpt lat="52.0404424332082271575927734375" lon="1.20612996630370616912841796875">
        <ele>172.8000030517578125</ele>
        <time>2025-09-05T11:27:08.000Z</time>
        <extensions>
          <ns3:TrackPointExtension>
            <ns3:hr>167</ns3:hr>
            <ns3:cad>79</ns3:cad>
          </ns3:TrackPointExtension>
        </extensions>
      </trkpt>
      <trkpt lat="52.040374539792537689208984375" lon="1.20608822442591190338134765625">
        <ele>173.1999969482421875</ele>
        <time>2025-09-05T11:27:11.000Z</time>
        <extensions>
          <ns3:TrackPointExtension>
            <ns3:hr>171</ns3:hr>
            <ns3:cad>81</ns3:cad>
          </ns3:TrackPointExtension>
        </extensions>
      </trkpt>
      <trkpt lat="52.040270604193210601806640625" lon="1.206054948270320892333984375">
        <ele>173.600006103515625</ele>
        <time>2025-09-05T11:27:15.000Z</time>
        <extensions>
          <ns3:TrackPointExtension>
            <ns3:hr>171</ns3:hr>
            <ns3:cad>81</ns3:cad>
          </ns3:TrackPointExtension>
        </extensions>
      </trkpt>
      <trkpt lat="52.04019449651241302490234375" lon="1.20604597963392734527587890625">
        <ele>174.399993896484375</ele>
        <time>2025-09-05T11:27:18.000Z</time>
        <extensions>
          <ns3:TrackPointExtension>
            <ns3:hr>173</ns3:hr>
            <ns3:cad>81</ns3:cad>
          </ns3:TrackPointExtension>
        </extensions>
      </trkpt>
      <trkpt lat="52.0400623977184295654296875" lon="1.20602988637983798980712890625">
        <ele>175.1999969482421875</ele>
        <time>2025-09-05T11:27:23.000Z</time>
        <extensions>
          <ns3:TrackPointExtension>
            <ns3:hr>170</ns3:hr>
            <ns3:cad>81</ns3:cad>
          </ns3:TrackPointExtension>
        </extensions>
      </trkpt>
      <trkpt lat="52.040037922561168670654296875" lon="1.206020414829254150390625">
        <ele>175.600006103515625</ele>
        <time>2025-09-05T11:27:24.000Z</time>
        <extensions>
          <ns3:TrackPointExtension>
            <ns3:hr>170</ns3:hr>
            <ns3:cad>80</ns3:cad>
          </ns3:TrackPointExtension>
        </extensions>
      </trkpt>
      <trkpt lat="52.04001269303262233734130859375" lon="1.20600976981222629547119140625">
        <ele>175.8000030517578125</ele>
        <time>2025-09-05T11:27:25.000Z</time>
        <extensions>
          <ns3:TrackPointExtension>
            <ns3:hr>170</ns3:hr>
            <ns3:cad>80</ns3:cad>
          </ns3:TrackPointExtension>
        </extensions>
      </trkpt>
      <trkpt lat="52.03982711769640445709228515625" lon="1.2059012241661548614501953125">
        <ele>176.600006103515625</ele>
        <time>2025-09-05T11:27:33.000Z</time>
        <extensions>
          <ns3:TrackPointExtension>
            <ns3:hr>170</ns3:hr>
            <ns3:cad>82</ns3:cad>
          </ns3:TrackPointExtension>
        </extensions>
      </trkpt>
      <trkpt lat="52.03975637443363666534423828125" lon="1.205867193639278411865234375">
        <ele>176.600006103515625</ele>
        <time>2025-09-05T11:27:36.000Z</time>
        <extensions>
          <ns3:TrackPointExtension>
            <ns3:hr>170</ns3:hr>
            <ns3:cad>82</ns3:cad>
          </ns3:TrackPointExtension>
        </extensions>
      </trkpt>
      <trkpt lat="52.0396417938172817230224609375" lon="1.20582721196115016937255859375">
        <ele>177</ele>
        <time>2025-09-05T11:27:41.000Z</time>
        <extensions>
          <ns3:TrackPointExtension>
            <ns3:hr>173</ns3:hr>
            <ns3:cad>82</ns3:cad>
          </ns3:TrackPointExtension>
        </extensions>
      </trkpt>
      <trkpt lat="52.0396086014807224273681640625" lon="1.20584347285330295562744140625">
        <ele>177.1999969482421875</ele>
        <time>2025-09-05T11:27:43.000Z</time>
        <extensions>
          <ns3:TrackPointExtension>
            <ns3:hr>173</ns3:hr>
            <ns3:cad>81</ns3:cad>
          </ns3:TrackPointExtension>
        </extensions>
      </trkpt>
      <trkpt lat="52.03958672471344470977783203125" lon="1.2058938480913639068603515625">
        <ele>177.399993896484375</ele>
        <time>2025-09-05T11:27:45.000Z</time>
        <extensions>
          <ns3:TrackPointExtension>
            <ns3:hr>171</ns3:hr>
            <ns3:cad>81</ns3:cad>
          </ns3:TrackPointExtension>
        </extensions>
      </trkpt>
      <trkpt lat="52.03956996090710163116455078125" lon="1.2059826962649822235107421875">
        <ele>177.600006103515625</ele>
        <time>2025-09-05T11:27:48.000Z</time>
        <extensions>
          <ns3:TrackPointExtension>
            <ns3:hr>169</ns3:hr>
            <ns3:cad>81</ns3:cad>
          </ns3:TrackPointExtension>
        </extensions>
      </trkpt>
      <trkpt lat="52.039555795490741729736328125" lon="1.20604924857616424560546875">
        <ele>177.8000030517578125</ele>
        <time>2025-09-05T11:27:50.000Z</time>
        <extensions>
          <ns3:TrackPointExtension>
            <ns3:hr>172</ns3:hr>
            <ns3:cad>81</ns3:cad>
          </ns3:TrackPointExtension>
        </extensions>
      </trkpt>
      <trkpt lat="52.0395365171134471893310546875" lon="1.20612032711505889892578125">
        <ele>177.8000030517578125</ele>
        <time>2025-09-05T11:27:52.000Z</time>
        <extensions>
          <ns3:TrackPointExtension>
            <ns3:hr>169</ns3:hr>
            <ns3:cad>81</ns3:cad>
          </ns3:TrackPointExtension>
        </extensions>
      </trkpt>
      <trkpt lat="52.03951564617455005645751953125" lon="1.206204481422901153564453125">
        <ele>177.8000030517578125</ele>
        <time>2025-09-05T11:27:55.000Z</time>
        <extensions>
          <ns3:TrackPointExtension>
            <ns3:hr>168</ns3:hr>
            <ns3:cad>81</ns3:cad>
          </ns3:TrackPointExtension>
        </extensions>
      </trkpt>
      <trkpt lat="52.03944423235952854156494140625" lon="1.206497848033905029296875">
        <ele>178.1999969482421875</ele>
        <time>2025-09-05T11:28:04.000Z</time>
        <extensions>
          <ns3:TrackPointExtension>
            <ns3:hr>167</ns3:hr>
            <ns3:cad>82</ns3:cad>
          </ns3:TrackPointExtension>
        </extensions>
      </trkpt>
      <trkpt lat="52.03943065367639064788818359375" lon="1.2065322138369083404541015625">
        <ele>178.1999969482421875</ele>
        <time>2025-09-05T11:28:05.000Z</time>
        <extensions>
          <ns3:TrackPointExtension>
            <ns3:hr>167</ns3:hr>
            <ns3:cad>82</ns3:cad>
          </ns3:TrackPointExtension>
        </extensions>
      </trkpt>
      <trkpt lat="52.03934415243566036224365234375" lon="1.20678685605525970458984375">
        <ele>178.1999969482421875</ele>
        <time>2025-09-05T11:28:14.000Z</time>
        <extensions>
          <ns3:TrackPointExtension>
            <ns3:hr>167</ns3:hr>
            <ns3:cad>82</ns3:cad>
          </ns3:TrackPointExtension>
        </extensions>
      </trkpt>
      <trkpt lat="52.03926779329776763916015625" lon="1.20701543055474758148193359375">
        <ele>178.600006103515625</ele>
        <time>2025-09-05T11:28:21.000Z</time>
        <extensions>
          <ns3:TrackPointExtension>
            <ns3:hr>170</ns3:hr>
            <ns3:cad>83</ns3:cad>
          </ns3:TrackPointExtension>
        </extensions>
      </trkpt>
      <trkpt lat="52.039252035319805145263671875" lon="1.20707578025758266448974609375">
        <ele>178.600006103515625</ele>
        <time>2025-09-05T11:28:23.000Z</time>
        <extensions>
          <ns3:TrackPointExtension>
            <ns3:hr>172</ns3:hr>
            <ns3:cad>83</ns3:cad>
          </ns3:TrackPointExtension>
        </extensions>
      </trkpt>
      <trkpt lat="52.0392277278006076812744140625" lon="1.20716613717377185821533203125">
        <ele>178.600006103515625</ele>
        <time>2025-09-05T11:28:26.000Z</time>
        <extensions>
          <ns3:TrackPointExtension>
            <ns3:hr>172</ns3:hr>
            <ns3:cad>82</ns3:cad>
          </ns3:TrackPointExtension>
        </extensions>
      </trkpt>
      <trkpt lat="52.03916964121162891387939453125" lon="1.2073070369660854339599609375">
        <ele>179</ele>
        <time>2025-09-05T11:28:31.000Z</time>
        <extensions>
          <ns3:TrackPointExtension>
            <ns3:hr>170</ns3:hr>
            <ns3:cad>81</ns3:cad>
          </ns3:TrackPointExtension>
        </extensions>
      </trkpt>
      <trkpt lat="52.03910778276622295379638671875" lon="1.2075708992779254913330078125">
        <ele>179.1999969482421875</ele>
        <time>2025-09-05T11:28:38.000Z</time>
        <extensions>
          <ns3:TrackPointExtension>
            <ns3:hr>169</ns3:hr>
            <ns3:cad>82</ns3:cad>
          </ns3:TrackPointExtension>
        </extensions>
      </trkpt>
      <trkpt lat="52.03905883245170116424560546875" lon="1.207715906202793121337890625">
        <ele>179.1999969482421875</ele>
        <time>2025-09-05T11:28:43.000Z</time>
        <extensions>
          <ns3:TrackPointExtension>
            <ns3:hr>170</ns3:hr>
            <ns3:cad>82</ns3:cad>
          </ns3:TrackPointExtension>
        </extensions>
      </trkpt>
      <trkpt lat="52.03903368674218654632568359375" lon="1.20779762975871562957763671875">
        <ele>179.1999969482421875</ele>
        <time>2025-09-05T11:28:45.000Z</time>
        <extensions>
          <ns3:TrackPointExtension>
            <ns3:hr>170</ns3:hr>
            <ns3:cad>82</ns3:cad>
          </ns3:TrackPointExtension>
        </extensions>
      </trkpt>
      <trkpt lat="52.0389454253017902374267578125" lon="1.20800365693867206573486328125">
        <ele>179.1999969482421875</ele>
        <time>2025-09-05T11:28:51.000Z</time>
        <extensions>
          <ns3:TrackPointExtension>
            <ns3:hr>169</ns3:hr>
            <ns3:cad>80</ns3:cad>
          </ns3:TrackPointExtension>
        </extensions>
      </trkpt>
      <trkpt lat="52.03886521048843860626220703125" lon="1.20819233357906341552734375">
        <ele>178.399993896484375</ele>
        <time>2025-09-05T11:29:00.000Z</time>
        <extensions>
          <ns3:TrackPointExtension>
            <ns3:hr>169</ns3:hr>
            <ns3:cad>81</ns3:cad>
          </ns3:TrackPointExtension>
        </extensions>
      </trkpt>
      <trkpt lat="52.038835622370243072509765625" lon="1.20829618535935878753662109375">
        <ele>178.1999969482421875</ele>
        <time>2025-09-05T11:29:02.000Z</time>
        <extensions>
          <ns3:TrackPointExtension>
            <ns3:hr>173</ns3:hr>
            <ns3:cad>81</ns3:cad>
          </ns3:TrackPointExtension>
        </extensions>
      </trkpt>
      <trkpt lat="52.0388019271194934844970703125" lon="1.20841219089925289154052734375">
        <ele>177.8000030517578125</ele>
        <time>2025-09-05T11:29:06.000Z</time>
        <extensions>
          <ns3:TrackPointExtension>
            <ns3:hr>174</ns3:hr>
            <ns3:cad>81</ns3:cad>
          </ns3:TrackPointExtension>
        </extensions>
      </trkpt>
      <trkpt lat="52.038775272667407989501953125" lon="1.20853029191493988037109375">
        <ele>177.600006103515625</ele>
        <time>2025-09-05T11:29:08.000Z</time>
        <extensions>
          <ns3:TrackPointExtension>
            <ns3:hr>174</ns3:hr>
            <ns3:cad>81</ns3:cad>
          </ns3:TrackPointExtension>
        </extensions>
      </trkpt>
      <trkpt lat="52.03872640617191791534423828125" lon="1.2087120115756988525390625">
        <ele>177.1999969482421875</ele>
        <time>2025-09-05T11:29:14.000Z</time>
        <extensions>
          <ns3:TrackPointExtension>
            <ns3:hr>173</ns3:hr>
            <ns3:cad>81</ns3:cad>
          </ns3:TrackPointExtension>
        </extensions>
      </trkpt>
      <trkpt lat="52.03865901567041873931884765625" lon="1.20894393883645534515380859375">
        <ele>176.600006103515625</ele>
        <time>2025-09-05T11:29:21.000Z</time>
        <extensions>
          <ns3:TrackPointExtension>
            <ns3:hr>174</ns3:hr>
            <ns3:cad>80</ns3:cad>
          </ns3:TrackPointExtension>
        </extensions>
      </trkpt>
      <trkpt lat="52.038643173873424530029296875" lon="1.209050305187702178955078125">
        <ele>176.600006103515625</ele>
        <time>2025-09-05T11:29:23.000Z</time>
        <extensions>
          <ns3:TrackPointExtension>
            <ns3:hr>176</ns3:hr>
            <ns3:cad>80</ns3:cad>
          </ns3:TrackPointExtension>
        </extensions>
      </trkpt>
      <trkpt lat="52.03857176005840301513671875" lon="1.20932665653526782989501953125">
        <ele>176.1999969482421875</ele>
        <time>2025-09-05T11:29:31.000Z</time>
        <extensions>
          <ns3:TrackPointExtension>
            <ns3:hr>177</ns3:hr>
            <ns3:cad>81</ns3:cad>
          </ns3:TrackPointExtension>
        </extensions>
      </trkpt>
      <trkpt lat="52.03848659992218017578125" lon="1.20959185995161533355712890625">
        <ele>175.600006103515625</ele>
        <time>2025-09-05T11:29:39.000Z</time>
        <extensions>
          <ns3:TrackPointExtension>
            <ns3:hr>177</ns3:hr>
            <ns3:cad>81</ns3:cad>
          </ns3:TrackPointExtension>
        </extensions>
      </trkpt>
      <trkpt lat="52.0384720154106616973876953125" lon="1.2096579931676387786865234375">
        <ele>175.399993896484375</ele>
        <time>2025-09-05T11:29:41.000Z</time>
        <extensions>
          <ns3:TrackPointExtension>
            <ns3:hr>176</ns3:hr>
            <ns3:cad>80</ns3:cad>
          </ns3:TrackPointExtension>
        </extensions>
      </trkpt>
      <trkpt lat="52.03842549584805965423583984375" lon="1.209852956235408782958984375">
        <ele>174.8000030517578125</ele>
        <time>2025-09-05T11:29:47.000Z</time>
        <extensions>
          <ns3:TrackPointExtension>
            <ns3:hr>178</ns3:hr>
            <ns3:cad>82</ns3:cad>
          </ns3:TrackPointExtension>
        </extensions>
      </trkpt>
      <trkpt lat="52.03840135596692562103271484375" lon="1.20995295234024524688720703125">
        <ele>174.399993896484375</ele>
        <time>2025-09-05T11:29:50.000Z</time>
        <extensions>
          <ns3:TrackPointExtension>
            <ns3:hr>178</ns3:hr>
            <ns3:cad>82</ns3:cad>
          </ns3:TrackPointExtension>
        </extensions>
      </trkpt>
      <trkpt lat="52.038349471986293792724609375" lon="1.21011422015726566314697265625">
        <ele>174</ele>
        <time>2025-09-05T11:29:55.000Z</time>
        <extensions>
          <ns3:TrackPointExtension>
            <ns3:hr>178</ns3:hr>
            <ns3:cad>81</ns3:cad>
          </ns3:TrackPointExtension>
        </extensions>
      </trkpt>
      <trkpt lat="52.0383203029632568359375" lon="1.2102403677999973297119140625">
        <ele>173.1999969482421875</ele>
        <time>2025-09-05T11:29:59.000Z</time>
        <extensions>
          <ns3:TrackPointExtension>
            <ns3:hr>176</ns3:hr>
            <ns3:cad>80</ns3:cad>
          </ns3:TrackPointExtension>
        </extensions>
      </trkpt>
      <trkpt lat="52.038289792835712432861328125" lon="1.21037405915558338165283203125">
        <ele>172.8000030517578125</ele>
        <time>2025-09-05T11:30:03.000Z</time>
        <extensions>
          <ns3:TrackPointExtension>
            <ns3:hr>176</ns3:hr>
            <ns3:cad>81</ns3:cad>
          </ns3:TrackPointExtension>
        </extensions>
      </trkpt>
      <trkpt lat="52.03822198323905467987060546875" lon="1.2106028012931346893310546875">
        <ele>172.600006103515625</ele>
        <time>2025-09-05T11:30:10.000Z</time>
        <extensions>
          <ns3:TrackPointExtension>
            <ns3:hr>179</ns3:hr>
            <ns3:cad>81</ns3:cad>
          </ns3:TrackPointExtension>
        </extensions>
      </trkpt>
      <trkpt lat="52.03816649504005908966064453125" lon="1.21083389036357402801513671875">
        <ele>172.1999969482421875</ele>
        <time>2025-09-05T11:30:16.000Z</time>
        <extensions>
          <ns3:TrackPointExtension>
            <ns3:hr>176</ns3:hr>
            <ns3:cad>80</ns3:cad>
          </ns3:TrackPointExtension>
        </extensions>
      </trkpt>
      <trkpt lat="52.0381588675081729888916015625" lon="1.21087010018527507781982421875">
        <ele>172</ele>
        <time>2025-09-05T11:30:17.000Z</time>
        <extensions>
          <ns3:TrackPointExtension>
            <ns3:hr>176</ns3:hr>
            <ns3:cad>80</ns3:cad>
          </ns3:TrackPointExtension>
        </extensions>
      </trkpt>
      <trkpt lat="52.03808837570250034332275390625" lon="1.21115407906472682952880859375">
        <ele>171.1999969482421875</ele>
        <time>2025-09-05T11:30:25.000Z</time>
        <extensions>
          <ns3:TrackPointExtension>
            <ns3:hr>174</ns3:hr>
            <ns3:cad>81</ns3:cad>
          </ns3:TrackPointExtension>
        </extensions>
      </trkpt>
      <trkpt lat="52.03807898797094821929931640625" lon="1.21118928305804729461669921875">
        <ele>171</ele>
        <time>2025-09-05T11:30:26.000Z</time>
        <extensions>
          <ns3:TrackPointExtension>
            <ns3:hr>175</ns3:hr>
            <ns3:cad>81</ns3:cad>
          </ns3:TrackPointExtension>
        </extensions>
      </trkpt>
      <trkpt lat="52.03802400268614292144775390625" lon="1.211411990225315093994140625">
        <ele>169.8000030517578125</ele>
        <time>2025-09-05T11:30:32.000Z</time>
        <extensions>
          <ns3:TrackPointExtension>
            <ns3:hr>176</ns3:hr>
            <ns3:cad>81</ns3:cad>
          </ns3:TrackPointExtension>
        </extensions>
      </trkpt>
      <trkpt lat="52.03801495023071765899658203125" lon="1.21145063079893589019775390625">
        <ele>169.600006103515625</ele>
        <time>2025-09-05T11:30:33.000Z</time>
        <extensions>
          <ns3:TrackPointExtension>
            <ns3:hr>177</ns3:hr>
            <ns3:cad>81</ns3:cad>
          </ns3:TrackPointExtension>
        </extensions>
      </trkpt>
      <trkpt lat="52.0379593782126903533935546875" lon="1.21167023666203022003173828125">
        <ele>169.1999969482421875</ele>
        <time>2025-09-05T11:30:39.000Z</time>
        <extensions>
          <ns3:TrackPointExtension>
            <ns3:hr>178</ns3:hr>
            <ns3:cad>81</ns3:cad>
          </ns3:TrackPointExtension>
        </extensions>
      </trkpt>
      <trkpt lat="52.0379503257572650909423828125" lon="1.21173150837421417236328125">
        <ele>168.600006103515625</ele>
        <time>2025-09-05T11:30:41.000Z</time>
        <extensions>
          <ns3:TrackPointExtension>
            <ns3:hr>176</ns3:hr>
            <ns3:cad>81</ns3:cad>
          </ns3:TrackPointExtension>
        </extensions>
      </trkpt>
      <trkpt lat="52.03791906125843524932861328125" lon="1.2118530459702014923095703125">
        <ele>168.1999969482421875</ele>
        <time>2025-09-05T11:30:45.000Z</time>
        <extensions>
          <ns3:TrackPointExtension>
            <ns3:hr>173</ns3:hr>
            <ns3:cad>81</ns3:cad>
          </ns3:TrackPointExtension>
        </extensions>
      </trkpt>
      <trkpt lat="52.03791202045977115631103515625" lon="1.2118838913738727569580078125">
        <ele>168</ele>
        <time>2025-09-05T11:30:46.000Z</time>
        <extensions>
          <ns3:TrackPointExtension>
            <ns3:hr>173</ns3:hr>
            <ns3:cad>81</ns3:cad>
          </ns3:TrackPointExtension>
        </extensions>
      </trkpt>
      <trkpt lat="52.03787379898130893707275390625" lon="1.212020181119441986083984375">
        <ele>167.600006103515625</ele>
        <time>2025-09-05T11:30:50.000Z</time>
        <extensions>
          <ns3:TrackPointExtension>
            <ns3:hr>173</ns3:hr>
            <ns3:cad>81</ns3:cad>
          </ns3:TrackPointExtension>
        </extensions>
      </trkpt>
      <trkpt lat="52.03783859498798847198486328125" lon="1.2121091969311237335205078125">
        <ele>167.600006103515625</ele>
        <time>2025-09-05T11:30:53.000Z</time>
        <extensions>
          <ns3:TrackPointExtension>
            <ns3:hr>172</ns3:hr>
            <ns3:cad>82</ns3:cad>
          </ns3:TrackPointExtension>
        </extensions>
      </trkpt>
      <trkpt lat="52.03778562135994434356689453125" lon="1.2122751586139202117919921875">
        <ele>167.399993896484375</ele>
        <time>2025-09-05T11:30:59.000Z</time>
        <extensions>
          <ns3:TrackPointExtension>
            <ns3:hr>171</ns3:hr>
            <ns3:cad>80</ns3:cad>
          </ns3:TrackPointExtension>
        </extensions>
      </trkpt>
      <trkpt lat="52.03774455003440380096435546875" lon="1.2123747356235980987548828125">
        <ele>167.1999969482421875</ele>
        <time>2025-09-05T11:31:06.000Z</time>
        <extensions>
          <ns3:TrackPointExtension>
            <ns3:hr>171</ns3:hr>
            <ns3:cad>0</ns3:cad>
          </ns3:TrackPointExtension>
        </extensions>
      </trkpt>
      <trkpt lat="52.03776299022138118743896484375" lon="1.2123464047908782958984375">
        <ele>166.8000030517578125</ele>
        <time>2025-09-05T11:31:14.000Z</time>
        <extensions>
          <ns3:TrackPointExtension>
            <ns3:hr>169</ns3:hr>
            <ns3:cad>0</ns3:cad>
          </ns3:TrackPointExtension>
        </extensions>
      </trkpt>
      <trkpt lat="52.037765420973300933837890625" lon="1.21233098208904266357421875">
        <ele>166.600006103515625</ele>
        <time>2025-09-05T11:31:15.000Z</time>
        <extensions>
          <ns3:TrackPointExtension>
            <ns3:hr>169</ns3:hr>
            <ns3:cad>0</ns3:cad>
          </ns3:TrackPointExtension>
        </extensions>
      </trkpt>
      <trkpt lat="52.0377726294100284576416015625" lon="1.2123169004917144775390625">
        <ele>165.8000030517578125</ele>
        <time>2025-09-05T11:31:21.000Z</time>
        <extensions>
          <ns3:TrackPointExtension>
            <ns3:hr>169</ns3:hr>
            <ns3:cad>53</ns3:cad>
          </ns3:TrackPointExtension>
        </extensions>
      </trkpt>
      <trkpt lat="52.03775636851787567138671875" lon="1.212358810007572174072265625">
        <ele>165.600006103515625</ele>
        <time>2025-09-05T11:31:23.000Z</time>
        <extensions>
          <ns3:TrackPointExtension>
            <ns3:hr>169</ns3:hr>
            <ns3:cad>55</ns3:cad>
          </ns3:TrackPointExtension>
        </extensions>
      </trkpt>
      <trkpt lat="52.03771571628749370574951171875" lon="1.2124751508235931396484375">
        <ele>164.8000030517578125</ele>
        <time>2025-09-05T11:31:27.000Z</time>
        <extensions>
          <ns3:TrackPointExtension>
            <ns3:hr>167</ns3:hr>
            <ns3:cad>59</ns3:cad>
          </ns3:TrackPointExtension>
        </extensions>
      </trkpt>
      <trkpt lat="52.0377049036324024200439453125" lon="1.212536506354808807373046875">
        <ele>164.600006103515625</ele>
        <time>2025-09-05T11:31:29.000Z</time>
        <extensions>
          <ns3:TrackPointExtension>
            <ns3:hr>170</ns3:hr>
            <ns3:cad>60</ns3:cad>
          </ns3:TrackPointExtension>
        </extensions>
      </trkpt>
      <trkpt lat="52.03771437518298625946044921875" lon="1.212647818028926849365234375">
        <ele>164.399993896484375</ele>
        <time>2025-09-05T11:31:33.000Z</time>
        <extensions>
          <ns3:TrackPointExtension>
            <ns3:hr>171</ns3:hr>
            <ns3:cad>62</ns3:cad>
          </ns3:TrackPointExtension>
        </extensions>
      </trkpt>
      <trkpt lat="52.03777170740067958831787109375" lon="1.21276943944394588470458984375">
        <ele>164</ele>
        <time>2025-09-05T11:31:40.000Z</time>
        <extensions>
          <ns3:TrackPointExtension>
            <ns3:hr>168</ns3:hr>
            <ns3:cad>61</ns3:cad>
          </ns3:TrackPointExtension>
        </extensions>
      </trkpt>
      <trkpt lat="52.0377860404551029205322265625" lon="1.21279634535312652587890625">
        <ele>163.8000030517578125</ele>
        <time>2025-09-05T11:31:42.000Z</time>
        <extensions>
          <ns3:TrackPointExtension>
            <ns3:hr>164</ns3:hr>
            <ns3:cad>62</ns3:cad>
          </ns3:TrackPointExtension>
        </extensions>
      </trkpt>
      <trkpt lat="52.0378175564110279083251953125" lon="1.2128501571714878082275390625">
        <ele>163.399993896484375</ele>
        <time>2025-09-05T11:31:45.000Z</time>
        <extensions>
          <ns3:TrackPointExtension>
            <ns3:hr>159</ns3:hr>
            <ns3:cad>62</ns3:cad>
          </ns3:TrackPointExtension>
        </extensions>
      </trkpt>
      <trkpt lat="52.03782836906611919403076171875" lon="1.21286566369235515594482421875">
        <ele>163.1999969482421875</ele>
        <time>2025-09-05T11:31:46.000Z</time>
        <extensions>
          <ns3:TrackPointExtension>
            <ns3:hr>154</ns3:hr>
            <ns3:cad>62</ns3:cad>
          </ns3:TrackPointExtension>
        </extensions>
      </trkpt>
      <trkpt lat="52.03784848563373088836669921875" lon="1.21288930065929889678955078125">
        <ele>163.1999969482421875</ele>
        <time>2025-09-05T11:31:48.000Z</time>
        <extensions>
          <ns3:TrackPointExtension>
            <ns3:hr>150</ns3:hr>
            <ns3:cad>61</ns3:cad>
          </ns3:TrackPointExtension>
        </extensions>
      </trkpt>
      <trkpt lat="52.03791487030684947967529296875" lon="1.21304989792406558990478515625">
        <ele>163.1999969482421875</ele>
        <time>2025-09-05T11:31:56.000Z</time>
        <extensions>
          <ns3:TrackPointExtension>
            <ns3:hr>148</ns3:hr>
            <ns3:cad>60</ns3:cad>
          </ns3:TrackPointExtension>
        </extensions>
      </trkpt>
      <trkpt lat="52.0379848591983318328857421875" lon="1.21321418322622776031494140625">
        <ele>163.399993896484375</ele>
        <time>2025-09-05T11:32:04.000Z</time>
        <extensions>
          <ns3:TrackPointExtension>
            <ns3:hr>149</ns3:hr>
            <ns3:cad>123</ns3:cad>
          </ns3:TrackPointExtension>
        </extensions>
      </trkpt>
      <trkpt lat="52.0380264334380626678466796875" lon="1.21345994062721729278564453125">
        <ele>164.1999969482421875</ele>
        <time>2025-09-05T11:32:11.000Z</time>
        <extensions>
          <ns3:TrackPointExtension>
            <ns3:hr>154</ns3:hr>
            <ns3:cad>78</ns3:cad>
          </ns3:TrackPointExtension>
        </extensions>
      </trkpt>
      <trkpt lat="52.0380301214754581451416015625" lon="1.2134955637156963348388671875">
        <ele>164.1999969482421875</ele>
        <time>2025-09-05T11:32:12.000Z</time>
        <extensions>
          <ns3:TrackPointExtension>
            <ns3:hr>157</ns3:hr>
            <ns3:cad>80</ns3:cad>
          </ns3:TrackPointExtension>
        </extensions>
      </trkpt>
      <trkpt lat="52.038032971322536468505859375" lon="1.21353529393672943115234375">
        <ele>164.399993896484375</ele>
        <time>2025-09-05T11:32:13.000Z</time>
        <extensions>
          <ns3:TrackPointExtension>
            <ns3:hr>156</ns3:hr>
            <ns3:cad>80</ns3:cad>
          </ns3:TrackPointExtension>
        </extensions>
      </trkpt>
      <trkpt lat="52.03803791664540767669677734375" lon="1.21360997669398784637451171875">
        <ele>164.600006103515625</ele>
        <time>2025-09-05T11:32:15.000Z</time>
        <extensions>
          <ns3:TrackPointExtension>
            <ns3:hr>160</ns3:hr>
            <ns3:cad>80</ns3:cad>
          </ns3:TrackPointExtension>
        </extensions>
      </trkpt>
      <trkpt lat="52.03804680146276950836181640625" lon="1.2136870063841342926025390625">
        <ele>164.8000030517578125</ele>
        <time>2025-09-05T11:32:17.000Z</time>
        <extensions>
          <ns3:TrackPointExtension>
            <ns3:hr>163</ns3:hr>
            <ns3:cad>81</ns3:cad>
          </ns3:TrackPointExtension>
        </extensions>
      </trkpt>
      <trkpt lat="52.03805753029882907867431640625" lon="1.21375816874206066131591796875">
        <ele>164.8000030517578125</ele>
        <time>2025-09-05T11:32:19.000Z</time>
        <extensions>
          <ns3:TrackPointExtension>
            <ns3:hr>165</ns3:hr>
            <ns3:cad>81</ns3:cad>
          </ns3:TrackPointExtension>
        </extensions>
      </trkpt>
      <trkpt lat="52.0380990207195281982421875" lon="1.213949359953403472900390625">
        <ele>165.600006103515625</ele>
        <time>2025-09-05T11:32:25.000Z</time>
        <extensions>
          <ns3:TrackPointExtension>
            <ns3:hr>166</ns3:hr>
            <ns3:cad>82</ns3:cad>
          </ns3:TrackPointExtension>
        </extensions>
      </trkpt>
      <trkpt lat="52.0381102524697780609130859375" lon="1.2140196003019809722900390625">
        <ele>165.600006103515625</ele>
        <time>2025-09-05T11:32:27.000Z</time>
        <extensions>
          <ns3:TrackPointExtension>
            <ns3:hr>167</ns3:hr>
            <ns3:cad>81</ns3:cad>
          </ns3:TrackPointExtension>
        </extensions>
      </trkpt>
      <trkpt lat="52.03814671374857425689697265625" lon="1.21423359028995037078857421875">
        <ele>166.600006103515625</ele>
        <time>2025-09-05T11:32:33.000Z</time>
        <extensions>
          <ns3:TrackPointExtension>
            <ns3:hr>171</ns3:hr>
            <ns3:cad>81</ns3:cad>
          </ns3:TrackPointExtension>
        </extensions>
      </trkpt>
      <trkpt lat="52.03815576620399951934814453125" lon="1.2142722308635711669921875">
        <ele>166.600006103515625</ele>
        <time>2025-09-05T11:32:34.000Z</time>
        <extensions>
          <ns3:TrackPointExtension>
            <ns3:hr>171</ns3:hr>
            <ns3:cad>81</ns3:cad>
          </ns3:TrackPointExtension>
        </extensions>
      </trkpt>
      <trkpt lat="52.03817051835358142852783203125" lon="1.214307434856891632080078125">
        <ele>166.600006103515625</ele>
        <time>2025-09-05T11:32:35.000Z</time>
        <extensions>
          <ns3:TrackPointExtension>
            <ns3:hr>169</ns3:hr>
            <ns3:cad>81</ns3:cad>
          </ns3:TrackPointExtension>
        </extensions>
      </trkpt>
      <trkpt lat="52.03821779228746891021728515625" lon="1.21442503295838832855224609375">
        <ele>167.8000030517578125</ele>
        <time>2025-09-05T11:32:39.000Z</time>
        <extensions>
          <ns3:TrackPointExtension>
            <ns3:hr>170</ns3:hr>
            <ns3:cad>82</ns3:cad>
          </ns3:TrackPointExtension>
        </extensions>
      </trkpt>
      <trkpt lat="52.03823489136993885040283203125" lon="1.21453818865120410919189453125">
        <ele>168.600006103515625</ele>
        <time>2025-09-05T11:32:42.000Z</time>
        <extensions>
          <ns3:TrackPointExtension>
            <ns3:hr>169</ns3:hr>
            <ns3:cad>82</ns3:cad>
          </ns3:TrackPointExtension>
        </extensions>
      </trkpt>
      <trkpt lat="52.0382379926741123199462890625" lon="1.21458831243216991424560546875">
        <ele>168.8000030517578125</ele>
        <time>2025-09-05T11:32:43.000Z</time>
        <extensions>
          <ns3:TrackPointExtension>
            <ns3:hr>169</ns3:hr>
            <ns3:cad>82</ns3:cad>
          </ns3:TrackPointExtension>
        </extensions>
      </trkpt>
      <trkpt lat="52.0382607914507389068603515625" lon="1.21476081199944019317626953125">
        <ele>169.600006103515625</ele>
        <time>2025-09-05T11:32:48.000Z</time>
        <extensions>
          <ns3:TrackPointExtension>
            <ns3:hr>169</ns3:hr>
            <ns3:cad>82</ns3:cad>
          </ns3:TrackPointExtension>
        </extensions>
      </trkpt>
      <trkpt lat="52.03827939927577972412109375" lon="1.21482049115002155303955078125">
        <ele>169.8000030517578125</ele>
        <time>2025-09-05T11:32:50.000Z</time>
        <extensions>
          <ns3:TrackPointExtension>
            <ns3:hr>170</ns3:hr>
            <ns3:cad>82</ns3:cad>
          </ns3:TrackPointExtension>
        </extensions>
      </trkpt>
      <trkpt lat="52.03829792328178882598876953125" lon="1.21492124162614345550537109375">
        <ele>170.8000030517578125</ele>
        <time>2025-09-05T11:32:54.000Z</time>
        <extensions>
          <ns3:TrackPointExtension>
            <ns3:hr>173</ns3:hr>
            <ns3:cad>81</ns3:cad>
          </ns3:TrackPointExtension>
        </extensions>
      </trkpt>
      <trkpt lat="52.03830915503203868865966796875" lon="1.2149851955473423004150390625">
        <ele>171</ele>
        <time>2025-09-05T11:32:55.000Z</time>
        <extensions>
          <ns3:TrackPointExtension>
            <ns3:hr>173</ns3:hr>
            <ns3:cad>81</ns3:cad>
          </ns3:TrackPointExtension>
        </extensions>
      </trkpt>
      <trkpt lat="52.03832365572452545166015625" lon="1.215046383440494537353515625">
        <ele>171.1999969482421875</ele>
        <time>2025-09-05T11:32:57.000Z</time>
        <extensions>
          <ns3:TrackPointExtension>
            <ns3:hr>173</ns3:hr>
            <ns3:cad>82</ns3:cad>
          </ns3:TrackPointExtension>
        </extensions>
      </trkpt>
      <trkpt lat="52.0383538305759429931640625" lon="1.21529943309724330902099609375">
        <ele>171.600006103515625</ele>
        <time>2025-09-05T11:33:04.000Z</time>
        <extensions>
          <ns3:TrackPointExtension>
            <ns3:hr>176</ns3:hr>
            <ns3:cad>82</ns3:cad>
          </ns3:TrackPointExtension>
        </extensions>
      </trkpt>
      <trkpt lat="52.03837461769580841064453125" lon="1.21537906117737293243408203125">
        <ele>171.8000030517578125</ele>
        <time>2025-09-05T11:33:06.000Z</time>
        <extensions>
          <ns3:TrackPointExtension>
            <ns3:hr>176</ns3:hr>
            <ns3:cad>82</ns3:cad>
          </ns3:TrackPointExtension>
        </extensions>
      </trkpt>
      <trkpt lat="52.03839146532118320465087890625" lon="1.21545718051493167877197265625">
        <ele>172</ele>
        <time>2025-09-05T11:33:08.000Z</time>
        <extensions>
          <ns3:TrackPointExtension>
            <ns3:hr>178</ns3:hr>
            <ns3:cad>82</ns3:cad>
          </ns3:TrackPointExtension>
        </extensions>
      </trkpt>
      <trkpt lat="52.03843505121767520904541015625" lon="1.21567393653094768524169921875">
        <ele>172.8000030517578125</ele>
        <time>2025-09-05T11:33:15.000Z</time>
        <extensions>
          <ns3:TrackPointExtension>
            <ns3:hr>177</ns3:hr>
            <ns3:cad>81</ns3:cad>
          </ns3:TrackPointExtension>
        </extensions>
      </trkpt>
      <trkpt lat="52.0384408347308635711669921875" lon="1.21579446829855442047119140625">
        <ele>173</ele>
        <time>2025-09-05T11:33:18.000Z</time>
        <extensions>
          <ns3:TrackPointExtension>
            <ns3:hr>176</ns3:hr>
            <ns3:cad>81</ns3:cad>
          </ns3:TrackPointExtension>
        </extensions>
      </trkpt>
      <trkpt lat="52.03844837844371795654296875" lon="1.21590611524879932403564453125">
        <ele>173.399993896484375</ele>
        <time>2025-09-05T11:33:21.000Z</time>
        <extensions>
          <ns3:TrackPointExtension>
            <ns3:hr>177</ns3:hr>
            <ns3:cad>81</ns3:cad>
          </ns3:TrackPointExtension>
        </extensions>
      </trkpt>
      <trkpt lat="52.03844963572919368743896484375" lon="1.216097138822078704833984375">
        <ele>174.1999969482421875</ele>
        <time>2025-09-05T11:33:27.000Z</time>
        <extensions>
          <ns3:TrackPointExtension>
            <ns3:hr>176</ns3:hr>
            <ns3:cad>81</ns3:cad>
          </ns3:TrackPointExtension>
        </extensions>
      </trkpt>
      <trkpt lat="52.03845416195690631866455078125" lon="1.216123290359973907470703125">
        <ele>174.1999969482421875</ele>
        <time>2025-09-05T11:33:28.000Z</time>
        <extensions>
          <ns3:TrackPointExtension>
            <ns3:hr>176</ns3:hr>
            <ns3:cad>80</ns3:cad>
          </ns3:TrackPointExtension>
        </extensions>
      </trkpt>
      <trkpt lat="52.03848517499864101409912109375" lon="1.21631540358066558837890625">
        <ele>174.600006103515625</ele>
        <time>2025-09-05T11:33:33.000Z</time>
        <extensions>
          <ns3:TrackPointExtension>
            <ns3:hr>177</ns3:hr>
            <ns3:cad>81</ns3:cad>
          </ns3:TrackPointExtension>
        </extensions>
      </trkpt>
      <trkpt lat="52.03857704065740108489990234375" lon="1.21659100055694580078125">
        <ele>175</ele>
        <time>2025-09-05T11:33:41.000Z</time>
        <extensions>
          <ns3:TrackPointExtension>
            <ns3:hr>177</ns3:hr>
            <ns3:cad>82</ns3:cad>
          </ns3:TrackPointExtension>
        </extensions>
      </trkpt>
      <trkpt lat="52.0385953970253467559814453125" lon="1.2166164815425872802734375">
        <ele>175</ele>
        <time>2025-09-05T11:33:42.000Z</time>
        <extensions>
          <ns3:TrackPointExtension>
            <ns3:hr>177</ns3:hr>
            <ns3:cad>82</ns3:cad>
          </ns3:TrackPointExtension>
        </extensions>
      </trkpt>
      <trkpt lat="52.03861869871616363525390625" lon="1.21668512932956218719482421875">
        <ele>175.1999969482421875</ele>
        <time>2025-09-05T11:33:44.000Z</time>
        <extensions>
          <ns3:TrackPointExtension>
            <ns3:hr>177</ns3:hr>
            <ns3:cad>81</ns3:cad>
          </ns3:TrackPointExtension>
        </extensions>
      </trkpt>
      <trkpt lat="52.03862163238227367401123046875" lon="1.21683918870985507965087890625">
        <ele>175.600006103515625</ele>
        <time>2025-09-05T11:33:48.000Z</time>
        <extensions>
          <ns3:TrackPointExtension>
            <ns3:hr>177</ns3:hr>
            <ns3:cad>81</ns3:cad>
          </ns3:TrackPointExtension>
        </extensions>
      </trkpt>
      <trkpt lat="52.03868064098060131072998046875" lon="1.2170736305415630340576171875">
        <ele>175.8000030517578125</ele>
        <time>2025-09-05T11:33:55.000Z</time>
        <extensions>
          <ns3:TrackPointExtension>
            <ns3:hr>177</ns3:hr>
            <ns3:cad>82</ns3:cad>
          </ns3:TrackPointExtension>
        </extensions>
      </trkpt>
      <trkpt lat="52.0387311838567256927490234375" lon="1.2172687612473964691162109375">
        <ele>176.399993896484375</ele>
        <time>2025-09-05T11:34:01.000Z</time>
        <extensions>
          <ns3:TrackPointExtension>
            <ns3:hr>177</ns3:hr>
            <ns3:cad>81</ns3:cad>
          </ns3:TrackPointExtension>
        </extensions>
      </trkpt>
      <trkpt lat="52.03874384053051471710205078125" lon="1.21730119921267032623291015625">
        <ele>176.399993896484375</ele>
        <time>2025-09-05T11:34:03.000Z</time>
        <extensions>
          <ns3:TrackPointExtension>
            <ns3:hr>177</ns3:hr>
            <ns3:cad>81</ns3:cad>
          </ns3:TrackPointExtension>
        </extensions>
      </trkpt>
      <trkpt lat="52.03878742642700672149658203125" lon="1.21757210232317447662353515625">
        <ele>176.399993896484375</ele>
        <time>2025-09-05T11:34:11.000Z</time>
        <extensions>
          <ns3:TrackPointExtension>
            <ns3:hr>176</ns3:hr>
            <ns3:cad>81</ns3:cad>
          </ns3:TrackPointExtension>
        </extensions>
      </trkpt>
      <trkpt lat="52.03881391324102878570556640625" lon="1.2178115732967853546142578125">
        <ele>176.399993896484375</ele>
        <time>2025-09-05T11:34:17.000Z</time>
        <extensions>
          <ns3:TrackPointExtension>
            <ns3:hr>179</ns3:hr>
            <ns3:cad>81</ns3:cad>
          </ns3:TrackPointExtension>
        </extensions>
      </trkpt>
      <trkpt lat="52.03882229514420032501220703125" lon="1.2179039418697357177734375">
        <ele>176.399993896484375</ele>
        <time>2025-09-05T11:34:19.000Z</time>
        <extensions>
          <ns3:TrackPointExtension>
            <ns3:hr>179</ns3:hr>
            <ns3:cad>81</ns3:cad>
          </ns3:TrackPointExtension>
        </extensions>
      </trkpt>
      <trkpt lat="52.03884643502533435821533203125" lon="1.21818297542631626129150390625">
        <ele>176.1999969482421875</ele>
        <time>2025-09-05T11:34:25.000Z</time>
        <extensions>
          <ns3:TrackPointExtension>
            <ns3:hr>178</ns3:hr>
            <ns3:cad>81</ns3:cad>
          </ns3:TrackPointExtension>
        </extensions>
      </trkpt>
      <trkpt lat="52.03886973671615123748779296875" lon="1.2184725701808929443359375">
        <ele>175.8000030517578125</ele>
        <time>2025-09-05T11:34:33.000Z</time>
        <extensions>
          <ns3:TrackPointExtension>
            <ns3:hr>177</ns3:hr>
            <ns3:cad>81</ns3:cad>
          </ns3:TrackPointExtension>
        </extensions>
      </trkpt>
      <trkpt lat="52.0389090478420257568359375" lon="1.2187627516686916351318359375">
        <ele>175.600006103515625</ele>
        <time>2025-09-05T11:34:41.000Z</time>
        <extensions>
          <ns3:TrackPointExtension>
            <ns3:hr>177</ns3:hr>
            <ns3:cad>81</ns3:cad>
          </ns3:TrackPointExtension>
        </extensions>
      </trkpt>
      <trkpt lat="52.03891575336456298828125" lon="1.2187999673187732696533203125">
        <ele>175.600006103515625</ele>
        <time>2025-09-05T11:34:42.000Z</time>
        <extensions>
          <ns3:TrackPointExtension>
            <ns3:hr>177</ns3:hr>
            <ns3:cad>82</ns3:cad>
          </ns3:TrackPointExtension>
        </extensions>
      </trkpt>
      <trkpt lat="52.03896361403167247772216796875" lon="1.219104230403900146484375">
        <ele>175.600006103515625</ele>
        <time>2025-09-05T11:34:50.000Z</time>
        <extensions>
          <ns3:TrackPointExtension>
            <ns3:hr>175</ns3:hr>
            <ns3:cad>81</ns3:cad>
          </ns3:TrackPointExtension>
        </extensions>
      </trkpt>
      <trkpt lat="52.03895799815654754638671875" lon="1.21936666779220104217529296875">
        <ele>176</ele>
        <time>2025-09-05T11:34:57.000Z</time>
        <extensions>
          <ns3:TrackPointExtension>
            <ns3:hr>176</ns3:hr>
            <ns3:cad>81</ns3:cad>
          </ns3:TrackPointExtension>
        </extensions>
      </trkpt>
      <trkpt lat="52.03896864317357540130615234375" lon="1.2196337990462779998779296875">
        <ele>176</ele>
        <time>2025-09-05T11:35:05.000Z</time>
        <extensions>
          <ns3:TrackPointExtension>
            <ns3:hr>176</ns3:hr>
            <ns3:cad>81</ns3:cad>
          </ns3:TrackPointExtension>
        </extensions>
      </trkpt>
      <trkpt lat="52.03900200314819812774658203125" lon="1.21985256671905517578125">
        <ele>175.600006103515625</ele>
        <time>2025-09-05T11:35:13.000Z</time>
        <extensions>
          <ns3:TrackPointExtension>
            <ns3:hr>176</ns3:hr>
            <ns3:cad>81</ns3:cad>
          </ns3:TrackPointExtension>
        </extensions>
      </trkpt>
      <trkpt lat="52.03903636895120143890380859375" lon="1.22006379067897796630859375">
        <ele>175.399993896484375</ele>
        <time>2025-09-05T11:35:22.000Z</time>
        <extensions>
          <ns3:TrackPointExtension>
            <ns3:hr>177</ns3:hr>
            <ns3:cad>80</ns3:cad>
          </ns3:TrackPointExtension>
        </extensions>
      </trkpt>
      <trkpt lat="52.03903444111347198486328125" lon="1.220105029642581939697265625">
        <ele>175.399993896484375</ele>
        <time>2025-09-05T11:35:24.000Z</time>
        <extensions>
          <ns3:TrackPointExtension>
            <ns3:hr>174</ns3:hr>
            <ns3:cad>79</ns3:cad>
          </ns3:TrackPointExtension>
        </extensions>
      </trkpt>
      <trkpt lat="52.03906528651714324951171875" lon="1.220218352973461151123046875">
        <ele>175.1999969482421875</ele>
        <time>2025-09-05T11:35:26.000Z</time>
        <extensions>
          <ns3:TrackPointExtension>
            <ns3:hr>175</ns3:hr>
            <ns3:cad>80</ns3:cad>
          </ns3:TrackPointExtension>
        </extensions>
      </trkpt>
      <trkpt lat="52.0390869118273258209228515625" lon="1.22029890306293964385986328125">
        <ele>175.1999969482421875</ele>
        <time>2025-09-05T11:35:28.000Z</time>
        <extensions>
          <ns3:TrackPointExtension>
            <ns3:hr>176</ns3:hr>
            <ns3:cad>80</ns3:cad>
          </ns3:TrackPointExtension>
        </extensions>
      </trkpt>
      <trkpt lat="52.03915103338658809661865234375" lon="1.22057500295341014862060546875">
        <ele>175</ele>
        <time>2025-09-05T11:35:35.000Z</time>
        <extensions>
          <ns3:TrackPointExtension>
            <ns3:hr>177</ns3:hr>
            <ns3:cad>81</ns3:cad>
          </ns3:TrackPointExtension>
        </extensions>
      </trkpt>
      <trkpt lat="52.03918724320828914642333984375" lon="1.22083249501883983612060546875">
        <ele>175</ele>
        <time>2025-09-05T11:35:41.000Z</time>
        <extensions>
          <ns3:TrackPointExtension>
            <ns3:hr>177</ns3:hr>
            <ns3:cad>81</ns3:cad>
          </ns3:TrackPointExtension>
        </extensions>
      </trkpt>
      <trkpt lat="52.03922295011579990386962890625" lon="1.2210141308605670928955078125">
        <ele>174.600006103515625</ele>
        <time>2025-09-05T11:35:47.000Z</time>
        <extensions>
          <ns3:TrackPointExtension>
            <ns3:hr>174</ns3:hr>
            <ns3:cad>80</ns3:cad>
          </ns3:TrackPointExtension>
        </extensions>
      </trkpt>
      <trkpt lat="52.03925128094851970672607421875" lon="1.2211145460605621337890625">
        <ele>174.600006103515625</ele>
        <time>2025-09-05T11:35:50.000Z</time>
        <extensions>
          <ns3:TrackPointExtension>
            <ns3:hr>174</ns3:hr>
            <ns3:cad>80</ns3:cad>
          </ns3:TrackPointExtension>
        </extensions>
      </trkpt>
      <trkpt lat="52.03929134644567966461181640625" lon="1.22139743529260158538818359375">
        <ele>174.399993896484375</ele>
        <time>2025-09-05T11:35:56.000Z</time>
        <extensions>
          <ns3:TrackPointExtension>
            <ns3:hr>174</ns3:hr>
            <ns3:cad>79</ns3:cad>
          </ns3:TrackPointExtension>
        </extensions>
      </trkpt>
      <trkpt lat="52.03930961899459362030029296875" lon="1.2216437794268131256103515625">
        <ele>174.1999969482421875</ele>
        <time>2025-09-05T11:36:03.000Z</time>
        <extensions>
          <ns3:TrackPointExtension>
            <ns3:hr>173</ns3:hr>
            <ns3:cad>80</ns3:cad>
          </ns3:TrackPointExtension>
        </extensions>
      </trkpt>
      <trkpt lat="52.03930844552814960479736328125" lon="1.2218221463263034820556640625">
        <ele>174.1999969482421875</ele>
        <time>2025-09-05T11:36:08.000Z</time>
        <extensions>
          <ns3:TrackPointExtension>
            <ns3:hr>173</ns3:hr>
            <ns3:cad>80</ns3:cad>
          </ns3:TrackPointExtension>
        </extensions>
      </trkpt>
      <trkpt lat="52.03931875526905059814453125" lon="1.22194762341678142547607421875">
        <ele>174</ele>
        <time>2025-09-05T11:36:12.000Z</time>
        <extensions>
          <ns3:TrackPointExtension>
            <ns3:hr>175</ns3:hr>
            <ns3:cad>80</ns3:cad>
          </ns3:TrackPointExtension>
        </extensions>
      </trkpt>
      <trkpt lat="52.03936728648841381072998046875" lon="1.2221661396324634552001953125">
        <ele>173.600006103515625</ele>
        <time>2025-09-05T11:36:19.000Z</time>
        <extensions>
          <ns3:TrackPointExtension>
            <ns3:hr>174</ns3:hr>
            <ns3:cad>81</ns3:cad>
          </ns3:TrackPointExtension>
        </extensions>
      </trkpt>
      <trkpt lat="52.03941741026937961578369140625" lon="1.22245841659605503082275390625">
        <ele>173.1999969482421875</ele>
        <time>2025-09-05T11:36:27.000Z</time>
        <extensions>
          <ns3:TrackPointExtension>
            <ns3:hr>172</ns3:hr>
            <ns3:cad>78</ns3:cad>
          </ns3:TrackPointExtension>
        </extensions>
      </trkpt>
      <trkpt lat="52.03942176885902881622314453125" lon="1.2225835584104061126708984375">
        <ele>173.1999969482421875</ele>
        <time>2025-09-05T11:36:30.000Z</time>
        <extensions>
          <ns3:TrackPointExtension>
            <ns3:hr>172</ns3:hr>
            <ns3:cad>78</ns3:cad>
          </ns3:TrackPointExtension>
        </extensions>
      </trkpt>
      <trkpt lat="52.039422355592250823974609375" lon="1.2227743305265903472900390625">
        <ele>172.8000030517578125</ele>
        <time>2025-09-05T11:36:35.000Z</time>
        <extensions>
          <ns3:TrackPointExtension>
            <ns3:hr>173</ns3:hr>
            <ns3:cad>79</ns3:cad>
          </ns3:TrackPointExtension>
        </extensions>
      </trkpt>
      <trkpt lat="52.03945286571979522705078125" lon="1.22298580594360828399658203125">
        <ele>172.1999969482421875</ele>
        <time>2025-09-05T11:36:41.000Z</time>
        <extensions>
          <ns3:TrackPointExtension>
            <ns3:hr>172</ns3:hr>
            <ns3:cad>81</ns3:cad>
          </ns3:TrackPointExtension>
        </extensions>
      </trkpt>
      <trkpt lat="52.03947742469608783721923828125" lon="1.2231743149459362030029296875">
        <ele>171.600006103515625</ele>
        <time>2025-09-05T11:36:48.000Z</time>
        <extensions>
          <ns3:TrackPointExtension>
            <ns3:hr>172</ns3:hr>
            <ns3:cad>81</ns3:cad>
          </ns3:TrackPointExtension>
        </extensions>
      </trkpt>
      <trkpt lat="52.03949184156954288482666015625" lon="1.2231870554387569427490234375">
        <ele>171.399993896484375</ele>
        <time>2025-09-05T11:36:50.000Z</time>
        <extensions>
          <ns3:TrackPointExtension>
            <ns3:hr>174</ns3:hr>
            <ns3:cad>81</ns3:cad>
          </ns3:TrackPointExtension>
        </extensions>
      </trkpt>
      <trkpt lat="52.03950516879558563232421875" lon="1.2231920845806598663330078125">
        <ele>171.399993896484375</ele>
        <time>2025-09-05T11:36:52.000Z</time>
        <extensions>
          <ns3:TrackPointExtension>
            <ns3:hr>171</ns3:hr>
            <ns3:cad>0</ns3:cad>
          </ns3:TrackPointExtension>
        </extensions>
      </trkpt>
      <trkpt lat="52.03952251933515071868896484375" lon="1.223184205591678619384765625">
        <ele>171.1999969482421875</ele>
        <time>2025-09-05T11:36:54.000Z</time>
        <extensions>
          <ns3:TrackPointExtension>
            <ns3:hr>173</ns3:hr>
            <ns3:cad>57</ns3:cad>
          </ns3:TrackPointExtension>
        </extensions>
      </trkpt>
      <trkpt lat="52.03956962563097476959228515625" lon="1.22316266410052776336669921875">
        <ele>171.1999969482421875</ele>
        <time>2025-09-05T11:37:00.000Z</time>
        <extensions>
          <ns3:TrackPointExtension>
            <ns3:hr>172</ns3:hr>
            <ns3:cad>51</ns3:cad>
          </ns3:TrackPointExtension>
        </extensions>
      </trkpt>
      <trkpt lat="52.03957482241094112396240234375" lon="1.22316735796630382537841796875">
        <ele>171</ele>
        <time>2025-09-05T11:37:01.000Z</time>
        <extensions>
          <ns3:TrackPointExtension>
            <ns3:hr>170</ns3:hr>
            <ns3:cad>0</ns3:cad>
          </ns3:TrackPointExtension>
        </extensions>
      </trkpt>
      <trkpt lat="52.03959502279758453369140625" lon="1.22316249646246433258056640625">
        <ele>170.8000030517578125</ele>
        <time>2025-09-05T11:37:06.000Z</time>
        <extensions>
          <ns3:TrackPointExtension>
            <ns3:hr>167</ns3:hr>
            <ns3:cad>0</ns3:cad>
          </ns3:TrackPointExtension>
        </extensions>
      </trkpt>
      <trkpt lat="52.03959225676953792572021484375" lon="1.2231521867215633392333984375">
        <ele>170.399993896484375</ele>
        <time>2025-09-05T11:37:10.000Z</time>
        <extensions>
          <ns3:TrackPointExtension>
            <ns3:hr>166</ns3:hr>
            <ns3:cad>0</ns3:cad>
          </ns3:TrackPointExtension>
        </extensions>
      </trkpt>
      <trkpt lat="52.03959167003631591796875" lon="1.22315101325511932373046875">
        <ele>170</ele>
        <time>2025-09-05T11:37:12.000Z</time>
        <extensions>
          <ns3:TrackPointExtension>
            <ns3:hr>164</ns3:hr>
            <ns3:cad>0</ns3:cad>
          </ns3:TrackPointExtension>
        </extensions>
      </trkpt>
      <trkpt lat="52.03959167003631591796875" lon="1.22314925305545330047607421875">
        <ele>169.1999969482421875</ele>
        <time>2025-09-05T11:37:16.000Z</time>
        <extensions>
          <ns3:TrackPointExtension>
            <ns3:hr>160</ns3:hr>
            <ns3:cad>0</ns3:cad>
          </ns3:TrackPointExtension>
        </extensions>
      </trkpt>
      <trkpt lat="52.03959167003631591796875" lon="1.22314841486513614654541015625">
        <ele>169</ele>
        <time>2025-09-05T11:37:17.000Z</time>
        <extensions>
          <ns3:TrackPointExtension>
            <ns3:hr>161</ns3:hr>
            <ns3:cad>0</ns3:cad>
          </ns3:TrackPointExtension>
        </extensions>
      </trkpt>
      <trkpt lat="52.0395921729505062103271484375" lon="1.2231478281319141387939453125">
        <ele>168.399993896484375</ele>
        <time>2025-09-05T11:37:21.000Z</time>
        <extensions>
          <ns3:TrackPointExtension>
            <ns3:hr>158</ns3:hr>
            <ns3:cad>0</ns3:cad>
          </ns3:TrackPointExtension>
        </extensions>
      </trkpt>
      <trkpt lat="52.03959234058856964111328125" lon="1.223147995769977569580078125">
        <ele>168</ele>
        <time>2025-09-05T11:37:23.000Z</time>
        <extensions>
          <ns3:TrackPointExtension>
            <ns3:hr>159</ns3:hr>
            <ns3:cad>0</ns3:cad>
          </ns3:TrackPointExtension>
        </extensions>
      </trkpt>
      <trkpt lat="52.03959577716886997222900390625" lon="1.2231474928557872772216796875">
        <ele>167.600006103515625</ele>
        <time>2025-09-05T11:37:26.000Z</time>
        <extensions>
          <ns3:TrackPointExtension>
            <ns3:hr>156</ns3:hr>
            <ns3:cad>0</ns3:cad>
          </ns3:TrackPointExtension>
        </extensions>
      </trkpt>
      <trkpt lat="52.03959510661661624908447265625" lon="1.2231143005192279815673828125">
        <ele>167</ele>
        <time>2025-09-05T11:37:33.000Z</time>
        <extensions>
          <ns3:TrackPointExtension>
            <ns3:hr>158</ns3:hr>
            <ns3:cad>45</ns3:cad>
          </ns3:TrackPointExtension>
        </extensions>
      </trkpt>
      <trkpt lat="52.03956275247037410736083984375" lon="1.2231092713773250579833984375">
        <ele>167</ele>
        <time>2025-09-05T11:37:37.000Z</time>
        <extensions>
          <ns3:TrackPointExtension>
            <ns3:hr>155</ns3:hr>
            <ns3:cad>46</ns3:cad>
          </ns3:TrackPointExtension>
        </extensions>
      </trkpt>
      <trkpt lat="52.03953676857054233551025390625" lon="1.22312410734593868255615234375">
        <ele>167</ele>
        <time>2025-09-05T11:37:41.000Z</time>
        <extensions>
          <ns3:TrackPointExtension>
            <ns3:hr>152</ns3:hr>
            <ns3:cad>51</ns3:cad>
          </ns3:TrackPointExtension>
        </extensions>
      </trkpt>
      <trkpt lat="52.03953593038022518157958984375" lon="1.2231414578855037689208984375">
        <ele>167</ele>
        <time>2025-09-05T11:37:43.000Z</time>
        <extensions>
          <ns3:TrackPointExtension>
            <ns3:hr>153</ns3:hr>
            <ns3:cad>60</ns3:cad>
          </ns3:TrackPointExtension>
        </extensions>
      </trkpt>
      <trkpt lat="52.03954095952212810516357421875" lon="1.22319133020937442779541015625">
        <ele>167</ele>
        <time>2025-09-05T11:37:44.000Z</time>
        <extensions>
          <ns3:TrackPointExtension>
            <ns3:hr>152</ns3:hr>
            <ns3:cad>0</ns3:cad>
          </ns3:TrackPointExtension>
        </extensions>
      </trkpt>
      <trkpt lat="52.0395489223301410675048828125" lon="1.22329258359968662261962890625">
        <ele>166.8000030517578125</ele>
        <time>2025-09-05T11:37:47.000Z</time>
        <extensions>
          <ns3:TrackPointExtension>
            <ns3:hr>158</ns3:hr>
            <ns3:cad>78</ns3:cad>
          </ns3:TrackPointExtension>
        </extensions>
      </trkpt>
      <trkpt lat="52.03955210745334625244140625" lon="1.22332912869751453399658203125">
        <ele>166.8000030517578125</ele>
        <time>2025-09-05T11:37:48.000Z</time>
        <extensions>
          <ns3:TrackPointExtension>
            <ns3:hr>157</ns3:hr>
            <ns3:cad>78</ns3:cad>
          </ns3:TrackPointExtension>
        </extensions>
      </trkpt>
      <trkpt lat="52.03956308774650096893310546875" lon="1.2233999557793140411376953125">
        <ele>166.600006103515625</ele>
        <time>2025-09-05T11:37:50.000Z</time>
        <extensions>
          <ns3:TrackPointExtension>
            <ns3:hr>160</ns3:hr>
            <ns3:cad>79</ns3:cad>
          </ns3:TrackPointExtension>
        </extensions>
      </trkpt>
      <trkpt lat="52.0395636744797229766845703125" lon="1.22343557886779308319091796875">
        <ele>166.399993896484375</ele>
        <time>2025-09-05T11:37:51.000Z</time>
        <extensions>
          <ns3:TrackPointExtension>
            <ns3:hr>163</ns3:hr>
            <ns3:cad>80</ns3:cad>
          </ns3:TrackPointExtension>
        </extensions>
      </trkpt>
      <trkpt lat="52.03956543467938899993896484375" lon="1.22355527244508266448974609375">
        <ele>166.1999969482421875</ele>
        <time>2025-09-05T11:37:54.000Z</time>
        <extensions>
          <ns3:TrackPointExtension>
            <ns3:hr>168</ns3:hr>
            <ns3:cad>81</ns3:cad>
          </ns3:TrackPointExtension>
        </extensions>
      </trkpt>
      <trkpt lat="52.03956685960292816162109375" lon="1.223592571914196014404296875">
        <ele>166.1999969482421875</ele>
        <time>2025-09-05T11:37:55.000Z</time>
        <extensions>
          <ns3:TrackPointExtension>
            <ns3:hr>169</ns3:hr>
            <ns3:cad>81</ns3:cad>
          </ns3:TrackPointExtension>
        </extensions>
      </trkpt>
      <trkpt lat="52.039566524326801300048828125" lon="1.22367077507078647613525390625">
        <ele>166</ele>
        <time>2025-09-05T11:37:57.000Z</time>
        <extensions>
          <ns3:TrackPointExtension>
            <ns3:hr>172</ns3:hr>
            <ns3:cad>81</ns3:cad>
          </ns3:TrackPointExtension>
        </extensions>
      </trkpt>
      <trkpt lat="52.0395693741738796234130859375" lon="1.22379365377128124237060546875">
        <ele>165.8000030517578125</ele>
        <time>2025-09-05T11:38:00.000Z</time>
        <extensions>
          <ns3:TrackPointExtension>
            <ns3:hr>172</ns3:hr>
            <ns3:cad>82</ns3:cad>
          </ns3:TrackPointExtension>
        </extensions>
      </trkpt>
      <trkpt lat="52.03957096673548221588134765625" lon="1.223935224115848541259765625">
        <ele>165.600006103515625</ele>
        <time>2025-09-05T11:38:03.000Z</time>
        <extensions>
          <ns3:TrackPointExtension>
            <ns3:hr>174</ns3:hr>
            <ns3:cad>82</ns3:cad>
          </ns3:TrackPointExtension>
        </extensions>
      </trkpt>
      <trkpt lat="52.0395863056182861328125" lon="1.22422180138528347015380859375">
        <ele>165</ele>
        <time>2025-09-05T11:38:10.000Z</time>
        <extensions>
          <ns3:TrackPointExtension>
            <ns3:hr>174</ns3:hr>
            <ns3:cad>81</ns3:cad>
          </ns3:TrackPointExtension>
        </extensions>
      </trkpt>
      <trkpt lat="52.0395945198833942413330078125" lon="1.22445934452116489410400390625">
        <ele>164.8000030517578125</ele>
        <time>2025-09-05T11:38:16.000Z</time>
        <extensions>
          <ns3:TrackPointExtension>
            <ns3:hr>174</ns3:hr>
            <ns3:cad>80</ns3:cad>
          </ns3:TrackPointExtension>
        </extensions>
      </trkpt>
      <trkpt lat="52.0395958609879016876220703125" lon="1.224497817456722259521484375">
        <ele>164.600006103515625</ele>
        <time>2025-09-05T11:38:17.000Z</time>
        <extensions>
          <ns3:TrackPointExtension>
            <ns3:hr>174</ns3:hr>
            <ns3:cad>80</ns3:cad>
          </ns3:TrackPointExtension>
        </extensions>
      </trkpt>
      <trkpt lat="52.03962762840092182159423828125" lon="1.22482462786138057708740234375">
        <ele>164</ele>
        <time>2025-09-05T11:38:25.000Z</time>
        <extensions>
          <ns3:TrackPointExtension>
            <ns3:hr>175</ns3:hr>
            <ns3:cad>81</ns3:cad>
          </ns3:TrackPointExtension>
        </extensions>
      </trkpt>
      <trkpt lat="52.039637602865695953369140625" lon="1.22500701807439327239990234375">
        <ele>163.8000030517578125</ele>
        <time>2025-09-05T11:38:29.000Z</time>
        <extensions>
          <ns3:TrackPointExtension>
            <ns3:hr>175</ns3:hr>
            <ns3:cad>81</ns3:cad>
          </ns3:TrackPointExtension>
        </extensions>
      </trkpt>
      <trkpt lat="52.0396458171308040618896484375" lon="1.22509938664734363555908203125">
        <ele>163.600006103515625</ele>
        <time>2025-09-05T11:38:31.000Z</time>
        <extensions>
          <ns3:TrackPointExtension>
            <ns3:hr>175</ns3:hr>
            <ns3:cad>81</ns3:cad>
          </ns3:TrackPointExtension>
        </extensions>
      </trkpt>
      <trkpt lat="52.03965679742395877838134765625" lon="1.2253063358366489410400390625">
        <ele>162.600006103515625</ele>
        <time>2025-09-05T11:38:37.000Z</time>
        <extensions>
          <ns3:TrackPointExtension>
            <ns3:hr>178</ns3:hr>
            <ns3:cad>82</ns3:cad>
          </ns3:TrackPointExtension>
        </extensions>
      </trkpt>
      <trkpt lat="52.03965696506202220916748046875" lon="1.22533944435417652130126953125">
        <ele>162.600006103515625</ele>
        <time>2025-09-05T11:38:38.000Z</time>
        <extensions>
          <ns3:TrackPointExtension>
            <ns3:hr>177</ns3:hr>
            <ns3:cad>82</ns3:cad>
          </ns3:TrackPointExtension>
        </extensions>
      </trkpt>
      <trkpt lat="52.039679847657680511474609375" lon="1.2255078367888927459716796875">
        <ele>162.399993896484375</ele>
        <time>2025-09-05T11:38:45.000Z</time>
        <extensions>
          <ns3:TrackPointExtension>
            <ns3:hr>176</ns3:hr>
            <ns3:cad>82</ns3:cad>
          </ns3:TrackPointExtension>
        </extensions>
      </trkpt>
      <trkpt lat="52.039732821285724639892578125" lon="1.2255950085818767547607421875">
        <ele>162.399993896484375</ele>
        <time>2025-09-05T11:38:51.000Z</time>
        <extensions>
          <ns3:TrackPointExtension>
            <ns3:hr>174</ns3:hr>
            <ns3:cad>61</ns3:cad>
          </ns3:TrackPointExtension>
        </extensions>
      </trkpt>
      <trkpt lat="52.03974581323564052581787109375" lon="1.2256944179534912109375">
        <ele>162.399993896484375</ele>
        <time>2025-09-05T11:38:56.000Z</time>
        <extensions>
          <ns3:TrackPointExtension>
            <ns3:hr>171</ns3:hr>
            <ns3:cad>64</ns3:cad>
          </ns3:TrackPointExtension>
        </extensions>
      </trkpt>
      <trkpt lat="52.03974665142595767974853515625" lon="1.2257706932723522186279296875">
        <ele>162.399993896484375</ele>
        <time>2025-09-05T11:38:58.000Z</time>
        <extensions>
          <ns3:TrackPointExtension>
            <ns3:hr>168</ns3:hr>
            <ns3:cad>64</ns3:cad>
          </ns3:TrackPointExtension>
        </extensions>
      </trkpt>
      <trkpt lat="52.03974883072078227996826171875" lon="1.225790642201900482177734375">
        <ele>162.399993896484375</ele>
        <time>2025-09-05T11:38:59.000Z</time>
        <extensions>
          <ns3:TrackPointExtension>
            <ns3:hr>167</ns3:hr>
            <ns3:cad>64</ns3:cad>
          </ns3:TrackPointExtension>
        </extensions>
      </trkpt>
      <trkpt lat="52.03980700112879276275634765625" lon="1.22597672045230865478515625">
        <ele>162.600006103515625</ele>
        <time>2025-09-05T11:39:07.000Z</time>
        <extensions>
          <ns3:TrackPointExtension>
            <ns3:hr>164</ns3:hr>
            <ns3:cad>62</ns3:cad>
          </ns3:TrackPointExtension>
        </extensions>
      </trkpt>
      <trkpt lat="52.03982837498188018798828125" lon="1.2261517345905303955078125">
        <ele>162.600006103515625</ele>
        <time>2025-09-05T11:39:14.000Z</time>
        <extensions>
          <ns3:TrackPointExtension>
            <ns3:hr>161</ns3:hr>
            <ns3:cad>62</ns3:cad>
          </ns3:TrackPointExtension>
        </extensions>
      </trkpt>
      <trkpt lat="52.0398184843361377716064453125" lon="1.226415932178497314453125">
        <ele>162.1999969482421875</ele>
        <time>2025-09-05T11:39:24.000Z</time>
        <extensions>
          <ns3:TrackPointExtension>
            <ns3:hr>164</ns3:hr>
            <ns3:cad>61</ns3:cad>
          </ns3:TrackPointExtension>
        </extensions>
      </trkpt>
      <trkpt lat="52.03982024453580379486083984375" lon="1.2265723384916782379150390625">
        <ele>162.399993896484375</ele>
        <time>2025-09-05T11:39:31.000Z</time>
        <extensions>
          <ns3:TrackPointExtension>
            <ns3:hr>160</ns3:hr>
            <ns3:cad>62</ns3:cad>
          </ns3:TrackPointExtension>
        </extensions>
      </trkpt>
      <trkpt lat="52.0398211665451526641845703125" lon="1.2266236357390880584716796875">
        <ele>162.399993896484375</ele>
        <time>2025-09-05T11:39:33.000Z</time>
        <extensions>
          <ns3:TrackPointExtension>
            <ns3:hr>162</ns3:hr>
            <ns3:cad>62</ns3:cad>
          </ns3:TrackPointExtension>
        </extensions>
      </trkpt>
      <trkpt lat="52.0398218370974063873291015625" lon="1.22675028629601001739501953125">
        <ele>162.600006103515625</ele>
        <time>2025-09-05T11:39:37.000Z</time>
        <extensions>
          <ns3:TrackPointExtension>
            <ns3:hr>159</ns3:hr>
            <ns3:cad>61</ns3:cad>
          </ns3:TrackPointExtension>
        </extensions>
      </trkpt>
      <trkpt lat="52.03981286846101284027099609375" lon="1.2268539704382419586181640625">
        <ele>162.8000030517578125</ele>
        <time>2025-09-05T11:39:40.000Z</time>
        <extensions>
          <ns3:TrackPointExtension>
            <ns3:hr>159</ns3:hr>
            <ns3:cad>61</ns3:cad>
          </ns3:TrackPointExtension>
        </extensions>
      </trkpt>
      <trkpt lat="52.03977498225867748260498046875" lon="1.22714641503989696502685546875">
        <ele>162.8000030517578125</ele>
        <time>2025-09-05T11:39:47.000Z</time>
        <extensions>
          <ns3:TrackPointExtension>
            <ns3:hr>158</ns3:hr>
            <ns3:cad>79</ns3:cad>
          </ns3:TrackPointExtension>
        </extensions>
      </trkpt>
      <trkpt lat="52.0397420413792133331298828125" lon="1.2273585610091686248779296875">
        <ele>163</ele>
        <time>2025-09-05T11:39:52.000Z</time>
        <extensions>
          <ns3:TrackPointExtension>
            <ns3:hr>161</ns3:hr>
            <ns3:cad>79</ns3:cad>
          </ns3:TrackPointExtension>
        </extensions>
      </trkpt>
      <trkpt lat="52.039736174046993255615234375" lon="1.2273806892335414886474609375">
        <ele>163</ele>
        <time>2025-09-05T11:39:54.000Z</time>
        <extensions>
          <ns3:TrackPointExtension>
            <ns3:hr>162</ns3:hr>
            <ns3:cad>77</ns3:cad>
          </ns3:TrackPointExtension>
        </extensions>
      </trkpt>
      <trkpt lat="52.03973223455250263214111328125" lon="1.22739502228796482086181640625">
        <ele>163.1999969482421875</ele>
        <time>2025-09-05T11:39:55.000Z</time>
        <extensions>
          <ns3:TrackPointExtension>
            <ns3:hr>165</ns3:hr>
            <ns3:cad>77</ns3:cad>
          </ns3:TrackPointExtension>
        </extensions>
      </trkpt>
      <trkpt lat="52.039725780487060546875" lon="1.22740407474339008331298828125">
        <ele>163.1999969482421875</ele>
        <time>2025-09-05T11:39:57.000Z</time>
        <extensions>
          <ns3:TrackPointExtension>
            <ns3:hr>168</ns3:hr>
            <ns3:cad>0</ns3:cad>
          </ns3:TrackPointExtension>
        </extensions>
      </trkpt>
      <trkpt lat="52.03972645103931427001953125" lon="1.22740239836275577545166015625">
        <ele>163.399993896484375</ele>
        <time>2025-09-05T11:39:59.000Z</time>
        <extensions>
          <ns3:TrackPointExtension>
            <ns3:hr>170</ns3:hr>
            <ns3:cad>0</ns3:cad>
          </ns3:TrackPointExtension>
        </extensions>
      </trkpt>
      <trkpt lat="52.0397339947521686553955078125" lon="1.22749627567827701568603515625">
        <ele>163.600006103515625</ele>
        <time>2025-09-05T11:40:03.000Z</time>
        <extensions>
          <ns3:TrackPointExtension>
            <ns3:hr>169</ns3:hr>
            <ns3:cad>0</ns3:cad>
          </ns3:TrackPointExtension>
        </extensions>
      </trkpt>
      <trkpt lat="52.03973089344799518585205078125" lon="1.22759803198277950286865234375">
        <ele>163.600006103515625</ele>
        <time>2025-09-05T11:40:06.000Z</time>
        <extensions>
          <ns3:TrackPointExtension>
            <ns3:hr>166</ns3:hr>
            <ns3:cad>80</ns3:cad>
          </ns3:TrackPointExtension>
        </extensions>
      </trkpt>
      <trkpt lat="52.0397138781845569610595703125" lon="1.22777120210230350494384765625">
        <ele>163.600006103515625</ele>
        <time>2025-09-05T11:40:11.000Z</time>
        <extensions>
          <ns3:TrackPointExtension>
            <ns3:hr>162</ns3:hr>
            <ns3:cad>82</ns3:cad>
          </ns3:TrackPointExtension>
        </extensions>
      </trkpt>
      <trkpt lat="52.03971974551677703857421875" lon="1.2278468906879425048828125">
        <ele>163.600006103515625</ele>
        <time>2025-09-05T11:40:13.000Z</time>
        <extensions>
          <ns3:TrackPointExtension>
            <ns3:hr>165</ns3:hr>
            <ns3:cad>82</ns3:cad>
          </ns3:TrackPointExtension>
        </extensions>
      </trkpt>
      <trkpt lat="52.03972083516418933868408203125" lon="1.22794009745121002197265625">
        <ele>163.600006103515625</ele>
        <time>2025-09-05T11:40:16.000Z</time>
        <extensions>
          <ns3:TrackPointExtension>
            <ns3:hr>168</ns3:hr>
            <ns3:cad>82</ns3:cad>
          </ns3:TrackPointExtension>
        </extensions>
      </trkpt>
      <trkpt lat="52.03972351737320423126220703125" lon="1.228075213730335235595703125">
        <ele>163.600006103515625</ele>
        <time>2025-09-05T11:40:20.000Z</time>
        <extensions>
          <ns3:TrackPointExtension>
            <ns3:hr>171</ns3:hr>
            <ns3:cad>82</ns3:cad>
          </ns3:TrackPointExtension>
        </extensions>
      </trkpt>
      <trkpt lat="52.03973726369440555572509765625" lon="1.22823371551930904388427734375">
        <ele>163.600006103515625</ele>
        <time>2025-09-05T11:40:24.000Z</time>
        <extensions>
          <ns3:TrackPointExtension>
            <ns3:hr>172</ns3:hr>
            <ns3:cad>82</ns3:cad>
          </ns3:TrackPointExtension>
        </extensions>
      </trkpt>
      <trkpt lat="52.0397443883121013641357421875" lon="1.22833974659442901611328125">
        <ele>164</ele>
        <time>2025-09-05T11:40:27.000Z</time>
        <extensions>
          <ns3:TrackPointExtension>
            <ns3:hr>173</ns3:hr>
            <ns3:cad>81</ns3:cad>
          </ns3:TrackPointExtension>
        </extensions>
      </trkpt>
      <trkpt lat="52.03972636722028255462646484375" lon="1.228666640818119049072265625">
        <ele>164.1999969482421875</ele>
        <time>2025-09-05T11:40:35.000Z</time>
        <extensions>
          <ns3:TrackPointExtension>
            <ns3:hr>172</ns3:hr>
            <ns3:cad>81</ns3:cad>
          </ns3:TrackPointExtension>
        </extensions>
      </trkpt>
      <trkpt lat="52.03972502611577510833740234375" lon="1.22870746068656444549560546875">
        <ele>164.1999969482421875</ele>
        <time>2025-09-05T11:40:36.000Z</time>
        <extensions>
          <ns3:TrackPointExtension>
            <ns3:hr>173</ns3:hr>
            <ns3:cad>81</ns3:cad>
          </ns3:TrackPointExtension>
        </extensions>
      </trkpt>
      <trkpt lat="52.03970910049974918365478515625" lon="1.22897149063646793365478515625">
        <ele>164.1999969482421875</ele>
        <time>2025-09-05T11:40:44.000Z</time>
        <extensions>
          <ns3:TrackPointExtension>
            <ns3:hr>170</ns3:hr>
            <ns3:cad>80</ns3:cad>
          </ns3:TrackPointExtension>
        </extensions>
      </trkpt>
      <trkpt lat="52.0396726392209529876708984375" lon="1.22926837764680385589599609375">
        <ele>163.399993896484375</ele>
        <time>2025-09-05T11:40:51.000Z</time>
        <extensions>
          <ns3:TrackPointExtension>
            <ns3:hr>171</ns3:hr>
            <ns3:cad>79</ns3:cad>
          </ns3:TrackPointExtension>
        </extensions>
      </trkpt>
      <trkpt lat="52.03966534696519374847412109375" lon="1.22931540012359619140625">
        <ele>163.399993896484375</ele>
        <time>2025-09-05T11:40:52.000Z</time>
        <extensions>
          <ns3:TrackPointExtension>
            <ns3:hr>175</ns3:hr>
            <ns3:cad>79</ns3:cad>
          </ns3:TrackPointExtension>
        </extensions>
      </trkpt>
      <trkpt lat="52.03964732587337493896484375" lon="1.22943568043410778045654296875">
        <ele>163</ele>
        <time>2025-09-05T11:40:55.000Z</time>
        <extensions>
          <ns3:TrackPointExtension>
            <ns3:hr>174</ns3:hr>
            <ns3:cad>79</ns3:cad>
          </ns3:TrackPointExtension>
        </extensions>
      </trkpt>
      <trkpt lat="52.0396401174366474151611328125" lon="1.22947566211223602294921875">
        <ele>162.600006103515625</ele>
        <time>2025-09-05T11:40:56.000Z</time>
        <extensions>
          <ns3:TrackPointExtension>
            <ns3:hr>173</ns3:hr>
            <ns3:cad>79</ns3:cad>
          </ns3:TrackPointExtension>
        </extensions>
      </trkpt>
      <trkpt lat="52.03963684849441051483154296875" lon="1.22951480560004711151123046875">
        <ele>162.399993896484375</ele>
        <time>2025-09-05T11:40:57.000Z</time>
        <extensions>
          <ns3:TrackPointExtension>
            <ns3:hr>173</ns3:hr>
            <ns3:cad>79</ns3:cad>
          </ns3:TrackPointExtension>
        </extensions>
      </trkpt>
      <trkpt lat="52.03958907164633274078369140625" lon="1.22982434928417205810546875">
        <ele>161.600006103515625</ele>
        <time>2025-09-05T11:41:04.000Z</time>
        <extensions>
          <ns3:TrackPointExtension>
            <ns3:hr>172</ns3:hr>
            <ns3:cad>80</ns3:cad>
          </ns3:TrackPointExtension>
        </extensions>
      </trkpt>
      <trkpt lat="52.03952905721962451934814453125" lon="1.2301071546971797943115234375">
        <ele>160.399993896484375</ele>
        <time>2025-09-05T11:41:12.000Z</time>
        <extensions>
          <ns3:TrackPointExtension>
            <ns3:hr>171</ns3:hr>
            <ns3:cad>81</ns3:cad>
          </ns3:TrackPointExtension>
        </extensions>
      </trkpt>
      <trkpt lat="52.0395210944116115570068359375" lon="1.23013506643474102020263671875">
        <ele>160.1999969482421875</ele>
        <time>2025-09-05T11:41:13.000Z</time>
        <extensions>
          <ns3:TrackPointExtension>
            <ns3:hr>174</ns3:hr>
            <ns3:cad>81</ns3:cad>
          </ns3:TrackPointExtension>
        </extensions>
      </trkpt>
      <trkpt lat="52.039514891803264617919921875" lon="1.2301696836948394775390625">
        <ele>160</ele>
        <time>2025-09-05T11:41:14.000Z</time>
        <extensions>
          <ns3:TrackPointExtension>
            <ns3:hr>174</ns3:hr>
            <ns3:cad>81</ns3:cad>
          </ns3:TrackPointExtension>
        </extensions>
      </trkpt>
      <trkpt lat="52.03948379494249820709228515625" lon="1.2304404191672801971435546875">
        <ele>159.399993896484375</ele>
        <time>2025-09-05T11:41:21.000Z</time>
        <extensions>
          <ns3:TrackPointExtension>
            <ns3:hr>175</ns3:hr>
            <ns3:cad>81</ns3:cad>
          </ns3:TrackPointExtension>
        </extensions>
      </trkpt>
      <trkpt lat="52.03947708941996097564697265625" lon="1.2304987572133541107177734375">
        <ele>159.1999969482421875</ele>
        <time>2025-09-05T11:41:23.000Z</time>
        <extensions>
          <ns3:TrackPointExtension>
            <ns3:hr>174</ns3:hr>
            <ns3:cad>81</ns3:cad>
          </ns3:TrackPointExtension>
        </extensions>
      </trkpt>
      <trkpt lat="52.0394925959408283233642578125" lon="1.23059037141501903533935546875">
        <ele>159.1999969482421875</ele>
        <time>2025-09-05T11:41:26.000Z</time>
        <extensions>
          <ns3:TrackPointExtension>
            <ns3:hr>175</ns3:hr>
            <ns3:cad>81</ns3:cad>
          </ns3:TrackPointExtension>
        </extensions>
      </trkpt>
      <trkpt lat="52.0395083539187908172607421875" lon="1.23070537112653255462646484375">
        <ele>158.8000030517578125</ele>
        <time>2025-09-05T11:41:30.000Z</time>
        <extensions>
          <ns3:TrackPointExtension>
            <ns3:hr>173</ns3:hr>
            <ns3:cad>81</ns3:cad>
          </ns3:TrackPointExtension>
        </extensions>
      </trkpt>
      <trkpt lat="52.03951313160359859466552734375" lon="1.230900585651397705078125">
        <ele>158.600006103515625</ele>
        <time>2025-09-05T11:41:38.000Z</time>
        <extensions>
          <ns3:TrackPointExtension>
            <ns3:hr>172</ns3:hr>
            <ns3:cad>81</ns3:cad>
          </ns3:TrackPointExtension>
        </extensions>
      </trkpt>
      <trkpt lat="52.039484716951847076416015625" lon="1.23116084374487400054931640625">
        <ele>158.600006103515625</ele>
        <time>2025-09-05T11:41:46.000Z</time>
        <extensions>
          <ns3:TrackPointExtension>
            <ns3:hr>171</ns3:hr>
            <ns3:cad>81</ns3:cad>
          </ns3:TrackPointExtension>
        </extensions>
      </trkpt>
      <trkpt lat="52.03950307331979274749755859375" lon="1.2314395420253276824951171875">
        <ele>159</ele>
        <time>2025-09-05T11:41:54.000Z</time>
        <extensions>
          <ns3:TrackPointExtension>
            <ns3:hr>172</ns3:hr>
            <ns3:cad>80</ns3:cad>
          </ns3:TrackPointExtension>
        </extensions>
      </trkpt>
      <trkpt lat="52.0394884049892425537109375" lon="1.23162486590445041656494140625">
        <ele>159</ele>
        <time>2025-09-05T11:41:58.000Z</time>
        <extensions>
          <ns3:TrackPointExtension>
            <ns3:hr>169</ns3:hr>
            <ns3:cad>79</ns3:cad>
          </ns3:TrackPointExtension>
        </extensions>
      </trkpt>
      <trkpt lat="52.0394723117351531982421875" lon="1.2318049930036067962646484375">
        <ele>158.8000030517578125</ele>
        <time>2025-09-05T11:42:02.000Z</time>
        <extensions>
          <ns3:TrackPointExtension>
            <ns3:hr>168</ns3:hr>
            <ns3:cad>79</ns3:cad>
          </ns3:TrackPointExtension>
        </extensions>
      </trkpt>
      <trkpt lat="52.0394537039101123809814453125" lon="1.23208436183631420135498046875">
        <ele>158.600006103515625</ele>
        <time>2025-09-05T11:42:10.000Z</time>
        <extensions>
          <ns3:TrackPointExtension>
            <ns3:hr>171</ns3:hr>
            <ns3:cad>80</ns3:cad>
          </ns3:TrackPointExtension>
        </extensions>
      </trkpt>
      <trkpt lat="52.039443142712116241455078125" lon="1.2321359105408191680908203125">
        <ele>158.399993896484375</ele>
        <time>2025-09-05T11:42:11.000Z</time>
        <extensions>
          <ns3:TrackPointExtension>
            <ns3:hr>172</ns3:hr>
            <ns3:cad>80</ns3:cad>
          </ns3:TrackPointExtension>
        </extensions>
      </trkpt>
      <trkpt lat="52.03945554792881011962890625" lon="1.23229273594915866851806640625">
        <ele>158.399993896484375</ele>
        <time>2025-09-05T11:42:15.000Z</time>
        <extensions>
          <ns3:TrackPointExtension>
            <ns3:hr>173</ns3:hr>
            <ns3:cad>80</ns3:cad>
          </ns3:TrackPointExtension>
        </extensions>
      </trkpt>
      <trkpt lat="52.03944959677755832672119140625" lon="1.23237513005733489990234375">
        <ele>158.1999969482421875</ele>
        <time>2025-09-05T11:42:17.000Z</time>
        <extensions>
          <ns3:TrackPointExtension>
            <ns3:hr>173</ns3:hr>
            <ns3:cad>80</ns3:cad>
          </ns3:TrackPointExtension>
        </extensions>
      </trkpt>
      <trkpt lat="52.03943702392280101776123046875" lon="1.23267830349504947662353515625">
        <ele>157.8000030517578125</ele>
        <time>2025-09-05T11:42:25.000Z</time>
        <extensions>
          <ns3:TrackPointExtension>
            <ns3:hr>172</ns3:hr>
            <ns3:cad>80</ns3:cad>
          </ns3:TrackPointExtension>
        </extensions>
      </trkpt>
      <trkpt lat="52.03945596702396869659423828125" lon="1.23279682360589504241943359375">
        <ele>157.8000030517578125</ele>
        <time>2025-09-05T11:42:30.000Z</time>
        <extensions>
          <ns3:TrackPointExtension>
            <ns3:hr>175</ns3:hr>
            <ns3:cad>79</ns3:cad>
          </ns3:TrackPointExtension>
        </extensions>
      </trkpt>
      <trkpt lat="52.039467282593250274658203125" lon="1.2328626215457916259765625">
        <ele>157.8000030517578125</ele>
        <time>2025-09-05T11:42:33.000Z</time>
        <extensions>
          <ns3:TrackPointExtension>
            <ns3:hr>175</ns3:hr>
            <ns3:cad>79</ns3:cad>
          </ns3:TrackPointExtension>
        </extensions>
      </trkpt>
      <trkpt lat="52.03948698006570339202880859375" lon="1.2331668846309185028076171875">
        <ele>157.8000030517578125</ele>
        <time>2025-09-05T11:42:42.000Z</time>
        <extensions>
          <ns3:TrackPointExtension>
            <ns3:hr>173</ns3:hr>
            <ns3:cad>80</ns3:cad>
          </ns3:TrackPointExtension>
        </extensions>
      </trkpt>
      <trkpt lat="52.03950072638690471649169921875" lon="1.233296133577823638916015625">
        <ele>157.8000030517578125</ele>
        <time>2025-09-05T11:42:46.000Z</time>
        <extensions>
          <ns3:TrackPointExtension>
            <ns3:hr>176</ns3:hr>
            <ns3:cad>81</ns3:cad>
          </ns3:TrackPointExtension>
        </extensions>
      </trkpt>
      <trkpt lat="52.03951966948807239532470703125" lon="1.23337718658149242401123046875">
        <ele>158</ele>
        <time>2025-09-05T11:42:50.000Z</time>
        <extensions>
          <ns3:TrackPointExtension>
            <ns3:hr>175</ns3:hr>
            <ns3:cad>75</ns3:cad>
          </ns3:TrackPointExtension>
        </extensions>
      </trkpt>
      <trkpt lat="52.03954246826469898223876953125" lon="1.23362629674375057220458984375">
        <ele>158.1999969482421875</ele>
        <time>2025-09-05T11:42:58.000Z</time>
        <extensions>
          <ns3:TrackPointExtension>
            <ns3:hr>175</ns3:hr>
            <ns3:cad>61</ns3:cad>
          </ns3:TrackPointExtension>
        </extensions>
      </trkpt>
      <trkpt lat="52.03953375108540058135986328125" lon="1.2337050028145313262939453125">
        <ele>158.1999969482421875</ele>
        <time>2025-09-05T11:43:00.000Z</time>
        <extensions>
          <ns3:TrackPointExtension>
            <ns3:hr>172</ns3:hr>
            <ns3:cad>62</ns3:cad>
          </ns3:TrackPointExtension>
        </extensions>
      </trkpt>
      <trkpt lat="52.03951581381261348724365234375" lon="1.23391932807862758636474609375">
        <ele>158.1999969482421875</ele>
        <time>2025-09-05T11:43:06.000Z</time>
        <extensions>
          <ns3:TrackPointExtension>
            <ns3:hr>169</ns3:hr>
            <ns3:cad>61</ns3:cad>
          </ns3:TrackPointExtension>
        </extensions>
      </trkpt>
      <trkpt lat="52.03951321542263031005859375" lon="1.2339534424245357513427734375">
        <ele>158.1999969482421875</ele>
        <time>2025-09-05T11:43:07.000Z</time>
        <extensions>
          <ns3:TrackPointExtension>
            <ns3:hr>168</ns3:hr>
            <ns3:cad>61</ns3:cad>
          </ns3:TrackPointExtension>
        </extensions>
      </trkpt>
      <trkpt lat="52.03951816074550151824951171875" lon="1.2340359203517436981201171875">
        <ele>158</ele>
        <time>2025-09-05T11:43:10.000Z</time>
        <extensions>
          <ns3:TrackPointExtension>
            <ns3:hr>165</ns3:hr>
            <ns3:cad>61</ns3:cad>
          </ns3:TrackPointExtension>
        </extensions>
      </trkpt>
      <trkpt lat="52.03952260315418243408203125" lon="1.23406383208930492401123046875">
        <ele>158</ele>
        <time>2025-09-05T11:43:11.000Z</time>
        <extensions>
          <ns3:TrackPointExtension>
            <ns3:hr>169</ns3:hr>
            <ns3:cad>61</ns3:cad>
          </ns3:TrackPointExtension>
        </extensions>
      </trkpt>
      <trkpt lat="52.03952754847705364227294921875" lon="1.2341207452118396759033203125">
        <ele>158</ele>
        <time>2025-09-05T11:43:13.000Z</time>
        <extensions>
          <ns3:TrackPointExtension>
            <ns3:hr>172</ns3:hr>
            <ns3:cad>61</ns3:cad>
          </ns3:TrackPointExtension>
        </extensions>
      </trkpt>
      <trkpt lat="52.03953106887638568878173828125" lon="1.23416944406926631927490234375">
        <ele>158</ele>
        <time>2025-09-05T11:43:15.000Z</time>
        <extensions>
          <ns3:TrackPointExtension>
            <ns3:hr>172</ns3:hr>
            <ns3:cad>61</ns3:cad>
          </ns3:TrackPointExtension>
        </extensions>
      </trkpt>
      <trkpt lat="52.03953257761895656585693359375" lon="1.2344184704124927520751953125">
        <ele>158</ele>
        <time>2025-09-05T11:43:23.000Z</time>
        <extensions>
          <ns3:TrackPointExtension>
            <ns3:hr>171</ns3:hr>
            <ns3:cad>78</ns3:cad>
          </ns3:TrackPointExtension>
        </extensions>
      </trkpt>
      <trkpt lat="52.03955386765301227569580078125" lon="1.23462877236306667327880859375">
        <ele>157.399993896484375</ele>
        <time>2025-09-05T11:43:30.000Z</time>
        <extensions>
          <ns3:TrackPointExtension>
            <ns3:hr>172</ns3:hr>
            <ns3:cad>80</ns3:cad>
          </ns3:TrackPointExtension>
        </extensions>
      </trkpt>
      <trkpt lat="52.039561159908771514892578125" lon="1.2346913851797580718994140625">
        <ele>157</ele>
        <time>2025-09-05T11:43:32.000Z</time>
        <extensions>
          <ns3:TrackPointExtension>
            <ns3:hr>176</ns3:hr>
            <ns3:cad>80</ns3:cad>
          </ns3:TrackPointExtension>
        </extensions>
      </trkpt>
      <trkpt lat="52.03956644050776958465576171875" lon="1.23472851701080799102783203125">
        <ele>156.8000030517578125</ele>
        <time>2025-09-05T11:43:33.000Z</time>
        <extensions>
          <ns3:TrackPointExtension>
            <ns3:hr>171</ns3:hr>
            <ns3:cad>81</ns3:cad>
          </ns3:TrackPointExtension>
        </extensions>
      </trkpt>
      <trkpt lat="52.039569877088069915771484375" lon="1.23476338572800159454345703125">
        <ele>156.8000030517578125</ele>
        <time>2025-09-05T11:43:34.000Z</time>
        <extensions>
          <ns3:TrackPointExtension>
            <ns3:hr>172</ns3:hr>
            <ns3:cad>81</ns3:cad>
          </ns3:TrackPointExtension>
        </extensions>
      </trkpt>
      <trkpt lat="52.03959577716886997222900390625" lon="1.2348992563784122467041015625">
        <ele>156.1999969482421875</ele>
        <time>2025-09-05T11:43:38.000Z</time>
        <extensions>
          <ns3:TrackPointExtension>
            <ns3:hr>170</ns3:hr>
            <ns3:cad>81</ns3:cad>
          </ns3:TrackPointExtension>
        </extensions>
      </trkpt>
      <trkpt lat="52.0396049134433269500732421875" lon="1.23502842150628566741943359375">
        <ele>156</ele>
        <time>2025-09-05T11:43:42.000Z</time>
        <extensions>
          <ns3:TrackPointExtension>
            <ns3:hr>170</ns3:hr>
            <ns3:cad>80</ns3:cad>
          </ns3:TrackPointExtension>
        </extensions>
      </trkpt>
      <trkpt lat="52.0396672748029232025146484375" lon="1.23529664240777492523193359375">
        <ele>155.8000030517578125</ele>
        <time>2025-09-05T11:43:50.000Z</time>
        <extensions>
          <ns3:TrackPointExtension>
            <ns3:hr>173</ns3:hr>
            <ns3:cad>81</ns3:cad>
          </ns3:TrackPointExtension>
        </extensions>
      </trkpt>
      <trkpt lat="52.039712034165859222412109375" lon="1.2353418208658695220947265625">
        <ele>155.600006103515625</ele>
        <time>2025-09-05T11:43:56.000Z</time>
        <extensions>
          <ns3:TrackPointExtension>
            <ns3:hr>174</ns3:hr>
            <ns3:cad>0</ns3:cad>
          </ns3:TrackPointExtension>
        </extensions>
      </trkpt>
      <trkpt lat="52.0397289656102657318115234375" lon="1.23534073121845722198486328125">
        <ele>155.600006103515625</ele>
        <time>2025-09-05T11:43:58.000Z</time>
        <extensions>
          <ns3:TrackPointExtension>
            <ns3:hr>177</ns3:hr>
            <ns3:cad>50</ns3:cad>
          </ns3:TrackPointExtension>
        </extensions>
      </trkpt>
      <trkpt lat="52.0397487469017505645751953125" lon="1.2353629432618618011474609375">
        <ele>155.8000030517578125</ele>
        <time>2025-09-05T11:44:02.000Z</time>
        <extensions>
          <ns3:TrackPointExtension>
            <ns3:hr>179</ns3:hr>
            <ns3:cad>0</ns3:cad>
          </ns3:TrackPointExtension>
        </extensions>
      </trkpt>
      <trkpt lat="52.0397735573351383209228515625" lon="1.23536168597638607025146484375">
        <ele>156.1999969482421875</ele>
        <time>2025-09-05T11:44:09.000Z</time>
        <extensions>
          <ns3:TrackPointExtension>
            <ns3:hr>179</ns3:hr>
            <ns3:cad>0</ns3:cad>
          </ns3:TrackPointExtension>
        </extensions>
      </trkpt>
      <trkpt lat="52.039785794913768768310546875" lon="1.23536000959575176239013671875">
        <ele>156.1999969482421875</ele>
        <time>2025-09-05T11:44:12.000Z</time>
        <extensions>
          <ns3:TrackPointExtension>
            <ns3:hr>176</ns3:hr>
            <ns3:cad>0</ns3:cad>
          </ns3:TrackPointExtension>
        </extensions>
      </trkpt>
      <trkpt lat="52.0397856272757053375244140625" lon="1.2353597581386566162109375">
        <ele>156.1999969482421875</ele>
        <time>2025-09-05T11:44:13.000Z</time>
        <extensions>
          <ns3:TrackPointExtension>
            <ns3:hr>173</ns3:hr>
            <ns3:cad>0</ns3:cad>
          </ns3:TrackPointExtension>
        </extensions>
      </trkpt>
      <trkpt lat="52.0397826097905635833740234375" lon="1.235356740653514862060546875">
        <ele>156.1999969482421875</ele>
        <time>2025-09-05T11:44:14.000Z</time>
        <extensions>
          <ns3:TrackPointExtension>
            <ns3:hr>167</ns3:hr>
            <ns3:cad>0</ns3:cad>
          </ns3:TrackPointExtension>
        </extensions>
      </trkpt>
      <trkpt lat="52.03976995311677455902099609375" lon="1.23535506427288055419921875">
        <ele>156.1999969482421875</ele>
        <time>2025-09-05T11:44:16.000Z</time>
        <extensions>
          <ns3:TrackPointExtension>
            <ns3:hr>164</ns3:hr>
            <ns3:cad>0</ns3:cad>
          </ns3:TrackPointExtension>
        </extensions>
      </trkpt>
      <trkpt lat="52.03976911492645740509033203125" lon="1.2353548966348171234130859375">
        <ele>156</ele>
        <time>2025-09-05T11:44:17.000Z</time>
        <extensions>
          <ns3:TrackPointExtension>
            <ns3:hr>163</ns3:hr>
            <ns3:cad>0</ns3:cad>
          </ns3:TrackPointExtension>
        </extensions>
      </trkpt>
      <trkpt lat="52.039813287556171417236328125" lon="1.23535372316837310791015625">
        <ele>155.8000030517578125</ele>
        <time>2025-09-05T11:44:22.000Z</time>
        <extensions>
          <ns3:TrackPointExtension>
            <ns3:hr>160</ns3:hr>
            <ns3:cad>0</ns3:cad>
          </ns3:TrackPointExtension>
        </extensions>
      </trkpt>
      <trkpt lat="52.03983533196151256561279296875" lon="1.23534291051328182220458984375">
        <ele>155.8000030517578125</ele>
        <time>2025-09-05T11:44:24.000Z</time>
        <extensions>
          <ns3:TrackPointExtension>
            <ns3:hr>160</ns3:hr>
            <ns3:cad>0</ns3:cad>
          </ns3:TrackPointExtension>
        </extensions>
      </trkpt>
      <trkpt lat="52.0399284549057483673095703125" lon="1.23529362492263317108154296875">
        <ele>155.399993896484375</ele>
        <time>2025-09-05T11:44:28.000Z</time>
        <extensions>
          <ns3:TrackPointExtension>
            <ns3:hr>163</ns3:hr>
            <ns3:cad>80</ns3:cad>
          </ns3:TrackPointExtension>
        </extensions>
      </trkpt>
      <trkpt lat="52.03999198973178863525390625" lon="1.23526479117572307586669921875">
        <ele>155.1999969482421875</ele>
        <time>2025-09-05T11:44:31.000Z</time>
        <extensions>
          <ns3:TrackPointExtension>
            <ns3:hr>165</ns3:hr>
            <ns3:cad>81</ns3:cad>
          </ns3:TrackPointExtension>
        </extensions>
      </trkpt>
      <trkpt lat="52.04003415070474147796630859375" lon="1.2352368794381618499755859375">
        <ele>155.1999969482421875</ele>
        <time>2025-09-05T11:44:33.000Z</time>
        <extensions>
          <ns3:TrackPointExtension>
            <ns3:hr>166</ns3:hr>
            <ns3:cad>81</ns3:cad>
          </ns3:TrackPointExtension>
        </extensions>
      </trkpt>
      <trkpt lat="52.0401782356202602386474609375" lon="1.2351292558014392852783203125">
        <ele>155.1999969482421875</ele>
        <time>2025-09-05T11:44:41.000Z</time>
        <extensions>
          <ns3:TrackPointExtension>
            <ns3:hr>168</ns3:hr>
            <ns3:cad>81</ns3:cad>
          </ns3:TrackPointExtension>
        </extensions>
      </trkpt>
      <trkpt lat="52.040343023836612701416015625" lon="1.23502255417406558990478515625">
        <ele>155.399993896484375</ele>
        <time>2025-09-05T11:44:48.000Z</time>
        <extensions>
          <ns3:TrackPointExtension>
            <ns3:hr>171</ns3:hr>
            <ns3:cad>81</ns3:cad>
          </ns3:TrackPointExtension>
        </extensions>
      </trkpt>
      <trkpt lat="52.04036624170839786529541015625" lon="1.2350048683583736419677734375">
        <ele>155.600006103515625</ele>
        <time>2025-09-05T11:44:49.000Z</time>
        <extensions>
          <ns3:TrackPointExtension>
            <ns3:hr>171</ns3:hr>
            <ns3:cad>81</ns3:cad>
          </ns3:TrackPointExtension>
        </extensions>
      </trkpt>
      <trkpt lat="52.04055525362491607666015625" lon="1.23488835990428924560546875">
        <ele>156</ele>
        <time>2025-09-05T11:44:56.000Z</time>
        <extensions>
          <ns3:TrackPointExtension>
            <ns3:hr>169</ns3:hr>
            <ns3:cad>82</ns3:cad>
          </ns3:TrackPointExtension>
        </extensions>
      </trkpt>
      <trkpt lat="52.040581740438938140869140625" lon="1.23487369157373905181884765625">
        <ele>156</ele>
        <time>2025-09-05T11:44:57.000Z</time>
        <extensions>
          <ns3:TrackPointExtension>
            <ns3:hr>170</ns3:hr>
            <ns3:cad>82</ns3:cad>
          </ns3:TrackPointExtension>
        </extensions>
      </trkpt>
      <trkpt lat="52.04065625555813312530517578125" lon="1.23483203351497650146484375">
        <ele>156.1999969482421875</ele>
        <time>2025-09-05T11:45:00.000Z</time>
        <extensions>
          <ns3:TrackPointExtension>
            <ns3:hr>171</ns3:hr>
            <ns3:cad>81</ns3:cad>
          </ns3:TrackPointExtension>
        </extensions>
      </trkpt>
      <trkpt lat="52.04079019837081432342529296875" lon="1.2347859330475330352783203125">
        <ele>156.8000030517578125</ele>
        <time>2025-09-05T11:45:06.000Z</time>
        <extensions>
          <ns3:TrackPointExtension>
            <ns3:hr>172</ns3:hr>
            <ns3:cad>82</ns3:cad>
          </ns3:TrackPointExtension>
        </extensions>
      </trkpt>
      <trkpt lat="52.040972001850605010986328125" lon="1.234725750982761383056640625">
        <ele>156.8000030517578125</ele>
        <time>2025-09-05T11:45:14.000Z</time>
        <extensions>
          <ns3:TrackPointExtension>
            <ns3:hr>171</ns3:hr>
            <ns3:cad>81</ns3:cad>
          </ns3:TrackPointExtension>
        </extensions>
      </trkpt>
      <trkpt lat="52.0410841517150402069091796875" lon="1.23469163663685321807861328125">
        <ele>156.600006103515625</ele>
        <time>2025-09-05T11:45:19.000Z</time>
        <extensions>
          <ns3:TrackPointExtension>
            <ns3:hr>172</ns3:hr>
            <ns3:cad>80</ns3:cad>
          </ns3:TrackPointExtension>
        </extensions>
      </trkpt>
      <trkpt lat="52.04127199016511440277099609375" lon="1.23464587144553661346435546875">
        <ele>155.8000030517578125</ele>
        <time>2025-09-05T11:45:27.000Z</time>
        <extensions>
          <ns3:TrackPointExtension>
            <ns3:hr>172</ns3:hr>
            <ns3:cad>80</ns3:cad>
          </ns3:TrackPointExtension>
        </extensions>
      </trkpt>
      <trkpt lat="52.04141314141452312469482421875" lon="1.23463665135204792022705078125">
        <ele>155.1999969482421875</ele>
        <time>2025-09-05T11:45:33.000Z</time>
        <extensions>
          <ns3:TrackPointExtension>
            <ns3:hr>171</ns3:hr>
            <ns3:cad>81</ns3:cad>
          </ns3:TrackPointExtension>
        </extensions>
      </trkpt>
      <trkpt lat="52.04143594019114971160888671875" lon="1.23463212512433528900146484375">
        <ele>155</ele>
        <time>2025-09-05T11:45:34.000Z</time>
        <extensions>
          <ns3:TrackPointExtension>
            <ns3:hr>173</ns3:hr>
            <ns3:cad>81</ns3:cad>
          </ns3:TrackPointExtension>
        </extensions>
      </trkpt>
      <trkpt lat="52.041564099490642547607421875" lon="1.23464486561715602874755859375">
        <ele>154</ele>
        <time>2025-09-05T11:45:40.000Z</time>
        <extensions>
          <ns3:TrackPointExtension>
            <ns3:hr>171</ns3:hr>
            <ns3:cad>81</ns3:cad>
          </ns3:TrackPointExtension>
        </extensions>
      </trkpt>
      <trkpt lat="52.0416153967380523681640625" lon="1.2346474640071392059326171875">
        <ele>153.8000030517578125</ele>
        <time>2025-09-05T11:45:42.000Z</time>
        <extensions>
          <ns3:TrackPointExtension>
            <ns3:hr>171</ns3:hr>
            <ns3:cad>80</ns3:cad>
          </ns3:TrackPointExtension>
        </extensions>
      </trkpt>
      <trkpt lat="52.0417602360248565673828125" lon="1.23459675349295139312744140625">
        <ele>153</ele>
        <time>2025-09-05T11:45:47.000Z</time>
        <extensions>
          <ns3:TrackPointExtension>
            <ns3:hr>170</ns3:hr>
            <ns3:cad>80</ns3:cad>
          </ns3:TrackPointExtension>
        </extensions>
      </trkpt>
      <trkpt lat="52.041783034801483154296875" lon="1.23458971269428730010986328125">
        <ele>153</ele>
        <time>2025-09-05T11:45:48.000Z</time>
        <extensions>
          <ns3:TrackPointExtension>
            <ns3:hr>169</ns3:hr>
            <ns3:cad>80</ns3:cad>
          </ns3:TrackPointExtension>
        </extensions>
      </trkpt>
      <trkpt lat="52.04190935008227825164794921875" lon="1.23455576598644256591796875">
        <ele>152</ele>
        <time>2025-09-05T11:45:54.000Z</time>
        <extensions>
          <ns3:TrackPointExtension>
            <ns3:hr>171</ns3:hr>
            <ns3:cad>80</ns3:cad>
          </ns3:TrackPointExtension>
        </extensions>
      </trkpt>
      <trkpt lat="52.04192929901182651519775390625" lon="1.234544031322002410888671875">
        <ele>151.600006103515625</ele>
        <time>2025-09-05T11:45:55.000Z</time>
        <extensions>
          <ns3:TrackPointExtension>
            <ns3:hr>171</ns3:hr>
            <ns3:cad>79</ns3:cad>
          </ns3:TrackPointExtension>
        </extensions>
      </trkpt>
      <trkpt lat="52.04200255684554576873779296875" lon="1.23452232219278812408447265625">
        <ele>150.399993896484375</ele>
        <time>2025-09-05T11:45:59.000Z</time>
        <extensions>
          <ns3:TrackPointExtension>
            <ns3:hr>168</ns3:hr>
            <ns3:cad>79</ns3:cad>
          </ns3:TrackPointExtension>
        </extensions>
      </trkpt>
      <trkpt lat="52.04205703921616077423095703125" lon="1.2345143593847751617431640625">
        <ele>149.399993896484375</ele>
        <time>2025-09-05T11:46:02.000Z</time>
        <extensions>
          <ns3:TrackPointExtension>
            <ns3:hr>169</ns3:hr>
            <ns3:cad>79</ns3:cad>
          </ns3:TrackPointExtension>
        </extensions>
      </trkpt>
      <trkpt lat="52.04207799397408962249755859375" lon="1.23450991697609424591064453125">
        <ele>149.1999969482421875</ele>
        <time>2025-09-05T11:46:03.000Z</time>
        <extensions>
          <ns3:TrackPointExtension>
            <ns3:hr>168</ns3:hr>
            <ns3:cad>79</ns3:cad>
          </ns3:TrackPointExtension>
        </extensions>
      </trkpt>
      <trkpt lat="52.04212912358343601226806640625" lon="1.23452567495405673980712890625">
        <ele>148</ele>
        <time>2025-09-05T11:46:06.000Z</time>
        <extensions>
          <ns3:TrackPointExtension>
            <ns3:hr>169</ns3:hr>
            <ns3:cad>82</ns3:cad>
          </ns3:TrackPointExtension>
        </extensions>
      </trkpt>
      <trkpt lat="52.04217270947992801666259765625" lon="1.2345512397587299346923828125">
        <ele>147.1999969482421875</ele>
        <time>2025-09-05T11:46:09.000Z</time>
        <extensions>
          <ns3:TrackPointExtension>
            <ns3:hr>173</ns3:hr>
            <ns3:cad>82</ns3:cad>
          </ns3:TrackPointExtension>
        </extensions>
      </trkpt>
      <trkpt lat="52.042189724743366241455078125" lon="1.2345646508038043975830078125">
        <ele>146.600006103515625</ele>
        <time>2025-09-05T11:46:10.000Z</time>
        <extensions>
          <ns3:TrackPointExtension>
            <ns3:hr>173</ns3:hr>
            <ns3:cad>80</ns3:cad>
          </ns3:TrackPointExtension>
        </extensions>
      </trkpt>
      <trkpt lat="52.0422294549643993377685546875" lon="1.23461837880313396453857421875">
        <ele>145.600006103515625</ele>
        <time>2025-09-05T11:46:14.000Z</time>
        <extensions>
          <ns3:TrackPointExtension>
            <ns3:hr>173</ns3:hr>
            <ns3:cad>80</ns3:cad>
          </ns3:TrackPointExtension>
        </extensions>
      </trkpt>
      <trkpt lat="52.04229491762816905975341796875" lon="1.2346248328685760498046875">
        <ele>145</ele>
        <time>2025-09-05T11:46:17.000Z</time>
        <extensions>
          <ns3:TrackPointExtension>
            <ns3:hr>173</ns3:hr>
            <ns3:cad>81</ns3:cad>
          </ns3:TrackPointExtension>
        </extensions>
      </trkpt>
      <trkpt lat="52.04232878051698207855224609375" lon="1.23461075127124786376953125">
        <ele>144.399993896484375</ele>
        <time>2025-09-05T11:46:19.000Z</time>
        <extensions>
          <ns3:TrackPointExtension>
            <ns3:hr>175</ns3:hr>
            <ns3:cad>82</ns3:cad>
          </ns3:TrackPointExtension>
        </extensions>
      </trkpt>
      <trkpt lat="52.04236976802349090576171875" lon="1.23458736576139926910400390625">
        <ele>143.399993896484375</ele>
        <time>2025-09-05T11:46:22.000Z</time>
        <extensions>
          <ns3:TrackPointExtension>
            <ns3:hr>173</ns3:hr>
            <ns3:cad>82</ns3:cad>
          </ns3:TrackPointExtension>
        </extensions>
      </trkpt>
      <trkpt lat="52.04240153543651103973388671875" lon="1.23456247150897979736328125">
        <ele>142.399993896484375</ele>
        <time>2025-09-05T11:46:25.000Z</time>
        <extensions>
          <ns3:TrackPointExtension>
            <ns3:hr>174</ns3:hr>
            <ns3:cad>81</ns3:cad>
          </ns3:TrackPointExtension>
        </extensions>
      </trkpt>
      <trkpt lat="52.04241947270929813385009765625" lon="1.23455299995839595794677734375">
        <ele>142.1999969482421875</ele>
        <time>2025-09-05T11:46:26.000Z</time>
        <extensions>
          <ns3:TrackPointExtension>
            <ns3:hr>173</ns3:hr>
            <ns3:cad>81</ns3:cad>
          </ns3:TrackPointExtension>
        </extensions>
      </trkpt>
      <trkpt lat="52.04247009940445423126220703125" lon="1.23452986590564250946044921875">
        <ele>141</ele>
        <time>2025-09-05T11:46:29.000Z</time>
        <extensions>
          <ns3:TrackPointExtension>
            <ns3:hr>172</ns3:hr>
            <ns3:cad>81</ns3:cad>
          </ns3:TrackPointExtension>
        </extensions>
      </trkpt>
      <trkpt lat="52.04253748990595340728759765625" lon="1.23450371436774730682373046875">
        <ele>140</ele>
        <time>2025-09-05T11:46:33.000Z</time>
        <extensions>
          <ns3:TrackPointExtension>
            <ns3:hr>171</ns3:hr>
            <ns3:cad>78</ns3:cad>
          </ns3:TrackPointExtension>
        </extensions>
      </trkpt>
      <trkpt lat="52.0425825007259845733642578125" lon="1.234490387141704559326171875">
        <ele>139.399993896484375</ele>
        <time>2025-09-05T11:46:34.000Z</time>
        <extensions>
          <ns3:TrackPointExtension>
            <ns3:hr>171</ns3:hr>
            <ns3:cad>78</ns3:cad>
          </ns3:TrackPointExtension>
        </extensions>
      </trkpt>
      <trkpt lat="52.0426294393837451934814453125" lon="1.23442224226891994476318359375">
        <ele>138.8000030517578125</ele>
        <time>2025-09-05T11:46:36.000Z</time>
        <extensions>
          <ns3:TrackPointExtension>
            <ns3:hr>170</ns3:hr>
            <ns3:cad>79</ns3:cad>
          </ns3:TrackPointExtension>
        </extensions>
      </trkpt>
      <trkpt lat="52.04266975633800029754638671875" lon="1.2343125231564044952392578125">
        <ele>138.399993896484375</ele>
        <time>2025-09-05T11:46:39.000Z</time>
        <extensions>
          <ns3:TrackPointExtension>
            <ns3:hr>169</ns3:hr>
            <ns3:cad>79</ns3:cad>
          </ns3:TrackPointExtension>
        </extensions>
      </trkpt>
      <trkpt lat="52.0426656492054462432861328125" lon="1.23402309603989124298095703125">
        <ele>138</ele>
        <time>2025-09-05T11:46:47.000Z</time>
        <extensions>
          <ns3:TrackPointExtension>
            <ns3:hr>171</ns3:hr>
            <ns3:cad>81</ns3:cad>
          </ns3:TrackPointExtension>
        </extensions>
      </trkpt>
      <trkpt lat="52.04265299253165721893310546875" lon="1.233960650861263275146484375">
        <ele>137.8000030517578125</ele>
        <time>2025-09-05T11:46:49.000Z</time>
        <extensions>
          <ns3:TrackPointExtension>
            <ns3:hr>172</ns3:hr>
            <ns3:cad>81</ns3:cad>
          </ns3:TrackPointExtension>
        </extensions>
      </trkpt>
      <trkpt lat="52.04261225648224353790283203125" lon="1.2337774224579334259033203125">
        <ele>137.399993896484375</ele>
        <time>2025-09-05T11:46:55.000Z</time>
        <extensions>
          <ns3:TrackPointExtension>
            <ns3:hr>172</ns3:hr>
            <ns3:cad>81</ns3:cad>
          </ns3:TrackPointExtension>
        </extensions>
      </trkpt>
      <trkpt lat="52.042577303946018218994140625" lon="1.23363836668431758880615234375">
        <ele>137.1999969482421875</ele>
        <time>2025-09-05T11:46:59.000Z</time>
        <extensions>
          <ns3:TrackPointExtension>
            <ns3:hr>176</ns3:hr>
            <ns3:cad>81</ns3:cad>
          </ns3:TrackPointExtension>
        </extensions>
      </trkpt>
      <trkpt lat="52.04259239137172698974609375" lon="1.23357315547764301300048828125">
        <ele>137</ele>
        <time>2025-09-05T11:47:01.000Z</time>
        <extensions>
          <ns3:TrackPointExtension>
            <ns3:hr>175</ns3:hr>
            <ns3:cad>81</ns3:cad>
          </ns3:TrackPointExtension>
        </extensions>
      </trkpt>
      <trkpt lat="52.04261141829192638397216796875" lon="1.2335427291691303253173828125">
        <ele>137</ele>
        <time>2025-09-05T11:47:02.000Z</time>
        <extensions>
          <ns3:TrackPointExtension>
            <ns3:hr>175</ns3:hr>
            <ns3:cad>81</ns3:cad>
          </ns3:TrackPointExtension>
        </extensions>
      </trkpt>
      <trkpt lat="52.04268333502113819122314453125" lon="1.233471818268299102783203125">
        <ele>136.8000030517578125</ele>
        <time>2025-09-05T11:47:06.000Z</time>
        <extensions>
          <ns3:TrackPointExtension>
            <ns3:hr>172</ns3:hr>
            <ns3:cad>80</ns3:cad>
          </ns3:TrackPointExtension>
        </extensions>
      </trkpt>
      <trkpt lat="52.0427008531987667083740234375" lon="1.23345396481454372406005859375">
        <ele>136.8000030517578125</ele>
        <time>2025-09-05T11:47:07.000Z</time>
        <extensions>
          <ns3:TrackPointExtension>
            <ns3:hr>173</ns3:hr>
            <ns3:cad>80</ns3:cad>
          </ns3:TrackPointExtension>
        </extensions>
      </trkpt>
      <trkpt lat="52.0428091473877429962158203125" lon="1.2333346903324127197265625">
        <ele>136.600006103515625</ele>
        <time>2025-09-05T11:47:13.000Z</time>
        <extensions>
          <ns3:TrackPointExtension>
            <ns3:hr>176</ns3:hr>
            <ns3:cad>81</ns3:cad>
          </ns3:TrackPointExtension>
        </extensions>
      </trkpt>
      <trkpt lat="52.0428289286792278289794921875" lon="1.2333174236118793487548828125">
        <ele>136.600006103515625</ele>
        <time>2025-09-05T11:47:14.000Z</time>
        <extensions>
          <ns3:TrackPointExtension>
            <ns3:hr>175</ns3:hr>
            <ns3:cad>81</ns3:cad>
          </ns3:TrackPointExtension>
        </extensions>
      </trkpt>
      <trkpt lat="52.04294049181044101715087890625" lon="1.23328699730336666107177734375">
        <ele>136.399993896484375</ele>
        <time>2025-09-05T11:47:20.000Z</time>
        <extensions>
          <ns3:TrackPointExtension>
            <ns3:hr>174</ns3:hr>
            <ns3:cad>82</ns3:cad>
          </ns3:TrackPointExtension>
        </extensions>
      </trkpt>
      <trkpt lat="52.0430575869977474212646484375" lon="1.23315070755779743194580078125">
        <ele>136.399993896484375</ele>
        <time>2025-09-05T11:47:26.000Z</time>
        <extensions>
          <ns3:TrackPointExtension>
            <ns3:hr>174</ns3:hr>
            <ns3:cad>81</ns3:cad>
          </ns3:TrackPointExtension>
        </extensions>
      </trkpt>
      <trkpt lat="52.04311148263514041900634765625" lon="1.2330582551658153533935546875">
        <ele>136.399993896484375</ele>
        <time>2025-09-05T11:47:32.000Z</time>
        <extensions>
          <ns3:TrackPointExtension>
            <ns3:hr>172</ns3:hr>
            <ns3:cad>40</ns3:cad>
          </ns3:TrackPointExtension>
        </extensions>
      </trkpt>
      <trkpt lat="52.04313746653497219085693359375" lon="1.2330663017928600311279296875">
        <ele>136</ele>
        <time>2025-09-05T11:47:39.000Z</time>
        <extensions>
          <ns3:TrackPointExtension>
            <ns3:hr>174</ns3:hr>
            <ns3:cad>0</ns3:cad>
          </ns3:TrackPointExtension>
        </extensions>
      </trkpt>
      <trkpt lat="52.043180800974369049072265625" lon="1.23299296014010906219482421875">
        <ele>136</ele>
        <time>2025-09-05T11:47:44.000Z</time>
        <extensions>
          <ns3:TrackPointExtension>
            <ns3:hr>171</ns3:hr>
            <ns3:cad>0</ns3:cad>
          </ns3:TrackPointExtension>
        </extensions>
      </trkpt>
      <trkpt lat="52.0432034321129322052001953125" lon="1.23294803313910961151123046875">
        <ele>135.8000030517578125</ele>
        <time>2025-09-05T11:47:46.000Z</time>
        <extensions>
          <ns3:TrackPointExtension>
            <ns3:hr>170</ns3:hr>
            <ns3:cad>0</ns3:cad>
          </ns3:TrackPointExtension>
        </extensions>
      </trkpt>
      <trkpt lat="52.0432703197002410888671875" lon="1.23291014693677425384521484375">
        <ele>135.8000030517578125</ele>
        <time>2025-09-05T11:47:51.000Z</time>
        <extensions>
          <ns3:TrackPointExtension>
            <ns3:hr>172</ns3:hr>
            <ns3:cad>78</ns3:cad>
          </ns3:TrackPointExtension>
        </extensions>
      </trkpt>
      <trkpt lat="52.0433305017650127410888671875" lon="1.232924647629261016845703125">
        <ele>135.600006103515625</ele>
        <time>2025-09-05T11:47:54.000Z</time>
        <extensions>
          <ns3:TrackPointExtension>
            <ns3:hr>171</ns3:hr>
            <ns3:cad>80</ns3:cad>
          </ns3:TrackPointExtension>
        </extensions>
      </trkpt>
      <trkpt lat="52.0433928631246089935302734375" lon="1.23291718773543834686279296875">
        <ele>135.399993896484375</ele>
        <time>2025-09-05T11:47:57.000Z</time>
        <extensions>
          <ns3:TrackPointExtension>
            <ns3:hr>168</ns3:hr>
            <ns3:cad>81</ns3:cad>
          </ns3:TrackPointExtension>
        </extensions>
      </trkpt>
      <trkpt lat="52.04347961582243442535400390625" lon="1.2329194508492946624755859375">
        <ele>135.399993896484375</ele>
        <time>2025-09-05T11:48:01.000Z</time>
        <extensions>
          <ns3:TrackPointExtension>
            <ns3:hr>165</ns3:hr>
            <ns3:cad>81</ns3:cad>
          </ns3:TrackPointExtension>
        </extensions>
      </trkpt>
      <trkpt lat="52.04351599328219890594482421875" lon="1.23289288021624088287353515625">
        <ele>135.1999969482421875</ele>
        <time>2025-09-05T11:48:03.000Z</time>
        <extensions>
          <ns3:TrackPointExtension>
            <ns3:hr>166</ns3:hr>
            <ns3:cad>81</ns3:cad>
          </ns3:TrackPointExtension>
        </extensions>
      </trkpt>
      <trkpt lat="52.0435863174498081207275390625" lon="1.2327970750629901885986328125">
        <ele>135.1999969482421875</ele>
        <time>2025-09-05T11:48:08.000Z</time>
        <extensions>
          <ns3:TrackPointExtension>
            <ns3:hr>170</ns3:hr>
            <ns3:cad>81</ns3:cad>
          </ns3:TrackPointExtension>
        </extensions>
      </trkpt>
      <trkpt lat="52.04361456446349620819091796875" lon="1.23274250887334346771240234375">
        <ele>135.1999969482421875</ele>
        <time>2025-09-05T11:48:11.000Z</time>
        <extensions>
          <ns3:TrackPointExtension>
            <ns3:hr>170</ns3:hr>
            <ns3:cad>81</ns3:cad>
          </ns3:TrackPointExtension>
        </extensions>
      </trkpt>
      <trkpt lat="52.04367407597601413726806640625" lon="1.2325278483331203460693359375">
        <ele>135.399993896484375</ele>
        <time>2025-09-05T11:48:18.000Z</time>
        <extensions>
          <ns3:TrackPointExtension>
            <ns3:hr>169</ns3:hr>
            <ns3:cad>81</ns3:cad>
          </ns3:TrackPointExtension>
        </extensions>
      </trkpt>
      <trkpt lat="52.04368061386048793792724609375" lon="1.23243221081793308258056640625">
        <ele>135.1999969482421875</ele>
        <time>2025-09-05T11:48:21.000Z</time>
        <extensions>
          <ns3:TrackPointExtension>
            <ns3:hr>172</ns3:hr>
            <ns3:cad>81</ns3:cad>
          </ns3:TrackPointExtension>
        </extensions>
      </trkpt>
      <trkpt lat="52.0437371917068958282470703125" lon="1.23224998824298381805419921875">
        <ele>135</ele>
        <time>2025-09-05T11:48:27.000Z</time>
        <extensions>
          <ns3:TrackPointExtension>
            <ns3:hr>173</ns3:hr>
            <ns3:cad>81</ns3:cad>
          </ns3:TrackPointExtension>
        </extensions>
      </trkpt>
      <trkpt lat="52.04386400990188121795654296875" lon="1.2320443801581859588623046875">
        <ele>135</ele>
        <time>2025-09-05T11:48:34.000Z</time>
        <extensions>
          <ns3:TrackPointExtension>
            <ns3:hr>173</ns3:hr>
            <ns3:cad>81</ns3:cad>
          </ns3:TrackPointExtension>
        </extensions>
      </trkpt>
      <trkpt lat="52.04393215477466583251953125" lon="1.23195075429975986480712890625">
        <ele>134.8000030517578125</ele>
        <time>2025-09-05T11:48:39.000Z</time>
        <extensions>
          <ns3:TrackPointExtension>
            <ns3:hr>170</ns3:hr>
            <ns3:cad>80</ns3:cad>
          </ns3:TrackPointExtension>
        </extensions>
      </trkpt>
      <trkpt lat="52.04393994994461536407470703125" lon="1.2319211661815643310546875">
        <ele>134.600006103515625</ele>
        <time>2025-09-05T11:48:40.000Z</time>
        <extensions>
          <ns3:TrackPointExtension>
            <ns3:hr>170</ns3:hr>
            <ns3:cad>80</ns3:cad>
          </ns3:TrackPointExtension>
        </extensions>
      </trkpt>
      <trkpt lat="52.0439604856073856353759765625" lon="1.23182603158056735992431640625">
        <ele>134.600006103515625</ele>
        <time>2025-09-05T11:48:43.000Z</time>
        <extensions>
          <ns3:TrackPointExtension>
            <ns3:hr>170</ns3:hr>
            <ns3:cad>79</ns3:cad>
          </ns3:TrackPointExtension>
        </extensions>
      </trkpt>
      <trkpt lat="52.0440080948173999786376953125" lon="1.2316534481942653656005859375">
        <ele>134.399993896484375</ele>
        <time>2025-09-05T11:48:49.000Z</time>
        <extensions>
          <ns3:TrackPointExtension>
            <ns3:hr>171</ns3:hr>
            <ns3:cad>81</ns3:cad>
          </ns3:TrackPointExtension>
        </extensions>
      </trkpt>
      <trkpt lat="52.044062912464141845703125" lon="1.2313423119485378265380859375">
        <ele>134.399993896484375</ele>
        <time>2025-09-05T11:48:57.000Z</time>
        <extensions>
          <ns3:TrackPointExtension>
            <ns3:hr>171</ns3:hr>
            <ns3:cad>80</ns3:cad>
          </ns3:TrackPointExtension>
        </extensions>
      </trkpt>
      <trkpt lat="52.04409266822040081024169921875" lon="1.23119638301432132720947265625">
        <ele>134.399993896484375</ele>
        <time>2025-09-05T11:49:03.000Z</time>
        <extensions>
          <ns3:TrackPointExtension>
            <ns3:hr>172</ns3:hr>
            <ns3:cad>81</ns3:cad>
          </ns3:TrackPointExtension>
        </extensions>
      </trkpt>
      <trkpt lat="52.0441609807312488555908203125" lon="1.23094308190047740936279296875">
        <ele>134</ele>
        <time>2025-09-05T11:49:11.000Z</time>
        <extensions>
          <ns3:TrackPointExtension>
            <ns3:hr>173</ns3:hr>
            <ns3:cad>80</ns3:cad>
          </ns3:TrackPointExtension>
        </extensions>
      </trkpt>
      <trkpt lat="52.0442437939345836639404296875" lon="1.23067033477127552032470703125">
        <ele>133.8000030517578125</ele>
        <time>2025-09-05T11:49:19.000Z</time>
        <extensions>
          <ns3:TrackPointExtension>
            <ns3:hr>174</ns3:hr>
            <ns3:cad>81</ns3:cad>
          </ns3:TrackPointExtension>
        </extensions>
      </trkpt>
      <trkpt lat="52.04427908174693584442138671875" lon="1.23054494149982929229736328125">
        <ele>133.600006103515625</ele>
        <time>2025-09-05T11:49:23.000Z</time>
        <extensions>
          <ns3:TrackPointExtension>
            <ns3:hr>177</ns3:hr>
            <ns3:cad>80</ns3:cad>
          </ns3:TrackPointExtension>
        </extensions>
      </trkpt>
      <trkpt lat="52.044340856373310089111328125" lon="1.23038048855960369110107421875">
        <ele>133.399993896484375</ele>
        <time>2025-09-05T11:49:27.000Z</time>
        <extensions>
          <ns3:TrackPointExtension>
            <ns3:hr>175</ns3:hr>
            <ns3:cad>80</ns3:cad>
          </ns3:TrackPointExtension>
        </extensions>
      </trkpt>
      <trkpt lat="52.04443372786045074462890625" lon="1.230145208537578582763671875">
        <ele>133.1999969482421875</ele>
        <time>2025-09-05T11:49:35.000Z</time>
        <extensions>
          <ns3:TrackPointExtension>
            <ns3:hr>176</ns3:hr>
            <ns3:cad>81</ns3:cad>
          </ns3:TrackPointExtension>
        </extensions>
      </trkpt>
      <trkpt lat="52.044499777257442474365234375" lon="1.229871623218059539794921875">
        <ele>132.8000030517578125</ele>
        <time>2025-09-05T11:49:42.000Z</time>
        <extensions>
          <ns3:TrackPointExtension>
            <ns3:hr>173</ns3:hr>
            <ns3:cad>80</ns3:cad>
          </ns3:TrackPointExtension>
        </extensions>
      </trkpt>
      <trkpt lat="52.04461888410151004791259765625" lon="1.22961807064712047576904296875">
        <ele>132.8000030517578125</ele>
        <time>2025-09-05T11:49:50.000Z</time>
        <extensions>
          <ns3:TrackPointExtension>
            <ns3:hr>174</ns3:hr>
            <ns3:cad>80</ns3:cad>
          </ns3:TrackPointExtension>
        </extensions>
      </trkpt>
      <trkpt lat="52.04472868703305721282958984375" lon="1.22938555665314197540283203125">
        <ele>133.1999969482421875</ele>
        <time>2025-09-05T11:49:58.000Z</time>
        <extensions>
          <ns3:TrackPointExtension>
            <ns3:hr>172</ns3:hr>
            <ns3:cad>80</ns3:cad>
          </ns3:TrackPointExtension>
        </extensions>
      </trkpt>
      <trkpt lat="52.04485391266644001007080078125" lon="1.2292237021028995513916015625">
        <ele>133</ele>
        <time>2025-09-05T11:50:05.000Z</time>
        <extensions>
          <ns3:TrackPointExtension>
            <ns3:hr>173</ns3:hr>
            <ns3:cad>80</ns3:cad>
          </ns3:TrackPointExtension>
        </extensions>
      </trkpt>
      <trkpt lat="52.04497821629047393798828125" lon="1.2290136516094207763671875">
        <ele>132.600006103515625</ele>
        <time>2025-09-05T11:50:14.000Z</time>
        <extensions>
          <ns3:TrackPointExtension>
            <ns3:hr>174</ns3:hr>
            <ns3:cad>80</ns3:cad>
          </ns3:TrackPointExtension>
        </extensions>
      </trkpt>
      <trkpt lat="52.04500126652419567108154296875" lon="1.2289330177009105682373046875">
        <ele>132.399993896484375</ele>
        <time>2025-09-05T11:50:18.000Z</time>
        <extensions>
          <ns3:TrackPointExtension>
            <ns3:hr>173</ns3:hr>
            <ns3:cad>79</ns3:cad>
          </ns3:TrackPointExtension>
        </extensions>
      </trkpt>
      <trkpt lat="52.0450357161462306976318359375" lon="1.22882178984582424163818359375">
        <ele>132.1999969482421875</ele>
        <time>2025-09-05T11:50:22.000Z</time>
        <extensions>
          <ns3:TrackPointExtension>
            <ns3:hr>173</ns3:hr>
            <ns3:cad>80</ns3:cad>
          </ns3:TrackPointExtension>
        </extensions>
      </trkpt>
      <trkpt lat="52.04514493234455585479736328125" lon="1.22857251204550266265869140625">
        <ele>131.8000030517578125</ele>
        <time>2025-09-05T11:50:29.000Z</time>
        <extensions>
          <ns3:TrackPointExtension>
            <ns3:hr>174</ns3:hr>
            <ns3:cad>81</ns3:cad>
          </ns3:TrackPointExtension>
        </extensions>
      </trkpt>
      <trkpt lat="52.04516270197927951812744140625" lon="1.2285497970879077911376953125">
        <ele>131.8000030517578125</ele>
        <time>2025-09-05T11:50:30.000Z</time>
        <extensions>
          <ns3:TrackPointExtension>
            <ns3:hr>175</ns3:hr>
            <ns3:cad>81</ns3:cad>
          </ns3:TrackPointExtension>
        </extensions>
      </trkpt>
      <trkpt lat="52.04519220627844333648681640625" lon="1.22850948013365268707275390625">
        <ele>131.8000030517578125</ele>
        <time>2025-09-05T11:50:32.000Z</time>
        <extensions>
          <ns3:TrackPointExtension>
            <ns3:hr>172</ns3:hr>
            <ns3:cad>81</ns3:cad>
          </ns3:TrackPointExtension>
        </extensions>
      </trkpt>
      <trkpt lat="52.04526797868311405181884765625" lon="1.22839665971696376800537109375">
        <ele>131.600006103515625</ele>
        <time>2025-09-05T11:50:37.000Z</time>
        <extensions>
          <ns3:TrackPointExtension>
            <ns3:hr>171</ns3:hr>
            <ns3:cad>80</ns3:cad>
          </ns3:TrackPointExtension>
        </extensions>
      </trkpt>
      <trkpt lat="52.04531751573085784912109375" lon="1.2283362261950969696044921875">
        <ele>131.399993896484375</ele>
        <time>2025-09-05T11:50:41.000Z</time>
        <extensions>
          <ns3:TrackPointExtension>
            <ns3:hr>173</ns3:hr>
            <ns3:cad>80</ns3:cad>
          </ns3:TrackPointExtension>
        </extensions>
      </trkpt>
      <trkpt lat="52.04535347409546375274658203125" lon="1.22823857702314853668212890625">
        <ele>131.1999969482421875</ele>
        <time>2025-09-05T11:50:46.000Z</time>
        <extensions>
          <ns3:TrackPointExtension>
            <ns3:hr>172</ns3:hr>
            <ns3:cad>78</ns3:cad>
          </ns3:TrackPointExtension>
        </extensions>
      </trkpt>
      <trkpt lat="52.04547601751983165740966796875" lon="1.2281017005443572998046875">
        <ele>130.399993896484375</ele>
        <time>2025-09-05T11:50:54.000Z</time>
        <extensions>
          <ns3:TrackPointExtension>
            <ns3:hr>172</ns3:hr>
            <ns3:cad>78</ns3:cad>
          </ns3:TrackPointExtension>
        </extensions>
      </trkpt>
      <trkpt lat="52.04551692120730876922607421875" lon="1.228069849312305450439453125">
        <ele>130.399993896484375</ele>
        <time>2025-09-05T11:50:56.000Z</time>
        <extensions>
          <ns3:TrackPointExtension>
            <ns3:hr>170</ns3:hr>
            <ns3:cad>79</ns3:cad>
          </ns3:TrackPointExtension>
        </extensions>
      </trkpt>
      <trkpt lat="52.04564851708710193634033203125" lon="1.22796465642750263214111328125">
        <ele>130.1999969482421875</ele>
        <time>2025-09-05T11:51:02.000Z</time>
        <extensions>
          <ns3:TrackPointExtension>
            <ns3:hr>171</ns3:hr>
            <ns3:cad>81</ns3:cad>
          </ns3:TrackPointExtension>
        </extensions>
      </trkpt>
      <trkpt lat="52.04576988704502582550048828125" lon="1.22785032726824283599853515625">
        <ele>130</ele>
        <time>2025-09-05T11:51:09.000Z</time>
        <extensions>
          <ns3:TrackPointExtension>
            <ns3:hr>173</ns3:hr>
            <ns3:cad>81</ns3:cad>
          </ns3:TrackPointExtension>
        </extensions>
      </trkpt>
      <trkpt lat="52.04593132250010967254638671875" lon="1.227662824094295501708984375">
        <ele>130</ele>
        <time>2025-09-05T11:51:18.000Z</time>
        <extensions>
          <ns3:TrackPointExtension>
            <ns3:hr>172</ns3:hr>
            <ns3:cad>81</ns3:cad>
          </ns3:TrackPointExtension>
        </extensions>
      </trkpt>
      <trkpt lat="52.04594858922064304351806640625" lon="1.22764161787927150726318359375">
        <ele>130</ele>
        <time>2025-09-05T11:51:19.000Z</time>
        <extensions>
          <ns3:TrackPointExtension>
            <ns3:hr>172</ns3:hr>
            <ns3:cad>81</ns3:cad>
          </ns3:TrackPointExtension>
        </extensions>
      </trkpt>
      <trkpt lat="52.046116478741168975830078125" lon="1.2274641729891300201416015625">
        <ele>130</ele>
        <time>2025-09-05T11:51:28.000Z</time>
        <extensions>
          <ns3:TrackPointExtension>
            <ns3:hr>170</ns3:hr>
            <ns3:cad>81</ns3:cad>
          </ns3:TrackPointExtension>
        </extensions>
      </trkpt>
      <trkpt lat="52.046182863414287567138671875" lon="1.2273753248155117034912109375">
        <ele>130</ele>
        <time>2025-09-05T11:51:32.000Z</time>
        <extensions>
          <ns3:TrackPointExtension>
            <ns3:hr>173</ns3:hr>
            <ns3:cad>80</ns3:cad>
          </ns3:TrackPointExtension>
        </extensions>
      </trkpt>
      <trkpt lat="52.0462681911885738372802734375" lon="1.227236352860927581787109375">
        <ele>130</ele>
        <time>2025-09-05T11:51:37.000Z</time>
        <extensions>
          <ns3:TrackPointExtension>
            <ns3:hr>171</ns3:hr>
            <ns3:cad>80</ns3:cad>
          </ns3:TrackPointExtension>
        </extensions>
      </trkpt>
      <trkpt lat="52.0463711209595203399658203125" lon="1.227169297635555267333984375">
        <ele>129.8000030517578125</ele>
        <time>2025-09-05T11:51:43.000Z</time>
        <extensions>
          <ns3:TrackPointExtension>
            <ns3:hr>171</ns3:hr>
            <ns3:cad>79</ns3:cad>
          </ns3:TrackPointExtension>
        </extensions>
      </trkpt>
      <trkpt lat="52.0464733801782131195068359375" lon="1.2270286493003368377685546875">
        <ele>129.8000030517578125</ele>
        <time>2025-09-05T11:51:51.000Z</time>
        <extensions>
          <ns3:TrackPointExtension>
            <ns3:hr>169</ns3:hr>
            <ns3:cad>80</ns3:cad>
          </ns3:TrackPointExtension>
        </extensions>
      </trkpt>
      <trkpt lat="52.046493999660015106201171875" lon="1.22703040950000286102294921875">
        <ele>129.8000030517578125</ele>
        <time>2025-09-05T11:51:52.000Z</time>
        <extensions>
          <ns3:TrackPointExtension>
            <ns3:hr>169</ns3:hr>
            <ns3:cad>80</ns3:cad>
          </ns3:TrackPointExtension>
        </extensions>
      </trkpt>
      <trkpt lat="52.04659550450742244720458984375" lon="1.22697626240551471710205078125">
        <ele>129.8000030517578125</ele>
        <time>2025-09-05T11:51:56.000Z</time>
        <extensions>
          <ns3:TrackPointExtension>
            <ns3:hr>169</ns3:hr>
            <ns3:cad>78</ns3:cad>
          </ns3:TrackPointExtension>
        </extensions>
      </trkpt>
      <trkpt lat="52.04671896994113922119140625" lon="1.226863861083984375">
        <ele>129.399993896484375</ele>
        <time>2025-09-05T11:52:04.000Z</time>
        <extensions>
          <ns3:TrackPointExtension>
            <ns3:hr>170</ns3:hr>
            <ns3:cad>78</ns3:cad>
          </ns3:TrackPointExtension>
        </extensions>
      </trkpt>
      <trkpt lat="52.04677705653011798858642578125" lon="1.22678901068866252899169921875">
        <ele>129.1999969482421875</ele>
        <time>2025-09-05T11:52:08.000Z</time>
        <extensions>
          <ns3:TrackPointExtension>
            <ns3:hr>173</ns3:hr>
            <ns3:cad>78</ns3:cad>
          </ns3:TrackPointExtension>
        </extensions>
      </trkpt>
      <trkpt lat="52.046863473951816558837890625" lon="1.2267074547708034515380859375">
        <ele>129</ele>
        <time>2025-09-05T11:52:13.000Z</time>
        <extensions>
          <ns3:TrackPointExtension>
            <ns3:hr>174</ns3:hr>
            <ns3:cad>78</ns3:cad>
          </ns3:TrackPointExtension>
        </extensions>
      </trkpt>
      <trkpt lat="52.047019042074680328369140625" lon="1.22652933932840824127197265625">
        <ele>128.8000030517578125</ele>
        <time>2025-09-05T11:52:20.000Z</time>
        <extensions>
          <ns3:TrackPointExtension>
            <ns3:hr>174</ns3:hr>
            <ns3:cad>78</ns3:cad>
          </ns3:TrackPointExtension>
        </extensions>
      </trkpt>
      <trkpt lat="52.04716446809470653533935546875" lon="1.22639724053442478179931640625">
        <ele>128.600006103515625</ele>
        <time>2025-09-05T11:52:26.000Z</time>
        <extensions>
          <ns3:TrackPointExtension>
            <ns3:hr>177</ns3:hr>
            <ns3:cad>80</ns3:cad>
          </ns3:TrackPointExtension>
        </extensions>
      </trkpt>
      <trkpt lat="52.04717955552041530609130859375" lon="1.2263745255768299102783203125">
        <ele>128.600006103515625</ele>
        <time>2025-09-05T11:52:27.000Z</time>
        <extensions>
          <ns3:TrackPointExtension>
            <ns3:hr>178</ns3:hr>
            <ns3:cad>80</ns3:cad>
          </ns3:TrackPointExtension>
        </extensions>
      </trkpt>
      <trkpt lat="52.04728499986231327056884765625" lon="1.22624536044895648956298828125">
        <ele>128.600006103515625</ele>
        <time>2025-09-05T11:52:34.000Z</time>
        <extensions>
          <ns3:TrackPointExtension>
            <ns3:hr>178</ns3:hr>
            <ns3:cad>81</ns3:cad>
          </ns3:TrackPointExtension>
        </extensions>
      </trkpt>
      <trkpt lat="52.04739748500287532806396484375" lon="1.2261304445564746856689453125">
        <ele>128.8000030517578125</ele>
        <time>2025-09-05T11:52:41.000Z</time>
        <extensions>
          <ns3:TrackPointExtension>
            <ns3:hr>175</ns3:hr>
            <ns3:cad>80</ns3:cad>
          </ns3:TrackPointExtension>
        </extensions>
      </trkpt>
      <trkpt lat="52.047416679561138153076171875" lon="1.226072609424591064453125">
        <ele>129</ele>
        <time>2025-09-05T11:52:43.000Z</time>
        <extensions>
          <ns3:TrackPointExtension>
            <ns3:hr>174</ns3:hr>
            <ns3:cad>80</ns3:cad>
          </ns3:TrackPointExtension>
        </extensions>
      </trkpt>
      <trkpt lat="52.04749815165996551513671875" lon="1.2259505689144134521484375">
        <ele>129.1999969482421875</ele>
        <time>2025-09-05T11:52:50.000Z</time>
        <extensions>
          <ns3:TrackPointExtension>
            <ns3:hr>176</ns3:hr>
            <ns3:cad>75</ns3:cad>
          </ns3:TrackPointExtension>
        </extensions>
      </trkpt>
      <trkpt lat="52.0475281588733196258544921875" lon="1.22592232190072536468505859375">
        <ele>129.1999969482421875</ele>
        <time>2025-09-05T11:52:52.000Z</time>
        <extensions>
          <ns3:TrackPointExtension>
            <ns3:hr>176</ns3:hr>
            <ns3:cad>80</ns3:cad>
          </ns3:TrackPointExtension>
        </extensions>
      </trkpt>
      <trkpt lat="52.04761792905628681182861328125" lon="1.22587856836616992950439453125">
        <ele>129</ele>
        <time>2025-09-05T11:52:57.000Z</time>
        <extensions>
          <ns3:TrackPointExtension>
            <ns3:hr>176</ns3:hr>
            <ns3:cad>79</ns3:cad>
          </ns3:TrackPointExtension>
        </extensions>
      </trkpt>
      <trkpt lat="52.0476274006068706512451171875" lon="1.22586381621658802032470703125">
        <ele>128.399993896484375</ele>
        <time>2025-09-05T11:53:04.000Z</time>
        <extensions>
          <ns3:TrackPointExtension>
            <ns3:hr>174</ns3:hr>
            <ns3:cad>0</ns3:cad>
          </ns3:TrackPointExtension>
        </extensions>
      </trkpt>
      <trkpt lat="52.0476260595023632049560546875" lon="1.225863397121429443359375">
        <ele>128.1999969482421875</ele>
        <time>2025-09-05T11:53:05.000Z</time>
        <extensions>
          <ns3:TrackPointExtension>
            <ns3:hr>173</ns3:hr>
            <ns3:cad>0</ns3:cad>
          </ns3:TrackPointExtension>
        </extensions>
      </trkpt>
      <trkpt lat="52.04762429930269718170166015625" lon="1.225854344666004180908203125">
        <ele>127.8000030517578125</ele>
        <time>2025-09-05T11:53:09.000Z</time>
        <extensions>
          <ns3:TrackPointExtension>
            <ns3:hr>170</ns3:hr>
            <ns3:cad>0</ns3:cad>
          </ns3:TrackPointExtension>
        </extensions>
      </trkpt>
      <trkpt lat="52.0476637780666351318359375" lon="1.22591846622526645660400390625">
        <ele>127.40000152587890625</ele>
        <time>2025-09-05T11:53:15.000Z</time>
        <extensions>
          <ns3:TrackPointExtension>
            <ns3:hr>170</ns3:hr>
            <ns3:cad>0</ns3:cad>
          </ns3:TrackPointExtension>
        </extensions>
      </trkpt>
      <trkpt lat="52.04767383635044097900390625" lon="1.2259430252015590667724609375">
        <ele>127.1999969482421875</ele>
        <time>2025-09-05T11:53:16.000Z</time>
        <extensions>
          <ns3:TrackPointExtension>
            <ns3:hr>170</ns3:hr>
            <ns3:cad>0</ns3:cad>
          </ns3:TrackPointExtension>
        </extensions>
      </trkpt>
      <trkpt lat="52.0477196015417575836181640625" lon="1.2259906344115734100341796875">
        <ele>127</ele>
        <time>2025-09-05T11:53:21.000Z</time>
        <extensions>
          <ns3:TrackPointExtension>
            <ns3:hr>170</ns3:hr>
            <ns3:cad>57</ns3:cad>
          </ns3:TrackPointExtension>
        </extensions>
      </trkpt>
      <trkpt lat="52.04776394180953502655029296875" lon="1.226048804819583892822265625">
        <ele>127</ele>
        <time>2025-09-05T11:53:25.000Z</time>
        <extensions>
          <ns3:TrackPointExtension>
            <ns3:hr>167</ns3:hr>
            <ns3:cad>57</ns3:cad>
          </ns3:TrackPointExtension>
        </extensions>
      </trkpt>
      <trkpt lat="52.04779612831771373748779296875" lon="1.226115189492702484130859375">
        <ele>127.1999969482421875</ele>
        <time>2025-09-05T11:53:28.000Z</time>
        <extensions>
          <ns3:TrackPointExtension>
            <ns3:hr>166</ns3:hr>
            <ns3:cad>83</ns3:cad>
          </ns3:TrackPointExtension>
        </extensions>
      </trkpt>
      <trkpt lat="52.0478354394435882568359375" lon="1.22619037516415119171142578125">
        <ele>127.40000152587890625</ele>
        <time>2025-09-05T11:53:33.000Z</time>
        <extensions>
          <ns3:TrackPointExtension>
            <ns3:hr>163</ns3:hr>
            <ns3:cad>59</ns3:cad>
          </ns3:TrackPointExtension>
        </extensions>
      </trkpt>
      <trkpt lat="52.0478553883731365203857421875" lon="1.22618886642158031463623046875">
        <ele>127.59999847412109375</ele>
        <time>2025-09-05T11:53:35.000Z</time>
        <extensions>
          <ns3:TrackPointExtension>
            <ns3:hr>161</ns3:hr>
            <ns3:cad>59</ns3:cad>
          </ns3:TrackPointExtension>
        </extensions>
      </trkpt>
      <trkpt lat="52.04790207557380199432373046875" lon="1.2261914648115634918212890625">
        <ele>128</ele>
        <time>2025-09-05T11:53:38.000Z</time>
        <extensions>
          <ns3:TrackPointExtension>
            <ns3:hr>158</ns3:hr>
            <ns3:cad>59</ns3:cad>
          </ns3:TrackPointExtension>
        </extensions>
      </trkpt>
      <trkpt lat="52.04793157987296581268310546875" lon="1.2261840887367725372314453125">
        <ele>128.399993896484375</ele>
        <time>2025-09-05T11:53:40.000Z</time>
        <extensions>
          <ns3:TrackPointExtension>
            <ns3:hr>158</ns3:hr>
            <ns3:cad>55</ns3:cad>
          </ns3:TrackPointExtension>
        </extensions>
      </trkpt>
      <trkpt lat="52.04794532619416713714599609375" lon="1.22617042623460292816162109375">
        <ele>128.399993896484375</ele>
        <time>2025-09-05T11:53:41.000Z</time>
        <extensions>
          <ns3:TrackPointExtension>
            <ns3:hr>157</ns3:hr>
            <ns3:cad>55</ns3:cad>
          </ns3:TrackPointExtension>
        </extensions>
      </trkpt>
      <trkpt lat="52.04804138280451297760009765625" lon="1.22608744539320468902587890625">
        <ele>128.600006103515625</ele>
        <time>2025-09-05T11:53:49.000Z</time>
        <extensions>
          <ns3:TrackPointExtension>
            <ns3:hr>157</ns3:hr>
            <ns3:cad>0</ns3:cad>
          </ns3:TrackPointExtension>
        </extensions>
      </trkpt>
      <trkpt lat="52.0480822026729583740234375" lon="1.22604570351541042327880859375">
        <ele>128.399993896484375</ele>
        <time>2025-09-05T11:53:53.000Z</time>
        <extensions>
          <ns3:TrackPointExtension>
            <ns3:hr>156</ns3:hr>
            <ns3:cad>0</ns3:cad>
          </ns3:TrackPointExtension>
        </extensions>
      </trkpt>
      <trkpt lat="52.04810039140284061431884765625" lon="1.226018629968166351318359375">
        <ele>128.1999969482421875</ele>
        <time>2025-09-05T11:53:55.000Z</time>
        <extensions>
          <ns3:TrackPointExtension>
            <ns3:hr>155</ns3:hr>
            <ns3:cad>0</ns3:cad>
          </ns3:TrackPointExtension>
        </extensions>
      </trkpt>
      <trkpt lat="52.04818471334874629974365234375" lon="1.22597428970038890838623046875">
        <ele>127.59999847412109375</ele>
        <time>2025-09-05T11:54:02.000Z</time>
        <extensions>
          <ns3:TrackPointExtension>
            <ns3:hr>153</ns3:hr>
            <ns3:cad>0</ns3:cad>
          </ns3:TrackPointExtension>
        </extensions>
      </trkpt>
      <trkpt lat="52.04826132394373416900634765625" lon="1.225908659398555755615234375">
        <ele>127.40000152587890625</ele>
        <time>2025-09-05T11:54:07.000Z</time>
        <extensions>
          <ns3:TrackPointExtension>
            <ns3:hr>156</ns3:hr>
            <ns3:cad>78</ns3:cad>
          </ns3:TrackPointExtension>
        </extensions>
      </trkpt>
      <trkpt lat="52.0482838712632656097412109375" lon="1.22586683370172977447509765625">
        <ele>127.40000152587890625</ele>
        <time>2025-09-05T11:54:09.000Z</time>
        <extensions>
          <ns3:TrackPointExtension>
            <ns3:hr>156</ns3:hr>
            <ns3:cad>80</ns3:cad>
          </ns3:TrackPointExtension>
        </extensions>
      </trkpt>
      <trkpt lat="52.0483410358428955078125" lon="1.225805394351482391357421875">
        <ele>127.1999969482421875</ele>
        <time>2025-09-05T11:54:12.000Z</time>
        <extensions>
          <ns3:TrackPointExtension>
            <ns3:hr>159</ns3:hr>
            <ns3:cad>79</ns3:cad>
          </ns3:TrackPointExtension>
        </extensions>
      </trkpt>
      <trkpt lat="52.04839669167995452880859375" lon="1.2257569469511508941650390625">
        <ele>127.1999969482421875</ele>
        <time>2025-09-05T11:54:14.000Z</time>
        <extensions>
          <ns3:TrackPointExtension>
            <ns3:hr>163</ns3:hr>
            <ns3:cad>79</ns3:cad>
          </ns3:TrackPointExtension>
        </extensions>
      </trkpt>
      <trkpt lat="52.04844824038445949554443359375" lon="1.22571512125432491302490234375">
        <ele>127.1999969482421875</ele>
        <time>2025-09-05T11:54:16.000Z</time>
        <extensions>
          <ns3:TrackPointExtension>
            <ns3:hr>167</ns3:hr>
            <ns3:cad>80</ns3:cad>
          </ns3:TrackPointExtension>
        </extensions>
      </trkpt>
      <trkpt lat="52.04847590066492557525634765625" lon="1.22569777071475982666015625">
        <ele>127.1999969482421875</ele>
        <time>2025-09-05T11:54:17.000Z</time>
        <extensions>
          <ns3:TrackPointExtension>
            <ns3:hr>169</ns3:hr>
            <ns3:cad>80</ns3:cad>
          </ns3:TrackPointExtension>
        </extensions>
      </trkpt>
      <trkpt lat="52.04852518625557422637939453125" lon="1.22566382400691509246826171875">
        <ele>127.1999969482421875</ele>
        <time>2025-09-05T11:54:19.000Z</time>
        <extensions>
          <ns3:TrackPointExtension>
            <ns3:hr>173</ns3:hr>
            <ns3:cad>81</ns3:cad>
          </ns3:TrackPointExtension>
        </extensions>
      </trkpt>
      <trkpt lat="52.0485618151724338531494140625" lon="1.22563398443162441253662109375">
        <ele>127.40000152587890625</ele>
        <time>2025-09-05T11:54:21.000Z</time>
        <extensions>
          <ns3:TrackPointExtension>
            <ns3:hr>176</ns3:hr>
            <ns3:cad>81</ns3:cad>
          </ns3:TrackPointExtension>
        </extensions>
      </trkpt>
      <trkpt lat="52.048601545393466949462890625" lon="1.22561705298721790313720703125">
        <ele>127.40000152587890625</ele>
        <time>2025-09-05T11:54:23.000Z</time>
        <extensions>
          <ns3:TrackPointExtension>
            <ns3:hr>179</ns3:hr>
            <ns3:cad>81</ns3:cad>
          </ns3:TrackPointExtension>
        </extensions>
      </trkpt>
      <trkpt lat="52.04863272607326507568359375" lon="1.22556810267269611358642578125">
        <ele>127.40000152587890625</ele>
        <time>2025-09-05T11:54:25.000Z</time>
        <extensions>
          <ns3:TrackPointExtension>
            <ns3:hr>178</ns3:hr>
            <ns3:cad>80</ns3:cad>
          </ns3:TrackPointExtension>
        </extensions>
      </trkpt>
      <trkpt lat="52.04875267110764980316162109375" lon="1.225426532328128814697265625">
        <ele>127.40000152587890625</ele>
        <time>2025-09-05T11:54:33.000Z</time>
        <extensions>
          <ns3:TrackPointExtension>
            <ns3:hr>182</ns3:hr>
            <ns3:cad>81</ns3:cad>
          </ns3:TrackPointExtension>
        </extensions>
      </trkpt>
      <trkpt lat="52.04890857450664043426513671875" lon="1.2252915836870670318603515625">
        <ele>127.59999847412109375</ele>
        <time>2025-09-05T11:54:42.000Z</time>
        <extensions>
          <ns3:TrackPointExtension>
            <ns3:hr>181</ns3:hr>
            <ns3:cad>78</ns3:cad>
          </ns3:TrackPointExtension>
        </extensions>
      </trkpt>
      <trkpt lat="52.048979736864566802978515625" lon="1.225181110203266143798828125">
        <ele>127.8000030517578125</ele>
        <time>2025-09-05T11:54:46.000Z</time>
        <extensions>
          <ns3:TrackPointExtension>
            <ns3:hr>177</ns3:hr>
            <ns3:cad>80</ns3:cad>
          </ns3:TrackPointExtension>
        </extensions>
      </trkpt>
      <trkpt lat="52.0490231551229953765869140625" lon="1.22509829699993133544921875">
        <ele>128</ele>
        <time>2025-09-05T11:54:49.000Z</time>
        <extensions>
          <ns3:TrackPointExtension>
            <ns3:hr>176</ns3:hr>
            <ns3:cad>80</ns3:cad>
          </ns3:TrackPointExtension>
        </extensions>
      </trkpt>
      <trkpt lat="52.04912046901881694793701171875" lon="1.22498966753482818603515625">
        <ele>128.399993896484375</ele>
        <time>2025-09-05T11:54:53.000Z</time>
        <extensions>
          <ns3:TrackPointExtension>
            <ns3:hr>174</ns3:hr>
            <ns3:cad>79</ns3:cad>
          </ns3:TrackPointExtension>
        </extensions>
      </trkpt>
      <trkpt lat="52.049153745174407958984375" lon="1.22493158094584941864013671875">
        <ele>128.8000030517578125</ele>
        <time>2025-09-05T11:54:55.000Z</time>
        <extensions>
          <ns3:TrackPointExtension>
            <ns3:hr>176</ns3:hr>
            <ns3:cad>79</ns3:cad>
          </ns3:TrackPointExtension>
        </extensions>
      </trkpt>
      <trkpt lat="52.04925592057406902313232421875" lon="1.22487760148942470550537109375">
        <ele>129.1999969482421875</ele>
        <time>2025-09-05T11:55:01.000Z</time>
        <extensions>
          <ns3:TrackPointExtension>
            <ns3:hr>175</ns3:hr>
            <ns3:cad>79</ns3:cad>
          </ns3:TrackPointExtension>
        </extensions>
      </trkpt>
      <trkpt lat="52.04928609542548656463623046875" lon="1.22491163201630115509033203125">
        <ele>129.600006103515625</ele>
        <time>2025-09-05T11:55:03.000Z</time>
        <extensions>
          <ns3:TrackPointExtension>
            <ns3:hr>176</ns3:hr>
            <ns3:cad>0</ns3:cad>
          </ns3:TrackPointExtension>
        </extensions>
      </trkpt>
      <trkpt lat="52.049312330782413482666015625" lon="1.22490358538925647735595703125">
        <ele>130.600006103515625</ele>
        <time>2025-09-05T11:55:09.000Z</time>
        <extensions>
          <ns3:TrackPointExtension>
            <ns3:hr>178</ns3:hr>
            <ns3:cad>0</ns3:cad>
          </ns3:TrackPointExtension>
        </extensions>
      </trkpt>
      <trkpt lat="52.049384750425815582275390625" lon="1.22496292926371097564697265625">
        <ele>130.8000030517578125</ele>
        <time>2025-09-05T11:55:13.000Z</time>
        <extensions>
          <ns3:TrackPointExtension>
            <ns3:hr>175</ns3:hr>
            <ns3:cad>0</ns3:cad>
          </ns3:TrackPointExtension>
        </extensions>
      </trkpt>
      <trkpt lat="52.04939774237573146820068359375" lon="1.22498036362230777740478515625">
        <ele>131</ele>
        <time>2025-09-05T11:55:14.000Z</time>
        <extensions>
          <ns3:TrackPointExtension>
            <ns3:hr>175</ns3:hr>
            <ns3:cad>0</ns3:cad>
          </ns3:TrackPointExtension>
        </extensions>
      </trkpt>
      <trkpt lat="52.0494608581066131591796875" lon="1.2251219339668750762939453125">
        <ele>131.399993896484375</ele>
        <time>2025-09-05T11:55:20.000Z</time>
        <extensions>
          <ns3:TrackPointExtension>
            <ns3:hr>173</ns3:hr>
            <ns3:cad>0</ns3:cad>
          </ns3:TrackPointExtension>
        </extensions>
      </trkpt>
      <trkpt lat="52.04952380619943141937255859375" lon="1.22524724341928958892822265625">
        <ele>131.600006103515625</ele>
        <time>2025-09-05T11:55:26.000Z</time>
        <extensions>
          <ns3:TrackPointExtension>
            <ns3:hr>170</ns3:hr>
            <ns3:cad>61</ns3:cad>
          </ns3:TrackPointExtension>
        </extensions>
      </trkpt>
      <trkpt lat="52.0495324395596981048583984375" lon="1.22526534833014011383056640625">
        <ele>131.8000030517578125</ele>
        <time>2025-09-05T11:55:27.000Z</time>
        <extensions>
          <ns3:TrackPointExtension>
            <ns3:hr>171</ns3:hr>
            <ns3:cad>61</ns3:cad>
          </ns3:TrackPointExtension>
        </extensions>
      </trkpt>
      <trkpt lat="52.0495562441647052764892578125" lon="1.2253103591501712799072265625">
        <ele>131.8000030517578125</ele>
        <time>2025-09-05T11:55:30.000Z</time>
        <extensions>
          <ns3:TrackPointExtension>
            <ns3:hr>168</ns3:hr>
            <ns3:cad>61</ns3:cad>
          </ns3:TrackPointExtension>
        </extensions>
      </trkpt>
      <trkpt lat="52.049581222236156463623046875" lon="1.22538252733647823333740234375">
        <ele>132</ele>
        <time>2025-09-05T11:55:34.000Z</time>
        <extensions>
          <ns3:TrackPointExtension>
            <ns3:hr>168</ns3:hr>
            <ns3:cad>61</ns3:cad>
          </ns3:TrackPointExtension>
        </extensions>
      </trkpt>
      <trkpt lat="52.04959656111896038055419921875" lon="1.22542418539524078369140625">
        <ele>132.399993896484375</ele>
        <time>2025-09-05T11:55:36.000Z</time>
        <extensions>
          <ns3:TrackPointExtension>
            <ns3:hr>171</ns3:hr>
            <ns3:cad>61</ns3:cad>
          </ns3:TrackPointExtension>
        </extensions>
      </trkpt>
      <trkpt lat="52.04961969517171382904052734375" lon="1.2254583835601806640625">
        <ele>132.8000030517578125</ele>
        <time>2025-09-05T11:55:38.000Z</time>
        <extensions>
          <ns3:TrackPointExtension>
            <ns3:hr>170</ns3:hr>
            <ns3:cad>60</ns3:cad>
          </ns3:TrackPointExtension>
        </extensions>
      </trkpt>
      <trkpt lat="52.04964836128056049346923828125" lon="1.22549417428672313690185546875">
        <ele>133.1999969482421875</ele>
        <time>2025-09-05T11:55:41.000Z</time>
        <extensions>
          <ns3:TrackPointExtension>
            <ns3:hr>169</ns3:hr>
            <ns3:cad>62</ns3:cad>
          </ns3:TrackPointExtension>
        </extensions>
      </trkpt>
      <trkpt lat="52.0497091300785541534423828125" lon="1.225561313331127166748046875">
        <ele>133.399993896484375</ele>
        <time>2025-09-05T11:55:46.000Z</time>
        <extensions>
          <ns3:TrackPointExtension>
            <ns3:hr>166</ns3:hr>
            <ns3:cad>62</ns3:cad>
          </ns3:TrackPointExtension>
        </extensions>
      </trkpt>
      <trkpt lat="52.04972044564783573150634765625" lon="1.22556743212044239044189453125">
        <ele>133.399993896484375</ele>
        <time>2025-09-05T11:55:47.000Z</time>
        <extensions>
          <ns3:TrackPointExtension>
            <ns3:hr>163</ns3:hr>
            <ns3:cad>61</ns3:cad>
          </ns3:TrackPointExtension>
        </extensions>
      </trkpt>
      <trkpt lat="52.0497456751763820648193359375" lon="1.22563348151743412017822265625">
        <ele>134</ele>
        <time>2025-09-05T11:55:52.000Z</time>
        <extensions>
          <ns3:TrackPointExtension>
            <ns3:hr>162</ns3:hr>
            <ns3:cad>61</ns3:cad>
          </ns3:TrackPointExtension>
        </extensions>
      </trkpt>
      <trkpt lat="52.04976252280175685882568359375" lon="1.2256674282252788543701171875">
        <ele>134</ele>
        <time>2025-09-05T11:55:54.000Z</time>
        <extensions>
          <ns3:TrackPointExtension>
            <ns3:hr>164</ns3:hr>
            <ns3:cad>61</ns3:cad>
          </ns3:TrackPointExtension>
        </extensions>
      </trkpt>
      <trkpt lat="52.0498147420585155487060546875" lon="1.2257435359060764312744140625">
        <ele>134.600006103515625</ele>
        <time>2025-09-05T11:55:59.000Z</time>
        <extensions>
          <ns3:TrackPointExtension>
            <ns3:hr>161</ns3:hr>
            <ns3:cad>62</ns3:cad>
          </ns3:TrackPointExtension>
        </extensions>
      </trkpt>
      <trkpt lat="52.0498358644545078277587890625" lon="1.225787959992885589599609375">
        <ele>135</ele>
        <time>2025-09-05T11:56:01.000Z</time>
        <extensions>
          <ns3:TrackPointExtension>
            <ns3:hr>161</ns3:hr>
            <ns3:cad>62</ns3:cad>
          </ns3:TrackPointExtension>
        </extensions>
      </trkpt>
      <trkpt lat="52.04985153861343860626220703125" lon="1.22581503354012966156005859375">
        <ele>135</ele>
        <time>2025-09-05T11:56:02.000Z</time>
        <extensions>
          <ns3:TrackPointExtension>
            <ns3:hr>161</ns3:hr>
            <ns3:cad>61</ns3:cad>
          </ns3:TrackPointExtension>
        </extensions>
      </trkpt>
      <trkpt lat="52.04995430074632167816162109375" lon="1.22599490918219089508056640625">
        <ele>136</ele>
        <time>2025-09-05T11:56:09.000Z</time>
        <extensions>
          <ns3:TrackPointExtension>
            <ns3:hr>160</ns3:hr>
            <ns3:cad>61</ns3:cad>
          </ns3:TrackPointExtension>
        </extensions>
      </trkpt>
      <trkpt lat="52.04998900182545185089111328125" lon="1.22608727775514125823974609375">
        <ele>136.399993896484375</ele>
        <time>2025-09-05T11:56:12.000Z</time>
        <extensions>
          <ns3:TrackPointExtension>
            <ns3:hr>158</ns3:hr>
            <ns3:cad>61</ns3:cad>
          </ns3:TrackPointExtension>
        </extensions>
      </trkpt>
      <trkpt lat="52.049989588558673858642578125" lon="1.22610605321824550628662109375">
        <ele>136.8000030517578125</ele>
        <time>2025-09-05T11:56:15.000Z</time>
        <extensions>
          <ns3:TrackPointExtension>
            <ns3:hr>155</ns3:hr>
            <ns3:cad>0</ns3:cad>
          </ns3:TrackPointExtension>
        </extensions>
      </trkpt>
      <trkpt lat="52.04997106455266475677490234375" lon="1.22609213925898075103759765625">
        <ele>137</ele>
        <time>2025-09-05T11:56:19.000Z</time>
        <extensions>
          <ns3:TrackPointExtension>
            <ns3:hr>155</ns3:hr>
            <ns3:cad>0</ns3:cad>
          </ns3:TrackPointExtension>
        </extensions>
      </trkpt>
      <trkpt lat="52.04996737651526927947998046875" lon="1.22607730329036712646484375">
        <ele>137.1999969482421875</ele>
        <time>2025-09-05T11:56:20.000Z</time>
        <extensions>
          <ns3:TrackPointExtension>
            <ns3:hr>155</ns3:hr>
            <ns3:cad>0</ns3:cad>
          </ns3:TrackPointExtension>
        </extensions>
      </trkpt>
      <trkpt lat="52.04996838234364986419677734375" lon="1.22606330551207065582275390625">
        <ele>137.1999969482421875</ele>
        <time>2025-09-05T11:56:22.000Z</time>
        <extensions>
          <ns3:TrackPointExtension>
            <ns3:hr>152</ns3:hr>
            <ns3:cad>0</ns3:cad>
          </ns3:TrackPointExtension>
        </extensions>
      </trkpt>
      <trkpt lat="52.05000811256468296051025390625" lon="1.22603095136582851409912109375">
        <ele>137.1999969482421875</ele>
        <time>2025-09-05T11:56:26.000Z</time>
        <extensions>
          <ns3:TrackPointExtension>
            <ns3:hr>154</ns3:hr>
            <ns3:cad>59</ns3:cad>
          </ns3:TrackPointExtension>
        </extensions>
      </trkpt>
      <trkpt lat="52.0500509440898895263671875" lon="1.226021982729434967041015625">
        <ele>137.1999969482421875</ele>
        <time>2025-09-05T11:56:29.000Z</time>
        <extensions>
          <ns3:TrackPointExtension>
            <ns3:hr>150</ns3:hr>
            <ns3:cad>58</ns3:cad>
          </ns3:TrackPointExtension>
        </extensions>
      </trkpt>
      <trkpt lat="52.05010366626083850860595703125" lon="1.2260015308856964111328125">
        <ele>137.399993896484375</ele>
        <time>2025-09-05T11:56:37.000Z</time>
        <extensions>
          <ns3:TrackPointExtension>
            <ns3:hr>151</ns3:hr>
            <ns3:cad>60</ns3:cad>
          </ns3:TrackPointExtension>
        </extensions>
      </trkpt>
      <trkpt lat="52.05014842562377452850341796875" lon="1.225957609713077545166015625">
        <ele>137.600006103515625</ele>
        <time>2025-09-05T11:56:43.000Z</time>
        <extensions>
          <ns3:TrackPointExtension>
            <ns3:hr>148</ns3:hr>
            <ns3:cad>59</ns3:cad>
          </ns3:TrackPointExtension>
        </extensions>
      </trkpt>
      <trkpt lat="52.05020223744213581085205078125" lon="1.22593807987868785858154296875">
        <ele>138.1999969482421875</ele>
        <time>2025-09-05T11:56:46.000Z</time>
        <extensions>
          <ns3:TrackPointExtension>
            <ns3:hr>151</ns3:hr>
            <ns3:cad>52</ns3:cad>
          </ns3:TrackPointExtension>
        </extensions>
      </trkpt>
      <trkpt lat="52.05023727379739284515380859375" lon="1.22592768631875514984130859375">
        <ele>138.399993896484375</ele>
        <time>2025-09-05T11:56:48.000Z</time>
        <extensions>
          <ns3:TrackPointExtension>
            <ns3:hr>148</ns3:hr>
            <ns3:cad>61</ns3:cad>
          </ns3:TrackPointExtension>
        </extensions>
      </trkpt>
      <trkpt lat="52.05025940202176570892333984375" lon="1.2259044684469699859619140625">
        <ele>138.8000030517578125</ele>
        <time>2025-09-05T11:56:50.000Z</time>
        <extensions>
          <ns3:TrackPointExtension>
            <ns3:hr>147</ns3:hr>
            <ns3:cad>61</ns3:cad>
          </ns3:TrackPointExtension>
        </extensions>
      </trkpt>
      <trkpt lat="52.05026929266750812530517578125" lon="1.22590455226600170135498046875">
        <ele>139.1999969482421875</ele>
        <time>2025-09-05T11:56:51.000Z</time>
        <extensions>
          <ns3:TrackPointExtension>
            <ns3:hr>147</ns3:hr>
            <ns3:cad>61</ns3:cad>
          </ns3:TrackPointExtension>
        </extensions>
      </trkpt>
      <trkpt lat="52.05030508339405059814453125" lon="1.2259027920663356781005859375">
        <ele>142.600006103515625</ele>
        <time>2025-09-05T11:56:53.000Z</time>
        <extensions>
          <ns3:TrackPointExtension>
            <ns3:hr>145</ns3:hr>
            <ns3:cad>61</ns3:cad>
          </ns3:TrackPointExtension>
        </extensions>
      </trkpt>
      <trkpt lat="52.050330229103565216064453125" lon="1.22590564191341400146484375">
        <ele>144.1999969482421875</ele>
        <time>2025-09-05T11:56:54.000Z</time>
        <extensions>
          <ns3:TrackPointExtension>
            <ns3:hr>145</ns3:hr>
            <ns3:cad>61</ns3:cad>
          </ns3:TrackPointExtension>
        </extensions>
      </trkpt>
      <trkpt lat="52.05035604536533355712890625" lon="1.22591008432209491729736328125">
        <ele>145</ele>
        <time>2025-09-05T11:56:55.000Z</time>
        <extensions>
          <ns3:TrackPointExtension>
            <ns3:hr>144</ns3:hr>
            <ns3:cad>72</ns3:cad>
          </ns3:TrackPointExtension>
        </extensions>
      </trkpt>
      <trkpt lat="52.050385884940624237060546875" lon="1.22590824030339717864990234375">
        <ele>145.399993896484375</ele>
        <time>2025-09-05T11:56:56.000Z</time>
        <extensions>
          <ns3:TrackPointExtension>
            <ns3:hr>144</ns3:hr>
            <ns3:cad>75</ns3:cad>
          </ns3:TrackPointExtension>
        </extensions>
      </trkpt>
      <trkpt lat="52.0504916645586490631103515625" lon="1.22591494582593441009521484375">
        <ele>145.8000030517578125</ele>
        <time>2025-09-05T11:57:01.000Z</time>
        <extensions>
          <ns3:TrackPointExtension>
            <ns3:hr>141</ns3:hr>
            <ns3:cad>78</ns3:cad>
          </ns3:TrackPointExtension>
        </extensions>
      </trkpt>
      <trkpt lat="52.05055226571857929229736328125" lon="1.22591796331107616424560546875">
        <ele>144</ele>
        <time>2025-09-05T11:57:03.000Z</time>
        <extensions>
          <ns3:TrackPointExtension>
            <ns3:hr>144</ns3:hr>
            <ns3:cad>80</ns3:cad>
          </ns3:TrackPointExtension>
        </extensions>
      </trkpt>
      <trkpt lat="52.050582356750965118408203125" lon="1.22591461054980754852294921875">
        <ele>142.8000030517578125</ele>
        <time>2025-09-05T11:57:05.000Z</time>
        <extensions>
          <ns3:TrackPointExtension>
            <ns3:hr>151</ns3:hr>
            <ns3:cad>80</ns3:cad>
          </ns3:TrackPointExtension>
        </extensions>
      </trkpt>
      <trkpt lat="52.05060222186148166656494140625" lon="1.225913353264331817626953125">
        <ele>142.600006103515625</ele>
        <time>2025-09-05T11:57:06.000Z</time>
        <extensions>
          <ns3:TrackPointExtension>
            <ns3:hr>154</ns3:hr>
            <ns3:cad>80</ns3:cad>
          </ns3:TrackPointExtension>
        </extensions>
      </trkpt>
      <trkpt lat="52.05064094625413417816162109375" lon="1.225904636085033416748046875">
        <ele>142.399993896484375</ele>
        <time>2025-09-05T11:57:08.000Z</time>
        <extensions>
          <ns3:TrackPointExtension>
            <ns3:hr>158</ns3:hr>
            <ns3:cad>80</ns3:cad>
          </ns3:TrackPointExtension>
        </extensions>
      </trkpt>
      <trkpt lat="52.0506596378982067108154296875" lon="1.2259007804095745086669921875">
        <ele>142</ele>
        <time>2025-09-05T11:57:09.000Z</time>
        <extensions>
          <ns3:TrackPointExtension>
            <ns3:hr>161</ns3:hr>
            <ns3:cad>80</ns3:cad>
          </ns3:TrackPointExtension>
        </extensions>
      </trkpt>
      <trkpt lat="52.0506812632083892822265625" lon="1.2258991040289402008056640625">
        <ele>141.600006103515625</ele>
        <time>2025-09-05T11:57:10.000Z</time>
        <extensions>
          <ns3:TrackPointExtension>
            <ns3:hr>162</ns3:hr>
            <ns3:cad>80</ns3:cad>
          </ns3:TrackPointExtension>
        </extensions>
      </trkpt>
      <trkpt lat="52.050707750022411346435546875" lon="1.22589717619121074676513671875">
        <ele>141.1999969482421875</ele>
        <time>2025-09-05T11:57:11.000Z</time>
        <extensions>
          <ns3:TrackPointExtension>
            <ns3:hr>164</ns3:hr>
            <ns3:cad>80</ns3:cad>
          </ns3:TrackPointExtension>
        </extensions>
      </trkpt>
      <trkpt lat="52.05072979442775249481201171875" lon="1.22589348815381526947021484375">
        <ele>140.399993896484375</ele>
        <time>2025-09-05T11:57:12.000Z</time>
        <extensions>
          <ns3:TrackPointExtension>
            <ns3:hr>164</ns3:hr>
            <ns3:cad>79</ns3:cad>
          </ns3:TrackPointExtension>
        </extensions>
      </trkpt>
      <trkpt lat="52.0507692731916904449462890625" lon="1.22588728554546833038330078125">
        <ele>138.8000030517578125</ele>
        <time>2025-09-05T11:57:14.000Z</time>
        <extensions>
          <ns3:TrackPointExtension>
            <ns3:hr>166</ns3:hr>
            <ns3:cad>78</ns3:cad>
          </ns3:TrackPointExtension>
        </extensions>
      </trkpt>
      <trkpt lat="52.05081227235496044158935546875" lon="1.22587488032877445220947265625">
        <ele>137.600006103515625</ele>
        <time>2025-09-05T11:57:17.000Z</time>
        <extensions>
          <ns3:TrackPointExtension>
            <ns3:hr>167</ns3:hr>
            <ns3:cad>79</ns3:cad>
          </ns3:TrackPointExtension>
        </extensions>
      </trkpt>
      <trkpt lat="52.05083440057933330535888671875" lon="1.22586683370172977447509765625">
        <ele>136.399993896484375</ele>
        <time>2025-09-05T11:57:19.000Z</time>
        <extensions>
          <ns3:TrackPointExtension>
            <ns3:hr>169</ns3:hr>
            <ns3:cad>79</ns3:cad>
          </ns3:TrackPointExtension>
        </extensions>
      </trkpt>
      <trkpt lat="52.05085166729986667633056640625" lon="1.22586482204496860504150390625">
        <ele>135</ele>
        <time>2025-09-05T11:57:22.000Z</time>
        <extensions>
          <ns3:TrackPointExtension>
            <ns3:hr>169</ns3:hr>
            <ns3:cad>0</ns3:cad>
          </ns3:TrackPointExtension>
        </extensions>
      </trkpt>
      <trkpt lat="52.0508668385446071624755859375" lon="1.2258459627628326416015625">
        <ele>133.8000030517578125</ele>
        <time>2025-09-05T11:57:25.000Z</time>
        <extensions>
          <ns3:TrackPointExtension>
            <ns3:hr>171</ns3:hr>
            <ns3:cad>0</ns3:cad>
          </ns3:TrackPointExtension>
        </extensions>
      </trkpt>
      <trkpt lat="52.0508789084851741790771484375" lon="1.2258340604603290557861328125">
        <ele>133.399993896484375</ele>
        <time>2025-09-05T11:57:27.000Z</time>
        <extensions>
          <ns3:TrackPointExtension>
            <ns3:hr>170</ns3:hr>
            <ns3:cad>0</ns3:cad>
          </ns3:TrackPointExtension>
        </extensions>
      </trkpt>
      <trkpt lat="52.0508956722915172576904296875" lon="1.22582358308136463165283203125">
        <ele>132.600006103515625</ele>
        <time>2025-09-05T11:57:34.000Z</time>
        <extensions>
          <ns3:TrackPointExtension>
            <ns3:hr>172</ns3:hr>
            <ns3:cad>0</ns3:cad>
          </ns3:TrackPointExtension>
        </extensions>
      </trkpt>
      <trkpt lat="52.05091671086847782135009765625" lon="1.22581084258854389190673828125">
        <ele>132</ele>
        <time>2025-09-05T11:57:36.000Z</time>
        <extensions>
          <ns3:TrackPointExtension>
            <ns3:hr>169</ns3:hr>
            <ns3:cad>0</ns3:cad>
          </ns3:TrackPointExtension>
        </extensions>
      </trkpt>
      <trkpt lat="52.05097085796296596527099609375" lon="1.2257760576903820037841796875">
        <ele>131.399993896484375</ele>
        <time>2025-09-05T11:57:40.000Z</time>
        <extensions>
          <ns3:TrackPointExtension>
            <ns3:hr>169</ns3:hr>
            <ns3:cad>75</ns3:cad>
          </ns3:TrackPointExtension>
        </extensions>
      </trkpt>
      <trkpt lat="52.0510441996157169342041015625" lon="1.22577966190874576568603515625">
        <ele>130.1999969482421875</ele>
        <time>2025-09-05T11:57:45.000Z</time>
        <extensions>
          <ns3:TrackPointExtension>
            <ns3:hr>170</ns3:hr>
            <ns3:cad>77</ns3:cad>
          </ns3:TrackPointExtension>
        </extensions>
      </trkpt>
      <trkpt lat="52.051093317568302154541015625" lon="1.2257842719554901123046875">
        <ele>129</ele>
        <time>2025-09-05T11:57:47.000Z</time>
        <extensions>
          <ns3:TrackPointExtension>
            <ns3:hr>170</ns3:hr>
            <ns3:cad>77</ns3:cad>
          </ns3:TrackPointExtension>
        </extensions>
      </trkpt>
      <trkpt lat="52.05115961842238903045654296875" lon="1.22577287256717681884765625">
        <ele>128.600006103515625</ele>
        <time>2025-09-05T11:57:50.000Z</time>
        <extensions>
          <ns3:TrackPointExtension>
            <ns3:hr>174</ns3:hr>
            <ns3:cad>78</ns3:cad>
          </ns3:TrackPointExtension>
        </extensions>
      </trkpt>
      <trkpt lat="52.0512386597692966461181640625" lon="1.22577379457652568817138671875">
        <ele>128.1999969482421875</ele>
        <time>2025-09-05T11:57:54.000Z</time>
        <extensions>
          <ns3:TrackPointExtension>
            <ns3:hr>177</ns3:hr>
            <ns3:cad>77</ns3:cad>
          </ns3:TrackPointExtension>
        </extensions>
      </trkpt>
      <trkpt lat="52.05132323317229747772216796875" lon="1.22576943598687648773193359375">
        <ele>130.399993896484375</ele>
        <time>2025-09-05T11:57:59.000Z</time>
        <extensions>
          <ns3:TrackPointExtension>
            <ns3:hr>178</ns3:hr>
            <ns3:cad>78</ns3:cad>
          </ns3:TrackPointExtension>
        </extensions>
      </trkpt>
      <trkpt lat="52.05139146186411380767822265625" lon="1.2257509119808673858642578125">
        <ele>131.600006103515625</ele>
        <time>2025-09-05T11:58:02.000Z</time>
        <extensions>
          <ns3:TrackPointExtension>
            <ns3:hr>178</ns3:hr>
            <ns3:cad>79</ns3:cad>
          </ns3:TrackPointExtension>
        </extensions>
      </trkpt>
      <trkpt lat="52.05141794867813587188720703125" lon="1.225763820111751556396484375">
        <ele>132</ele>
        <time>2025-09-05T11:58:03.000Z</time>
        <extensions>
          <ns3:TrackPointExtension>
            <ns3:hr>175</ns3:hr>
            <ns3:cad>78</ns3:cad>
          </ns3:TrackPointExtension>
        </extensions>
      </trkpt>
      <trkpt lat="52.0514803938567638397216796875" lon="1.2257730402052402496337890625">
        <ele>132.600006103515625</ele>
        <time>2025-09-05T11:58:06.000Z</time>
        <extensions>
          <ns3:TrackPointExtension>
            <ns3:hr>175</ns3:hr>
            <ns3:cad>78</ns3:cad>
          </ns3:TrackPointExtension>
        </extensions>
      </trkpt>
      <trkpt lat="52.05153127200901508331298828125" lon="1.22578301467001438140869140625">
        <ele>133.1999969482421875</ele>
        <time>2025-09-05T11:58:09.000Z</time>
        <extensions>
          <ns3:TrackPointExtension>
            <ns3:hr>174</ns3:hr>
            <ns3:cad>78</ns3:cad>
          </ns3:TrackPointExtension>
        </extensions>
      </trkpt>
      <trkpt lat="52.051575444638729095458984375" lon="1.22575082816183567047119140625">
        <ele>133.399993896484375</ele>
        <time>2025-09-05T11:58:12.000Z</time>
        <extensions>
          <ns3:TrackPointExtension>
            <ns3:hr>171</ns3:hr>
            <ns3:cad>72</ns3:cad>
          </ns3:TrackPointExtension>
        </extensions>
      </trkpt>
      <trkpt lat="52.0515953935682773590087890625" lon="1.2257435359060764312744140625">
        <ele>134</ele>
        <time>2025-09-05T11:58:13.000Z</time>
        <extensions>
          <ns3:TrackPointExtension>
            <ns3:hr>169</ns3:hr>
            <ns3:cad>72</ns3:cad>
          </ns3:TrackPointExtension>
        </extensions>
      </trkpt>
      <trkpt lat="52.05166253261268138885498046875" lon="1.22572551481425762176513671875">
        <ele>136</ele>
        <time>2025-09-05T11:58:16.000Z</time>
        <extensions>
          <ns3:TrackPointExtension>
            <ns3:hr>166</ns3:hr>
            <ns3:cad>75</ns3:cad>
          </ns3:TrackPointExtension>
        </extensions>
      </trkpt>
      <trkpt lat="52.05170712433755397796630859375" lon="1.2257198989391326904296875">
        <ele>137</ele>
        <time>2025-09-05T11:58:18.000Z</time>
        <extensions>
          <ns3:TrackPointExtension>
            <ns3:hr>165</ns3:hr>
            <ns3:cad>78</ns3:cad>
          </ns3:TrackPointExtension>
        </extensions>
      </trkpt>
      <trkpt lat="52.051782645285129547119140625" lon="1.225734315812587738037109375">
        <ele>138.399993896484375</ele>
        <time>2025-09-05T11:58:23.000Z</time>
        <extensions>
          <ns3:TrackPointExtension>
            <ns3:hr>164</ns3:hr>
            <ns3:cad>75</ns3:cad>
          </ns3:TrackPointExtension>
        </extensions>
      </trkpt>
      <trkpt lat="52.05182329751551151275634765625" lon="1.22573305852711200714111328125">
        <ele>139</ele>
        <time>2025-09-05T11:58:25.000Z</time>
        <extensions>
          <ns3:TrackPointExtension>
            <ns3:hr>161</ns3:hr>
            <ns3:cad>74</ns3:cad>
          </ns3:TrackPointExtension>
        </extensions>
      </trkpt>
      <trkpt lat="52.0518480241298675537109375" lon="1.22572819702327251434326171875">
        <ele>140</ele>
        <time>2025-09-05T11:58:26.000Z</time>
        <extensions>
          <ns3:TrackPointExtension>
            <ns3:hr>162</ns3:hr>
            <ns3:cad>75</ns3:cad>
          </ns3:TrackPointExtension>
        </extensions>
      </trkpt>
      <trkpt lat="52.05186604522168636322021484375" lon="1.22571310959756374359130859375">
        <ele>141</ele>
        <time>2025-09-05T11:58:27.000Z</time>
        <extensions>
          <ns3:TrackPointExtension>
            <ns3:hr>165</ns3:hr>
            <ns3:cad>77</ns3:cad>
          </ns3:TrackPointExtension>
        </extensions>
      </trkpt>
      <trkpt lat="52.0518874190747737884521484375" lon="1.225701458752155303955078125">
        <ele>142.600006103515625</ele>
        <time>2025-09-05T11:58:28.000Z</time>
        <extensions>
          <ns3:TrackPointExtension>
            <ns3:hr>165</ns3:hr>
            <ns3:cad>77</ns3:cad>
          </ns3:TrackPointExtension>
        </extensions>
      </trkpt>
      <trkpt lat="52.05191130749881267547607421875" lon="1.2256972678005695343017578125">
        <ele>143.8000030517578125</ele>
        <time>2025-09-05T11:58:29.000Z</time>
        <extensions>
          <ns3:TrackPointExtension>
            <ns3:hr>165</ns3:hr>
            <ns3:cad>77</ns3:cad>
          </ns3:TrackPointExtension>
        </extensions>
      </trkpt>
      <trkpt lat="52.0519320107996463775634765625" lon="1.22571109794080257415771484375">
        <ele>144.8000030517578125</ele>
        <time>2025-09-05T11:58:31.000Z</time>
        <extensions>
          <ns3:TrackPointExtension>
            <ns3:hr>167</ns3:hr>
            <ns3:cad>0</ns3:cad>
          </ns3:TrackPointExtension>
        </extensions>
      </trkpt>
      <trkpt lat="52.051927149295806884765625" lon="1.22571847401559352874755859375">
        <ele>144.8000030517578125</ele>
        <time>2025-09-05T11:58:32.000Z</time>
        <extensions>
          <ns3:TrackPointExtension>
            <ns3:hr>166</ns3:hr>
            <ns3:cad>0</ns3:cad>
          </ns3:TrackPointExtension>
        </extensions>
      </trkpt>
      <trkpt lat="52.051918767392635345458984375" lon="1.225738339126110076904296875">
        <ele>145</ele>
        <time>2025-09-05T11:58:36.000Z</time>
        <extensions>
          <ns3:TrackPointExtension>
            <ns3:hr>169</ns3:hr>
            <ns3:cad>0</ns3:cad>
          </ns3:TrackPointExtension>
        </extensions>
      </trkpt>
      <trkpt lat="52.0519266463816165924072265625" lon="1.2257425300776958465576171875">
        <ele>143</ele>
        <time>2025-09-05T11:58:39.000Z</time>
        <extensions>
          <ns3:TrackPointExtension>
            <ns3:hr>169</ns3:hr>
            <ns3:cad>0</ns3:cad>
          </ns3:TrackPointExtension>
        </extensions>
      </trkpt>
      <trkpt lat="52.05193988978862762451171875" lon="1.22574127279222011566162109375">
        <ele>141</ele>
        <time>2025-09-05T11:58:40.000Z</time>
        <extensions>
          <ns3:TrackPointExtension>
            <ns3:hr>167</ns3:hr>
            <ns3:cad>0</ns3:cad>
          </ns3:TrackPointExtension>
        </extensions>
      </trkpt>
      <trkpt lat="52.0519714057445526123046875" lon="1.22574177570641040802001953125">
        <ele>139.399993896484375</ele>
        <time>2025-09-05T11:58:41.000Z</time>
        <extensions>
          <ns3:TrackPointExtension>
            <ns3:hr>166</ns3:hr>
            <ns3:cad>53</ns3:cad>
          </ns3:TrackPointExtension>
        </extensions>
      </trkpt>
      <trkpt lat="52.051987834274768829345703125" lon="1.225739009678363800048828125">
        <ele>138.399993896484375</ele>
        <time>2025-09-05T11:58:42.000Z</time>
        <extensions>
          <ns3:TrackPointExtension>
            <ns3:hr>165</ns3:hr>
            <ns3:cad>57</ns3:cad>
          </ns3:TrackPointExtension>
        </extensions>
      </trkpt>
      <trkpt lat="52.052029408514499664306640625" lon="1.22573859058320522308349609375">
        <ele>137.600006103515625</ele>
        <time>2025-09-05T11:58:43.000Z</time>
        <extensions>
          <ns3:TrackPointExtension>
            <ns3:hr>164</ns3:hr>
            <ns3:cad>58</ns3:cad>
          </ns3:TrackPointExtension>
        </extensions>
      </trkpt>
      <trkpt lat="52.05205388367176055908203125" lon="1.2257359921932220458984375">
        <ele>137</ele>
        <time>2025-09-05T11:58:44.000Z</time>
        <extensions>
          <ns3:TrackPointExtension>
            <ns3:hr>164</ns3:hr>
            <ns3:cad>59</ns3:cad>
          </ns3:TrackPointExtension>
        </extensions>
      </trkpt>
      <trkpt lat="52.05211834050714969635009765625" lon="1.225736327469348907470703125">
        <ele>135.600006103515625</ele>
        <time>2025-09-05T11:58:49.000Z</time>
        <extensions>
          <ns3:TrackPointExtension>
            <ns3:hr>162</ns3:hr>
            <ns3:cad>58</ns3:cad>
          </ns3:TrackPointExtension>
        </extensions>
      </trkpt>
      <trkpt lat="52.05215270631015300750732421875" lon="1.22574831359088420867919921875">
        <ele>134.399993896484375</ele>
        <time>2025-09-05T11:58:52.000Z</time>
        <extensions>
          <ns3:TrackPointExtension>
            <ns3:hr>160</ns3:hr>
            <ns3:cad>60</ns3:cad>
          </ns3:TrackPointExtension>
        </extensions>
      </trkpt>
      <trkpt lat="52.05216653645038604736328125" lon="1.22575200162827968597412109375">
        <ele>133.8000030517578125</ele>
        <time>2025-09-05T11:58:53.000Z</time>
        <extensions>
          <ns3:TrackPointExtension>
            <ns3:hr>162</ns3:hr>
            <ns3:cad>60</ns3:cad>
          </ns3:TrackPointExtension>
        </extensions>
      </trkpt>
      <trkpt lat="52.052178941667079925537109375" lon="1.2257559411227703094482421875">
        <ele>133</ele>
        <time>2025-09-05T11:58:54.000Z</time>
        <extensions>
          <ns3:TrackPointExtension>
            <ns3:hr>160</ns3:hr>
            <ns3:cad>60</ns3:cad>
          </ns3:TrackPointExtension>
        </extensions>
      </trkpt>
      <trkpt lat="52.05222445540130138397216796875" lon="1.225751750171184539794921875">
        <ele>132</ele>
        <time>2025-09-05T11:58:56.000Z</time>
        <extensions>
          <ns3:TrackPointExtension>
            <ns3:hr>162</ns3:hr>
            <ns3:cad>60</ns3:cad>
          </ns3:TrackPointExtension>
        </extensions>
      </trkpt>
      <trkpt lat="52.0522686280310153961181640625" lon="1.22574579901993274688720703125">
        <ele>130.8000030517578125</ele>
        <time>2025-09-05T11:58:58.000Z</time>
        <extensions>
          <ns3:TrackPointExtension>
            <ns3:hr>162</ns3:hr>
            <ns3:cad>59</ns3:cad>
          </ns3:TrackPointExtension>
        </extensions>
      </trkpt>
      <trkpt lat="52.05231330357491970062255859375" lon="1.22574479319155216217041015625">
        <ele>130.399993896484375</ele>
        <time>2025-09-05T11:59:00.000Z</time>
        <extensions>
          <ns3:TrackPointExtension>
            <ns3:hr>156</ns3:hr>
            <ns3:cad>60</ns3:cad>
          </ns3:TrackPointExtension>
        </extensions>
      </trkpt>
      <trkpt lat="52.05236409790813922882080078125" lon="1.22574009932577610015869140625">
        <ele>129.8000030517578125</ele>
        <time>2025-09-05T11:59:03.000Z</time>
        <extensions>
          <ns3:TrackPointExtension>
            <ns3:hr>152</ns3:hr>
            <ns3:cad>61</ns3:cad>
          </ns3:TrackPointExtension>
        </extensions>
      </trkpt>
      <trkpt lat="52.05238086171448230743408203125" lon="1.22573993168771266937255859375">
        <ele>129.1999969482421875</ele>
        <time>2025-09-05T11:59:04.000Z</time>
        <extensions>
          <ns3:TrackPointExtension>
            <ns3:hr>151</ns3:hr>
            <ns3:cad>61</ns3:cad>
          </ns3:TrackPointExtension>
        </extensions>
      </trkpt>
      <trkpt lat="52.05239226110279560089111328125" lon="1.2257398478686809539794921875">
        <ele>128.600006103515625</ele>
        <time>2025-09-05T11:59:05.000Z</time>
        <extensions>
          <ns3:TrackPointExtension>
            <ns3:hr>150</ns3:hr>
            <ns3:cad>60</ns3:cad>
          </ns3:TrackPointExtension>
        </extensions>
      </trkpt>
      <trkpt lat="52.0524037443101406097412109375" lon="1.22573808766901493072509765625">
        <ele>128</ele>
        <time>2025-09-05T11:59:06.000Z</time>
        <extensions>
          <ns3:TrackPointExtension>
            <ns3:hr>149</ns3:hr>
            <ns3:cad>60</ns3:cad>
          </ns3:TrackPointExtension>
        </extensions>
      </trkpt>
      <trkpt lat="52.0524359308183193206787109375" lon="1.225735656917095184326171875">
        <ele>126.8000030517578125</ele>
        <time>2025-09-05T11:59:09.000Z</time>
        <extensions>
          <ns3:TrackPointExtension>
            <ns3:hr>147</ns3:hr>
            <ns3:cad>62</ns3:cad>
          </ns3:TrackPointExtension>
        </extensions>
      </trkpt>
      <trkpt lat="52.052479349076747894287109375" lon="1.22572350315749645233154296875">
        <ele>125.59999847412109375</ele>
        <time>2025-09-05T11:59:13.000Z</time>
        <extensions>
          <ns3:TrackPointExtension>
            <ns3:hr>144</ns3:hr>
            <ns3:cad>60</ns3:cad>
          </ns3:TrackPointExtension>
        </extensions>
      </trkpt>
      <trkpt lat="52.0524890720844268798828125" lon="1.225728280842304229736328125">
        <ele>124.40000152587890625</ele>
        <time>2025-09-05T11:59:14.000Z</time>
        <extensions>
          <ns3:TrackPointExtension>
            <ns3:hr>144</ns3:hr>
            <ns3:cad>62</ns3:cad>
          </ns3:TrackPointExtension>
        </extensions>
      </trkpt>
      <trkpt lat="52.052496112883090972900390625" lon="1.22573389671742916107177734375">
        <ele>123.8000030517578125</ele>
        <time>2025-09-05T11:59:15.000Z</time>
        <extensions>
          <ns3:TrackPointExtension>
            <ns3:hr>144</ns3:hr>
            <ns3:cad>62</ns3:cad>
          </ns3:TrackPointExtension>
        </extensions>
      </trkpt>
      <trkpt lat="52.05250273458659648895263671875" lon="1.2257405184209346771240234375">
        <ele>123.1999969482421875</ele>
        <time>2025-09-05T11:59:16.000Z</time>
        <extensions>
          <ns3:TrackPointExtension>
            <ns3:hr>143</ns3:hr>
            <ns3:cad>0</ns3:cad>
          </ns3:TrackPointExtension>
        </extensions>
      </trkpt>
      <trkpt lat="52.05250793136656284332275390625" lon="1.22574479319155216217041015625">
        <ele>121.40000152587890625</ele>
        <time>2025-09-05T11:59:18.000Z</time>
        <extensions>
          <ns3:TrackPointExtension>
            <ns3:hr>143</ns3:hr>
            <ns3:cad>0</ns3:cad>
          </ns3:TrackPointExtension>
        </extensions>
      </trkpt>
      <trkpt lat="52.05251178704202175140380859375" lon="1.22574294917285442352294921875">
        <ele>120.1999969482421875</ele>
        <time>2025-09-05T11:59:20.000Z</time>
        <extensions>
          <ns3:TrackPointExtension>
            <ns3:hr>142</ns3:hr>
            <ns3:cad>0</ns3:cad>
          </ns3:TrackPointExtension>
        </extensions>
      </trkpt>
      <trkpt lat="52.05251329578459262847900390625" lon="1.22574202716350555419921875">
        <ele>118.1999969482421875</ele>
        <time>2025-09-05T11:59:21.000Z</time>
        <extensions>
          <ns3:TrackPointExtension>
            <ns3:hr>142</ns3:hr>
            <ns3:cad>0</ns3:cad>
          </ns3:TrackPointExtension>
        </extensions>
      </trkpt>
      <trkpt lat="52.05251446925103664398193359375" lon="1.22574278153479099273681640625">
        <ele>117</ele>
        <time>2025-09-05T11:59:22.000Z</time>
        <extensions>
          <ns3:TrackPointExtension>
            <ns3:hr>142</ns3:hr>
            <ns3:cad>0</ns3:cad>
          </ns3:TrackPointExtension>
        </extensions>
      </trkpt>
      <trkpt lat="52.05251899547874927520751953125" lon="1.2257515825331211090087890625">
        <ele>116</ele>
        <time>2025-09-05T11:59:23.000Z</time>
        <extensions>
          <ns3:TrackPointExtension>
            <ns3:hr>141</ns3:hr>
            <ns3:cad>0</ns3:cad>
          </ns3:TrackPointExtension>
        </extensions>
      </trkpt>
      <trkpt lat="52.05252871848642826080322265625" lon="1.2257586233317852020263671875">
        <ele>115.40000152587890625</ele>
        <time>2025-09-05T11:59:24.000Z</time>
        <extensions>
          <ns3:TrackPointExtension>
            <ns3:hr>141</ns3:hr>
            <ns3:cad>0</ns3:cad>
          </ns3:TrackPointExtension>
        </extensions>
      </trkpt>
      <trkpt lat="52.0525492541491985321044921875" lon="1.225773207843303680419921875">
        <ele>114.1999969482421875</ele>
        <time>2025-09-05T11:59:26.000Z</time>
        <extensions>
          <ns3:TrackPointExtension>
            <ns3:hr>141</ns3:hr>
            <ns3:cad>55</ns3:cad>
          </ns3:TrackPointExtension>
        </extensions>
      </trkpt>
      <trkpt lat="52.05259057693183422088623046875" lon="1.2258206494152545928955078125">
        <ele>112.8000030517578125</ele>
        <time>2025-09-05T11:59:30.000Z</time>
        <extensions>
          <ns3:TrackPointExtension>
            <ns3:hr>144</ns3:hr>
            <ns3:cad>58</ns3:cad>
          </ns3:TrackPointExtension>
        </extensions>
      </trkpt>
      <trkpt lat="52.052600048482418060302734375" lon="1.2258286960422992706298828125">
        <ele>112.40000152587890625</ele>
        <time>2025-09-05T11:59:31.000Z</time>
        <extensions>
          <ns3:TrackPointExtension>
            <ns3:hr>144</ns3:hr>
            <ns3:cad>58</ns3:cad>
          </ns3:TrackPointExtension>
        </extensions>
      </trkpt>
      <trkpt lat="52.05261823721230030059814453125" lon="1.22583515010774135589599609375">
        <ele>111.59999847412109375</ele>
        <time>2025-09-05T11:59:33.000Z</time>
        <extensions>
          <ns3:TrackPointExtension>
            <ns3:hr>144</ns3:hr>
            <ns3:cad>0</ns3:cad>
          </ns3:TrackPointExtension>
        </extensions>
      </trkpt>
      <trkpt lat="52.05263935960829257965087890625" lon="1.225828863680362701416015625">
        <ele>110.40000152587890625</ele>
        <time>2025-09-05T11:59:38.000Z</time>
        <extensions>
          <ns3:TrackPointExtension>
            <ns3:hr>144</ns3:hr>
            <ns3:cad>0</ns3:cad>
          </ns3:TrackPointExtension>
        </extensions>
      </trkpt>
      <trkpt lat="52.05266668461263179779052734375" lon="1.22584152035415172576904296875">
        <ele>109.8000030517578125</ele>
        <time>2025-09-05T11:59:40.000Z</time>
        <extensions>
          <ns3:TrackPointExtension>
            <ns3:hr>143</ns3:hr>
            <ns3:cad>0</ns3:cad>
          </ns3:TrackPointExtension>
        </extensions>
      </trkpt>
      <trkpt lat="52.05266668461263179779052734375" lon="1.22584152035415172576904296875">
        <ele>109.1999969482421875</ele>
        <time>2025-09-05T11:59:41.000Z</time>
        <extensions>
          <ns3:TrackPointExtension>
            <ns3:hr>143</ns3:hr>
            <ns3:cad>0</ns3:cad>
          </ns3:TrackPointExtension>
        </extensions>
      </trkpt>
      <trkpt lat="52.05270926468074321746826171875" lon="1.22586733661592006683349609375">
        <ele>108.1999969482421875</ele>
        <time>2025-09-05T11:59:43.000Z</time>
        <extensions>
          <ns3:TrackPointExtension>
            <ns3:hr>143</ns3:hr>
            <ns3:cad>0</ns3:cad>
          </ns3:TrackPointExtension>
        </extensions>
      </trkpt>
      <trkpt lat="52.0527519285678863525390625" lon="1.22590388171374797821044921875">
        <ele>107</ele>
        <time>2025-09-05T11:59:46.000Z</time>
        <extensions>
          <ns3:TrackPointExtension>
            <ns3:hr>144</ns3:hr>
            <ns3:cad>0</ns3:cad>
          </ns3:TrackPointExtension>
        </extensions>
      </trkpt>
      <trkpt lat="52.05280280672013759613037109375" lon="1.22593958862125873565673828125">
        <ele>105.8000030517578125</ele>
        <time>2025-09-05T11:59:48.000Z</time>
        <extensions>
          <ns3:TrackPointExtension>
            <ns3:hr>144</ns3:hr>
            <ns3:cad>0</ns3:cad>
          </ns3:TrackPointExtension>
        </extensions>
      </trkpt>
      <trkpt lat="52.0528305508196353912353515625" lon="1.225959956645965576171875">
        <ele>105</ele>
        <time>2025-09-05T11:59:49.000Z</time>
        <extensions>
          <ns3:TrackPointExtension>
            <ns3:hr>147</ns3:hr>
            <ns3:cad>80</ns3:cad>
          </ns3:TrackPointExtension>
        </extensions>
      </trkpt>
      <trkpt lat="52.05285494215786457061767578125" lon="1.22598149813711643218994140625">
        <ele>104.40000152587890625</ele>
        <time>2025-09-05T11:59:50.000Z</time>
        <extensions>
          <ns3:TrackPointExtension>
            <ns3:hr>150</ns3:hr>
            <ns3:cad>80</ns3:cad>
          </ns3:TrackPointExtension>
        </extensions>
      </trkpt>
      <trkpt lat="52.0529136992990970611572265625" lon="1.22601653449237346649169921875">
        <ele>103.8000030517578125</ele>
        <time>2025-09-05T11:59:52.000Z</time>
        <extensions>
          <ns3:TrackPointExtension>
            <ns3:hr>156</ns3:hr>
            <ns3:cad>82</ns3:cad>
          </ns3:TrackPointExtension>
        </extensions>
      </trkpt>
      <trkpt lat="52.05293557606637477874755859375" lon="1.2260328792035579681396484375">
        <ele>103.1999969482421875</ele>
        <time>2025-09-05T11:59:53.000Z</time>
        <extensions>
          <ns3:TrackPointExtension>
            <ns3:hr>155</ns3:hr>
            <ns3:cad>82</ns3:cad>
          </ns3:TrackPointExtension>
        </extensions>
      </trkpt>
      <trkpt lat="52.0529629848897457122802734375" lon="1.2260479666292667388916015625">
        <ele>103</ele>
        <time>2025-09-05T11:59:54.000Z</time>
        <extensions>
          <ns3:TrackPointExtension>
            <ns3:hr>158</ns3:hr>
            <ns3:cad>82</ns3:cad>
          </ns3:TrackPointExtension>
        </extensions>
      </trkpt>
      <trkpt lat="52.053033895790576934814453125" lon="1.2261063046753406524658203125">
        <ele>102.40000152587890625</ele>
        <time>2025-09-05T11:59:57.000Z</time>
        <extensions>
          <ns3:TrackPointExtension>
            <ns3:hr>162</ns3:hr>
            <ns3:cad>82</ns3:cad>
          </ns3:TrackPointExtension>
        </extensions>
      </trkpt>
      <trkpt lat="52.0531014539301395416259765625" lon="1.22621619142591953277587890625">
        <ele>102.1999969482421875</ele>
        <time>2025-09-05T12:00:00.000Z</time>
        <extensions>
          <ns3:TrackPointExtension>
            <ns3:hr>162</ns3:hr>
            <ns3:cad>82</ns3:cad>
          </ns3:TrackPointExtension>
        </extensions>
      </trkpt>
      <trkpt lat="52.05313338898122310638427734375" lon="1.22627184726297855377197265625">
        <ele>102.1999969482421875</ele>
        <time>2025-09-05T12:00:02.000Z</time>
        <extensions>
          <ns3:TrackPointExtension>
            <ns3:hr>159</ns3:hr>
            <ns3:cad>81</ns3:cad>
          </ns3:TrackPointExtension>
        </extensions>
      </trkpt>
      <trkpt lat="52.053160630166530609130859375" lon="1.22633571736514568328857421875">
        <ele>102.59999847412109375</ele>
        <time>2025-09-05T12:00:04.000Z</time>
        <extensions>
          <ns3:TrackPointExtension>
            <ns3:hr>153</ns3:hr>
            <ns3:cad>81</ns3:cad>
          </ns3:TrackPointExtension>
        </extensions>
      </trkpt>
      <trkpt lat="52.0531879551708698272705078125" lon="1.22645507566630840301513671875">
        <ele>102.59999847412109375</ele>
        <time>2025-09-05T12:00:07.000Z</time>
        <extensions>
          <ns3:TrackPointExtension>
            <ns3:hr>150</ns3:hr>
            <ns3:cad>81</ns3:cad>
          </ns3:TrackPointExtension>
        </extensions>
      </trkpt>
      <trkpt lat="52.05320714972913265228271484375" lon="1.226573847234249114990234375">
        <ele>103.40000152587890625</ele>
        <time>2025-09-05T12:00:10.000Z</time>
        <extensions>
          <ns3:TrackPointExtension>
            <ns3:hr>151</ns3:hr>
            <ns3:cad>82</ns3:cad>
          </ns3:TrackPointExtension>
        </extensions>
      </trkpt>
      <trkpt lat="52.05324478447437286376953125" lon="1.2267245538532733917236328125">
        <ele>104.40000152587890625</ele>
        <time>2025-09-05T12:00:14.000Z</time>
        <extensions>
          <ns3:TrackPointExtension>
            <ns3:hr>151</ns3:hr>
            <ns3:cad>82</ns3:cad>
          </ns3:TrackPointExtension>
        </extensions>
      </trkpt>
      <trkpt lat="52.053259201347827911376953125" lon="1.22679806314408779144287109375">
        <ele>104.59999847412109375</ele>
        <time>2025-09-05T12:00:16.000Z</time>
        <extensions>
          <ns3:TrackPointExtension>
            <ns3:hr>150</ns3:hr>
            <ns3:cad>81</ns3:cad>
          </ns3:TrackPointExtension>
        </extensions>
      </trkpt>
      <trkpt lat="52.053259201347827911376953125" lon="1.22679806314408779144287109375">
        <ele>105.59999847412109375</ele>
        <time>2025-09-05T12:00:17.000Z</time>
        <extensions>
          <ns3:TrackPointExtension>
            <ns3:hr>151</ns3:hr>
            <ns3:cad>81</ns3:cad>
          </ns3:TrackPointExtension>
        </extensions>
      </trkpt>
      <trkpt lat="52.05329180695116519927978515625" lon="1.22694759629666805267333984375">
        <ele>107.1999969482421875</ele>
        <time>2025-09-05T12:00:20.000Z</time>
        <extensions>
          <ns3:TrackPointExtension>
            <ns3:hr>152</ns3:hr>
            <ns3:cad>81</ns3:cad>
          </ns3:TrackPointExtension>
        </extensions>
      </trkpt>
      <trkpt lat="52.05334109254181385040283203125" lon="1.22706695459783077239990234375">
        <ele>107.59999847412109375</ele>
        <time>2025-09-05T12:00:24.000Z</time>
        <extensions>
          <ns3:TrackPointExtension>
            <ns3:hr>153</ns3:hr>
            <ns3:cad>82</ns3:cad>
          </ns3:TrackPointExtension>
        </extensions>
      </trkpt>
      <trkpt lat="52.05342474393546581268310546875" lon="1.2272998876869678497314453125">
        <ele>106.59999847412109375</ele>
        <time>2025-09-05T12:00:31.000Z</time>
        <extensions>
          <ns3:TrackPointExtension>
            <ns3:hr>151</ns3:hr>
            <ns3:cad>80</ns3:cad>
          </ns3:TrackPointExtension>
        </extensions>
      </trkpt>
      <trkpt lat="52.0534327067434787750244140625" lon="1.227338947355747222900390625">
        <ele>105.8000030517578125</ele>
        <time>2025-09-05T12:00:32.000Z</time>
        <extensions>
          <ns3:TrackPointExtension>
            <ns3:hr>152</ns3:hr>
            <ns3:cad>80</ns3:cad>
          </ns3:TrackPointExtension>
        </extensions>
      </trkpt>
      <trkpt lat="52.0534498058259487152099609375" lon="1.2274142168462276458740234375">
        <ele>105.1999969482421875</ele>
        <time>2025-09-05T12:00:35.000Z</time>
        <extensions>
          <ns3:TrackPointExtension>
            <ns3:hr>155</ns3:hr>
            <ns3:cad>80</ns3:cad>
          </ns3:TrackPointExtension>
        </extensions>
      </trkpt>
      <trkpt lat="52.053483836352825164794921875" lon="1.22755779884755611419677734375">
        <ele>104.8000030517578125</ele>
        <time>2025-09-05T12:00:38.000Z</time>
        <extensions>
          <ns3:TrackPointExtension>
            <ns3:hr>155</ns3:hr>
            <ns3:cad>79</ns3:cad>
          </ns3:TrackPointExtension>
        </extensions>
      </trkpt>
      <trkpt lat="52.0534933917224407196044921875" lon="1.22759099118411540985107421875">
        <ele>104.59999847412109375</ele>
        <time>2025-09-05T12:00:39.000Z</time>
        <extensions>
          <ns3:TrackPointExtension>
            <ns3:hr>155</ns3:hr>
            <ns3:cad>79</ns3:cad>
          </ns3:TrackPointExtension>
        </extensions>
      </trkpt>
      <trkpt lat="52.0535255782306194305419921875" lon="1.2277206592261791229248046875">
        <ele>103.40000152587890625</ele>
        <time>2025-09-05T12:00:43.000Z</time>
        <extensions>
          <ns3:TrackPointExtension>
            <ns3:hr>156</ns3:hr>
            <ns3:cad>80</ns3:cad>
          </ns3:TrackPointExtension>
        </extensions>
      </trkpt>
      <trkpt lat="52.05354577861726284027099609375" lon="1.2277732975780963897705078125">
        <ele>102.40000152587890625</ele>
        <time>2025-09-05T12:00:46.000Z</time>
        <extensions>
          <ns3:TrackPointExtension>
            <ns3:hr>158</ns3:hr>
            <ns3:cad>80</ns3:cad>
          </ns3:TrackPointExtension>
        </extensions>
      </trkpt>
      <trkpt lat="52.05362339504063129425048828125" lon="1.22795375995337963104248046875">
        <ele>101</ele>
        <time>2025-09-05T12:00:51.000Z</time>
        <extensions>
          <ns3:TrackPointExtension>
            <ns3:hr>158</ns3:hr>
            <ns3:cad>80</ns3:cad>
          </ns3:TrackPointExtension>
        </extensions>
      </trkpt>
      <trkpt lat="52.05365926958620548248291015625" lon="1.22804093174636363983154296875">
        <ele>100.8000030517578125</ele>
        <time>2025-09-05T12:00:54.000Z</time>
        <extensions>
          <ns3:TrackPointExtension>
            <ns3:hr>160</ns3:hr>
            <ns3:cad>80</ns3:cad>
          </ns3:TrackPointExtension>
        </extensions>
      </trkpt>
      <trkpt lat="52.0537374727427959442138671875" lon="1.22823220677673816680908203125">
        <ele>100.8000030517578125</ele>
        <time>2025-09-05T12:01:00.000Z</time>
        <extensions>
          <ns3:TrackPointExtension>
            <ns3:hr>157</ns3:hr>
            <ns3:cad>80</ns3:cad>
          </ns3:TrackPointExtension>
        </extensions>
      </trkpt>
      <trkpt lat="52.0537455193698406219482421875" lon="1.2282681651413440704345703125">
        <ele>100.8000030517578125</ele>
        <time>2025-09-05T12:01:02.000Z</time>
        <extensions>
          <ns3:TrackPointExtension>
            <ns3:hr>156</ns3:hr>
            <ns3:cad>80</ns3:cad>
          </ns3:TrackPointExtension>
        </extensions>
      </trkpt>
      <trkpt lat="52.05377359874546527862548828125" lon="1.22844032943248748779296875">
        <ele>100</ele>
        <time>2025-09-05T12:01:06.000Z</time>
        <extensions>
          <ns3:TrackPointExtension>
            <ns3:hr>153</ns3:hr>
            <ns3:cad>79</ns3:cad>
          </ns3:TrackPointExtension>
        </extensions>
      </trkpt>
      <trkpt lat="52.05378768034279346466064453125" lon="1.22850528918206691741943359375">
        <ele>100</ele>
        <time>2025-09-05T12:01:08.000Z</time>
        <extensions>
          <ns3:TrackPointExtension>
            <ns3:hr>153</ns3:hr>
            <ns3:cad>80</ns3:cad>
          </ns3:TrackPointExtension>
        </extensions>
      </trkpt>
      <trkpt lat="52.0537944696843624114990234375" lon="1.22853579930961132049560546875">
        <ele>99.8000030517578125</ele>
        <time>2025-09-05T12:01:09.000Z</time>
        <extensions>
          <ns3:TrackPointExtension>
            <ns3:hr>153</ns3:hr>
            <ns3:cad>79</ns3:cad>
          </ns3:TrackPointExtension>
        </extensions>
      </trkpt>
      <trkpt lat="52.0538149215281009674072265625" lon="1.22863453812897205352783203125">
        <ele>98.59999847412109375</ele>
        <time>2025-09-05T12:01:13.000Z</time>
        <extensions>
          <ns3:TrackPointExtension>
            <ns3:hr>154</ns3:hr>
            <ns3:cad>79</ns3:cad>
          </ns3:TrackPointExtension>
        </extensions>
      </trkpt>
      <trkpt lat="52.05383378081023693084716796875" lon="1.22873629443347454071044921875">
        <ele>97.40000152587890625</ele>
        <time>2025-09-05T12:01:15.000Z</time>
        <extensions>
          <ns3:TrackPointExtension>
            <ns3:hr>153</ns3:hr>
            <ns3:cad>80</ns3:cad>
          </ns3:TrackPointExtension>
        </extensions>
      </trkpt>
      <trkpt lat="52.05384886823594570159912109375" lon="1.2288438342511653900146484375">
        <ele>96.40000152587890625</ele>
        <time>2025-09-05T12:01:18.000Z</time>
        <extensions>
          <ns3:TrackPointExtension>
            <ns3:hr>155</ns3:hr>
            <ns3:cad>80</ns3:cad>
          </ns3:TrackPointExtension>
        </extensions>
      </trkpt>
      <trkpt lat="52.05384886823594570159912109375" lon="1.2288438342511653900146484375">
        <ele>95.59999847412109375</ele>
        <time>2025-09-05T12:01:19.000Z</time>
        <extensions>
          <ns3:TrackPointExtension>
            <ns3:hr>156</ns3:hr>
            <ns3:cad>80</ns3:cad>
          </ns3:TrackPointExtension>
        </extensions>
      </trkpt>
      <trkpt lat="52.05385523848235607147216796875" lon="1.22888532467186450958251953125">
        <ele>95.1999969482421875</ele>
        <time>2025-09-05T12:01:20.000Z</time>
        <extensions>
          <ns3:TrackPointExtension>
            <ns3:hr>156</ns3:hr>
            <ns3:cad>80</ns3:cad>
          </ns3:TrackPointExtension>
        </extensions>
      </trkpt>
      <trkpt lat="52.0538839884102344512939453125" lon="1.22904139570891857147216796875">
        <ele>94</ele>
        <time>2025-09-05T12:01:24.000Z</time>
        <extensions>
          <ns3:TrackPointExtension>
            <ns3:hr>158</ns3:hr>
            <ns3:cad>81</ns3:cad>
          </ns3:TrackPointExtension>
        </extensions>
      </trkpt>
      <trkpt lat="52.05390636809170246124267578125" lon="1.22915245592594146728515625">
        <ele>93.59999847412109375</ele>
        <time>2025-09-05T12:01:26.000Z</time>
        <extensions>
          <ns3:TrackPointExtension>
            <ns3:hr>157</ns3:hr>
            <ns3:cad>80</ns3:cad>
          </ns3:TrackPointExtension>
        </extensions>
      </trkpt>
      <trkpt lat="52.05391667783260345458984375" lon="1.2292294017970561981201171875">
        <ele>92.40000152587890625</ele>
        <time>2025-09-05T12:01:29.000Z</time>
        <extensions>
          <ns3:TrackPointExtension>
            <ns3:hr>156</ns3:hr>
            <ns3:cad>79</ns3:cad>
          </ns3:TrackPointExtension>
        </extensions>
      </trkpt>
      <trkpt lat="52.05392740666866302490234375" lon="1.2293095327913761138916015625">
        <ele>91.8000030517578125</ele>
        <time>2025-09-05T12:01:31.000Z</time>
        <extensions>
          <ns3:TrackPointExtension>
            <ns3:hr>159</ns3:hr>
            <ns3:cad>79</ns3:cad>
          </ns3:TrackPointExtension>
        </extensions>
      </trkpt>
      <trkpt lat="52.05393302254378795623779296875" lon="1.2293943576514720916748046875">
        <ele>91.1999969482421875</ele>
        <time>2025-09-05T12:01:33.000Z</time>
        <extensions>
          <ns3:TrackPointExtension>
            <ns3:hr>159</ns3:hr>
            <ns3:cad>79</ns3:cad>
          </ns3:TrackPointExtension>
        </extensions>
      </trkpt>
      <trkpt lat="52.0539279095828533172607421875" lon="1.22951664961874485015869140625">
        <ele>89.59999847412109375</ele>
        <time>2025-09-05T12:01:36.000Z</time>
        <extensions>
          <ns3:TrackPointExtension>
            <ns3:hr>160</ns3:hr>
            <ns3:cad>80</ns3:cad>
          </ns3:TrackPointExtension>
        </extensions>
      </trkpt>
      <trkpt lat="52.05392296425998210906982421875" lon="1.22964153997600078582763671875">
        <ele>88.40000152587890625</ele>
        <time>2025-09-05T12:01:39.000Z</time>
        <extensions>
          <ns3:TrackPointExtension>
            <ns3:hr>160</ns3:hr>
            <ns3:cad>80</ns3:cad>
          </ns3:TrackPointExtension>
        </extensions>
      </trkpt>
      <trkpt lat="52.053933441638946533203125" lon="1.22977632097899913787841796875">
        <ele>87.1999969482421875</ele>
        <time>2025-09-05T12:01:43.000Z</time>
        <extensions>
          <ns3:TrackPointExtension>
            <ns3:hr>162</ns3:hr>
            <ns3:cad>79</ns3:cad>
          </ns3:TrackPointExtension>
        </extensions>
      </trkpt>
      <trkpt lat="52.05394207499921321868896484375" lon="1.22983507812023162841796875">
        <ele>86.8000030517578125</ele>
        <time>2025-09-05T12:01:45.000Z</time>
        <extensions>
          <ns3:TrackPointExtension>
            <ns3:hr>159</ns3:hr>
            <ns3:cad>79</ns3:cad>
          </ns3:TrackPointExtension>
        </extensions>
      </trkpt>
      <trkpt lat="52.05395163036882877349853515625" lon="1.22986684553325176239013671875">
        <ele>86.40000152587890625</ele>
        <time>2025-09-05T12:01:46.000Z</time>
        <extensions>
          <ns3:TrackPointExtension>
            <ns3:hr>159</ns3:hr>
            <ns3:cad>78</ns3:cad>
          </ns3:TrackPointExtension>
        </extensions>
      </trkpt>
      <trkpt lat="52.05395950935781002044677734375" lon="1.2298972718417644500732421875">
        <ele>86</ele>
        <time>2025-09-05T12:01:47.000Z</time>
        <extensions>
          <ns3:TrackPointExtension>
            <ns3:hr>159</ns3:hr>
            <ns3:cad>78</ns3:cad>
          </ns3:TrackPointExtension>
        </extensions>
      </trkpt>
      <trkpt lat="52.0540100522339344024658203125" lon="1.23001688160002231597900390625">
        <ele>84.8000030517578125</ele>
        <time>2025-09-05T12:01:51.000Z</time>
        <extensions>
          <ns3:TrackPointExtension>
            <ns3:hr>161</ns3:hr>
            <ns3:cad>75</ns3:cad>
          </ns3:TrackPointExtension>
        </extensions>
      </trkpt>
      <trkpt lat="52.05403695814311504364013671875" lon="1.23008091934025287628173828125">
        <ele>84.40000152587890625</ele>
        <time>2025-09-05T12:01:53.000Z</time>
        <extensions>
          <ns3:TrackPointExtension>
            <ns3:hr>162</ns3:hr>
            <ns3:cad>78</ns3:cad>
          </ns3:TrackPointExtension>
        </extensions>
      </trkpt>
      <trkpt lat="52.054061181843280792236328125" lon="1.2301477231085300445556640625">
        <ele>84</ele>
        <time>2025-09-05T12:01:55.000Z</time>
        <extensions>
          <ns3:TrackPointExtension>
            <ns3:hr>165</ns3:hr>
            <ns3:cad>78</ns3:cad>
          </ns3:TrackPointExtension>
        </extensions>
      </trkpt>
      <trkpt lat="52.0540707372128963470458984375" lon="1.23018066398799419403076171875">
        <ele>83.8000030517578125</ele>
        <time>2025-09-05T12:01:56.000Z</time>
        <extensions>
          <ns3:TrackPointExtension>
            <ns3:hr>165</ns3:hr>
            <ns3:cad>79</ns3:cad>
          </ns3:TrackPointExtension>
        </extensions>
      </trkpt>
      <trkpt lat="52.05409294925630092620849609375" lon="1.230282671749591827392578125">
        <ele>83.1999969482421875</ele>
        <time>2025-09-05T12:01:59.000Z</time>
        <extensions>
          <ns3:TrackPointExtension>
            <ns3:hr>168</ns3:hr>
            <ns3:cad>80</ns3:cad>
          </ns3:TrackPointExtension>
        </extensions>
      </trkpt>
      <trkpt lat="52.05410870723426342010498046875" lon="1.230349056422710418701171875">
        <ele>82.8000030517578125</ele>
        <time>2025-09-05T12:02:01.000Z</time>
        <extensions>
          <ns3:TrackPointExtension>
            <ns3:hr>168</ns3:hr>
            <ns3:cad>78</ns3:cad>
          </ns3:TrackPointExtension>
        </extensions>
      </trkpt>
      <trkpt lat="52.05412052571773529052734375" lon="1.23040865175426006317138671875">
        <ele>82.59999847412109375</ele>
        <time>2025-09-05T12:02:03.000Z</time>
        <extensions>
          <ns3:TrackPointExtension>
            <ns3:hr>170</ns3:hr>
            <ns3:cad>79</ns3:cad>
          </ns3:TrackPointExtension>
        </extensions>
      </trkpt>
      <trkpt lat="52.0541404746472835540771484375" lon="1.2305182032287120819091796875">
        <ele>81.59999847412109375</ele>
        <time>2025-09-05T12:02:07.000Z</time>
        <extensions>
          <ns3:TrackPointExtension>
            <ns3:hr>172</ns3:hr>
            <ns3:cad>79</ns3:cad>
          </ns3:TrackPointExtension>
        </extensions>
      </trkpt>
      <trkpt lat="52.0541448332369327545166015625" lon="1.230548210442066192626953125">
        <ele>81.40000152587890625</ele>
        <time>2025-09-05T12:02:08.000Z</time>
        <extensions>
          <ns3:TrackPointExtension>
            <ns3:hr>173</ns3:hr>
            <ns3:cad>79</ns3:cad>
          </ns3:TrackPointExtension>
        </extensions>
      </trkpt>
      <trkpt lat="52.05415246076881885528564453125" lon="1.23071350157260894775390625">
        <ele>82</ele>
        <time>2025-09-05T12:02:13.000Z</time>
        <extensions>
          <ns3:TrackPointExtension>
            <ns3:hr>173</ns3:hr>
            <ns3:cad>80</ns3:cad>
          </ns3:TrackPointExtension>
        </extensions>
      </trkpt>
      <trkpt lat="52.0541478507220745086669921875" lon="1.23078055679798126220703125">
        <ele>82.59999847412109375</ele>
        <time>2025-09-05T12:02:15.000Z</time>
        <extensions>
          <ns3:TrackPointExtension>
            <ns3:hr>173</ns3:hr>
            <ns3:cad>80</ns3:cad>
          </ns3:TrackPointExtension>
        </extensions>
      </trkpt>
      <trkpt lat="52.0541493594646453857421875" lon="1.2308541499078273773193359375">
        <ele>83.1999969482421875</ele>
        <time>2025-09-05T12:02:17.000Z</time>
        <extensions>
          <ns3:TrackPointExtension>
            <ns3:hr>176</ns3:hr>
            <ns3:cad>80</ns3:cad>
          </ns3:TrackPointExtension>
        </extensions>
      </trkpt>
      <trkpt lat="52.0541508682072162628173828125" lon="1.23091676272451877593994140625">
        <ele>83.59999847412109375</ele>
        <time>2025-09-05T12:02:19.000Z</time>
        <extensions>
          <ns3:TrackPointExtension>
            <ns3:hr>175</ns3:hr>
            <ns3:cad>80</ns3:cad>
          </ns3:TrackPointExtension>
        </extensions>
      </trkpt>
      <trkpt lat="52.0541574060916900634765625" lon="1.230949200689792633056640625">
        <ele>85</ele>
        <time>2025-09-05T12:02:20.000Z</time>
        <extensions>
          <ns3:TrackPointExtension>
            <ns3:hr>175</ns3:hr>
            <ns3:cad>80</ns3:cad>
          </ns3:TrackPointExtension>
        </extensions>
      </trkpt>
      <trkpt lat="52.05415816046297550201416015625" lon="1.2309788726270198822021484375">
        <ele>87.40000152587890625</ele>
        <time>2025-09-05T12:02:21.000Z</time>
        <extensions>
          <ns3:TrackPointExtension>
            <ns3:hr>175</ns3:hr>
            <ns3:cad>80</ns3:cad>
          </ns3:TrackPointExtension>
        </extensions>
      </trkpt>
      <trkpt lat="52.0541538856923580169677734375" lon="1.23100913129746913909912109375">
        <ele>88.59999847412109375</ele>
        <time>2025-09-05T12:02:22.000Z</time>
        <extensions>
          <ns3:TrackPointExtension>
            <ns3:hr>175</ns3:hr>
            <ns3:cad>80</ns3:cad>
          </ns3:TrackPointExtension>
        </extensions>
      </trkpt>
      <trkpt lat="52.05415380187332630157470703125" lon="1.23107383958995342254638671875">
        <ele>89.59999847412109375</ele>
        <time>2025-09-05T12:02:24.000Z</time>
        <extensions>
          <ns3:TrackPointExtension>
            <ns3:hr>173</ns3:hr>
            <ns3:cad>80</ns3:cad>
          </ns3:TrackPointExtension>
        </extensions>
      </trkpt>
      <trkpt lat="52.05415614880621433258056640625" lon="1.2311508692800998687744140625">
        <ele>90</ele>
        <time>2025-09-05T12:02:26.000Z</time>
        <extensions>
          <ns3:TrackPointExtension>
            <ns3:hr>173</ns3:hr>
            <ns3:cad>80</ns3:cad>
          </ns3:TrackPointExtension>
        </extensions>
      </trkpt>
      <trkpt lat="52.05417727120220661163330078125" lon="1.231248266994953155517578125">
        <ele>90.8000030517578125</ele>
        <time>2025-09-05T12:02:29.000Z</time>
        <extensions>
          <ns3:TrackPointExtension>
            <ns3:hr>175</ns3:hr>
            <ns3:cad>80</ns3:cad>
          </ns3:TrackPointExtension>
        </extensions>
      </trkpt>
      <trkpt lat="52.0542095415294170379638671875" lon="1.23138983733952045440673828125">
        <ele>91.1999969482421875</ele>
        <time>2025-09-05T12:02:33.000Z</time>
        <extensions>
          <ns3:TrackPointExtension>
            <ns3:hr>174</ns3:hr>
            <ns3:cad>81</ns3:cad>
          </ns3:TrackPointExtension>
        </extensions>
      </trkpt>
      <trkpt lat="52.05423175357282161712646484375" lon="1.2315585650503635406494140625">
        <ele>91.8000030517578125</ele>
        <time>2025-09-05T12:02:38.000Z</time>
        <extensions>
          <ns3:TrackPointExtension>
            <ns3:hr>174</ns3:hr>
            <ns3:cad>81</ns3:cad>
          </ns3:TrackPointExtension>
        </extensions>
      </trkpt>
      <trkpt lat="52.05425388179719448089599609375" lon="1.23165101744234561920166015625">
        <ele>93.59999847412109375</ele>
        <time>2025-09-05T12:02:41.000Z</time>
        <extensions>
          <ns3:TrackPointExtension>
            <ns3:hr>175</ns3:hr>
            <ns3:cad>81</ns3:cad>
          </ns3:TrackPointExtension>
        </extensions>
      </trkpt>
      <trkpt lat="52.054261676967144012451171875" lon="1.23167909681797027587890625">
        <ele>94.8000030517578125</ele>
        <time>2025-09-05T12:02:42.000Z</time>
        <extensions>
          <ns3:TrackPointExtension>
            <ns3:hr>175</ns3:hr>
            <ns3:cad>81</ns3:cad>
          </ns3:TrackPointExtension>
        </extensions>
      </trkpt>
      <trkpt lat="52.05429713241755962371826171875" lon="1.2318053282797336578369140625">
        <ele>96.8000030517578125</ele>
        <time>2025-09-05T12:02:45.000Z</time>
        <extensions>
          <ns3:TrackPointExtension>
            <ns3:hr>174</ns3:hr>
            <ns3:cad>81</ns3:cad>
          </ns3:TrackPointExtension>
        </extensions>
      </trkpt>
      <trkpt lat="52.05430702306330204010009765625" lon="1.231843717396259307861328125">
        <ele>97.8000030517578125</ele>
        <time>2025-09-05T12:02:47.000Z</time>
        <extensions>
          <ns3:TrackPointExtension>
            <ns3:hr>174</ns3:hr>
            <ns3:cad>81</ns3:cad>
          </ns3:TrackPointExtension>
        </extensions>
      </trkpt>
      <trkpt lat="52.054321356117725372314453125" lon="1.231912113726139068603515625">
        <ele>99.40000152587890625</ele>
        <time>2025-09-05T12:02:49.000Z</time>
        <extensions>
          <ns3:TrackPointExtension>
            <ns3:hr>175</ns3:hr>
            <ns3:cad>81</ns3:cad>
          </ns3:TrackPointExtension>
        </extensions>
      </trkpt>
      <trkpt lat="52.05433686263859272003173828125" lon="1.232068352401256561279296875">
        <ele>100.40000152587890625</ele>
        <time>2025-09-05T12:02:54.000Z</time>
        <extensions>
          <ns3:TrackPointExtension>
            <ns3:hr>175</ns3:hr>
            <ns3:cad>81</ns3:cad>
          </ns3:TrackPointExtension>
        </extensions>
      </trkpt>
      <trkpt lat="52.05435027368366718292236328125" lon="1.23211495578289031982421875">
        <ele>100.40000152587890625</ele>
        <time>2025-09-05T12:03:00.000Z</time>
        <extensions>
          <ns3:TrackPointExtension>
            <ns3:hr>173</ns3:hr>
            <ns3:cad>0</ns3:cad>
          </ns3:TrackPointExtension>
        </extensions>
      </trkpt>
      <trkpt lat="52.0543875731527805328369140625" lon="1.23216457664966583251953125">
        <ele>99.40000152587890625</ele>
        <time>2025-09-05T12:03:04.000Z</time>
        <extensions>
          <ns3:TrackPointExtension>
            <ns3:hr>171</ns3:hr>
            <ns3:cad>0</ns3:cad>
          </ns3:TrackPointExtension>
        </extensions>
      </trkpt>
      <trkpt lat="52.0543966256082057952880859375" lon="1.23227563686668872833251953125">
        <ele>98.8000030517578125</ele>
        <time>2025-09-05T12:03:06.000Z</time>
        <extensions>
          <ns3:TrackPointExtension>
            <ns3:hr>170</ns3:hr>
            <ns3:cad>65</ns3:cad>
          </ns3:TrackPointExtension>
        </extensions>
      </trkpt>
      <trkpt lat="52.05442319624125957489013671875" lon="1.23249842785298824310302734375">
        <ele>98.59999847412109375</ele>
        <time>2025-09-05T12:03:13.000Z</time>
        <extensions>
          <ns3:TrackPointExtension>
            <ns3:hr>170</ns3:hr>
            <ns3:cad>82</ns3:cad>
          </ns3:TrackPointExtension>
        </extensions>
      </trkpt>
      <trkpt lat="52.05442269332706928253173828125" lon="1.232576631009578704833984375">
        <ele>98.59999847412109375</ele>
        <time>2025-09-05T12:03:14.000Z</time>
        <extensions>
          <ns3:TrackPointExtension>
            <ns3:hr>166</ns3:hr>
            <ns3:cad>82</ns3:cad>
          </ns3:TrackPointExtension>
        </extensions>
      </trkpt>
      <trkpt lat="52.05442671664059162139892578125" lon="1.2327176146209239959716796875">
        <ele>99</ele>
        <time>2025-09-05T12:03:19.000Z</time>
        <extensions>
          <ns3:TrackPointExtension>
            <ns3:hr>166</ns3:hr>
            <ns3:cad>81</ns3:cad>
          </ns3:TrackPointExtension>
        </extensions>
      </trkpt>
      <trkpt lat="52.05444247461855411529541015625" lon="1.2328024394810199737548828125">
        <ele>103.1999969482421875</ele>
        <time>2025-09-05T12:03:22.000Z</time>
        <extensions>
          <ns3:TrackPointExtension>
            <ns3:hr>168</ns3:hr>
            <ns3:cad>82</ns3:cad>
          </ns3:TrackPointExtension>
        </extensions>
      </trkpt>
      <trkpt lat="52.054446749389171600341796875" lon="1.23283135704696178436279296875">
        <ele>105.59999847412109375</ele>
        <time>2025-09-05T12:03:23.000Z</time>
        <extensions>
          <ns3:TrackPointExtension>
            <ns3:hr>169</ns3:hr>
            <ns3:cad>82</ns3:cad>
          </ns3:TrackPointExtension>
        </extensions>
      </trkpt>
      <trkpt lat="52.05445420928299427032470703125" lon="1.2328612804412841796875">
        <ele>106.8000030517578125</ele>
        <time>2025-09-05T12:03:24.000Z</time>
        <extensions>
          <ns3:TrackPointExtension>
            <ns3:hr>169</ns3:hr>
            <ns3:cad>82</ns3:cad>
          </ns3:TrackPointExtension>
        </extensions>
      </trkpt>
      <trkpt lat="52.05445806495845317840576171875" lon="1.2329667247831821441650390625">
        <ele>108.59999847412109375</ele>
        <time>2025-09-05T12:03:26.000Z</time>
        <extensions>
          <ns3:TrackPointExtension>
            <ns3:hr>171</ns3:hr>
            <ns3:cad>82</ns3:cad>
          </ns3:TrackPointExtension>
        </extensions>
      </trkpt>
      <trkpt lat="52.05445806495845317840576171875" lon="1.2329667247831821441650390625">
        <ele>110.40000152587890625</ele>
        <time>2025-09-05T12:03:27.000Z</time>
        <extensions>
          <ns3:TrackPointExtension>
            <ns3:hr>169</ns3:hr>
            <ns3:cad>82</ns3:cad>
          </ns3:TrackPointExtension>
        </extensions>
      </trkpt>
      <trkpt lat="52.0544606633484363555908203125" lon="1.23300000093877315521240234375">
        <ele>112</ele>
        <time>2025-09-05T12:03:28.000Z</time>
        <extensions>
          <ns3:TrackPointExtension>
            <ns3:hr>170</ns3:hr>
            <ns3:cad>82</ns3:cad>
          </ns3:TrackPointExtension>
        </extensions>
      </trkpt>
      <trkpt lat="52.05446359701454639434814453125" lon="1.23303218744695186614990234375">
        <ele>115.1999969482421875</ele>
        <time>2025-09-05T12:03:29.000Z</time>
        <extensions>
          <ns3:TrackPointExtension>
            <ns3:hr>169</ns3:hr>
            <ns3:cad>82</ns3:cad>
          </ns3:TrackPointExtension>
        </extensions>
      </trkpt>
      <trkpt lat="52.0544680394232273101806640625" lon="1.2330649606883525848388671875">
        <ele>117.40000152587890625</ele>
        <time>2025-09-05T12:03:30.000Z</time>
        <extensions>
          <ns3:TrackPointExtension>
            <ns3:hr>166</ns3:hr>
            <ns3:cad>82</ns3:cad>
          </ns3:TrackPointExtension>
        </extensions>
      </trkpt>
      <trkpt lat="52.0544747449457645416259765625" lon="1.23309488408267498016357421875">
        <ele>118.59999847412109375</ele>
        <time>2025-09-05T12:03:31.000Z</time>
        <extensions>
          <ns3:TrackPointExtension>
            <ns3:hr>160</ns3:hr>
            <ns3:cad>82</ns3:cad>
          </ns3:TrackPointExtension>
        </extensions>
      </trkpt>
      <trkpt lat="52.05448974855244159698486328125" lon="1.23315422795712947845458984375">
        <ele>120.1999969482421875</ele>
        <time>2025-09-05T12:03:33.000Z</time>
        <extensions>
          <ns3:TrackPointExtension>
            <ns3:hr>159</ns3:hr>
            <ns3:cad>82</ns3:cad>
          </ns3:TrackPointExtension>
        </extensions>
      </trkpt>
      <trkpt lat="52.0545025728642940521240234375" lon="1.23321658931672573089599609375">
        <ele>121.1999969482421875</ele>
        <time>2025-09-05T12:03:35.000Z</time>
        <extensions>
          <ns3:TrackPointExtension>
            <ns3:hr>158</ns3:hr>
            <ns3:cad>82</ns3:cad>
          </ns3:TrackPointExtension>
        </extensions>
      </trkpt>
      <trkpt lat="52.0545069314539432525634765625" lon="1.23325363732874393463134765625">
        <ele>121.40000152587890625</ele>
        <time>2025-09-05T12:03:36.000Z</time>
        <extensions>
          <ns3:TrackPointExtension>
            <ns3:hr>158</ns3:hr>
            <ns3:cad>82</ns3:cad>
          </ns3:TrackPointExtension>
        </extensions>
      </trkpt>
      <trkpt lat="52.0545213483273983001708984375" lon="1.233314909040927886962890625">
        <ele>122.8000030517578125</ele>
        <time>2025-09-05T12:03:38.000Z</time>
        <extensions>
          <ns3:TrackPointExtension>
            <ns3:hr>157</ns3:hr>
            <ns3:cad>82</ns3:cad>
          </ns3:TrackPointExtension>
        </extensions>
      </trkpt>
      <trkpt lat="52.0545307360589504241943359375" lon="1.23340308666229248046875">
        <ele>124.40000152587890625</ele>
        <time>2025-09-05T12:03:40.000Z</time>
        <extensions>
          <ns3:TrackPointExtension>
            <ns3:hr>157</ns3:hr>
            <ns3:cad>82</ns3:cad>
          </ns3:TrackPointExtension>
        </extensions>
      </trkpt>
      <trkpt lat="52.05453584901988506317138671875" lon="1.23349235393106937408447265625">
        <ele>125.59999847412109375</ele>
        <time>2025-09-05T12:03:42.000Z</time>
        <extensions>
          <ns3:TrackPointExtension>
            <ns3:hr>157</ns3:hr>
            <ns3:cad>82</ns3:cad>
          </ns3:TrackPointExtension>
        </extensions>
      </trkpt>
      <trkpt lat="52.05454674549400806427001953125" lon="1.23358489014208316802978515625">
        <ele>128</ele>
        <time>2025-09-05T12:03:44.000Z</time>
        <extensions>
          <ns3:TrackPointExtension>
            <ns3:hr>158</ns3:hr>
            <ns3:cad>82</ns3:cad>
          </ns3:TrackPointExtension>
        </extensions>
      </trkpt>
      <trkpt lat="52.0545451529324054718017578125" lon="1.23362445272505283355712890625">
        <ele>129.1999969482421875</ele>
        <time>2025-09-05T12:03:45.000Z</time>
        <extensions>
          <ns3:TrackPointExtension>
            <ns3:hr>156</ns3:hr>
            <ns3:cad>82</ns3:cad>
          </ns3:TrackPointExtension>
        </extensions>
      </trkpt>
      <trkpt lat="52.05454758368432521820068359375" lon="1.2336677871644496917724609375">
        <ele>130.600006103515625</ele>
        <time>2025-09-05T12:03:46.000Z</time>
        <extensions>
          <ns3:TrackPointExtension>
            <ns3:hr>159</ns3:hr>
            <ns3:cad>82</ns3:cad>
          </ns3:TrackPointExtension>
        </extensions>
      </trkpt>
      <trkpt lat="52.0545538701117038726806640625" lon="1.2337532825767993927001953125">
        <ele>132</ele>
        <time>2025-09-05T12:03:48.000Z</time>
        <extensions>
          <ns3:TrackPointExtension>
            <ns3:hr>157</ns3:hr>
            <ns3:cad>82</ns3:cad>
          </ns3:TrackPointExtension>
        </extensions>
      </trkpt>
      <trkpt lat="52.05457239411771297454833984375" lon="1.23387289233505725860595703125">
        <ele>133.1999969482421875</ele>
        <time>2025-09-05T12:03:51.000Z</time>
        <extensions>
          <ns3:TrackPointExtension>
            <ns3:hr>158</ns3:hr>
            <ns3:cad>81</ns3:cad>
          </ns3:TrackPointExtension>
        </extensions>
      </trkpt>
      <trkpt lat="52.05461882986128330230712890625" lon="1.23412686400115489959716796875">
        <ele>133.600006103515625</ele>
        <time>2025-09-05T12:03:58.000Z</time>
        <extensions>
          <ns3:TrackPointExtension>
            <ns3:hr>158</ns3:hr>
            <ns3:cad>78</ns3:cad>
          </ns3:TrackPointExtension>
        </extensions>
      </trkpt>
      <trkpt lat="52.0546397008001804351806640625" lon="1.23413608409464359283447265625">
        <ele>133</ele>
        <time>2025-09-05T12:04:00.000Z</time>
        <extensions>
          <ns3:TrackPointExtension>
            <ns3:hr>158</ns3:hr>
            <ns3:cad>77</ns3:cad>
          </ns3:TrackPointExtension>
        </extensions>
      </trkpt>
      <trkpt lat="52.0547117851674556732177734375" lon="1.23413541354238986968994140625">
        <ele>132.399993896484375</ele>
        <time>2025-09-05T12:04:02.000Z</time>
        <extensions>
          <ns3:TrackPointExtension>
            <ns3:hr>161</ns3:hr>
            <ns3:cad>77</ns3:cad>
          </ns3:TrackPointExtension>
        </extensions>
      </trkpt>
      <trkpt lat="52.0547389425337314605712890625" lon="1.234131641685962677001953125">
        <ele>132.399993896484375</ele>
        <time>2025-09-05T12:04:03.000Z</time>
        <extensions>
          <ns3:TrackPointExtension>
            <ns3:hr>161</ns3:hr>
            <ns3:cad>77</ns3:cad>
          </ns3:TrackPointExtension>
        </extensions>
      </trkpt>
      <trkpt lat="52.0547389425337314605712890625" lon="1.234131641685962677001953125">
        <ele>131.8000030517578125</ele>
        <time>2025-09-05T12:04:04.000Z</time>
        <extensions>
          <ns3:TrackPointExtension>
            <ns3:hr>159</ns3:hr>
            <ns3:cad>66</ns3:cad>
          </ns3:TrackPointExtension>
        </extensions>
      </trkpt>
      <trkpt lat="52.0547650940716266632080078125" lon="1.2341468967497348785400390625">
        <ele>130.8000030517578125</ele>
        <time>2025-09-05T12:04:06.000Z</time>
        <extensions>
          <ns3:TrackPointExtension>
            <ns3:hr>161</ns3:hr>
            <ns3:cad>72</ns3:cad>
          </ns3:TrackPointExtension>
        </extensions>
      </trkpt>
      <trkpt lat="52.05477573908865451812744140625" lon="1.23417195864021778106689453125">
        <ele>129.8000030517578125</ele>
        <time>2025-09-05T12:04:07.000Z</time>
        <extensions>
          <ns3:TrackPointExtension>
            <ns3:hr>161</ns3:hr>
            <ns3:cad>72</ns3:cad>
          </ns3:TrackPointExtension>
        </extensions>
      </trkpt>
      <trkpt lat="52.0548157207667827606201171875" lon="1.23421219177544116973876953125">
        <ele>127.8000030517578125</ele>
        <time>2025-09-05T12:04:09.000Z</time>
        <extensions>
          <ns3:TrackPointExtension>
            <ns3:hr>162</ns3:hr>
            <ns3:cad>75</ns3:cad>
          </ns3:TrackPointExtension>
        </extensions>
      </trkpt>
      <trkpt lat="52.054847739636898040771484375" lon="1.23421789146959781646728515625">
        <ele>126.40000152587890625</ele>
        <time>2025-09-05T12:04:10.000Z</time>
        <extensions>
          <ns3:TrackPointExtension>
            <ns3:hr>162</ns3:hr>
            <ns3:cad>78</ns3:cad>
          </ns3:TrackPointExtension>
        </extensions>
      </trkpt>
      <trkpt lat="52.05487548373639583587646484375" lon="1.23421638272702693939208984375">
        <ele>124.1999969482421875</ele>
        <time>2025-09-05T12:04:11.000Z</time>
        <extensions>
          <ns3:TrackPointExtension>
            <ns3:hr>159</ns3:hr>
            <ns3:cad>78</ns3:cad>
          </ns3:TrackPointExtension>
        </extensions>
      </trkpt>
      <trkpt lat="52.0549062453210353851318359375" lon="1.23421269468963146209716796875">
        <ele>123.1999969482421875</ele>
        <time>2025-09-05T12:04:12.000Z</time>
        <extensions>
          <ns3:TrackPointExtension>
            <ns3:hr>158</ns3:hr>
            <ns3:cad>78</ns3:cad>
          </ns3:TrackPointExtension>
        </extensions>
      </trkpt>
      <trkpt lat="52.05493382178246974945068359375" lon="1.234213449060916900634765625">
        <ele>122.1999969482421875</ele>
        <time>2025-09-05T12:04:13.000Z</time>
        <extensions>
          <ns3:TrackPointExtension>
            <ns3:hr>159</ns3:hr>
            <ns3:cad>78</ns3:cad>
          </ns3:TrackPointExtension>
        </extensions>
      </trkpt>
      <trkpt lat="52.05496081151068210601806640625" lon="1.23421202413737773895263671875">
        <ele>121.8000030517578125</ele>
        <time>2025-09-05T12:04:14.000Z</time>
        <extensions>
          <ns3:TrackPointExtension>
            <ns3:hr>160</ns3:hr>
            <ns3:cad>79</ns3:cad>
          </ns3:TrackPointExtension>
        </extensions>
      </trkpt>
      <trkpt lat="52.0551094226539134979248046875" lon="1.23420062474906444549560546875">
        <ele>120.8000030517578125</ele>
        <time>2025-09-05T12:04:20.000Z</time>
        <extensions>
          <ns3:TrackPointExtension>
            <ns3:hr>165</ns3:hr>
            <ns3:cad>79</ns3:cad>
          </ns3:TrackPointExtension>
        </extensions>
      </trkpt>
      <trkpt lat="52.05512861721217632293701171875" lon="1.2341851182281970977783203125">
        <ele>120.8000030517578125</ele>
        <time>2025-09-05T12:04:21.000Z</time>
        <extensions>
          <ns3:TrackPointExtension>
            <ns3:hr>165</ns3:hr>
            <ns3:cad>80</ns3:cad>
          </ns3:TrackPointExtension>
        </extensions>
      </trkpt>
      <trkpt lat="52.0551439560949802398681640625" lon="1.23418553732335567474365234375">
        <ele>120.8000030517578125</ele>
        <time>2025-09-05T12:04:22.000Z</time>
        <extensions>
          <ns3:TrackPointExtension>
            <ns3:hr>168</ns3:hr>
            <ns3:cad>80</ns3:cad>
          </ns3:TrackPointExtension>
        </extensions>
      </trkpt>
      <trkpt lat="52.055165581405162811279296875" lon="1.23420867137610912322998046875">
        <ele>120.8000030517578125</ele>
        <time>2025-09-05T12:04:24.000Z</time>
        <extensions>
          <ns3:TrackPointExtension>
            <ns3:hr>169</ns3:hr>
            <ns3:cad>80</ns3:cad>
          </ns3:TrackPointExtension>
        </extensions>
      </trkpt>
      <trkpt lat="52.0551593787968158721923828125" lon="1.23426583595573902130126953125">
        <ele>120.40000152587890625</ele>
        <time>2025-09-05T12:04:26.000Z</time>
        <extensions>
          <ns3:TrackPointExtension>
            <ns3:hr>170</ns3:hr>
            <ns3:cad>77</ns3:cad>
          </ns3:TrackPointExtension>
        </extensions>
      </trkpt>
      <trkpt lat="52.055135406553745269775390625" lon="1.23448225669562816619873046875">
        <ele>120.40000152587890625</ele>
        <time>2025-09-05T12:04:32.000Z</time>
        <extensions>
          <ns3:TrackPointExtension>
            <ns3:hr>173</ns3:hr>
            <ns3:cad>80</ns3:cad>
          </ns3:TrackPointExtension>
        </extensions>
      </trkpt>
      <trkpt lat="52.0551335625350475311279296875" lon="1.23451553285121917724609375">
        <ele>120.59999847412109375</ele>
        <time>2025-09-05T12:04:33.000Z</time>
        <extensions>
          <ns3:TrackPointExtension>
            <ns3:hr>173</ns3:hr>
            <ns3:cad>80</ns3:cad>
          </ns3:TrackPointExtension>
        </extensions>
      </trkpt>
      <trkpt lat="52.05512702465057373046875" lon="1.2346115894615650177001953125">
        <ele>121.40000152587890625</ele>
        <time>2025-09-05T12:04:36.000Z</time>
        <extensions>
          <ns3:TrackPointExtension>
            <ns3:hr>172</ns3:hr>
            <ns3:cad>80</ns3:cad>
          </ns3:TrackPointExtension>
        </extensions>
      </trkpt>
      <trkpt lat="52.05511772073805332183837890625" lon="1.23469901271164417266845703125">
        <ele>122.59999847412109375</ele>
        <time>2025-09-05T12:04:40.000Z</time>
        <extensions>
          <ns3:TrackPointExtension>
            <ns3:hr>173</ns3:hr>
            <ns3:cad>79</ns3:cad>
          </ns3:TrackPointExtension>
        </extensions>
      </trkpt>
      <trkpt lat="52.05511436797678470611572265625" lon="1.234716363251209259033203125">
        <ele>123</ele>
        <time>2025-09-05T12:04:41.000Z</time>
        <extensions>
          <ns3:TrackPointExtension>
            <ns3:hr>173</ns3:hr>
            <ns3:cad>0</ns3:cad>
          </ns3:TrackPointExtension>
        </extensions>
      </trkpt>
      <trkpt lat="52.05510598607361316680908203125" lon="1.2347750365734100341796875">
        <ele>123.40000152587890625</ele>
        <time>2025-09-05T12:04:45.000Z</time>
        <extensions>
          <ns3:TrackPointExtension>
            <ns3:hr>170</ns3:hr>
            <ns3:cad>0</ns3:cad>
          </ns3:TrackPointExtension>
        </extensions>
      </trkpt>
      <trkpt lat="52.05506139434874057769775390625" lon="1.23485483229160308837890625">
        <ele>123.1999969482421875</ele>
        <time>2025-09-05T12:04:49.000Z</time>
        <extensions>
          <ns3:TrackPointExtension>
            <ns3:hr>171</ns3:hr>
            <ns3:cad>54</ns3:cad>
          </ns3:TrackPointExtension>
        </extensions>
      </trkpt>
      <trkpt lat="52.0550467260181903839111328125" lon="1.23495063744485378265380859375">
        <ele>121.59999847412109375</ele>
        <time>2025-09-05T12:04:53.000Z</time>
        <extensions>
          <ns3:TrackPointExtension>
            <ns3:hr>169</ns3:hr>
            <ns3:cad>78</ns3:cad>
          </ns3:TrackPointExtension>
        </extensions>
      </trkpt>
      <trkpt lat="52.0550484023988246917724609375" lon="1.2349834106862545013427734375">
        <ele>120.40000152587890625</ele>
        <time>2025-09-05T12:04:54.000Z</time>
        <extensions>
          <ns3:TrackPointExtension>
            <ns3:hr>169</ns3:hr>
            <ns3:cad>78</ns3:cad>
          </ns3:TrackPointExtension>
        </extensions>
      </trkpt>
      <trkpt lat="52.05504714511334896087646484375" lon="1.23504820279777050018310546875">
        <ele>118.8000030517578125</ele>
        <time>2025-09-05T12:04:56.000Z</time>
        <extensions>
          <ns3:TrackPointExtension>
            <ns3:hr>169</ns3:hr>
            <ns3:cad>78</ns3:cad>
          </ns3:TrackPointExtension>
        </extensions>
      </trkpt>
      <trkpt lat="52.05504345707595348358154296875" lon="1.23515733517706394195556640625">
        <ele>117.8000030517578125</ele>
        <time>2025-09-05T12:04:59.000Z</time>
        <extensions>
          <ns3:TrackPointExtension>
            <ns3:hr>170</ns3:hr>
            <ns3:cad>79</ns3:cad>
          </ns3:TrackPointExtension>
        </extensions>
      </trkpt>
      <trkpt lat="52.05503021366894245147705078125" lon="1.23533855192363262176513671875">
        <ele>117.40000152587890625</ele>
        <time>2025-09-05T12:05:04.000Z</time>
        <extensions>
          <ns3:TrackPointExtension>
            <ns3:hr>173</ns3:hr>
            <ns3:cad>81</ns3:cad>
          </ns3:TrackPointExtension>
        </extensions>
      </trkpt>
      <trkpt lat="52.05502577126026153564453125" lon="1.2353850714862346649169921875">
        <ele>117.59999847412109375</ele>
        <time>2025-09-05T12:05:05.000Z</time>
        <extensions>
          <ns3:TrackPointExtension>
            <ns3:hr>173</ns3:hr>
            <ns3:cad>81</ns3:cad>
          </ns3:TrackPointExtension>
        </extensions>
      </trkpt>
      <trkpt lat="52.0550359971821308135986328125" lon="1.23565304093062877655029296875">
        <ele>119.40000152587890625</ele>
        <time>2025-09-05T12:05:12.000Z</time>
        <extensions>
          <ns3:TrackPointExtension>
            <ns3:hr>174</ns3:hr>
            <ns3:cad>81</ns3:cad>
          </ns3:TrackPointExtension>
        </extensions>
      </trkpt>
      <trkpt lat="52.05503859557211399078369140625" lon="1.2356888316571712493896484375">
        <ele>119.59999847412109375</ele>
        <time>2025-09-05T12:05:13.000Z</time>
        <extensions>
          <ns3:TrackPointExtension>
            <ns3:hr>174</ns3:hr>
            <ns3:cad>81</ns3:cad>
          </ns3:TrackPointExtension>
        </extensions>
      </trkpt>
      <trkpt lat="52.055046893656253814697265625" lon="1.235751025378704071044921875">
        <ele>121</ele>
        <time>2025-09-05T12:05:15.000Z</time>
        <extensions>
          <ns3:TrackPointExtension>
            <ns3:hr>170</ns3:hr>
            <ns3:cad>81</ns3:cad>
          </ns3:TrackPointExtension>
        </extensions>
      </trkpt>
      <trkpt lat="52.05505049787461757659912109375" lon="1.23578195460140705108642578125">
        <ele>122.1999969482421875</ele>
        <time>2025-09-05T12:05:16.000Z</time>
        <extensions>
          <ns3:TrackPointExtension>
            <ns3:hr>171</ns3:hr>
            <ns3:cad>81</ns3:cad>
          </ns3:TrackPointExtension>
        </extensions>
      </trkpt>
      <trkpt lat="52.0550586283206939697265625" lon="1.23585035093128681182861328125">
        <ele>124</ele>
        <time>2025-09-05T12:05:18.000Z</time>
        <extensions>
          <ns3:TrackPointExtension>
            <ns3:hr>171</ns3:hr>
            <ns3:cad>81</ns3:cad>
          </ns3:TrackPointExtension>
        </extensions>
      </trkpt>
      <trkpt lat="52.0550742186605930328369140625" lon="1.23601849190890789031982421875">
        <ele>125</ele>
        <time>2025-09-05T12:05:22.000Z</time>
        <extensions>
          <ns3:TrackPointExtension>
            <ns3:hr>169</ns3:hr>
            <ns3:cad>81</ns3:cad>
          </ns3:TrackPointExtension>
        </extensions>
      </trkpt>
      <trkpt lat="52.055107913911342620849609375" lon="1.23619333840906620025634765625">
        <ele>123.8000030517578125</ele>
        <time>2025-09-05T12:05:29.000Z</time>
        <extensions>
          <ns3:TrackPointExtension>
            <ns3:hr>171</ns3:hr>
            <ns3:cad>79</ns3:cad>
          </ns3:TrackPointExtension>
        </extensions>
      </trkpt>
      <trkpt lat="52.05511637963354587554931640625" lon="1.236202307045459747314453125">
        <ele>122.8000030517578125</ele>
        <time>2025-09-05T12:05:32.000Z</time>
        <extensions>
          <ns3:TrackPointExtension>
            <ns3:hr>169</ns3:hr>
            <ns3:cad>0</ns3:cad>
          </ns3:TrackPointExtension>
        </extensions>
      </trkpt>
      <trkpt lat="52.05512040294706821441650390625" lon="1.23619727790355682373046875">
        <ele>121.59999847412109375</ele>
        <time>2025-09-05T12:05:35.000Z</time>
        <extensions>
          <ns3:TrackPointExtension>
            <ns3:hr>170</ns3:hr>
            <ns3:cad>0</ns3:cad>
          </ns3:TrackPointExtension>
        </extensions>
      </trkpt>
      <trkpt lat="52.0551147870719432830810546875" lon="1.23617975972592830657958984375">
        <ele>120.40000152587890625</ele>
        <time>2025-09-05T12:05:38.000Z</time>
        <extensions>
          <ns3:TrackPointExtension>
            <ns3:hr>170</ns3:hr>
            <ns3:cad>0</ns3:cad>
          </ns3:TrackPointExtension>
        </extensions>
      </trkpt>
      <trkpt lat="52.05511235632002353668212890625" lon="1.23617556877434253692626953125">
        <ele>119.8000030517578125</ele>
        <time>2025-09-05T12:05:39.000Z</time>
        <extensions>
          <ns3:TrackPointExtension>
            <ns3:hr>171</ns3:hr>
            <ns3:cad>0</ns3:cad>
          </ns3:TrackPointExtension>
        </extensions>
      </trkpt>
      <trkpt lat="52.0551087521016597747802734375" lon="1.23616433702409267425537109375">
        <ele>119.1999969482421875</ele>
        <time>2025-09-05T12:05:41.000Z</time>
        <extensions>
          <ns3:TrackPointExtension>
            <ns3:hr>171</ns3:hr>
            <ns3:cad>0</ns3:cad>
          </ns3:TrackPointExtension>
        </extensions>
      </trkpt>
      <trkpt lat="52.05510548315942287445068359375" lon="1.23615444637835025787353515625">
        <ele>118.40000152587890625</ele>
        <time>2025-09-05T12:05:45.000Z</time>
        <extensions>
          <ns3:TrackPointExtension>
            <ns3:hr>168</ns3:hr>
            <ns3:cad>0</ns3:cad>
          </ns3:TrackPointExtension>
        </extensions>
      </trkpt>
      <trkpt lat="52.05510548315942287445068359375" lon="1.23615444637835025787353515625">
        <ele>118.1999969482421875</ele>
        <time>2025-09-05T12:05:46.000Z</time>
        <extensions>
          <ns3:TrackPointExtension>
            <ns3:hr>166</ns3:hr>
            <ns3:cad>0</ns3:cad>
          </ns3:TrackPointExtension>
        </extensions>
      </trkpt>
      <trkpt lat="52.0551094226539134979248046875" lon="1.23615746386349201202392578125">
        <ele>118</ele>
        <time>2025-09-05T12:05:47.000Z</time>
        <extensions>
          <ns3:TrackPointExtension>
            <ns3:hr>165</ns3:hr>
            <ns3:cad>0</ns3:cad>
          </ns3:TrackPointExtension>
        </extensions>
      </trkpt>
      <trkpt lat="52.05510363914072513580322265625" lon="1.236149333417415618896484375">
        <ele>117.1999969482421875</ele>
        <time>2025-09-05T12:05:50.000Z</time>
        <extensions>
          <ns3:TrackPointExtension>
            <ns3:hr>164</ns3:hr>
            <ns3:cad>0</ns3:cad>
          </ns3:TrackPointExtension>
        </extensions>
      </trkpt>
      <trkpt lat="52.055099867284297943115234375" lon="1.2361501716077327728271484375">
        <ele>115.59999847412109375</ele>
        <time>2025-09-05T12:05:53.000Z</time>
        <extensions>
          <ns3:TrackPointExtension>
            <ns3:hr>163</ns3:hr>
            <ns3:cad>0</ns3:cad>
          </ns3:TrackPointExtension>
        </extensions>
      </trkpt>
      <trkpt lat="52.05508888699114322662353515625" lon="1.23615595512092113494873046875">
        <ele>114.40000152587890625</ele>
        <time>2025-09-05T12:05:56.000Z</time>
        <extensions>
          <ns3:TrackPointExtension>
            <ns3:hr>162</ns3:hr>
            <ns3:cad>0</ns3:cad>
          </ns3:TrackPointExtension>
        </extensions>
      </trkpt>
      <trkpt lat="52.05508603714406490325927734375" lon="1.23615310527384281158447265625">
        <ele>113.40000152587890625</ele>
        <time>2025-09-05T12:05:57.000Z</time>
        <extensions>
          <ns3:TrackPointExtension>
            <ns3:hr>161</ns3:hr>
            <ns3:cad>0</ns3:cad>
          </ns3:TrackPointExtension>
        </extensions>
      </trkpt>
      <trkpt lat="52.05508318729698657989501953125" lon="1.23615109361708164215087890625">
        <ele>112.1999969482421875</ele>
        <time>2025-09-05T12:05:58.000Z</time>
        <extensions>
          <ns3:TrackPointExtension>
            <ns3:hr>160</ns3:hr>
            <ns3:cad>0</ns3:cad>
          </ns3:TrackPointExtension>
        </extensions>
      </trkpt>
      <trkpt lat="52.0550725422799587249755859375" lon="1.2361676059663295745849609375">
        <ele>111</ele>
        <time>2025-09-05T12:06:00.000Z</time>
        <extensions>
          <ns3:TrackPointExtension>
            <ns3:hr>159</ns3:hr>
            <ns3:cad>0</ns3:cad>
          </ns3:TrackPointExtension>
        </extensions>
      </trkpt>
      <trkpt lat="52.05506189726293087005615234375" lon="1.236274726688861846923828125">
        <ele>109.8000030517578125</ele>
        <time>2025-09-05T12:06:02.000Z</time>
        <extensions>
          <ns3:TrackPointExtension>
            <ns3:hr>157</ns3:hr>
            <ns3:cad>80</ns3:cad>
          </ns3:TrackPointExtension>
        </extensions>
      </trkpt>
      <trkpt lat="52.0550544373691082000732421875" lon="1.2363838590681552886962890625">
        <ele>108.40000152587890625</ele>
        <time>2025-09-05T12:06:05.000Z</time>
        <extensions>
          <ns3:TrackPointExtension>
            <ns3:hr>154</ns3:hr>
            <ns3:cad>80</ns3:cad>
          </ns3:TrackPointExtension>
        </extensions>
      </trkpt>
      <trkpt lat="52.0550561137497425079345703125" lon="1.23648695647716522216796875">
        <ele>107.8000030517578125</ele>
        <time>2025-09-05T12:06:07.000Z</time>
        <extensions>
          <ns3:TrackPointExtension>
            <ns3:hr>158</ns3:hr>
            <ns3:cad>80</ns3:cad>
          </ns3:TrackPointExtension>
        </extensions>
      </trkpt>
      <trkpt lat="52.0550618134438991546630859375" lon="1.23653179965913295745849609375">
        <ele>106</ele>
        <time>2025-09-05T12:06:08.000Z</time>
        <extensions>
          <ns3:TrackPointExtension>
            <ns3:hr>159</ns3:hr>
            <ns3:cad>80</ns3:cad>
          </ns3:TrackPointExtension>
        </extensions>
      </trkpt>
      <trkpt lat="52.05506407655775547027587890625" lon="1.23662617988884449005126953125">
        <ele>104.40000152587890625</ele>
        <time>2025-09-05T12:06:09.000Z</time>
        <extensions>
          <ns3:TrackPointExtension>
            <ns3:hr>160</ns3:hr>
            <ns3:cad>81</ns3:cad>
          </ns3:TrackPointExtension>
        </extensions>
      </trkpt>
      <trkpt lat="52.0550665073096752166748046875" lon="1.2366691790521144866943359375">
        <ele>103</ele>
        <time>2025-09-05T12:06:10.000Z</time>
        <extensions>
          <ns3:TrackPointExtension>
            <ns3:hr>161</ns3:hr>
            <ns3:cad>81</ns3:cad>
          </ns3:TrackPointExtension>
        </extensions>
      </trkpt>
      <trkpt lat="52.05506860278546810150146484375" lon="1.23670865781605243682861328125">
        <ele>99.59999847412109375</ele>
        <time>2025-09-05T12:06:12.000Z</time>
        <extensions>
          <ns3:TrackPointExtension>
            <ns3:hr>163</ns3:hr>
            <ns3:cad>81</ns3:cad>
          </ns3:TrackPointExtension>
        </extensions>
      </trkpt>
      <trkpt lat="52.05507011152803897857666015625" lon="1.236789040267467498779296875">
        <ele>98</ele>
        <time>2025-09-05T12:06:13.000Z</time>
        <extensions>
          <ns3:TrackPointExtension>
            <ns3:hr>165</ns3:hr>
            <ns3:cad>81</ns3:cad>
          </ns3:TrackPointExtension>
        </extensions>
      </trkpt>
      <trkpt lat="52.0550712011754512786865234375" lon="1.23686137609183788299560546875">
        <ele>96.40000152587890625</ele>
        <time>2025-09-05T12:06:15.000Z</time>
        <extensions>
          <ns3:TrackPointExtension>
            <ns3:hr>166</ns3:hr>
            <ns3:cad>81</ns3:cad>
          </ns3:TrackPointExtension>
        </extensions>
      </trkpt>
      <trkpt lat="52.05507899634540081024169921875" lon="1.23693698085844516754150390625">
        <ele>95.1999969482421875</ele>
        <time>2025-09-05T12:06:18.000Z</time>
        <extensions>
          <ns3:TrackPointExtension>
            <ns3:hr>168</ns3:hr>
            <ns3:cad>81</ns3:cad>
          </ns3:TrackPointExtension>
        </extensions>
      </trkpt>
      <trkpt lat="52.0550812594592571258544921875" lon="1.23712087981402873992919921875">
        <ele>94</ele>
        <time>2025-09-05T12:06:22.000Z</time>
        <extensions>
          <ns3:TrackPointExtension>
            <ns3:hr>168</ns3:hr>
            <ns3:cad>81</ns3:cad>
          </ns3:TrackPointExtension>
        </extensions>
      </trkpt>
      <trkpt lat="52.0550805889070034027099609375" lon="1.2371573410928249359130859375">
        <ele>93.8000030517578125</ele>
        <time>2025-09-05T12:06:23.000Z</time>
        <extensions>
          <ns3:TrackPointExtension>
            <ns3:hr>169</ns3:hr>
            <ns3:cad>81</ns3:cad>
          </ns3:TrackPointExtension>
        </extensions>
      </trkpt>
      <trkpt lat="52.055105231702327728271484375" lon="1.23740502633154392242431640625">
        <ele>93.59999847412109375</ele>
        <time>2025-09-05T12:06:30.000Z</time>
        <extensions>
          <ns3:TrackPointExtension>
            <ns3:hr>167</ns3:hr>
            <ns3:cad>80</ns3:cad>
          </ns3:TrackPointExtension>
        </extensions>
      </trkpt>
      <trkpt lat="52.05512744374573230743408203125" lon="1.23748205602169036865234375">
        <ele>93.40000152587890625</ele>
        <time>2025-09-05T12:06:33.000Z</time>
        <extensions>
          <ns3:TrackPointExtension>
            <ns3:hr>170</ns3:hr>
            <ns3:cad>81</ns3:cad>
          </ns3:TrackPointExtension>
        </extensions>
      </trkpt>
      <trkpt lat="52.05513532273471355438232421875" lon="1.23751021921634674072265625">
        <ele>93.1999969482421875</ele>
        <time>2025-09-05T12:06:34.000Z</time>
        <extensions>
          <ns3:TrackPointExtension>
            <ns3:hr>170</ns3:hr>
            <ns3:cad>82</ns3:cad>
          </ns3:TrackPointExtension>
        </extensions>
      </trkpt>
      <trkpt lat="52.05516449175775051116943359375" lon="1.23761340044438838958740234375">
        <ele>93.8000030517578125</ele>
        <time>2025-09-05T12:06:37.000Z</time>
        <extensions>
          <ns3:TrackPointExtension>
            <ns3:hr>173</ns3:hr>
            <ns3:cad>82</ns3:cad>
          </ns3:TrackPointExtension>
        </extensions>
      </trkpt>
      <trkpt lat="52.05517941154539585113525390625" lon="1.23768858611583709716796875">
        <ele>94.1999969482421875</ele>
        <time>2025-09-05T12:06:39.000Z</time>
        <extensions>
          <ns3:TrackPointExtension>
            <ns3:hr>174</ns3:hr>
            <ns3:cad>82</ns3:cad>
          </ns3:TrackPointExtension>
        </extensions>
      </trkpt>
      <trkpt lat="52.0551885478198528289794921875" lon="1.2377182580530643463134765625">
        <ele>94.1999969482421875</ele>
        <time>2025-09-05T12:06:40.000Z</time>
        <extensions>
          <ns3:TrackPointExtension>
            <ns3:hr>174</ns3:hr>
            <ns3:cad>82</ns3:cad>
          </ns3:TrackPointExtension>
        </extensions>
      </trkpt>
      <trkpt lat="52.0552100054919719696044921875" lon="1.23781925998628139495849609375">
        <ele>95.1999969482421875</ele>
        <time>2025-09-05T12:06:43.000Z</time>
        <extensions>
          <ns3:TrackPointExtension>
            <ns3:hr>174</ns3:hr>
            <ns3:cad>82</ns3:cad>
          </ns3:TrackPointExtension>
        </extensions>
      </trkpt>
      <trkpt lat="52.05522299744188785552978515625" lon="1.23788774013519287109375">
        <ele>95.59999847412109375</ele>
        <time>2025-09-05T12:06:45.000Z</time>
        <extensions>
          <ns3:TrackPointExtension>
            <ns3:hr>175</ns3:hr>
            <ns3:cad>82</ns3:cad>
          </ns3:TrackPointExtension>
        </extensions>
      </trkpt>
      <trkpt lat="52.05522584728896617889404296875" lon="1.23791791498661041259765625">
        <ele>96.59999847412109375</ele>
        <time>2025-09-05T12:06:46.000Z</time>
        <extensions>
          <ns3:TrackPointExtension>
            <ns3:hr>176</ns3:hr>
            <ns3:cad>82</ns3:cad>
          </ns3:TrackPointExtension>
        </extensions>
      </trkpt>
      <trkpt lat="52.05523657612502574920654296875" lon="1.237977929413318634033203125">
        <ele>98.40000152587890625</ele>
        <time>2025-09-05T12:06:48.000Z</time>
        <extensions>
          <ns3:TrackPointExtension>
            <ns3:hr>175</ns3:hr>
            <ns3:cad>82</ns3:cad>
          </ns3:TrackPointExtension>
        </extensions>
      </trkpt>
      <trkpt lat="52.05524931661784648895263671875" lon="1.2380347587168216705322265625">
        <ele>99.59999847412109375</ele>
        <time>2025-09-05T12:06:50.000Z</time>
        <extensions>
          <ns3:TrackPointExtension>
            <ns3:hr>174</ns3:hr>
            <ns3:cad>82</ns3:cad>
          </ns3:TrackPointExtension>
        </extensions>
      </trkpt>
      <trkpt lat="52.05526775680482387542724609375" lon="1.23809653334319591522216796875">
        <ele>101.59999847412109375</ele>
        <time>2025-09-05T12:06:52.000Z</time>
        <extensions>
          <ns3:TrackPointExtension>
            <ns3:hr>173</ns3:hr>
            <ns3:cad>81</ns3:cad>
          </ns3:TrackPointExtension>
        </extensions>
      </trkpt>
      <trkpt lat="52.05527865327894687652587890625" lon="1.238129138946533203125">
        <ele>104</ele>
        <time>2025-09-05T12:06:53.000Z</time>
        <extensions>
          <ns3:TrackPointExtension>
            <ns3:hr>174</ns3:hr>
            <ns3:cad>81</ns3:cad>
          </ns3:TrackPointExtension>
        </extensions>
      </trkpt>
      <trkpt lat="52.055288963019847869873046875" lon="1.2381638400256633758544921875">
        <ele>106</ele>
        <time>2025-09-05T12:06:54.000Z</time>
        <extensions>
          <ns3:TrackPointExtension>
            <ns3:hr>173</ns3:hr>
            <ns3:cad>82</ns3:cad>
          </ns3:TrackPointExtension>
        </extensions>
      </trkpt>
      <trkpt lat="52.055298350751399993896484375" lon="1.2381993792951107025146484375">
        <ele>107.40000152587890625</ele>
        <time>2025-09-05T12:06:55.000Z</time>
        <extensions>
          <ns3:TrackPointExtension>
            <ns3:hr>172</ns3:hr>
            <ns3:cad>82</ns3:cad>
          </ns3:TrackPointExtension>
        </extensions>
      </trkpt>
      <trkpt lat="52.05531067214906215667724609375" lon="1.23823433183133602142333984375">
        <ele>109.59999847412109375</ele>
        <time>2025-09-05T12:06:56.000Z</time>
        <extensions>
          <ns3:TrackPointExtension>
            <ns3:hr>172</ns3:hr>
            <ns3:cad>82</ns3:cad>
          </ns3:TrackPointExtension>
        </extensions>
      </trkpt>
      <trkpt lat="52.0553219877183437347412109375" lon="1.2382681109011173248291015625">
        <ele>111</ele>
        <time>2025-09-05T12:06:57.000Z</time>
        <extensions>
          <ns3:TrackPointExtension>
            <ns3:hr>173</ns3:hr>
            <ns3:cad>82</ns3:cad>
          </ns3:TrackPointExtension>
        </extensions>
      </trkpt>
      <trkpt lat="52.055332548916339874267578125" lon="1.238305829465389251708984375">
        <ele>112</ele>
        <time>2025-09-05T12:06:58.000Z</time>
        <extensions>
          <ns3:TrackPointExtension>
            <ns3:hr>173</ns3:hr>
            <ns3:cad>82</ns3:cad>
          </ns3:TrackPointExtension>
        </extensions>
      </trkpt>
      <trkpt lat="52.055351324379444122314453125" lon="1.23837766237556934356689453125">
        <ele>113.1999969482421875</ele>
        <time>2025-09-05T12:07:00.000Z</time>
        <extensions>
          <ns3:TrackPointExtension>
            <ns3:hr>173</ns3:hr>
            <ns3:cad>82</ns3:cad>
          </ns3:TrackPointExtension>
        </extensions>
      </trkpt>
      <trkpt lat="52.05539080314338207244873046875" lon="1.23846516944468021392822265625">
        <ele>113.8000030517578125</ele>
        <time>2025-09-05T12:07:03.000Z</time>
        <extensions>
          <ns3:TrackPointExtension>
            <ns3:hr>172</ns3:hr>
            <ns3:cad>81</ns3:cad>
          </ns3:TrackPointExtension>
        </extensions>
      </trkpt>
      <trkpt lat="52.05541175790131092071533203125" lon="1.23851864598691463470458984375">
        <ele>114.59999847412109375</ele>
        <time>2025-09-05T12:07:05.000Z</time>
        <extensions>
          <ns3:TrackPointExtension>
            <ns3:hr>171</ns3:hr>
            <ns3:cad>82</ns3:cad>
          </ns3:TrackPointExtension>
        </extensions>
      </trkpt>
      <trkpt lat="52.0554420165717601776123046875" lon="1.2385889701545238494873046875">
        <ele>115.8000030517578125</ele>
        <time>2025-09-05T12:07:08.000Z</time>
        <extensions>
          <ns3:TrackPointExtension>
            <ns3:hr>169</ns3:hr>
            <ns3:cad>81</ns3:cad>
          </ns3:TrackPointExtension>
        </extensions>
      </trkpt>
      <trkpt lat="52.0554668270051479339599609375" lon="1.23864018358290195465087890625">
        <ele>117</ele>
        <time>2025-09-05T12:07:10.000Z</time>
        <extensions>
          <ns3:TrackPointExtension>
            <ns3:hr>169</ns3:hr>
            <ns3:cad>81</ns3:cad>
          </ns3:TrackPointExtension>
        </extensions>
      </trkpt>
      <trkpt lat="52.05549306236207485198974609375" lon="1.23870170675218105316162109375">
        <ele>117.40000152587890625</ele>
        <time>2025-09-05T12:07:12.000Z</time>
        <extensions>
          <ns3:TrackPointExtension>
            <ns3:hr>170</ns3:hr>
            <ns3:cad>81</ns3:cad>
          </ns3:TrackPointExtension>
        </extensions>
      </trkpt>
      <trkpt lat="52.0555181242525577545166015625" lon="1.23881100676953792572021484375">
        <ele>118</ele>
        <time>2025-09-05T12:07:15.000Z</time>
        <extensions>
          <ns3:TrackPointExtension>
            <ns3:hr>172</ns3:hr>
            <ns3:cad>81</ns3:cad>
          </ns3:TrackPointExtension>
        </extensions>
      </trkpt>
      <trkpt lat="52.0555550046265125274658203125" lon="1.23891142196953296661376953125">
        <ele>119.59999847412109375</ele>
        <time>2025-09-05T12:07:18.000Z</time>
        <extensions>
          <ns3:TrackPointExtension>
            <ns3:hr>173</ns3:hr>
            <ns3:cad>81</ns3:cad>
          </ns3:TrackPointExtension>
        </extensions>
      </trkpt>
      <trkpt lat="52.05557872541248798370361328125" lon="1.2389728613197803497314453125">
        <ele>120.1999969482421875</ele>
        <time>2025-09-05T12:07:20.000Z</time>
        <extensions>
          <ns3:TrackPointExtension>
            <ns3:hr>172</ns3:hr>
            <ns3:cad>82</ns3:cad>
          </ns3:TrackPointExtension>
        </extensions>
      </trkpt>
      <trkpt lat="52.05562901683151721954345703125" lon="1.23907503671944141387939453125">
        <ele>120.8000030517578125</ele>
        <time>2025-09-05T12:07:24.000Z</time>
        <extensions>
          <ns3:TrackPointExtension>
            <ns3:hr>173</ns3:hr>
            <ns3:cad>82</ns3:cad>
          </ns3:TrackPointExtension>
        </extensions>
      </trkpt>
      <trkpt lat="52.0556659810245037078857421875" lon="1.2391649745404720306396484375">
        <ele>121.1999969482421875</ele>
        <time>2025-09-05T12:07:27.000Z</time>
        <extensions>
          <ns3:TrackPointExtension>
            <ns3:hr>175</ns3:hr>
            <ns3:cad>82</ns3:cad>
          </ns3:TrackPointExtension>
        </extensions>
      </trkpt>
      <trkpt lat="52.05572389997541904449462890625" lon="1.23944451101124286651611328125">
        <ele>121.1999969482421875</ele>
        <time>2025-09-05T12:07:34.000Z</time>
        <extensions>
          <ns3:TrackPointExtension>
            <ns3:hr>174</ns3:hr>
            <ns3:cad>82</ns3:cad>
          </ns3:TrackPointExtension>
        </extensions>
      </trkpt>
      <trkpt lat="52.055730856955051422119140625" lon="1.23953998088836669921875">
        <ele>120.59999847412109375</ele>
        <time>2025-09-05T12:07:36.000Z</time>
        <extensions>
          <ns3:TrackPointExtension>
            <ns3:hr>174</ns3:hr>
            <ns3:cad>82</ns3:cad>
          </ns3:TrackPointExtension>
        </extensions>
      </trkpt>
      <trkpt lat="52.0558111555874347686767578125" lon="1.23983728699386119842529296875">
        <ele>120.1999969482421875</ele>
        <time>2025-09-05T12:07:44.000Z</time>
        <extensions>
          <ns3:TrackPointExtension>
            <ns3:hr>173</ns3:hr>
            <ns3:cad>82</ns3:cad>
          </ns3:TrackPointExtension>
        </extensions>
      </trkpt>
      <trkpt lat="52.055857591331005096435546875" lon="1.24000961892306804656982421875">
        <ele>122</ele>
        <time>2025-09-05T12:07:50.000Z</time>
        <extensions>
          <ns3:TrackPointExtension>
            <ns3:hr>172</ns3:hr>
            <ns3:cad>82</ns3:cad>
          </ns3:TrackPointExtension>
        </extensions>
      </trkpt>
      <trkpt lat="52.0558718405663967132568359375" lon="1.2400799430906772613525390625">
        <ele>123.59999847412109375</ele>
        <time>2025-09-05T12:07:52.000Z</time>
        <extensions>
          <ns3:TrackPointExtension>
            <ns3:hr>172</ns3:hr>
            <ns3:cad>82</ns3:cad>
          </ns3:TrackPointExtension>
        </extensions>
      </trkpt>
      <trkpt lat="52.0558929629623889923095703125" lon="1.240183375775814056396484375">
        <ele>126</ele>
        <time>2025-09-05T12:07:54.000Z</time>
        <extensions>
          <ns3:TrackPointExtension>
            <ns3:hr>173</ns3:hr>
            <ns3:cad>82</ns3:cad>
          </ns3:TrackPointExtension>
        </extensions>
      </trkpt>
      <trkpt lat="52.05591500736773014068603515625" lon="1.24025118537247180938720703125">
        <ele>127.1999969482421875</ele>
        <time>2025-09-05T12:07:56.000Z</time>
        <extensions>
          <ns3:TrackPointExtension>
            <ns3:hr>171</ns3:hr>
            <ns3:cad>81</ns3:cad>
          </ns3:TrackPointExtension>
        </extensions>
      </trkpt>
      <trkpt lat="52.05596026964485645294189453125" lon="1.2403719685971736907958984375">
        <ele>128.1999969482421875</ele>
        <time>2025-09-05T12:08:01.000Z</time>
        <extensions>
          <ns3:TrackPointExtension>
            <ns3:hr>171</ns3:hr>
            <ns3:cad>81</ns3:cad>
          </ns3:TrackPointExtension>
        </extensions>
      </trkpt>
      <trkpt lat="52.05596714280545711517333984375" lon="1.24040591530501842498779296875">
        <ele>128.399993896484375</ele>
        <time>2025-09-05T12:08:02.000Z</time>
        <extensions>
          <ns3:TrackPointExtension>
            <ns3:hr>173</ns3:hr>
            <ns3:cad>81</ns3:cad>
          </ns3:TrackPointExtension>
        </extensions>
      </trkpt>
      <trkpt lat="52.05601156689226627349853515625" lon="1.24067078344523906707763671875">
        <ele>128.399993896484375</ele>
        <time>2025-09-05T12:08:08.000Z</time>
        <extensions>
          <ns3:TrackPointExtension>
            <ns3:hr>170</ns3:hr>
            <ns3:cad>80</ns3:cad>
          </ns3:TrackPointExtension>
        </extensions>
      </trkpt>
      <trkpt lat="52.0560337789356708526611328125" lon="1.240780167281627655029296875">
        <ele>129.8000030517578125</ele>
        <time>2025-09-05T12:08:12.000Z</time>
        <extensions>
          <ns3:TrackPointExtension>
            <ns3:hr>169</ns3:hr>
            <ns3:cad>81</ns3:cad>
          </ns3:TrackPointExtension>
        </extensions>
      </trkpt>
      <trkpt lat="52.05604073591530323028564453125" lon="1.24085132963955402374267578125">
        <ele>131</ele>
        <time>2025-09-05T12:08:14.000Z</time>
        <extensions>
          <ns3:TrackPointExtension>
            <ns3:hr>171</ns3:hr>
            <ns3:cad>80</ns3:cad>
          </ns3:TrackPointExtension>
        </extensions>
      </trkpt>
      <trkpt lat="52.05605029128491878509521484375" lon="1.24092592857778072357177734375">
        <ele>131.600006103515625</ele>
        <time>2025-09-05T12:08:16.000Z</time>
        <extensions>
          <ns3:TrackPointExtension>
            <ns3:hr>171</ns3:hr>
            <ns3:cad>80</ns3:cad>
          </ns3:TrackPointExtension>
        </extensions>
      </trkpt>
      <trkpt lat="52.05606437288224697113037109375" lon="1.24108560383319854736328125">
        <ele>132.1999969482421875</ele>
        <time>2025-09-05T12:08:19.000Z</time>
        <extensions>
          <ns3:TrackPointExtension>
            <ns3:hr>173</ns3:hr>
            <ns3:cad>81</ns3:cad>
          </ns3:TrackPointExtension>
        </extensions>
      </trkpt>
      <trkpt lat="52.0560874231159687042236328125" lon="1.24117453582584857940673828125">
        <ele>133.399993896484375</ele>
        <time>2025-09-05T12:08:23.000Z</time>
        <extensions>
          <ns3:TrackPointExtension>
            <ns3:hr>172</ns3:hr>
            <ns3:cad>81</ns3:cad>
          </ns3:TrackPointExtension>
        </extensions>
      </trkpt>
      <trkpt lat="52.05609521828591823577880859375" lon="1.24121166765689849853515625">
        <ele>134</ele>
        <time>2025-09-05T12:08:24.000Z</time>
        <extensions>
          <ns3:TrackPointExtension>
            <ns3:hr>173</ns3:hr>
            <ns3:cad>81</ns3:cad>
          </ns3:TrackPointExtension>
        </extensions>
      </trkpt>
      <trkpt lat="52.0561018399894237518310546875" lon="1.24124544672667980194091796875">
        <ele>134.600006103515625</ele>
        <time>2025-09-05T12:08:25.000Z</time>
        <extensions>
          <ns3:TrackPointExtension>
            <ns3:hr>172</ns3:hr>
            <ns3:cad>80</ns3:cad>
          </ns3:TrackPointExtension>
        </extensions>
      </trkpt>
      <trkpt lat="52.05611332319676876068115234375" lon="1.241297163069248199462890625">
        <ele>136.1999969482421875</ele>
        <time>2025-09-05T12:08:27.000Z</time>
        <extensions>
          <ns3:TrackPointExtension>
            <ns3:hr>172</ns3:hr>
            <ns3:cad>80</ns3:cad>
          </ns3:TrackPointExtension>
        </extensions>
      </trkpt>
      <trkpt lat="52.05612204037606716156005859375" lon="1.24131954275071620941162109375">
        <ele>139</ele>
        <time>2025-09-05T12:08:28.000Z</time>
        <extensions>
          <ns3:TrackPointExtension>
            <ns3:hr>172</ns3:hr>
            <ns3:cad>80</ns3:cad>
          </ns3:TrackPointExtension>
        </extensions>
      </trkpt>
      <trkpt lat="52.0561313442885875701904296875" lon="1.24134452082216739654541015625">
        <ele>140.399993896484375</ele>
        <time>2025-09-05T12:08:29.000Z</time>
        <extensions>
          <ns3:TrackPointExtension>
            <ns3:hr>171</ns3:hr>
            <ns3:cad>80</ns3:cad>
          </ns3:TrackPointExtension>
        </extensions>
      </trkpt>
      <trkpt lat="52.05614282749593257904052734375" lon="1.24136991798877716064453125">
        <ele>141.600006103515625</ele>
        <time>2025-09-05T12:08:30.000Z</time>
        <extensions>
          <ns3:TrackPointExtension>
            <ns3:hr>172</ns3:hr>
            <ns3:cad>80</ns3:cad>
          </ns3:TrackPointExtension>
        </extensions>
      </trkpt>
      <trkpt lat="52.0561561547219753265380859375" lon="1.24139271676540374755859375">
        <ele>142.8000030517578125</ele>
        <time>2025-09-05T12:08:31.000Z</time>
        <extensions>
          <ns3:TrackPointExtension>
            <ns3:hr>171</ns3:hr>
            <ns3:cad>80</ns3:cad>
          </ns3:TrackPointExtension>
        </extensions>
      </trkpt>
      <trkpt lat="52.05616780556738376617431640625" lon="1.24141761101782321929931640625">
        <ele>144.600006103515625</ele>
        <time>2025-09-05T12:08:32.000Z</time>
        <extensions>
          <ns3:TrackPointExtension>
            <ns3:hr>171</ns3:hr>
            <ns3:cad>80</ns3:cad>
          </ns3:TrackPointExtension>
        </extensions>
      </trkpt>
      <trkpt lat="52.05617752857506275177001953125" lon="1.2414448522031307220458984375">
        <ele>146</ele>
        <time>2025-09-05T12:08:33.000Z</time>
        <extensions>
          <ns3:TrackPointExtension>
            <ns3:hr>173</ns3:hr>
            <ns3:cad>80</ns3:cad>
          </ns3:TrackPointExtension>
        </extensions>
      </trkpt>
      <trkpt lat="52.05619387328624725341796875" lon="1.24149975366890430450439453125">
        <ele>147.1999969482421875</ele>
        <time>2025-09-05T12:08:35.000Z</time>
        <extensions>
          <ns3:TrackPointExtension>
            <ns3:hr>171</ns3:hr>
            <ns3:cad>80</ns3:cad>
          </ns3:TrackPointExtension>
        </extensions>
      </trkpt>
      <trkpt lat="52.05623209476470947265625" lon="1.2416567467153072357177734375">
        <ele>148.399993896484375</ele>
        <time>2025-09-05T12:08:39.000Z</time>
        <extensions>
          <ns3:TrackPointExtension>
            <ns3:hr>172</ns3:hr>
            <ns3:cad>80</ns3:cad>
          </ns3:TrackPointExtension>
        </extensions>
      </trkpt>
      <trkpt lat="52.05623209476470947265625" lon="1.2416567467153072357177734375">
        <ele>148.8000030517578125</ele>
        <time>2025-09-05T12:08:40.000Z</time>
        <extensions>
          <ns3:TrackPointExtension>
            <ns3:hr>173</ns3:hr>
            <ns3:cad>80</ns3:cad>
          </ns3:TrackPointExtension>
        </extensions>
      </trkpt>
      <trkpt lat="52.05629772506654262542724609375" lon="1.2419608421623706817626953125">
        <ele>148.1999969482421875</ele>
        <time>2025-09-05T12:08:49.000Z</time>
        <extensions>
          <ns3:TrackPointExtension>
            <ns3:hr>172</ns3:hr>
            <ns3:cad>80</ns3:cad>
          </ns3:TrackPointExtension>
        </extensions>
      </trkpt>
      <trkpt lat="52.056360505521297454833984375" lon="1.2422632612287998199462890625">
        <ele>148</ele>
        <time>2025-09-05T12:08:58.000Z</time>
        <extensions>
          <ns3:TrackPointExtension>
            <ns3:hr>171</ns3:hr>
            <ns3:cad>80</ns3:cad>
          </ns3:TrackPointExtension>
        </extensions>
      </trkpt>
      <trkpt lat="52.056397385895252227783203125" lon="1.24257624149322509765625">
        <ele>148.399993896484375</ele>
        <time>2025-09-05T12:09:06.000Z</time>
        <extensions>
          <ns3:TrackPointExtension>
            <ns3:hr>173</ns3:hr>
            <ns3:cad>81</ns3:cad>
          </ns3:TrackPointExtension>
        </extensions>
      </trkpt>
      <trkpt lat="52.05640199594199657440185546875" lon="1.2426163069903850555419921875">
        <ele>148.600006103515625</ele>
        <time>2025-09-05T12:09:07.000Z</time>
        <extensions>
          <ns3:TrackPointExtension>
            <ns3:hr>175</ns3:hr>
            <ns3:cad>81</ns3:cad>
          </ns3:TrackPointExtension>
        </extensions>
      </trkpt>
      <trkpt lat="52.05642663873732089996337890625" lon="1.24280464835464954376220703125">
        <ele>149.1999969482421875</ele>
        <time>2025-09-05T12:09:12.000Z</time>
        <extensions>
          <ns3:TrackPointExtension>
            <ns3:hr>171</ns3:hr>
            <ns3:cad>80</ns3:cad>
          </ns3:TrackPointExtension>
        </extensions>
      </trkpt>
      <trkpt lat="52.05643217079341411590576171875" lon="1.242844797670841217041015625">
        <ele>149.399993896484375</ele>
        <time>2025-09-05T12:09:13.000Z</time>
        <extensions>
          <ns3:TrackPointExtension>
            <ns3:hr>172</ns3:hr>
            <ns3:cad>80</ns3:cad>
          </ns3:TrackPointExtension>
        </extensions>
      </trkpt>
      <trkpt lat="52.05644600093364715576171875" lon="1.243001036345958709716796875">
        <ele>148.8000030517578125</ele>
        <time>2025-09-05T12:09:17.000Z</time>
        <extensions>
          <ns3:TrackPointExtension>
            <ns3:hr>173</ns3:hr>
            <ns3:cad>80</ns3:cad>
          </ns3:TrackPointExtension>
        </extensions>
      </trkpt>
      <trkpt lat="52.05647558905184268951416015625" lon="1.243111006915569305419921875">
        <ele>147.8000030517578125</ele>
        <time>2025-09-05T12:09:20.000Z</time>
        <extensions>
          <ns3:TrackPointExtension>
            <ns3:hr>173</ns3:hr>
            <ns3:cad>81</ns3:cad>
          </ns3:TrackPointExtension>
        </extensions>
      </trkpt>
      <trkpt lat="52.05650098621845245361328125" lon="1.24321871437132358551025390625">
        <ele>146.600006103515625</ele>
        <time>2025-09-05T12:09:22.000Z</time>
        <extensions>
          <ns3:TrackPointExtension>
            <ns3:hr>172</ns3:hr>
            <ns3:cad>81</ns3:cad>
          </ns3:TrackPointExtension>
        </extensions>
      </trkpt>
      <trkpt lat="52.05650811083614826202392578125" lon="1.243249811232089996337890625">
        <ele>145.600006103515625</ele>
        <time>2025-09-05T12:09:23.000Z</time>
        <extensions>
          <ns3:TrackPointExtension>
            <ns3:hr>173</ns3:hr>
            <ns3:cad>81</ns3:cad>
          </ns3:TrackPointExtension>
        </extensions>
      </trkpt>
      <trkpt lat="52.0565185882151126861572265625" lon="1.243284009397029876708984375">
        <ele>144.600006103515625</ele>
        <time>2025-09-05T12:09:24.000Z</time>
        <extensions>
          <ns3:TrackPointExtension>
            <ns3:hr>175</ns3:hr>
            <ns3:cad>80</ns3:cad>
          </ns3:TrackPointExtension>
        </extensions>
      </trkpt>
      <trkpt lat="52.0565185882151126861572265625" lon="1.243284009397029876708984375">
        <ele>144</ele>
        <time>2025-09-05T12:09:25.000Z</time>
        <extensions>
          <ns3:TrackPointExtension>
            <ns3:hr>174</ns3:hr>
            <ns3:cad>80</ns3:cad>
          </ns3:TrackPointExtension>
        </extensions>
      </trkpt>
      <trkpt lat="52.05652805976569652557373046875" lon="1.24331829138100147247314453125">
        <ele>141.399993896484375</ele>
        <time>2025-09-05T12:09:26.000Z</time>
        <extensions>
          <ns3:TrackPointExtension>
            <ns3:hr>174</ns3:hr>
            <ns3:cad>81</ns3:cad>
          </ns3:TrackPointExtension>
        </extensions>
      </trkpt>
      <trkpt lat="52.05653878860175609588623046875" lon="1.2433508969843387603759765625">
        <ele>138.8000030517578125</ele>
        <time>2025-09-05T12:09:27.000Z</time>
        <extensions>
          <ns3:TrackPointExtension>
            <ns3:hr>174</ns3:hr>
            <ns3:cad>81</ns3:cad>
          </ns3:TrackPointExtension>
        </extensions>
      </trkpt>
      <trkpt lat="52.05654750578105449676513671875" lon="1.24338450841605663299560546875">
        <ele>135.1999969482421875</ele>
        <time>2025-09-05T12:09:28.000Z</time>
        <extensions>
          <ns3:TrackPointExtension>
            <ns3:hr>174</ns3:hr>
            <ns3:cad>81</ns3:cad>
          </ns3:TrackPointExtension>
        </extensions>
      </trkpt>
      <trkpt lat="52.05655991099774837493896484375" lon="1.2434581853449344635009765625">
        <ele>133.1999969482421875</ele>
        <time>2025-09-05T12:09:29.000Z</time>
        <extensions>
          <ns3:TrackPointExtension>
            <ns3:hr>174</ns3:hr>
            <ns3:cad>81</ns3:cad>
          </ns3:TrackPointExtension>
        </extensions>
      </trkpt>
      <trkpt lat="52.05655991099774837493896484375" lon="1.2434581853449344635009765625">
        <ele>132</ele>
        <time>2025-09-05T12:09:30.000Z</time>
        <extensions>
          <ns3:TrackPointExtension>
            <ns3:hr>175</ns3:hr>
            <ns3:cad>81</ns3:cad>
          </ns3:TrackPointExtension>
        </extensions>
      </trkpt>
      <trkpt lat="52.0565645210444927215576171875" lon="1.2434954009950160980224609375">
        <ele>130.8000030517578125</ele>
        <time>2025-09-05T12:09:31.000Z</time>
        <extensions>
          <ns3:TrackPointExtension>
            <ns3:hr>174</ns3:hr>
            <ns3:cad>81</ns3:cad>
          </ns3:TrackPointExtension>
        </extensions>
      </trkpt>
      <trkpt lat="52.05656946636736392974853515625" lon="1.24352767132222652435302734375">
        <ele>129</ele>
        <time>2025-09-05T12:09:32.000Z</time>
        <extensions>
          <ns3:TrackPointExtension>
            <ns3:hr>175</ns3:hr>
            <ns3:cad>81</ns3:cad>
          </ns3:TrackPointExtension>
        </extensions>
      </trkpt>
      <trkpt lat="52.0565765909850597381591796875" lon="1.2435597740113735198974609375">
        <ele>125.59999847412109375</ele>
        <time>2025-09-05T12:09:33.000Z</time>
        <extensions>
          <ns3:TrackPointExtension>
            <ns3:hr>175</ns3:hr>
            <ns3:cad>81</ns3:cad>
          </ns3:TrackPointExtension>
        </extensions>
      </trkpt>
      <trkpt lat="52.0565849728882312774658203125" lon="1.2435872666537761688232421875">
        <ele>124</ele>
        <time>2025-09-05T12:09:34.000Z</time>
        <extensions>
          <ns3:TrackPointExtension>
            <ns3:hr>174</ns3:hr>
            <ns3:cad>82</ns3:cad>
          </ns3:TrackPointExtension>
        </extensions>
      </trkpt>
      <trkpt lat="52.0566050894558429718017578125" lon="1.24362674541771411895751953125">
        <ele>122.59999847412109375</ele>
        <time>2025-09-05T12:09:36.000Z</time>
        <extensions>
          <ns3:TrackPointExtension>
            <ns3:hr>174</ns3:hr>
            <ns3:cad>81</ns3:cad>
          </ns3:TrackPointExtension>
        </extensions>
      </trkpt>
      <trkpt lat="52.05660835839807987213134765625" lon="1.2436278350651264190673828125">
        <ele>123.8000030517578125</ele>
        <time>2025-09-05T12:09:37.000Z</time>
        <extensions>
          <ns3:TrackPointExtension>
            <ns3:hr>173</ns3:hr>
            <ns3:cad>0</ns3:cad>
          </ns3:TrackPointExtension>
        </extensions>
      </trkpt>
      <trkpt lat="52.05660835839807987213134765625" lon="1.2436278350651264190673828125">
        <ele>125.40000152587890625</ele>
        <time>2025-09-05T12:09:38.000Z</time>
        <extensions>
          <ns3:TrackPointExtension>
            <ns3:hr>173</ns3:hr>
            <ns3:cad>0</ns3:cad>
          </ns3:TrackPointExtension>
        </extensions>
      </trkpt>
      <trkpt lat="52.056620679795742034912109375" lon="1.24362641014158725738525390625">
        <ele>126.59999847412109375</ele>
        <time>2025-09-05T12:09:40.000Z</time>
        <extensions>
          <ns3:TrackPointExtension>
            <ns3:hr>173</ns3:hr>
            <ns3:cad>0</ns3:cad>
          </ns3:TrackPointExtension>
        </extensions>
      </trkpt>
      <trkpt lat="52.05662243999540805816650390625" lon="1.24362875707447528839111328125">
        <ele>127</ele>
        <time>2025-09-05T12:09:44.000Z</time>
        <extensions>
          <ns3:TrackPointExtension>
            <ns3:hr>176</ns3:hr>
            <ns3:cad>0</ns3:cad>
          </ns3:TrackPointExtension>
        </extensions>
      </trkpt>
      <trkpt lat="52.05661238171160221099853515625" lon="1.24363479204475879669189453125">
        <ele>124</ele>
        <time>2025-09-05T12:09:47.000Z</time>
        <extensions>
          <ns3:TrackPointExtension>
            <ns3:hr>176</ns3:hr>
            <ns3:cad>0</ns3:cad>
          </ns3:TrackPointExtension>
        </extensions>
      </trkpt>
      <trkpt lat="52.0566111244261264801025390625" lon="1.2436358816921710968017578125">
        <ele>123.1999969482421875</ele>
        <time>2025-09-05T12:09:48.000Z</time>
        <extensions>
          <ns3:TrackPointExtension>
            <ns3:hr>176</ns3:hr>
            <ns3:cad>0</ns3:cad>
          </ns3:TrackPointExtension>
        </extensions>
      </trkpt>
      <trkpt lat="52.05661070533096790313720703125" lon="1.24363848008215427398681640625">
        <ele>121.1999969482421875</ele>
        <time>2025-09-05T12:09:49.000Z</time>
        <extensions>
          <ns3:TrackPointExtension>
            <ns3:hr>175</ns3:hr>
            <ns3:cad>0</ns3:cad>
          </ns3:TrackPointExtension>
        </extensions>
      </trkpt>
      <trkpt lat="52.0566116273403167724609375" lon="1.2436419166624546051025390625">
        <ele>119.8000030517578125</ele>
        <time>2025-09-05T12:09:50.000Z</time>
        <extensions>
          <ns3:TrackPointExtension>
            <ns3:hr>175</ns3:hr>
            <ns3:cad>0</ns3:cad>
          </ns3:TrackPointExtension>
        </extensions>
      </trkpt>
      <trkpt lat="52.05661120824515819549560546875" lon="1.2436459399759769439697265625">
        <ele>117</ele>
        <time>2025-09-05T12:09:51.000Z</time>
        <extensions>
          <ns3:TrackPointExtension>
            <ns3:hr>175</ns3:hr>
            <ns3:cad>0</ns3:cad>
          </ns3:TrackPointExtension>
        </extensions>
      </trkpt>
      <trkpt lat="52.05661137588322162628173828125" lon="1.24364719726145267486572265625">
        <ele>115.1999969482421875</ele>
        <time>2025-09-05T12:09:52.000Z</time>
        <extensions>
          <ns3:TrackPointExtension>
            <ns3:hr>174</ns3:hr>
            <ns3:cad>0</ns3:cad>
          </ns3:TrackPointExtension>
        </extensions>
      </trkpt>
      <trkpt lat="52.05661372281610965728759765625" lon="1.24364350922405719757080078125">
        <ele>113</ele>
        <time>2025-09-05T12:09:53.000Z</time>
        <extensions>
          <ns3:TrackPointExtension>
            <ns3:hr>174</ns3:hr>
            <ns3:cad>0</ns3:cad>
          </ns3:TrackPointExtension>
        </extensions>
      </trkpt>
      <trkpt lat="52.05661674030125141143798828125" lon="1.2436425872147083282470703125">
        <ele>105.59999847412109375</ele>
        <time>2025-09-05T12:09:54.000Z</time>
        <extensions>
          <ns3:TrackPointExtension>
            <ns3:hr>173</ns3:hr>
            <ns3:cad>0</ns3:cad>
          </ns3:TrackPointExtension>
        </extensions>
      </trkpt>
      <trkpt lat="52.05661858431994915008544921875" lon="1.24364132992923259735107421875">
        <ele>101.40000152587890625</ele>
        <time>2025-09-05T12:09:55.000Z</time>
        <extensions>
          <ns3:TrackPointExtension>
            <ns3:hr>174</ns3:hr>
            <ns3:cad>0</ns3:cad>
          </ns3:TrackPointExtension>
        </extensions>
      </trkpt>
      <trkpt lat="52.056620679795742034912109375" lon="1.24364250339567661285400390625">
        <ele>98.40000152587890625</ele>
        <time>2025-09-05T12:09:56.000Z</time>
        <extensions>
          <ns3:TrackPointExtension>
            <ns3:hr>174</ns3:hr>
            <ns3:cad>0</ns3:cad>
          </ns3:TrackPointExtension>
        </extensions>
      </trkpt>
      <trkpt lat="52.056623362004756927490234375" lon="1.24365172348916530609130859375">
        <ele>96.59999847412109375</ele>
        <time>2025-09-05T12:09:57.000Z</time>
        <extensions>
          <ns3:TrackPointExtension>
            <ns3:hr>174</ns3:hr>
            <ns3:cad>0</ns3:cad>
          </ns3:TrackPointExtension>
        </extensions>
      </trkpt>
      <trkpt lat="52.056628055870532989501953125" lon="1.24368005432188510894775390625">
        <ele>95.1999969482421875</ele>
        <time>2025-09-05T12:09:58.000Z</time>
        <extensions>
          <ns3:TrackPointExtension>
            <ns3:hr>174</ns3:hr>
            <ns3:cad>0</ns3:cad>
          </ns3:TrackPointExtension>
        </extensions>
      </trkpt>
      <trkpt lat="52.05664121545851230621337890625" lon="1.24373470433056354522705078125">
        <ele>93.40000152587890625</ele>
        <time>2025-09-05T12:10:00.000Z</time>
        <extensions>
          <ns3:TrackPointExtension>
            <ns3:hr>174</ns3:hr>
            <ns3:cad>0</ns3:cad>
          </ns3:TrackPointExtension>
        </extensions>
      </trkpt>
      <trkpt lat="52.05665563233196735382080078125" lon="1.24384635128080844879150390625">
        <ele>92.1999969482421875</ele>
        <time>2025-09-05T12:10:03.000Z</time>
        <extensions>
          <ns3:TrackPointExtension>
            <ns3:hr>175</ns3:hr>
            <ns3:cad>79</ns3:cad>
          </ns3:TrackPointExtension>
        </extensions>
      </trkpt>
      <trkpt lat="52.05666133202612400054931640625" lon="1.24395498074591159820556640625">
        <ele>91.40000152587890625</ele>
        <time>2025-09-05T12:10:06.000Z</time>
        <extensions>
          <ns3:TrackPointExtension>
            <ns3:hr>178</ns3:hr>
            <ns3:cad>80</ns3:cad>
          </ns3:TrackPointExtension>
        </extensions>
      </trkpt>
      <trkpt lat="52.05666468478739261627197265625" lon="1.2439937889575958251953125">
        <ele>91.40000152587890625</ele>
        <time>2025-09-05T12:10:07.000Z</time>
        <extensions>
          <ns3:TrackPointExtension>
            <ns3:hr>178</ns3:hr>
            <ns3:cad>80</ns3:cad>
          </ns3:TrackPointExtension>
        </extensions>
      </trkpt>
      <trkpt lat="52.0566765032708644866943359375" lon="1.24410350807011127471923828125">
        <ele>91.40000152587890625</ele>
        <time>2025-09-05T12:10:09.000Z</time>
        <extensions>
          <ns3:TrackPointExtension>
            <ns3:hr>181</ns3:hr>
            <ns3:cad>81</ns3:cad>
          </ns3:TrackPointExtension>
        </extensions>
      </trkpt>
      <trkpt lat="52.056699804961681365966796875" lon="1.2442504428327083587646484375">
        <ele>91.40000152587890625</ele>
        <time>2025-09-05T12:10:14.000Z</time>
        <extensions>
          <ns3:TrackPointExtension>
            <ns3:hr>184</ns3:hr>
            <ns3:cad>81</ns3:cad>
          </ns3:TrackPointExtension>
        </extensions>
      </trkpt>
      <trkpt lat="52.05671313218772411346435546875" lon="1.24435521662235260009765625">
        <ele>91.40000152587890625</ele>
        <time>2025-09-05T12:10:17.000Z</time>
        <extensions>
          <ns3:TrackPointExtension>
            <ns3:hr>184</ns3:hr>
            <ns3:cad>81</ns3:cad>
          </ns3:TrackPointExtension>
        </extensions>
      </trkpt>
      <trkpt lat="52.05672503449022769927978515625" lon="1.24446493573486804962158203125">
        <ele>91.40000152587890625</ele>
        <time>2025-09-05T12:10:20.000Z</time>
        <extensions>
          <ns3:TrackPointExtension>
            <ns3:hr>177</ns3:hr>
            <ns3:cad>81</ns3:cad>
          </ns3:TrackPointExtension>
        </extensions>
      </trkpt>
      <trkpt lat="52.05674045719206333160400390625" lon="1.24456836842000484466552734375">
        <ele>91.1999969482421875</ele>
        <time>2025-09-05T12:10:23.000Z</time>
        <extensions>
          <ns3:TrackPointExtension>
            <ns3:hr>175</ns3:hr>
            <ns3:cad>81</ns3:cad>
          </ns3:TrackPointExtension>
        </extensions>
      </trkpt>
      <trkpt lat="52.0567505992949008941650390625" lon="1.2446578033268451690673828125">
        <ele>90.1999969482421875</ele>
        <time>2025-09-05T12:10:26.000Z</time>
        <extensions>
          <ns3:TrackPointExtension>
            <ns3:hr>175</ns3:hr>
            <ns3:cad>81</ns3:cad>
          </ns3:TrackPointExtension>
        </extensions>
      </trkpt>
      <trkpt lat="52.05675587989389896392822265625" lon="1.2446852959692478179931640625">
        <ele>90</ele>
        <time>2025-09-05T12:10:27.000Z</time>
        <extensions>
          <ns3:TrackPointExtension>
            <ns3:hr>174</ns3:hr>
            <ns3:cad>82</ns3:cad>
          </ns3:TrackPointExtension>
        </extensions>
      </trkpt>
      <trkpt lat="52.05677247606217861175537109375" lon="1.24480138532817363739013671875">
        <ele>88.8000030517578125</ele>
        <time>2025-09-05T12:10:31.000Z</time>
        <extensions>
          <ns3:TrackPointExtension>
            <ns3:hr>176</ns3:hr>
            <ns3:cad>82</ns3:cad>
          </ns3:TrackPointExtension>
        </extensions>
      </trkpt>
      <trkpt lat="52.056776247918605804443359375" lon="1.24492208473384380340576171875">
        <ele>87.59999847412109375</ele>
        <time>2025-09-05T12:10:33.000Z</time>
        <extensions>
          <ns3:TrackPointExtension>
            <ns3:hr>177</ns3:hr>
            <ns3:cad>80</ns3:cad>
          </ns3:TrackPointExtension>
        </extensions>
      </trkpt>
      <trkpt lat="52.056780271232128143310546875" lon="1.2449545226991176605224609375">
        <ele>86.59999847412109375</ele>
        <time>2025-09-05T12:10:34.000Z</time>
        <extensions>
          <ns3:TrackPointExtension>
            <ns3:hr>175</ns3:hr>
            <ns3:cad>80</ns3:cad>
          </ns3:TrackPointExtension>
        </extensions>
      </trkpt>
      <trkpt lat="52.056780271232128143310546875" lon="1.2449545226991176605224609375">
        <ele>86</ele>
        <time>2025-09-05T12:10:35.000Z</time>
        <extensions>
          <ns3:TrackPointExtension>
            <ns3:hr>175</ns3:hr>
            <ns3:cad>80</ns3:cad>
          </ns3:TrackPointExtension>
        </extensions>
      </trkpt>
      <trkpt lat="52.05679376609623432159423828125" lon="1.24504999257624149322509765625">
        <ele>85.40000152587890625</ele>
        <time>2025-09-05T12:10:37.000Z</time>
        <extensions>
          <ns3:TrackPointExtension>
            <ns3:hr>174</ns3:hr>
            <ns3:cad>81</ns3:cad>
          </ns3:TrackPointExtension>
        </extensions>
      </trkpt>
      <trkpt lat="52.0568290539085865020751953125" lon="1.24518427066504955291748046875">
        <ele>84</ele>
        <time>2025-09-05T12:10:42.000Z</time>
        <extensions>
          <ns3:TrackPointExtension>
            <ns3:hr>176</ns3:hr>
            <ns3:cad>81</ns3:cad>
          </ns3:TrackPointExtension>
        </extensions>
      </trkpt>
      <trkpt lat="52.05685696564614772796630859375" lon="1.24529725871980190277099609375">
        <ele>83.1999969482421875</ele>
        <time>2025-09-05T12:10:44.000Z</time>
        <extensions>
          <ns3:TrackPointExtension>
            <ns3:hr>177</ns3:hr>
            <ns3:cad>81</ns3:cad>
          </ns3:TrackPointExtension>
        </extensions>
      </trkpt>
      <trkpt lat="52.05685696564614772796630859375" lon="1.24529725871980190277099609375">
        <ele>82.8000030517578125</ele>
        <time>2025-09-05T12:10:45.000Z</time>
        <extensions>
          <ns3:TrackPointExtension>
            <ns3:hr>178</ns3:hr>
            <ns3:cad>81</ns3:cad>
          </ns3:TrackPointExtension>
        </extensions>
      </trkpt>
      <trkpt lat="52.05687490291893482208251953125" lon="1.2453954108059406280517578125">
        <ele>81.8000030517578125</ele>
        <time>2025-09-05T12:10:47.000Z</time>
        <extensions>
          <ns3:TrackPointExtension>
            <ns3:hr>178</ns3:hr>
            <ns3:cad>82</ns3:cad>
          </ns3:TrackPointExtension>
        </extensions>
      </trkpt>
      <trkpt lat="52.05689728260040283203125" lon="1.2454812414944171905517578125">
        <ele>80.40000152587890625</ele>
        <time>2025-09-05T12:10:51.000Z</time>
        <extensions>
          <ns3:TrackPointExtension>
            <ns3:hr>177</ns3:hr>
            <ns3:cad>80</ns3:cad>
          </ns3:TrackPointExtension>
        </extensions>
      </trkpt>
      <trkpt lat="52.0569148845970630645751953125" lon="1.24557771719992160797119140625">
        <ele>80</ele>
        <time>2025-09-05T12:10:54.000Z</time>
        <extensions>
          <ns3:TrackPointExtension>
            <ns3:hr>174</ns3:hr>
            <ns3:cad>81</ns3:cad>
          </ns3:TrackPointExtension>
        </extensions>
      </trkpt>
      <trkpt lat="52.05691982991993427276611328125" lon="1.24560906551778316497802734375">
        <ele>79.8000030517578125</ele>
        <time>2025-09-05T12:10:55.000Z</time>
        <extensions>
          <ns3:TrackPointExtension>
            <ns3:hr>173</ns3:hr>
            <ns3:cad>81</ns3:cad>
          </ns3:TrackPointExtension>
        </extensions>
      </trkpt>
      <trkpt lat="52.05698512494564056396484375" lon="1.24588432721793651580810546875">
        <ele>79.59999847412109375</ele>
        <time>2025-09-05T12:11:03.000Z</time>
        <extensions>
          <ns3:TrackPointExtension>
            <ns3:hr>174</ns3:hr>
            <ns3:cad>82</ns3:cad>
          </ns3:TrackPointExtension>
        </extensions>
      </trkpt>
      <trkpt lat="52.056993506848812103271484375" lon="1.24591760337352752685546875">
        <ele>79.59999847412109375</ele>
        <time>2025-09-05T12:11:04.000Z</time>
        <extensions>
          <ns3:TrackPointExtension>
            <ns3:hr>175</ns3:hr>
            <ns3:cad>82</ns3:cad>
          </ns3:TrackPointExtension>
        </extensions>
      </trkpt>
      <trkpt lat="52.05700800754129886627197265625" lon="1.24612807296216487884521484375">
        <ele>81.8000030517578125</ele>
        <time>2025-09-05T12:11:10.000Z</time>
        <extensions>
          <ns3:TrackPointExtension>
            <ns3:hr>173</ns3:hr>
            <ns3:cad>81</ns3:cad>
          </ns3:TrackPointExtension>
        </extensions>
      </trkpt>
      <trkpt lat="52.0570117793977260589599609375" lon="1.24618708156049251556396484375">
        <ele>83.8000030517578125</ele>
        <time>2025-09-05T12:11:11.000Z</time>
        <extensions>
          <ns3:TrackPointExtension>
            <ns3:hr>173</ns3:hr>
            <ns3:cad>81</ns3:cad>
          </ns3:TrackPointExtension>
        </extensions>
      </trkpt>
      <trkpt lat="52.0570117793977260589599609375" lon="1.24618708156049251556396484375">
        <ele>85</ele>
        <time>2025-09-05T12:11:12.000Z</time>
        <extensions>
          <ns3:TrackPointExtension>
            <ns3:hr>174</ns3:hr>
            <ns3:cad>81</ns3:cad>
          </ns3:TrackPointExtension>
        </extensions>
      </trkpt>
      <trkpt lat="52.05701638944447040557861328125" lon="1.24624374322593212127685546875">
        <ele>86.1999969482421875</ele>
        <time>2025-09-05T12:11:14.000Z</time>
        <extensions>
          <ns3:TrackPointExtension>
            <ns3:hr>175</ns3:hr>
            <ns3:cad>81</ns3:cad>
          </ns3:TrackPointExtension>
        </extensions>
      </trkpt>
      <trkpt lat="52.0570231787860393524169921875" lon="1.2464595772325992584228515625">
        <ele>86.8000030517578125</ele>
        <time>2025-09-05T12:11:20.000Z</time>
        <extensions>
          <ns3:TrackPointExtension>
            <ns3:hr>176</ns3:hr>
            <ns3:cad>80</ns3:cad>
          </ns3:TrackPointExtension>
        </extensions>
      </trkpt>
      <trkpt lat="52.05702326260507106781005859375" lon="1.24657549895346164703369140625">
        <ele>86.40000152587890625</ele>
        <time>2025-09-05T12:11:23.000Z</time>
        <extensions>
          <ns3:TrackPointExtension>
            <ns3:hr>173</ns3:hr>
            <ns3:cad>80</ns3:cad>
          </ns3:TrackPointExtension>
        </extensions>
      </trkpt>
      <trkpt lat="52.0570220053195953369140625" lon="1.24678798019886016845703125">
        <ele>85.1999969482421875</ele>
        <time>2025-09-05T12:11:28.000Z</time>
        <extensions>
          <ns3:TrackPointExtension>
            <ns3:hr>175</ns3:hr>
            <ns3:cad>81</ns3:cad>
          </ns3:TrackPointExtension>
        </extensions>
      </trkpt>
      <trkpt lat="52.05702460370957851409912109375" lon="1.24683089554309844970703125">
        <ele>85</ele>
        <time>2025-09-05T12:11:29.000Z</time>
        <extensions>
          <ns3:TrackPointExtension>
            <ns3:hr>174</ns3:hr>
            <ns3:cad>81</ns3:cad>
          </ns3:TrackPointExtension>
        </extensions>
      </trkpt>
      <trkpt lat="52.05703080631792545318603515625" lon="1.24687070958316326141357421875">
        <ele>83</ele>
        <time>2025-09-05T12:11:30.000Z</time>
        <extensions>
          <ns3:TrackPointExtension>
            <ns3:hr>175</ns3:hr>
            <ns3:cad>81</ns3:cad>
          </ns3:TrackPointExtension>
        </extensions>
      </trkpt>
      <trkpt lat="52.0570312254130840301513671875" lon="1.246913708746433258056640625">
        <ele>78.59999847412109375</ele>
        <time>2025-09-05T12:11:31.000Z</time>
        <extensions>
          <ns3:TrackPointExtension>
            <ns3:hr>175</ns3:hr>
            <ns3:cad>80</ns3:cad>
          </ns3:TrackPointExtension>
        </extensions>
      </trkpt>
      <trkpt lat="52.05703147687017917633056640625" lon="1.2469544447958469390869140625">
        <ele>75.59999847412109375</ele>
        <time>2025-09-05T12:11:32.000Z</time>
        <extensions>
          <ns3:TrackPointExtension>
            <ns3:hr>175</ns3:hr>
            <ns3:cad>80</ns3:cad>
          </ns3:TrackPointExtension>
        </extensions>
      </trkpt>
      <trkpt lat="52.05703742802143096923828125" lon="1.24699610285460948944091796875">
        <ele>74.1999969482421875</ele>
        <time>2025-09-05T12:11:33.000Z</time>
        <extensions>
          <ns3:TrackPointExtension>
            <ns3:hr>175</ns3:hr>
            <ns3:cad>81</ns3:cad>
          </ns3:TrackPointExtension>
        </extensions>
      </trkpt>
      <trkpt lat="52.05704270862042903900146484375" lon="1.24703700654208660125732421875">
        <ele>73.1999969482421875</ele>
        <time>2025-09-05T12:11:34.000Z</time>
        <extensions>
          <ns3:TrackPointExtension>
            <ns3:hr>176</ns3:hr>
            <ns3:cad>81</ns3:cad>
          </ns3:TrackPointExtension>
        </extensions>
      </trkpt>
      <trkpt lat="52.05705025233328342437744140625" lon="1.24711613170802593231201171875">
        <ele>71.40000152587890625</ele>
        <time>2025-09-05T12:11:36.000Z</time>
        <extensions>
          <ns3:TrackPointExtension>
            <ns3:hr>175</ns3:hr>
            <ns3:cad>81</ns3:cad>
          </ns3:TrackPointExtension>
        </extensions>
      </trkpt>
      <trkpt lat="52.0570488274097442626953125" lon="1.247191317379474639892578125">
        <ele>70.40000152587890625</ele>
        <time>2025-09-05T12:11:38.000Z</time>
        <extensions>
          <ns3:TrackPointExtension>
            <ns3:hr>176</ns3:hr>
            <ns3:cad>81</ns3:cad>
          </ns3:TrackPointExtension>
        </extensions>
      </trkpt>
      <trkpt lat="52.05702963285148143768310546875" lon="1.24733305536210536956787109375">
        <ele>70</ele>
        <time>2025-09-05T12:11:42.000Z</time>
        <extensions>
          <ns3:TrackPointExtension>
            <ns3:hr>178</ns3:hr>
            <ns3:cad>81</ns3:cad>
          </ns3:TrackPointExtension>
        </extensions>
      </trkpt>
      <trkpt lat="52.05704958178102970123291015625" lon="1.247631870210170745849609375">
        <ele>69.40000152587890625</ele>
        <time>2025-09-05T12:11:50.000Z</time>
        <extensions>
          <ns3:TrackPointExtension>
            <ns3:hr>178</ns3:hr>
            <ns3:cad>80</ns3:cad>
          </ns3:TrackPointExtension>
        </extensions>
      </trkpt>
      <trkpt lat="52.05705125816166400909423828125" lon="1.24790067784488201141357421875">
        <ele>69.59999847412109375</ele>
        <time>2025-09-05T12:11:57.000Z</time>
        <extensions>
          <ns3:TrackPointExtension>
            <ns3:hr>180</ns3:hr>
            <ns3:cad>80</ns3:cad>
          </ns3:TrackPointExtension>
        </extensions>
      </trkpt>
      <trkpt lat="52.05705461092293262481689453125" lon="1.24807887710630893707275390625">
        <ele>69</ele>
        <time>2025-09-05T12:12:02.000Z</time>
        <extensions>
          <ns3:TrackPointExtension>
            <ns3:hr>179</ns3:hr>
            <ns3:cad>80</ns3:cad>
          </ns3:TrackPointExtension>
        </extensions>
      </trkpt>
      <trkpt lat="52.0570526830852031707763671875" lon="1.2481872551143169403076171875">
        <ele>68.8000030517578125</ele>
        <time>2025-09-05T12:12:05.000Z</time>
        <extensions>
          <ns3:TrackPointExtension>
            <ns3:hr>178</ns3:hr>
            <ns3:cad>80</ns3:cad>
          </ns3:TrackPointExtension>
        </extensions>
      </trkpt>
      <trkpt lat="52.05705461092293262481689453125" lon="1.248490847647190093994140625">
        <ele>69.40000152587890625</ele>
        <time>2025-09-05T12:12:13.000Z</time>
        <extensions>
          <ns3:TrackPointExtension>
            <ns3:hr>179</ns3:hr>
            <ns3:cad>80</ns3:cad>
          </ns3:TrackPointExtension>
        </extensions>
      </trkpt>
      <trkpt lat="52.05709836445748805999755859375" lon="1.24872478656470775604248046875">
        <ele>69</ele>
        <time>2025-09-05T12:12:21.000Z</time>
        <extensions>
          <ns3:TrackPointExtension>
            <ns3:hr>179</ns3:hr>
            <ns3:cad>80</ns3:cad>
          </ns3:TrackPointExtension>
        </extensions>
      </trkpt>
      <trkpt lat="52.0571194030344486236572265625" lon="1.2489805184304714202880859375">
        <ele>68.1999969482421875</ele>
        <time>2025-09-05T12:12:28.000Z</time>
        <extensions>
          <ns3:TrackPointExtension>
            <ns3:hr>179</ns3:hr>
            <ns3:cad>81</ns3:cad>
          </ns3:TrackPointExtension>
        </extensions>
      </trkpt>
      <trkpt lat="52.05714605748653411865234375" lon="1.249154023826122283935546875">
        <ele>69.59999847412109375</ele>
        <time>2025-09-05T12:12:33.000Z</time>
        <extensions>
          <ns3:TrackPointExtension>
            <ns3:hr>182</ns3:hr>
            <ns3:cad>80</ns3:cad>
          </ns3:TrackPointExtension>
        </extensions>
      </trkpt>
      <trkpt lat="52.057149074971675872802734375" lon="1.24918428249657154083251953125">
        <ele>70</ele>
        <time>2025-09-05T12:12:34.000Z</time>
        <extensions>
          <ns3:TrackPointExtension>
            <ns3:hr>182</ns3:hr>
            <ns3:cad>80</ns3:cad>
          </ns3:TrackPointExtension>
        </extensions>
      </trkpt>
      <trkpt lat="52.057151757180690765380859375" lon="1.2492168880999088287353515625">
        <ele>70.59999847412109375</ele>
        <time>2025-09-05T12:12:35.000Z</time>
        <extensions>
          <ns3:TrackPointExtension>
            <ns3:hr>181</ns3:hr>
            <ns3:cad>81</ns3:cad>
          </ns3:TrackPointExtension>
        </extensions>
      </trkpt>
      <trkpt lat="52.05714882351458072662353515625" lon="1.24929173849523067474365234375">
        <ele>71.40000152587890625</ele>
        <time>2025-09-05T12:12:37.000Z</time>
        <extensions>
          <ns3:TrackPointExtension>
            <ns3:hr>183</ns3:hr>
            <ns3:cad>81</ns3:cad>
          </ns3:TrackPointExtension>
        </extensions>
      </trkpt>
      <trkpt lat="52.05717011354863643646240234375" lon="1.2493657507002353668212890625">
        <ele>72.8000030517578125</ele>
        <time>2025-09-05T12:12:39.000Z</time>
        <extensions>
          <ns3:TrackPointExtension>
            <ns3:hr>183</ns3:hr>
            <ns3:cad>80</ns3:cad>
          </ns3:TrackPointExtension>
        </extensions>
      </trkpt>
      <trkpt lat="52.05719073303043842315673828125" lon="1.2494324706494808197021484375">
        <ele>73.8000030517578125</ele>
        <time>2025-09-05T12:12:41.000Z</time>
        <extensions>
          <ns3:TrackPointExtension>
            <ns3:hr>183</ns3:hr>
            <ns3:cad>80</ns3:cad>
          </ns3:TrackPointExtension>
        </extensions>
      </trkpt>
      <trkpt lat="52.0572015456855297088623046875" lon="1.24946826137602329254150390625">
        <ele>74.40000152587890625</ele>
        <time>2025-09-05T12:12:42.000Z</time>
        <extensions>
          <ns3:TrackPointExtension>
            <ns3:hr>183</ns3:hr>
            <ns3:cad>80</ns3:cad>
          </ns3:TrackPointExtension>
        </extensions>
      </trkpt>
      <trkpt lat="52.05721923150122165679931640625" lon="1.24953481368720531463623046875">
        <ele>75</ele>
        <time>2025-09-05T12:12:44.000Z</time>
        <extensions>
          <ns3:TrackPointExtension>
            <ns3:hr>184</ns3:hr>
            <ns3:cad>81</ns3:cad>
          </ns3:TrackPointExtension>
        </extensions>
      </trkpt>
      <trkpt lat="52.057232558727264404296875" lon="1.249634139239788055419921875">
        <ele>75.1999969482421875</ele>
        <time>2025-09-05T12:12:47.000Z</time>
        <extensions>
          <ns3:TrackPointExtension>
            <ns3:hr>180</ns3:hr>
            <ns3:cad>81</ns3:cad>
          </ns3:TrackPointExtension>
        </extensions>
      </trkpt>
      <trkpt lat="52.05724420957267284393310546875" lon="1.24969222582876682281494140625">
        <ele>75.1999969482421875</ele>
        <time>2025-09-05T12:12:49.000Z</time>
        <extensions>
          <ns3:TrackPointExtension>
            <ns3:hr>179</ns3:hr>
            <ns3:cad>80</ns3:cad>
          </ns3:TrackPointExtension>
        </extensions>
      </trkpt>
      <trkpt lat="52.05726197920739650726318359375" lon="1.24988853000104427337646484375">
        <ele>73.59999847412109375</ele>
        <time>2025-09-05T12:12:55.000Z</time>
        <extensions>
          <ns3:TrackPointExtension>
            <ns3:hr>177</ns3:hr>
            <ns3:cad>79</ns3:cad>
          </ns3:TrackPointExtension>
        </extensions>
      </trkpt>
      <trkpt lat="52.0572674274444580078125" lon="1.24992608092725276947021484375">
        <ele>72.8000030517578125</ele>
        <time>2025-09-05T12:12:56.000Z</time>
        <extensions>
          <ns3:TrackPointExtension>
            <ns3:hr>176</ns3:hr>
            <ns3:cad>79</ns3:cad>
          </ns3:TrackPointExtension>
        </extensions>
      </trkpt>
      <trkpt lat="52.0572786591947078704833984375" lon="1.24995960853993892669677734375">
        <ele>72</ele>
        <time>2025-09-05T12:12:57.000Z</time>
        <extensions>
          <ns3:TrackPointExtension>
            <ns3:hr>176</ns3:hr>
            <ns3:cad>79</ns3:cad>
          </ns3:TrackPointExtension>
        </extensions>
      </trkpt>
      <trkpt lat="52.05728176049888134002685546875" lon="1.2500403262674808502197265625">
        <ele>70.59999847412109375</ele>
        <time>2025-09-05T12:12:59.000Z</time>
        <extensions>
          <ns3:TrackPointExtension>
            <ns3:hr>176</ns3:hr>
            <ns3:cad>79</ns3:cad>
          </ns3:TrackPointExtension>
        </extensions>
      </trkpt>
      <trkpt lat="52.05728846602141857147216796875" lon="1.25010964460670948028564453125">
        <ele>69.40000152587890625</ele>
        <time>2025-09-05T12:13:00.000Z</time>
        <extensions>
          <ns3:TrackPointExtension>
            <ns3:hr>177</ns3:hr>
            <ns3:cad>78</ns3:cad>
          </ns3:TrackPointExtension>
        </extensions>
      </trkpt>
      <trkpt lat="52.05729986540973186492919921875" lon="1.25021609477698802947998046875">
        <ele>68.40000152587890625</ele>
        <time>2025-09-05T12:13:04.000Z</time>
        <extensions>
          <ns3:TrackPointExtension>
            <ns3:hr>176</ns3:hr>
            <ns3:cad>78</ns3:cad>
          </ns3:TrackPointExtension>
        </extensions>
      </trkpt>
      <trkpt lat="52.05730439163744449615478515625" lon="1.250246353447437286376953125">
        <ele>68.1999969482421875</ele>
        <time>2025-09-05T12:13:05.000Z</time>
        <extensions>
          <ns3:TrackPointExtension>
            <ns3:hr>176</ns3:hr>
            <ns3:cad>78</ns3:cad>
          </ns3:TrackPointExtension>
        </extensions>
      </trkpt>
      <trkpt lat="52.057364992797374725341796875" lon="1.250505857169628143310546875">
        <ele>69.40000152587890625</ele>
        <time>2025-09-05T12:13:12.000Z</time>
        <extensions>
          <ns3:TrackPointExtension>
            <ns3:hr>177</ns3:hr>
            <ns3:cad>79</ns3:cad>
          </ns3:TrackPointExtension>
        </extensions>
      </trkpt>
      <trkpt lat="52.0573802478611469268798828125" lon="1.250627227127552032470703125">
        <ele>70.59999847412109375</ele>
        <time>2025-09-05T12:13:15.000Z</time>
        <extensions>
          <ns3:TrackPointExtension>
            <ns3:hr>177</ns3:hr>
            <ns3:cad>79</ns3:cad>
          </ns3:TrackPointExtension>
        </extensions>
      </trkpt>
      <trkpt lat="52.05738879740238189697265625" lon="1.250695623457431793212890625">
        <ele>72</ele>
        <time>2025-09-05T12:13:17.000Z</time>
        <extensions>
          <ns3:TrackPointExtension>
            <ns3:hr>177</ns3:hr>
            <ns3:cad>78</ns3:cad>
          </ns3:TrackPointExtension>
        </extensions>
      </trkpt>
      <trkpt lat="52.05739810131490230560302734375" lon="1.250796876847743988037109375">
        <ele>73.1999969482421875</ele>
        <time>2025-09-05T12:13:20.000Z</time>
        <extensions>
          <ns3:TrackPointExtension>
            <ns3:hr>178</ns3:hr>
            <ns3:cad>79</ns3:cad>
          </ns3:TrackPointExtension>
        </extensions>
      </trkpt>
      <trkpt lat="52.05739944241940975189208984375" lon="1.25089972279965877532958984375">
        <ele>74.59999847412109375</ele>
        <time>2025-09-05T12:13:23.000Z</time>
        <extensions>
          <ns3:TrackPointExtension>
            <ns3:hr>178</ns3:hr>
            <ns3:cad>79</ns3:cad>
          </ns3:TrackPointExtension>
        </extensions>
      </trkpt>
      <trkpt lat="52.057414948940277099609375" lon="1.25108278356492519378662109375">
        <ele>75.8000030517578125</ele>
        <time>2025-09-05T12:13:28.000Z</time>
        <extensions>
          <ns3:TrackPointExtension>
            <ns3:hr>179</ns3:hr>
            <ns3:cad>79</ns3:cad>
          </ns3:TrackPointExtension>
        </extensions>
      </trkpt>
      <trkpt lat="52.0574194751679897308349609375" lon="1.2511873058974742889404296875">
        <ele>77</ele>
        <time>2025-09-05T12:13:31.000Z</time>
        <extensions>
          <ns3:TrackPointExtension>
            <ns3:hr>177</ns3:hr>
            <ns3:cad>79</ns3:cad>
          </ns3:TrackPointExtension>
        </extensions>
      </trkpt>
      <trkpt lat="52.05742157064378261566162109375" lon="1.25124975107610225677490234375">
        <ele>78.1999969482421875</ele>
        <time>2025-09-05T12:13:33.000Z</time>
        <extensions>
          <ns3:TrackPointExtension>
            <ns3:hr>177</ns3:hr>
            <ns3:cad>79</ns3:cad>
          </ns3:TrackPointExtension>
        </extensions>
      </trkpt>
      <trkpt lat="52.0574318803846836090087890625" lon="1.25145460478961467742919921875">
        <ele>76.8000030517578125</ele>
        <time>2025-09-05T12:13:39.000Z</time>
        <extensions>
          <ns3:TrackPointExtension>
            <ns3:hr>176</ns3:hr>
            <ns3:cad>79</ns3:cad>
          </ns3:TrackPointExtension>
        </extensions>
      </trkpt>
      <trkpt lat="52.05742442049086093902587890625" lon="1.2516020424664020538330078125">
        <ele>74.59999847412109375</ele>
        <time>2025-09-05T12:13:43.000Z</time>
        <extensions>
          <ns3:TrackPointExtension>
            <ns3:hr>175</ns3:hr>
            <ns3:cad>79</ns3:cad>
          </ns3:TrackPointExtension>
        </extensions>
      </trkpt>
      <trkpt lat="52.0574248395860195159912109375" lon="1.251641102135181427001953125">
        <ele>71.1999969482421875</ele>
        <time>2025-09-05T12:13:44.000Z</time>
        <extensions>
          <ns3:TrackPointExtension>
            <ns3:hr>175</ns3:hr>
            <ns3:cad>79</ns3:cad>
          </ns3:TrackPointExtension>
        </extensions>
      </trkpt>
      <trkpt lat="52.0574288628995418548583984375" lon="1.25172466970980167388916015625">
        <ele>69</ele>
        <time>2025-09-05T12:13:45.000Z</time>
        <extensions>
          <ns3:TrackPointExtension>
            <ns3:hr>175</ns3:hr>
            <ns3:cad>79</ns3:cad>
          </ns3:TrackPointExtension>
        </extensions>
      </trkpt>
      <trkpt lat="52.0574288628995418548583984375" lon="1.25172466970980167388916015625">
        <ele>67.1999969482421875</ele>
        <time>2025-09-05T12:13:46.000Z</time>
        <extensions>
          <ns3:TrackPointExtension>
            <ns3:hr>175</ns3:hr>
            <ns3:cad>79</ns3:cad>
          </ns3:TrackPointExtension>
        </extensions>
      </trkpt>
      <trkpt lat="52.0574342273175716400146484375" lon="1.25176724977791309356689453125">
        <ele>66</ele>
        <time>2025-09-05T12:13:47.000Z</time>
        <extensions>
          <ns3:TrackPointExtension>
            <ns3:hr>175</ns3:hr>
            <ns3:cad>80</ns3:cad>
          </ns3:TrackPointExtension>
        </extensions>
      </trkpt>
      <trkpt lat="52.05744554288685321807861328125" lon="1.25181100331246852874755859375">
        <ele>64</ele>
        <time>2025-09-05T12:13:48.000Z</time>
        <extensions>
          <ns3:TrackPointExtension>
            <ns3:hr>176</ns3:hr>
            <ns3:cad>80</ns3:cad>
          </ns3:TrackPointExtension>
        </extensions>
      </trkpt>
      <trkpt lat="52.05745660699903964996337890625" lon="1.2518977560102939605712890625">
        <ele>62.40000152587890625</ele>
        <time>2025-09-05T12:13:50.000Z</time>
        <extensions>
          <ns3:TrackPointExtension>
            <ns3:hr>174</ns3:hr>
            <ns3:cad>79</ns3:cad>
          </ns3:TrackPointExtension>
        </extensions>
      </trkpt>
      <trkpt lat="52.05746314488351345062255859375" lon="1.25205717980861663818359375">
        <ele>63.799999237060546875</ele>
        <time>2025-09-05T12:13:54.000Z</time>
        <extensions>
          <ns3:TrackPointExtension>
            <ns3:hr>173</ns3:hr>
            <ns3:cad>79</ns3:cad>
          </ns3:TrackPointExtension>
        </extensions>
      </trkpt>
      <trkpt lat="52.0574605464935302734375" lon="1.25209313817322254180908203125">
        <ele>64.59999847412109375</ele>
        <time>2025-09-05T12:13:55.000Z</time>
        <extensions>
          <ns3:TrackPointExtension>
            <ns3:hr>173</ns3:hr>
            <ns3:cad>79</ns3:cad>
          </ns3:TrackPointExtension>
        </extensions>
      </trkpt>
      <trkpt lat="52.05745861865580081939697265625" lon="1.252168826758861541748046875">
        <ele>65</ele>
        <time>2025-09-05T12:13:56.000Z</time>
        <extensions>
          <ns3:TrackPointExtension>
            <ns3:hr>173</ns3:hr>
            <ns3:cad>79</ns3:cad>
          </ns3:TrackPointExtension>
        </extensions>
      </trkpt>
      <trkpt lat="52.057456187903881072998046875" lon="1.25220629386603832244873046875">
        <ele>67</ele>
        <time>2025-09-05T12:13:58.000Z</time>
        <extensions>
          <ns3:TrackPointExtension>
            <ns3:hr>173</ns3:hr>
            <ns3:cad>79</ns3:cad>
          </ns3:TrackPointExtension>
        </extensions>
      </trkpt>
      <trkpt lat="52.0574484765529632568359375" lon="1.252367980778217315673828125">
        <ele>67.8000030517578125</ele>
        <time>2025-09-05T12:14:03.000Z</time>
        <extensions>
          <ns3:TrackPointExtension>
            <ns3:hr>173</ns3:hr>
            <ns3:cad>80</ns3:cad>
          </ns3:TrackPointExtension>
        </extensions>
      </trkpt>
      <trkpt lat="52.05745610408484935760498046875" lon="1.25238843262195587158203125">
        <ele>67.8000030517578125</ele>
        <time>2025-09-05T12:14:08.000Z</time>
        <extensions>
          <ns3:TrackPointExtension>
            <ns3:hr>172</ns3:hr>
            <ns3:cad>0</ns3:cad>
          </ns3:TrackPointExtension>
        </extensions>
      </trkpt>
      <trkpt lat="52.05746582709252834320068359375" lon="1.252390444278717041015625">
        <ele>68</ele>
        <time>2025-09-05T12:14:10.000Z</time>
        <extensions>
          <ns3:TrackPointExtension>
            <ns3:hr>174</ns3:hr>
            <ns3:cad>0</ns3:cad>
          </ns3:TrackPointExtension>
        </extensions>
      </trkpt>
      <trkpt lat="52.05746465362608432769775390625" lon="1.252410896122455596923828125">
        <ele>66.40000152587890625</ele>
        <time>2025-09-05T12:14:13.000Z</time>
        <extensions>
          <ns3:TrackPointExtension>
            <ns3:hr>174</ns3:hr>
            <ns3:cad>0</ns3:cad>
          </ns3:TrackPointExtension>
        </extensions>
      </trkpt>
      <trkpt lat="52.057468928396701812744140625" lon="1.2524502910673618316650390625">
        <ele>65.40000152587890625</ele>
        <time>2025-09-05T12:14:15.000Z</time>
        <extensions>
          <ns3:TrackPointExtension>
            <ns3:hr>173</ns3:hr>
            <ns3:cad>0</ns3:cad>
          </ns3:TrackPointExtension>
        </extensions>
      </trkpt>
      <trkpt lat="52.0574694313108921051025390625" lon="1.25248323194682598114013671875">
        <ele>64.40000152587890625</ele>
        <time>2025-09-05T12:14:17.000Z</time>
        <extensions>
          <ns3:TrackPointExtension>
            <ns3:hr>173</ns3:hr>
            <ns3:cad>0</ns3:cad>
          </ns3:TrackPointExtension>
        </extensions>
      </trkpt>
      <trkpt lat="52.0574821718037128448486328125" lon="1.25253184698522090911865234375">
        <ele>63</ele>
        <time>2025-09-05T12:14:19.000Z</time>
        <extensions>
          <ns3:TrackPointExtension>
            <ns3:hr>173</ns3:hr>
            <ns3:cad>0</ns3:cad>
          </ns3:TrackPointExtension>
        </extensions>
      </trkpt>
      <trkpt lat="52.0574835129082202911376953125" lon="1.25264081172645092010498046875">
        <ele>61</ele>
        <time>2025-09-05T12:14:21.000Z</time>
        <extensions>
          <ns3:TrackPointExtension>
            <ns3:hr>173</ns3:hr>
            <ns3:cad>0</ns3:cad>
          </ns3:TrackPointExtension>
        </extensions>
      </trkpt>
      <trkpt lat="52.05747907049953937530517578125" lon="1.25268221832811832427978515625">
        <ele>60.200000762939453125</ele>
        <time>2025-09-05T12:14:22.000Z</time>
        <extensions>
          <ns3:TrackPointExtension>
            <ns3:hr>172</ns3:hr>
            <ns3:cad>0</ns3:cad>
          </ns3:TrackPointExtension>
        </extensions>
      </trkpt>
      <trkpt lat="52.05747907049953937530517578125" lon="1.25268221832811832427978515625">
        <ele>59.40000152587890625</ele>
        <time>2025-09-05T12:14:23.000Z</time>
        <extensions>
          <ns3:TrackPointExtension>
            <ns3:hr>171</ns3:hr>
            <ns3:cad>80</ns3:cad>
          </ns3:TrackPointExtension>
        </extensions>
      </trkpt>
      <trkpt lat="52.057468928396701812744140625" lon="1.2528397142887115478515625">
        <ele>58.59999847412109375</ele>
        <time>2025-09-05T12:14:26.000Z</time>
        <extensions>
          <ns3:TrackPointExtension>
            <ns3:hr>168</ns3:hr>
            <ns3:cad>80</ns3:cad>
          </ns3:TrackPointExtension>
        </extensions>
      </trkpt>
      <trkpt lat="52.0574533380568027496337890625" lon="1.2530060112476348876953125">
        <ele>58.59999847412109375</ele>
        <time>2025-09-05T12:14:31.000Z</time>
        <extensions>
          <ns3:TrackPointExtension>
            <ns3:hr>172</ns3:hr>
            <ns3:cad>81</ns3:cad>
          </ns3:TrackPointExtension>
        </extensions>
      </trkpt>
      <trkpt lat="52.05744688399136066436767578125" lon="1.2530873157083988189697265625">
        <ele>58.59999847412109375</ele>
        <time>2025-09-05T12:14:32.000Z</time>
        <extensions>
          <ns3:TrackPointExtension>
            <ns3:hr>173</ns3:hr>
            <ns3:cad>82</ns3:cad>
          </ns3:TrackPointExtension>
        </extensions>
      </trkpt>
      <trkpt lat="52.057447470724582672119140625" lon="1.253127716481685638427734375">
        <ele>60.59999847412109375</ele>
        <time>2025-09-05T12:14:34.000Z</time>
        <extensions>
          <ns3:TrackPointExtension>
            <ns3:hr>173</ns3:hr>
            <ns3:cad>82</ns3:cad>
          </ns3:TrackPointExtension>
        </extensions>
      </trkpt>
      <trkpt lat="52.05745585262775421142578125" lon="1.2532073445618152618408203125">
        <ele>61.59999847412109375</ele>
        <time>2025-09-05T12:14:35.000Z</time>
        <extensions>
          <ns3:TrackPointExtension>
            <ns3:hr>174</ns3:hr>
            <ns3:cad>82</ns3:cad>
          </ns3:TrackPointExtension>
        </extensions>
      </trkpt>
      <trkpt lat="52.0574597083032131195068359375" lon="1.2532438896596431732177734375">
        <ele>63.200000762939453125</ele>
        <time>2025-09-05T12:14:37.000Z</time>
        <extensions>
          <ns3:TrackPointExtension>
            <ns3:hr>177</ns3:hr>
            <ns3:cad>82</ns3:cad>
          </ns3:TrackPointExtension>
        </extensions>
      </trkpt>
      <trkpt lat="52.05746280960738658905029296875" lon="1.25331739895045757293701171875">
        <ele>64.1999969482421875</ele>
        <time>2025-09-05T12:14:39.000Z</time>
        <extensions>
          <ns3:TrackPointExtension>
            <ns3:hr>177</ns3:hr>
            <ns3:cad>82</ns3:cad>
          </ns3:TrackPointExtension>
        </extensions>
      </trkpt>
      <trkpt lat="52.05746264196932315826416015625" lon="1.25335260294377803802490234375">
        <ele>64.40000152587890625</ele>
        <time>2025-09-05T12:14:40.000Z</time>
        <extensions>
          <ns3:TrackPointExtension>
            <ns3:hr>177</ns3:hr>
            <ns3:cad>81</ns3:cad>
          </ns3:TrackPointExtension>
        </extensions>
      </trkpt>
      <trkpt lat="52.05746297724545001983642578125" lon="1.25342778861522674560546875">
        <ele>66</ele>
        <time>2025-09-05T12:14:42.000Z</time>
        <extensions>
          <ns3:TrackPointExtension>
            <ns3:hr>176</ns3:hr>
            <ns3:cad>81</ns3:cad>
          </ns3:TrackPointExtension>
        </extensions>
      </trkpt>
      <trkpt lat="52.0574680902063846588134765625" lon="1.25353775918483734130859375">
        <ele>67.40000152587890625</ele>
        <time>2025-09-05T12:14:45.000Z</time>
        <extensions>
          <ns3:TrackPointExtension>
            <ns3:hr>175</ns3:hr>
            <ns3:cad>82</ns3:cad>
          </ns3:TrackPointExtension>
        </extensions>
      </trkpt>
      <trkpt lat="52.0574754662811756134033203125" lon="1.2536566145718097686767578125">
        <ele>67.8000030517578125</ele>
        <time>2025-09-05T12:14:48.000Z</time>
        <extensions>
          <ns3:TrackPointExtension>
            <ns3:hr>175</ns3:hr>
            <ns3:cad>80</ns3:cad>
          </ns3:TrackPointExtension>
        </extensions>
      </trkpt>
      <trkpt lat="52.057486362755298614501953125" lon="1.25377052463591098785400390625">
        <ele>68.40000152587890625</ele>
        <time>2025-09-05T12:14:51.000Z</time>
        <extensions>
          <ns3:TrackPointExtension>
            <ns3:hr>173</ns3:hr>
            <ns3:cad>80</ns3:cad>
          </ns3:TrackPointExtension>
        </extensions>
      </trkpt>
      <trkpt lat="52.05749499611556529998779296875" lon="1.2538792379200458526611328125">
        <ele>68.59999847412109375</ele>
        <time>2025-09-05T12:14:54.000Z</time>
        <extensions>
          <ns3:TrackPointExtension>
            <ns3:hr>173</ns3:hr>
            <ns3:cad>80</ns3:cad>
          </ns3:TrackPointExtension>
        </extensions>
      </trkpt>
      <trkpt lat="52.05750941298902034759521484375" lon="1.25409674830734729766845703125">
        <ele>68.59999847412109375</ele>
        <time>2025-09-05T12:15:00.000Z</time>
        <extensions>
          <ns3:TrackPointExtension>
            <ns3:hr>174</ns3:hr>
            <ns3:cad>80</ns3:cad>
          </ns3:TrackPointExtension>
        </extensions>
      </trkpt>
      <trkpt lat="52.05751712433993816375732421875" lon="1.2542433477938175201416015625">
        <ele>69.40000152587890625</ele>
        <time>2025-09-05T12:15:04.000Z</time>
        <extensions>
          <ns3:TrackPointExtension>
            <ns3:hr>175</ns3:hr>
            <ns3:cad>81</ns3:cad>
          </ns3:TrackPointExtension>
        </extensions>
      </trkpt>
      <trkpt lat="52.05752785317599773406982421875" lon="1.25431518070399761199951171875">
        <ele>70.40000152587890625</ele>
        <time>2025-09-05T12:15:06.000Z</time>
        <extensions>
          <ns3:TrackPointExtension>
            <ns3:hr>176</ns3:hr>
            <ns3:cad>81</ns3:cad>
          </ns3:TrackPointExtension>
        </extensions>
      </trkpt>
      <trkpt lat="52.05753807909786701202392578125" lon="1.25442548654973506927490234375">
        <ele>71.1999969482421875</ele>
        <time>2025-09-05T12:15:09.000Z</time>
        <extensions>
          <ns3:TrackPointExtension>
            <ns3:hr>176</ns3:hr>
            <ns3:cad>81</ns3:cad>
          </ns3:TrackPointExtension>
        </extensions>
      </trkpt>
      <trkpt lat="52.05753925256431102752685546875" lon="1.25446538440883159637451171875">
        <ele>71.59999847412109375</ele>
        <time>2025-09-05T12:15:10.000Z</time>
        <extensions>
          <ns3:TrackPointExtension>
            <ns3:hr>175</ns3:hr>
            <ns3:cad>81</ns3:cad>
          </ns3:TrackPointExtension>
        </extensions>
      </trkpt>
      <trkpt lat="52.05755718983709812164306640625" lon="1.2546617724001407623291015625">
        <ele>72.59999847412109375</ele>
        <time>2025-09-05T12:15:15.000Z</time>
        <extensions>
          <ns3:TrackPointExtension>
            <ns3:hr>175</ns3:hr>
            <ns3:cad>82</ns3:cad>
          </ns3:TrackPointExtension>
        </extensions>
      </trkpt>
      <trkpt lat="52.05755786038935184478759765625" lon="1.254700832068920135498046875">
        <ele>73</ele>
        <time>2025-09-05T12:15:16.000Z</time>
        <extensions>
          <ns3:TrackPointExtension>
            <ns3:hr>175</ns3:hr>
            <ns3:cad>81</ns3:cad>
          </ns3:TrackPointExtension>
        </extensions>
      </trkpt>
      <trkpt lat="52.05756071023643016815185546875" lon="1.25477484427392482757568359375">
        <ele>73.59999847412109375</ele>
        <time>2025-09-05T12:15:18.000Z</time>
        <extensions>
          <ns3:TrackPointExtension>
            <ns3:hr>174</ns3:hr>
            <ns3:cad>81</ns3:cad>
          </ns3:TrackPointExtension>
        </extensions>
      </trkpt>
      <trkpt lat="52.05755886621773242950439453125" lon="1.25495606102049350738525390625">
        <ele>74</ele>
        <time>2025-09-05T12:15:23.000Z</time>
        <extensions>
          <ns3:TrackPointExtension>
            <ns3:hr>173</ns3:hr>
            <ns3:cad>80</ns3:cad>
          </ns3:TrackPointExtension>
        </extensions>
      </trkpt>
      <trkpt lat="52.05755316652357578277587890625" lon="1.25512889586389064788818359375">
        <ele>72.59999847412109375</ele>
        <time>2025-09-05T12:15:28.000Z</time>
        <extensions>
          <ns3:TrackPointExtension>
            <ns3:hr>173</ns3:hr>
            <ns3:cad>80</ns3:cad>
          </ns3:TrackPointExtension>
        </extensions>
      </trkpt>
      <trkpt lat="52.0575492270290851593017578125" lon="1.25519536435604095458984375">
        <ele>71.59999847412109375</ele>
        <time>2025-09-05T12:15:30.000Z</time>
        <extensions>
          <ns3:TrackPointExtension>
            <ns3:hr>174</ns3:hr>
            <ns3:cad>80</ns3:cad>
          </ns3:TrackPointExtension>
        </extensions>
      </trkpt>
      <trkpt lat="52.0575384981930255889892578125" lon="1.25533576123416423797607421875">
        <ele>70</ele>
        <time>2025-09-05T12:15:33.000Z</time>
        <extensions>
          <ns3:TrackPointExtension>
            <ns3:hr>173</ns3:hr>
            <ns3:cad>80</ns3:cad>
          </ns3:TrackPointExtension>
        </extensions>
      </trkpt>
      <trkpt lat="52.0575384981930255889892578125" lon="1.25533576123416423797607421875">
        <ele>69.59999847412109375</ele>
        <time>2025-09-05T12:15:34.000Z</time>
        <extensions>
          <ns3:TrackPointExtension>
            <ns3:hr>176</ns3:hr>
            <ns3:cad>80</ns3:cad>
          </ns3:TrackPointExtension>
        </extensions>
      </trkpt>
      <trkpt lat="52.05753942020237445831298828125" lon="1.25540985725820064544677734375">
        <ele>68.40000152587890625</ele>
        <time>2025-09-05T12:15:36.000Z</time>
        <extensions>
          <ns3:TrackPointExtension>
            <ns3:hr>176</ns3:hr>
            <ns3:cad>80</ns3:cad>
          </ns3:TrackPointExtension>
        </extensions>
      </trkpt>
      <trkpt lat="52.057538330554962158203125" lon="1.25548311509191989898681640625">
        <ele>66.59999847412109375</ele>
        <time>2025-09-05T12:15:38.000Z</time>
        <extensions>
          <ns3:TrackPointExtension>
            <ns3:hr>175</ns3:hr>
            <ns3:cad>79</ns3:cad>
          </ns3:TrackPointExtension>
        </extensions>
      </trkpt>
      <trkpt lat="52.05754025839269161224365234375" lon="1.2555150501430034637451171875">
        <ele>65.59999847412109375</ele>
        <time>2025-09-05T12:15:39.000Z</time>
        <extensions>
          <ns3:TrackPointExtension>
            <ns3:hr>175</ns3:hr>
            <ns3:cad>79</ns3:cad>
          </ns3:TrackPointExtension>
        </extensions>
      </trkpt>
      <trkpt lat="52.0575450360774993896484375" lon="1.2555857934057712554931640625">
        <ele>64</ele>
        <time>2025-09-05T12:15:41.000Z</time>
        <extensions>
          <ns3:TrackPointExtension>
            <ns3:hr>177</ns3:hr>
            <ns3:cad>79</ns3:cad>
          </ns3:TrackPointExtension>
        </extensions>
      </trkpt>
      <trkpt lat="52.0575519092381000518798828125" lon="1.2556588836014270782470703125">
        <ele>62.59999847412109375</ele>
        <time>2025-09-05T12:15:43.000Z</time>
        <extensions>
          <ns3:TrackPointExtension>
            <ns3:hr>177</ns3:hr>
            <ns3:cad>79</ns3:cad>
          </ns3:TrackPointExtension>
        </extensions>
      </trkpt>
      <trkpt lat="52.05755584873259067535400390625" lon="1.25569425523281097412109375">
        <ele>60.200000762939453125</ele>
        <time>2025-09-05T12:15:44.000Z</time>
        <extensions>
          <ns3:TrackPointExtension>
            <ns3:hr>177</ns3:hr>
            <ns3:cad>79</ns3:cad>
          </ns3:TrackPointExtension>
        </extensions>
      </trkpt>
      <trkpt lat="52.0575579442083835601806640625" lon="1.2557671777904033660888671875">
        <ele>54</ele>
        <time>2025-09-05T12:15:45.000Z</time>
        <extensions>
          <ns3:TrackPointExtension>
            <ns3:hr>177</ns3:hr>
            <ns3:cad>81</ns3:cad>
          </ns3:TrackPointExtension>
        </extensions>
      </trkpt>
      <trkpt lat="52.057559788227081298828125" lon="1.25580330379307270050048828125">
        <ele>50.799999237060546875</ele>
        <time>2025-09-05T12:15:46.000Z</time>
        <extensions>
          <ns3:TrackPointExtension>
            <ns3:hr>177</ns3:hr>
            <ns3:cad>81</ns3:cad>
          </ns3:TrackPointExtension>
        </extensions>
      </trkpt>
      <trkpt lat="52.05755953676998615264892578125" lon="1.25583666376769542694091796875">
        <ele>48.799999237060546875</ele>
        <time>2025-09-05T12:15:47.000Z</time>
        <extensions>
          <ns3:TrackPointExtension>
            <ns3:hr>176</ns3:hr>
            <ns3:cad>80</ns3:cad>
          </ns3:TrackPointExtension>
        </extensions>
      </trkpt>
      <trkpt lat="52.05755953676998615264892578125" lon="1.25583666376769542694091796875">
        <ele>47.799999237060546875</ele>
        <time>2025-09-05T12:15:48.000Z</time>
        <extensions>
          <ns3:TrackPointExtension>
            <ns3:hr>175</ns3:hr>
            <ns3:cad>80</ns3:cad>
          </ns3:TrackPointExtension>
        </extensions>
      </trkpt>
      <trkpt lat="52.0575584471225738525390625" lon="1.25590925104916095733642578125">
        <ele>45.799999237060546875</ele>
        <time>2025-09-05T12:15:49.000Z</time>
        <extensions>
          <ns3:TrackPointExtension>
            <ns3:hr>175</ns3:hr>
            <ns3:cad>80</ns3:cad>
          </ns3:TrackPointExtension>
        </extensions>
      </trkpt>
      <trkpt lat="52.0575584471225738525390625" lon="1.25590925104916095733642578125">
        <ele>44.799999237060546875</ele>
        <time>2025-09-05T12:15:50.000Z</time>
        <extensions>
          <ns3:TrackPointExtension>
            <ns3:hr>174</ns3:hr>
            <ns3:cad>81</ns3:cad>
          </ns3:TrackPointExtension>
        </extensions>
      </trkpt>
      <trkpt lat="52.0575589500367641448974609375" lon="1.2559445388615131378173828125">
        <ele>43.200000762939453125</ele>
        <time>2025-09-05T12:15:51.000Z</time>
        <extensions>
          <ns3:TrackPointExtension>
            <ns3:hr>174</ns3:hr>
            <ns3:cad>81</ns3:cad>
          </ns3:TrackPointExtension>
        </extensions>
      </trkpt>
      <trkpt lat="52.0575539208948612213134765625" lon="1.2560181319713592529296875">
        <ele>42</ele>
        <time>2025-09-05T12:15:52.000Z</time>
        <extensions>
          <ns3:TrackPointExtension>
            <ns3:hr>173</ns3:hr>
            <ns3:cad>81</ns3:cad>
          </ns3:TrackPointExtension>
        </extensions>
      </trkpt>
      <trkpt lat="52.0575519092381000518798828125" lon="1.25605744309723377227783203125">
        <ele>41</ele>
        <time>2025-09-05T12:15:54.000Z</time>
        <extensions>
          <ns3:TrackPointExtension>
            <ns3:hr>173</ns3:hr>
            <ns3:cad>81</ns3:cad>
          </ns3:TrackPointExtension>
        </extensions>
      </trkpt>
      <trkpt lat="52.0575552619993686676025390625" lon="1.25617646612226963043212890625">
        <ele>40.59999847412109375</ele>
        <time>2025-09-05T12:15:56.000Z</time>
        <extensions>
          <ns3:TrackPointExtension>
            <ns3:hr>173</ns3:hr>
            <ns3:cad>80</ns3:cad>
          </ns3:TrackPointExtension>
        </extensions>
      </trkpt>
      <trkpt lat="52.0575683377683162689208984375" lon="1.25628442503511905670166015625">
        <ele>38.40000152587890625</ele>
        <time>2025-09-05T12:16:00.000Z</time>
        <extensions>
          <ns3:TrackPointExtension>
            <ns3:hr>173</ns3:hr>
            <ns3:cad>81</ns3:cad>
          </ns3:TrackPointExtension>
        </extensions>
      </trkpt>
      <trkpt lat="52.05757361836731433868408203125" lon="1.25631946139037609100341796875">
        <ele>37.200000762939453125</ele>
        <time>2025-09-05T12:16:01.000Z</time>
        <extensions>
          <ns3:TrackPointExtension>
            <ns3:hr>174</ns3:hr>
            <ns3:cad>81</ns3:cad>
          </ns3:TrackPointExtension>
        </extensions>
      </trkpt>
      <trkpt lat="52.0575810782611370086669921875" lon="1.25638752244412899017333984375">
        <ele>36</ele>
        <time>2025-09-05T12:16:03.000Z</time>
        <extensions>
          <ns3:TrackPointExtension>
            <ns3:hr>172</ns3:hr>
            <ns3:cad>79</ns3:cad>
          </ns3:TrackPointExtension>
        </extensions>
      </trkpt>
      <trkpt lat="52.05758300609886646270751953125" lon="1.25645742751657962799072265625">
        <ele>35</ele>
        <time>2025-09-05T12:16:05.000Z</time>
        <extensions>
          <ns3:TrackPointExtension>
            <ns3:hr>172</ns3:hr>
            <ns3:cad>77</ns3:cad>
          </ns3:TrackPointExtension>
        </extensions>
      </trkpt>
      <trkpt lat="52.05759122036397457122802734375" lon="1.25652381218969821929931640625">
        <ele>34.200000762939453125</ele>
        <time>2025-09-05T12:16:06.000Z</time>
        <extensions>
          <ns3:TrackPointExtension>
            <ns3:hr>171</ns3:hr>
            <ns3:cad>77</ns3:cad>
          </ns3:TrackPointExtension>
        </extensions>
      </trkpt>
      <trkpt lat="52.05759122036397457122802734375" lon="1.25652381218969821929931640625">
        <ele>33</ele>
        <time>2025-09-05T12:16:07.000Z</time>
        <extensions>
          <ns3:TrackPointExtension>
            <ns3:hr>171</ns3:hr>
            <ns3:cad>77</ns3:cad>
          </ns3:TrackPointExtension>
        </extensions>
      </trkpt>
      <trkpt lat="52.05760027281939983367919921875" lon="1.256626658141613006591796875">
        <ele>30</ele>
        <time>2025-09-05T12:16:09.000Z</time>
        <extensions>
          <ns3:TrackPointExtension>
            <ns3:hr>171</ns3:hr>
            <ns3:cad>78</ns3:cad>
          </ns3:TrackPointExtension>
        </extensions>
      </trkpt>
      <trkpt lat="52.05760027281939983367919921875" lon="1.256626658141613006591796875">
        <ele>28.799999237060546875</ele>
        <time>2025-09-05T12:16:10.000Z</time>
        <extensions>
          <ns3:TrackPointExtension>
            <ns3:hr>171</ns3:hr>
            <ns3:cad>78</ns3:cad>
          </ns3:TrackPointExtension>
        </extensions>
      </trkpt>
      <trkpt lat="52.0576032064855098724365234375" lon="1.25666094012558460235595703125">
        <ele>27.6000003814697265625</ele>
        <time>2025-09-05T12:16:11.000Z</time>
        <extensions>
          <ns3:TrackPointExtension>
            <ns3:hr>171</ns3:hr>
            <ns3:cad>80</ns3:cad>
          </ns3:TrackPointExtension>
        </extensions>
      </trkpt>
      <trkpt lat="52.05760614015161991119384765625" lon="1.25669413246214389801025390625">
        <ele>27</ele>
        <time>2025-09-05T12:16:12.000Z</time>
        <extensions>
          <ns3:TrackPointExtension>
            <ns3:hr>171</ns3:hr>
            <ns3:cad>80</ns3:cad>
          </ns3:TrackPointExtension>
        </extensions>
      </trkpt>
      <trkpt lat="52.05760211683809757232666015625" lon="1.2567958049476146697998046875">
        <ele>26.3999996185302734375</ele>
        <time>2025-09-05T12:16:14.000Z</time>
        <extensions>
          <ns3:TrackPointExtension>
            <ns3:hr>173</ns3:hr>
            <ns3:cad>79</ns3:cad>
          </ns3:TrackPointExtension>
        </extensions>
      </trkpt>
      <trkpt lat="52.05760044045746326446533203125" lon="1.25686327926814556121826171875">
        <ele>25.200000762939453125</ele>
        <time>2025-09-05T12:16:17.000Z</time>
        <extensions>
          <ns3:TrackPointExtension>
            <ns3:hr>173</ns3:hr>
            <ns3:cad>80</ns3:cad>
          </ns3:TrackPointExtension>
        </extensions>
      </trkpt>
      <trkpt lat="52.05760203301906585693359375" lon="1.2568987347185611724853515625">
        <ele>25</ele>
        <time>2025-09-05T12:16:18.000Z</time>
        <extensions>
          <ns3:TrackPointExtension>
            <ns3:hr>173</ns3:hr>
            <ns3:cad>80</ns3:cad>
          </ns3:TrackPointExtension>
        </extensions>
      </trkpt>
      <trkpt lat="52.0576159469783306121826171875" lon="1.25711021013557910919189453125">
        <ele>24</ele>
        <time>2025-09-05T12:16:24.000Z</time>
        <extensions>
          <ns3:TrackPointExtension>
            <ns3:hr>174</ns3:hr>
            <ns3:cad>79</ns3:cad>
          </ns3:TrackPointExtension>
        </extensions>
      </trkpt>
      <trkpt lat="52.0576228201389312744140625" lon="1.2572256289422512054443359375">
        <ele>23.6000003814697265625</ele>
        <time>2025-09-05T12:16:27.000Z</time>
        <extensions>
          <ns3:TrackPointExtension>
            <ns3:hr>173</ns3:hr>
            <ns3:cad>80</ns3:cad>
          </ns3:TrackPointExtension>
        </extensions>
      </trkpt>
      <trkpt lat="52.057634890079498291015625" lon="1.2574750743806362152099609375">
        <ele>23</ele>
        <time>2025-09-05T12:16:34.000Z</time>
        <extensions>
          <ns3:TrackPointExtension>
            <ns3:hr>172</ns3:hr>
            <ns3:cad>80</ns3:cad>
          </ns3:TrackPointExtension>
        </extensions>
      </trkpt>
      <trkpt lat="52.05763899721205234527587890625" lon="1.25750608742237091064453125">
        <ele>22.799999237060546875</ele>
        <time>2025-09-05T12:16:35.000Z</time>
        <extensions>
          <ns3:TrackPointExtension>
            <ns3:hr>172</ns3:hr>
            <ns3:cad>80</ns3:cad>
          </ns3:TrackPointExtension>
        </extensions>
      </trkpt>
      <trkpt lat="52.0576622150838375091552734375" lon="1.257590241730213165283203125">
        <ele>21.3999996185302734375</ele>
        <time>2025-09-05T12:16:38.000Z</time>
        <extensions>
          <ns3:TrackPointExtension>
            <ns3:hr>171</ns3:hr>
            <ns3:cad>79</ns3:cad>
          </ns3:TrackPointExtension>
        </extensions>
      </trkpt>
      <trkpt lat="52.057689540088176727294921875" lon="1.2576805986464023590087890625">
        <ele>20.200000762939453125</ele>
        <time>2025-09-05T12:16:41.000Z</time>
        <extensions>
          <ns3:TrackPointExtension>
            <ns3:hr>171</ns3:hr>
            <ns3:cad>79</ns3:cad>
          </ns3:TrackPointExtension>
        </extensions>
      </trkpt>
      <trkpt lat="52.05769716762006282806396484375" lon="1.25770985148847103118896484375">
        <ele>20</ele>
        <time>2025-09-05T12:16:42.000Z</time>
        <extensions>
          <ns3:TrackPointExtension>
            <ns3:hr>170</ns3:hr>
            <ns3:cad>79</ns3:cad>
          </ns3:TrackPointExtension>
        </extensions>
      </trkpt>
      <trkpt lat="52.0577068068087100982666015625" lon="1.25773751176893711090087890625">
        <ele>19.3999996185302734375</ele>
        <time>2025-09-05T12:16:43.000Z</time>
        <extensions>
          <ns3:TrackPointExtension>
            <ns3:hr>173</ns3:hr>
            <ns3:cad>79</ns3:cad>
          </ns3:TrackPointExtension>
        </extensions>
      </trkpt>
      <trkpt lat="52.05771644599735736846923828125" lon="1.25776760280132293701171875">
        <ele>18.6000003814697265625</ele>
        <time>2025-09-05T12:16:44.000Z</time>
        <extensions>
          <ns3:TrackPointExtension>
            <ns3:hr>173</ns3:hr>
            <ns3:cad>79</ns3:cad>
          </ns3:TrackPointExtension>
        </extensions>
      </trkpt>
      <trkpt lat="52.0577275939285755157470703125" lon="1.2577955983579158782958984375">
        <ele>16.799999237060546875</ele>
        <time>2025-09-05T12:16:45.000Z</time>
        <extensions>
          <ns3:TrackPointExtension>
            <ns3:hr>173</ns3:hr>
            <ns3:cad>80</ns3:cad>
          </ns3:TrackPointExtension>
        </extensions>
      </trkpt>
      <trkpt lat="52.05774553120136260986328125" lon="1.25784999690949916839599609375">
        <ele>15.3999996185302734375</ele>
        <time>2025-09-05T12:16:47.000Z</time>
        <extensions>
          <ns3:TrackPointExtension>
            <ns3:hr>172</ns3:hr>
            <ns3:cad>79</ns3:cad>
          </ns3:TrackPointExtension>
        </extensions>
      </trkpt>
      <trkpt lat="52.0577597804367542266845703125" lon="1.25790263526141643524169921875">
        <ele>13.80000019073486328125</ele>
        <time>2025-09-05T12:16:49.000Z</time>
        <extensions>
          <ns3:TrackPointExtension>
            <ns3:hr>173</ns3:hr>
            <ns3:cad>79</ns3:cad>
          </ns3:TrackPointExtension>
        </extensions>
      </trkpt>
      <trkpt lat="52.05777511931955814361572265625" lon="1.25795309431850910186767578125">
        <ele>12.19999980926513671875</ele>
        <time>2025-09-05T12:16:51.000Z</time>
        <extensions>
          <ns3:TrackPointExtension>
            <ns3:hr>175</ns3:hr>
            <ns3:cad>79</ns3:cad>
          </ns3:TrackPointExtension>
        </extensions>
      </trkpt>
      <trkpt lat="52.0577902905642986297607421875" lon="1.25800673849880695343017578125">
        <ele>11</ele>
        <time>2025-09-05T12:16:53.000Z</time>
        <extensions>
          <ns3:TrackPointExtension>
            <ns3:hr>176</ns3:hr>
            <ns3:cad>79</ns3:cad>
          </ns3:TrackPointExtension>
        </extensions>
      </trkpt>
      <trkpt lat="52.05779909156262874603271484375" lon="1.25806474126875400543212890625">
        <ele>9.80000019073486328125</ele>
        <time>2025-09-05T12:16:55.000Z</time>
        <extensions>
          <ns3:TrackPointExtension>
            <ns3:hr>177</ns3:hr>
            <ns3:cad>79</ns3:cad>
          </ns3:TrackPointExtension>
        </extensions>
      </trkpt>
      <trkpt lat="52.05781166441738605499267578125" lon="1.25812626443803310394287109375">
        <ele>8.6000003814697265625</ele>
        <time>2025-09-05T12:16:57.000Z</time>
        <extensions>
          <ns3:TrackPointExtension>
            <ns3:hr>177</ns3:hr>
            <ns3:cad>80</ns3:cad>
          </ns3:TrackPointExtension>
        </extensions>
      </trkpt>
      <trkpt lat="52.05781904049217700958251953125" lon="1.25815694220364093780517578125">
        <ele>7.400000095367431640625</ele>
        <time>2025-09-05T12:16:58.000Z</time>
        <extensions>
          <ns3:TrackPointExtension>
            <ns3:hr>177</ns3:hr>
            <ns3:cad>79</ns3:cad>
          </ns3:TrackPointExtension>
        </extensions>
      </trkpt>
      <trkpt lat="52.05783027224242687225341796875" lon="1.2582522444427013397216796875">
        <ele>6</ele>
        <time>2025-09-05T12:17:01.000Z</time>
        <extensions>
          <ns3:TrackPointExtension>
            <ns3:hr>177</ns3:hr>
            <ns3:cad>79</ns3:cad>
          </ns3:TrackPointExtension>
        </extensions>
      </trkpt>
      <trkpt lat="52.05784385092556476593017578125" lon="1.25834561884403228759765625">
        <ele>4.80000019073486328125</ele>
        <time>2025-09-05T12:17:04.000Z</time>
        <extensions>
          <ns3:TrackPointExtension>
            <ns3:hr>177</ns3:hr>
            <ns3:cad>78</ns3:cad>
          </ns3:TrackPointExtension>
        </extensions>
      </trkpt>
      <trkpt lat="52.0578630454838275909423828125" lon="1.25845416449010372161865234375">
        <ele>3.400000095367431640625</ele>
        <time>2025-09-05T12:17:07.000Z</time>
        <extensions>
          <ns3:TrackPointExtension>
            <ns3:hr>177</ns3:hr>
            <ns3:cad>77</ns3:cad>
          </ns3:TrackPointExtension>
        </extensions>
      </trkpt>
      <trkpt lat="52.05786363221704959869384765625" lon="1.25848903320729732513427734375">
        <ele>2.2000000476837158203125</ele>
        <time>2025-09-05T12:17:08.000Z</time>
        <extensions>
          <ns3:TrackPointExtension>
            <ns3:hr>177</ns3:hr>
            <ns3:cad>77</ns3:cad>
          </ns3:TrackPointExtension>
        </extensions>
      </trkpt>
      <trkpt lat="52.05786354839801788330078125" lon="1.258523650467395782470703125">
        <ele>1</ele>
        <time>2025-09-05T12:17:09.000Z</time>
        <extensions>
          <ns3:TrackPointExtension>
            <ns3:hr>178</ns3:hr>
            <ns3:cad>78</ns3:cad>
          </ns3:TrackPointExtension>
        </extensions>
      </trkpt>
      <trkpt lat="52.057862542569637298583984375" lon="1.258558519184589385986328125">
        <ele>0</ele>
        <time>2025-09-05T12:17:10.000Z</time>
        <extensions>
          <ns3:TrackPointExtension>
            <ns3:hr>178</ns3:hr>
            <ns3:cad>79</ns3:cad>
          </ns3:TrackPointExtension>
        </extensions>
      </trkpt>
      <trkpt lat="52.0578623749315738677978515625" lon="1.25859238207340240478515625">
        <ele>-0.60000002384185791015625</ele>
        <time>2025-09-05T12:17:11.000Z</time>
        <extensions>
          <ns3:TrackPointExtension>
            <ns3:hr>178</ns3:hr>
            <ns3:cad>79</ns3:cad>
          </ns3:TrackPointExtension>
        </extensions>
      </trkpt>
      <trkpt lat="52.05786363221704959869384765625" lon="1.2586559168994426727294921875">
        <ele>-1.2000000476837158203125</ele>
        <time>2025-09-05T12:17:13.000Z</time>
        <extensions>
          <ns3:TrackPointExtension>
            <ns3:hr>177</ns3:hr>
            <ns3:cad>79</ns3:cad>
          </ns3:TrackPointExtension>
        </extensions>
      </trkpt>
      <trkpt lat="52.0578650571405887603759765625" lon="1.2586842477321624755859375">
        <ele>-2.599999904632568359375</ele>
        <time>2025-09-05T12:17:14.000Z</time>
        <extensions>
          <ns3:TrackPointExtension>
            <ns3:hr>177</ns3:hr>
            <ns3:cad>79</ns3:cad>
          </ns3:TrackPointExtension>
        </extensions>
      </trkpt>
      <trkpt lat="52.05786664970219135284423828125" lon="1.25876630656421184539794921875">
        <ele>-3.7999999523162841796875</ele>
        <time>2025-09-05T12:17:17.000Z</time>
        <extensions>
          <ns3:TrackPointExtension>
            <ns3:hr>178</ns3:hr>
            <ns3:cad>80</ns3:cad>
          </ns3:TrackPointExtension>
        </extensions>
      </trkpt>
      <trkpt lat="52.0578586868941783905029296875" lon="1.25879220664501190185546875">
        <ele>-4.400000095367431640625</ele>
        <time>2025-09-05T12:17:18.000Z</time>
        <extensions>
          <ns3:TrackPointExtension>
            <ns3:hr>178</ns3:hr>
            <ns3:cad>80</ns3:cad>
          </ns3:TrackPointExtension>
        </extensions>
      </trkpt>
      <trkpt lat="52.05786044709384441375732421875" lon="1.25886487774550914764404296875">
        <ele>-4.80000019073486328125</ele>
        <time>2025-09-05T12:17:21.000Z</time>
        <extensions>
          <ns3:TrackPointExtension>
            <ns3:hr>178</ns3:hr>
            <ns3:cad>79</ns3:cad>
          </ns3:TrackPointExtension>
        </extensions>
      </trkpt>
      <trkpt lat="52.0578610338270664215087890625" lon="1.25899295322597026824951171875">
        <ele>-4.400000095367431640625</ele>
        <time>2025-09-05T12:17:26.000Z</time>
        <extensions>
          <ns3:TrackPointExtension>
            <ns3:hr>178</ns3:hr>
            <ns3:cad>80</ns3:cad>
          </ns3:TrackPointExtension>
        </extensions>
      </trkpt>
      <trkpt lat="52.057901434600353240966796875" lon="1.25909152440726757049560546875">
        <ele>-3.7999999523162841796875</ele>
        <time>2025-09-05T12:17:31.000Z</time>
        <extensions>
          <ns3:TrackPointExtension>
            <ns3:hr>178</ns3:hr>
            <ns3:cad>81</ns3:cad>
          </ns3:TrackPointExtension>
        </extensions>
      </trkpt>
      <trkpt lat="52.057908140122890472412109375" lon="1.2591732479631900787353515625">
        <ele>-3.2000000476837158203125</ele>
        <time>2025-09-05T12:17:35.000Z</time>
        <extensions>
          <ns3:TrackPointExtension>
            <ns3:hr>176</ns3:hr>
            <ns3:cad>80</ns3:cad>
          </ns3:TrackPointExtension>
        </extensions>
      </trkpt>
      <trkpt lat="52.0579217188060283660888671875" lon="1.259197555482387542724609375">
        <ele>-2.599999904632568359375</ele>
        <time>2025-09-05T12:17:36.000Z</time>
        <extensions>
          <ns3:TrackPointExtension>
            <ns3:hr>175</ns3:hr>
            <ns3:cad>80</ns3:cad>
          </ns3:TrackPointExtension>
        </extensions>
      </trkpt>
      <trkpt lat="52.057947032153606414794921875" lon="1.259250529110431671142578125">
        <ele>-1.2000000476837158203125</ele>
        <time>2025-09-05T12:17:38.000Z</time>
        <extensions>
          <ns3:TrackPointExtension>
            <ns3:hr>175</ns3:hr>
            <ns3:cad>80</ns3:cad>
          </ns3:TrackPointExtension>
        </extensions>
      </trkpt>
      <trkpt lat="52.0579755306243896484375" lon="1.25929989852011203765869140625">
        <ele>0.60000002384185791015625</ele>
        <time>2025-09-05T12:17:40.000Z</time>
        <extensions>
          <ns3:TrackPointExtension>
            <ns3:hr>176</ns3:hr>
            <ns3:cad>80</ns3:cad>
          </ns3:TrackPointExtension>
        </extensions>
      </trkpt>
      <trkpt lat="52.0579917915165424346923828125" lon="1.25932470895349979400634765625">
        <ele>1.7999999523162841796875</ele>
        <time>2025-09-05T12:17:41.000Z</time>
        <extensions>
          <ns3:TrackPointExtension>
            <ns3:hr>177</ns3:hr>
            <ns3:cad>80</ns3:cad>
          </ns3:TrackPointExtension>
        </extensions>
      </trkpt>
      <trkpt lat="52.0580249838531017303466796875" lon="1.2593829631805419921875">
        <ele>3.400000095367431640625</ele>
        <time>2025-09-05T12:17:43.000Z</time>
        <extensions>
          <ns3:TrackPointExtension>
            <ns3:hr>177</ns3:hr>
            <ns3:cad>80</ns3:cad>
          </ns3:TrackPointExtension>
        </extensions>
      </trkpt>
      <trkpt lat="52.05804568715393543243408203125" lon="1.259491257369518280029296875">
        <ele>4.80000019073486328125</ele>
        <time>2025-09-05T12:17:47.000Z</time>
        <extensions>
          <ns3:TrackPointExtension>
            <ns3:hr>176</ns3:hr>
            <ns3:cad>79</ns3:cad>
          </ns3:TrackPointExtension>
        </extensions>
      </trkpt>
      <trkpt lat="52.05805398523807525634765625" lon="1.25956459902226924896240234375">
        <ele>5.19999980926513671875</ele>
        <time>2025-09-05T12:17:50.000Z</time>
        <extensions>
          <ns3:TrackPointExtension>
            <ns3:hr>176</ns3:hr>
            <ns3:cad>80</ns3:cad>
          </ns3:TrackPointExtension>
        </extensions>
      </trkpt>
      <trkpt lat="52.05807619728147983551025390625" lon="1.25976090319454669952392578125">
        <ele>6</ele>
        <time>2025-09-05T12:17:56.000Z</time>
        <extensions>
          <ns3:TrackPointExtension>
            <ns3:hr>174</ns3:hr>
            <ns3:cad>79</ns3:cad>
          </ns3:TrackPointExtension>
        </extensions>
      </trkpt>
      <trkpt lat="52.05808994360268115997314453125" lon="1.25983885489404201507568359375">
        <ele>6.400000095367431640625</ele>
        <time>2025-09-05T12:17:58.000Z</time>
        <extensions>
          <ns3:TrackPointExtension>
            <ns3:hr>175</ns3:hr>
            <ns3:cad>79</ns3:cad>
          </ns3:TrackPointExtension>
        </extensions>
      </trkpt>
      <trkpt lat="52.05810033716261386871337890625" lon="1.259904317557811737060546875">
        <ele>7</ele>
        <time>2025-09-05T12:18:00.000Z</time>
        <extensions>
          <ns3:TrackPointExtension>
            <ns3:hr>176</ns3:hr>
            <ns3:cad>80</ns3:cad>
          </ns3:TrackPointExtension>
        </extensions>
      </trkpt>
      <trkpt lat="52.0581480301916599273681640625" lon="1.26005913130939006805419921875">
        <ele>8</ele>
        <time>2025-09-05T12:18:06.000Z</time>
        <extensions>
          <ns3:TrackPointExtension>
            <ns3:hr>175</ns3:hr>
            <ns3:cad>79</ns3:cad>
          </ns3:TrackPointExtension>
        </extensions>
      </trkpt>
      <trkpt lat="52.05817602574825286865234375" lon="1.26012585125863552093505859375">
        <ele>8.19999980926513671875</ele>
        <time>2025-09-05T12:18:08.000Z</time>
        <extensions>
          <ns3:TrackPointExtension>
            <ns3:hr>178</ns3:hr>
            <ns3:cad>80</ns3:cad>
          </ns3:TrackPointExtension>
        </extensions>
      </trkpt>
      <trkpt lat="52.0582348667085170745849609375" lon="1.2602533400058746337890625">
        <ele>8.3999996185302734375</ele>
        <time>2025-09-05T12:18:13.000Z</time>
        <extensions>
          <ns3:TrackPointExtension>
            <ns3:hr>177</ns3:hr>
            <ns3:cad>80</ns3:cad>
          </ns3:TrackPointExtension>
        </extensions>
      </trkpt>
      <trkpt lat="52.0582804642617702484130859375" lon="1.2603574432432651519775390625">
        <ele>9</ele>
        <time>2025-09-05T12:18:17.000Z</time>
        <extensions>
          <ns3:TrackPointExtension>
            <ns3:hr>177</ns3:hr>
            <ns3:cad>80</ns3:cad>
          </ns3:TrackPointExtension>
        </extensions>
      </trkpt>
      <trkpt lat="52.05834106542170047760009765625" lon="1.26047135330736637115478515625">
        <ele>9.3999996185302734375</ele>
        <time>2025-09-05T12:18:21.000Z</time>
        <extensions>
          <ns3:TrackPointExtension>
            <ns3:hr>177</ns3:hr>
            <ns3:cad>77</ns3:cad>
          </ns3:TrackPointExtension>
        </extensions>
      </trkpt>
      <trkpt lat="52.0584601722657680511474609375" lon="1.26064586453139781951904296875">
        <ele>9.19999980926513671875</ele>
        <time>2025-09-05T12:18:28.000Z</time>
        <extensions>
          <ns3:TrackPointExtension>
            <ns3:hr>178</ns3:hr>
            <ns3:cad>78</ns3:cad>
          </ns3:TrackPointExtension>
        </extensions>
      </trkpt>
      <trkpt lat="52.0585838891565799713134765625" lon="1.26081165857613086700439453125">
        <ele>8.3999996185302734375</ele>
        <time>2025-09-05T12:18:35.000Z</time>
        <extensions>
          <ns3:TrackPointExtension>
            <ns3:hr>176</ns3:hr>
            <ns3:cad>79</ns3:cad>
          </ns3:TrackPointExtension>
        </extensions>
      </trkpt>
      <trkpt lat="52.0587495155632495880126953125" lon="1.2610105611383914947509765625">
        <ele>8.19999980926513671875</ele>
        <time>2025-09-05T12:18:45.000Z</time>
        <extensions>
          <ns3:TrackPointExtension>
            <ns3:hr>175</ns3:hr>
            <ns3:cad>80</ns3:cad>
          </ns3:TrackPointExtension>
        </extensions>
      </trkpt>
      <trkpt lat="52.05880098044872283935546875" lon="1.26108306460082530975341796875">
        <ele>7.80000019073486328125</ele>
        <time>2025-09-05T12:18:48.000Z</time>
        <extensions>
          <ns3:TrackPointExtension>
            <ns3:hr>177</ns3:hr>
            <ns3:cad>80</ns3:cad>
          </ns3:TrackPointExtension>
        </extensions>
      </trkpt>
      <trkpt lat="52.05885336734354496002197265625" lon="1.26119269989430904388427734375">
        <ele>7.19999980926513671875</ele>
        <time>2025-09-05T12:18:52.000Z</time>
        <extensions>
          <ns3:TrackPointExtension>
            <ns3:hr>177</ns3:hr>
            <ns3:cad>81</ns3:cad>
          </ns3:TrackPointExtension>
        </extensions>
      </trkpt>
      <trkpt lat="52.05886401236057281494140625" lon="1.26121248118579387664794921875">
        <ele>6.599999904632568359375</ele>
        <time>2025-09-05T12:18:53.000Z</time>
        <extensions>
          <ns3:TrackPointExtension>
            <ns3:hr>177</ns3:hr>
            <ns3:cad>81</ns3:cad>
          </ns3:TrackPointExtension>
        </extensions>
      </trkpt>
      <trkpt lat="52.0589469932019710540771484375" lon="1.26134843565523624420166015625">
        <ele>5.400000095367431640625</ele>
        <time>2025-09-05T12:19:01.000Z</time>
        <extensions>
          <ns3:TrackPointExtension>
            <ns3:hr>175</ns3:hr>
            <ns3:cad>81</ns3:cad>
          </ns3:TrackPointExtension>
        </extensions>
      </trkpt>
      <trkpt lat="52.058988399803638458251953125" lon="1.2614216096699237823486328125">
        <ele>4.19999980926513671875</ele>
        <time>2025-09-05T12:19:05.000Z</time>
        <extensions>
          <ns3:TrackPointExtension>
            <ns3:hr>174</ns3:hr>
            <ns3:cad>81</ns3:cad>
          </ns3:TrackPointExtension>
        </extensions>
      </trkpt>
      <trkpt lat="52.05903642810881137847900390625" lon="1.261480785906314849853515625">
        <ele>4</ele>
        <time>2025-09-05T12:19:08.000Z</time>
        <extensions>
          <ns3:TrackPointExtension>
            <ns3:hr>178</ns3:hr>
            <ns3:cad>80</ns3:cad>
          </ns3:TrackPointExtension>
        </extensions>
      </trkpt>
      <trkpt lat="52.059048749506473541259765625" lon="1.2614960409700870513916015625">
        <ele>3.7999999523162841796875</ele>
        <time>2025-09-05T12:19:09.000Z</time>
        <extensions>
          <ns3:TrackPointExtension>
            <ns3:hr>177</ns3:hr>
            <ns3:cad>81</ns3:cad>
          </ns3:TrackPointExtension>
        </extensions>
      </trkpt>
      <trkpt lat="52.05908353440463542938232421875" lon="1.26153367571532726287841796875">
        <ele>3.2000000476837158203125</ele>
        <time>2025-09-05T12:19:11.000Z</time>
        <extensions>
          <ns3:TrackPointExtension>
            <ns3:hr>176</ns3:hr>
            <ns3:cad>80</ns3:cad>
          </ns3:TrackPointExtension>
        </extensions>
      </trkpt>
      <trkpt lat="52.059137262403964996337890625" lon="1.26164473593235015869140625">
        <ele>2</ele>
        <time>2025-09-05T12:19:15.000Z</time>
        <extensions>
          <ns3:TrackPointExtension>
            <ns3:hr>175</ns3:hr>
            <ns3:cad>81</ns3:cad>
          </ns3:TrackPointExtension>
        </extensions>
      </trkpt>
      <trkpt lat="52.0591731369495391845703125" lon="1.26172226853668689727783203125">
        <ele>1.39999997615814208984375</ele>
        <time>2025-09-05T12:19:18.000Z</time>
        <extensions>
          <ns3:TrackPointExtension>
            <ns3:hr>177</ns3:hr>
            <ns3:cad>41</ns3:cad>
          </ns3:TrackPointExtension>
        </extensions>
      </trkpt>
      <trkpt lat="52.0591917447745800018310546875" lon="1.2617417983710765838623046875">
        <ele>0.20000000298023223876953125</ele>
        <time>2025-09-05T12:19:20.000Z</time>
        <extensions>
          <ns3:TrackPointExtension>
            <ns3:hr>176</ns3:hr>
            <ns3:cad>0</ns3:cad>
          </ns3:TrackPointExtension>
        </extensions>
      </trkpt>
      <trkpt lat="52.05921538174152374267578125" lon="1.26175881363451480865478515625">
        <ele>-0.60000002384185791015625</ele>
        <time>2025-09-05T12:19:22.000Z</time>
        <extensions>
          <ns3:TrackPointExtension>
            <ns3:hr>177</ns3:hr>
            <ns3:cad>75</ns3:cad>
          </ns3:TrackPointExtension>
        </extensions>
      </trkpt>
      <trkpt lat="52.05924890935420989990234375" lon="1.2617795169353485107421875">
        <ele>-1.2000000476837158203125</ele>
        <time>2025-09-05T12:19:24.000Z</time>
        <extensions>
          <ns3:TrackPointExtension>
            <ns3:hr>176</ns3:hr>
            <ns3:cad>75</ns3:cad>
          </ns3:TrackPointExtension>
        </extensions>
      </trkpt>
      <trkpt lat="52.05929450690746307373046875" lon="1.26182922162115573883056640625">
        <ele>-2.2000000476837158203125</ele>
        <time>2025-09-05T12:19:26.000Z</time>
        <extensions>
          <ns3:TrackPointExtension>
            <ns3:hr>176</ns3:hr>
            <ns3:cad>78</ns3:cad>
          </ns3:TrackPointExtension>
        </extensions>
      </trkpt>
      <trkpt lat="52.05931705422699451446533203125" lon="1.26185369677841663360595703125">
        <ele>-2.7999999523162841796875</ele>
        <time>2025-09-05T12:19:27.000Z</time>
        <extensions>
          <ns3:TrackPointExtension>
            <ns3:hr>176</ns3:hr>
            <ns3:cad>80</ns3:cad>
          </ns3:TrackPointExtension>
        </extensions>
      </trkpt>
      <trkpt lat="52.05935812555253505706787109375" lon="1.26189954578876495361328125">
        <ele>-4</ele>
        <time>2025-09-05T12:19:29.000Z</time>
        <extensions>
          <ns3:TrackPointExtension>
            <ns3:hr>173</ns3:hr>
            <ns3:cad>80</ns3:cad>
          </ns3:TrackPointExtension>
        </extensions>
      </trkpt>
      <trkpt lat="52.0594002865254878997802734375" lon="1.26197062432765960693359375">
        <ele>-5.400000095367431640625</ele>
        <time>2025-09-05T12:19:32.000Z</time>
        <extensions>
          <ns3:TrackPointExtension>
            <ns3:hr>174</ns3:hr>
            <ns3:cad>80</ns3:cad>
          </ns3:TrackPointExtension>
        </extensions>
      </trkpt>
      <trkpt lat="52.05941881053149700164794921875" lon="1.26199878752231597900390625">
        <ele>-5.599999904632568359375</ele>
        <time>2025-09-05T12:19:33.000Z</time>
        <extensions>
          <ns3:TrackPointExtension>
            <ns3:hr>174</ns3:hr>
            <ns3:cad>80</ns3:cad>
          </ns3:TrackPointExtension>
        </extensions>
      </trkpt>
      <trkpt lat="52.05954931676387786865234375" lon="1.2621738016605377197265625">
        <ele>-5.599999904632568359375</ele>
        <time>2025-09-05T12:19:40.000Z</time>
        <extensions>
          <ns3:TrackPointExtension>
            <ns3:hr>176</ns3:hr>
            <ns3:cad>80</ns3:cad>
          </ns3:TrackPointExtension>
        </extensions>
      </trkpt>
      <trkpt lat="52.0595826767385005950927734375" lon="1.26221495680510997772216796875">
        <ele>-6.400000095367431640625</ele>
        <time>2025-09-05T12:19:42.000Z</time>
        <extensions>
          <ns3:TrackPointExtension>
            <ns3:hr>176</ns3:hr>
            <ns3:cad>80</ns3:cad>
          </ns3:TrackPointExtension>
        </extensions>
      </trkpt>
      <trkpt lat="52.05976213328540325164794921875" lon="1.26231336034834384918212890625">
        <ele>-7.19999980926513671875</ele>
        <time>2025-09-05T12:19:47.000Z</time>
        <extensions>
          <ns3:TrackPointExtension>
            <ns3:hr>175</ns3:hr>
            <ns3:cad>63</ns3:cad>
          </ns3:TrackPointExtension>
        </extensions>
      </trkpt>
      <trkpt lat="52.05978669226169586181640625" lon="1.26233062706887722015380859375">
        <ele>-7.19999980926513671875</ele>
        <time>2025-09-05T12:19:48.000Z</time>
        <extensions>
          <ns3:TrackPointExtension>
            <ns3:hr>175</ns3:hr>
            <ns3:cad>63</ns3:cad>
          </ns3:TrackPointExtension>
        </extensions>
      </trkpt>
      <trkpt lat="52.05986305139958858489990234375" lon="1.262406818568706512451171875">
        <ele>-7.400000095367431640625</ele>
        <time>2025-09-05T12:19:52.000Z</time>
        <extensions>
          <ns3:TrackPointExtension>
            <ns3:hr>174</ns3:hr>
            <ns3:cad>58</ns3:cad>
          </ns3:TrackPointExtension>
        </extensions>
      </trkpt>
      <trkpt lat="52.059920132160186767578125" lon="1.26244395039975643157958984375">
        <ele>-8.3999996185302734375</ele>
        <time>2025-09-05T12:19:55.000Z</time>
        <extensions>
          <ns3:TrackPointExtension>
            <ns3:hr>171</ns3:hr>
            <ns3:cad>56</ns3:cad>
          </ns3:TrackPointExtension>
        </extensions>
      </trkpt>
      <trkpt lat="52.05992843024432659149169921875" lon="1.26245484687387943267822265625">
        <ele>-8.6000003814697265625</ele>
        <time>2025-09-05T12:19:56.000Z</time>
        <extensions>
          <ns3:TrackPointExtension>
            <ns3:hr>172</ns3:hr>
            <ns3:cad>56</ns3:cad>
          </ns3:TrackPointExtension>
        </extensions>
      </trkpt>
      <trkpt lat="52.05995307303965091705322265625" lon="1.2624814175069332122802734375">
        <ele>-9.3999996185302734375</ele>
        <time>2025-09-05T12:19:58.000Z</time>
        <extensions>
          <ns3:TrackPointExtension>
            <ns3:hr>171</ns3:hr>
            <ns3:cad>55</ns3:cad>
          </ns3:TrackPointExtension>
        </extensions>
      </trkpt>
      <trkpt lat="52.0599628798663616180419921875" lon="1.26249742694199085235595703125">
        <ele>-10</ele>
        <time>2025-09-05T12:19:59.000Z</time>
        <extensions>
          <ns3:TrackPointExtension>
            <ns3:hr>170</ns3:hr>
            <ns3:cad>55</ns3:cad>
          </ns3:TrackPointExtension>
        </extensions>
      </trkpt>
      <trkpt lat="52.0599777996540069580078125" lon="1.2625058926641941070556640625">
        <ele>-11.19999980926513671875</ele>
        <time>2025-09-05T12:20:00.000Z</time>
        <extensions>
          <ns3:TrackPointExtension>
            <ns3:hr>170</ns3:hr>
            <ns3:cad>56</ns3:cad>
          </ns3:TrackPointExtension>
        </extensions>
      </trkpt>
      <trkpt lat="52.05999028868973255157470703125" lon="1.2625144422054290771484375">
        <ele>-13.19999980926513671875</ele>
        <time>2025-09-05T12:20:01.000Z</time>
        <extensions>
          <ns3:TrackPointExtension>
            <ns3:hr>169</ns3:hr>
            <ns3:cad>56</ns3:cad>
          </ns3:TrackPointExtension>
        </extensions>
      </trkpt>
      <trkpt lat="52.06001057289540767669677734375" lon="1.26253481023013591766357421875">
        <ele>-14.6000003814697265625</ele>
        <time>2025-09-05T12:20:03.000Z</time>
        <extensions>
          <ns3:TrackPointExtension>
            <ns3:hr>168</ns3:hr>
            <ns3:cad>56</ns3:cad>
          </ns3:TrackPointExtension>
        </extensions>
      </trkpt>
      <trkpt lat="52.0600255765020847320556640625" lon="1.2625592015683650970458984375">
        <ele>-16.200000762939453125</ele>
        <time>2025-09-05T12:20:05.000Z</time>
        <extensions>
          <ns3:TrackPointExtension>
            <ns3:hr>167</ns3:hr>
            <ns3:cad>56</ns3:cad>
          </ns3:TrackPointExtension>
        </extensions>
      </trkpt>
      <trkpt lat="52.06004058010876178741455078125" lon="1.26258376054465770721435546875">
        <ele>-17.799999237060546875</ele>
        <time>2025-09-05T12:20:07.000Z</time>
        <extensions>
          <ns3:TrackPointExtension>
            <ns3:hr>167</ns3:hr>
            <ns3:cad>57</ns3:cad>
          </ns3:TrackPointExtension>
        </extensions>
      </trkpt>
      <trkpt lat="52.06005231477320194244384765625" lon="1.2626058049499988555908203125">
        <ele>-18.799999237060546875</ele>
        <time>2025-09-05T12:20:09.000Z</time>
        <extensions>
          <ns3:TrackPointExtension>
            <ns3:hr>166</ns3:hr>
            <ns3:cad>57</ns3:cad>
          </ns3:TrackPointExtension>
        </extensions>
      </trkpt>
      <trkpt lat="52.0600594393908977508544921875" lon="1.2626128457486629486083984375">
        <ele>-20</ele>
        <time>2025-09-05T12:20:10.000Z</time>
        <extensions>
          <ns3:TrackPointExtension>
            <ns3:hr>165</ns3:hr>
            <ns3:cad>57</ns3:cad>
          </ns3:TrackPointExtension>
        </extensions>
      </trkpt>
      <trkpt lat="52.06006136722862720489501953125" lon="1.26262265257537364959716796875">
        <ele>-21.6000003814697265625</ele>
        <time>2025-09-05T12:20:11.000Z</time>
        <extensions>
          <ns3:TrackPointExtension>
            <ns3:hr>165</ns3:hr>
            <ns3:cad>58</ns3:cad>
          </ns3:TrackPointExtension>
        </extensions>
      </trkpt>
      <trkpt lat="52.06006170250475406646728515625" lon="1.262632794678211212158203125">
        <ele>-23</ele>
        <time>2025-09-05T12:20:12.000Z</time>
        <extensions>
          <ns3:TrackPointExtension>
            <ns3:hr>164</ns3:hr>
            <ns3:cad>58</ns3:cad>
          </ns3:TrackPointExtension>
        </extensions>
      </trkpt>
      <trkpt lat="52.06006371416151523590087890625" lon="1.26264385879039764404296875">
        <ele>-24.200000762939453125</ele>
        <time>2025-09-05T12:20:13.000Z</time>
        <extensions>
          <ns3:TrackPointExtension>
            <ns3:hr>164</ns3:hr>
            <ns3:cad>58</ns3:cad>
          </ns3:TrackPointExtension>
        </extensions>
      </trkpt>
      <trkpt lat="52.0600681565701961517333984375" lon="1.26265500672161579132080078125">
        <ele>-25.200000762939453125</ele>
        <time>2025-09-05T12:20:14.000Z</time>
        <extensions>
          <ns3:TrackPointExtension>
            <ns3:hr>163</ns3:hr>
            <ns3:cad>58</ns3:cad>
          </ns3:TrackPointExtension>
        </extensions>
      </trkpt>
      <trkpt lat="52.0600745268166065216064453125" lon="1.2626628018915653228759765625">
        <ele>-26.6000003814697265625</ele>
        <time>2025-09-05T12:20:15.000Z</time>
        <extensions>
          <ns3:TrackPointExtension>
            <ns3:hr>163</ns3:hr>
            <ns3:cad>58</ns3:cad>
          </ns3:TrackPointExtension>
        </extensions>
      </trkpt>
      <trkpt lat="52.0600802265107631683349609375" lon="1.26267428509891033172607421875">
        <ele>-27.799999237060546875</ele>
        <time>2025-09-05T12:20:16.000Z</time>
        <extensions>
          <ns3:TrackPointExtension>
            <ns3:hr>162</ns3:hr>
            <ns3:cad>57</ns3:cad>
          </ns3:TrackPointExtension>
        </extensions>
      </trkpt>
      <trkpt lat="52.0600933022797107696533203125" lon="1.26269121654331684112548828125">
        <ele>-29</ele>
        <time>2025-09-05T12:20:18.000Z</time>
        <extensions>
          <ns3:TrackPointExtension>
            <ns3:hr>161</ns3:hr>
            <ns3:cad>57</ns3:cad>
          </ns3:TrackPointExtension>
        </extensions>
      </trkpt>
      <trkpt lat="52.06011685542762279510498046875" lon="1.26271803863346576690673828125">
        <ele>-30.6000003814697265625</ele>
        <time>2025-09-05T12:20:21.000Z</time>
        <extensions>
          <ns3:TrackPointExtension>
            <ns3:hr>159</ns3:hr>
            <ns3:cad>58</ns3:cad>
          </ns3:TrackPointExtension>
        </extensions>
      </trkpt>
      <trkpt lat="52.06013931892812252044677734375" lon="1.26275324262678623199462890625">
        <ele>-32.200000762939453125</ele>
        <time>2025-09-05T12:20:23.000Z</time>
        <extensions>
          <ns3:TrackPointExtension>
            <ns3:hr>158</ns3:hr>
            <ns3:cad>58</ns3:cad>
          </ns3:TrackPointExtension>
        </extensions>
      </trkpt>
      <trkpt lat="52.06016027368605136871337890625" lon="1.26278626732528209686279296875">
        <ele>-33.40000152587890625</ele>
        <time>2025-09-05T12:20:25.000Z</time>
        <extensions>
          <ns3:TrackPointExtension>
            <ns3:hr>157</ns3:hr>
            <ns3:cad>59</ns3:cad>
          </ns3:TrackPointExtension>
        </extensions>
      </trkpt>
      <trkpt lat="52.06017502583563327789306640625" lon="1.26281761564314365386962890625">
        <ele>-33.59999847412109375</ele>
        <time>2025-09-05T12:20:27.000Z</time>
        <extensions>
          <ns3:TrackPointExtension>
            <ns3:hr>156</ns3:hr>
            <ns3:cad>61</ns3:cad>
          </ns3:TrackPointExtension>
        </extensions>
      </trkpt>
      <trkpt lat="52.06023755483329296112060546875" lon="1.26292658038437366485595703125">
        <ele>-34.40000152587890625</ele>
        <time>2025-09-05T12:20:33.000Z</time>
        <extensions>
          <ns3:TrackPointExtension>
            <ns3:hr>157</ns3:hr>
            <ns3:cad>60</ns3:cad>
          </ns3:TrackPointExtension>
        </extensions>
      </trkpt>
      <trkpt lat="52.06031450070440769195556640625" lon="1.26299397088587284088134765625">
        <ele>-34.59999847412109375</ele>
        <time>2025-09-05T12:20:36.000Z</time>
        <extensions>
          <ns3:TrackPointExtension>
            <ns3:hr>155</ns3:hr>
            <ns3:cad>60</ns3:cad>
          </ns3:TrackPointExtension>
        </extensions>
      </trkpt>
      <trkpt lat="52.060367055237293243408203125" lon="1.26308918930590152740478515625">
        <ele>-35.59999847412109375</ele>
        <time>2025-09-05T12:20:41.000Z</time>
        <extensions>
          <ns3:TrackPointExtension>
            <ns3:hr>153</ns3:hr>
            <ns3:cad>60</ns3:cad>
          </ns3:TrackPointExtension>
        </extensions>
      </trkpt>
      <trkpt lat="52.0603846572339534759521484375" lon="1.26311953179538249969482421875">
        <ele>-35.799999237060546875</ele>
        <time>2025-09-05T12:20:43.000Z</time>
        <extensions>
          <ns3:TrackPointExtension>
            <ns3:hr>151</ns3:hr>
            <ns3:cad>61</ns3:cad>
          </ns3:TrackPointExtension>
        </extensions>
      </trkpt>
      <trkpt lat="52.0604047738015651702880859375" lon="1.2631479464471340179443359375">
        <ele>-37.200000762939453125</ele>
        <time>2025-09-05T12:20:45.000Z</time>
        <extensions>
          <ns3:TrackPointExtension>
            <ns3:hr>149</ns3:hr>
            <ns3:cad>61</ns3:cad>
          </ns3:TrackPointExtension>
        </extensions>
      </trkpt>
      <trkpt lat="52.0604818873107433319091796875" lon="1.26317233778536319732666015625">
        <ele>-38.40000152587890625</ele>
        <time>2025-09-05T12:20:47.000Z</time>
        <extensions>
          <ns3:TrackPointExtension>
            <ns3:hr>147</ns3:hr>
            <ns3:cad>61</ns3:cad>
          </ns3:TrackPointExtension>
        </extensions>
      </trkpt>
      <trkpt lat="52.06058389507234096527099609375" lon="1.263236291706562042236328125">
        <ele>-39.40000152587890625</ele>
        <time>2025-09-05T12:20:52.000Z</time>
        <extensions>
          <ns3:TrackPointExtension>
            <ns3:hr>144</ns3:hr>
            <ns3:cad>59</ns3:cad>
          </ns3:TrackPointExtension>
        </extensions>
      </trkpt>
      <trkpt lat="52.06059378571808338165283203125" lon="1.2632528878748416900634765625">
        <ele>-39.59999847412109375</ele>
        <time>2025-09-05T12:20:53.000Z</time>
        <extensions>
          <ns3:TrackPointExtension>
            <ns3:hr>144</ns3:hr>
            <ns3:cad>57</ns3:cad>
          </ns3:TrackPointExtension>
        </extensions>
      </trkpt>
      <trkpt lat="52.06062496639788150787353515625" lon="1.263283900916576385498046875">
        <ele>-40</ele>
        <time>2025-09-05T12:20:57.000Z</time>
        <extensions>
          <ns3:TrackPointExtension>
            <ns3:hr>141</ns3:hr>
            <ns3:cad>0</ns3:cad>
          </ns3:TrackPointExtension>
        </extensions>
      </trkpt>
      <trkpt lat="52.06063418649137020111083984375" lon="1.26329655759036540985107421875">
        <ele>-40.40000152587890625</ele>
        <time>2025-09-05T12:20:59.000Z</time>
        <extensions>
          <ns3:TrackPointExtension>
            <ns3:hr>140</ns3:hr>
            <ns3:cad>0</ns3:cad>
          </ns3:TrackPointExtension>
        </extensions>
      </trkpt>
      <trkpt lat="52.06066922284662723541259765625" lon="1.26329454593360424041748046875">
        <ele>-40.59999847412109375</ele>
        <time>2025-09-05T12:21:02.000Z</time>
        <extensions>
          <ns3:TrackPointExtension>
            <ns3:hr>141</ns3:hr>
            <ns3:cad>0</ns3:cad>
          </ns3:TrackPointExtension>
        </extensions>
      </trkpt>
      <trkpt lat="52.06068196333944797515869140625" lon="1.26330695115029811859130859375">
        <ele>-42.40000152587890625</ele>
        <time>2025-09-05T12:21:05.000Z</time>
        <extensions>
          <ns3:TrackPointExtension>
            <ns3:hr>142</ns3:hr>
            <ns3:cad>0</ns3:cad>
          </ns3:TrackPointExtension>
        </extensions>
      </trkpt>
      <trkpt lat="52.06068498082458972930908203125" lon="1.26330946572124958038330078125">
        <ele>-43.799999237060546875</ele>
        <time>2025-09-05T12:21:06.000Z</time>
        <extensions>
          <ns3:TrackPointExtension>
            <ns3:hr>143</ns3:hr>
            <ns3:cad>0</ns3:cad>
          </ns3:TrackPointExtension>
        </extensions>
      </trkpt>
      <trkpt lat="52.0606890879571437835693359375" lon="1.2633095495402812957763671875">
        <ele>-45.59999847412109375</ele>
        <time>2025-09-05T12:21:07.000Z</time>
        <extensions>
          <ns3:TrackPointExtension>
            <ns3:hr>143</ns3:hr>
            <ns3:cad>0</ns3:cad>
          </ns3:TrackPointExtension>
        </extensions>
      </trkpt>
      <trkpt lat="52.060697972774505615234375" lon="1.26331114210188388824462890625">
        <ele>-47.40000152587890625</ele>
        <time>2025-09-05T12:21:08.000Z</time>
        <extensions>
          <ns3:TrackPointExtension>
            <ns3:hr>143</ns3:hr>
            <ns3:cad>0</ns3:cad>
          </ns3:TrackPointExtension>
        </extensions>
      </trkpt>
      <trkpt lat="52.06070258282124996185302734375" lon="1.2633149139583110809326171875">
        <ele>-48.59999847412109375</ele>
        <time>2025-09-05T12:21:09.000Z</time>
        <extensions>
          <ns3:TrackPointExtension>
            <ns3:hr>143</ns3:hr>
            <ns3:cad>0</ns3:cad>
          </ns3:TrackPointExtension>
        </extensions>
      </trkpt>
      <trkpt lat="52.060707025229930877685546875" lon="1.26331700943410396575927734375">
        <ele>-50.40000152587890625</ele>
        <time>2025-09-05T12:21:10.000Z</time>
        <extensions>
          <ns3:TrackPointExtension>
            <ns3:hr>143</ns3:hr>
            <ns3:cad>0</ns3:cad>
          </ns3:TrackPointExtension>
        </extensions>
      </trkpt>
      <trkpt lat="52.06071875989437103271484375" lon="1.2633045203983783721923828125">
        <ele>-51.59999847412109375</ele>
        <time>2025-09-05T12:21:12.000Z</time>
        <extensions>
          <ns3:TrackPointExtension>
            <ns3:hr>143</ns3:hr>
            <ns3:cad>0</ns3:cad>
          </ns3:TrackPointExtension>
        </extensions>
      </trkpt>
      <trkpt lat="52.06072010099887847900390625" lon="1.26330041326582431793212890625">
        <ele>-51.799999237060546875</ele>
        <time>2025-09-05T12:21:13.000Z</time>
        <extensions>
          <ns3:TrackPointExtension>
            <ns3:hr>143</ns3:hr>
            <ns3:cad>0</ns3:cad>
          </ns3:TrackPointExtension>
        </extensions>
      </trkpt>
      <trkpt lat="52.06072169356048107147216796875" lon="1.26320754177868366241455078125">
        <ele>-52</ele>
        <time>2025-09-05T12:21:19.000Z</time>
        <extensions>
          <ns3:TrackPointExtension>
            <ns3:hr>141</ns3:hr>
            <ns3:cad>53</ns3:cad>
          </ns3:TrackPointExtension>
        </extensions>
      </trkpt>
      <trkpt lat="52.060721777379512786865234375" lon="1.26317971386015415191650390625">
        <ele>-49</ele>
        <time>2025-09-05T12:21:22.000Z</time>
        <extensions>
          <ns3:TrackPointExtension>
            <ns3:hr>142</ns3:hr>
            <ns3:cad>0</ns3:cad>
          </ns3:TrackPointExtension>
        </extensions>
      </trkpt>
      <trkpt lat="52.06072186119854450225830078125" lon="1.26317082904279232025146484375">
        <ele>-47.59999847412109375</ele>
        <time>2025-09-05T12:21:23.000Z</time>
        <extensions>
          <ns3:TrackPointExtension>
            <ns3:hr>143</ns3:hr>
            <ns3:cad>0</ns3:cad>
          </ns3:TrackPointExtension>
        </extensions>
      </trkpt>
      <trkpt lat="52.0607236213982105255126953125" lon="1.2631687335669994354248046875">
        <ele>-46.799999237060546875</ele>
        <time>2025-09-05T12:21:24.000Z</time>
        <extensions>
          <ns3:TrackPointExtension>
            <ns3:hr>140</ns3:hr>
            <ns3:cad>0</ns3:cad>
          </ns3:TrackPointExtension>
        </extensions>
      </trkpt>
      <trkpt lat="52.060725130140781402587890625" lon="1.26315926201641559600830078125">
        <ele>-46.40000152587890625</ele>
        <time>2025-09-05T12:21:25.000Z</time>
        <extensions>
          <ns3:TrackPointExtension>
            <ns3:hr>141</ns3:hr>
            <ns3:cad>0</ns3:cad>
          </ns3:TrackPointExtension>
        </extensions>
      </trkpt>
      <trkpt lat="52.06072454340755939483642578125" lon="1.2631546519696712493896484375">
        <ele>-46</ele>
        <time>2025-09-05T12:21:26.000Z</time>
        <extensions>
          <ns3:TrackPointExtension>
            <ns3:hr>140</ns3:hr>
            <ns3:cad>0</ns3:cad>
          </ns3:TrackPointExtension>
        </extensions>
      </trkpt>
      <trkpt lat="52.06072554923593997955322265625" lon="1.263140738010406494140625">
        <ele>-45.40000152587890625</ele>
        <time>2025-09-05T12:21:30.000Z</time>
        <extensions>
          <ns3:TrackPointExtension>
            <ns3:hr>136</ns3:hr>
            <ns3:cad>0</ns3:cad>
          </ns3:TrackPointExtension>
        </extensions>
      </trkpt>
      <trkpt lat="52.06072286702692508697509765625" lon="1.26314065419137477874755859375">
        <ele>-45.40000152587890625</ele>
        <time>2025-09-05T12:21:31.000Z</time>
        <extensions>
          <ns3:TrackPointExtension>
            <ns3:hr>137</ns3:hr>
            <ns3:cad>0</ns3:cad>
          </ns3:TrackPointExtension>
        </extensions>
      </trkpt>
      <trkpt lat="52.06071666441857814788818359375" lon="1.26316378824412822723388671875">
        <ele>-43.200000762939453125</ele>
        <time>2025-09-05T12:21:34.000Z</time>
        <extensions>
          <ns3:TrackPointExtension>
            <ns3:hr>137</ns3:hr>
            <ns3:cad>0</ns3:cad>
          </ns3:TrackPointExtension>
        </extensions>
      </trkpt>
      <trkpt lat="52.06071666441857814788818359375" lon="1.26316378824412822723388671875">
        <ele>-42.200000762939453125</ele>
        <time>2025-09-05T12:21:35.000Z</time>
        <extensions>
          <ns3:TrackPointExtension>
            <ns3:hr>137</ns3:hr>
            <ns3:cad>0</ns3:cad>
          </ns3:TrackPointExtension>
        </extensions>
      </trkpt>
      <trkpt lat="52.0607172511518001556396484375" lon="1.26316647045314311981201171875">
        <ele>-41.799999237060546875</ele>
        <time>2025-09-05T12:21:36.000Z</time>
        <extensions>
          <ns3:TrackPointExtension>
            <ns3:hr>138</ns3:hr>
            <ns3:cad>0</ns3:cad>
          </ns3:TrackPointExtension>
        </extensions>
      </trkpt>
      <trkpt lat="52.06073979847133159637451171875" lon="1.2631581723690032958984375">
        <ele>-41.40000152587890625</ele>
        <time>2025-09-05T12:21:43.000Z</time>
        <extensions>
          <ns3:TrackPointExtension>
            <ns3:hr>136</ns3:hr>
            <ns3:cad>0</ns3:cad>
          </ns3:TrackPointExtension>
        </extensions>
      </trkpt>
      <trkpt lat="52.0607390441000461578369140625" lon="1.26316160894930362701416015625">
        <ele>-41.799999237060546875</ele>
        <time>2025-09-05T12:21:44.000Z</time>
        <extensions>
          <ns3:TrackPointExtension>
            <ns3:hr>133</ns3:hr>
            <ns3:cad>0</ns3:cad>
          </ns3:TrackPointExtension>
        </extensions>
      </trkpt>
      <trkpt lat="52.06074155867099761962890625" lon="1.2631647102534770965576171875">
        <ele>-45.200000762939453125</ele>
        <time>2025-09-05T12:21:45.000Z</time>
        <extensions>
          <ns3:TrackPointExtension>
            <ns3:hr>132</ns3:hr>
            <ns3:cad>0</ns3:cad>
          </ns3:TrackPointExtension>
        </extensions>
      </trkpt>
      <trkpt lat="52.060740888118743896484375" lon="1.263167224824428558349609375">
        <ele>-47</ele>
        <time>2025-09-05T12:21:46.000Z</time>
        <extensions>
          <ns3:TrackPointExtension>
            <ns3:hr>134</ns3:hr>
            <ns3:cad>0</ns3:cad>
          </ns3:TrackPointExtension>
        </extensions>
      </trkpt>
      <trkpt lat="52.06073929555714130401611328125" lon="1.26316362060606479644775390625">
        <ele>-49.59999847412109375</ele>
        <time>2025-09-05T12:21:47.000Z</time>
        <extensions>
          <ns3:TrackPointExtension>
            <ns3:hr>132</ns3:hr>
            <ns3:cad>0</ns3:cad>
          </ns3:TrackPointExtension>
        </extensions>
      </trkpt>
      <trkpt lat="52.06073510460555553436279296875" lon="1.26315926201641559600830078125">
        <ele>-51.200000762939453125</ele>
        <time>2025-09-05T12:21:48.000Z</time>
        <extensions>
          <ns3:TrackPointExtension>
            <ns3:hr>133</ns3:hr>
            <ns3:cad>0</ns3:cad>
          </ns3:TrackPointExtension>
        </extensions>
      </trkpt>
      <trkpt lat="52.06072856672108173370361328125" lon="1.26313646323978900909423828125">
        <ele>-52.59999847412109375</ele>
        <time>2025-09-05T12:21:50.000Z</time>
        <extensions>
          <ns3:TrackPointExtension>
            <ns3:hr>131</ns3:hr>
            <ns3:cad>0</ns3:cad>
          </ns3:TrackPointExtension>
        </extensions>
      </trkpt>
      <trkpt lat="52.060720436275005340576171875" lon="1.2631429173052310943603515625">
        <ele>-54</ele>
        <time>2025-09-05T12:21:52.000Z</time>
        <extensions>
          <ns3:TrackPointExtension>
            <ns3:hr>132</ns3:hr>
            <ns3:cad>0</ns3:cad>
          </ns3:TrackPointExtension>
        </extensions>
      </trkpt>
      <trkpt lat="52.06069688312709331512451171875" lon="1.26318926922976970672607421875">
        <ele>-55</ele>
        <time>2025-09-05T12:21:57.000Z</time>
        <extensions>
          <ns3:TrackPointExtension>
            <ns3:hr>130</ns3:hr>
            <ns3:cad>0</ns3:cad>
          </ns3:TrackPointExtension>
        </extensions>
      </trkpt>
      <trkpt lat="52.06068766303360462188720703125" lon="1.26319698058068752288818359375">
        <ele>-55.40000152587890625</ele>
        <time>2025-09-05T12:22:02.000Z</time>
        <extensions>
          <ns3:TrackPointExtension>
            <ns3:hr>128</ns3:hr>
            <ns3:cad>0</ns3:cad>
          </ns3:TrackPointExtension>
        </extensions>
      </trkpt>
      <trkpt lat="52.06070241518318653106689453125" lon="1.26318340189754962921142578125">
        <ele>-56.200000762939453125</ele>
        <time>2025-09-05T12:22:06.000Z</time>
        <extensions>
          <ns3:TrackPointExtension>
            <ns3:hr>126</ns3:hr>
            <ns3:cad>0</ns3:cad>
          </ns3:TrackPointExtension>
        </extensions>
      </trkpt>
      <trkpt lat="52.060714066028594970703125" lon="1.26317451708018779754638671875">
        <ele>-57.59999847412109375</ele>
        <time>2025-09-05T12:22:10.000Z</time>
        <extensions>
          <ns3:TrackPointExtension>
            <ns3:hr>125</ns3:hr>
            <ns3:cad>0</ns3:cad>
          </ns3:TrackPointExtension>
        </extensions>
      </trkpt>
      <trkpt lat="52.060711719095706939697265625" lon="1.2631633691489696502685546875">
        <ele>-60.200000762939453125</ele>
        <time>2025-09-05T12:22:11.000Z</time>
        <extensions>
          <ns3:TrackPointExtension>
            <ns3:hr>124</ns3:hr>
            <ns3:cad>0</ns3:cad>
          </ns3:TrackPointExtension>
        </extensions>
      </trkpt>
      <trkpt lat="52.060703337192535400390625" lon="1.2631489522755146026611328125">
        <ele>-61.799999237060546875</ele>
        <time>2025-09-05T12:22:12.000Z</time>
        <extensions>
          <ns3:TrackPointExtension>
            <ns3:hr>124</ns3:hr>
            <ns3:cad>0</ns3:cad>
          </ns3:TrackPointExtension>
        </extensions>
      </trkpt>
      <trkpt lat="52.06069193780422210693359375" lon="1.26312875188887119293212890625">
        <ele>-62.59999847412109375</ele>
        <time>2025-09-05T12:22:13.000Z</time>
        <extensions>
          <ns3:TrackPointExtension>
            <ns3:hr>124</ns3:hr>
            <ns3:cad>0</ns3:cad>
          </ns3:TrackPointExtension>
        </extensions>
      </trkpt>
      <trkpt lat="52.06069017760455608367919921875" lon="1.2631073780357837677001953125">
        <ele>-63.799999237060546875</ele>
        <time>2025-09-05T12:22:14.000Z</time>
        <extensions>
          <ns3:TrackPointExtension>
            <ns3:hr>123</ns3:hr>
            <ns3:cad>0</ns3:cad>
          </ns3:TrackPointExtension>
        </extensions>
      </trkpt>
      <trkpt lat="52.0607051812112331390380859375" lon="1.263093464076519012451171875">
        <ele>-64.8000030517578125</ele>
        <time>2025-09-05T12:22:17.000Z</time>
        <extensions>
          <ns3:TrackPointExtension>
            <ns3:hr>122</ns3:hr>
            <ns3:cad>0</ns3:cad>
          </ns3:TrackPointExtension>
        </extensions>
      </trkpt>
      <trkpt lat="52.06072035245597362518310546875" lon="1.263114921748638153076171875">
        <ele>-65</ele>
        <time>2025-09-05T12:22:18.000Z</time>
        <extensions>
          <ns3:TrackPointExtension>
            <ns3:hr>122</ns3:hr>
            <ns3:cad>0</ns3:cad>
          </ns3:TrackPointExtension>
        </extensions>
      </trkpt>
      <trkpt lat="52.06075496971607208251953125" lon="1.263170577585697174072265625">
        <ele>-65</ele>
        <time>2025-09-05T12:22:24.000Z</time>
        <extensions>
          <ns3:TrackPointExtension>
            <ns3:hr>125</ns3:hr>
            <ns3:cad>60</ns3:cad>
          </ns3:TrackPointExtension>
        </extensions>
      </trkpt>
      <trkpt lat="52.06077617593109607696533203125" lon="1.26319639384746551513671875">
        <ele>-64.8000030517578125</ele>
        <time>2025-09-05T12:22:26.000Z</time>
        <extensions>
          <ns3:TrackPointExtension>
            <ns3:hr>128</ns3:hr>
            <ns3:cad>59</ns3:cad>
          </ns3:TrackPointExtension>
        </extensions>
      </trkpt>
      <trkpt lat="52.06085597164928913116455078125" lon="1.2632252275943756103515625">
        <ele>-64.8000030517578125</ele>
        <time>2025-09-05T12:22:32.000Z</time>
        <extensions>
          <ns3:TrackPointExtension>
            <ns3:hr>131</ns3:hr>
            <ns3:cad>61</ns3:cad>
          </ns3:TrackPointExtension>
        </extensions>
      </trkpt>
      <trkpt lat="52.060868628323078155517578125" lon="1.26322296448051929473876953125">
        <ele>-64.8000030517578125</ele>
        <time>2025-09-05T12:22:33.000Z</time>
        <extensions>
          <ns3:TrackPointExtension>
            <ns3:hr>131</ns3:hr>
            <ns3:cad>60</ns3:cad>
          </ns3:TrackPointExtension>
        </extensions>
      </trkpt>
      <trkpt lat="52.06088547594845294952392578125" lon="1.2632233835756778717041015625">
        <ele>-66.1999969482421875</ele>
        <time>2025-09-05T12:22:35.000Z</time>
        <extensions>
          <ns3:TrackPointExtension>
            <ns3:hr>131</ns3:hr>
            <ns3:cad>60</ns3:cad>
          </ns3:TrackPointExtension>
        </extensions>
      </trkpt>
      <trkpt lat="52.060941718518733978271484375" lon="1.26319161616265773773193359375">
        <ele>-67</ele>
        <time>2025-09-05T12:22:38.000Z</time>
        <extensions>
          <ns3:TrackPointExtension>
            <ns3:hr>134</ns3:hr>
            <ns3:cad>118</ns3:cad>
          </ns3:TrackPointExtension>
        </extensions>
      </trkpt>
      <trkpt lat="52.06097667105495929718017578125" lon="1.26319329254329204559326171875">
        <ele>-67</ele>
        <time>2025-09-05T12:22:40.000Z</time>
        <extensions>
          <ns3:TrackPointExtension>
            <ns3:hr>136</ns3:hr>
            <ns3:cad>80</ns3:cad>
          </ns3:TrackPointExtension>
        </extensions>
      </trkpt>
      <trkpt lat="52.061130814254283905029296875" lon="1.2631955556571483612060546875">
        <ele>-65.8000030517578125</ele>
        <time>2025-09-05T12:22:46.000Z</time>
        <extensions>
          <ns3:TrackPointExtension>
            <ns3:hr>133</ns3:hr>
            <ns3:cad>79</ns3:cad>
          </ns3:TrackPointExtension>
        </extensions>
      </trkpt>
      <trkpt lat="52.061148583889007568359375" lon="1.26320301555097103118896484375">
        <ele>-63.200000762939453125</ele>
        <time>2025-09-05T12:22:47.000Z</time>
        <extensions>
          <ns3:TrackPointExtension>
            <ns3:hr>131</ns3:hr>
            <ns3:cad>79</ns3:cad>
          </ns3:TrackPointExtension>
        </extensions>
      </trkpt>
      <trkpt lat="52.0611767470836639404296875" lon="1.26320385374128818511962890625">
        <ele>-61.799999237060546875</ele>
        <time>2025-09-05T12:22:48.000Z</time>
        <extensions>
          <ns3:TrackPointExtension>
            <ns3:hr>136</ns3:hr>
            <ns3:cad>73</ns3:cad>
          </ns3:TrackPointExtension>
        </extensions>
      </trkpt>
      <trkpt lat="52.06119485199451446533203125" lon="1.2632129900157451629638671875">
        <ele>-59.799999237060546875</ele>
        <time>2025-09-05T12:22:49.000Z</time>
        <extensions>
          <ns3:TrackPointExtension>
            <ns3:hr>137</ns3:hr>
            <ns3:cad>73</ns3:cad>
          </ns3:TrackPointExtension>
        </extensions>
      </trkpt>
      <trkpt lat="52.06121035851538181304931640625" lon="1.2632183544337749481201171875">
        <ele>-58.40000152587890625</ele>
        <time>2025-09-05T12:22:51.000Z</time>
        <extensions>
          <ns3:TrackPointExtension>
            <ns3:hr>141</ns3:hr>
            <ns3:cad>67</ns3:cad>
          </ns3:TrackPointExtension>
        </extensions>
      </trkpt>
      <trkpt lat="52.061222679913043975830078125" lon="1.26323738135397434234619140625">
        <ele>-58</ele>
        <time>2025-09-05T12:22:52.000Z</time>
        <extensions>
          <ns3:TrackPointExtension>
            <ns3:hr>144</ns3:hr>
            <ns3:cad>0</ns3:cad>
          </ns3:TrackPointExtension>
        </extensions>
      </trkpt>
      <trkpt lat="52.0612587220966815948486328125" lon="1.2633129023015499114990234375">
        <ele>-57.59999847412109375</ele>
        <time>2025-09-05T12:22:55.000Z</time>
        <extensions>
          <ns3:TrackPointExtension>
            <ns3:hr>148</ns3:hr>
            <ns3:cad>0</ns3:cad>
          </ns3:TrackPointExtension>
        </extensions>
      </trkpt>
      <trkpt lat="52.0612878911197185516357421875" lon="1.2634191848337650299072265625">
        <ele>-57.799999237060546875</ele>
        <time>2025-09-05T12:22:59.000Z</time>
        <extensions>
          <ns3:TrackPointExtension>
            <ns3:hr>149</ns3:hr>
            <ns3:cad>58</ns3:cad>
          </ns3:TrackPointExtension>
        </extensions>
      </trkpt>
      <trkpt lat="52.06129635684192180633544921875" lon="1.26350744627416133880615234375">
        <ele>-59.59999847412109375</ele>
        <time>2025-09-05T12:23:03.000Z</time>
        <extensions>
          <ns3:TrackPointExtension>
            <ns3:hr>150</ns3:hr>
            <ns3:cad>56</ns3:cad>
          </ns3:TrackPointExtension>
        </extensions>
      </trkpt>
      <trkpt lat="52.0612962730228900909423828125" lon="1.2635767646133899688720703125">
        <ele>-60.799999237060546875</ele>
        <time>2025-09-05T12:23:06.000Z</time>
        <extensions>
          <ns3:TrackPointExtension>
            <ns3:hr>149</ns3:hr>
            <ns3:cad>57</ns3:cad>
          </ns3:TrackPointExtension>
        </extensions>
      </trkpt>
      <trkpt lat="52.06129233352839946746826171875" lon="1.26362646929919719696044921875">
        <ele>-62.40000152587890625</ele>
        <time>2025-09-05T12:23:08.000Z</time>
        <extensions>
          <ns3:TrackPointExtension>
            <ns3:hr>148</ns3:hr>
            <ns3:cad>58</ns3:cad>
          </ns3:TrackPointExtension>
        </extensions>
      </trkpt>
      <trkpt lat="52.0612920820713043212890625" lon="1.2636475078761577606201171875">
        <ele>-63.40000152587890625</ele>
        <time>2025-09-05T12:23:09.000Z</time>
        <extensions>
          <ns3:TrackPointExtension>
            <ns3:hr>149</ns3:hr>
            <ns3:cad>58</ns3:cad>
          </ns3:TrackPointExtension>
        </extensions>
      </trkpt>
      <trkpt lat="52.06128965131938457489013671875" lon="1.26369486562907695770263671875">
        <ele>-65.59999847412109375</ele>
        <time>2025-09-05T12:23:11.000Z</time>
        <extensions>
          <ns3:TrackPointExtension>
            <ns3:hr>148</ns3:hr>
            <ns3:cad>116</ns3:cad>
          </ns3:TrackPointExtension>
        </extensions>
      </trkpt>
      <trkpt lat="52.0612925849854946136474609375" lon="1.2637174129486083984375">
        <ele>-66.1999969482421875</ele>
        <time>2025-09-05T12:23:12.000Z</time>
        <extensions>
          <ns3:TrackPointExtension>
            <ns3:hr>147</ns3:hr>
            <ns3:cad>116</ns3:cad>
          </ns3:TrackPointExtension>
        </extensions>
      </trkpt>
      <trkpt lat="52.06129786558449268341064453125" lon="1.26376233994960784912109375">
        <ele>-66.8000030517578125</ele>
        <time>2025-09-05T12:23:14.000Z</time>
        <extensions>
          <ns3:TrackPointExtension>
            <ns3:hr>145</ns3:hr>
            <ns3:cad>77</ns3:cad>
          </ns3:TrackPointExtension>
        </extensions>
      </trkpt>
      <trkpt lat="52.0613401941955089569091796875" lon="1.26386317424476146697998046875">
        <ele>-67.59999847412109375</ele>
        <time>2025-09-05T12:23:18.000Z</time>
        <extensions>
          <ns3:TrackPointExtension>
            <ns3:hr>148</ns3:hr>
            <ns3:cad>81</ns3:cad>
          </ns3:TrackPointExtension>
        </extensions>
      </trkpt>
      <trkpt lat="52.0613566227257251739501953125" lon="1.26388932578265666961669921875">
        <ele>-68</ele>
        <time>2025-09-05T12:23:19.000Z</time>
        <extensions>
          <ns3:TrackPointExtension>
            <ns3:hr>151</ns3:hr>
            <ns3:cad>81</ns3:cad>
          </ns3:TrackPointExtension>
        </extensions>
      </trkpt>
      <trkpt lat="52.061389647424221038818359375" lon="1.26395554281771183013916015625">
        <ele>-68.1999969482421875</ele>
        <time>2025-09-05T12:23:21.000Z</time>
        <extensions>
          <ns3:TrackPointExtension>
            <ns3:hr>156</ns3:hr>
            <ns3:cad>80</ns3:cad>
          </ns3:TrackPointExtension>
        </extensions>
      </trkpt>
      <trkpt lat="52.061401046812534332275390625" lon="1.263986639678478240966796875">
        <ele>-68.40000152587890625</ele>
        <time>2025-09-05T12:23:22.000Z</time>
        <extensions>
          <ns3:TrackPointExtension>
            <ns3:hr>156</ns3:hr>
            <ns3:cad>80</ns3:cad>
          </ns3:TrackPointExtension>
        </extensions>
      </trkpt>
      <trkpt lat="52.06143784336745738983154296875" lon="1.2641613185405731201171875">
        <ele>-67.8000030517578125</ele>
        <time>2025-09-05T12:23:27.000Z</time>
        <extensions>
          <ns3:TrackPointExtension>
            <ns3:hr>160</ns3:hr>
            <ns3:cad>82</ns3:cad>
          </ns3:TrackPointExtension>
        </extensions>
      </trkpt>
      <trkpt lat="52.06144832074642181396484375" lon="1.2641970254480838775634765625">
        <ele>-67.40000152587890625</ele>
        <time>2025-09-05T12:23:28.000Z</time>
        <extensions>
          <ns3:TrackPointExtension>
            <ns3:hr>161</ns3:hr>
            <ns3:cad>82</ns3:cad>
          </ns3:TrackPointExtension>
        </extensions>
      </trkpt>
      <trkpt lat="52.0614548586308956146240234375" lon="1.26423533074557781219482421875">
        <ele>-66.59999847412109375</ele>
        <time>2025-09-05T12:23:29.000Z</time>
        <extensions>
          <ns3:TrackPointExtension>
            <ns3:hr>162</ns3:hr>
            <ns3:cad>81</ns3:cad>
          </ns3:TrackPointExtension>
        </extensions>
      </trkpt>
      <trkpt lat="52.061471454799175262451171875" lon="1.26430104486644268035888671875">
        <ele>-66</ele>
        <time>2025-09-05T12:23:31.000Z</time>
        <extensions>
          <ns3:TrackPointExtension>
            <ns3:hr>165</ns3:hr>
            <ns3:cad>81</ns3:cad>
          </ns3:TrackPointExtension>
        </extensions>
      </trkpt>
      <trkpt lat="52.06149299629032611846923828125" lon="1.2643651664257049560546875">
        <ele>-65.8000030517578125</ele>
        <time>2025-09-05T12:23:33.000Z</time>
        <extensions>
          <ns3:TrackPointExtension>
            <ns3:hr>168</ns3:hr>
            <ns3:cad>81</ns3:cad>
          </ns3:TrackPointExtension>
        </extensions>
      </trkpt>
      <trkpt lat="52.06150288693606853485107421875" lon="1.26439643092453479766845703125">
        <ele>-64.8000030517578125</ele>
        <time>2025-09-05T12:23:34.000Z</time>
        <extensions>
          <ns3:TrackPointExtension>
            <ns3:hr>169</ns3:hr>
            <ns3:cad>81</ns3:cad>
          </ns3:TrackPointExtension>
        </extensions>
      </trkpt>
      <trkpt lat="52.0615336485207080841064453125" lon="1.26442861743271350860595703125">
        <ele>-63.799999237060546875</ele>
        <time>2025-09-05T12:23:35.000Z</time>
        <extensions>
          <ns3:TrackPointExtension>
            <ns3:hr>171</ns3:hr>
            <ns3:cad>81</ns3:cad>
          </ns3:TrackPointExtension>
        </extensions>
      </trkpt>
      <trkpt lat="52.06157765351235866546630859375" lon="1.2644751369953155517578125">
        <ele>-63</ele>
        <time>2025-09-05T12:23:37.000Z</time>
        <extensions>
          <ns3:TrackPointExtension>
            <ns3:hr>176</ns3:hr>
            <ns3:cad>81</ns3:cad>
          </ns3:TrackPointExtension>
        </extensions>
      </trkpt>
      <trkpt lat="52.06159911118447780609130859375" lon="1.26449382863938808441162109375">
        <ele>-62.799999237060546875</ele>
        <time>2025-09-05T12:23:38.000Z</time>
        <extensions>
          <ns3:TrackPointExtension>
            <ns3:hr>174</ns3:hr>
            <ns3:cad>80</ns3:cad>
          </ns3:TrackPointExtension>
        </extensions>
      </trkpt>
      <trkpt lat="52.0616590417921543121337890625" lon="1.26458217389881610870361328125">
        <ele>-62.40000152587890625</ele>
        <time>2025-09-05T12:23:40.000Z</time>
        <extensions>
          <ns3:TrackPointExtension>
            <ns3:hr>178</ns3:hr>
            <ns3:cad>77</ns3:cad>
          </ns3:TrackPointExtension>
        </extensions>
      </trkpt>
      <trkpt lat="52.06170589663088321685791015625" lon="1.26463313587009906768798828125">
        <ele>-61.799999237060546875</ele>
        <time>2025-09-05T12:23:43.000Z</time>
        <extensions>
          <ns3:TrackPointExtension>
            <ns3:hr>177</ns3:hr>
            <ns3:cad>78</ns3:cad>
          </ns3:TrackPointExtension>
        </extensions>
      </trkpt>
      <trkpt lat="52.06172861158847808837890625" lon="1.2646560184657573699951171875">
        <ele>-61.59999847412109375</ele>
        <time>2025-09-05T12:23:44.000Z</time>
        <extensions>
          <ns3:TrackPointExtension>
            <ns3:hr>177</ns3:hr>
            <ns3:cad>80</ns3:cad>
          </ns3:TrackPointExtension>
        </extensions>
      </trkpt>
      <trkpt lat="52.06186867319047451019287109375" lon="1.264792978763580322265625">
        <ele>-61.40000152587890625</ele>
        <time>2025-09-05T12:23:51.000Z</time>
        <extensions>
          <ns3:TrackPointExtension>
            <ns3:hr>179</ns3:hr>
            <ns3:cad>81</ns3:cad>
          </ns3:TrackPointExtension>
        </extensions>
      </trkpt>
      <trkpt lat="52.0618826709687709808349609375" lon="1.26481636427342891693115234375">
        <ele>-60.40000152587890625</ele>
        <time>2025-09-05T12:23:52.000Z</time>
        <extensions>
          <ns3:TrackPointExtension>
            <ns3:hr>180</ns3:hr>
            <ns3:cad>81</ns3:cad>
          </ns3:TrackPointExtension>
        </extensions>
      </trkpt>
      <trkpt lat="52.0619170367717742919921875" lon="1.26487453468143939971923828125">
        <ele>-58.799999237060546875</ele>
        <time>2025-09-05T12:23:54.000Z</time>
        <extensions>
          <ns3:TrackPointExtension>
            <ns3:hr>179</ns3:hr>
            <ns3:cad>80</ns3:cad>
          </ns3:TrackPointExtension>
        </extensions>
      </trkpt>
      <trkpt lat="52.06195651553571224212646484375" lon="1.26493371091783046722412109375">
        <ele>-55.799999237060546875</ele>
        <time>2025-09-05T12:23:56.000Z</time>
        <extensions>
          <ns3:TrackPointExtension>
            <ns3:hr>177</ns3:hr>
            <ns3:cad>80</ns3:cad>
          </ns3:TrackPointExtension>
        </extensions>
      </trkpt>
      <trkpt lat="52.06197495572268962860107421875" lon="1.264960952103137969970703125">
        <ele>-53.40000152587890625</ele>
        <time>2025-09-05T12:23:57.000Z</time>
        <extensions>
          <ns3:TrackPointExtension>
            <ns3:hr>177</ns3:hr>
            <ns3:cad>80</ns3:cad>
          </ns3:TrackPointExtension>
        </extensions>
      </trkpt>
      <trkpt lat="52.06199683248996734619140625" lon="1.26498567871749401092529296875">
        <ele>-52</ele>
        <time>2025-09-05T12:23:58.000Z</time>
        <extensions>
          <ns3:TrackPointExtension>
            <ns3:hr>176</ns3:hr>
            <ns3:cad>80</ns3:cad>
          </ns3:TrackPointExtension>
        </extensions>
      </trkpt>
      <trkpt lat="52.06202005036175251007080078125" lon="1.2650104053318500518798828125">
        <ele>-51.200000762939453125</ele>
        <time>2025-09-05T12:23:59.000Z</time>
        <extensions>
          <ns3:TrackPointExtension>
            <ns3:hr>176</ns3:hr>
            <ns3:cad>80</ns3:cad>
          </ns3:TrackPointExtension>
        </extensions>
      </trkpt>
      <trkpt lat="52.06206313334405422210693359375" lon="1.2650674022734165191650390625">
        <ele>-50.59999847412109375</ele>
        <time>2025-09-05T12:24:00.000Z</time>
        <extensions>
          <ns3:TrackPointExtension>
            <ns3:hr>176</ns3:hr>
            <ns3:cad>80</ns3:cad>
          </ns3:TrackPointExtension>
        </extensions>
      </trkpt>
      <trkpt lat="52.06206313334405422210693359375" lon="1.2650674022734165191650390625">
        <ele>-49</ele>
        <time>2025-09-05T12:24:01.000Z</time>
        <extensions>
          <ns3:TrackPointExtension>
            <ns3:hr>175</ns3:hr>
            <ns3:cad>80</ns3:cad>
          </ns3:TrackPointExtension>
        </extensions>
      </trkpt>
      <trkpt lat="52.062086351215839385986328125" lon="1.2650925479829311370849609375">
        <ele>-47.799999237060546875</ele>
        <time>2025-09-05T12:24:02.000Z</time>
        <extensions>
          <ns3:TrackPointExtension>
            <ns3:hr>177</ns3:hr>
            <ns3:cad>80</ns3:cad>
          </ns3:TrackPointExtension>
        </extensions>
      </trkpt>
      <trkpt lat="52.06213370896875858306884765625" lon="1.265139319002628326416015625">
        <ele>-47</ele>
        <time>2025-09-05T12:24:04.000Z</time>
        <extensions>
          <ns3:TrackPointExtension>
            <ns3:hr>174</ns3:hr>
            <ns3:cad>80</ns3:cad>
          </ns3:TrackPointExtension>
        </extensions>
      </trkpt>
      <trkpt lat="52.0621592737734317779541015625" lon="1.26516186632215976715087890625">
        <ele>-46.59999847412109375</ele>
        <time>2025-09-05T12:24:05.000Z</time>
        <extensions>
          <ns3:TrackPointExtension>
            <ns3:hr>174</ns3:hr>
            <ns3:cad>81</ns3:cad>
          </ns3:TrackPointExtension>
        </extensions>
      </trkpt>
      <trkpt lat="52.06221233122050762176513671875" lon="1.26520981080830097198486328125">
        <ele>-46.59999847412109375</ele>
        <time>2025-09-05T12:24:07.000Z</time>
        <extensions>
          <ns3:TrackPointExtension>
            <ns3:hr>174</ns3:hr>
            <ns3:cad>81</ns3:cad>
          </ns3:TrackPointExtension>
        </extensions>
      </trkpt>
      <trkpt lat="52.06230218522250652313232421875" lon="1.26529966481029987335205078125">
        <ele>-48.59999847412109375</ele>
        <time>2025-09-05T12:24:11.000Z</time>
        <extensions>
          <ns3:TrackPointExtension>
            <ns3:hr>177</ns3:hr>
            <ns3:cad>81</ns3:cad>
          </ns3:TrackPointExtension>
        </extensions>
      </trkpt>
      <trkpt lat="52.062347196042537689208984375" lon="1.26533822156488895416259765625">
        <ele>-49.59999847412109375</ele>
        <time>2025-09-05T12:24:13.000Z</time>
        <extensions>
          <ns3:TrackPointExtension>
            <ns3:hr>178</ns3:hr>
            <ns3:cad>80</ns3:cad>
          </ns3:TrackPointExtension>
        </extensions>
      </trkpt>
      <trkpt lat="52.06241190433502197265625" lon="1.26538314856588840484619140625">
        <ele>-50</ele>
        <time>2025-09-05T12:24:15.000Z</time>
        <extensions>
          <ns3:TrackPointExtension>
            <ns3:hr>175</ns3:hr>
            <ns3:cad>81</ns3:cad>
          </ns3:TrackPointExtension>
        </extensions>
      </trkpt>
      <trkpt lat="52.0625062845647335052490234375" lon="1.265453137457370758056640625">
        <ele>-51.799999237060546875</ele>
        <time>2025-09-05T12:24:20.000Z</time>
        <extensions>
          <ns3:TrackPointExtension>
            <ns3:hr>173</ns3:hr>
            <ns3:cad>81</ns3:cad>
          </ns3:TrackPointExtension>
        </extensions>
      </trkpt>
      <trkpt lat="52.0625223778188228607177734375" lon="1.265469901263713836669921875">
        <ele>-54</ele>
        <time>2025-09-05T12:24:22.000Z</time>
        <extensions>
          <ns3:TrackPointExtension>
            <ns3:hr>173</ns3:hr>
            <ns3:cad>81</ns3:cad>
          </ns3:TrackPointExtension>
        </extensions>
      </trkpt>
      <trkpt lat="52.06256034784018993377685546875" lon="1.2655046023428440093994140625">
        <ele>-55.200000762939453125</ele>
        <time>2025-09-05T12:24:24.000Z</time>
        <extensions>
          <ns3:TrackPointExtension>
            <ns3:hr>174</ns3:hr>
            <ns3:cad>81</ns3:cad>
          </ns3:TrackPointExtension>
        </extensions>
      </trkpt>
      <trkpt lat="52.062577195465564727783203125" lon="1.2655247189104557037353515625">
        <ele>-55.59999847412109375</ele>
        <time>2025-09-05T12:24:25.000Z</time>
        <extensions>
          <ns3:TrackPointExtension>
            <ns3:hr>174</ns3:hr>
            <ns3:cad>82</ns3:cad>
          </ns3:TrackPointExtension>
        </extensions>
      </trkpt>
      <trkpt lat="52.06259630620479583740234375" lon="1.265540309250354766845703125">
        <ele>-56.40000152587890625</ele>
        <time>2025-09-05T12:24:26.000Z</time>
        <extensions>
          <ns3:TrackPointExtension>
            <ns3:hr>175</ns3:hr>
            <ns3:cad>82</ns3:cad>
          </ns3:TrackPointExtension>
        </extensions>
      </trkpt>
      <trkpt lat="52.06267618574202060699462890625" lon="1.2656031735241413116455078125">
        <ele>-57.799999237060546875</ele>
        <time>2025-09-05T12:24:29.000Z</time>
        <extensions>
          <ns3:TrackPointExtension>
            <ns3:hr>176</ns3:hr>
            <ns3:cad>80</ns3:cad>
          </ns3:TrackPointExtension>
        </extensions>
      </trkpt>
      <trkpt lat="52.062713317573070526123046875" lon="1.26563225872814655303955078125">
        <ele>-60.200000762939453125</ele>
        <time>2025-09-05T12:24:31.000Z</time>
        <extensions>
          <ns3:TrackPointExtension>
            <ns3:hr>176</ns3:hr>
            <ns3:cad>81</ns3:cad>
          </ns3:TrackPointExtension>
        </extensions>
      </trkpt>
      <trkpt lat="52.0627362839877605438232421875" lon="1.2656430713832378387451171875">
        <ele>-61.200000762939453125</ele>
        <time>2025-09-05T12:24:32.000Z</time>
        <extensions>
          <ns3:TrackPointExtension>
            <ns3:hr>175</ns3:hr>
            <ns3:cad>81</ns3:cad>
          </ns3:TrackPointExtension>
        </extensions>
      </trkpt>
      <trkpt lat="52.06275648437440395355224609375" lon="1.26565421931445598602294921875">
        <ele>-62.59999847412109375</ele>
        <time>2025-09-05T12:24:33.000Z</time>
        <extensions>
          <ns3:TrackPointExtension>
            <ns3:hr>175</ns3:hr>
            <ns3:cad>82</ns3:cad>
          </ns3:TrackPointExtension>
        </extensions>
      </trkpt>
      <trkpt lat="52.0628003217279911041259765625" lon="1.265682466328144073486328125">
        <ele>-63.799999237060546875</ele>
        <time>2025-09-05T12:24:35.000Z</time>
        <extensions>
          <ns3:TrackPointExtension>
            <ns3:hr>175</ns3:hr>
            <ns3:cad>81</ns3:cad>
          </ns3:TrackPointExtension>
        </extensions>
      </trkpt>
      <trkpt lat="52.06287818960845470428466796875" lon="1.26579687930643558502197265625">
        <ele>-64.1999969482421875</ele>
        <time>2025-09-05T12:24:41.000Z</time>
        <extensions>
          <ns3:TrackPointExtension>
            <ns3:hr>175</ns3:hr>
            <ns3:cad>81</ns3:cad>
          </ns3:TrackPointExtension>
        </extensions>
      </trkpt>
      <trkpt lat="52.06294205971062183380126953125" lon="1.265844404697418212890625">
        <ele>-61.59999847412109375</ele>
        <time>2025-09-05T12:24:45.000Z</time>
        <extensions>
          <ns3:TrackPointExtension>
            <ns3:hr>175</ns3:hr>
            <ns3:cad>81</ns3:cad>
          </ns3:TrackPointExtension>
        </extensions>
      </trkpt>
      <trkpt lat="52.0629622600972652435302734375" lon="1.2658511102199554443359375">
        <ele>-60.59999847412109375</ele>
        <time>2025-09-05T12:24:46.000Z</time>
        <extensions>
          <ns3:TrackPointExtension>
            <ns3:hr>176</ns3:hr>
            <ns3:cad>81</ns3:cad>
          </ns3:TrackPointExtension>
        </extensions>
      </trkpt>
      <trkpt lat="52.06298254430294036865234375" lon="1.26586175523698329925537109375">
        <ele>-59.200000762939453125</ele>
        <time>2025-09-05T12:24:47.000Z</time>
        <extensions>
          <ns3:TrackPointExtension>
            <ns3:hr>175</ns3:hr>
            <ns3:cad>81</ns3:cad>
          </ns3:TrackPointExtension>
        </extensions>
      </trkpt>
      <trkpt lat="52.06300056539475917816162109375" lon="1.2658724002540111541748046875">
        <ele>-58</ele>
        <time>2025-09-05T12:24:48.000Z</time>
        <extensions>
          <ns3:TrackPointExtension>
            <ns3:hr>175</ns3:hr>
            <ns3:cad>81</ns3:cad>
          </ns3:TrackPointExtension>
        </extensions>
      </trkpt>
      <trkpt lat="52.06302118487656116485595703125" lon="1.2658814527094364166259765625">
        <ele>-57</ele>
        <time>2025-09-05T12:24:49.000Z</time>
        <extensions>
          <ns3:TrackPointExtension>
            <ns3:hr>175</ns3:hr>
            <ns3:cad>81</ns3:cad>
          </ns3:TrackPointExtension>
        </extensions>
      </trkpt>
      <trkpt lat="52.063058651983737945556640625" lon="1.265892349183559417724609375">
        <ele>-55.59999847412109375</ele>
        <time>2025-09-05T12:24:51.000Z</time>
        <extensions>
          <ns3:TrackPointExtension>
            <ns3:hr>175</ns3:hr>
            <ns3:cad>81</ns3:cad>
          </ns3:TrackPointExtension>
        </extensions>
      </trkpt>
      <trkpt lat="52.06308974884450435638427734375" lon="1.2659045867621898651123046875">
        <ele>-54.200000762939453125</ele>
        <time>2025-09-05T12:24:53.000Z</time>
        <extensions>
          <ns3:TrackPointExtension>
            <ns3:hr>173</ns3:hr>
            <ns3:cad>81</ns3:cad>
          </ns3:TrackPointExtension>
        </extensions>
      </trkpt>
      <trkpt lat="52.06310936249792575836181640625" lon="1.26591489650309085845947265625">
        <ele>-53</ele>
        <time>2025-09-05T12:24:54.000Z</time>
        <extensions>
          <ns3:TrackPointExtension>
            <ns3:hr>175</ns3:hr>
            <ns3:cad>81</ns3:cad>
          </ns3:TrackPointExtension>
        </extensions>
      </trkpt>
      <trkpt lat="52.0631443150341510772705078125" lon="1.265946328639984130859375">
        <ele>-51.59999847412109375</ele>
        <time>2025-09-05T12:24:56.000Z</time>
        <extensions>
          <ns3:TrackPointExtension>
            <ns3:hr>175</ns3:hr>
            <ns3:cad>81</ns3:cad>
          </ns3:TrackPointExtension>
        </extensions>
      </trkpt>
      <trkpt lat="52.06318111158907413482666015625" lon="1.266010701656341552734375">
        <ele>-50.40000152587890625</ele>
        <time>2025-09-05T12:24:59.000Z</time>
        <extensions>
          <ns3:TrackPointExtension>
            <ns3:hr>176</ns3:hr>
            <ns3:cad>80</ns3:cad>
          </ns3:TrackPointExtension>
        </extensions>
      </trkpt>
      <trkpt lat="52.0632237754762172698974609375" lon="1.2660517729818820953369140625">
        <ele>-50.200000762939453125</ele>
        <time>2025-09-05T12:25:02.000Z</time>
        <extensions>
          <ns3:TrackPointExtension>
            <ns3:hr>175</ns3:hr>
            <ns3:cad>0</ns3:cad>
          </ns3:TrackPointExtension>
        </extensions>
      </trkpt>
      <trkpt lat="52.0632371865212917327880859375" lon="1.2660547904670238494873046875">
        <ele>-50</ele>
        <time>2025-09-05T12:25:04.000Z</time>
        <extensions>
          <ns3:TrackPointExtension>
            <ns3:hr>174</ns3:hr>
            <ns3:cad>0</ns3:cad>
          </ns3:TrackPointExtension>
        </extensions>
      </trkpt>
      <trkpt lat="52.063292004168033599853515625" lon="1.26603693701326847076416015625">
        <ele>-50.200000762939453125</ele>
        <time>2025-09-05T12:25:07.000Z</time>
        <extensions>
          <ns3:TrackPointExtension>
            <ns3:hr>173</ns3:hr>
            <ns3:cad>0</ns3:cad>
          </ns3:TrackPointExtension>
        </extensions>
      </trkpt>
      <trkpt lat="52.06332947127521038055419921875" lon="1.2660335004329681396484375">
        <ele>-52.59999847412109375</ele>
        <time>2025-09-05T12:25:09.000Z</time>
        <extensions>
          <ns3:TrackPointExtension>
            <ns3:hr>173</ns3:hr>
            <ns3:cad>0</ns3:cad>
          </ns3:TrackPointExtension>
        </extensions>
      </trkpt>
      <trkpt lat="52.06334405578672885894775390625" lon="1.2660346738994121551513671875">
        <ele>-55.799999237060546875</ele>
        <time>2025-09-05T12:25:10.000Z</time>
        <extensions>
          <ns3:TrackPointExtension>
            <ns3:hr>171</ns3:hr>
            <ns3:cad>0</ns3:cad>
          </ns3:TrackPointExtension>
        </extensions>
      </trkpt>
      <trkpt lat="52.06335327588021755218505859375" lon="1.2660383619368076324462890625">
        <ele>-58</ele>
        <time>2025-09-05T12:25:11.000Z</time>
        <extensions>
          <ns3:TrackPointExtension>
            <ns3:hr>171</ns3:hr>
            <ns3:cad>0</ns3:cad>
          </ns3:TrackPointExtension>
        </extensions>
      </trkpt>
      <trkpt lat="52.0633600652217864990234375" lon="1.26604163087904453277587890625">
        <ele>-59.40000152587890625</ele>
        <time>2025-09-05T12:25:12.000Z</time>
        <extensions>
          <ns3:TrackPointExtension>
            <ns3:hr>170</ns3:hr>
            <ns3:cad>0</ns3:cad>
          </ns3:TrackPointExtension>
        </extensions>
      </trkpt>
      <trkpt lat="52.0633625797927379608154296875" lon="1.26604146324098110198974609375">
        <ele>-60.200000762939453125</ele>
        <time>2025-09-05T12:25:13.000Z</time>
        <extensions>
          <ns3:TrackPointExtension>
            <ns3:hr>169</ns3:hr>
            <ns3:cad>0</ns3:cad>
          </ns3:TrackPointExtension>
        </extensions>
      </trkpt>
      <trkpt lat="52.0633645914494991302490234375" lon="1.2660390324890613555908203125">
        <ele>-61</ele>
        <time>2025-09-05T12:25:14.000Z</time>
        <extensions>
          <ns3:TrackPointExtension>
            <ns3:hr>168</ns3:hr>
            <ns3:cad>0</ns3:cad>
          </ns3:TrackPointExtension>
        </extensions>
      </trkpt>
      <trkpt lat="52.06336903385818004608154296875" lon="1.266037523746490478515625">
        <ele>-62.40000152587890625</ele>
        <time>2025-09-05T12:25:16.000Z</time>
        <extensions>
          <ns3:TrackPointExtension>
            <ns3:hr>167</ns3:hr>
            <ns3:cad>0</ns3:cad>
          </ns3:TrackPointExtension>
        </extensions>
      </trkpt>
      <trkpt lat="52.06337087787687778472900390625" lon="1.2660319916903972625732421875">
        <ele>-64</ele>
        <time>2025-09-05T12:25:19.000Z</time>
        <extensions>
          <ns3:TrackPointExtension>
            <ns3:hr>167</ns3:hr>
            <ns3:cad>0</ns3:cad>
          </ns3:TrackPointExtension>
        </extensions>
      </trkpt>
      <trkpt lat="52.06337439827620983123779296875" lon="1.266027130186557769775390625">
        <ele>-65.40000152587890625</ele>
        <time>2025-09-05T12:25:21.000Z</time>
        <extensions>
          <ns3:TrackPointExtension>
            <ns3:hr>165</ns3:hr>
            <ns3:cad>0</ns3:cad>
          </ns3:TrackPointExtension>
        </extensions>
      </trkpt>
      <trkpt lat="52.06337724812328815460205078125" lon="1.26601874828338623046875">
        <ele>-66.1999969482421875</ele>
        <time>2025-09-05T12:25:22.000Z</time>
        <extensions>
          <ns3:TrackPointExtension>
            <ns3:hr>165</ns3:hr>
            <ns3:cad>0</ns3:cad>
          </ns3:TrackPointExtension>
        </extensions>
      </trkpt>
      <trkpt lat="52.063381858170032501220703125" lon="1.26600609160959720611572265625">
        <ele>-67.40000152587890625</ele>
        <time>2025-09-05T12:25:23.000Z</time>
        <extensions>
          <ns3:TrackPointExtension>
            <ns3:hr>164</ns3:hr>
            <ns3:cad>0</ns3:cad>
          </ns3:TrackPointExtension>
        </extensions>
      </trkpt>
      <trkpt lat="52.06338546238839626312255859375" lon="1.26599418930709362030029296875">
        <ele>-69.59999847412109375</ele>
        <time>2025-09-05T12:25:24.000Z</time>
        <extensions>
          <ns3:TrackPointExtension>
            <ns3:hr>164</ns3:hr>
            <ns3:cad>60</ns3:cad>
          </ns3:TrackPointExtension>
        </extensions>
      </trkpt>
      <trkpt lat="52.06338680349290370941162109375" lon="1.26597541384398937225341796875">
        <ele>-71</ele>
        <time>2025-09-05T12:25:25.000Z</time>
        <extensions>
          <ns3:TrackPointExtension>
            <ns3:hr>164</ns3:hr>
            <ns3:cad>60</ns3:cad>
          </ns3:TrackPointExtension>
        </extensions>
      </trkpt>
      <trkpt lat="52.063389234244823455810546875" lon="1.2659518606960773468017578125">
        <ele>-72.40000152587890625</ele>
        <time>2025-09-05T12:25:26.000Z</time>
        <extensions>
          <ns3:TrackPointExtension>
            <ns3:hr>164</ns3:hr>
            <ns3:cad>56</ns3:cad>
          </ns3:TrackPointExtension>
        </extensions>
      </trkpt>
      <trkpt lat="52.063392587006092071533203125" lon="1.2659089453518390655517578125">
        <ele>-74.1999969482421875</ele>
        <time>2025-09-05T12:25:28.000Z</time>
        <extensions>
          <ns3:TrackPointExtension>
            <ns3:hr>163</ns3:hr>
            <ns3:cad>59</ns3:cad>
          </ns3:TrackPointExtension>
        </extensions>
      </trkpt>
      <trkpt lat="52.0633954368531703948974609375" lon="1.2658569775521755218505859375">
        <ele>-75.8000030517578125</ele>
        <time>2025-09-05T12:25:30.000Z</time>
        <extensions>
          <ns3:TrackPointExtension>
            <ns3:hr>163</ns3:hr>
            <ns3:cad>59</ns3:cad>
          </ns3:TrackPointExtension>
        </extensions>
      </trkpt>
      <trkpt lat="52.06341245211660861968994140625" lon="1.2657181732356548309326171875">
        <ele>-76.8000030517578125</ele>
        <time>2025-09-05T12:25:34.000Z</time>
        <extensions>
          <ns3:TrackPointExtension>
            <ns3:hr>162</ns3:hr>
            <ns3:cad>80</ns3:cad>
          </ns3:TrackPointExtension>
        </extensions>
      </trkpt>
      <trkpt lat="52.0634175650775432586669921875" lon="1.26568104140460491180419921875">
        <ele>-77</ele>
        <time>2025-09-05T12:25:35.000Z</time>
        <extensions>
          <ns3:TrackPointExtension>
            <ns3:hr>161</ns3:hr>
            <ns3:cad>79</ns3:cad>
          </ns3:TrackPointExtension>
        </extensions>
      </trkpt>
      <trkpt lat="52.06342318095266819000244140625" lon="1.26556235365569591522216796875">
        <ele>-77.1999969482421875</ele>
        <time>2025-09-05T12:25:38.000Z</time>
        <extensions>
          <ns3:TrackPointExtension>
            <ns3:hr>158</ns3:hr>
            <ns3:cad>79</ns3:cad>
          </ns3:TrackPointExtension>
        </extensions>
      </trkpt>
      <trkpt lat="52.0634195767343044281005859375" lon="1.2654462642967700958251953125">
        <ele>-77.59999847412109375</ele>
        <time>2025-09-05T12:25:41.000Z</time>
        <extensions>
          <ns3:TrackPointExtension>
            <ns3:hr>161</ns3:hr>
            <ns3:cad>80</ns3:cad>
          </ns3:TrackPointExtension>
        </extensions>
      </trkpt>
      <trkpt lat="52.063420079648494720458984375" lon="1.2654050253331661224365234375">
        <ele>-77.8000030517578125</ele>
        <time>2025-09-05T12:25:42.000Z</time>
        <extensions>
          <ns3:TrackPointExtension>
            <ns3:hr>162</ns3:hr>
            <ns3:cad>81</ns3:cad>
          </ns3:TrackPointExtension>
        </extensions>
      </trkpt>
      <trkpt lat="52.06341144628822803497314453125" lon="1.26531776972115039825439453125">
        <ele>-78</ele>
        <time>2025-09-05T12:25:44.000Z</time>
        <extensions>
          <ns3:TrackPointExtension>
            <ns3:hr>166</ns3:hr>
            <ns3:cad>80</ns3:cad>
          </ns3:TrackPointExtension>
        </extensions>
      </trkpt>
      <trkpt lat="52.06341999582946300506591796875" lon="1.26525121740996837615966796875">
        <ele>-78.8000030517578125</ele>
        <time>2025-09-05T12:25:46.000Z</time>
        <extensions>
          <ns3:TrackPointExtension>
            <ns3:hr>167</ns3:hr>
            <ns3:cad>80</ns3:cad>
          </ns3:TrackPointExtension>
        </extensions>
      </trkpt>
      <trkpt lat="52.0634303055703639984130859375" lon="1.26521877944469451904296875">
        <ele>-78.40000152587890625</ele>
        <time>2025-09-05T12:25:47.000Z</time>
        <extensions>
          <ns3:TrackPointExtension>
            <ns3:hr>167</ns3:hr>
            <ns3:cad>79</ns3:cad>
          </ns3:TrackPointExtension>
        </extensions>
      </trkpt>
      <trkpt lat="52.06347414292395114898681640625" lon="1.26511895097792148590087890625">
        <ele>-79</ele>
        <time>2025-09-05T12:25:50.000Z</time>
        <extensions>
          <ns3:TrackPointExtension>
            <ns3:hr>169</ns3:hr>
            <ns3:cad>80</ns3:cad>
          </ns3:TrackPointExtension>
        </extensions>
      </trkpt>
      <trkpt lat="52.06348805688321590423583984375" lon="1.2650325335562229156494140625">
        <ele>-79.40000152587890625</ele>
        <time>2025-09-05T12:25:52.000Z</time>
        <extensions>
          <ns3:TrackPointExtension>
            <ns3:hr>169</ns3:hr>
            <ns3:cad>81</ns3:cad>
          </ns3:TrackPointExtension>
        </extensions>
      </trkpt>
      <trkpt lat="52.063501216471195220947265625" lon="1.2649460323154926300048828125">
        <ele>-80.40000152587890625</ele>
        <time>2025-09-05T12:25:54.000Z</time>
        <extensions>
          <ns3:TrackPointExtension>
            <ns3:hr>171</ns3:hr>
            <ns3:cad>80</ns3:cad>
          </ns3:TrackPointExtension>
        </extensions>
      </trkpt>
      <trkpt lat="52.06354035995900630950927734375" lon="1.26488442532718181610107421875">
        <ele>-81.8000030517578125</ele>
        <time>2025-09-05T12:25:59.000Z</time>
        <extensions>
          <ns3:TrackPointExtension>
            <ns3:hr>171</ns3:hr>
            <ns3:cad>79</ns3:cad>
          </ns3:TrackPointExtension>
        </extensions>
      </trkpt>
      <trkpt lat="52.063560895621776580810546875" lon="1.26487101428210735321044921875">
        <ele>-82.8000030517578125</ele>
        <time>2025-09-05T12:26:05.000Z</time>
        <extensions>
          <ns3:TrackPointExtension>
            <ns3:hr>172</ns3:hr>
            <ns3:cad>0</ns3:cad>
          </ns3:TrackPointExtension>
        </extensions>
      </trkpt>
      <trkpt lat="52.06358109600841999053955078125" lon="1.2648836709558963775634765625">
        <ele>-84</ele>
        <time>2025-09-05T12:26:07.000Z</time>
        <extensions>
          <ns3:TrackPointExtension>
            <ns3:hr>172</ns3:hr>
            <ns3:cad>0</ns3:cad>
          </ns3:TrackPointExtension>
        </extensions>
      </trkpt>
      <trkpt lat="52.0635955967009067535400390625" lon="1.26489632762968540191650390625">
        <ele>-84.59999847412109375</ele>
        <time>2025-09-05T12:26:08.000Z</time>
        <extensions>
          <ns3:TrackPointExtension>
            <ns3:hr>175</ns3:hr>
            <ns3:cad>57</ns3:cad>
          </ns3:TrackPointExtension>
        </extensions>
      </trkpt>
      <trkpt lat="52.06361143849790096282958984375" lon="1.26490772701799869537353515625">
        <ele>-85.8000030517578125</ele>
        <time>2025-09-05T12:26:09.000Z</time>
        <extensions>
          <ns3:TrackPointExtension>
            <ns3:hr>174</ns3:hr>
            <ns3:cad>59</ns3:cad>
          </ns3:TrackPointExtension>
        </extensions>
      </trkpt>
      <trkpt lat="52.06362635828554630279541015625" lon="1.26492080278694629669189453125">
        <ele>-86.8000030517578125</ele>
        <time>2025-09-05T12:26:10.000Z</time>
        <extensions>
          <ns3:TrackPointExtension>
            <ns3:hr>173</ns3:hr>
            <ns3:cad>59</ns3:cad>
          </ns3:TrackPointExtension>
        </extensions>
      </trkpt>
      <trkpt lat="52.06365301273763179779052734375" lon="1.26494712196290493011474609375">
        <ele>-89.40000152587890625</ele>
        <time>2025-09-05T12:26:12.000Z</time>
        <extensions>
          <ns3:TrackPointExtension>
            <ns3:hr>172</ns3:hr>
            <ns3:cad>60</ns3:cad>
          </ns3:TrackPointExtension>
        </extensions>
      </trkpt>
      <trkpt lat="52.06366122700273990631103515625" lon="1.2649651430547237396240234375">
        <ele>-90.59999847412109375</ele>
        <time>2025-09-05T12:26:13.000Z</time>
        <extensions>
          <ns3:TrackPointExtension>
            <ns3:hr>171</ns3:hr>
            <ns3:cad>60</ns3:cad>
          </ns3:TrackPointExtension>
        </extensions>
      </trkpt>
      <trkpt lat="52.063668183982372283935546875" lon="1.264981739223003387451171875">
        <ele>-92</ele>
        <time>2025-09-05T12:26:14.000Z</time>
        <extensions>
          <ns3:TrackPointExtension>
            <ns3:hr>169</ns3:hr>
            <ns3:cad>60</ns3:cad>
          </ns3:TrackPointExtension>
        </extensions>
      </trkpt>
      <trkpt lat="52.06367916427552700042724609375" lon="1.26499422825872898101806640625">
        <ele>-93</ele>
        <time>2025-09-05T12:26:15.000Z</time>
        <extensions>
          <ns3:TrackPointExtension>
            <ns3:hr>167</ns3:hr>
            <ns3:cad>60</ns3:cad>
          </ns3:TrackPointExtension>
        </extensions>
      </trkpt>
      <trkpt lat="52.06369006074965000152587890625" lon="1.26501032151281833648681640625">
        <ele>-94.40000152587890625</ele>
        <time>2025-09-05T12:26:16.000Z</time>
        <extensions>
          <ns3:TrackPointExtension>
            <ns3:hr>164</ns3:hr>
            <ns3:cad>123</ns3:cad>
          </ns3:TrackPointExtension>
        </extensions>
      </trkpt>
      <trkpt lat="52.0637038908898830413818359375" lon="1.26502675004303455352783203125">
        <ele>-95.59999847412109375</ele>
        <time>2025-09-05T12:26:17.000Z</time>
        <extensions>
          <ns3:TrackPointExtension>
            <ns3:hr>163</ns3:hr>
            <ns3:cad>123</ns3:cad>
          </ns3:TrackPointExtension>
        </extensions>
      </trkpt>
      <trkpt lat="52.06373163498938083648681640625" lon="1.26505340449512004852294921875">
        <ele>-96.8000030517578125</ele>
        <time>2025-09-05T12:26:19.000Z</time>
        <extensions>
          <ns3:TrackPointExtension>
            <ns3:hr>162</ns3:hr>
            <ns3:cad>80</ns3:cad>
          </ns3:TrackPointExtension>
        </extensions>
      </trkpt>
      <trkpt lat="52.06375845707952976226806640625" lon="1.26509011723101139068603515625">
        <ele>-98.1999969482421875</ele>
        <time>2025-09-05T12:26:21.000Z</time>
        <extensions>
          <ns3:TrackPointExtension>
            <ns3:hr>162</ns3:hr>
            <ns3:cad>79</ns3:cad>
          </ns3:TrackPointExtension>
        </extensions>
      </trkpt>
      <trkpt lat="52.06376985646784305572509765625" lon="1.26510570757091045379638671875">
        <ele>-99.8000030517578125</ele>
        <time>2025-09-05T12:26:22.000Z</time>
        <extensions>
          <ns3:TrackPointExtension>
            <ns3:hr>162</ns3:hr>
            <ns3:cad>79</ns3:cad>
          </ns3:TrackPointExtension>
        </extensions>
      </trkpt>
      <trkpt lat="52.0638034678995609283447265625" lon="1.26513001509010791778564453125">
        <ele>-101.1999969482421875</ele>
        <time>2025-09-05T12:26:24.000Z</time>
        <extensions>
          <ns3:TrackPointExtension>
            <ns3:hr>161</ns3:hr>
            <ns3:cad>80</ns3:cad>
          </ns3:TrackPointExtension>
        </extensions>
      </trkpt>
      <trkpt lat="52.0638428628444671630859375" lon="1.265156082808971405029296875">
        <ele>-102</ele>
        <time>2025-09-05T12:26:26.000Z</time>
        <extensions>
          <ns3:TrackPointExtension>
            <ns3:hr>160</ns3:hr>
            <ns3:cad>81</ns3:cad>
          </ns3:TrackPointExtension>
        </extensions>
      </trkpt>
      <trkpt lat="52.06386004574596881866455078125" lon="1.2651636265218257904052734375">
        <ele>-102.40000152587890625</ele>
        <time>2025-09-05T12:26:27.000Z</time>
        <extensions>
          <ns3:TrackPointExtension>
            <ns3:hr>161</ns3:hr>
            <ns3:cad>81</ns3:cad>
          </ns3:TrackPointExtension>
        </extensions>
      </trkpt>
      <trkpt lat="52.06394336186349391937255859375" lon="1.2651968188583850860595703125">
        <ele>-103.59999847412109375</ele>
        <time>2025-09-05T12:26:31.000Z</time>
        <extensions>
          <ns3:TrackPointExtension>
            <ns3:hr>163</ns3:hr>
            <ns3:cad>81</ns3:cad>
          </ns3:TrackPointExtension>
        </extensions>
      </trkpt>
      <trkpt lat="52.0639650709927082061767578125" lon="1.26520126126706600189208984375">
        <ele>-103.8000030517578125</ele>
        <time>2025-09-05T12:26:32.000Z</time>
        <extensions>
          <ns3:TrackPointExtension>
            <ns3:hr>164</ns3:hr>
            <ns3:cad>81</ns3:cad>
          </ns3:TrackPointExtension>
        </extensions>
      </trkpt>
      <trkpt lat="52.06407043151557445526123046875" lon="1.2652132473886013031005859375">
        <ele>-102.1999969482421875</ele>
        <time>2025-09-05T12:26:36.000Z</time>
        <extensions>
          <ns3:TrackPointExtension>
            <ns3:hr>167</ns3:hr>
            <ns3:cad>82</ns3:cad>
          </ns3:TrackPointExtension>
        </extensions>
      </trkpt>
      <trkpt lat="52.0641555078327655792236328125" lon="1.26522456295788288116455078125">
        <ele>-101.8000030517578125</ele>
        <time>2025-09-05T12:26:39.000Z</time>
        <extensions>
          <ns3:TrackPointExtension>
            <ns3:hr>169</ns3:hr>
            <ns3:cad>82</ns3:cad>
          </ns3:TrackPointExtension>
        </extensions>
      </trkpt>
      <trkpt lat="52.0642433501780033111572265625" lon="1.265222132205963134765625">
        <ele>-101</ele>
        <time>2025-09-05T12:26:42.000Z</time>
        <extensions>
          <ns3:TrackPointExtension>
            <ns3:hr>169</ns3:hr>
            <ns3:cad>82</ns3:cad>
          </ns3:TrackPointExtension>
        </extensions>
      </trkpt>
      <trkpt lat="52.06429280340671539306640625" lon="1.26523059792816638946533203125">
        <ele>-100</ele>
        <time>2025-09-05T12:26:44.000Z</time>
        <extensions>
          <ns3:TrackPointExtension>
            <ns3:hr>169</ns3:hr>
            <ns3:cad>81</ns3:cad>
          </ns3:TrackPointExtension>
        </extensions>
      </trkpt>
      <trkpt lat="52.06437637098133563995361328125" lon="1.2652243115007877349853515625">
        <ele>-99.1999969482421875</ele>
        <time>2025-09-05T12:26:46.000Z</time>
        <extensions>
          <ns3:TrackPointExtension>
            <ns3:hr>169</ns3:hr>
            <ns3:cad>80</ns3:cad>
          </ns3:TrackPointExtension>
        </extensions>
      </trkpt>
      <trkpt lat="52.06441174261271953582763671875" lon="1.26521551050245761871337890625">
        <ele>-98.40000152587890625</ele>
        <time>2025-09-05T12:26:47.000Z</time>
        <extensions>
          <ns3:TrackPointExtension>
            <ns3:hr>168</ns3:hr>
            <ns3:cad>80</ns3:cad>
          </ns3:TrackPointExtension>
        </extensions>
      </trkpt>
      <trkpt lat="52.0645015127956867218017578125" lon="1.26518265344202518463134765625">
        <ele>-97</ele>
        <time>2025-09-05T12:26:50.000Z</time>
        <extensions>
          <ns3:TrackPointExtension>
            <ns3:hr>168</ns3:hr>
            <ns3:cad>81</ns3:cad>
          </ns3:TrackPointExtension>
        </extensions>
      </trkpt>
      <trkpt lat="52.0645471103489398956298828125" lon="1.2651797197759151458740234375">
        <ele>-95.59999847412109375</ele>
        <time>2025-09-05T12:26:52.000Z</time>
        <extensions>
          <ns3:TrackPointExtension>
            <ns3:hr>168</ns3:hr>
            <ns3:cad>81</ns3:cad>
          </ns3:TrackPointExtension>
        </extensions>
      </trkpt>
      <trkpt lat="52.064590863883495330810546875" lon="1.26518449746072292327880859375">
        <ele>-93.40000152587890625</ele>
        <time>2025-09-05T12:26:55.000Z</time>
        <extensions>
          <ns3:TrackPointExtension>
            <ns3:hr>169</ns3:hr>
            <ns3:cad>81</ns3:cad>
          </ns3:TrackPointExtension>
        </extensions>
      </trkpt>
      <trkpt lat="52.064672671258449554443359375" lon="1.265173517167568206787109375">
        <ele>-91.1999969482421875</ele>
        <time>2025-09-05T12:26:57.000Z</time>
        <extensions>
          <ns3:TrackPointExtension>
            <ns3:hr>170</ns3:hr>
            <ns3:cad>80</ns3:cad>
          </ns3:TrackPointExtension>
        </extensions>
      </trkpt>
      <trkpt lat="52.0646976493299007415771484375" lon="1.26516823656857013702392578125">
        <ele>-89.40000152587890625</ele>
        <time>2025-09-05T12:26:59.000Z</time>
        <extensions>
          <ns3:TrackPointExtension>
            <ns3:hr>170</ns3:hr>
            <ns3:cad>81</ns3:cad>
          </ns3:TrackPointExtension>
        </extensions>
      </trkpt>
      <trkpt lat="52.0647586695849895477294921875" lon="1.26514929346740245819091796875">
        <ele>-88</ele>
        <time>2025-09-05T12:27:02.000Z</time>
        <extensions>
          <ns3:TrackPointExtension>
            <ns3:hr>170</ns3:hr>
            <ns3:cad>82</ns3:cad>
          </ns3:TrackPointExtension>
        </extensions>
      </trkpt>
      <trkpt lat="52.0647898502647876739501953125" lon="1.265138648450374603271484375">
        <ele>-86.8000030517578125</ele>
        <time>2025-09-05T12:27:04.000Z</time>
        <extensions>
          <ns3:TrackPointExtension>
            <ns3:hr>170</ns3:hr>
            <ns3:cad>82</ns3:cad>
          </ns3:TrackPointExtension>
        </extensions>
      </trkpt>
      <trkpt lat="52.06481910310685634613037109375" lon="1.265129260718822479248046875">
        <ele>-86</ele>
        <time>2025-09-05T12:27:06.000Z</time>
        <extensions>
          <ns3:TrackPointExtension>
            <ns3:hr>170</ns3:hr>
            <ns3:cad>82</ns3:cad>
          </ns3:TrackPointExtension>
        </extensions>
      </trkpt>
      <trkpt lat="52.0648354478180408477783203125" lon="1.265118531882762908935546875">
        <ele>-85.59999847412109375</ele>
        <time>2025-09-05T12:27:07.000Z</time>
        <extensions>
          <ns3:TrackPointExtension>
            <ns3:hr>170</ns3:hr>
            <ns3:cad>82</ns3:cad>
          </ns3:TrackPointExtension>
        </extensions>
      </trkpt>
      <trkpt lat="52.064863778650760650634765625" lon="1.26510017551481723785400390625">
        <ele>-84.40000152587890625</ele>
        <time>2025-09-05T12:27:09.000Z</time>
        <extensions>
          <ns3:TrackPointExtension>
            <ns3:hr>171</ns3:hr>
            <ns3:cad>82</ns3:cad>
          </ns3:TrackPointExtension>
        </extensions>
      </trkpt>
      <trkpt lat="52.0650064386427402496337890625" lon="1.2650573439896106719970703125">
        <ele>-84.8000030517578125</ele>
        <time>2025-09-05T12:27:15.000Z</time>
        <extensions>
          <ns3:TrackPointExtension>
            <ns3:hr>172</ns3:hr>
            <ns3:cad>81</ns3:cad>
          </ns3:TrackPointExtension>
        </extensions>
      </trkpt>
      <trkpt lat="52.06505094654858112335205078125" lon="1.2650839984416961669921875">
        <ele>-84.8000030517578125</ele>
        <time>2025-09-05T12:27:18.000Z</time>
        <extensions>
          <ns3:TrackPointExtension>
            <ns3:hr>169</ns3:hr>
            <ns3:cad>81</ns3:cad>
          </ns3:TrackPointExtension>
        </extensions>
      </trkpt>
      <trkpt lat="52.065072320401668548583984375" lon="1.26509263180196285247802734375">
        <ele>-84.8000030517578125</ele>
        <time>2025-09-05T12:27:21.000Z</time>
        <extensions>
          <ns3:TrackPointExtension>
            <ns3:hr>168</ns3:hr>
            <ns3:cad>63</ns3:cad>
          </ns3:TrackPointExtension>
        </extensions>
      </trkpt>
      <trkpt lat="52.065080367028713226318359375" lon="1.26508961431682109832763671875">
        <ele>-85.40000152587890625</ele>
        <time>2025-09-05T12:27:22.000Z</time>
        <extensions>
          <ns3:TrackPointExtension>
            <ns3:hr>169</ns3:hr>
            <ns3:cad>55</ns3:cad>
          </ns3:TrackPointExtension>
        </extensions>
      </trkpt>
      <trkpt lat="52.06508263014256954193115234375" lon="1.2650962360203266143798828125">
        <ele>-86.1999969482421875</ele>
        <time>2025-09-05T12:27:23.000Z</time>
        <extensions>
          <ns3:TrackPointExtension>
            <ns3:hr>172</ns3:hr>
            <ns3:cad>55</ns3:cad>
          </ns3:TrackPointExtension>
        </extensions>
      </trkpt>
      <trkpt lat="52.06508682109415531158447265625" lon="1.26510403119027614593505859375">
        <ele>-87</ele>
        <time>2025-09-05T12:27:24.000Z</time>
        <extensions>
          <ns3:TrackPointExtension>
            <ns3:hr>172</ns3:hr>
            <ns3:cad>55</ns3:cad>
          </ns3:TrackPointExtension>
        </extensions>
      </trkpt>
      <trkpt lat="52.06509076058864593505859375" lon="1.26516002230346202850341796875">
        <ele>-88.40000152587890625</ele>
        <time>2025-09-05T12:27:27.000Z</time>
        <extensions>
          <ns3:TrackPointExtension>
            <ns3:hr>171</ns3:hr>
            <ns3:cad>58</ns3:cad>
          </ns3:TrackPointExtension>
        </extensions>
      </trkpt>
      <trkpt lat="52.06512604840099811553955078125" lon="1.26516756601631641387939453125">
        <ele>-91.1999969482421875</ele>
        <time>2025-09-05T12:27:29.000Z</time>
        <extensions>
          <ns3:TrackPointExtension>
            <ns3:hr>171</ns3:hr>
            <ns3:cad>117</ns3:cad>
          </ns3:TrackPointExtension>
        </extensions>
      </trkpt>
      <trkpt lat="52.06514440476894378662109375" lon="1.26517443917691707611083984375">
        <ele>-92.8000030517578125</ele>
        <time>2025-09-05T12:27:30.000Z</time>
        <extensions>
          <ns3:TrackPointExtension>
            <ns3:hr>171</ns3:hr>
            <ns3:cad>80</ns3:cad>
          </ns3:TrackPointExtension>
        </extensions>
      </trkpt>
      <trkpt lat="52.065161168575286865234375" lon="1.265186257660388946533203125">
        <ele>-94.40000152587890625</ele>
        <time>2025-09-05T12:27:31.000Z</time>
        <extensions>
          <ns3:TrackPointExtension>
            <ns3:hr>170</ns3:hr>
            <ns3:cad>80</ns3:cad>
          </ns3:TrackPointExtension>
        </extensions>
      </trkpt>
      <trkpt lat="52.0652002282440662384033203125" lon="1.2652020156383514404296875">
        <ele>-96.40000152587890625</ele>
        <time>2025-09-05T12:27:33.000Z</time>
        <extensions>
          <ns3:TrackPointExtension>
            <ns3:hr>172</ns3:hr>
            <ns3:cad>80</ns3:cad>
          </ns3:TrackPointExtension>
        </extensions>
      </trkpt>
      <trkpt lat="52.06526602618396282196044921875" lon="1.26520008780062198638916015625">
        <ele>-98.59999847412109375</ele>
        <time>2025-09-05T12:27:36.000Z</time>
        <extensions>
          <ns3:TrackPointExtension>
            <ns3:hr>171</ns3:hr>
            <ns3:cad>80</ns3:cad>
          </ns3:TrackPointExtension>
        </extensions>
      </trkpt>
      <trkpt lat="52.06533459015190601348876953125" lon="1.2652095593512058258056640625">
        <ele>-100.1999969482421875</ele>
        <time>2025-09-05T12:27:38.000Z</time>
        <extensions>
          <ns3:TrackPointExtension>
            <ns3:hr>171</ns3:hr>
            <ns3:cad>80</ns3:cad>
          </ns3:TrackPointExtension>
        </extensions>
      </trkpt>
      <trkpt lat="52.0653584785759449005126953125" lon="1.26521400175988674163818359375">
        <ele>-100.8000030517578125</ele>
        <time>2025-09-05T12:27:39.000Z</time>
        <extensions>
          <ns3:TrackPointExtension>
            <ns3:hr>172</ns3:hr>
            <ns3:cad>80</ns3:cad>
          </ns3:TrackPointExtension>
        </extensions>
      </trkpt>
      <trkpt lat="52.065383456647396087646484375" lon="1.2652129121124744415283203125">
        <ele>-101.40000152587890625</ele>
        <time>2025-09-05T12:27:41.000Z</time>
        <extensions>
          <ns3:TrackPointExtension>
            <ns3:hr>171</ns3:hr>
            <ns3:cad>79</ns3:cad>
          </ns3:TrackPointExtension>
        </extensions>
      </trkpt>
      <trkpt lat="52.0655663497745990753173828125" lon="1.26518256962299346923828125">
        <ele>-101.59999847412109375</ele>
        <time>2025-09-05T12:27:47.000Z</time>
        <extensions>
          <ns3:TrackPointExtension>
            <ns3:hr>171</ns3:hr>
            <ns3:cad>80</ns3:cad>
          </ns3:TrackPointExtension>
        </extensions>
      </trkpt>
      <trkpt lat="52.06558705307543277740478515625" lon="1.265184581279754638671875">
        <ele>-101.59999847412109375</ele>
        <time>2025-09-05T12:27:48.000Z</time>
        <extensions>
          <ns3:TrackPointExtension>
            <ns3:hr>173</ns3:hr>
            <ns3:cad>80</ns3:cad>
          </ns3:TrackPointExtension>
        </extensions>
      </trkpt>
      <trkpt lat="52.06570423208177089691162109375" lon="1.26520402729511260986328125">
        <ele>-101.1999969482421875</ele>
        <time>2025-09-05T12:27:56.000Z</time>
        <extensions>
          <ns3:TrackPointExtension>
            <ns3:hr>175</ns3:hr>
            <ns3:cad>80</ns3:cad>
          </ns3:TrackPointExtension>
        </extensions>
      </trkpt>
      <trkpt lat="52.06573046743869781494140625" lon="1.26520805060863494873046875">
        <ele>-100</ele>
        <time>2025-09-05T12:27:58.000Z</time>
        <extensions>
          <ns3:TrackPointExtension>
            <ns3:hr>176</ns3:hr>
            <ns3:cad>81</ns3:cad>
          </ns3:TrackPointExtension>
        </extensions>
      </trkpt>
      <trkpt lat="52.0657755620777606964111328125" lon="1.2652055360376834869384765625">
        <ele>-99</ele>
        <time>2025-09-05T12:28:00.000Z</time>
        <extensions>
          <ns3:TrackPointExtension>
            <ns3:hr>179</ns3:hr>
            <ns3:cad>81</ns3:cad>
          </ns3:TrackPointExtension>
        </extensions>
      </trkpt>
      <trkpt lat="52.0658491551876068115234375" lon="1.26518768258392810821533203125">
        <ele>-98</ele>
        <time>2025-09-05T12:28:05.000Z</time>
        <extensions>
          <ns3:TrackPointExtension>
            <ns3:hr>179</ns3:hr>
            <ns3:cad>80</ns3:cad>
          </ns3:TrackPointExtension>
        </extensions>
      </trkpt>
      <trkpt lat="52.065912522375583648681640625" lon="1.2651844136416912078857421875">
        <ele>-96.59999847412109375</ele>
        <time>2025-09-05T12:28:08.000Z</time>
        <extensions>
          <ns3:TrackPointExtension>
            <ns3:hr>178</ns3:hr>
            <ns3:cad>80</ns3:cad>
          </ns3:TrackPointExtension>
        </extensions>
      </trkpt>
      <trkpt lat="52.06597077660262584686279296875" lon="1.26517829485237598419189453125">
        <ele>-95.59999847412109375</ele>
        <time>2025-09-05T12:28:13.000Z</time>
        <extensions>
          <ns3:TrackPointExtension>
            <ns3:hr>178</ns3:hr>
            <ns3:cad>81</ns3:cad>
          </ns3:TrackPointExtension>
        </extensions>
      </trkpt>
      <trkpt lat="52.06598871387541294097900390625" lon="1.26518181525170803070068359375">
        <ele>-95</ele>
        <time>2025-09-05T12:28:14.000Z</time>
        <extensions>
          <ns3:TrackPointExtension>
            <ns3:hr>177</ns3:hr>
            <ns3:cad>81</ns3:cad>
          </ns3:TrackPointExtension>
        </extensions>
      </trkpt>
      <trkpt lat="52.06605191342532634735107421875" lon="1.26519924961030483245849609375">
        <ele>-94.40000152587890625</ele>
        <time>2025-09-05T12:28:16.000Z</time>
        <extensions>
          <ns3:TrackPointExtension>
            <ns3:hr>179</ns3:hr>
            <ns3:cad>81</ns3:cad>
          </ns3:TrackPointExtension>
        </extensions>
      </trkpt>
      <trkpt lat="52.06606733612716197967529296875" lon="1.26520612277090549468994140625">
        <ele>-93.1999969482421875</ele>
        <time>2025-09-05T12:28:18.000Z</time>
        <extensions>
          <ns3:TrackPointExtension>
            <ns3:hr>179</ns3:hr>
            <ns3:cad>81</ns3:cad>
          </ns3:TrackPointExtension>
        </extensions>
      </trkpt>
      <trkpt lat="52.066171355545520782470703125" lon="1.2652135826647281646728515625">
        <ele>-92.1999969482421875</ele>
        <time>2025-09-05T12:28:23.000Z</time>
        <extensions>
          <ns3:TrackPointExtension>
            <ns3:hr>178</ns3:hr>
            <ns3:cad>80</ns3:cad>
          </ns3:TrackPointExtension>
        </extensions>
      </trkpt>
      <trkpt lat="52.06619583070278167724609375" lon="1.2652226351201534271240234375">
        <ele>-91</ele>
        <time>2025-09-05T12:28:26.000Z</time>
        <extensions>
          <ns3:TrackPointExtension>
            <ns3:hr>178</ns3:hr>
            <ns3:cad>80</ns3:cad>
          </ns3:TrackPointExtension>
        </extensions>
      </trkpt>
      <trkpt lat="52.0662407577037811279296875" lon="1.26521333120763301849365234375">
        <ele>-90</ele>
        <time>2025-09-05T12:28:28.000Z</time>
        <extensions>
          <ns3:TrackPointExtension>
            <ns3:hr>174</ns3:hr>
            <ns3:cad>81</ns3:cad>
          </ns3:TrackPointExtension>
        </extensions>
      </trkpt>
      <trkpt lat="52.06626246683299541473388671875" lon="1.26520779915153980255126953125">
        <ele>-89.1999969482421875</ele>
        <time>2025-09-05T12:28:29.000Z</time>
        <extensions>
          <ns3:TrackPointExtension>
            <ns3:hr>174</ns3:hr>
            <ns3:cad>81</ns3:cad>
          </ns3:TrackPointExtension>
        </extensions>
      </trkpt>
      <trkpt lat="52.0662965811789035797119140625" lon="1.265204362571239471435546875">
        <ele>-88</ele>
        <time>2025-09-05T12:28:31.000Z</time>
        <extensions>
          <ns3:TrackPointExtension>
            <ns3:hr>172</ns3:hr>
            <ns3:cad>81</ns3:cad>
          </ns3:TrackPointExtension>
        </extensions>
      </trkpt>
      <trkpt lat="52.066336981952190399169921875" lon="1.26520243473351001739501953125">
        <ele>-86.59999847412109375</ele>
        <time>2025-09-05T12:28:33.000Z</time>
        <extensions>
          <ns3:TrackPointExtension>
            <ns3:hr>171</ns3:hr>
            <ns3:cad>80</ns3:cad>
          </ns3:TrackPointExtension>
        </extensions>
      </trkpt>
      <trkpt lat="52.06635634414851665496826171875" lon="1.2652045302093029022216796875">
        <ele>-85.40000152587890625</ele>
        <time>2025-09-05T12:28:34.000Z</time>
        <extensions>
          <ns3:TrackPointExtension>
            <ns3:hr>171</ns3:hr>
            <ns3:cad>80</ns3:cad>
          </ns3:TrackPointExtension>
        </extensions>
      </trkpt>
      <trkpt lat="52.06637847237288951873779296875" lon="1.2652052007615566253662109375">
        <ele>-84.1999969482421875</ele>
        <time>2025-09-05T12:28:35.000Z</time>
        <extensions>
          <ns3:TrackPointExtension>
            <ns3:hr>170</ns3:hr>
            <ns3:cad>81</ns3:cad>
          </ns3:TrackPointExtension>
        </extensions>
      </trkpt>
      <trkpt lat="52.0664377324283123016357421875" lon="1.26520746387541294097900390625">
        <ele>-82.8000030517578125</ele>
        <time>2025-09-05T12:28:37.000Z</time>
        <extensions>
          <ns3:TrackPointExtension>
            <ns3:hr>170</ns3:hr>
            <ns3:cad>81</ns3:cad>
          </ns3:TrackPointExtension>
        </extensions>
      </trkpt>
      <trkpt lat="52.06651090644299983978271484375" lon="1.2651979923248291015625">
        <ele>-81.59999847412109375</ele>
        <time>2025-09-05T12:28:40.000Z</time>
        <extensions>
          <ns3:TrackPointExtension>
            <ns3:hr>170</ns3:hr>
            <ns3:cad>81</ns3:cad>
          </ns3:TrackPointExtension>
        </extensions>
      </trkpt>
      <trkpt lat="52.06656329333782196044921875" lon="1.265182904899120330810546875">
        <ele>-79.8000030517578125</ele>
        <time>2025-09-05T12:28:43.000Z</time>
        <extensions>
          <ns3:TrackPointExtension>
            <ns3:hr>171</ns3:hr>
            <ns3:cad>81</ns3:cad>
          </ns3:TrackPointExtension>
        </extensions>
      </trkpt>
      <trkpt lat="52.0665966533124446868896484375" lon="1.2651870958507061004638671875">
        <ele>-78.59999847412109375</ele>
        <time>2025-09-05T12:28:45.000Z</time>
        <extensions>
          <ns3:TrackPointExtension>
            <ns3:hr>173</ns3:hr>
            <ns3:cad>81</ns3:cad>
          </ns3:TrackPointExtension>
        </extensions>
      </trkpt>
      <trkpt lat="52.06667385064065456390380859375" lon="1.26520981080830097198486328125">
        <ele>-78</ele>
        <time>2025-09-05T12:28:48.000Z</time>
        <extensions>
          <ns3:TrackPointExtension>
            <ns3:hr>173</ns3:hr>
            <ns3:cad>81</ns3:cad>
          </ns3:TrackPointExtension>
        </extensions>
      </trkpt>
      <trkpt lat="52.06678549759089946746826171875" lon="1.265337802469730377197265625">
        <ele>-77.59999847412109375</ele>
        <time>2025-09-05T12:28:53.000Z</time>
        <extensions>
          <ns3:TrackPointExtension>
            <ns3:hr>172</ns3:hr>
            <ns3:cad>82</ns3:cad>
          </ns3:TrackPointExtension>
        </extensions>
      </trkpt>
      <trkpt lat="52.0668528042733669281005859375" lon="1.26539806835353374481201171875">
        <ele>-78.1999969482421875</ele>
        <time>2025-09-05T12:28:58.000Z</time>
        <extensions>
          <ns3:TrackPointExtension>
            <ns3:hr>169</ns3:hr>
            <ns3:cad>0</ns3:cad>
          </ns3:TrackPointExtension>
        </extensions>
      </trkpt>
      <trkpt lat="52.06688649952411651611328125" lon="1.2653936259448528289794921875">
        <ele>-78</ele>
        <time>2025-09-05T12:29:00.000Z</time>
        <extensions>
          <ns3:TrackPointExtension>
            <ns3:hr>171</ns3:hr>
            <ns3:cad>0</ns3:cad>
          </ns3:TrackPointExtension>
        </extensions>
      </trkpt>
      <trkpt lat="52.0669081248342990875244140625" lon="1.26537191681563854217529296875">
        <ele>-77.8000030517578125</ele>
        <time>2025-09-05T12:29:05.000Z</time>
        <extensions>
          <ns3:TrackPointExtension>
            <ns3:hr>168</ns3:hr>
            <ns3:cad>0</ns3:cad>
          </ns3:TrackPointExtension>
        </extensions>
      </trkpt>
      <trkpt lat="52.06692011095583438873291015625" lon="1.26536537893116474151611328125">
        <ele>-78.1999969482421875</ele>
        <time>2025-09-05T12:29:08.000Z</time>
        <extensions>
          <ns3:TrackPointExtension>
            <ns3:hr>167</ns3:hr>
            <ns3:cad>0</ns3:cad>
          </ns3:TrackPointExtension>
        </extensions>
      </trkpt>
      <trkpt lat="52.0669557340443134307861328125" lon="1.265422292053699493408203125">
        <ele>-79.59999847412109375</ele>
        <time>2025-09-05T12:29:16.000Z</time>
        <extensions>
          <ns3:TrackPointExtension>
            <ns3:hr>167</ns3:hr>
            <ns3:cad>0</ns3:cad>
          </ns3:TrackPointExtension>
        </extensions>
      </trkpt>
      <trkpt lat="52.0669698156416416168212890625" lon="1.2654432468116283416748046875">
        <ele>-80</ele>
        <time>2025-09-05T12:29:17.000Z</time>
        <extensions>
          <ns3:TrackPointExtension>
            <ns3:hr>166</ns3:hr>
            <ns3:cad>0</ns3:cad>
          </ns3:TrackPointExtension>
        </extensions>
      </trkpt>
      <trkpt lat="52.067014910280704498291015625" lon="1.2655002437531948089599609375">
        <ele>-81.1999969482421875</ele>
        <time>2025-09-05T12:29:20.000Z</time>
        <extensions>
          <ns3:TrackPointExtension>
            <ns3:hr>164</ns3:hr>
            <ns3:cad>0</ns3:cad>
          </ns3:TrackPointExtension>
        </extensions>
      </trkpt>
      <trkpt lat="52.067032344639301300048828125" lon="1.26553569920361042022705078125">
        <ele>-82.59999847412109375</ele>
        <time>2025-09-05T12:29:22.000Z</time>
        <extensions>
          <ns3:TrackPointExtension>
            <ns3:hr>163</ns3:hr>
            <ns3:cad>0</ns3:cad>
          </ns3:TrackPointExtension>
        </extensions>
      </trkpt>
      <trkpt lat="52.06703091971576213836669921875" lon="1.26554927788674831390380859375">
        <ele>-84.40000152587890625</ele>
        <time>2025-09-05T12:29:24.000Z</time>
        <extensions>
          <ns3:TrackPointExtension>
            <ns3:hr>162</ns3:hr>
            <ns3:cad>0</ns3:cad>
          </ns3:TrackPointExtension>
        </extensions>
      </trkpt>
      <trkpt lat="52.06704651005566120147705078125" lon="1.26558548770844936370849609375">
        <ele>-91.40000152587890625</ele>
        <time>2025-09-05T12:29:25.000Z</time>
        <extensions>
          <ns3:TrackPointExtension>
            <ns3:hr>161</ns3:hr>
            <ns3:cad>57</ns3:cad>
          </ns3:TrackPointExtension>
        </extensions>
      </trkpt>
      <trkpt lat="52.06704768352210521697998046875" lon="1.26560459844768047332763671875">
        <ele>-97.40000152587890625</ele>
        <time>2025-09-05T12:29:26.000Z</time>
        <extensions>
          <ns3:TrackPointExtension>
            <ns3:hr>161</ns3:hr>
            <ns3:cad>57</ns3:cad>
          </ns3:TrackPointExtension>
        </extensions>
      </trkpt>
      <trkpt lat="52.0670481026172637939453125" lon="1.265623457729816436767578125">
        <ele>-100.59999847412109375</ele>
        <time>2025-09-05T12:29:27.000Z</time>
        <extensions>
          <ns3:TrackPointExtension>
            <ns3:hr>161</ns3:hr>
            <ns3:cad>57</ns3:cad>
          </ns3:TrackPointExtension>
        </extensions>
      </trkpt>
      <trkpt lat="52.06705749034881591796875" lon="1.2656418979167938232421875">
        <ele>-102.40000152587890625</ele>
        <time>2025-09-05T12:29:28.000Z</time>
        <extensions>
          <ns3:TrackPointExtension>
            <ns3:hr>162</ns3:hr>
            <ns3:cad>57</ns3:cad>
          </ns3:TrackPointExtension>
        </extensions>
      </trkpt>
      <trkpt lat="52.06706260330975055694580078125" lon="1.265657655894756317138671875">
        <ele>-105.1999969482421875</ele>
        <time>2025-09-05T12:29:29.000Z</time>
        <extensions>
          <ns3:TrackPointExtension>
            <ns3:hr>162</ns3:hr>
            <ns3:cad>58</ns3:cad>
          </ns3:TrackPointExtension>
        </extensions>
      </trkpt>
      <trkpt lat="52.0670710690319538116455078125" lon="1.2656700611114501953125">
        <ele>-107.59999847412109375</ele>
        <time>2025-09-05T12:29:30.000Z</time>
        <extensions>
          <ns3:TrackPointExtension>
            <ns3:hr>162</ns3:hr>
            <ns3:cad>58</ns3:cad>
          </ns3:TrackPointExtension>
        </extensions>
      </trkpt>
      <trkpt lat="52.0670771040022373199462890625" lon="1.26568280160427093505859375">
        <ele>-110.8000030517578125</ele>
        <time>2025-09-05T12:29:31.000Z</time>
        <extensions>
          <ns3:TrackPointExtension>
            <ns3:hr>161</ns3:hr>
            <ns3:cad>58</ns3:cad>
          </ns3:TrackPointExtension>
        </extensions>
      </trkpt>
      <trkpt lat="52.06708556972444057464599609375" lon="1.2657040916383266448974609375">
        <ele>-113</ele>
        <time>2025-09-05T12:29:32.000Z</time>
        <extensions>
          <ns3:TrackPointExtension>
            <ns3:hr>161</ns3:hr>
            <ns3:cad>58</ns3:cad>
          </ns3:TrackPointExtension>
        </extensions>
      </trkpt>
      <trkpt lat="52.0671072788536548614501953125" lon="1.26571859233081340789794921875">
        <ele>-115.40000152587890625</ele>
        <time>2025-09-05T12:29:33.000Z</time>
        <extensions>
          <ns3:TrackPointExtension>
            <ns3:hr>159</ns3:hr>
            <ns3:cad>58</ns3:cad>
          </ns3:TrackPointExtension>
        </extensions>
      </trkpt>
      <trkpt lat="52.0671166665852069854736328125" lon="1.26573686487972736358642578125">
        <ele>-117.8000030517578125</ele>
        <time>2025-09-05T12:29:34.000Z</time>
        <extensions>
          <ns3:TrackPointExtension>
            <ns3:hr>160</ns3:hr>
            <ns3:cad>58</ns3:cad>
          </ns3:TrackPointExtension>
        </extensions>
      </trkpt>
      <trkpt lat="52.06711985170841217041015625" lon="1.26575798727571964263916015625">
        <ele>-120.40000152587890625</ele>
        <time>2025-09-05T12:29:35.000Z</time>
        <extensions>
          <ns3:TrackPointExtension>
            <ns3:hr>160</ns3:hr>
            <ns3:cad>58</ns3:cad>
          </ns3:TrackPointExtension>
        </extensions>
      </trkpt>
      <trkpt lat="52.0671216957271099090576171875" lon="1.26578682102262973785400390625">
        <ele>-122</ele>
        <time>2025-09-05T12:29:36.000Z</time>
        <extensions>
          <ns3:TrackPointExtension>
            <ns3:hr>161</ns3:hr>
            <ns3:cad>58</ns3:cad>
          </ns3:TrackPointExtension>
        </extensions>
      </trkpt>
      <trkpt lat="52.0671334303915500640869140625" lon="1.265846751630306243896484375">
        <ele>-123.40000152587890625</ele>
        <time>2025-09-05T12:29:38.000Z</time>
        <extensions>
          <ns3:TrackPointExtension>
            <ns3:hr>161</ns3:hr>
            <ns3:cad>58</ns3:cad>
          </ns3:TrackPointExtension>
        </extensions>
      </trkpt>
      <trkpt lat="52.0671672932803630828857421875" lon="1.26596032641828060150146484375">
        <ele>-124</ele>
        <time>2025-09-05T12:29:41.000Z</time>
        <extensions>
          <ns3:TrackPointExtension>
            <ns3:hr>161</ns3:hr>
            <ns3:cad>79</ns3:cad>
          </ns3:TrackPointExtension>
        </extensions>
      </trkpt>
      <trkpt lat="52.067180536687374114990234375" lon="1.26602947711944580078125">
        <ele>-125</ele>
        <time>2025-09-05T12:29:43.000Z</time>
        <extensions>
          <ns3:TrackPointExtension>
            <ns3:hr>158</ns3:hr>
            <ns3:cad>79</ns3:cad>
          </ns3:TrackPointExtension>
        </extensions>
      </trkpt>
      <trkpt lat="52.0672035031020641326904296875" lon="1.26619518734514713287353515625">
        <ele>-125.8000030517578125</ele>
        <time>2025-09-05T12:29:48.000Z</time>
        <extensions>
          <ns3:TrackPointExtension>
            <ns3:hr>163</ns3:hr>
            <ns3:cad>81</ns3:cad>
          </ns3:TrackPointExtension>
        </extensions>
      </trkpt>
      <trkpt lat="52.0672278106212615966796875" lon="1.266262829303741455078125">
        <ele>-124.1999969482421875</ele>
        <time>2025-09-05T12:29:50.000Z</time>
        <extensions>
          <ns3:TrackPointExtension>
            <ns3:hr>163</ns3:hr>
            <ns3:cad>81</ns3:cad>
          </ns3:TrackPointExtension>
        </extensions>
      </trkpt>
      <trkpt lat="52.06723610870540142059326171875" lon="1.26629694364964962005615234375">
        <ele>-123.1999969482421875</ele>
        <time>2025-09-05T12:29:51.000Z</time>
        <extensions>
          <ns3:TrackPointExtension>
            <ns3:hr>166</ns3:hr>
            <ns3:cad>81</ns3:cad>
          </ns3:TrackPointExtension>
        </extensions>
      </trkpt>
      <trkpt lat="52.06724063493311405181884765625" lon="1.26636207103729248046875">
        <ele>-120.59999847412109375</ele>
        <time>2025-09-05T12:29:53.000Z</time>
        <extensions>
          <ns3:TrackPointExtension>
            <ns3:hr>168</ns3:hr>
            <ns3:cad>81</ns3:cad>
          </ns3:TrackPointExtension>
        </extensions>
      </trkpt>
      <trkpt lat="52.06724499352276325225830078125" lon="1.26639551483094692230224609375">
        <ele>-118</ele>
        <time>2025-09-05T12:29:54.000Z</time>
        <extensions>
          <ns3:TrackPointExtension>
            <ns3:hr>170</ns3:hr>
            <ns3:cad>81</ns3:cad>
          </ns3:TrackPointExtension>
        </extensions>
      </trkpt>
      <trkpt lat="52.0672517828643321990966796875" lon="1.2664262764155864715576171875">
        <ele>-116.59999847412109375</ele>
        <time>2025-09-05T12:29:55.000Z</time>
        <extensions>
          <ns3:TrackPointExtension>
            <ns3:hr>169</ns3:hr>
            <ns3:cad>81</ns3:cad>
          </ns3:TrackPointExtension>
        </extensions>
      </trkpt>
      <trkpt lat="52.0672578178346157073974609375" lon="1.26645636744797229766845703125">
        <ele>-115.1999969482421875</ele>
        <time>2025-09-05T12:29:56.000Z</time>
        <extensions>
          <ns3:TrackPointExtension>
            <ns3:hr>171</ns3:hr>
            <ns3:cad>81</ns3:cad>
          </ns3:TrackPointExtension>
        </extensions>
      </trkpt>
      <trkpt lat="52.0672787725925445556640625" lon="1.26653163693845272064208984375">
        <ele>-113.1999969482421875</ele>
        <time>2025-09-05T12:29:58.000Z</time>
        <extensions>
          <ns3:TrackPointExtension>
            <ns3:hr>171</ns3:hr>
            <ns3:cad>80</ns3:cad>
          </ns3:TrackPointExtension>
        </extensions>
      </trkpt>
      <trkpt lat="52.0672920159995555877685546875" lon="1.2665645778179168701171875">
        <ele>-112.59999847412109375</ele>
        <time>2025-09-05T12:29:59.000Z</time>
        <extensions>
          <ns3:TrackPointExtension>
            <ns3:hr>170</ns3:hr>
            <ns3:cad>80</ns3:cad>
          </ns3:TrackPointExtension>
        </extensions>
      </trkpt>
      <trkpt lat="52.06731858663260936737060546875" lon="1.26662802882492542266845703125">
        <ele>-111.40000152587890625</ele>
        <time>2025-09-05T12:30:01.000Z</time>
        <extensions>
          <ns3:TrackPointExtension>
            <ns3:hr>171</ns3:hr>
            <ns3:cad>81</ns3:cad>
          </ns3:TrackPointExtension>
        </extensions>
      </trkpt>
      <trkpt lat="52.0673379488289356231689453125" lon="1.26673866994678974151611328125">
        <ele>-110</ele>
        <time>2025-09-05T12:30:04.000Z</time>
        <extensions>
          <ns3:TrackPointExtension>
            <ns3:hr>170</ns3:hr>
            <ns3:cad>80</ns3:cad>
          </ns3:TrackPointExtension>
        </extensions>
      </trkpt>
      <trkpt lat="52.067348174750804901123046875" lon="1.26678225584328174591064453125">
        <ele>-108.8000030517578125</ele>
        <time>2025-09-05T12:30:05.000Z</time>
        <extensions>
          <ns3:TrackPointExtension>
            <ns3:hr>171</ns3:hr>
            <ns3:cad>80</ns3:cad>
          </ns3:TrackPointExtension>
        </extensions>
      </trkpt>
      <trkpt lat="52.0673677884042263031005859375" lon="1.26685903407633304595947265625">
        <ele>-107.8000030517578125</ele>
        <time>2025-09-05T12:30:07.000Z</time>
        <extensions>
          <ns3:TrackPointExtension>
            <ns3:hr>172</ns3:hr>
            <ns3:cad>80</ns3:cad>
          </ns3:TrackPointExtension>
        </extensions>
      </trkpt>
      <trkpt lat="52.06738404929637908935546875" lon="1.26689390279352664947509765625">
        <ele>-106.59999847412109375</ele>
        <time>2025-09-05T12:30:08.000Z</time>
        <extensions>
          <ns3:TrackPointExtension>
            <ns3:hr>171</ns3:hr>
            <ns3:cad>80</ns3:cad>
          </ns3:TrackPointExtension>
        </extensions>
      </trkpt>
      <trkpt lat="52.06740743480622768402099609375" lon="1.26697537489235401153564453125">
        <ele>-105.59999847412109375</ele>
        <time>2025-09-05T12:30:10.000Z</time>
        <extensions>
          <ns3:TrackPointExtension>
            <ns3:hr>170</ns3:hr>
            <ns3:cad>81</ns3:cad>
          </ns3:TrackPointExtension>
        </extensions>
      </trkpt>
      <trkpt lat="52.0674155652523040771484375" lon="1.2670197151601314544677734375">
        <ele>-105.1999969482421875</ele>
        <time>2025-09-05T12:30:11.000Z</time>
        <extensions>
          <ns3:TrackPointExtension>
            <ns3:hr>173</ns3:hr>
            <ns3:cad>81</ns3:cad>
          </ns3:TrackPointExtension>
        </extensions>
      </trkpt>
      <trkpt lat="52.067431993782520294189453125" lon="1.26716011203825473785400390625">
        <ele>-104.1999969482421875</ele>
        <time>2025-09-05T12:30:15.000Z</time>
        <extensions>
          <ns3:TrackPointExtension>
            <ns3:hr>172</ns3:hr>
            <ns3:cad>81</ns3:cad>
          </ns3:TrackPointExtension>
        </extensions>
      </trkpt>
      <trkpt lat="52.06743174232542514801025390625" lon="1.26719330437481403350830078125">
        <ele>-104.1999969482421875</ele>
        <time>2025-09-05T12:30:16.000Z</time>
        <extensions>
          <ns3:TrackPointExtension>
            <ns3:hr>172</ns3:hr>
            <ns3:cad>81</ns3:cad>
          </ns3:TrackPointExtension>
        </extensions>
      </trkpt>
      <trkpt lat="52.06746124662458896636962890625" lon="1.267335377633571624755859375">
        <ele>-103</ele>
        <time>2025-09-05T12:30:20.000Z</time>
        <extensions>
          <ns3:TrackPointExtension>
            <ns3:hr>174</ns3:hr>
            <ns3:cad>82</ns3:cad>
          </ns3:TrackPointExtension>
        </extensions>
      </trkpt>
      <trkpt lat="52.06747298128902912139892578125" lon="1.26739715225994586944580078125">
        <ele>-102</ele>
        <time>2025-09-05T12:30:22.000Z</time>
        <extensions>
          <ns3:TrackPointExtension>
            <ns3:hr>175</ns3:hr>
            <ns3:cad>82</ns3:cad>
          </ns3:TrackPointExtension>
        </extensions>
      </trkpt>
      <trkpt lat="52.06750064156949520111083984375" lon="1.26748331822454929351806640625">
        <ele>-101</ele>
        <time>2025-09-05T12:30:25.000Z</time>
        <extensions>
          <ns3:TrackPointExtension>
            <ns3:hr>177</ns3:hr>
            <ns3:cad>81</ns3:cad>
          </ns3:TrackPointExtension>
        </extensions>
      </trkpt>
      <trkpt lat="52.0675337500870227813720703125" lon="1.2675797939300537109375">
        <ele>-99.8000030517578125</ele>
        <time>2025-09-05T12:30:28.000Z</time>
        <extensions>
          <ns3:TrackPointExtension>
            <ns3:hr>175</ns3:hr>
            <ns3:cad>81</ns3:cad>
          </ns3:TrackPointExtension>
        </extensions>
      </trkpt>
      <trkpt lat="52.06754070706665515899658203125" lon="1.2676604278385639190673828125">
        <ele>-99.1999969482421875</ele>
        <time>2025-09-05T12:30:31.000Z</time>
        <extensions>
          <ns3:TrackPointExtension>
            <ns3:hr>178</ns3:hr>
            <ns3:cad>81</ns3:cad>
          </ns3:TrackPointExtension>
        </extensions>
      </trkpt>
      <trkpt lat="52.0675431378185749053955078125" lon="1.2676952965557575225830078125">
        <ele>-98.8000030517578125</ele>
        <time>2025-09-05T12:30:32.000Z</time>
        <extensions>
          <ns3:TrackPointExtension>
            <ns3:hr>179</ns3:hr>
            <ns3:cad>81</ns3:cad>
          </ns3:TrackPointExtension>
        </extensions>
      </trkpt>
      <trkpt lat="52.06754590384662151336669921875" lon="1.26774013973772525787353515625">
        <ele>-98.59999847412109375</ele>
        <time>2025-09-05T12:30:33.000Z</time>
        <extensions>
          <ns3:TrackPointExtension>
            <ns3:hr>179</ns3:hr>
            <ns3:cad>80</ns3:cad>
          </ns3:TrackPointExtension>
        </extensions>
      </trkpt>
      <trkpt lat="52.06755143590271472930908203125" lon="1.2678615935146808624267578125">
        <ele>-98</ele>
        <time>2025-09-05T12:30:36.000Z</time>
        <extensions>
          <ns3:TrackPointExtension>
            <ns3:hr>182</ns3:hr>
            <ns3:cad>81</ns3:cad>
          </ns3:TrackPointExtension>
        </extensions>
      </trkpt>
      <trkpt lat="52.06755629740655422210693359375" lon="1.26789319328963756561279296875">
        <ele>-97.8000030517578125</ele>
        <time>2025-09-05T12:30:37.000Z</time>
        <extensions>
          <ns3:TrackPointExtension>
            <ns3:hr>182</ns3:hr>
            <ns3:cad>81</ns3:cad>
          </ns3:TrackPointExtension>
        </extensions>
      </trkpt>
      <trkpt lat="52.067572809755802154541015625" lon="1.26805328764021396636962890625">
        <ele>-97.40000152587890625</ele>
        <time>2025-09-05T12:30:41.000Z</time>
        <extensions>
          <ns3:TrackPointExtension>
            <ns3:hr>182</ns3:hr>
            <ns3:cad>82</ns3:cad>
          </ns3:TrackPointExtension>
        </extensions>
      </trkpt>
      <trkpt lat="52.067645899951457977294921875" lon="1.2682454846799373626708984375">
        <ele>-97</ele>
        <time>2025-09-05T12:30:46.000Z</time>
        <extensions>
          <ns3:TrackPointExtension>
            <ns3:hr>185</ns3:hr>
            <ns3:cad>82</ns3:cad>
          </ns3:TrackPointExtension>
        </extensions>
      </trkpt>
      <trkpt lat="52.06766341812908649444580078125" lon="1.26828831620514392852783203125">
        <ele>-96.59999847412109375</ele>
        <time>2025-09-05T12:30:47.000Z</time>
        <extensions>
          <ns3:TrackPointExtension>
            <ns3:hr>184</ns3:hr>
            <ns3:cad>82</ns3:cad>
          </ns3:TrackPointExtension>
        </extensions>
      </trkpt>
      <trkpt lat="52.067685462534427642822265625" lon="1.26836836338043212890625">
        <ele>-96.1999969482421875</ele>
        <time>2025-09-05T12:30:49.000Z</time>
        <extensions>
          <ns3:TrackPointExtension>
            <ns3:hr>186</ns3:hr>
            <ns3:cad>82</ns3:cad>
          </ns3:TrackPointExtension>
        </extensions>
      </trkpt>
      <trkpt lat="52.06767062656581401824951171875" lon="1.26849777996540069580078125">
        <ele>-95.1999969482421875</ele>
        <time>2025-09-05T12:30:52.000Z</time>
        <extensions>
          <ns3:TrackPointExtension>
            <ns3:hr>185</ns3:hr>
            <ns3:cad>83</ns3:cad>
          </ns3:TrackPointExtension>
        </extensions>
      </trkpt>
      <trkpt lat="52.06768353469669818878173828125" lon="1.2685918249189853668212890625">
        <ele>-94.1999969482421875</ele>
        <time>2025-09-05T12:30:55.000Z</time>
        <extensions>
          <ns3:TrackPointExtension>
            <ns3:hr>187</ns3:hr>
            <ns3:cad>83</ns3:cad>
          </ns3:TrackPointExtension>
        </extensions>
      </trkpt>
      <trkpt lat="52.06768906675279140472412109375" lon="1.268633902072906494140625">
        <ele>-93.8000030517578125</ele>
        <time>2025-09-05T12:30:56.000Z</time>
        <extensions>
          <ns3:TrackPointExtension>
            <ns3:hr>187</ns3:hr>
            <ns3:cad>83</ns3:cad>
          </ns3:TrackPointExtension>
        </extensions>
      </trkpt>
      <trkpt lat="52.06771069206297397613525390625" lon="1.2687111832201480865478515625">
        <ele>-93</ele>
        <time>2025-09-05T12:30:58.000Z</time>
        <extensions>
          <ns3:TrackPointExtension>
            <ns3:hr>188</ns3:hr>
            <ns3:cad>84</ns3:cad>
          </ns3:TrackPointExtension>
        </extensions>
      </trkpt>
      <trkpt lat="52.0677097700536251068115234375" lon="1.268822662532329559326171875">
        <ele>-92</ele>
        <time>2025-09-05T12:31:01.000Z</time>
        <extensions>
          <ns3:TrackPointExtension>
            <ns3:hr>183</ns3:hr>
            <ns3:cad>84</ns3:cad>
          </ns3:TrackPointExtension>
        </extensions>
      </trkpt>
      <trkpt lat="52.0677161403000354766845703125" lon="1.26886264421045780181884765625">
        <ele>-91</ele>
        <time>2025-09-05T12:31:02.000Z</time>
        <extensions>
          <ns3:TrackPointExtension>
            <ns3:hr>183</ns3:hr>
            <ns3:cad>83</ns3:cad>
          </ns3:TrackPointExtension>
        </extensions>
      </trkpt>
      <trkpt lat="52.06772963516414165496826171875" lon="1.26894445158541202545166015625">
        <ele>-90</ele>
        <time>2025-09-05T12:31:04.000Z</time>
        <extensions>
          <ns3:TrackPointExtension>
            <ns3:hr>183</ns3:hr>
            <ns3:cad>83</ns3:cad>
          </ns3:TrackPointExtension>
        </extensions>
      </trkpt>
      <trkpt lat="52.0677429623901844024658203125" lon="1.26901553012430667877197265625">
        <ele>-89</ele>
        <time>2025-09-05T12:31:06.000Z</time>
        <extensions>
          <ns3:TrackPointExtension>
            <ns3:hr>182</ns3:hr>
            <ns3:cad>83</ns3:cad>
          </ns3:TrackPointExtension>
        </extensions>
      </trkpt>
      <trkpt lat="52.06776626408100128173828125" lon="1.269122064113616943359375">
        <ele>-87.8000030517578125</ele>
        <time>2025-09-05T12:31:09.000Z</time>
        <extensions>
          <ns3:TrackPointExtension>
            <ns3:hr>181</ns3:hr>
            <ns3:cad>83</ns3:cad>
          </ns3:TrackPointExtension>
        </extensions>
      </trkpt>
      <trkpt lat="52.06778042949736118316650390625" lon="1.2692425958812236785888671875">
        <ele>-86.8000030517578125</ele>
        <time>2025-09-05T12:31:12.000Z</time>
        <extensions>
          <ns3:TrackPointExtension>
            <ns3:hr>182</ns3:hr>
            <ns3:cad>83</ns3:cad>
          </ns3:TrackPointExtension>
        </extensions>
      </trkpt>
      <trkpt lat="52.06778311170637607574462890625" lon="1.2692965753376483917236328125">
        <ele>-86.8000030517578125</ele>
        <time>2025-09-05T12:31:13.000Z</time>
        <extensions>
          <ns3:TrackPointExtension>
            <ns3:hr>181</ns3:hr>
            <ns3:cad>83</ns3:cad>
          </ns3:TrackPointExtension>
        </extensions>
      </trkpt>
      <trkpt lat="52.06785586662590503692626953125" lon="1.26952062360942363739013671875">
        <ele>-86.8000030517578125</ele>
        <time>2025-09-05T12:31:18.000Z</time>
        <extensions>
          <ns3:TrackPointExtension>
            <ns3:hr>178</ns3:hr>
            <ns3:cad>80</ns3:cad>
          </ns3:TrackPointExtension>
        </extensions>
      </trkpt>
      <trkpt lat="52.0678929984569549560546875" lon="1.26958834938704967498779296875">
        <ele>-87.1999969482421875</ele>
        <time>2025-09-05T12:31:20.000Z</time>
        <extensions>
          <ns3:TrackPointExtension>
            <ns3:hr>181</ns3:hr>
            <ns3:cad>80</ns3:cad>
          </ns3:TrackPointExtension>
        </extensions>
      </trkpt>
      <trkpt lat="52.0679307170212268829345703125" lon="1.26965641044080257415771484375">
        <ele>-87.8000030517578125</ele>
        <time>2025-09-05T12:31:22.000Z</time>
        <extensions>
          <ns3:TrackPointExtension>
            <ns3:hr>180</ns3:hr>
            <ns3:cad>0</ns3:cad>
          </ns3:TrackPointExtension>
        </extensions>
      </trkpt>
      <trkpt lat="52.0679407753050327301025390625" lon="1.2697559036314487457275390625">
        <ele>-89.40000152587890625</ele>
        <time>2025-09-05T12:31:26.000Z</time>
        <extensions>
          <ns3:TrackPointExtension>
            <ns3:hr>178</ns3:hr>
            <ns3:cad>0</ns3:cad>
          </ns3:TrackPointExtension>
        </extensions>
      </trkpt>
      <trkpt lat="52.06794940866529941558837890625" lon="1.269809044897556304931640625">
        <ele>-91</ele>
        <time>2025-09-05T12:31:28.000Z</time>
        <extensions>
          <ns3:TrackPointExtension>
            <ns3:hr>177</ns3:hr>
            <ns3:cad>58</ns3:cad>
          </ns3:TrackPointExtension>
        </extensions>
      </trkpt>
      <trkpt lat="52.06795175559818744659423828125" lon="1.269827149808406829833984375">
        <ele>-93.1999969482421875</ele>
        <time>2025-09-05T12:31:29.000Z</time>
        <extensions>
          <ns3:TrackPointExtension>
            <ns3:hr>177</ns3:hr>
            <ns3:cad>58</ns3:cad>
          </ns3:TrackPointExtension>
        </extensions>
      </trkpt>
      <trkpt lat="52.0679518394172191619873046875" lon="1.26984533853828907012939453125">
        <ele>-96.40000152587890625</ele>
        <time>2025-09-05T12:31:30.000Z</time>
        <extensions>
          <ns3:TrackPointExtension>
            <ns3:hr>177</ns3:hr>
            <ns3:cad>58</ns3:cad>
          </ns3:TrackPointExtension>
        </extensions>
      </trkpt>
      <trkpt lat="52.0679501630365848541259765625" lon="1.26986059360206127166748046875">
        <ele>-98.40000152587890625</ele>
        <time>2025-09-05T12:31:31.000Z</time>
        <extensions>
          <ns3:TrackPointExtension>
            <ns3:hr>177</ns3:hr>
            <ns3:cad>58</ns3:cad>
          </ns3:TrackPointExtension>
        </extensions>
      </trkpt>
      <trkpt lat="52.06794806756079196929931640625" lon="1.2698757648468017578125">
        <ele>-99.59999847412109375</ele>
        <time>2025-09-05T12:31:32.000Z</time>
        <extensions>
          <ns3:TrackPointExtension>
            <ns3:hr>176</ns3:hr>
            <ns3:cad>60</ns3:cad>
          </ns3:TrackPointExtension>
        </extensions>
      </trkpt>
      <trkpt lat="52.06794597208499908447265625" lon="1.26991021446883678436279296875">
        <ele>-100.8000030517578125</ele>
        <time>2025-09-05T12:31:34.000Z</time>
        <extensions>
          <ns3:TrackPointExtension>
            <ns3:hr>174</ns3:hr>
            <ns3:cad>60</ns3:cad>
          </ns3:TrackPointExtension>
        </extensions>
      </trkpt>
      <trkpt lat="52.0679458044469356536865234375" lon="1.26992060802876949310302734375">
        <ele>-102.1999969482421875</ele>
        <time>2025-09-05T12:31:35.000Z</time>
        <extensions>
          <ns3:TrackPointExtension>
            <ns3:hr>174</ns3:hr>
            <ns3:cad>60</ns3:cad>
          </ns3:TrackPointExtension>
        </extensions>
      </trkpt>
      <trkpt lat="52.06794622354209423065185546875" lon="1.26993133686482906341552734375">
        <ele>-103.8000030517578125</ele>
        <time>2025-09-05T12:31:36.000Z</time>
        <extensions>
          <ns3:TrackPointExtension>
            <ns3:hr>173</ns3:hr>
            <ns3:cad>60</ns3:cad>
          </ns3:TrackPointExtension>
        </extensions>
      </trkpt>
      <trkpt lat="52.0679447986185550689697265625" lon="1.26994692720472812652587890625">
        <ele>-105.1999969482421875</ele>
        <time>2025-09-05T12:31:37.000Z</time>
        <extensions>
          <ns3:TrackPointExtension>
            <ns3:hr>173</ns3:hr>
            <ns3:cad>60</ns3:cad>
          </ns3:TrackPointExtension>
        </extensions>
      </trkpt>
      <trkpt lat="52.06793390214443206787109375" lon="1.26999017782509326934814453125">
        <ele>-107</ele>
        <time>2025-09-05T12:31:39.000Z</time>
        <extensions>
          <ns3:TrackPointExtension>
            <ns3:hr>173</ns3:hr>
            <ns3:cad>60</ns3:cad>
          </ns3:TrackPointExtension>
        </extensions>
      </trkpt>
      <trkpt lat="52.06792761571705341339111328125" lon="1.2700112164020538330078125">
        <ele>-108.1999969482421875</ele>
        <time>2025-09-05T12:31:40.000Z</time>
        <extensions>
          <ns3:TrackPointExtension>
            <ns3:hr>172</ns3:hr>
            <ns3:cad>60</ns3:cad>
          </ns3:TrackPointExtension>
        </extensions>
      </trkpt>
      <trkpt lat="52.06792091019451618194580078125" lon="1.2700392119586467742919921875">
        <ele>-109.59999847412109375</ele>
        <time>2025-09-05T12:31:41.000Z</time>
        <extensions>
          <ns3:TrackPointExtension>
            <ns3:hr>172</ns3:hr>
            <ns3:cad>60</ns3:cad>
          </ns3:TrackPointExtension>
        </extensions>
      </trkpt>
      <trkpt lat="52.06791135482490062713623046875" lon="1.2700831331312656402587890625">
        <ele>-112</ele>
        <time>2025-09-05T12:31:43.000Z</time>
        <extensions>
          <ns3:TrackPointExtension>
            <ns3:hr>171</ns3:hr>
            <ns3:cad>60</ns3:cad>
          </ns3:TrackPointExtension>
        </extensions>
      </trkpt>
      <trkpt lat="52.06791169010102748870849609375" lon="1.270107440650463104248046875">
        <ele>-112.8000030517578125</ele>
        <time>2025-09-05T12:31:44.000Z</time>
        <extensions>
          <ns3:TrackPointExtension>
            <ns3:hr>171</ns3:hr>
            <ns3:cad>60</ns3:cad>
          </ns3:TrackPointExtension>
        </extensions>
      </trkpt>
      <trkpt lat="52.0679079182446002960205078125" lon="1.27012998796999454498291015625">
        <ele>-114.40000152587890625</ele>
        <time>2025-09-05T12:31:45.000Z</time>
        <extensions>
          <ns3:TrackPointExtension>
            <ns3:hr>171</ns3:hr>
            <ns3:cad>60</ns3:cad>
          </ns3:TrackPointExtension>
        </extensions>
      </trkpt>
      <trkpt lat="52.0679038949310779571533203125" lon="1.27016267739236354827880859375">
        <ele>-116.40000152587890625</ele>
        <time>2025-09-05T12:31:46.000Z</time>
        <extensions>
          <ns3:TrackPointExtension>
            <ns3:hr>170</ns3:hr>
            <ns3:cad>59</ns3:cad>
          </ns3:TrackPointExtension>
        </extensions>
      </trkpt>
      <trkpt lat="52.06789811141788959503173828125" lon="1.2701904214918613433837890625">
        <ele>-117.8000030517578125</ele>
        <time>2025-09-05T12:31:47.000Z</time>
        <extensions>
          <ns3:TrackPointExtension>
            <ns3:hr>169</ns3:hr>
            <ns3:cad>59</ns3:cad>
          </ns3:TrackPointExtension>
        </extensions>
      </trkpt>
      <trkpt lat="52.06789442338049411773681640625" lon="1.27021883614361286163330078125">
        <ele>-119</ele>
        <time>2025-09-05T12:31:48.000Z</time>
        <extensions>
          <ns3:TrackPointExtension>
            <ns3:hr>168</ns3:hr>
            <ns3:cad>59</ns3:cad>
          </ns3:TrackPointExtension>
        </extensions>
      </trkpt>
      <trkpt lat="52.0678908191621303558349609375" lon="1.27024616114795207977294921875">
        <ele>-120.40000152587890625</ele>
        <time>2025-09-05T12:31:49.000Z</time>
        <extensions>
          <ns3:TrackPointExtension>
            <ns3:hr>168</ns3:hr>
            <ns3:cad>60</ns3:cad>
          </ns3:TrackPointExtension>
        </extensions>
      </trkpt>
      <trkpt lat="52.06788537092506885528564453125" lon="1.2702695466578006744384765625">
        <ele>-122.59999847412109375</ele>
        <time>2025-09-05T12:31:50.000Z</time>
        <extensions>
          <ns3:TrackPointExtension>
            <ns3:hr>168</ns3:hr>
            <ns3:cad>61</ns3:cad>
          </ns3:TrackPointExtension>
        </extensions>
      </trkpt>
      <trkpt lat="52.0678814314305782318115234375" lon="1.27029175870120525360107421875">
        <ele>-124.8000030517578125</ele>
        <time>2025-09-05T12:31:51.000Z</time>
        <extensions>
          <ns3:TrackPointExtension>
            <ns3:hr>167</ns3:hr>
            <ns3:cad>61</ns3:cad>
          </ns3:TrackPointExtension>
        </extensions>
      </trkpt>
      <trkpt lat="52.06787715665996074676513671875" lon="1.2703114561736583709716796875">
        <ele>-126.40000152587890625</ele>
        <time>2025-09-05T12:31:52.000Z</time>
        <extensions>
          <ns3:TrackPointExtension>
            <ns3:hr>167</ns3:hr>
            <ns3:cad>61</ns3:cad>
          </ns3:TrackPointExtension>
        </extensions>
      </trkpt>
      <trkpt lat="52.06788788549602031707763671875" lon="1.2703406251966953277587890625">
        <ele>-127.40000152587890625</ele>
        <time>2025-09-05T12:31:53.000Z</time>
        <extensions>
          <ns3:TrackPointExtension>
            <ns3:hr>166</ns3:hr>
            <ns3:cad>60</ns3:cad>
          </ns3:TrackPointExtension>
        </extensions>
      </trkpt>
      <trkpt lat="52.06789023242890834808349609375" lon="1.27036459743976593017578125">
        <ele>-128.8000030517578125</ele>
        <time>2025-09-05T12:31:54.000Z</time>
        <extensions>
          <ns3:TrackPointExtension>
            <ns3:hr>166</ns3:hr>
            <ns3:cad>60</ns3:cad>
          </ns3:TrackPointExtension>
        </extensions>
      </trkpt>
      <trkpt lat="52.06792049109935760498046875" lon="1.27042871899902820587158203125">
        <ele>-130</ele>
        <time>2025-09-05T12:31:56.000Z</time>
        <extensions>
          <ns3:TrackPointExtension>
            <ns3:hr>166</ns3:hr>
            <ns3:cad>60</ns3:cad>
          </ns3:TrackPointExtension>
        </extensions>
      </trkpt>
      <trkpt lat="52.0678847841918468475341796875" lon="1.27058998681604862213134765625">
        <ele>-130.399993896484375</ele>
        <time>2025-09-05T12:32:02.000Z</time>
        <extensions>
          <ns3:TrackPointExtension>
            <ns3:hr>165</ns3:hr>
            <ns3:cad>77</ns3:cad>
          </ns3:TrackPointExtension>
        </extensions>
      </trkpt>
      <trkpt lat="52.0678723789751529693603515625" lon="1.27070984803140163421630859375">
        <ele>-128.600006103515625</ele>
        <time>2025-09-05T12:32:06.000Z</time>
        <extensions>
          <ns3:TrackPointExtension>
            <ns3:hr>166</ns3:hr>
            <ns3:cad>81</ns3:cad>
          </ns3:TrackPointExtension>
        </extensions>
      </trkpt>
      <trkpt lat="52.06786458380520343780517578125" lon="1.270784698426723480224609375">
        <ele>-127.40000152587890625</ele>
        <time>2025-09-05T12:32:08.000Z</time>
        <extensions>
          <ns3:TrackPointExtension>
            <ns3:hr>165</ns3:hr>
            <ns3:cad>82</ns3:cad>
          </ns3:TrackPointExtension>
        </extensions>
      </trkpt>
      <trkpt lat="52.0678499154746532440185546875" lon="1.27089559100568294525146484375">
        <ele>-126.40000152587890625</ele>
        <time>2025-09-05T12:32:11.000Z</time>
        <extensions>
          <ns3:TrackPointExtension>
            <ns3:hr>168</ns3:hr>
            <ns3:cad>82</ns3:cad>
          </ns3:TrackPointExtension>
        </extensions>
      </trkpt>
      <trkpt lat="52.06784497015178203582763671875" lon="1.27094923518598079681396484375">
        <ele>-126.1999969482421875</ele>
        <time>2025-09-05T12:32:12.000Z</time>
        <extensions>
          <ns3:TrackPointExtension>
            <ns3:hr>171</ns3:hr>
            <ns3:cad>82</ns3:cad>
          </ns3:TrackPointExtension>
        </extensions>
      </trkpt>
      <trkpt lat="52.0678435452282428741455078125" lon="1.27099298872053623199462890625">
        <ele>-125.1999969482421875</ele>
        <time>2025-09-05T12:32:13.000Z</time>
        <extensions>
          <ns3:TrackPointExtension>
            <ns3:hr>174</ns3:hr>
            <ns3:cad>82</ns3:cad>
          </ns3:TrackPointExtension>
        </extensions>
      </trkpt>
      <trkpt lat="52.067827284336090087890625" lon="1.271088123321533203125">
        <ele>-124</ele>
        <time>2025-09-05T12:32:15.000Z</time>
        <extensions>
          <ns3:TrackPointExtension>
            <ns3:hr>175</ns3:hr>
            <ns3:cad>82</ns3:cad>
          </ns3:TrackPointExtension>
        </extensions>
      </trkpt>
      <trkpt lat="52.06781982444226741790771484375" lon="1.27113330177962779998779296875">
        <ele>-123.40000152587890625</ele>
        <time>2025-09-05T12:32:16.000Z</time>
        <extensions>
          <ns3:TrackPointExtension>
            <ns3:hr>176</ns3:hr>
            <ns3:cad>82</ns3:cad>
          </ns3:TrackPointExtension>
        </extensions>
      </trkpt>
      <trkpt lat="52.06779937259852886199951171875" lon="1.27123170532286167144775390625">
        <ele>-122.8000030517578125</ele>
        <time>2025-09-05T12:32:18.000Z</time>
        <extensions>
          <ns3:TrackPointExtension>
            <ns3:hr>177</ns3:hr>
            <ns3:cad>82</ns3:cad>
          </ns3:TrackPointExtension>
        </extensions>
      </trkpt>
      <trkpt lat="52.0677603967487812042236328125" lon="1.27137453295290470123291015625">
        <ele>-122</ele>
        <time>2025-09-05T12:32:21.000Z</time>
        <extensions>
          <ns3:TrackPointExtension>
            <ns3:hr>178</ns3:hr>
            <ns3:cad>82</ns3:cad>
          </ns3:TrackPointExtension>
        </extensions>
      </trkpt>
      <trkpt lat="52.0677454769611358642578125" lon="1.27142013050615787506103515625">
        <ele>-121.40000152587890625</ele>
        <time>2025-09-05T12:32:22.000Z</time>
        <extensions>
          <ns3:TrackPointExtension>
            <ns3:hr>180</ns3:hr>
            <ns3:cad>82</ns3:cad>
          </ns3:TrackPointExtension>
        </extensions>
      </trkpt>
      <trkpt lat="52.0677127875387668609619140625" lon="1.27151099033653736114501953125">
        <ele>-120.1999969482421875</ele>
        <time>2025-09-05T12:32:24.000Z</time>
        <extensions>
          <ns3:TrackPointExtension>
            <ns3:hr>181</ns3:hr>
            <ns3:cad>82</ns3:cad>
          </ns3:TrackPointExtension>
        </extensions>
      </trkpt>
      <trkpt lat="52.06769258715212345123291015625" lon="1.2715891934931278228759765625">
        <ele>-119</ele>
        <time>2025-09-05T12:32:26.000Z</time>
        <extensions>
          <ns3:TrackPointExtension>
            <ns3:hr>180</ns3:hr>
            <ns3:cad>82</ns3:cad>
          </ns3:TrackPointExtension>
        </extensions>
      </trkpt>
      <trkpt lat="52.067682109773159027099609375" lon="1.2716532312333583831787109375">
        <ele>-117.59999847412109375</ele>
        <time>2025-09-05T12:32:28.000Z</time>
        <extensions>
          <ns3:TrackPointExtension>
            <ns3:hr>182</ns3:hr>
            <ns3:cad>82</ns3:cad>
          </ns3:TrackPointExtension>
        </extensions>
      </trkpt>
      <trkpt lat="52.06767934374511241912841796875" lon="1.27168156206607818603515625">
        <ele>-116.1999969482421875</ele>
        <time>2025-09-05T12:32:29.000Z</time>
        <extensions>
          <ns3:TrackPointExtension>
            <ns3:hr>182</ns3:hr>
            <ns3:cad>82</ns3:cad>
          </ns3:TrackPointExtension>
        </extensions>
      </trkpt>
      <trkpt lat="52.06767498515546321868896484375" lon="1.27173445187509059906005859375">
        <ele>-114.40000152587890625</ele>
        <time>2025-09-05T12:32:31.000Z</time>
        <extensions>
          <ns3:TrackPointExtension>
            <ns3:hr>183</ns3:hr>
            <ns3:cad>81</ns3:cad>
          </ns3:TrackPointExtension>
        </extensions>
      </trkpt>
      <trkpt lat="52.06767180003225803375244140625" lon="1.2717638723552227020263671875">
        <ele>-113</ele>
        <time>2025-09-05T12:32:32.000Z</time>
        <extensions>
          <ns3:TrackPointExtension>
            <ns3:hr>182</ns3:hr>
            <ns3:cad>81</ns3:cad>
          </ns3:TrackPointExtension>
        </extensions>
      </trkpt>
      <trkpt lat="52.06765771843492984771728515625" lon="1.271826066076755523681640625">
        <ele>-111.59999847412109375</ele>
        <time>2025-09-05T12:32:34.000Z</time>
        <extensions>
          <ns3:TrackPointExtension>
            <ns3:hr>180</ns3:hr>
            <ns3:cad>81</ns3:cad>
          </ns3:TrackPointExtension>
        </extensions>
      </trkpt>
      <trkpt lat="52.067629136145114898681640625" lon="1.2719318456947803497314453125">
        <ele>-110.40000152587890625</ele>
        <time>2025-09-05T12:32:37.000Z</time>
        <extensions>
          <ns3:TrackPointExtension>
            <ns3:hr>181</ns3:hr>
            <ns3:cad>82</ns3:cad>
          </ns3:TrackPointExtension>
        </extensions>
      </trkpt>
      <trkpt lat="52.06761999987065792083740234375" lon="1.27207182347774505615234375">
        <ele>-109.1999969482421875</ele>
        <time>2025-09-05T12:32:41.000Z</time>
        <extensions>
          <ns3:TrackPointExtension>
            <ns3:hr>184</ns3:hr>
            <ns3:cad>82</ns3:cad>
          </ns3:TrackPointExtension>
        </extensions>
      </trkpt>
      <trkpt lat="52.06760524772107601165771484375" lon="1.27217450179159641265869140625">
        <ele>-108.40000152587890625</ele>
        <time>2025-09-05T12:32:45.000Z</time>
        <extensions>
          <ns3:TrackPointExtension>
            <ns3:hr>184</ns3:hr>
            <ns3:cad>82</ns3:cad>
          </ns3:TrackPointExtension>
        </extensions>
      </trkpt>
      <trkpt lat="52.06757046282291412353515625" lon="1.27228681929409503936767578125">
        <ele>-108</ele>
        <time>2025-09-05T12:32:48.000Z</time>
        <extensions>
          <ns3:TrackPointExtension>
            <ns3:hr>183</ns3:hr>
            <ns3:cad>82</ns3:cad>
          </ns3:TrackPointExtension>
        </extensions>
      </trkpt>
      <trkpt lat="52.06754607148468494415283203125" lon="1.27242059446871280670166015625">
        <ele>-107</ele>
        <time>2025-09-05T12:32:52.000Z</time>
        <extensions>
          <ns3:TrackPointExtension>
            <ns3:hr>184</ns3:hr>
            <ns3:cad>82</ns3:cad>
          </ns3:TrackPointExtension>
        </extensions>
      </trkpt>
      <trkpt lat="52.0675287209451198577880859375" lon="1.2724599055945873260498046875">
        <ele>-106.8000030517578125</ele>
        <time>2025-09-05T12:32:53.000Z</time>
        <extensions>
          <ns3:TrackPointExtension>
            <ns3:hr>182</ns3:hr>
            <ns3:cad>82</ns3:cad>
          </ns3:TrackPointExtension>
        </extensions>
      </trkpt>
      <trkpt lat="52.06749008037149906158447265625" lon="1.27256711013615131378173828125">
        <ele>-106.59999847412109375</ele>
        <time>2025-09-05T12:32:56.000Z</time>
        <extensions>
          <ns3:TrackPointExtension>
            <ns3:hr>178</ns3:hr>
            <ns3:cad>82</ns3:cad>
          </ns3:TrackPointExtension>
        </extensions>
      </trkpt>
      <trkpt lat="52.067456804215908050537109375" lon="1.27263869158923625946044921875">
        <ele>-106.59999847412109375</ele>
        <time>2025-09-05T12:32:59.000Z</time>
        <extensions>
          <ns3:TrackPointExtension>
            <ns3:hr>176</ns3:hr>
            <ns3:cad>82</ns3:cad>
          </ns3:TrackPointExtension>
        </extensions>
      </trkpt>
      <trkpt lat="52.06742738373577594757080078125" lon="1.27271899022161960601806640625">
        <ele>-107</ele>
        <time>2025-09-05T12:33:04.000Z</time>
        <extensions>
          <ns3:TrackPointExtension>
            <ns3:hr>175</ns3:hr>
            <ns3:cad>61</ns3:cad>
          </ns3:TrackPointExtension>
        </extensions>
      </trkpt>
      <trkpt lat="52.0673905871808528900146484375" lon="1.2728632427752017974853515625">
        <ele>-108</ele>
        <time>2025-09-05T12:33:08.000Z</time>
        <extensions>
          <ns3:TrackPointExtension>
            <ns3:hr>175</ns3:hr>
            <ns3:cad>61</ns3:cad>
          </ns3:TrackPointExtension>
        </extensions>
      </trkpt>
      <trkpt lat="52.06738061271607875823974609375" lon="1.2728972733020782470703125">
        <ele>-109.59999847412109375</ele>
        <time>2025-09-05T12:33:09.000Z</time>
        <extensions>
          <ns3:TrackPointExtension>
            <ns3:hr>175</ns3:hr>
            <ns3:cad>0</ns3:cad>
          </ns3:TrackPointExtension>
        </extensions>
      </trkpt>
      <trkpt lat="52.0673699676990509033203125" lon="1.2729348242282867431640625">
        <ele>-110.59999847412109375</ele>
        <time>2025-09-05T12:33:10.000Z</time>
        <extensions>
          <ns3:TrackPointExtension>
            <ns3:hr>174</ns3:hr>
            <ns3:cad>0</ns3:cad>
          </ns3:TrackPointExtension>
        </extensions>
      </trkpt>
      <trkpt lat="52.06736166961491107940673828125" lon="1.27296944148838520050048828125">
        <ele>-112.8000030517578125</ele>
        <time>2025-09-05T12:33:11.000Z</time>
        <extensions>
          <ns3:TrackPointExtension>
            <ns3:hr>173</ns3:hr>
            <ns3:cad>0</ns3:cad>
          </ns3:TrackPointExtension>
        </extensions>
      </trkpt>
      <trkpt lat="52.06734809093177318572998046875" lon="1.2730037234723567962646484375">
        <ele>-115</ele>
        <time>2025-09-05T12:33:12.000Z</time>
        <extensions>
          <ns3:TrackPointExtension>
            <ns3:hr>171</ns3:hr>
            <ns3:cad>80</ns3:cad>
          </ns3:TrackPointExtension>
        </extensions>
      </trkpt>
      <trkpt lat="52.06733711063861846923828125" lon="1.27303129993379116058349609375">
        <ele>-117</ele>
        <time>2025-09-05T12:33:13.000Z</time>
        <extensions>
          <ns3:TrackPointExtension>
            <ns3:hr>171</ns3:hr>
            <ns3:cad>80</ns3:cad>
          </ns3:TrackPointExtension>
        </extensions>
      </trkpt>
      <trkpt lat="52.0673221908509731292724609375" lon="1.27305753529071807861328125">
        <ele>-118.8000030517578125</ele>
        <time>2025-09-05T12:33:14.000Z</time>
        <extensions>
          <ns3:TrackPointExtension>
            <ns3:hr>170</ns3:hr>
            <ns3:cad>81</ns3:cad>
          </ns3:TrackPointExtension>
        </extensions>
      </trkpt>
      <trkpt lat="52.0672876574099063873291015625" lon="1.27310673706233501434326171875">
        <ele>-120.1999969482421875</ele>
        <time>2025-09-05T12:33:16.000Z</time>
        <extensions>
          <ns3:TrackPointExtension>
            <ns3:hr>167</ns3:hr>
            <ns3:cad>81</ns3:cad>
          </ns3:TrackPointExtension>
        </extensions>
      </trkpt>
      <trkpt lat="52.06725588999688625335693359375" lon="1.27314579673111438751220703125">
        <ele>-120.59999847412109375</ele>
        <time>2025-09-05T12:33:18.000Z</time>
        <extensions>
          <ns3:TrackPointExtension>
            <ns3:hr>165</ns3:hr>
            <ns3:cad>82</ns3:cad>
          </ns3:TrackPointExtension>
        </extensions>
      </trkpt>
      <trkpt lat="52.0671807043254375457763671875" lon="1.2732347287237644195556640625">
        <ele>-121.1999969482421875</ele>
        <time>2025-09-05T12:33:23.000Z</time>
        <extensions>
          <ns3:TrackPointExtension>
            <ns3:hr>168</ns3:hr>
            <ns3:cad>83</ns3:cad>
          </ns3:TrackPointExtension>
        </extensions>
      </trkpt>
      <trkpt lat="52.06715949811041355133056640625" lon="1.27325870096683502197265625">
        <ele>-116.8000030517578125</ele>
        <time>2025-09-05T12:33:25.000Z</time>
        <extensions>
          <ns3:TrackPointExtension>
            <ns3:hr>168</ns3:hr>
            <ns3:cad>83</ns3:cad>
          </ns3:TrackPointExtension>
        </extensions>
      </trkpt>
      <trkpt lat="52.0671491883695125579833984375" lon="1.273268759250640869140625">
        <ele>-114.59999847412109375</ele>
        <time>2025-09-05T12:33:26.000Z</time>
        <extensions>
          <ns3:TrackPointExtension>
            <ns3:hr>169</ns3:hr>
            <ns3:cad>83</ns3:cad>
          </ns3:TrackPointExtension>
        </extensions>
      </trkpt>
      <trkpt lat="52.06713636405766010284423828125" lon="1.27328812144696712493896484375">
        <ele>-112.59999847412109375</ele>
        <time>2025-09-05T12:33:27.000Z</time>
        <extensions>
          <ns3:TrackPointExtension>
            <ns3:hr>171</ns3:hr>
            <ns3:cad>83</ns3:cad>
          </ns3:TrackPointExtension>
        </extensions>
      </trkpt>
      <trkpt lat="52.06712245009839534759521484375" lon="1.27330203540623188018798828125">
        <ele>-110.59999847412109375</ele>
        <time>2025-09-05T12:33:28.000Z</time>
        <extensions>
          <ns3:TrackPointExtension>
            <ns3:hr>171</ns3:hr>
            <ns3:cad>83</ns3:cad>
          </ns3:TrackPointExtension>
        </extensions>
      </trkpt>
      <trkpt lat="52.0671096257865428924560546875" lon="1.2733074836432933807373046875">
        <ele>-109.40000152587890625</ele>
        <time>2025-09-05T12:33:29.000Z</time>
        <extensions>
          <ns3:TrackPointExtension>
            <ns3:hr>173</ns3:hr>
            <ns3:cad>84</ns3:cad>
          </ns3:TrackPointExtension>
        </extensions>
      </trkpt>
      <trkpt lat="52.067070566117763519287109375" lon="1.27334394492208957672119140625">
        <ele>-107.8000030517578125</ele>
        <time>2025-09-05T12:33:31.000Z</time>
        <extensions>
          <ns3:TrackPointExtension>
            <ns3:hr>174</ns3:hr>
            <ns3:cad>84</ns3:cad>
          </ns3:TrackPointExtension>
        </extensions>
      </trkpt>
      <trkpt lat="52.0669889263808727264404296875" lon="1.27344352193176746368408203125">
        <ele>-106.59999847412109375</ele>
        <time>2025-09-05T12:33:34.000Z</time>
        <extensions>
          <ns3:TrackPointExtension>
            <ns3:hr>174</ns3:hr>
            <ns3:cad>83</ns3:cad>
          </ns3:TrackPointExtension>
        </extensions>
      </trkpt>
      <trkpt lat="52.06696721725165843963623046875" lon="1.273470260202884674072265625">
        <ele>-106</ele>
        <time>2025-09-05T12:33:35.000Z</time>
        <extensions>
          <ns3:TrackPointExtension>
            <ns3:hr>173</ns3:hr>
            <ns3:cad>83</ns3:cad>
          </ns3:TrackPointExtension>
        </extensions>
      </trkpt>
      <trkpt lat="52.06694684922695159912109375" lon="1.27349180169403553009033203125">
        <ele>-105.40000152587890625</ele>
        <time>2025-09-05T12:33:36.000Z</time>
        <extensions>
          <ns3:TrackPointExtension>
            <ns3:hr>173</ns3:hr>
            <ns3:cad>83</ns3:cad>
          </ns3:TrackPointExtension>
        </extensions>
      </trkpt>
      <trkpt lat="52.0669034309685230255126953125" lon="1.2735287658870220184326171875">
        <ele>-104.40000152587890625</ele>
        <time>2025-09-05T12:33:38.000Z</time>
        <extensions>
          <ns3:TrackPointExtension>
            <ns3:hr>175</ns3:hr>
            <ns3:cad>83</ns3:cad>
          </ns3:TrackPointExtension>
        </extensions>
      </trkpt>
      <trkpt lat="52.06688239239156246185302734375" lon="1.27355013974010944366455078125">
        <ele>-102.8000030517578125</ele>
        <time>2025-09-05T12:33:39.000Z</time>
        <extensions>
          <ns3:TrackPointExtension>
            <ns3:hr>176</ns3:hr>
            <ns3:cad>83</ns3:cad>
          </ns3:TrackPointExtension>
        </extensions>
      </trkpt>
      <trkpt lat="52.06683461554348468780517578125" lon="1.273588277399539947509765625">
        <ele>-101.40000152587890625</ele>
        <time>2025-09-05T12:33:41.000Z</time>
        <extensions>
          <ns3:TrackPointExtension>
            <ns3:hr>176</ns3:hr>
            <ns3:cad>84</ns3:cad>
          </ns3:TrackPointExtension>
        </extensions>
      </trkpt>
      <trkpt lat="52.06678650341928005218505859375" lon="1.27362507395446300506591796875">
        <ele>-100</ele>
        <time>2025-09-05T12:33:43.000Z</time>
        <extensions>
          <ns3:TrackPointExtension>
            <ns3:hr>177</ns3:hr>
            <ns3:cad>83</ns3:cad>
          </ns3:TrackPointExtension>
        </extensions>
      </trkpt>
      <trkpt lat="52.06673788838088512420654296875" lon="1.27367905341088771820068359375">
        <ele>-99.59999847412109375</ele>
        <time>2025-09-05T12:33:45.000Z</time>
        <extensions>
          <ns3:TrackPointExtension>
            <ns3:hr>180</ns3:hr>
            <ns3:cad>83</ns3:cad>
          </ns3:TrackPointExtension>
        </extensions>
      </trkpt>
      <trkpt lat="52.06660729832947254180908203125" lon="1.2737480364739894866943359375">
        <ele>-101.59999847412109375</ele>
        <time>2025-09-05T12:33:52.000Z</time>
        <extensions>
          <ns3:TrackPointExtension>
            <ns3:hr>181</ns3:hr>
            <ns3:cad>82</ns3:cad>
          </ns3:TrackPointExtension>
        </extensions>
      </trkpt>
      <trkpt lat="52.06658969633281230926513671875" lon="1.273759268224239349365234375">
        <ele>-102.1999969482421875</ele>
        <time>2025-09-05T12:33:53.000Z</time>
        <extensions>
          <ns3:TrackPointExtension>
            <ns3:hr>179</ns3:hr>
            <ns3:cad>82</ns3:cad>
          </ns3:TrackPointExtension>
        </extensions>
      </trkpt>
      <trkpt lat="52.06655113957822322845458984375" lon="1.27379522658884525299072265625">
        <ele>-102.59999847412109375</ele>
        <time>2025-09-05T12:33:55.000Z</time>
        <extensions>
          <ns3:TrackPointExtension>
            <ns3:hr>179</ns3:hr>
            <ns3:cad>82</ns3:cad>
          </ns3:TrackPointExtension>
        </extensions>
      </trkpt>
      <trkpt lat="52.06649062223732471466064453125" lon="1.27384878695011138916015625">
        <ele>-103.8000030517578125</ele>
        <time>2025-09-05T12:33:58.000Z</time>
        <extensions>
          <ns3:TrackPointExtension>
            <ns3:hr>178</ns3:hr>
            <ns3:cad>82</ns3:cad>
          </ns3:TrackPointExtension>
        </extensions>
      </trkpt>
      <trkpt lat="52.06641199998557567596435546875" lon="1.27392481081187725067138671875">
        <ele>-104.1999969482421875</ele>
        <time>2025-09-05T12:34:01.000Z</time>
        <extensions>
          <ns3:TrackPointExtension>
            <ns3:hr>177</ns3:hr>
            <ns3:cad>82</ns3:cad>
          </ns3:TrackPointExtension>
        </extensions>
      </trkpt>
      <trkpt lat="52.06636271439492702484130859375" lon="1.27396906726062297821044921875">
        <ele>-104.40000152587890625</ele>
        <time>2025-09-05T12:34:03.000Z</time>
        <extensions>
          <ns3:TrackPointExtension>
            <ns3:hr>181</ns3:hr>
            <ns3:cad>81</ns3:cad>
          </ns3:TrackPointExtension>
        </extensions>
      </trkpt>
      <trkpt lat="52.06630269996821880340576171875" lon="1.2741322629153728485107421875">
        <ele>-104.59999847412109375</ele>
        <time>2025-09-05T12:34:07.000Z</time>
        <extensions>
          <ns3:TrackPointExtension>
            <ns3:hr>178</ns3:hr>
            <ns3:cad>79</ns3:cad>
          </ns3:TrackPointExtension>
        </extensions>
      </trkpt>
      <trkpt lat="52.06625592894852161407470703125" lon="1.2746608257293701171875">
        <ele>-95.40000152587890625</ele>
        <time>2025-09-05T12:34:20.000Z</time>
        <extensions>
          <ns3:TrackPointExtension>
            <ns3:hr>178</ns3:hr>
            <ns3:cad>81</ns3:cad>
          </ns3:TrackPointExtension>
        </extensions>
      </trkpt>
      <trkpt lat="52.0662922225892543792724609375" lon="1.27470902167260646820068359375">
        <ele>-91.1999969482421875</ele>
        <time>2025-09-05T12:34:21.000Z</time>
        <extensions>
          <ns3:TrackPointExtension>
            <ns3:hr>178</ns3:hr>
            <ns3:cad>82</ns3:cad>
          </ns3:TrackPointExtension>
        </extensions>
      </trkpt>
      <trkpt lat="52.06630253233015537261962890625" lon="1.274732910096645355224609375">
        <ele>-87.40000152587890625</ele>
        <time>2025-09-05T12:34:22.000Z</time>
        <extensions>
          <ns3:TrackPointExtension>
            <ns3:hr>177</ns3:hr>
            <ns3:cad>82</ns3:cad>
          </ns3:TrackPointExtension>
        </extensions>
      </trkpt>
      <trkpt lat="52.06631158478558063507080078125" lon="1.2747587263584136962890625">
        <ele>-85.40000152587890625</ele>
        <time>2025-09-05T12:34:23.000Z</time>
        <extensions>
          <ns3:TrackPointExtension>
            <ns3:hr>177</ns3:hr>
            <ns3:cad>82</ns3:cad>
          </ns3:TrackPointExtension>
        </extensions>
      </trkpt>
      <trkpt lat="52.06633530557155609130859375" lon="1.27475629560649394989013671875">
        <ele>-84.40000152587890625</ele>
        <time>2025-09-05T12:34:24.000Z</time>
        <extensions>
          <ns3:TrackPointExtension>
            <ns3:hr>178</ns3:hr>
            <ns3:cad>82</ns3:cad>
          </ns3:TrackPointExtension>
        </extensions>
      </trkpt>
      <trkpt lat="52.06635198555886745452880859375" lon="1.274759732186794281005859375">
        <ele>-83.40000152587890625</ele>
        <time>2025-09-05T12:34:25.000Z</time>
        <extensions>
          <ns3:TrackPointExtension>
            <ns3:hr>178</ns3:hr>
            <ns3:cad>75</ns3:cad>
          </ns3:TrackPointExtension>
        </extensions>
      </trkpt>
      <trkpt lat="52.06636824645102024078369140625" lon="1.27476601861417293548583984375">
        <ele>-82.40000152587890625</ele>
        <time>2025-09-05T12:34:27.000Z</time>
        <extensions>
          <ns3:TrackPointExtension>
            <ns3:hr>177</ns3:hr>
            <ns3:cad>0</ns3:cad>
          </ns3:TrackPointExtension>
        </extensions>
      </trkpt>
      <trkpt lat="52.06636975519359111785888671875" lon="1.27477339468896389007568359375">
        <ele>-81.59999847412109375</ele>
        <time>2025-09-05T12:34:28.000Z</time>
        <extensions>
          <ns3:TrackPointExtension>
            <ns3:hr>178</ns3:hr>
            <ns3:cad>0</ns3:cad>
          </ns3:TrackPointExtension>
        </extensions>
      </trkpt>
      <trkpt lat="52.06636707298457622528076171875" lon="1.27478915266692638397216796875">
        <ele>-80.40000152587890625</ele>
        <time>2025-09-05T12:34:30.000Z</time>
        <extensions>
          <ns3:TrackPointExtension>
            <ns3:hr>176</ns3:hr>
            <ns3:cad>0</ns3:cad>
          </ns3:TrackPointExtension>
        </extensions>
      </trkpt>
      <trkpt lat="52.06636606715619564056396484375" lon="1.27479300834238529205322265625">
        <ele>-79</ele>
        <time>2025-09-05T12:34:31.000Z</time>
        <extensions>
          <ns3:TrackPointExtension>
            <ns3:hr>176</ns3:hr>
            <ns3:cad>0</ns3:cad>
          </ns3:TrackPointExtension>
        </extensions>
      </trkpt>
      <trkpt lat="52.06636120565235614776611328125" lon="1.27481480129063129425048828125">
        <ele>-77.8000030517578125</ele>
        <time>2025-09-05T12:34:33.000Z</time>
        <extensions>
          <ns3:TrackPointExtension>
            <ns3:hr>177</ns3:hr>
            <ns3:cad>0</ns3:cad>
          </ns3:TrackPointExtension>
        </extensions>
      </trkpt>
      <trkpt lat="52.066374532878398895263671875" lon="1.27486090175807476043701171875">
        <ele>-77.59999847412109375</ele>
        <time>2025-09-05T12:34:35.000Z</time>
        <extensions>
          <ns3:TrackPointExtension>
            <ns3:hr>176</ns3:hr>
            <ns3:cad>60</ns3:cad>
          </ns3:TrackPointExtension>
        </extensions>
      </trkpt>
      <trkpt lat="52.066395990550518035888671875" lon="1.2749183177947998046875">
        <ele>-76.40000152587890625</ele>
        <time>2025-09-05T12:34:38.000Z</time>
        <extensions>
          <ns3:TrackPointExtension>
            <ns3:hr>177</ns3:hr>
            <ns3:cad>60</ns3:cad>
          </ns3:TrackPointExtension>
        </extensions>
      </trkpt>
      <trkpt lat="52.066426835954189300537109375" lon="1.274955533444881439208984375">
        <ele>-75.59999847412109375</ele>
        <time>2025-09-05T12:34:41.000Z</time>
        <extensions>
          <ns3:TrackPointExtension>
            <ns3:hr>174</ns3:hr>
            <ns3:cad>60</ns3:cad>
          </ns3:TrackPointExtension>
        </extensions>
      </trkpt>
      <trkpt lat="52.066439576447010040283203125" lon="1.2750039808452129364013671875">
        <ele>-75.40000152587890625</ele>
        <time>2025-09-05T12:34:44.000Z</time>
        <extensions>
          <ns3:TrackPointExtension>
            <ns3:hr>174</ns3:hr>
            <ns3:cad>60</ns3:cad>
          </ns3:TrackPointExtension>
        </extensions>
      </trkpt>
      <trkpt lat="52.0664414204657077789306640625" lon="1.27501881681382656097412109375">
        <ele>-74</ele>
        <time>2025-09-05T12:34:45.000Z</time>
        <extensions>
          <ns3:TrackPointExtension>
            <ns3:hr>174</ns3:hr>
            <ns3:cad>60</ns3:cad>
          </ns3:TrackPointExtension>
        </extensions>
      </trkpt>
      <trkpt lat="52.06648207269608974456787109375" lon="1.2750837765634059906005859375">
        <ele>-75.40000152587890625</ele>
        <time>2025-09-05T12:34:50.000Z</time>
        <extensions>
          <ns3:TrackPointExtension>
            <ns3:hr>175</ns3:hr>
            <ns3:cad>58</ns3:cad>
          </ns3:TrackPointExtension>
        </extensions>
      </trkpt>
      <trkpt lat="52.0665108226239681243896484375" lon="1.27512157894670963287353515625">
        <ele>-76.8000030517578125</ele>
        <time>2025-09-05T12:34:52.000Z</time>
        <extensions>
          <ns3:TrackPointExtension>
            <ns3:hr>174</ns3:hr>
            <ns3:cad>57</ns3:cad>
          </ns3:TrackPointExtension>
        </extensions>
      </trkpt>
      <trkpt lat="52.06652867607772350311279296875" lon="1.27516717649996280670166015625">
        <ele>-76</ele>
        <time>2025-09-05T12:34:54.000Z</time>
        <extensions>
          <ns3:TrackPointExtension>
            <ns3:hr>173</ns3:hr>
            <ns3:cad>57</ns3:cad>
          </ns3:TrackPointExtension>
        </extensions>
      </trkpt>
      <trkpt lat="52.06653621979057788848876953125" lon="1.27519383095204830169677734375">
        <ele>-75.40000152587890625</ele>
        <time>2025-09-05T12:34:55.000Z</time>
        <extensions>
          <ns3:TrackPointExtension>
            <ns3:hr>173</ns3:hr>
            <ns3:cad>58</ns3:cad>
          </ns3:TrackPointExtension>
        </extensions>
      </trkpt>
      <trkpt lat="52.0665634609758853912353515625" lon="1.275253929197788238525390625">
        <ele>-73.1999969482421875</ele>
        <time>2025-09-05T12:34:58.000Z</time>
        <extensions>
          <ns3:TrackPointExtension>
            <ns3:hr>172</ns3:hr>
            <ns3:cad>60</ns3:cad>
          </ns3:TrackPointExtension>
        </extensions>
      </trkpt>
      <trkpt lat="52.066575698554515838623046875" lon="1.2752705253660678863525390625">
        <ele>-71.59999847412109375</ele>
        <time>2025-09-05T12:34:59.000Z</time>
        <extensions>
          <ns3:TrackPointExtension>
            <ns3:hr>171</ns3:hr>
            <ns3:cad>60</ns3:cad>
          </ns3:TrackPointExtension>
        </extensions>
      </trkpt>
      <trkpt lat="52.0665755309164524078369140625" lon="1.27528888173401355743408203125">
        <ele>-70</ele>
        <time>2025-09-05T12:35:00.000Z</time>
        <extensions>
          <ns3:TrackPointExtension>
            <ns3:hr>170</ns3:hr>
            <ns3:cad>60</ns3:cad>
          </ns3:TrackPointExtension>
        </extensions>
      </trkpt>
      <trkpt lat="52.066566646099090576171875" lon="1.2753246724605560302734375">
        <ele>-23.3999996185302734375</ele>
        <time>2025-09-05T12:35:01.000Z</time>
        <extensions>
          <ns3:TrackPointExtension>
            <ns3:hr>170</ns3:hr>
            <ns3:cad>60</ns3:cad>
          </ns3:TrackPointExtension>
        </extensions>
      </trkpt>
      <trkpt lat="52.0665785484015941619873046875" lon="1.2753689289093017578125">
        <ele>0</ele>
        <time>2025-09-05T12:35:02.000Z</time>
        <extensions>
          <ns3:TrackPointExtension>
            <ns3:hr>170</ns3:hr>
            <ns3:cad>60</ns3:cad>
          </ns3:TrackPointExtension>
        </extensions>
      </trkpt>
      <trkpt lat="52.0665782131254673004150390625" lon="1.27540086396038532257080078125">
        <ele>11.6000003814697265625</ele>
        <time>2025-09-05T12:35:03.000Z</time>
        <extensions>
          <ns3:TrackPointExtension>
            <ns3:hr>170</ns3:hr>
            <ns3:cad>60</ns3:cad>
          </ns3:TrackPointExtension>
        </extensions>
      </trkpt>
      <trkpt lat="52.06657276488840579986572265625" lon="1.27543271519243717193603515625">
        <ele>17.3999996185302734375</ele>
        <time>2025-09-05T12:35:04.000Z</time>
        <extensions>
          <ns3:TrackPointExtension>
            <ns3:hr>169</ns3:hr>
            <ns3:cad>60</ns3:cad>
          </ns3:TrackPointExtension>
        </extensions>
      </trkpt>
      <trkpt lat="52.066568322479724884033203125" lon="1.27549658529460430145263671875">
        <ele>17.6000003814697265625</ele>
        <time>2025-09-05T12:35:07.000Z</time>
        <extensions>
          <ns3:TrackPointExtension>
            <ns3:hr>168</ns3:hr>
            <ns3:cad>62</ns3:cad>
          </ns3:TrackPointExtension>
        </extensions>
      </trkpt>
      <trkpt lat="52.06659439019858837127685546875" lon="1.27553145401179790496826171875">
        <ele>17.799999237060546875</ele>
        <time>2025-09-05T12:35:09.000Z</time>
        <extensions>
          <ns3:TrackPointExtension>
            <ns3:hr>168</ns3:hr>
            <ns3:cad>0</ns3:cad>
          </ns3:TrackPointExtension>
        </extensions>
      </trkpt>
      <trkpt lat="52.0667009241878986358642578125" lon="1.27559800632297992706298828125">
        <ele>17.6000003814697265625</ele>
        <time>2025-09-05T12:35:16.000Z</time>
        <extensions>
          <ns3:TrackPointExtension>
            <ns3:hr>170</ns3:hr>
            <ns3:cad>0</ns3:cad>
          </ns3:TrackPointExtension>
        </extensions>
      </trkpt>
      <trkpt lat="52.0668021775782108306884765625" lon="1.27568920142948627471923828125">
        <ele>16.3999996185302734375</ele>
        <time>2025-09-05T12:35:23.000Z</time>
        <extensions>
          <ns3:TrackPointExtension>
            <ns3:hr>165</ns3:hr>
            <ns3:cad>61</ns3:cad>
          </ns3:TrackPointExtension>
        </extensions>
      </trkpt>
      <trkpt lat="52.066818438470363616943359375" lon="1.2756974995136260986328125">
        <ele>16.200000762939453125</ele>
        <time>2025-09-05T12:35:24.000Z</time>
        <extensions>
          <ns3:TrackPointExtension>
            <ns3:hr>163</ns3:hr>
            <ns3:cad>61</ns3:cad>
          </ns3:TrackPointExtension>
        </extensions>
      </trkpt>
      <trkpt lat="52.06685741432011127471923828125" lon="1.275714598596096038818359375">
        <ele>15.80000019073486328125</ele>
        <time>2025-09-05T12:35:26.000Z</time>
        <extensions>
          <ns3:TrackPointExtension>
            <ns3:hr>160</ns3:hr>
            <ns3:cad>61</ns3:cad>
          </ns3:TrackPointExtension>
        </extensions>
      </trkpt>
      <trkpt lat="52.06688876263797283172607421875" lon="1.2757323682308197021484375">
        <ele>15.19999980926513671875</ele>
        <time>2025-09-05T12:35:28.000Z</time>
        <extensions>
          <ns3:TrackPointExtension>
            <ns3:hr>155</ns3:hr>
            <ns3:cad>57</ns3:cad>
          </ns3:TrackPointExtension>
        </extensions>
      </trkpt>
      <trkpt lat="52.06690032966434955596923828125" lon="1.27574049867689609527587890625">
        <ele>15</ele>
        <time>2025-09-05T12:35:29.000Z</time>
        <extensions>
          <ns3:TrackPointExtension>
            <ns3:hr>155</ns3:hr>
            <ns3:cad>57</ns3:cad>
          </ns3:TrackPointExtension>
        </extensions>
      </trkpt>
      <trkpt lat="52.0669245533645153045654296875" lon="1.27574167214334011077880859375">
        <ele>14.19999980926513671875</ele>
        <time>2025-09-05T12:35:32.000Z</time>
        <extensions>
          <ns3:TrackPointExtension>
            <ns3:hr>153</ns3:hr>
            <ns3:cad>57</ns3:cad>
          </ns3:TrackPointExtension>
        </extensions>
      </trkpt>
      <trkpt lat="52.06693788059055805206298828125" lon="1.27577905543148517608642578125">
        <ele>13.3999996185302734375</ele>
        <time>2025-09-05T12:35:35.000Z</time>
        <extensions>
          <ns3:TrackPointExtension>
            <ns3:hr>152</ns3:hr>
            <ns3:cad>0</ns3:cad>
          </ns3:TrackPointExtension>
        </extensions>
      </trkpt>
      <trkpt lat="52.06693972460925579071044921875" lon="1.2758029438555240631103515625">
        <ele>13.19999980926513671875</ele>
        <time>2025-09-05T12:35:36.000Z</time>
        <extensions>
          <ns3:TrackPointExtension>
            <ns3:hr>151</ns3:hr>
            <ns3:cad>0</ns3:cad>
          </ns3:TrackPointExtension>
        </extensions>
      </trkpt>
      <trkpt lat="52.06694374792277812957763671875" lon="1.27585264854133129119873046875">
        <ele>12.80000019073486328125</ele>
        <time>2025-09-05T12:35:38.000Z</time>
        <extensions>
          <ns3:TrackPointExtension>
            <ns3:hr>151</ns3:hr>
            <ns3:cad>0</ns3:cad>
          </ns3:TrackPointExtension>
        </extensions>
      </trkpt>
      <trkpt lat="52.06694257445633411407470703125" lon="1.275904364883899688720703125">
        <ele>12.19999980926513671875</ele>
        <time>2025-09-05T12:35:40.000Z</time>
        <extensions>
          <ns3:TrackPointExtension>
            <ns3:hr>153</ns3:hr>
            <ns3:cad>0</ns3:cad>
          </ns3:TrackPointExtension>
        </extensions>
      </trkpt>
      <trkpt lat="52.06692446954548358917236328125" lon="1.2759876810014247894287109375">
        <ele>11.3999996185302734375</ele>
        <time>2025-09-05T12:35:43.000Z</time>
        <extensions>
          <ns3:TrackPointExtension>
            <ns3:hr>156</ns3:hr>
            <ns3:cad>0</ns3:cad>
          </ns3:TrackPointExtension>
        </extensions>
      </trkpt>
      <trkpt lat="52.06691558472812175750732421875" lon="1.2760057859122753143310546875">
        <ele>11</ele>
        <time>2025-09-05T12:35:44.000Z</time>
        <extensions>
          <ns3:TrackPointExtension>
            <ns3:hr>155</ns3:hr>
            <ns3:cad>0</ns3:cad>
          </ns3:TrackPointExtension>
        </extensions>
      </trkpt>
      <trkpt lat="52.066914327442646026611328125" lon="1.2760300934314727783203125">
        <ele>10.80000019073486328125</ele>
        <time>2025-09-05T12:35:45.000Z</time>
        <extensions>
          <ns3:TrackPointExtension>
            <ns3:hr>156</ns3:hr>
            <ns3:cad>0</ns3:cad>
          </ns3:TrackPointExtension>
        </extensions>
      </trkpt>
      <trkpt lat="52.06691944040358066558837890625" lon="1.276047527790069580078125">
        <ele>10.6000003814697265625</ele>
        <time>2025-09-05T12:35:46.000Z</time>
        <extensions>
          <ns3:TrackPointExtension>
            <ns3:hr>156</ns3:hr>
            <ns3:cad>0</ns3:cad>
          </ns3:TrackPointExtension>
        </extensions>
      </trkpt>
      <trkpt lat="52.06693503074347972869873046875" lon="1.27608918584883213043212890625">
        <ele>10</ele>
        <time>2025-09-05T12:35:48.000Z</time>
        <extensions>
          <ns3:TrackPointExtension>
            <ns3:hr>154</ns3:hr>
            <ns3:cad>61</ns3:cad>
          </ns3:TrackPointExtension>
        </extensions>
      </trkpt>
      <trkpt lat="52.066934444010257720947265625" lon="1.276116259396076202392578125">
        <ele>9.6000003814697265625</ele>
        <time>2025-09-05T12:35:49.000Z</time>
        <extensions>
          <ns3:TrackPointExtension>
            <ns3:hr>154</ns3:hr>
            <ns3:cad>61</ns3:cad>
          </ns3:TrackPointExtension>
        </extensions>
      </trkpt>
      <trkpt lat="52.06691944040358066558837890625" lon="1.27620636485517024993896484375">
        <ele>8.80000019073486328125</ele>
        <time>2025-09-05T12:35:52.000Z</time>
        <extensions>
          <ns3:TrackPointExtension>
            <ns3:hr>155</ns3:hr>
            <ns3:cad>61</ns3:cad>
          </ns3:TrackPointExtension>
        </extensions>
      </trkpt>
      <trkpt lat="52.066890858113765716552734375" lon="1.27630292437970638275146484375">
        <ele>7.80000019073486328125</ele>
        <time>2025-09-05T12:35:56.000Z</time>
        <extensions>
          <ns3:TrackPointExtension>
            <ns3:hr>155</ns3:hr>
            <ns3:cad>0</ns3:cad>
          </ns3:TrackPointExtension>
        </extensions>
      </trkpt>
      <trkpt lat="52.0668722502887248992919921875" lon="1.2764104641973972320556640625">
        <ele>6.599999904632568359375</ele>
        <time>2025-09-05T12:36:00.000Z</time>
        <extensions>
          <ns3:TrackPointExtension>
            <ns3:hr>155</ns3:hr>
            <ns3:cad>0</ns3:cad>
          </ns3:TrackPointExtension>
        </extensions>
      </trkpt>
      <trkpt lat="52.06685892306268215179443359375" lon="1.27645446918904781341552734375">
        <ele>5.80000019073486328125</ele>
        <time>2025-09-05T12:36:02.000Z</time>
        <extensions>
          <ns3:TrackPointExtension>
            <ns3:hr>152</ns3:hr>
            <ns3:cad>0</ns3:cad>
          </ns3:TrackPointExtension>
        </extensions>
      </trkpt>
      <trkpt lat="52.06684852950274944305419921875" lon="1.27647936344146728515625">
        <ele>5.400000095367431640625</ele>
        <time>2025-09-05T12:36:03.000Z</time>
        <extensions>
          <ns3:TrackPointExtension>
            <ns3:hr>151</ns3:hr>
            <ns3:cad>0</ns3:cad>
          </ns3:TrackPointExtension>
        </extensions>
      </trkpt>
      <trkpt lat="52.06682405434548854827880859375" lon="1.27654801122844219207763671875">
        <ele>4.400000095367431640625</ele>
        <time>2025-09-05T12:36:06.000Z</time>
        <extensions>
          <ns3:TrackPointExtension>
            <ns3:hr>150</ns3:hr>
            <ns3:cad>0</ns3:cad>
          </ns3:TrackPointExtension>
        </extensions>
      </trkpt>
      <trkpt lat="52.06679756753146648406982421875" lon="1.2766094505786895751953125">
        <ele>3.400000095367431640625</ele>
        <time>2025-09-05T12:36:09.000Z</time>
        <extensions>
          <ns3:TrackPointExtension>
            <ns3:hr>148</ns3:hr>
            <ns3:cad>0</ns3:cad>
          </ns3:TrackPointExtension>
        </extensions>
      </trkpt>
      <trkpt lat="52.06680175848305225372314453125" lon="1.27664440311491489410400390625">
        <ele>2.599999904632568359375</ele>
        <time>2025-09-05T12:36:11.000Z</time>
        <extensions>
          <ns3:TrackPointExtension>
            <ns3:hr>144</ns3:hr>
            <ns3:cad>0</ns3:cad>
          </ns3:TrackPointExtension>
        </extensions>
      </trkpt>
      <trkpt lat="52.066812403500080108642578125" lon="1.2766629271209239959716796875">
        <ele>2.2000000476837158203125</ele>
        <time>2025-09-05T12:36:12.000Z</time>
        <extensions>
          <ns3:TrackPointExtension>
            <ns3:hr>143</ns3:hr>
            <ns3:cad>0</ns3:cad>
          </ns3:TrackPointExtension>
        </extensions>
      </trkpt>
      <trkpt lat="52.06682120449841022491455078125" lon="1.27668681554496288299560546875">
        <ele>1.7999999523162841796875</ele>
        <time>2025-09-05T12:36:13.000Z</time>
        <extensions>
          <ns3:TrackPointExtension>
            <ns3:hr>142</ns3:hr>
            <ns3:cad>0</ns3:cad>
          </ns3:TrackPointExtension>
        </extensions>
      </trkpt>
      <trkpt lat="52.066818438470363616943359375" lon="1.27674045972526073455810546875">
        <ele>1</ele>
        <time>2025-09-05T12:36:15.000Z</time>
        <extensions>
          <ns3:TrackPointExtension>
            <ns3:hr>142</ns3:hr>
            <ns3:cad>0</ns3:cad>
          </ns3:TrackPointExtension>
        </extensions>
      </trkpt>
      <trkpt lat="52.066796980798244476318359375" lon="1.27681405283510684967041015625">
        <ele>0</ele>
        <time>2025-09-05T12:36:18.000Z</time>
        <extensions>
          <ns3:TrackPointExtension>
            <ns3:hr>142</ns3:hr>
            <ns3:cad>0</ns3:cad>
          </ns3:TrackPointExtension>
        </extensions>
      </trkpt>
      <trkpt lat="52.06677745096385478973388671875" lon="1.2769018113613128662109375">
        <ele>-1.2000000476837158203125</ele>
        <time>2025-09-05T12:36:21.000Z</time>
        <extensions>
          <ns3:TrackPointExtension>
            <ns3:hr>140</ns3:hr>
            <ns3:cad>61</ns3:cad>
          </ns3:TrackPointExtension>
        </extensions>
      </trkpt>
      <trkpt lat="52.066754736006259918212890625" lon="1.27698655240237712860107421875">
        <ele>-2.400000095367431640625</ele>
        <time>2025-09-05T12:36:24.000Z</time>
        <extensions>
          <ns3:TrackPointExtension>
            <ns3:hr>138</ns3:hr>
            <ns3:cad>60</ns3:cad>
          </ns3:TrackPointExtension>
        </extensions>
      </trkpt>
      <trkpt lat="52.06675230525434017181396484375" lon="1.2770112790167331695556640625">
        <ele>-2.7999999523162841796875</ele>
        <time>2025-09-05T12:36:25.000Z</time>
        <extensions>
          <ns3:TrackPointExtension>
            <ns3:hr>138</ns3:hr>
            <ns3:cad>60</ns3:cad>
          </ns3:TrackPointExtension>
        </extensions>
      </trkpt>
      <trkpt lat="52.0667411573231220245361328125" lon="1.27705402672290802001953125">
        <ele>-3.599999904632568359375</ele>
        <time>2025-09-05T12:36:27.000Z</time>
        <extensions>
          <ns3:TrackPointExtension>
            <ns3:hr>137</ns3:hr>
            <ns3:cad>60</ns3:cad>
          </ns3:TrackPointExtension>
        </extensions>
      </trkpt>
      <trkpt lat="52.0667344518005847930908203125" lon="1.2770910747349262237548828125">
        <ele>-4.599999904632568359375</ele>
        <time>2025-09-05T12:36:30.000Z</time>
        <extensions>
          <ns3:TrackPointExtension>
            <ns3:hr>136</ns3:hr>
            <ns3:cad>60</ns3:cad>
          </ns3:TrackPointExtension>
        </extensions>
      </trkpt>
      <trkpt lat="52.06673151813447475433349609375" lon="1.2770927511155605316162109375">
        <ele>-5.19999980926513671875</ele>
        <time>2025-09-05T12:36:32.000Z</time>
        <extensions>
          <ns3:TrackPointExtension>
            <ns3:hr>138</ns3:hr>
            <ns3:cad>58</ns3:cad>
          </ns3:TrackPointExtension>
        </extensions>
      </trkpt>
      <trkpt lat="52.066731266677379608154296875" lon="1.2770917452871799468994140625">
        <ele>-5.599999904632568359375</ele>
        <time>2025-09-05T12:36:33.000Z</time>
        <extensions>
          <ns3:TrackPointExtension>
            <ns3:hr>137</ns3:hr>
            <ns3:cad>58</ns3:cad>
          </ns3:TrackPointExtension>
        </extensions>
      </trkpt>
      <trkpt lat="52.0667361281812191009521484375" lon="1.27709132619202136993408203125">
        <ele>-6.599999904632568359375</ele>
        <time>2025-09-05T12:36:36.000Z</time>
        <extensions>
          <ns3:TrackPointExtension>
            <ns3:hr>137</ns3:hr>
            <ns3:cad>0</ns3:cad>
          </ns3:TrackPointExtension>
        </extensions>
      </trkpt>
      <trkpt lat="52.0667208731174468994140625" lon="1.2770759873092174530029296875">
        <ele>-7.599999904632568359375</ele>
        <time>2025-09-05T12:36:39.000Z</time>
        <extensions>
          <ns3:TrackPointExtension>
            <ns3:hr>135</ns3:hr>
            <ns3:cad>0</ns3:cad>
          </ns3:TrackPointExtension>
        </extensions>
      </trkpt>
      <trkpt lat="52.0667133294045925140380859375" lon="1.27708076499402523040771484375">
        <ele>-8.6000003814697265625</ele>
        <time>2025-09-05T12:36:42.000Z</time>
        <extensions>
          <ns3:TrackPointExtension>
            <ns3:hr>135</ns3:hr>
            <ns3:cad>0</ns3:cad>
          </ns3:TrackPointExtension>
        </extensions>
      </trkpt>
      <trkpt lat="52.06671508960425853729248046875" lon="1.27708395011723041534423828125">
        <ele>-9</ele>
        <time>2025-09-05T12:36:43.000Z</time>
        <extensions>
          <ns3:TrackPointExtension>
            <ns3:hr>135</ns3:hr>
            <ns3:cad>0</ns3:cad>
          </ns3:TrackPointExtension>
        </extensions>
      </trkpt>
      <trkpt lat="52.06670821644365787506103515625" lon="1.2770927511155605316162109375">
        <ele>-9.80000019073486328125</ele>
        <time>2025-09-05T12:36:45.000Z</time>
        <extensions>
          <ns3:TrackPointExtension>
            <ns3:hr>135</ns3:hr>
            <ns3:cad>78</ns3:cad>
          </ns3:TrackPointExtension>
        </extensions>
      </trkpt>
      <trkpt lat="52.066682986915111541748046875" lon="1.27697582356631755828857421875">
        <ele>-37.200000762939453125</ele>
        <time>2025-09-05T12:38:21.000Z</time>
        <extensions>
          <ns3:TrackPointExtension>
            <ns3:hr>133</ns3:hr>
            <ns3:cad>62</ns3:cad>
          </ns3:TrackPointExtension>
        </extensions>
      </trkpt>
      <trkpt lat="52.0666922070086002349853515625" lon="1.27691430039703845977783203125">
        <ele>-37.40000152587890625</ele>
        <time>2025-09-05T12:38:23.000Z</time>
        <extensions>
          <ns3:TrackPointExtension>
            <ns3:hr>133</ns3:hr>
            <ns3:cad>61</ns3:cad>
          </ns3:TrackPointExtension>
        </extensions>
      </trkpt>
      <trkpt lat="52.06675046123564243316650390625" lon="1.276851855218410491943359375">
        <ele>-37.59999847412109375</ele>
        <time>2025-09-05T12:38:28.000Z</time>
        <extensions>
          <ns3:TrackPointExtension>
            <ns3:hr>132</ns3:hr>
            <ns3:cad>62</ns3:cad>
          </ns3:TrackPointExtension>
        </extensions>
      </trkpt>
      <trkpt lat="52.06676722504198551177978515625" lon="1.27675286494195461273193359375">
        <ele>-38</ele>
        <time>2025-09-05T12:38:32.000Z</time>
        <extensions>
          <ns3:TrackPointExtension>
            <ns3:hr>135</ns3:hr>
            <ns3:cad>62</ns3:cad>
          </ns3:TrackPointExtension>
        </extensions>
      </trkpt>
      <trkpt lat="52.0667771995067596435546875" lon="1.27673341892659664154052734375">
        <ele>-38</ele>
        <time>2025-09-05T12:38:33.000Z</time>
        <extensions>
          <ns3:TrackPointExtension>
            <ns3:hr>135</ns3:hr>
            <ns3:cad>62</ns3:cad>
          </ns3:TrackPointExtension>
        </extensions>
      </trkpt>
      <trkpt lat="52.06679924391210079193115234375" lon="1.276707686483860015869140625">
        <ele>-38.40000152587890625</ele>
        <time>2025-09-05T12:38:35.000Z</time>
        <extensions>
          <ns3:TrackPointExtension>
            <ns3:hr>135</ns3:hr>
            <ns3:cad>62</ns3:cad>
          </ns3:TrackPointExtension>
        </extensions>
      </trkpt>
      <trkpt lat="52.06683151423931121826171875" lon="1.27664088271558284759521484375">
        <ele>-39.200000762939453125</ele>
        <time>2025-09-05T12:38:39.000Z</time>
        <extensions>
          <ns3:TrackPointExtension>
            <ns3:hr>137</ns3:hr>
            <ns3:cad>62</ns3:cad>
          </ns3:TrackPointExtension>
        </extensions>
      </trkpt>
      <trkpt lat="52.06684249453246593475341796875" lon="1.276619844138622283935546875">
        <ele>-39.59999847412109375</ele>
        <time>2025-09-05T12:38:40.000Z</time>
        <extensions>
          <ns3:TrackPointExtension>
            <ns3:hr>136</ns3:hr>
            <ns3:cad>62</ns3:cad>
          </ns3:TrackPointExtension>
        </extensions>
      </trkpt>
      <trkpt lat="52.066870070993900299072265625" lon="1.2765593267977237701416015625">
        <ele>-40.59999847412109375</ele>
        <time>2025-09-05T12:38:44.000Z</time>
        <extensions>
          <ns3:TrackPointExtension>
            <ns3:hr>137</ns3:hr>
            <ns3:cad>62</ns3:cad>
          </ns3:TrackPointExtension>
        </extensions>
      </trkpt>
      <trkpt lat="52.06688649952411651611328125" lon="1.27653158269822597503662109375">
        <ele>-41.200000762939453125</ele>
        <time>2025-09-05T12:38:46.000Z</time>
        <extensions>
          <ns3:TrackPointExtension>
            <ns3:hr>138</ns3:hr>
            <ns3:cad>62</ns3:cad>
          </ns3:TrackPointExtension>
        </extensions>
      </trkpt>
      <trkpt lat="52.06689781509339809417724609375" lon="1.27649771980941295623779296875">
        <ele>-41.799999237060546875</ele>
        <time>2025-09-05T12:38:48.000Z</time>
        <extensions>
          <ns3:TrackPointExtension>
            <ns3:hr>138</ns3:hr>
            <ns3:cad>64</ns3:cad>
          </ns3:TrackPointExtension>
        </extensions>
      </trkpt>
      <trkpt lat="52.06693436019122600555419921875" lon="1.27643200568854808807373046875">
        <ele>-43</ele>
        <time>2025-09-05T12:38:52.000Z</time>
        <extensions>
          <ns3:TrackPointExtension>
            <ns3:hr>138</ns3:hr>
            <ns3:cad>62</ns3:cad>
          </ns3:TrackPointExtension>
        </extensions>
      </trkpt>
      <trkpt lat="52.06695732660591602325439453125" lon="1.2764010764658451080322265625">
        <ele>-43.59999847412109375</ele>
        <time>2025-09-05T12:38:54.000Z</time>
        <extensions>
          <ns3:TrackPointExtension>
            <ns3:hr>136</ns3:hr>
            <ns3:cad>62</ns3:cad>
          </ns3:TrackPointExtension>
        </extensions>
      </trkpt>
      <trkpt lat="52.06699085421860218048095703125" lon="1.27635254524648189544677734375">
        <ele>-44.200000762939453125</ele>
        <time>2025-09-05T12:38:57.000Z</time>
        <extensions>
          <ns3:TrackPointExtension>
            <ns3:hr>135</ns3:hr>
            <ns3:cad>61</ns3:cad>
          </ns3:TrackPointExtension>
        </extensions>
      </trkpt>
      <trkpt lat="52.067018263041973114013671875" lon="1.27627928741276264190673828125">
        <ele>-44.799999237060546875</ele>
        <time>2025-09-05T12:39:01.000Z</time>
        <extensions>
          <ns3:TrackPointExtension>
            <ns3:hr>138</ns3:hr>
            <ns3:cad>62</ns3:cad>
          </ns3:TrackPointExtension>
        </extensions>
      </trkpt>
      <trkpt lat="52.06704114563763141632080078125" lon="1.27624928019940853118896484375">
        <ele>-45</ele>
        <time>2025-09-05T12:39:03.000Z</time>
        <extensions>
          <ns3:TrackPointExtension>
            <ns3:hr>137</ns3:hr>
            <ns3:cad>62</ns3:cad>
          </ns3:TrackPointExtension>
        </extensions>
      </trkpt>
      <trkpt lat="52.0670641958713531494140625" lon="1.2762206979095935821533203125">
        <ele>-45.40000152587890625</ele>
        <time>2025-09-05T12:39:05.000Z</time>
        <extensions>
          <ns3:TrackPointExtension>
            <ns3:hr>140</ns3:hr>
            <ns3:cad>62</ns3:cad>
          </ns3:TrackPointExtension>
        </extensions>
      </trkpt>
      <trkpt lat="52.067123539745807647705078125" lon="1.27608968876302242279052734375">
        <ele>-46</ele>
        <time>2025-09-05T12:39:12.000Z</time>
        <extensions>
          <ns3:TrackPointExtension>
            <ns3:hr>137</ns3:hr>
            <ns3:cad>63</ns3:cad>
          </ns3:TrackPointExtension>
        </extensions>
      </trkpt>
      <trkpt lat="52.06712915562093257904052734375" lon="1.27603881061077117919921875">
        <ele>-46.40000152587890625</ele>
        <time>2025-09-05T12:39:14.000Z</time>
        <extensions>
          <ns3:TrackPointExtension>
            <ns3:hr>137</ns3:hr>
            <ns3:cad>63</ns3:cad>
          </ns3:TrackPointExtension>
        </extensions>
      </trkpt>
      <trkpt lat="52.06712714396417140960693359375" lon="1.275992877781391143798828125">
        <ele>-47</ele>
        <time>2025-09-05T12:39:17.000Z</time>
        <extensions>
          <ns3:TrackPointExtension>
            <ns3:hr>137</ns3:hr>
            <ns3:cad>63</ns3:cad>
          </ns3:TrackPointExtension>
        </extensions>
      </trkpt>
      <trkpt lat="52.0671206898987293243408203125" lon="1.27597787417471408843994140625">
        <ele>-47.200000762939453125</ele>
        <time>2025-09-05T12:39:18.000Z</time>
        <extensions>
          <ns3:TrackPointExtension>
            <ns3:hr>137</ns3:hr>
            <ns3:cad>63</ns3:cad>
          </ns3:TrackPointExtension>
        </extensions>
      </trkpt>
      <trkpt lat="52.06711054779589176177978515625" lon="1.27595909871160984039306640625">
        <ele>-47.40000152587890625</ele>
        <time>2025-09-05T12:39:19.000Z</time>
        <extensions>
          <ns3:TrackPointExtension>
            <ns3:hr>139</ns3:hr>
            <ns3:cad>63</ns3:cad>
          </ns3:TrackPointExtension>
        </extensions>
      </trkpt>
      <trkpt lat="52.06704935990273952484130859375" lon="1.27583823166787624359130859375">
        <ele>-48.40000152587890625</ele>
        <time>2025-09-05T12:39:24.000Z</time>
        <extensions>
          <ns3:TrackPointExtension>
            <ns3:hr>140</ns3:hr>
            <ns3:cad>62</ns3:cad>
          </ns3:TrackPointExtension>
        </extensions>
      </trkpt>
      <trkpt lat="52.06693888641893863677978515625" lon="1.27572499215602874755859375">
        <ele>-49.59999847412109375</ele>
        <time>2025-09-05T12:39:31.000Z</time>
        <extensions>
          <ns3:TrackPointExtension>
            <ns3:hr>140</ns3:hr>
            <ns3:cad>0</ns3:cad>
          </ns3:TrackPointExtension>
        </extensions>
      </trkpt>
      <trkpt lat="52.06690049730241298675537109375" lon="1.2757110781967639923095703125">
        <ele>-49.799999237060546875</ele>
        <time>2025-09-05T12:39:33.000Z</time>
        <extensions>
          <ns3:TrackPointExtension>
            <ns3:hr>141</ns3:hr>
            <ns3:cad>0</ns3:cad>
          </ns3:TrackPointExtension>
        </extensions>
      </trkpt>
      <trkpt lat="52.0668125711381435394287109375" lon="1.27564276568591594696044921875">
        <ele>-50.40000152587890625</ele>
        <time>2025-09-05T12:39:38.000Z</time>
        <extensions>
          <ns3:TrackPointExtension>
            <ns3:hr>144</ns3:hr>
            <ns3:cad>62</ns3:cad>
          </ns3:TrackPointExtension>
        </extensions>
      </trkpt>
      <trkpt lat="52.0667937956750392913818359375" lon="1.27562499605119228363037109375">
        <ele>-50.59999847412109375</ele>
        <time>2025-09-05T12:39:39.000Z</time>
        <extensions>
          <ns3:TrackPointExtension>
            <ns3:hr>144</ns3:hr>
            <ns3:cad>0</ns3:cad>
          </ns3:TrackPointExtension>
        </extensions>
      </trkpt>
      <trkpt lat="52.06676454283297061920166015625" lon="1.27560563385486602783203125">
        <ele>-50.799999237060546875</ele>
        <time>2025-09-05T12:39:41.000Z</time>
        <extensions>
          <ns3:TrackPointExtension>
            <ns3:hr>144</ns3:hr>
            <ns3:cad>63</ns3:cad>
          </ns3:TrackPointExtension>
        </extensions>
      </trkpt>
      <trkpt lat="52.06667485646903514862060546875" lon="1.27551904879510402679443359375">
        <ele>-51.799999237060546875</ele>
        <time>2025-09-05T12:39:47.000Z</time>
        <extensions>
          <ns3:TrackPointExtension>
            <ns3:hr>145</ns3:hr>
            <ns3:cad>62</ns3:cad>
          </ns3:TrackPointExtension>
        </extensions>
      </trkpt>
      <trkpt lat="52.06663973629474639892578125" lon="1.27549029886722564697265625">
        <ele>-52</ele>
        <time>2025-09-05T12:39:49.000Z</time>
        <extensions>
          <ns3:TrackPointExtension>
            <ns3:hr>145</ns3:hr>
            <ns3:cad>62</ns3:cad>
          </ns3:TrackPointExtension>
        </extensions>
      </trkpt>
      <trkpt lat="52.06656396389007568359375" lon="1.275382339954376220703125">
        <ele>-52.799999237060546875</ele>
        <time>2025-09-05T12:39:55.000Z</time>
        <extensions>
          <ns3:TrackPointExtension>
            <ns3:hr>145</ns3:hr>
            <ns3:cad>62</ns3:cad>
          </ns3:TrackPointExtension>
        </extensions>
      </trkpt>
      <trkpt lat="52.0665480382740497589111328125" lon="1.2752785719931125640869140625">
        <ele>-53.59999847412109375</ele>
        <time>2025-09-05T12:40:00.000Z</time>
        <extensions>
          <ns3:TrackPointExtension>
            <ns3:hr>146</ns3:hr>
            <ns3:cad>62</ns3:cad>
          </ns3:TrackPointExtension>
        </extensions>
      </trkpt>
      <trkpt lat="52.06656371243298053741455078125" lon="1.275233812630176544189453125">
        <ele>-54</ele>
        <time>2025-09-05T12:40:02.000Z</time>
        <extensions>
          <ns3:TrackPointExtension>
            <ns3:hr>146</ns3:hr>
            <ns3:cad>0</ns3:cad>
          </ns3:TrackPointExtension>
        </extensions>
      </trkpt>
      <trkpt lat="52.06660377793014049530029296875" lon="1.27509308047592639923095703125">
        <ele>-54.799999237060546875</ele>
        <time>2025-09-05T12:40:07.000Z</time>
        <extensions>
          <ns3:TrackPointExtension>
            <ns3:hr>147</ns3:hr>
            <ns3:cad>63</ns3:cad>
          </ns3:TrackPointExtension>
        </extensions>
      </trkpt>
      <trkpt lat="52.06662070937454700469970703125" lon="1.275044046342372894287109375">
        <ele>-55.200000762939453125</ele>
        <time>2025-09-05T12:40:09.000Z</time>
        <extensions>
          <ns3:TrackPointExtension>
            <ns3:hr>147</ns3:hr>
            <ns3:cad>62</ns3:cad>
          </ns3:TrackPointExtension>
        </extensions>
      </trkpt>
      <trkpt lat="52.06663328222930431365966796875" lon="1.27503097057342529296875">
        <ele>-55.200000762939453125</ele>
        <time>2025-09-05T12:40:10.000Z</time>
        <extensions>
          <ns3:TrackPointExtension>
            <ns3:hr>147</ns3:hr>
            <ns3:cad>62</ns3:cad>
          </ns3:TrackPointExtension>
        </extensions>
      </trkpt>
      <trkpt lat="52.06666647456586360931396484375" lon="1.27502988092601299285888671875">
        <ele>-55.59999847412109375</ele>
        <time>2025-09-05T12:40:12.000Z</time>
        <extensions>
          <ns3:TrackPointExtension>
            <ns3:hr>147</ns3:hr>
            <ns3:cad>62</ns3:cad>
          </ns3:TrackPointExtension>
        </extensions>
      </trkpt>
      <trkpt lat="52.06672154366970062255859375" lon="1.2750666774809360504150390625">
        <ele>-56.200000762939453125</ele>
        <time>2025-09-05T12:40:16.000Z</time>
        <extensions>
          <ns3:TrackPointExtension>
            <ns3:hr>147</ns3:hr>
            <ns3:cad>57</ns3:cad>
          </ns3:TrackPointExtension>
        </extensions>
      </trkpt>
      <trkpt lat="52.0667522214353084564208984375" lon="1.2750904820859432220458984375">
        <ele>-56.200000762939453125</ele>
        <time>2025-09-05T12:40:19.000Z</time>
        <extensions>
          <ns3:TrackPointExtension>
            <ns3:hr>145</ns3:hr>
            <ns3:cad>60</ns3:cad>
          </ns3:TrackPointExtension>
        </extensions>
      </trkpt>
      <trkpt lat="52.06683729775249958038330078125" lon="1.2751474790275096893310546875">
        <ele>-56</ele>
        <time>2025-09-05T12:40:25.000Z</time>
        <extensions>
          <ns3:TrackPointExtension>
            <ns3:hr>147</ns3:hr>
            <ns3:cad>0</ns3:cad>
          </ns3:TrackPointExtension>
        </extensions>
      </trkpt>
      <trkpt lat="52.06688675098121166229248046875" lon="1.27519718371331691741943359375">
        <ele>-55.59999847412109375</ele>
        <time>2025-09-05T12:40:32.000Z</time>
        <extensions>
          <ns3:TrackPointExtension>
            <ns3:hr>145</ns3:hr>
            <ns3:cad>0</ns3:cad>
          </ns3:TrackPointExtension>
        </extensions>
      </trkpt>
      <trkpt lat="52.06699672155082225799560546875" lon="1.275225766003131866455078125">
        <ele>-55.59999847412109375</ele>
        <time>2025-09-05T12:40:37.000Z</time>
        <extensions>
          <ns3:TrackPointExtension>
            <ns3:hr>140</ns3:hr>
            <ns3:cad>61</ns3:cad>
          </ns3:TrackPointExtension>
        </extensions>
      </trkpt>
      <trkpt lat="52.06703360192477703094482421875" lon="1.27523951232433319091796875">
        <ele>-55.59999847412109375</ele>
        <time>2025-09-05T12:40:39.000Z</time>
        <extensions>
          <ns3:TrackPointExtension>
            <ns3:hr>141</ns3:hr>
            <ns3:cad>60</ns3:cad>
          </ns3:TrackPointExtension>
        </extensions>
      </trkpt>
      <trkpt lat="52.06715337932109832763671875" lon="1.27537588588893413543701171875">
        <ele>-56.59999847412109375</ele>
        <time>2025-09-05T12:40:48.000Z</time>
        <extensions>
          <ns3:TrackPointExtension>
            <ns3:hr>143</ns3:hr>
            <ns3:cad>60</ns3:cad>
          </ns3:TrackPointExtension>
        </extensions>
      </trkpt>
      <trkpt lat="52.06718766130506992340087890625" lon="1.275418214499950408935546875">
        <ele>-57.200000762939453125</ele>
        <time>2025-09-05T12:40:51.000Z</time>
        <extensions>
          <ns3:TrackPointExtension>
            <ns3:hr>143</ns3:hr>
            <ns3:cad>60</ns3:cad>
          </ns3:TrackPointExtension>
        </extensions>
      </trkpt>
      <trkpt lat="52.06722688861191272735595703125" lon="1.275505721569061279296875">
        <ele>-58.200000762939453125</ele>
        <time>2025-09-05T12:40:55.000Z</time>
        <extensions>
          <ns3:TrackPointExtension>
            <ns3:hr>145</ns3:hr>
            <ns3:cad>0</ns3:cad>
          </ns3:TrackPointExtension>
        </extensions>
      </trkpt>
      <trkpt lat="52.0672358572483062744140625" lon="1.2755226530134677886962890625">
        <ele>-58.40000152587890625</ele>
        <time>2025-09-05T12:40:56.000Z</time>
        <extensions>
          <ns3:TrackPointExtension>
            <ns3:hr>145</ns3:hr>
            <ns3:cad>0</ns3:cad>
          </ns3:TrackPointExtension>
        </extensions>
      </trkpt>
      <trkpt lat="52.06726527772843837738037109375" lon="1.27557881176471710205078125">
        <ele>-59.59999847412109375</ele>
        <time>2025-09-05T12:41:00.000Z</time>
        <extensions>
          <ns3:TrackPointExtension>
            <ns3:hr>145</ns3:hr>
            <ns3:cad>0</ns3:cad>
          </ns3:TrackPointExtension>
        </extensions>
      </trkpt>
      <trkpt lat="52.0672900043427944183349609375" lon="1.2756121717393398284912109375">
        <ele>-60</ele>
        <time>2025-09-05T12:41:02.000Z</time>
        <extensions>
          <ns3:TrackPointExtension>
            <ns3:hr>147</ns3:hr>
            <ns3:cad>61</ns3:cad>
          </ns3:TrackPointExtension>
        </extensions>
      </trkpt>
      <trkpt lat="52.06731338985264301300048828125" lon="1.27565349452197551727294921875">
        <ele>-60.59999847412109375</ele>
        <time>2025-09-05T12:41:04.000Z</time>
        <extensions>
          <ns3:TrackPointExtension>
            <ns3:hr>147</ns3:hr>
            <ns3:cad>62</ns3:cad>
          </ns3:TrackPointExtension>
        </extensions>
      </trkpt>
      <trkpt lat="52.067367620766162872314453125" lon="1.27572993747889995574951171875">
        <ele>-61.799999237060546875</ele>
        <time>2025-09-05T12:41:08.000Z</time>
        <extensions>
          <ns3:TrackPointExtension>
            <ns3:hr>147</ns3:hr>
            <ns3:cad>0</ns3:cad>
          </ns3:TrackPointExtension>
        </extensions>
      </trkpt>
      <trkpt lat="52.0674398727715015411376953125" lon="1.27580839209258556365966796875">
        <ele>-63</ele>
        <time>2025-09-05T12:41:12.000Z</time>
        <extensions>
          <ns3:TrackPointExtension>
            <ns3:hr>146</ns3:hr>
            <ns3:cad>61</ns3:cad>
          </ns3:TrackPointExtension>
        </extensions>
      </trkpt>
      <trkpt lat="52.0674740709364414215087890625" lon="1.2758461944758892059326171875">
        <ele>-63.799999237060546875</ele>
        <time>2025-09-05T12:41:14.000Z</time>
        <extensions>
          <ns3:TrackPointExtension>
            <ns3:hr>143</ns3:hr>
            <ns3:cad>0</ns3:cad>
          </ns3:TrackPointExtension>
        </extensions>
      </trkpt>
      <trkpt lat="52.06750617362558841705322265625" lon="1.27588718198239803314208984375">
        <ele>-64.40000152587890625</ele>
        <time>2025-09-05T12:41:16.000Z</time>
        <extensions>
          <ns3:TrackPointExtension>
            <ns3:hr>144</ns3:hr>
            <ns3:cad>0</ns3:cad>
          </ns3:TrackPointExtension>
        </extensions>
      </trkpt>
      <trkpt lat="52.0675488375127315521240234375" lon="1.2759367190301418304443359375">
        <ele>-65.40000152587890625</ele>
        <time>2025-09-05T12:41:19.000Z</time>
        <extensions>
          <ns3:TrackPointExtension>
            <ns3:hr>140</ns3:hr>
            <ns3:cad>0</ns3:cad>
          </ns3:TrackPointExtension>
        </extensions>
      </trkpt>
      <trkpt lat="52.06755797378718852996826171875" lon="1.27594904042780399322509765625">
        <ele>-65.59999847412109375</ele>
        <time>2025-09-05T12:41:20.000Z</time>
        <extensions>
          <ns3:TrackPointExtension>
            <ns3:hr>141</ns3:hr>
            <ns3:cad>0</ns3:cad>
          </ns3:TrackPointExtension>
        </extensions>
      </trkpt>
      <trkpt lat="52.0675920881330966949462890625" lon="1.27599463798105716705322265625">
        <ele>-66.8000030517578125</ele>
        <time>2025-09-05T12:41:23.000Z</time>
        <extensions>
          <ns3:TrackPointExtension>
            <ns3:hr>142</ns3:hr>
            <ns3:cad>0</ns3:cad>
          </ns3:TrackPointExtension>
        </extensions>
      </trkpt>
      <trkpt lat="52.067619748413562774658203125" lon="1.27605448476970195770263671875">
        <ele>-67.8000030517578125</ele>
        <time>2025-09-05T12:41:26.000Z</time>
        <extensions>
          <ns3:TrackPointExtension>
            <ns3:hr>143</ns3:hr>
            <ns3:cad>0</ns3:cad>
          </ns3:TrackPointExtension>
        </extensions>
      </trkpt>
      <trkpt lat="52.06762687303125858306884765625" lon="1.2760892696678638458251953125">
        <ele>-68.40000152587890625</ele>
        <time>2025-09-05T12:41:28.000Z</time>
        <extensions>
          <ns3:TrackPointExtension>
            <ns3:hr>146</ns3:hr>
            <ns3:cad>0</ns3:cad>
          </ns3:TrackPointExtension>
        </extensions>
      </trkpt>
      <trkpt lat="52.0676328241825103759765625" lon="1.276102848351001739501953125">
        <ele>-68.8000030517578125</ele>
        <time>2025-09-05T12:41:29.000Z</time>
        <extensions>
          <ns3:TrackPointExtension>
            <ns3:hr>145</ns3:hr>
            <ns3:cad>0</ns3:cad>
          </ns3:TrackPointExtension>
        </extensions>
      </trkpt>
      <trkpt lat="52.06766274757683277130126953125" lon="1.27615070901811122894287109375">
        <ele>-69.8000030517578125</ele>
        <time>2025-09-05T12:41:32.000Z</time>
        <extensions>
          <ns3:TrackPointExtension>
            <ns3:hr>147</ns3:hr>
            <ns3:cad>0</ns3:cad>
          </ns3:TrackPointExtension>
        </extensions>
      </trkpt>
      <trkpt lat="52.06767280586063861846923828125" lon="1.2761630304157733917236328125">
        <ele>-70.1999969482421875</ele>
        <time>2025-09-05T12:41:33.000Z</time>
        <extensions>
          <ns3:TrackPointExtension>
            <ns3:hr>146</ns3:hr>
            <ns3:cad>0</ns3:cad>
          </ns3:TrackPointExtension>
        </extensions>
      </trkpt>
      <trkpt lat="52.06768579781055450439453125" lon="1.276169903576374053955078125">
        <ele>-70.8000030517578125</ele>
        <time>2025-09-05T12:41:35.000Z</time>
        <extensions>
          <ns3:TrackPointExtension>
            <ns3:hr>145</ns3:hr>
            <ns3:cad>0</ns3:cad>
          </ns3:TrackPointExtension>
        </extensions>
      </trkpt>
      <trkpt lat="52.0677159726619720458984375" lon="1.2762139923870563507080078125">
        <ele>-71.8000030517578125</ele>
        <time>2025-09-05T12:41:38.000Z</time>
        <extensions>
          <ns3:TrackPointExtension>
            <ns3:hr>145</ns3:hr>
            <ns3:cad>0</ns3:cad>
          </ns3:TrackPointExtension>
        </extensions>
      </trkpt>
      <trkpt lat="52.0677401125431060791015625" lon="1.27623352222144603729248046875">
        <ele>-72.59999847412109375</ele>
        <time>2025-09-05T12:41:40.000Z</time>
        <extensions>
          <ns3:TrackPointExtension>
            <ns3:hr>144</ns3:hr>
            <ns3:cad>0</ns3:cad>
          </ns3:TrackPointExtension>
        </extensions>
      </trkpt>
      <trkpt lat="52.06775285303592681884765625" lon="1.27624374814331531524658203125">
        <ele>-73</ele>
        <time>2025-09-05T12:41:41.000Z</time>
        <extensions>
          <ns3:TrackPointExtension>
            <ns3:hr>143</ns3:hr>
            <ns3:cad>0</ns3:cad>
          </ns3:TrackPointExtension>
        </extensions>
      </trkpt>
      <trkpt lat="52.06778059713542461395263671875" lon="1.27628599293529987335205078125">
        <ele>-74</ele>
        <time>2025-09-05T12:41:44.000Z</time>
        <extensions>
          <ns3:TrackPointExtension>
            <ns3:hr>143</ns3:hr>
            <ns3:cad>62</ns3:cad>
          </ns3:TrackPointExtension>
        </extensions>
      </trkpt>
      <trkpt lat="52.06782435066998004913330078125" lon="1.27633980475366115570068359375">
        <ele>-75.1999969482421875</ele>
        <time>2025-09-05T12:41:48.000Z</time>
        <extensions>
          <ns3:TrackPointExtension>
            <ns3:hr>145</ns3:hr>
            <ns3:cad>61</ns3:cad>
          </ns3:TrackPointExtension>
        </extensions>
      </trkpt>
      <trkpt lat="52.067833654582500457763671875" lon="1.27635036595165729522705078125">
        <ele>-75.59999847412109375</ele>
        <time>2025-09-05T12:41:49.000Z</time>
        <extensions>
          <ns3:TrackPointExtension>
            <ns3:hr>145</ns3:hr>
            <ns3:cad>61</ns3:cad>
          </ns3:TrackPointExtension>
        </extensions>
      </trkpt>
      <trkpt lat="52.067848742008209228515625" lon="1.27636981196701526641845703125">
        <ele>-76.1999969482421875</ele>
        <time>2025-09-05T12:41:51.000Z</time>
        <extensions>
          <ns3:TrackPointExtension>
            <ns3:hr>141</ns3:hr>
            <ns3:cad>0</ns3:cad>
          </ns3:TrackPointExtension>
        </extensions>
      </trkpt>
      <trkpt lat="52.06785343587398529052734375" lon="1.276383809745311737060546875">
        <ele>-76.40000152587890625</ele>
        <time>2025-09-05T12:41:52.000Z</time>
        <extensions>
          <ns3:TrackPointExtension>
            <ns3:hr>141</ns3:hr>
            <ns3:cad>0</ns3:cad>
          </ns3:TrackPointExtension>
        </extensions>
      </trkpt>
      <trkpt lat="52.06785586662590503692626953125" lon="1.2764404714107513427734375">
        <ele>-77.59999847412109375</ele>
        <time>2025-09-05T12:41:56.000Z</time>
        <extensions>
          <ns3:TrackPointExtension>
            <ns3:hr>141</ns3:hr>
            <ns3:cad>0</ns3:cad>
          </ns3:TrackPointExtension>
        </extensions>
      </trkpt>
      <trkpt lat="52.067855782806873321533203125" lon="1.27645748667418956756591796875">
        <ele>-77.8000030517578125</ele>
        <time>2025-09-05T12:41:57.000Z</time>
        <extensions>
          <ns3:TrackPointExtension>
            <ns3:hr>142</ns3:hr>
            <ns3:cad>62</ns3:cad>
          </ns3:TrackPointExtension>
        </extensions>
      </trkpt>
      <trkpt lat="52.0678479038178920745849609375" lon="1.27654516138136386871337890625">
        <ele>-78.8000030517578125</ele>
        <time>2025-09-05T12:42:01.000Z</time>
        <extensions>
          <ns3:TrackPointExtension>
            <ns3:hr>142</ns3:hr>
            <ns3:cad>61</ns3:cad>
          </ns3:TrackPointExtension>
        </extensions>
      </trkpt>
      <trkpt lat="52.06785787828266620635986328125" lon="1.2766632623970508575439453125">
        <ele>-79.1999969482421875</ele>
        <time>2025-09-05T12:42:05.000Z</time>
        <extensions>
          <ns3:TrackPointExtension>
            <ns3:hr>142</ns3:hr>
            <ns3:cad>62</ns3:cad>
          </ns3:TrackPointExtension>
        </extensions>
      </trkpt>
      <trkpt lat="52.0678676851093769073486328125" lon="1.2767249532043933868408203125">
        <ele>-79.40000152587890625</ele>
        <time>2025-09-05T12:42:07.000Z</time>
        <extensions>
          <ns3:TrackPointExtension>
            <ns3:hr>139</ns3:hr>
            <ns3:cad>60</ns3:cad>
          </ns3:TrackPointExtension>
        </extensions>
      </trkpt>
      <trkpt lat="52.06793247722089290618896484375" lon="1.27685420215129852294921875">
        <ele>-79.59999847412109375</ele>
        <time>2025-09-05T12:42:12.000Z</time>
        <extensions>
          <ns3:TrackPointExtension>
            <ns3:hr>138</ns3:hr>
            <ns3:cad>60</ns3:cad>
          </ns3:TrackPointExtension>
        </extensions>
      </trkpt>
      <trkpt lat="52.0679444633424282073974609375" lon="1.276877336204051971435546875">
        <ele>-79.8000030517578125</ele>
        <time>2025-09-05T12:42:13.000Z</time>
        <extensions>
          <ns3:TrackPointExtension>
            <ns3:hr>137</ns3:hr>
            <ns3:cad>59</ns3:cad>
          </ns3:TrackPointExtension>
        </extensions>
      </trkpt>
      <trkpt lat="52.06796516664326190948486328125" lon="1.2769163958728313446044921875">
        <ele>-79.8000030517578125</ele>
        <time>2025-09-05T12:42:16.000Z</time>
        <extensions>
          <ns3:TrackPointExtension>
            <ns3:hr>135</ns3:hr>
            <ns3:cad>59</ns3:cad>
          </ns3:TrackPointExtension>
        </extensions>
      </trkpt>
      <trkpt lat="52.0680390112102031707763671875" lon="1.27708084881305694580078125">
        <ele>-79.8000030517578125</ele>
        <time>2025-09-05T12:42:22.000Z</time>
        <extensions>
          <ns3:TrackPointExtension>
            <ns3:hr>134</ns3:hr>
            <ns3:cad>61</ns3:cad>
          </ns3:TrackPointExtension>
        </extensions>
      </trkpt>
      <trkpt lat="52.0680245943367481231689453125" lon="1.2772453017532825469970703125">
        <ele>-79</ele>
        <time>2025-09-05T12:42:29.000Z</time>
        <extensions>
          <ns3:TrackPointExtension>
            <ns3:hr>132</ns3:hr>
            <ns3:cad>60</ns3:cad>
          </ns3:TrackPointExtension>
        </extensions>
      </trkpt>
      <trkpt lat="52.06801881082355976104736328125" lon="1.27725309692323207855224609375">
        <ele>-78.8000030517578125</ele>
        <time>2025-09-05T12:42:30.000Z</time>
        <extensions>
          <ns3:TrackPointExtension>
            <ns3:hr>133</ns3:hr>
            <ns3:cad>0</ns3:cad>
          </ns3:TrackPointExtension>
        </extensions>
      </trkpt>
      <trkpt lat="52.06802383996546268463134765625" lon="1.27727002836763858795166015625">
        <ele>-77.59999847412109375</ele>
        <time>2025-09-05T12:42:36.000Z</time>
        <extensions>
          <ns3:TrackPointExtension>
            <ns3:hr>135</ns3:hr>
            <ns3:cad>0</ns3:cad>
          </ns3:TrackPointExtension>
        </extensions>
      </trkpt>
      <trkpt lat="52.0679773204028606414794921875" lon="1.277387626469135284423828125">
        <ele>-76.59999847412109375</ele>
        <time>2025-09-05T12:42:41.000Z</time>
        <extensions>
          <ns3:TrackPointExtension>
            <ns3:hr>134</ns3:hr>
            <ns3:cad>57</ns3:cad>
          </ns3:TrackPointExtension>
        </extensions>
      </trkpt>
      <trkpt lat="52.06797187216579914093017578125" lon="1.27744068391621112823486328125">
        <ele>-76.1999969482421875</ele>
        <time>2025-09-05T12:42:43.000Z</time>
        <extensions>
          <ns3:TrackPointExtension>
            <ns3:hr>134</ns3:hr>
            <ns3:cad>58</ns3:cad>
          </ns3:TrackPointExtension>
        </extensions>
      </trkpt>
      <trkpt lat="52.0679665915668010711669921875" lon="1.27751880325376987457275390625">
        <ele>-75.59999847412109375</ele>
        <time>2025-09-05T12:42:46.000Z</time>
        <extensions>
          <ns3:TrackPointExtension>
            <ns3:hr>133</ns3:hr>
            <ns3:cad>60</ns3:cad>
          </ns3:TrackPointExtension>
        </extensions>
      </trkpt>
      <trkpt lat="52.06795544363558292388916015625" lon="1.27756959758698940277099609375">
        <ele>-75.1999969482421875</ele>
        <time>2025-09-05T12:42:48.000Z</time>
        <extensions>
          <ns3:TrackPointExtension>
            <ns3:hr>130</ns3:hr>
            <ns3:cad>60</ns3:cad>
          </ns3:TrackPointExtension>
        </extensions>
      </trkpt>
      <trkpt lat="52.067935578525066375732421875" lon="1.27764671109616756439208984375">
        <ele>-74.59999847412109375</ele>
        <time>2025-09-05T12:42:51.000Z</time>
        <extensions>
          <ns3:TrackPointExtension>
            <ns3:hr>134</ns3:hr>
            <ns3:cad>60</ns3:cad>
          </ns3:TrackPointExtension>
        </extensions>
      </trkpt>
      <trkpt lat="52.067927531898021697998046875" lon="1.277673281729221343994140625">
        <ele>-74.40000152587890625</ele>
        <time>2025-09-05T12:42:52.000Z</time>
        <extensions>
          <ns3:TrackPointExtension>
            <ns3:hr>135</ns3:hr>
            <ns3:cad>61</ns3:cad>
          </ns3:TrackPointExtension>
        </extensions>
      </trkpt>
      <trkpt lat="52.0679203234612941741943359375" lon="1.27778048627078533172607421875">
        <ele>-73.59999847412109375</ele>
        <time>2025-09-05T12:42:56.000Z</time>
        <extensions>
          <ns3:TrackPointExtension>
            <ns3:hr>135</ns3:hr>
            <ns3:cad>62</ns3:cad>
          </ns3:TrackPointExtension>
        </extensions>
      </trkpt>
      <trkpt lat="52.06793515942990779876708984375" lon="1.27784234471619129180908203125">
        <ele>-73</ele>
        <time>2025-09-05T12:42:59.000Z</time>
        <extensions>
          <ns3:TrackPointExtension>
            <ns3:hr>136</ns3:hr>
            <ns3:cad>61</ns3:cad>
          </ns3:TrackPointExtension>
        </extensions>
      </trkpt>
      <trkpt lat="52.06794798374176025390625" lon="1.27788148820400238037109375">
        <ele>-72.59999847412109375</ele>
        <time>2025-09-05T12:43:01.000Z</time>
        <extensions>
          <ns3:TrackPointExtension>
            <ns3:hr>136</ns3:hr>
            <ns3:cad>61</ns3:cad>
          </ns3:TrackPointExtension>
        </extensions>
      </trkpt>
      <trkpt lat="52.06794798374176025390625" lon="1.277903951704502105712890625">
        <ele>-71.1999969482421875</ele>
        <time>2025-09-05T12:43:02.000Z</time>
        <extensions>
          <ns3:TrackPointExtension>
            <ns3:hr>135</ns3:hr>
            <ns3:cad>61</ns3:cad>
          </ns3:TrackPointExtension>
        </extensions>
      </trkpt>
      <trkpt lat="52.0679466426372528076171875" lon="1.27792784012854099273681640625">
        <ele>-69.8000030517578125</ele>
        <time>2025-09-05T12:43:03.000Z</time>
        <extensions>
          <ns3:TrackPointExtension>
            <ns3:hr>135</ns3:hr>
            <ns3:cad>61</ns3:cad>
          </ns3:TrackPointExtension>
        </extensions>
      </trkpt>
      <trkpt lat="52.06794337369501590728759765625" lon="1.27795583568513393402099609375">
        <ele>-68.40000152587890625</ele>
        <time>2025-09-05T12:43:04.000Z</time>
        <extensions>
          <ns3:TrackPointExtension>
            <ns3:hr>135</ns3:hr>
            <ns3:cad>61</ns3:cad>
          </ns3:TrackPointExtension>
        </extensions>
      </trkpt>
      <trkpt lat="52.067947648465633392333984375" lon="1.27798483707010746002197265625">
        <ele>-67</ele>
        <time>2025-09-05T12:43:05.000Z</time>
        <extensions>
          <ns3:TrackPointExtension>
            <ns3:hr>135</ns3:hr>
            <ns3:cad>61</ns3:cad>
          </ns3:TrackPointExtension>
        </extensions>
      </trkpt>
      <trkpt lat="52.0679474808275699615478515625" lon="1.2780157662928104400634765625">
        <ele>-65.8000030517578125</ele>
        <time>2025-09-05T12:43:06.000Z</time>
        <extensions>
          <ns3:TrackPointExtension>
            <ns3:hr>135</ns3:hr>
            <ns3:cad>61</ns3:cad>
          </ns3:TrackPointExtension>
        </extensions>
      </trkpt>
      <trkpt lat="52.06794572062790393829345703125" lon="1.27804552204906940460205078125">
        <ele>-64.40000152587890625</ele>
        <time>2025-09-05T12:43:07.000Z</time>
        <extensions>
          <ns3:TrackPointExtension>
            <ns3:hr>134</ns3:hr>
            <ns3:cad>62</ns3:cad>
          </ns3:TrackPointExtension>
        </extensions>
      </trkpt>
      <trkpt lat="52.06794152967631816864013671875" lon="1.27807326614856719970703125">
        <ele>-63.200000762939453125</ele>
        <time>2025-09-05T12:43:08.000Z</time>
        <extensions>
          <ns3:TrackPointExtension>
            <ns3:hr>134</ns3:hr>
            <ns3:cad>62</ns3:cad>
          </ns3:TrackPointExtension>
        </extensions>
      </trkpt>
      <trkpt lat="52.0679385960102081298828125" lon="1.27810033969581127166748046875">
        <ele>-61.799999237060546875</ele>
        <time>2025-09-05T12:43:09.000Z</time>
        <extensions>
          <ns3:TrackPointExtension>
            <ns3:hr>134</ns3:hr>
            <ns3:cad>61</ns3:cad>
          </ns3:TrackPointExtension>
        </extensions>
      </trkpt>
      <trkpt lat="52.06793901510536670684814453125" lon="1.2781257368624210357666015625">
        <ele>-60.59999847412109375</ele>
        <time>2025-09-05T12:43:10.000Z</time>
        <extensions>
          <ns3:TrackPointExtension>
            <ns3:hr>137</ns3:hr>
            <ns3:cad>61</ns3:cad>
          </ns3:TrackPointExtension>
        </extensions>
      </trkpt>
      <trkpt lat="52.0679384283721446990966796875" lon="1.27815616317093372344970703125">
        <ele>-59.200000762939453125</ele>
        <time>2025-09-05T12:43:11.000Z</time>
        <extensions>
          <ns3:TrackPointExtension>
            <ns3:hr>135</ns3:hr>
            <ns3:cad>61</ns3:cad>
          </ns3:TrackPointExtension>
        </extensions>
      </trkpt>
      <trkpt lat="52.06793532706797122955322265625" lon="1.27818365581333637237548828125">
        <ele>-58</ele>
        <time>2025-09-05T12:43:12.000Z</time>
        <extensions>
          <ns3:TrackPointExtension>
            <ns3:hr>134</ns3:hr>
            <ns3:cad>61</ns3:cad>
          </ns3:TrackPointExtension>
        </extensions>
      </trkpt>
      <trkpt lat="52.0679387636482715606689453125" lon="1.2782065384089946746826171875">
        <ele>-56.799999237060546875</ele>
        <time>2025-09-05T12:43:13.000Z</time>
        <extensions>
          <ns3:TrackPointExtension>
            <ns3:hr>135</ns3:hr>
            <ns3:cad>61</ns3:cad>
          </ns3:TrackPointExtension>
        </extensions>
      </trkpt>
      <trkpt lat="52.06794756464660167694091796875" lon="1.2782316841185092926025390625">
        <ele>-55.59999847412109375</ele>
        <time>2025-09-05T12:43:14.000Z</time>
        <extensions>
          <ns3:TrackPointExtension>
            <ns3:hr>133</ns3:hr>
            <ns3:cad>60</ns3:cad>
          </ns3:TrackPointExtension>
        </extensions>
      </trkpt>
      <trkpt lat="52.0679575391113758087158203125" lon="1.27825892530381679534912109375">
        <ele>-54.200000762939453125</ele>
        <time>2025-09-05T12:43:15.000Z</time>
        <extensions>
          <ns3:TrackPointExtension>
            <ns3:hr>134</ns3:hr>
            <ns3:cad>60</ns3:cad>
          </ns3:TrackPointExtension>
        </extensions>
      </trkpt>
      <trkpt lat="52.0679665915668010711669921875" lon="1.278286837041378021240234375">
        <ele>-53</ele>
        <time>2025-09-05T12:43:16.000Z</time>
        <extensions>
          <ns3:TrackPointExtension>
            <ns3:hr>134</ns3:hr>
            <ns3:cad>60</ns3:cad>
          </ns3:TrackPointExtension>
        </extensions>
      </trkpt>
      <trkpt lat="52.06797472201287746429443359375" lon="1.278313659131526947021484375">
        <ele>-51.799999237060546875</ele>
        <time>2025-09-05T12:43:17.000Z</time>
        <extensions>
          <ns3:TrackPointExtension>
            <ns3:hr>134</ns3:hr>
            <ns3:cad>60</ns3:cad>
          </ns3:TrackPointExtension>
        </extensions>
      </trkpt>
      <trkpt lat="52.06798092462122440338134765625" lon="1.27833838574588298797607421875">
        <ele>-50.59999847412109375</ele>
        <time>2025-09-05T12:43:18.000Z</time>
        <extensions>
          <ns3:TrackPointExtension>
            <ns3:hr>133</ns3:hr>
            <ns3:cad>60</ns3:cad>
          </ns3:TrackPointExtension>
        </extensions>
      </trkpt>
      <trkpt lat="52.067982517182826995849609375" lon="1.2783624418079853057861328125">
        <ele>-49.59999847412109375</ele>
        <time>2025-09-05T12:43:19.000Z</time>
        <extensions>
          <ns3:TrackPointExtension>
            <ns3:hr>134</ns3:hr>
            <ns3:cad>60</ns3:cad>
          </ns3:TrackPointExtension>
        </extensions>
      </trkpt>
      <trkpt lat="52.067982517182826995849609375" lon="1.2783624418079853057861328125">
        <ele>-48.40000152587890625</ele>
        <time>2025-09-05T12:43:20.000Z</time>
        <extensions>
          <ns3:TrackPointExtension>
            <ns3:hr>133</ns3:hr>
            <ns3:cad>60</ns3:cad>
          </ns3:TrackPointExtension>
        </extensions>
      </trkpt>
      <trkpt lat="52.06797681748867034912109375" lon="1.2784117273986339569091796875">
        <ele>-47.200000762939453125</ele>
        <time>2025-09-05T12:43:21.000Z</time>
        <extensions>
          <ns3:TrackPointExtension>
            <ns3:hr>135</ns3:hr>
            <ns3:cad>60</ns3:cad>
          </ns3:TrackPointExtension>
        </extensions>
      </trkpt>
      <trkpt lat="52.0679736323654651641845703125" lon="1.2784331850707530975341796875">
        <ele>-46</ele>
        <time>2025-09-05T12:43:22.000Z</time>
        <extensions>
          <ns3:TrackPointExtension>
            <ns3:hr>135</ns3:hr>
            <ns3:cad>61</ns3:cad>
          </ns3:TrackPointExtension>
        </extensions>
      </trkpt>
      <trkpt lat="52.0679672621190547943115234375" lon="1.2784506194293498992919921875">
        <ele>-45</ele>
        <time>2025-09-05T12:43:23.000Z</time>
        <extensions>
          <ns3:TrackPointExtension>
            <ns3:hr>135</ns3:hr>
            <ns3:cad>61</ns3:cad>
          </ns3:TrackPointExtension>
        </extensions>
      </trkpt>
      <trkpt lat="52.067958377301692962646484375" lon="1.27846755087375640869140625">
        <ele>-43.799999237060546875</ele>
        <time>2025-09-05T12:43:24.000Z</time>
        <extensions>
          <ns3:TrackPointExtension>
            <ns3:hr>134</ns3:hr>
            <ns3:cad>61</ns3:cad>
          </ns3:TrackPointExtension>
        </extensions>
      </trkpt>
      <trkpt lat="52.06795125268399715423583984375" lon="1.27848205156624317169189453125">
        <ele>-42.59999847412109375</ele>
        <time>2025-09-05T12:43:25.000Z</time>
        <extensions>
          <ns3:TrackPointExtension>
            <ns3:hr>135</ns3:hr>
            <ns3:cad>62</ns3:cad>
          </ns3:TrackPointExtension>
        </extensions>
      </trkpt>
      <trkpt lat="52.067952342331409454345703125" lon="1.27849814482033252716064453125">
        <ele>-41.59999847412109375</ele>
        <time>2025-09-05T12:43:26.000Z</time>
        <extensions>
          <ns3:TrackPointExtension>
            <ns3:hr>134</ns3:hr>
            <ns3:cad>62</ns3:cad>
          </ns3:TrackPointExtension>
        </extensions>
      </trkpt>
      <trkpt lat="52.06794773228466510772705078125" lon="1.278512477874755859375">
        <ele>-40.40000152587890625</ele>
        <time>2025-09-05T12:43:27.000Z</time>
        <extensions>
          <ns3:TrackPointExtension>
            <ns3:hr>133</ns3:hr>
            <ns3:cad>62</ns3:cad>
          </ns3:TrackPointExtension>
        </extensions>
      </trkpt>
      <trkpt lat="52.06793884746730327606201171875" lon="1.27852429635822772979736328125">
        <ele>-39.40000152587890625</ele>
        <time>2025-09-05T12:43:28.000Z</time>
        <extensions>
          <ns3:TrackPointExtension>
            <ns3:hr>132</ns3:hr>
            <ns3:cad>61</ns3:cad>
          </ns3:TrackPointExtension>
        </extensions>
      </trkpt>
      <trkpt lat="52.06792694516479969024658203125" lon="1.278536617755889892578125">
        <ele>-38.40000152587890625</ele>
        <time>2025-09-05T12:43:29.000Z</time>
        <extensions>
          <ns3:TrackPointExtension>
            <ns3:hr>132</ns3:hr>
            <ns3:cad>61</ns3:cad>
          </ns3:TrackPointExtension>
        </extensions>
      </trkpt>
      <trkpt lat="52.06791705451905727386474609375" lon="1.2785562314093112945556640625">
        <ele>-37.200000762939453125</ele>
        <time>2025-09-05T12:43:30.000Z</time>
        <extensions>
          <ns3:TrackPointExtension>
            <ns3:hr>131</ns3:hr>
            <ns3:cad>61</ns3:cad>
          </ns3:TrackPointExtension>
        </extensions>
      </trkpt>
      <trkpt lat="52.06790917553007602691650390625" lon="1.2785783596336841583251953125">
        <ele>-36.200000762939453125</ele>
        <time>2025-09-05T12:43:31.000Z</time>
        <extensions>
          <ns3:TrackPointExtension>
            <ns3:hr>132</ns3:hr>
            <ns3:cad>60</ns3:cad>
          </ns3:TrackPointExtension>
        </extensions>
      </trkpt>
      <trkpt lat="52.0679276995360851287841796875" lon="1.278607361018657684326171875">
        <ele>-35.200000762939453125</ele>
        <time>2025-09-05T12:43:32.000Z</time>
        <extensions>
          <ns3:TrackPointExtension>
            <ns3:hr>132</ns3:hr>
            <ns3:cad>60</ns3:cad>
          </ns3:TrackPointExtension>
        </extensions>
      </trkpt>
      <trkpt lat="52.06792711280286312103271484375" lon="1.27863191999495029449462890625">
        <ele>-34.200000762939453125</ele>
        <time>2025-09-05T12:43:33.000Z</time>
        <extensions>
          <ns3:TrackPointExtension>
            <ns3:hr>130</ns3:hr>
            <ns3:cad>60</ns3:cad>
          </ns3:TrackPointExtension>
        </extensions>
      </trkpt>
      <trkpt lat="52.06792208366096019744873046875" lon="1.27865396440029144287109375">
        <ele>-33.200000762939453125</ele>
        <time>2025-09-05T12:43:34.000Z</time>
        <extensions>
          <ns3:TrackPointExtension>
            <ns3:hr>129</ns3:hr>
            <ns3:cad>60</ns3:cad>
          </ns3:TrackPointExtension>
        </extensions>
      </trkpt>
      <trkpt lat="52.06791286356747150421142578125" lon="1.27868640236556529998779296875">
        <ele>-32.200000762939453125</ele>
        <time>2025-09-05T12:43:35.000Z</time>
        <extensions>
          <ns3:TrackPointExtension>
            <ns3:hr>128</ns3:hr>
            <ns3:cad>60</ns3:cad>
          </ns3:TrackPointExtension>
        </extensions>
      </trkpt>
      <trkpt lat="52.0679035596549510955810546875" lon="1.2787235341966152191162109375">
        <ele>-31.200000762939453125</ele>
        <time>2025-09-05T12:43:36.000Z</time>
        <extensions>
          <ns3:TrackPointExtension>
            <ns3:hr>129</ns3:hr>
            <ns3:cad>124</ns3:cad>
          </ns3:TrackPointExtension>
        </extensions>
      </trkpt>
      <trkpt lat="52.0678958483040332794189453125" lon="1.27875714562833309173583984375">
        <ele>-30.200000762939453125</ele>
        <time>2025-09-05T12:43:37.000Z</time>
        <extensions>
          <ns3:TrackPointExtension>
            <ns3:hr>128</ns3:hr>
            <ns3:cad>124</ns3:cad>
          </ns3:TrackPointExtension>
        </extensions>
      </trkpt>
      <trkpt lat="52.06788687966763973236083984375" lon="1.2788234464824199676513671875">
        <ele>-28.200000762939453125</ele>
        <time>2025-09-05T12:43:39.000Z</time>
        <extensions>
          <ns3:TrackPointExtension>
            <ns3:hr>129</ns3:hr>
            <ns3:cad>124</ns3:cad>
          </ns3:TrackPointExtension>
        </extensions>
      </trkpt>
      <trkpt lat="52.06788168288767337799072265625" lon="1.2788998894393444061279296875">
        <ele>-26.3999996185302734375</ele>
        <time>2025-09-05T12:43:41.000Z</time>
        <extensions>
          <ns3:TrackPointExtension>
            <ns3:hr>127</ns3:hr>
            <ns3:cad>75</ns3:cad>
          </ns3:TrackPointExtension>
        </extensions>
      </trkpt>
      <trkpt lat="52.06788159906864166259765625" lon="1.2789414636790752410888671875">
        <ele>-24.3999996185302734375</ele>
        <time>2025-09-05T12:43:43.000Z</time>
        <extensions>
          <ns3:TrackPointExtension>
            <ns3:hr>128</ns3:hr>
            <ns3:cad>78</ns3:cad>
          </ns3:TrackPointExtension>
        </extensions>
      </trkpt>
      <trkpt lat="52.0678737200796604156494140625" lon="1.27902301959693431854248046875">
        <ele>-23.6000003814697265625</ele>
        <time>2025-09-05T12:43:44.000Z</time>
        <extensions>
          <ns3:TrackPointExtension>
            <ns3:hr>129</ns3:hr>
            <ns3:cad>79</ns3:cad>
          </ns3:TrackPointExtension>
        </extensions>
      </trkpt>
      <trkpt lat="52.06786978058516979217529296875" lon="1.27906291745603084564208984375">
        <ele>-22.6000003814697265625</ele>
        <time>2025-09-05T12:43:45.000Z</time>
        <extensions>
          <ns3:TrackPointExtension>
            <ns3:hr>133</ns3:hr>
            <ns3:cad>79</ns3:cad>
          </ns3:TrackPointExtension>
        </extensions>
      </trkpt>
      <trkpt lat="52.067864499986171722412109375" lon="1.2791012227535247802734375">
        <ele>-21.799999237060546875</ele>
        <time>2025-09-05T12:43:46.000Z</time>
        <extensions>
          <ns3:TrackPointExtension>
            <ns3:hr>136</ns3:hr>
            <ns3:cad>80</ns3:cad>
          </ns3:TrackPointExtension>
        </extensions>
      </trkpt>
      <trkpt lat="52.0678593032062053680419921875" lon="1.27913986332714557647705078125">
        <ele>-20.799999237060546875</ele>
        <time>2025-09-05T12:43:47.000Z</time>
        <extensions>
          <ns3:TrackPointExtension>
            <ns3:hr>140</ns3:hr>
            <ns3:cad>81</ns3:cad>
          </ns3:TrackPointExtension>
        </extensions>
      </trkpt>
      <trkpt lat="52.06784413196146488189697265625" lon="1.27922066487371921539306640625">
        <ele>-19</ele>
        <time>2025-09-05T12:43:49.000Z</time>
        <extensions>
          <ns3:TrackPointExtension>
            <ns3:hr>145</ns3:hr>
            <ns3:cad>81</ns3:cad>
          </ns3:TrackPointExtension>
        </extensions>
      </trkpt>
      <trkpt lat="52.0678267814218997955322265625" lon="1.27929526381194591522216796875">
        <ele>-17.3999996185302734375</ele>
        <time>2025-09-05T12:43:51.000Z</time>
        <extensions>
          <ns3:TrackPointExtension>
            <ns3:hr>144</ns3:hr>
            <ns3:cad>81</ns3:cad>
          </ns3:TrackPointExtension>
        </extensions>
      </trkpt>
      <trkpt lat="52.06781898625195026397705078125" lon="1.27933231182396411895751953125">
        <ele>-16.3999996185302734375</ele>
        <time>2025-09-05T12:43:52.000Z</time>
        <extensions>
          <ns3:TrackPointExtension>
            <ns3:hr>147</ns3:hr>
            <ns3:cad>81</ns3:cad>
          </ns3:TrackPointExtension>
        </extensions>
      </trkpt>
      <trkpt lat="52.06781513057649135589599609375" lon="1.2793679349124431610107421875">
        <ele>-15.6000003814697265625</ele>
        <time>2025-09-05T12:43:53.000Z</time>
        <extensions>
          <ns3:TrackPointExtension>
            <ns3:hr>149</ns3:hr>
            <ns3:cad>82</ns3:cad>
          </ns3:TrackPointExtension>
        </extensions>
      </trkpt>
      <trkpt lat="52.06780876033008098602294921875" lon="1.27943851053714752197265625">
        <ele>-14</ele>
        <time>2025-09-05T12:43:55.000Z</time>
        <extensions>
          <ns3:TrackPointExtension>
            <ns3:hr>151</ns3:hr>
            <ns3:cad>82</ns3:cad>
          </ns3:TrackPointExtension>
        </extensions>
      </trkpt>
      <trkpt lat="52.06779601983726024627685546875" lon="1.27951067872345447540283203125">
        <ele>-12.3999996185302734375</ele>
        <time>2025-09-05T12:43:57.000Z</time>
        <extensions>
          <ns3:TrackPointExtension>
            <ns3:hr>151</ns3:hr>
            <ns3:cad>82</ns3:cad>
          </ns3:TrackPointExtension>
        </extensions>
      </trkpt>
      <trkpt lat="52.0677842013537883758544921875" lon="1.279588378965854644775390625">
        <ele>-10.80000019073486328125</ele>
        <time>2025-09-05T12:43:59.000Z</time>
        <extensions>
          <ns3:TrackPointExtension>
            <ns3:hr>153</ns3:hr>
            <ns3:cad>82</ns3:cad>
          </ns3:TrackPointExtension>
        </extensions>
      </trkpt>
      <trkpt lat="52.067773975431919097900390625" lon="1.27962852828204631805419921875">
        <ele>-10</ele>
        <time>2025-09-05T12:44:00.000Z</time>
        <extensions>
          <ns3:TrackPointExtension>
            <ns3:hr>154</ns3:hr>
            <ns3:cad>82</ns3:cad>
          </ns3:TrackPointExtension>
        </extensions>
      </trkpt>
      <trkpt lat="52.06776433624327182769775390625" lon="1.27966918051242828369140625">
        <ele>-9.19999980926513671875</ele>
        <time>2025-09-05T12:44:01.000Z</time>
        <extensions>
          <ns3:TrackPointExtension>
            <ns3:hr>155</ns3:hr>
            <ns3:cad>82</ns3:cad>
          </ns3:TrackPointExtension>
        </extensions>
      </trkpt>
      <trkpt lat="52.06774958409368991851806640625" lon="1.27974671311676502227783203125">
        <ele>-7.599999904632568359375</ele>
        <time>2025-09-05T12:44:03.000Z</time>
        <extensions>
          <ns3:TrackPointExtension>
            <ns3:hr>156</ns3:hr>
            <ns3:cad>82</ns3:cad>
          </ns3:TrackPointExtension>
        </extensions>
      </trkpt>
      <trkpt lat="52.0677322335541248321533203125" lon="1.279817707836627960205078125">
        <ele>-6.19999980926513671875</ele>
        <time>2025-09-05T12:44:05.000Z</time>
        <extensions>
          <ns3:TrackPointExtension>
            <ns3:hr>156</ns3:hr>
            <ns3:cad>82</ns3:cad>
          </ns3:TrackPointExtension>
        </extensions>
      </trkpt>
      <trkpt lat="52.0677181519567966461181640625" lon="1.27984779886901378631591796875">
        <ele>-4.80000019073486328125</ele>
        <time>2025-09-05T12:44:07.000Z</time>
        <extensions>
          <ns3:TrackPointExtension>
            <ns3:hr>156</ns3:hr>
            <ns3:cad>81</ns3:cad>
          </ns3:TrackPointExtension>
        </extensions>
      </trkpt>
      <trkpt lat="52.06771756522357463836669921875" lon="1.2798681668937206268310546875">
        <ele>-3.2000000476837158203125</ele>
        <time>2025-09-05T12:44:09.000Z</time>
        <extensions>
          <ns3:TrackPointExtension>
            <ns3:hr>155</ns3:hr>
            <ns3:cad>0</ns3:cad>
          </ns3:TrackPointExtension>
        </extensions>
      </trkpt>
      <trkpt lat="52.06772276200354099273681640625" lon="1.27990253269672393798828125">
        <ele>-1.7999999523162841796875</ele>
        <time>2025-09-05T12:44:11.000Z</time>
        <extensions>
          <ns3:TrackPointExtension>
            <ns3:hr>155</ns3:hr>
            <ns3:cad>0</ns3:cad>
          </ns3:TrackPointExtension>
        </extensions>
      </trkpt>
      <trkpt lat="52.06772611476480960845947265625" lon="1.27993413247168064117431640625">
        <ele>-1.2000000476837158203125</ele>
        <time>2025-09-05T12:44:12.000Z</time>
        <extensions>
          <ns3:TrackPointExtension>
            <ns3:hr>155</ns3:hr>
            <ns3:cad>0</ns3:cad>
          </ns3:TrackPointExtension>
        </extensions>
      </trkpt>
      <trkpt lat="52.0677267014980316162109375" lon="1.2799640558660030364990234375">
        <ele>-0.60000002384185791015625</ele>
        <time>2025-09-05T12:44:13.000Z</time>
        <extensions>
          <ns3:TrackPointExtension>
            <ns3:hr>155</ns3:hr>
            <ns3:cad>0</ns3:cad>
          </ns3:TrackPointExtension>
        </extensions>
      </trkpt>
      <trkpt lat="52.0677272044122219085693359375" lon="1.2800290994346141815185546875">
        <ele>0.800000011920928955078125</ele>
        <time>2025-09-05T12:44:15.000Z</time>
        <extensions>
          <ns3:TrackPointExtension>
            <ns3:hr>155</ns3:hr>
            <ns3:cad>0</ns3:cad>
          </ns3:TrackPointExtension>
        </extensions>
      </trkpt>
      <trkpt lat="52.06772175617516040802001953125" lon="1.28009355627000331878662109375">
        <ele>2.2000000476837158203125</ele>
        <time>2025-09-05T12:44:17.000Z</time>
        <extensions>
          <ns3:TrackPointExtension>
            <ns3:hr>155</ns3:hr>
            <ns3:cad>78</ns3:cad>
          </ns3:TrackPointExtension>
        </extensions>
      </trkpt>
      <trkpt lat="52.067720331251621246337890625" lon="1.28012021072208881378173828125">
        <ele>2.7999999523162841796875</ele>
        <time>2025-09-05T12:44:18.000Z</time>
        <extensions>
          <ns3:TrackPointExtension>
            <ns3:hr>155</ns3:hr>
            <ns3:cad>79</ns3:cad>
          </ns3:TrackPointExtension>
        </extensions>
      </trkpt>
      <trkpt lat="52.067722342908382415771484375" lon="1.28014636225998401641845703125">
        <ele>3.400000095367431640625</ele>
        <time>2025-09-05T12:44:19.000Z</time>
        <extensions>
          <ns3:TrackPointExtension>
            <ns3:hr>154</ns3:hr>
            <ns3:cad>79</ns3:cad>
          </ns3:TrackPointExtension>
        </extensions>
      </trkpt>
      <trkpt lat="52.06772829405963420867919921875" lon="1.28019179217517375946044921875">
        <ele>4.80000019073486328125</ele>
        <time>2025-09-05T12:44:21.000Z</time>
        <extensions>
          <ns3:TrackPointExtension>
            <ns3:hr>155</ns3:hr>
            <ns3:cad>81</ns3:cad>
          </ns3:TrackPointExtension>
        </extensions>
      </trkpt>
      <trkpt lat="52.0677251927554607391357421875" lon="1.280230768024921417236328125">
        <ele>6</ele>
        <time>2025-09-05T12:44:23.000Z</time>
        <extensions>
          <ns3:TrackPointExtension>
            <ns3:hr>154</ns3:hr>
            <ns3:cad>80</ns3:cad>
          </ns3:TrackPointExtension>
        </extensions>
      </trkpt>
      <trkpt lat="52.0677268691360950469970703125" lon="1.280253566801548004150390625">
        <ele>7.19999980926513671875</ele>
        <time>2025-09-05T12:44:25.000Z</time>
        <extensions>
          <ns3:TrackPointExtension>
            <ns3:hr>155</ns3:hr>
            <ns3:cad>80</ns3:cad>
          </ns3:TrackPointExtension>
        </extensions>
      </trkpt>
      <trkpt lat="52.06772309727966785430908203125" lon="1.280263625085353851318359375">
        <ele>7.80000019073486328125</ele>
        <time>2025-09-05T12:44:26.000Z</time>
        <extensions>
          <ns3:TrackPointExtension>
            <ns3:hr>154</ns3:hr>
            <ns3:cad>80</ns3:cad>
          </ns3:TrackPointExtension>
        </extensions>
      </trkpt>
      <trkpt lat="52.0677173137664794921875" lon="1.28027670085430145263671875">
        <ele>8.3999996185302734375</ele>
        <time>2025-09-05T12:44:27.000Z</time>
        <extensions>
          <ns3:TrackPointExtension>
            <ns3:hr>154</ns3:hr>
            <ns3:cad>80</ns3:cad>
          </ns3:TrackPointExtension>
        </extensions>
      </trkpt>
      <trkpt lat="52.0677436329424381256103515625" lon="1.28030092455446720123291015625">
        <ele>9.6000003814697265625</ele>
        <time>2025-09-05T12:44:29.000Z</time>
        <extensions>
          <ns3:TrackPointExtension>
            <ns3:hr>154</ns3:hr>
            <ns3:cad>0</ns3:cad>
          </ns3:TrackPointExtension>
        </extensions>
      </trkpt>
      <trkpt lat="52.067771293222904205322265625" lon="1.280317939817905426025390625">
        <ele>10.80000019073486328125</ele>
        <time>2025-09-05T12:44:31.000Z</time>
        <extensions>
          <ns3:TrackPointExtension>
            <ns3:hr>154</ns3:hr>
            <ns3:cad>0</ns3:cad>
          </ns3:TrackPointExtension>
        </extensions>
      </trkpt>
      <trkpt lat="52.06779434345662593841552734375" lon="1.28033327870070934295654296875">
        <ele>12</ele>
        <time>2025-09-05T12:44:33.000Z</time>
        <extensions>
          <ns3:TrackPointExtension>
            <ns3:hr>153</ns3:hr>
            <ns3:cad>0</ns3:cad>
          </ns3:TrackPointExtension>
        </extensions>
      </trkpt>
      <trkpt lat="52.0678194053471088409423828125" lon="1.28034920431673526763916015625">
        <ele>13</ele>
        <time>2025-09-05T12:44:35.000Z</time>
        <extensions>
          <ns3:TrackPointExtension>
            <ns3:hr>153</ns3:hr>
            <ns3:cad>0</ns3:cad>
          </ns3:TrackPointExtension>
        </extensions>
      </trkpt>
      <trkpt lat="52.06782803870737552642822265625" lon="1.2803596816956996917724609375">
        <ele>14.19999980926513671875</ele>
        <time>2025-09-05T12:44:37.000Z</time>
        <extensions>
          <ns3:TrackPointExtension>
            <ns3:hr>151</ns3:hr>
            <ns3:cad>0</ns3:cad>
          </ns3:TrackPointExtension>
        </extensions>
      </trkpt>
      <trkpt lat="52.06782854162156581878662109375" lon="1.28035859204828739166259765625">
        <ele>15.19999980926513671875</ele>
        <time>2025-09-05T12:44:39.000Z</time>
        <extensions>
          <ns3:TrackPointExtension>
            <ns3:hr>151</ns3:hr>
            <ns3:cad>0</ns3:cad>
          </ns3:TrackPointExtension>
        </extensions>
      </trkpt>
      <trkpt lat="52.0678297989070415496826171875" lon="1.280347444117069244384765625">
        <ele>16.3999996185302734375</ele>
        <time>2025-09-05T12:44:41.000Z</time>
        <extensions>
          <ns3:TrackPointExtension>
            <ns3:hr>148</ns3:hr>
            <ns3:cad>0</ns3:cad>
          </ns3:TrackPointExtension>
        </extensions>
      </trkpt>
      <trkpt lat="52.0678237639367580413818359375" lon="1.2803352065384387969970703125">
        <ele>17.3999996185302734375</ele>
        <time>2025-09-05T12:44:43.000Z</time>
        <extensions>
          <ns3:TrackPointExtension>
            <ns3:hr>148</ns3:hr>
            <ns3:cad>0</ns3:cad>
          </ns3:TrackPointExtension>
        </extensions>
      </trkpt>
      <trkpt lat="52.06782150082290172576904296875" lon="1.28032632172107696533203125">
        <ele>17.799999237060546875</ele>
        <time>2025-09-05T12:44:44.000Z</time>
        <extensions>
          <ns3:TrackPointExtension>
            <ns3:hr>148</ns3:hr>
            <ns3:cad>0</ns3:cad>
          </ns3:TrackPointExtension>
        </extensions>
      </trkpt>
      <trkpt lat="52.06781982444226741790771484375" lon="1.2803291715681552886962890625">
        <ele>18.3999996185302734375</ele>
        <time>2025-09-05T12:44:45.000Z</time>
        <extensions>
          <ns3:TrackPointExtension>
            <ns3:hr>146</ns3:hr>
            <ns3:cad>0</ns3:cad>
          </ns3:TrackPointExtension>
        </extensions>
      </trkpt>
      <trkpt lat="52.06781378947198390960693359375" lon="1.28033311106264591217041015625">
        <ele>19.799999237060546875</ele>
        <time>2025-09-05T12:44:48.000Z</time>
        <extensions>
          <ns3:TrackPointExtension>
            <ns3:hr>147</ns3:hr>
            <ns3:cad>0</ns3:cad>
          </ns3:TrackPointExtension>
        </extensions>
      </trkpt>
      <trkpt lat="52.06779384054243564605712890625" lon="1.28035448491573333740234375">
        <ele>20.799999237060546875</ele>
        <time>2025-09-05T12:44:50.000Z</time>
        <extensions>
          <ns3:TrackPointExtension>
            <ns3:hr>146</ns3:hr>
            <ns3:cad>0</ns3:cad>
          </ns3:TrackPointExtension>
        </extensions>
      </trkpt>
      <trkpt lat="52.0677811838686466217041015625" lon="1.28037116490304470062255859375">
        <ele>21.200000762939453125</ele>
        <time>2025-09-05T12:44:51.000Z</time>
        <extensions>
          <ns3:TrackPointExtension>
            <ns3:hr>146</ns3:hr>
            <ns3:cad>0</ns3:cad>
          </ns3:TrackPointExtension>
        </extensions>
      </trkpt>
      <trkpt lat="52.0677704550325870513916015625" lon="1.28039279021322727203369140625">
        <ele>21.799999237060546875</ele>
        <time>2025-09-05T12:44:52.000Z</time>
        <extensions>
          <ns3:TrackPointExtension>
            <ns3:hr>146</ns3:hr>
            <ns3:cad>0</ns3:cad>
          </ns3:TrackPointExtension>
        </extensions>
      </trkpt>
      <trkpt lat="52.06775880418717861175537109375" lon="1.28044257871806621551513671875">
        <ele>22.6000003814697265625</ele>
        <time>2025-09-05T12:44:54.000Z</time>
        <extensions>
          <ns3:TrackPointExtension>
            <ns3:hr>145</ns3:hr>
            <ns3:cad>0</ns3:cad>
          </ns3:TrackPointExtension>
        </extensions>
      </trkpt>
      <trkpt lat="52.06775243394076824188232421875" lon="1.2805320136249065399169921875">
        <ele>24</ele>
        <time>2025-09-05T12:44:57.000Z</time>
        <extensions>
          <ns3:TrackPointExtension>
            <ns3:hr>144</ns3:hr>
            <ns3:cad>78</ns3:cad>
          </ns3:TrackPointExtension>
        </extensions>
      </trkpt>
      <trkpt lat="52.06775017082691192626953125" lon="1.28059295006096363067626953125">
        <ele>25</ele>
        <time>2025-09-05T12:44:59.000Z</time>
        <extensions>
          <ns3:TrackPointExtension>
            <ns3:hr>144</ns3:hr>
            <ns3:cad>79</ns3:cad>
          </ns3:TrackPointExtension>
        </extensions>
      </trkpt>
      <trkpt lat="52.06775209866464138031005859375" lon="1.280623711645603179931640625">
        <ele>25.3999996185302734375</ele>
        <time>2025-09-05T12:45:00.000Z</time>
        <extensions>
          <ns3:TrackPointExtension>
            <ns3:hr>146</ns3:hr>
            <ns3:cad>79</ns3:cad>
          </ns3:TrackPointExtension>
        </extensions>
      </trkpt>
      <trkpt lat="52.0677560381591320037841796875" lon="1.28068699501454830169677734375">
        <ele>26.200000762939453125</ele>
        <time>2025-09-05T12:45:02.000Z</time>
        <extensions>
          <ns3:TrackPointExtension>
            <ns3:hr>151</ns3:hr>
            <ns3:cad>81</ns3:cad>
          </ns3:TrackPointExtension>
        </extensions>
      </trkpt>
      <trkpt lat="52.0677570439875125885009765625" lon="1.2807187624275684356689453125">
        <ele>26.6000003814697265625</ele>
        <time>2025-09-05T12:45:03.000Z</time>
        <extensions>
          <ns3:TrackPointExtension>
            <ns3:hr>151</ns3:hr>
            <ns3:cad>81</ns3:cad>
          </ns3:TrackPointExtension>
        </extensions>
      </trkpt>
      <trkpt lat="52.06775528378784656524658203125" lon="1.28082898445427417755126953125">
        <ele>27.799999237060546875</ele>
        <time>2025-09-05T12:45:06.000Z</time>
        <extensions>
          <ns3:TrackPointExtension>
            <ns3:hr>153</ns3:hr>
            <ns3:cad>81</ns3:cad>
          </ns3:TrackPointExtension>
        </extensions>
      </trkpt>
      <trkpt lat="52.0677516795694828033447265625" lon="1.28090375103056430816650390625">
        <ele>28.6000003814697265625</ele>
        <time>2025-09-05T12:45:08.000Z</time>
        <extensions>
          <ns3:TrackPointExtension>
            <ns3:hr>156</ns3:hr>
            <ns3:cad>82</ns3:cad>
          </ns3:TrackPointExtension>
        </extensions>
      </trkpt>
      <trkpt lat="52.06775109283626079559326171875" lon="1.280933506786823272705078125">
        <ele>29</ele>
        <time>2025-09-05T12:45:09.000Z</time>
        <extensions>
          <ns3:TrackPointExtension>
            <ns3:hr>156</ns3:hr>
            <ns3:cad>82</ns3:cad>
          </ns3:TrackPointExtension>
        </extensions>
      </trkpt>
      <trkpt lat="52.06775243394076824188232421875" lon="1.28101824782788753509521484375">
        <ele>30.200000762939453125</ele>
        <time>2025-09-05T12:45:12.000Z</time>
        <extensions>
          <ns3:TrackPointExtension>
            <ns3:hr>159</ns3:hr>
            <ns3:cad>81</ns3:cad>
          </ns3:TrackPointExtension>
        </extensions>
      </trkpt>
      <trkpt lat="52.06773851998150348663330078125" lon="1.28112964332103729248046875">
        <ele>31.3999996185302734375</ele>
        <time>2025-09-05T12:45:15.000Z</time>
        <extensions>
          <ns3:TrackPointExtension>
            <ns3:hr>157</ns3:hr>
            <ns3:cad>81</ns3:cad>
          </ns3:TrackPointExtension>
        </extensions>
      </trkpt>
      <trkpt lat="52.06773332320153713226318359375" lon="1.28116794861853122711181640625">
        <ele>31.6000003814697265625</ele>
        <time>2025-09-05T12:45:16.000Z</time>
        <extensions>
          <ns3:TrackPointExtension>
            <ns3:hr>160</ns3:hr>
            <ns3:cad>81</ns3:cad>
          </ns3:TrackPointExtension>
        </extensions>
      </trkpt>
      <trkpt lat="52.06772745586931705474853515625" lon="1.28123265691101551055908203125">
        <ele>32.40000152587890625</ele>
        <time>2025-09-05T12:45:18.000Z</time>
        <extensions>
          <ns3:TrackPointExtension>
            <ns3:hr>160</ns3:hr>
            <ns3:cad>81</ns3:cad>
          </ns3:TrackPointExtension>
        </extensions>
      </trkpt>
      <trkpt lat="52.06772678531706333160400390625" lon="1.2813194096088409423828125">
        <ele>33.40000152587890625</ele>
        <time>2025-09-05T12:45:21.000Z</time>
        <extensions>
          <ns3:TrackPointExtension>
            <ns3:hr>159</ns3:hr>
            <ns3:cad>80</ns3:cad>
          </ns3:TrackPointExtension>
        </extensions>
      </trkpt>
      <trkpt lat="52.06772745586931705474853515625" lon="1.281349249184131622314453125">
        <ele>33.799999237060546875</ele>
        <time>2025-09-05T12:45:22.000Z</time>
        <extensions>
          <ns3:TrackPointExtension>
            <ns3:hr>159</ns3:hr>
            <ns3:cad>80</ns3:cad>
          </ns3:TrackPointExtension>
        </extensions>
      </trkpt>
      <trkpt lat="52.06772468984127044677734375" lon="1.28141169436275959014892578125">
        <ele>34.59999847412109375</ele>
        <time>2025-09-05T12:45:24.000Z</time>
        <extensions>
          <ns3:TrackPointExtension>
            <ns3:hr>160</ns3:hr>
            <ns3:cad>81</ns3:cad>
          </ns3:TrackPointExtension>
        </extensions>
      </trkpt>
      <trkpt lat="52.0677134580910205841064453125" lon="1.28148277290165424346923828125">
        <ele>35.200000762939453125</ele>
        <time>2025-09-05T12:45:26.000Z</time>
        <extensions>
          <ns3:TrackPointExtension>
            <ns3:hr>157</ns3:hr>
            <ns3:cad>81</ns3:cad>
          </ns3:TrackPointExtension>
        </extensions>
      </trkpt>
      <trkpt lat="52.0676960237324237823486328125" lon="1.2815569527447223663330078125">
        <ele>35.799999237060546875</ele>
        <time>2025-09-05T12:45:28.000Z</time>
        <extensions>
          <ns3:TrackPointExtension>
            <ns3:hr>158</ns3:hr>
            <ns3:cad>81</ns3:cad>
          </ns3:TrackPointExtension>
        </extensions>
      </trkpt>
      <trkpt lat="52.0676775835454463958740234375" lon="1.28165761940181255340576171875">
        <ele>36.799999237060546875</ele>
        <time>2025-09-05T12:45:31.000Z</time>
        <extensions>
          <ns3:TrackPointExtension>
            <ns3:hr>160</ns3:hr>
            <ns3:cad>82</ns3:cad>
          </ns3:TrackPointExtension>
        </extensions>
      </trkpt>
      <trkpt lat="52.06766827963292598724365234375" lon="1.28169483505189418792724609375">
        <ele>37.200000762939453125</ele>
        <time>2025-09-05T12:45:32.000Z</time>
        <extensions>
          <ns3:TrackPointExtension>
            <ns3:hr>159</ns3:hr>
            <ns3:cad>82</ns3:cad>
          </ns3:TrackPointExtension>
        </extensions>
      </trkpt>
      <trkpt lat="52.06764958798885345458984375" lon="1.28184705041348934173583984375">
        <ele>38.40000152587890625</ele>
        <time>2025-09-05T12:45:36.000Z</time>
        <extensions>
          <ns3:TrackPointExtension>
            <ns3:hr>158</ns3:hr>
            <ns3:cad>81</ns3:cad>
          </ns3:TrackPointExtension>
        </extensions>
      </trkpt>
      <trkpt lat="52.06763206981122493743896484375" lon="1.281952746212482452392578125">
        <ele>39.200000762939453125</ele>
        <time>2025-09-05T12:45:39.000Z</time>
        <extensions>
          <ns3:TrackPointExtension>
            <ns3:hr>158</ns3:hr>
            <ns3:cad>81</ns3:cad>
          </ns3:TrackPointExtension>
        </extensions>
      </trkpt>
      <trkpt lat="52.067623101174831390380859375" lon="1.28199038095772266387939453125">
        <ele>39.59999847412109375</ele>
        <time>2025-09-05T12:45:40.000Z</time>
        <extensions>
          <ns3:TrackPointExtension>
            <ns3:hr>158</ns3:hr>
            <ns3:cad>81</ns3:cad>
          </ns3:TrackPointExtension>
        </extensions>
      </trkpt>
      <trkpt lat="52.06760390661656856536865234375" lon="1.28212851472198963165283203125">
        <ele>40.59999847412109375</ele>
        <time>2025-09-05T12:45:44.000Z</time>
        <extensions>
          <ns3:TrackPointExtension>
            <ns3:hr>158</ns3:hr>
            <ns3:cad>80</ns3:cad>
          </ns3:TrackPointExtension>
        </extensions>
      </trkpt>
      <trkpt lat="52.067590244114398956298828125" lon="1.282232701778411865234375">
        <ele>41.40000152587890625</ele>
        <time>2025-09-05T12:45:47.000Z</time>
        <extensions>
          <ns3:TrackPointExtension>
            <ns3:hr>159</ns3:hr>
            <ns3:cad>81</ns3:cad>
          </ns3:TrackPointExtension>
        </extensions>
      </trkpt>
      <trkpt lat="52.0675853826105594635009765625" lon="1.28226849250495433807373046875">
        <ele>41.799999237060546875</ele>
        <time>2025-09-05T12:45:48.000Z</time>
        <extensions>
          <ns3:TrackPointExtension>
            <ns3:hr>159</ns3:hr>
            <ns3:cad>81</ns3:cad>
          </ns3:TrackPointExtension>
        </extensions>
      </trkpt>
      <trkpt lat="52.067584879696369171142578125" lon="1.2824424169957637786865234375">
        <ele>42.799999237060546875</ele>
        <time>2025-09-05T12:45:52.000Z</time>
        <extensions>
          <ns3:TrackPointExtension>
            <ns3:hr>159</ns3:hr>
            <ns3:cad>81</ns3:cad>
          </ns3:TrackPointExtension>
        </extensions>
      </trkpt>
      <trkpt lat="52.06761480309069156646728515625" lon="1.2825989909470081329345703125">
        <ele>43.799999237060546875</ele>
        <time>2025-09-05T12:45:56.000Z</time>
        <extensions>
          <ns3:TrackPointExtension>
            <ns3:hr>160</ns3:hr>
            <ns3:cad>81</ns3:cad>
          </ns3:TrackPointExtension>
        </extensions>
      </trkpt>
      <trkpt lat="52.06761547364294528961181640625" lon="1.28262824378907680511474609375">
        <ele>44</ele>
        <time>2025-09-05T12:45:57.000Z</time>
        <extensions>
          <ns3:TrackPointExtension>
            <ns3:hr>159</ns3:hr>
            <ns3:cad>80</ns3:cad>
          </ns3:TrackPointExtension>
        </extensions>
      </trkpt>
      <trkpt lat="52.06762033514678478240966796875" lon="1.282742321491241455078125">
        <ele>45</ele>
        <time>2025-09-05T12:46:01.000Z</time>
        <extensions>
          <ns3:TrackPointExtension>
            <ns3:hr>162</ns3:hr>
            <ns3:cad>81</ns3:cad>
          </ns3:TrackPointExtension>
        </extensions>
      </trkpt>
      <trkpt lat="52.0676236040890216827392578125" lon="1.28276872448623180389404296875">
        <ele>45.200000762939453125</ele>
        <time>2025-09-05T12:46:02.000Z</time>
        <extensions>
          <ns3:TrackPointExtension>
            <ns3:hr>163</ns3:hr>
            <ns3:cad>81</ns3:cad>
          </ns3:TrackPointExtension>
        </extensions>
      </trkpt>
      <trkpt lat="52.0676376856863498687744140625" lon="1.28283016383647918701171875">
        <ele>45.59999847412109375</ele>
        <time>2025-09-05T12:46:04.000Z</time>
        <extensions>
          <ns3:TrackPointExtension>
            <ns3:hr>164</ns3:hr>
            <ns3:cad>81</ns3:cad>
          </ns3:TrackPointExtension>
        </extensions>
      </trkpt>
      <trkpt lat="52.06767498515546321868896484375" lon="1.28293401561677455902099609375">
        <ele>46.40000152587890625</ele>
        <time>2025-09-05T12:46:07.000Z</time>
        <extensions>
          <ns3:TrackPointExtension>
            <ns3:hr>163</ns3:hr>
            <ns3:cad>81</ns3:cad>
          </ns3:TrackPointExtension>
        </extensions>
      </trkpt>
      <trkpt lat="52.0677052438259124755859375" lon="1.28309075720608234405517578125">
        <ele>47.200000762939453125</ele>
        <time>2025-09-05T12:46:11.000Z</time>
        <extensions>
          <ns3:TrackPointExtension>
            <ns3:hr>164</ns3:hr>
            <ns3:cad>82</ns3:cad>
          </ns3:TrackPointExtension>
        </extensions>
      </trkpt>
      <trkpt lat="52.06771655939519405364990234375" lon="1.2831263802945613861083984375">
        <ele>47.40000152587890625</ele>
        <time>2025-09-05T12:46:12.000Z</time>
        <extensions>
          <ns3:TrackPointExtension>
            <ns3:hr>167</ns3:hr>
            <ns3:cad>82</ns3:cad>
          </ns3:TrackPointExtension>
        </extensions>
      </trkpt>
      <trkpt lat="52.0677332393825054168701171875" lon="1.2833312340080738067626953125">
        <ele>48.40000152587890625</ele>
        <time>2025-09-05T12:46:17.000Z</time>
        <extensions>
          <ns3:TrackPointExtension>
            <ns3:hr>170</ns3:hr>
            <ns3:cad>82</ns3:cad>
          </ns3:TrackPointExtension>
        </extensions>
      </trkpt>
      <trkpt lat="52.0677362568676471710205078125" lon="1.28337373025715351104736328125">
        <ele>48.59999847412109375</ele>
        <time>2025-09-05T12:46:18.000Z</time>
        <extensions>
          <ns3:TrackPointExtension>
            <ns3:hr>170</ns3:hr>
            <ns3:cad>82</ns3:cad>
          </ns3:TrackPointExtension>
        </extensions>
      </trkpt>
      <trkpt lat="52.0677409507334232330322265625" lon="1.28357808105647563934326171875">
        <ele>49.59999847412109375</ele>
        <time>2025-09-05T12:46:23.000Z</time>
        <extensions>
          <ns3:TrackPointExtension>
            <ns3:hr>169</ns3:hr>
            <ns3:cad>81</ns3:cad>
          </ns3:TrackPointExtension>
        </extensions>
      </trkpt>
      <trkpt lat="52.0677436329424381256103515625" lon="1.2837359122931957244873046875">
        <ele>50.40000152587890625</ele>
        <time>2025-09-05T12:46:27.000Z</time>
        <extensions>
          <ns3:TrackPointExtension>
            <ns3:hr>171</ns3:hr>
            <ns3:cad>81</ns3:cad>
          </ns3:TrackPointExtension>
        </extensions>
      </trkpt>
      <trkpt lat="52.06775846891105175018310546875" lon="1.2838157080113887786865234375">
        <ele>50.59999847412109375</ele>
        <time>2025-09-05T12:46:29.000Z</time>
        <extensions>
          <ns3:TrackPointExtension>
            <ns3:hr>171</ns3:hr>
            <ns3:cad>81</ns3:cad>
          </ns3:TrackPointExtension>
        </extensions>
      </trkpt>
      <trkpt lat="52.067710272967815399169921875" lon="1.28400673158466815948486328125">
        <ele>51.59999847412109375</ele>
        <time>2025-09-05T12:46:34.000Z</time>
        <extensions>
          <ns3:TrackPointExtension>
            <ns3:hr>171</ns3:hr>
            <ns3:cad>81</ns3:cad>
          </ns3:TrackPointExtension>
        </extensions>
      </trkpt>
      <trkpt lat="52.06770197488367557525634765625" lon="1.28403958864510059356689453125">
        <ele>51.59999847412109375</ele>
        <time>2025-09-05T12:46:35.000Z</time>
        <extensions>
          <ns3:TrackPointExtension>
            <ns3:hr>170</ns3:hr>
            <ns3:cad>81</ns3:cad>
          </ns3:TrackPointExtension>
        </extensions>
      </trkpt>
      <trkpt lat="52.0677392743527889251708984375" lon="1.28425248898565769195556640625">
        <ele>52.59999847412109375</ele>
        <time>2025-09-05T12:46:41.000Z</time>
        <extensions>
          <ns3:TrackPointExtension>
            <ns3:hr>172</ns3:hr>
            <ns3:cad>81</ns3:cad>
          </ns3:TrackPointExtension>
        </extensions>
      </trkpt>
      <trkpt lat="52.06773533485829830169677734375" lon="1.28428517840802669525146484375">
        <ele>52.799999237060546875</ele>
        <time>2025-09-05T12:46:42.000Z</time>
        <extensions>
          <ns3:TrackPointExtension>
            <ns3:hr>172</ns3:hr>
            <ns3:cad>81</ns3:cad>
          </ns3:TrackPointExtension>
        </extensions>
      </trkpt>
      <trkpt lat="52.06779048778116703033447265625" lon="1.2845258228480815887451171875">
        <ele>53.799999237060546875</ele>
        <time>2025-09-05T12:46:48.000Z</time>
        <extensions>
          <ns3:TrackPointExtension>
            <ns3:hr>171</ns3:hr>
            <ns3:cad>80</ns3:cad>
          </ns3:TrackPointExtension>
        </extensions>
      </trkpt>
      <trkpt lat="52.067791409790515899658203125" lon="1.2845684029161930084228515625">
        <ele>53.799999237060546875</ele>
        <time>2025-09-05T12:46:49.000Z</time>
        <extensions>
          <ns3:TrackPointExtension>
            <ns3:hr>170</ns3:hr>
            <ns3:cad>79</ns3:cad>
          </ns3:TrackPointExtension>
        </extensions>
      </trkpt>
      <trkpt lat="52.0678422041237354278564453125" lon="1.28486420027911663055419921875">
        <ele>55</ele>
        <time>2025-09-05T12:46:57.000Z</time>
        <extensions>
          <ns3:TrackPointExtension>
            <ns3:hr>168</ns3:hr>
            <ns3:cad>80</ns3:cad>
          </ns3:TrackPointExtension>
        </extensions>
      </trkpt>
      <trkpt lat="52.0678500831127166748046875" lon="1.2848989851772785186767578125">
        <ele>55</ele>
        <time>2025-09-05T12:46:58.000Z</time>
        <extensions>
          <ns3:TrackPointExtension>
            <ns3:hr>168</ns3:hr>
            <ns3:cad>80</ns3:cad>
          </ns3:TrackPointExtension>
        </extensions>
      </trkpt>
      <trkpt lat="52.067877240478992462158203125" lon="1.285078525543212890625">
        <ele>55.799999237060546875</ele>
        <time>2025-09-05T12:47:03.000Z</time>
        <extensions>
          <ns3:TrackPointExtension>
            <ns3:hr>171</ns3:hr>
            <ns3:cad>79</ns3:cad>
          </ns3:TrackPointExtension>
        </extensions>
      </trkpt>
      <trkpt lat="52.0678797550499439239501953125" lon="1.2851383723318576812744140625">
        <ele>56</ele>
        <time>2025-09-05T12:47:05.000Z</time>
        <extensions>
          <ns3:TrackPointExtension>
            <ns3:hr>171</ns3:hr>
            <ns3:cad>80</ns3:cad>
          </ns3:TrackPointExtension>
        </extensions>
      </trkpt>
      <trkpt lat="52.06789366900920867919921875" lon="1.28523551858961582183837890625">
        <ele>56.40000152587890625</ele>
        <time>2025-09-05T12:47:08.000Z</time>
        <extensions>
          <ns3:TrackPointExtension>
            <ns3:hr>171</ns3:hr>
            <ns3:cad>81</ns3:cad>
          </ns3:TrackPointExtension>
        </extensions>
      </trkpt>
      <trkpt lat="52.06794823519885540008544921875" lon="1.28536728210747241973876953125">
        <ele>56.799999237060546875</ele>
        <time>2025-09-05T12:47:12.000Z</time>
        <extensions>
          <ns3:TrackPointExtension>
            <ns3:hr>174</ns3:hr>
            <ns3:cad>81</ns3:cad>
          </ns3:TrackPointExtension>
        </extensions>
      </trkpt>
      <trkpt lat="52.06798159517347812652587890625" lon="1.28545998595654964447021484375">
        <ele>57</ele>
        <time>2025-09-05T12:47:14.000Z</time>
        <extensions>
          <ns3:TrackPointExtension>
            <ns3:hr>173</ns3:hr>
            <ns3:cad>81</ns3:cad>
          </ns3:TrackPointExtension>
        </extensions>
      </trkpt>
      <trkpt lat="52.06799550913274288177490234375" lon="1.2854957766830921173095703125">
        <ele>57.200000762939453125</ele>
        <time>2025-09-05T12:47:15.000Z</time>
        <extensions>
          <ns3:TrackPointExtension>
            <ns3:hr>173</ns3:hr>
            <ns3:cad>80</ns3:cad>
          </ns3:TrackPointExtension>
        </extensions>
      </trkpt>
      <trkpt lat="52.0680893026292324066162109375" lon="1.28577229566872119903564453125">
        <ele>58</ele>
        <time>2025-09-05T12:47:23.000Z</time>
        <extensions>
          <ns3:TrackPointExtension>
            <ns3:hr>172</ns3:hr>
            <ns3:cad>80</ns3:cad>
          </ns3:TrackPointExtension>
        </extensions>
      </trkpt>
      <trkpt lat="52.068090140819549560546875" lon="1.28580565564334392547607421875">
        <ele>58.200000762939453125</ele>
        <time>2025-09-05T12:47:24.000Z</time>
        <extensions>
          <ns3:TrackPointExtension>
            <ns3:hr>171</ns3:hr>
            <ns3:cad>80</ns3:cad>
          </ns3:TrackPointExtension>
        </extensions>
      </trkpt>
      <trkpt lat="52.06808821298182010650634765625" lon="1.2859051488339900970458984375">
        <ele>58.40000152587890625</ele>
        <time>2025-09-05T12:47:27.000Z</time>
        <extensions>
          <ns3:TrackPointExtension>
            <ns3:hr>168</ns3:hr>
            <ns3:cad>80</ns3:cad>
          </ns3:TrackPointExtension>
        </extensions>
      </trkpt>
      <trkpt lat="52.0680780708789825439453125" lon="1.28604252822697162628173828125">
        <ele>58.799999237060546875</ele>
        <time>2025-09-05T12:47:30.000Z</time>
        <extensions>
          <ns3:TrackPointExtension>
            <ns3:hr>169</ns3:hr>
            <ns3:cad>80</ns3:cad>
          </ns3:TrackPointExtension>
        </extensions>
      </trkpt>
      <trkpt lat="52.06806658767163753509521484375" lon="1.28621469251811504364013671875">
        <ele>59.200000762939453125</ele>
        <time>2025-09-05T12:47:34.000Z</time>
        <extensions>
          <ns3:TrackPointExtension>
            <ns3:hr>169</ns3:hr>
            <ns3:cad>81</ns3:cad>
          </ns3:TrackPointExtension>
        </extensions>
      </trkpt>
      <trkpt lat="52.06807765178382396697998046875" lon="1.28632198087871074676513671875">
        <ele>59.40000152587890625</ele>
        <time>2025-09-05T12:47:37.000Z</time>
        <extensions>
          <ns3:TrackPointExtension>
            <ns3:hr>171</ns3:hr>
            <ns3:cad>80</ns3:cad>
          </ns3:TrackPointExtension>
        </extensions>
      </trkpt>
      <trkpt lat="52.0681147836148738861083984375" lon="1.28656446933746337890625">
        <ele>60</ele>
        <time>2025-09-05T12:47:44.000Z</time>
        <extensions>
          <ns3:TrackPointExtension>
            <ns3:hr>173</ns3:hr>
            <ns3:cad>81</ns3:cad>
          </ns3:TrackPointExtension>
        </extensions>
      </trkpt>
      <trkpt lat="52.068109922111034393310546875" lon="1.28659925423562526702880859375">
        <ele>60.200000762939453125</ele>
        <time>2025-09-05T12:47:45.000Z</time>
        <extensions>
          <ns3:TrackPointExtension>
            <ns3:hr>172</ns3:hr>
            <ns3:cad>81</ns3:cad>
          </ns3:TrackPointExtension>
        </extensions>
      </trkpt>
      <trkpt lat="52.06809542141854763031005859375" lon="1.2868385575711727142333984375">
        <ele>60.59999847412109375</ele>
        <time>2025-09-05T12:47:51.000Z</time>
        <extensions>
          <ns3:TrackPointExtension>
            <ns3:hr>173</ns3:hr>
            <ns3:cad>81</ns3:cad>
          </ns3:TrackPointExtension>
        </extensions>
      </trkpt>
      <trkpt lat="52.0680799148976802825927734375" lon="1.28705489449203014373779296875">
        <ele>61.200000762939453125</ele>
        <time>2025-09-05T12:47:57.000Z</time>
        <extensions>
          <ns3:TrackPointExtension>
            <ns3:hr>172</ns3:hr>
            <ns3:cad>81</ns3:cad>
          </ns3:TrackPointExtension>
        </extensions>
      </trkpt>
      <trkpt lat="52.068069018423557281494140625" lon="1.28711893223226070404052734375">
        <ele>61.40000152587890625</ele>
        <time>2025-09-05T12:47:59.000Z</time>
        <extensions>
          <ns3:TrackPointExtension>
            <ns3:hr>171</ns3:hr>
            <ns3:cad>81</ns3:cad>
          </ns3:TrackPointExtension>
        </extensions>
      </trkpt>
      <trkpt lat="52.0680326409637928009033203125" lon="1.28739201463758945465087890625">
        <ele>61.799999237060546875</ele>
        <time>2025-09-05T12:48:07.000Z</time>
        <extensions>
          <ns3:TrackPointExtension>
            <ns3:hr>174</ns3:hr>
            <ns3:cad>81</ns3:cad>
          </ns3:TrackPointExtension>
        </extensions>
      </trkpt>
      <trkpt lat="52.06804026849567890167236328125" lon="1.28747306764125823974609375">
        <ele>62</ele>
        <time>2025-09-05T12:48:09.000Z</time>
        <extensions>
          <ns3:TrackPointExtension>
            <ns3:hr>171</ns3:hr>
            <ns3:cad>80</ns3:cad>
          </ns3:TrackPointExtension>
        </extensions>
      </trkpt>
      <trkpt lat="52.06803892739117145538330078125" lon="1.28759854473173618316650390625">
        <ele>62.200000762939453125</ele>
        <time>2025-09-05T12:48:12.000Z</time>
        <extensions>
          <ns3:TrackPointExtension>
            <ns3:hr>171</ns3:hr>
            <ns3:cad>80</ns3:cad>
          </ns3:TrackPointExtension>
        </extensions>
      </trkpt>
      <trkpt lat="52.0680376701056957244873046875" lon="1.2877384386956691741943359375">
        <ele>62.40000152587890625</ele>
        <time>2025-09-05T12:48:16.000Z</time>
        <extensions>
          <ns3:TrackPointExtension>
            <ns3:hr>168</ns3:hr>
            <ns3:cad>79</ns3:cad>
          </ns3:TrackPointExtension>
        </extensions>
      </trkpt>
      <trkpt lat="52.0680665038526058197021484375" lon="1.28804379142820835113525390625">
        <ele>62.799999237060546875</ele>
        <time>2025-09-05T12:48:24.000Z</time>
        <extensions>
          <ns3:TrackPointExtension>
            <ns3:hr>170</ns3:hr>
            <ns3:cad>80</ns3:cad>
          </ns3:TrackPointExtension>
        </extensions>
      </trkpt>
      <trkpt lat="52.06807144917547702789306640625" lon="1.28823020495474338531494140625">
        <ele>63.200000762939453125</ele>
        <time>2025-09-05T12:48:30.000Z</time>
        <extensions>
          <ns3:TrackPointExtension>
            <ns3:hr>172</ns3:hr>
            <ns3:cad>81</ns3:cad>
          </ns3:TrackPointExtension>
        </extensions>
      </trkpt>
      <trkpt lat="52.06805971451103687286376953125" lon="1.28836045973002910614013671875">
        <ele>63.40000152587890625</ele>
        <time>2025-09-05T12:48:35.000Z</time>
        <extensions>
          <ns3:TrackPointExtension>
            <ns3:hr>172</ns3:hr>
            <ns3:cad>81</ns3:cad>
          </ns3:TrackPointExtension>
        </extensions>
      </trkpt>
      <trkpt lat="52.0680748857557773590087890625" lon="1.2885265052318572998046875">
        <ele>63.799999237060546875</ele>
        <time>2025-09-05T12:48:41.000Z</time>
        <extensions>
          <ns3:TrackPointExtension>
            <ns3:hr>169</ns3:hr>
            <ns3:cad>80</ns3:cad>
          </ns3:TrackPointExtension>
        </extensions>
      </trkpt>
      <trkpt lat="52.06807496957480907440185546875" lon="1.28856740891933441162109375">
        <ele>63.799999237060546875</ele>
        <time>2025-09-05T12:48:42.000Z</time>
        <extensions>
          <ns3:TrackPointExtension>
            <ns3:hr>172</ns3:hr>
            <ns3:cad>80</ns3:cad>
          </ns3:TrackPointExtension>
        </extensions>
      </trkpt>
      <trkpt lat="52.06807329319417476654052734375" lon="1.28865298815071582794189453125">
        <ele>63.799999237060546875</ele>
        <time>2025-09-05T12:48:44.000Z</time>
        <extensions>
          <ns3:TrackPointExtension>
            <ns3:hr>170</ns3:hr>
            <ns3:cad>81</ns3:cad>
          </ns3:TrackPointExtension>
        </extensions>
      </trkpt>
      <trkpt lat="52.068069018423557281494140625" lon="1.28880612552165985107421875">
        <ele>64</ele>
        <time>2025-09-05T12:48:48.000Z</time>
        <extensions>
          <ns3:TrackPointExtension>
            <ns3:hr>173</ns3:hr>
            <ns3:cad>81</ns3:cad>
          </ns3:TrackPointExtension>
        </extensions>
      </trkpt>
      <trkpt lat="52.0680390112102031707763671875" lon="1.2889658845961093902587890625">
        <ele>64.1999969482421875</ele>
        <time>2025-09-05T12:48:53.000Z</time>
        <extensions>
          <ns3:TrackPointExtension>
            <ns3:hr>174</ns3:hr>
            <ns3:cad>81</ns3:cad>
          </ns3:TrackPointExtension>
        </extensions>
      </trkpt>
      <trkpt lat="52.0680329762399196624755859375" lon="1.28899388015270233154296875">
        <ele>64.1999969482421875</ele>
        <time>2025-09-05T12:48:54.000Z</time>
        <extensions>
          <ns3:TrackPointExtension>
            <ns3:hr>176</ns3:hr>
            <ns3:cad>81</ns3:cad>
          </ns3:TrackPointExtension>
        </extensions>
      </trkpt>
      <trkpt lat="52.0679753087460994720458984375" lon="1.28930929116904735565185546875">
        <ele>64.59999847412109375</ele>
        <time>2025-09-05T12:49:03.000Z</time>
        <extensions>
          <ns3:TrackPointExtension>
            <ns3:hr>174</ns3:hr>
            <ns3:cad>81</ns3:cad>
          </ns3:TrackPointExtension>
        </extensions>
      </trkpt>
      <trkpt lat="52.0679555274546146392822265625" lon="1.289544403553009033203125">
        <ele>64.8000030517578125</ele>
        <time>2025-09-05T12:49:09.000Z</time>
        <extensions>
          <ns3:TrackPointExtension>
            <ns3:hr>171</ns3:hr>
            <ns3:cad>78</ns3:cad>
          </ns3:TrackPointExtension>
        </extensions>
      </trkpt>
      <trkpt lat="52.06794588826596736907958984375" lon="1.289657391607761383056640625">
        <ele>65</ele>
        <time>2025-09-05T12:49:12.000Z</time>
        <extensions>
          <ns3:TrackPointExtension>
            <ns3:hr>168</ns3:hr>
            <ns3:cad>78</ns3:cad>
          </ns3:TrackPointExtension>
        </extensions>
      </trkpt>
      <trkpt lat="52.067940272390842437744140625" lon="1.28969150595366954803466796875">
        <ele>65</ele>
        <time>2025-09-05T12:49:13.000Z</time>
        <extensions>
          <ns3:TrackPointExtension>
            <ns3:hr>169</ns3:hr>
            <ns3:cad>78</ns3:cad>
          </ns3:TrackPointExtension>
        </extensions>
      </trkpt>
      <trkpt lat="52.06794253550469875335693359375" lon="1.28998839296400547027587890625">
        <ele>65.1999969482421875</ele>
        <time>2025-09-05T12:49:21.000Z</time>
        <extensions>
          <ns3:TrackPointExtension>
            <ns3:hr>170</ns3:hr>
            <ns3:cad>81</ns3:cad>
          </ns3:TrackPointExtension>
        </extensions>
      </trkpt>
      <trkpt lat="52.0679404400289058685302734375" lon="1.29006165079772472381591796875">
        <ele>65.1999969482421875</ele>
        <time>2025-09-05T12:49:23.000Z</time>
        <extensions>
          <ns3:TrackPointExtension>
            <ns3:hr>173</ns3:hr>
            <ns3:cad>81</ns3:cad>
          </ns3:TrackPointExtension>
        </extensions>
      </trkpt>
      <trkpt lat="52.0679117739200592041015625" lon="1.2903249263763427734375">
        <ele>65.40000152587890625</ele>
        <time>2025-09-05T12:49:30.000Z</time>
        <extensions>
          <ns3:TrackPointExtension>
            <ns3:hr>174</ns3:hr>
            <ns3:cad>80</ns3:cad>
          </ns3:TrackPointExtension>
        </extensions>
      </trkpt>
      <trkpt lat="52.067859806120395660400390625" lon="1.29054528661072254180908203125">
        <ele>65.59999847412109375</ele>
        <time>2025-09-05T12:49:37.000Z</time>
        <extensions>
          <ns3:TrackPointExtension>
            <ns3:hr>172</ns3:hr>
            <ns3:cad>80</ns3:cad>
          </ns3:TrackPointExtension>
        </extensions>
      </trkpt>
      <trkpt lat="52.06776450388133525848388671875" lon="1.29079389385879039764404296875">
        <ele>65.8000030517578125</ele>
        <time>2025-09-05T12:49:45.000Z</time>
        <extensions>
          <ns3:TrackPointExtension>
            <ns3:hr>175</ns3:hr>
            <ns3:cad>81</ns3:cad>
          </ns3:TrackPointExtension>
        </extensions>
      </trkpt>
      <trkpt lat="52.06770331598818302154541015625" lon="1.2910717539489269256591796875">
        <ele>66</ele>
        <time>2025-09-05T12:49:52.000Z</time>
        <extensions>
          <ns3:TrackPointExtension>
            <ns3:hr>174</ns3:hr>
            <ns3:cad>78</ns3:cad>
          </ns3:TrackPointExtension>
        </extensions>
      </trkpt>
      <trkpt lat="52.06769652664661407470703125" lon="1.2911014258861541748046875">
        <ele>66</ele>
        <time>2025-09-05T12:49:53.000Z</time>
        <extensions>
          <ns3:TrackPointExtension>
            <ns3:hr>175</ns3:hr>
            <ns3:cad>78</ns3:cad>
          </ns3:TrackPointExtension>
        </extensions>
      </trkpt>
      <trkpt lat="52.0676360093057155609130859375" lon="1.2913664616644382476806640625">
        <ele>66.1999969482421875</ele>
        <time>2025-09-05T12:50:02.000Z</time>
        <extensions>
          <ns3:TrackPointExtension>
            <ns3:hr>177</ns3:hr>
            <ns3:cad>80</ns3:cad>
          </ns3:TrackPointExtension>
        </extensions>
      </trkpt>
      <trkpt lat="52.0676088519394397735595703125" lon="1.29148255102336406707763671875">
        <ele>66.1999969482421875</ele>
        <time>2025-09-05T12:50:05.000Z</time>
        <extensions>
          <ns3:TrackPointExtension>
            <ns3:hr>177</ns3:hr>
            <ns3:cad>80</ns3:cad>
          </ns3:TrackPointExtension>
        </extensions>
      </trkpt>
      <trkpt lat="52.06755126826465129852294921875" lon="1.29175119102001190185546875">
        <ele>66.40000152587890625</ele>
        <time>2025-09-05T12:50:11.000Z</time>
        <extensions>
          <ns3:TrackPointExtension>
            <ns3:hr>177</ns3:hr>
            <ns3:cad>81</ns3:cad>
          </ns3:TrackPointExtension>
        </extensions>
      </trkpt>
      <trkpt lat="52.0675525255501270294189453125" lon="1.29191103391349315643310546875">
        <ele>66.40000152587890625</ele>
        <time>2025-09-05T12:50:15.000Z</time>
        <extensions>
          <ns3:TrackPointExtension>
            <ns3:hr>173</ns3:hr>
            <ns3:cad>78</ns3:cad>
          </ns3:TrackPointExtension>
        </extensions>
      </trkpt>
      <trkpt lat="52.06764497794210910797119140625" lon="1.29211538471281528472900390625">
        <ele>66.59999847412109375</ele>
        <time>2025-09-05T12:50:19.000Z</time>
        <extensions>
          <ns3:TrackPointExtension>
            <ns3:hr>170</ns3:hr>
            <ns3:cad>79</ns3:cad>
          </ns3:TrackPointExtension>
        </extensions>
      </trkpt>
      <trkpt lat="52.06766040064394474029541015625" lon="1.29216567613184452056884765625">
        <ele>66.59999847412109375</ele>
        <time>2025-09-05T12:50:20.000Z</time>
        <extensions>
          <ns3:TrackPointExtension>
            <ns3:hr>170</ns3:hr>
            <ns3:cad>79</ns3:cad>
          </ns3:TrackPointExtension>
        </extensions>
      </trkpt>
      <trkpt lat="52.067721001803874969482421875" lon="1.2925070710480213165283203125">
        <ele>66.8000030517578125</ele>
        <time>2025-09-05T12:50:28.000Z</time>
        <extensions>
          <ns3:TrackPointExtension>
            <ns3:hr>171</ns3:hr>
            <ns3:cad>81</ns3:cad>
          </ns3:TrackPointExtension>
        </extensions>
      </trkpt>
      <trkpt lat="52.0677275396883487701416015625" lon="1.29257001914083957672119140625">
        <ele>66.8000030517578125</ele>
        <time>2025-09-05T12:50:30.000Z</time>
        <extensions>
          <ns3:TrackPointExtension>
            <ns3:hr>174</ns3:hr>
            <ns3:cad>81</ns3:cad>
          </ns3:TrackPointExtension>
        </extensions>
      </trkpt>
      <trkpt lat="52.06774723716080188751220703125" lon="1.29283488728106021881103515625">
        <ele>67</ele>
        <time>2025-09-05T12:50:38.000Z</time>
        <extensions>
          <ns3:TrackPointExtension>
            <ns3:hr>175</ns3:hr>
            <ns3:cad>80</ns3:cad>
          </ns3:TrackPointExtension>
        </extensions>
      </trkpt>
      <trkpt lat="52.0677687786519527435302734375" lon="1.2931387312710285186767578125">
        <ele>67</ele>
        <time>2025-09-05T12:50:46.000Z</time>
        <extensions>
          <ns3:TrackPointExtension>
            <ns3:hr>175</ns3:hr>
            <ns3:cad>79</ns3:cad>
          </ns3:TrackPointExtension>
        </extensions>
      </trkpt>
      <trkpt lat="52.06777774728834629058837890625" lon="1.2932242266833782196044921875">
        <ele>67</ele>
        <time>2025-09-05T12:50:48.000Z</time>
        <extensions>
          <ns3:TrackPointExtension>
            <ns3:hr>175</ns3:hr>
            <ns3:cad>79</ns3:cad>
          </ns3:TrackPointExtension>
        </extensions>
      </trkpt>
      <trkpt lat="52.0678140409290790557861328125" lon="1.29351164214313030242919921875">
        <ele>67.1999969482421875</ele>
        <time>2025-09-05T12:50:55.000Z</time>
        <extensions>
          <ns3:TrackPointExtension>
            <ns3:hr>175</ns3:hr>
            <ns3:cad>80</ns3:cad>
          </ns3:TrackPointExtension>
        </extensions>
      </trkpt>
      <trkpt lat="52.0678029768168926239013671875" lon="1.29366201348602771759033203125">
        <ele>67.40000152587890625</ele>
        <time>2025-09-05T12:50:59.000Z</time>
        <extensions>
          <ns3:TrackPointExtension>
            <ns3:hr>176</ns3:hr>
            <ns3:cad>81</ns3:cad>
          </ns3:TrackPointExtension>
        </extensions>
      </trkpt>
      <trkpt lat="52.06778847612440586090087890625" lon="1.29382160492241382598876953125">
        <ele>67.40000152587890625</ele>
        <time>2025-09-05T12:51:03.000Z</time>
        <extensions>
          <ns3:TrackPointExtension>
            <ns3:hr>176</ns3:hr>
            <ns3:cad>81</ns3:cad>
          </ns3:TrackPointExtension>
        </extensions>
      </trkpt>
      <trkpt lat="52.06777908839285373687744140625" lon="1.29413877613842487335205078125">
        <ele>67.59999847412109375</ele>
        <time>2025-09-05T12:51:12.000Z</time>
        <extensions>
          <ns3:TrackPointExtension>
            <ns3:hr>176</ns3:hr>
            <ns3:cad>80</ns3:cad>
          </ns3:TrackPointExtension>
        </extensions>
      </trkpt>
      <trkpt lat="52.06777338869869709014892578125" lon="1.29433776251971721649169921875">
        <ele>67.59999847412109375</ele>
        <time>2025-09-05T12:51:18.000Z</time>
        <extensions>
          <ns3:TrackPointExtension>
            <ns3:hr>179</ns3:hr>
            <ns3:cad>81</ns3:cad>
          </ns3:TrackPointExtension>
        </extensions>
      </trkpt>
      <trkpt lat="52.06776618026196956634521484375" lon="1.2944798357784748077392578125">
        <ele>67.8000030517578125</ele>
        <time>2025-09-05T12:51:22.000Z</time>
        <extensions>
          <ns3:TrackPointExtension>
            <ns3:hr>178</ns3:hr>
            <ns3:cad>80</ns3:cad>
          </ns3:TrackPointExtension>
        </extensions>
      </trkpt>
      <trkpt lat="52.06772343255579471588134765625" lon="1.2947789020836353302001953125">
        <ele>67.8000030517578125</ele>
        <time>2025-09-05T12:51:30.000Z</time>
        <extensions>
          <ns3:TrackPointExtension>
            <ns3:hr>177</ns3:hr>
            <ns3:cad>80</ns3:cad>
          </ns3:TrackPointExtension>
        </extensions>
      </trkpt>
      <trkpt lat="52.06772594712674617767333984375" lon="1.29481703974306583404541015625">
        <ele>67.8000030517578125</ele>
        <time>2025-09-05T12:51:31.000Z</time>
        <extensions>
          <ns3:TrackPointExtension>
            <ns3:hr>178</ns3:hr>
            <ns3:cad>81</ns3:cad>
          </ns3:TrackPointExtension>
        </extensions>
      </trkpt>
      <trkpt lat="52.0677107758820056915283203125" lon="1.2950739450752735137939453125">
        <ele>68</ele>
        <time>2025-09-05T12:51:38.000Z</time>
        <extensions>
          <ns3:TrackPointExtension>
            <ns3:hr>176</ns3:hr>
            <ns3:cad>77</ns3:cad>
          </ns3:TrackPointExtension>
        </extensions>
      </trkpt>
      <trkpt lat="52.0676167309284210205078125" lon="1.29535784013569355010986328125">
        <ele>68</ele>
        <time>2025-09-05T12:51:43.000Z</time>
        <extensions>
          <ns3:TrackPointExtension>
            <ns3:hr>176</ns3:hr>
            <ns3:cad>79</ns3:cad>
          </ns3:TrackPointExtension>
        </extensions>
      </trkpt>
      <trkpt lat="52.0675920881330966949462890625" lon="1.2956804595887660980224609375">
        <ele>68</ele>
        <time>2025-09-05T12:51:51.000Z</time>
        <extensions>
          <ns3:TrackPointExtension>
            <ns3:hr>178</ns3:hr>
            <ns3:cad>80</ns3:cad>
          </ns3:TrackPointExtension>
        </extensions>
      </trkpt>
      <trkpt lat="52.06750608980655670166015625" lon="1.29594155587255954742431640625">
        <ele>68</ele>
        <time>2025-09-05T12:51:57.000Z</time>
        <extensions>
          <ns3:TrackPointExtension>
            <ns3:hr>178</ns3:hr>
            <ns3:cad>81</ns3:cad>
          </ns3:TrackPointExtension>
        </extensions>
      </trkpt>
      <trkpt lat="52.0674611628055572509765625" lon="1.2961542047560214996337890625">
        <ele>68.1999969482421875</ele>
        <time>2025-09-05T12:52:04.000Z</time>
        <extensions>
          <ns3:TrackPointExtension>
            <ns3:hr>177</ns3:hr>
            <ns3:cad>80</ns3:cad>
          </ns3:TrackPointExtension>
        </extensions>
      </trkpt>
      <trkpt lat="52.0674469135701656341552734375" lon="1.296246908605098724365234375">
        <ele>68.1999969482421875</ele>
        <time>2025-09-05T12:52:09.000Z</time>
        <extensions>
          <ns3:TrackPointExtension>
            <ns3:hr>175</ns3:hr>
            <ns3:cad>67</ns3:cad>
          </ns3:TrackPointExtension>
        </extensions>
      </trkpt>
      <trkpt lat="52.06739209592342376708984375" lon="1.2964961864054203033447265625">
        <ele>68.1999969482421875</ele>
        <time>2025-09-05T12:52:16.000Z</time>
        <extensions>
          <ns3:TrackPointExtension>
            <ns3:hr>176</ns3:hr>
            <ns3:cad>79</ns3:cad>
          </ns3:TrackPointExtension>
        </extensions>
      </trkpt>
      <trkpt lat="52.06734591163694858551025390625" lon="1.2966866232454776763916015625">
        <ele>68.1999969482421875</ele>
        <time>2025-09-05T12:52:21.000Z</time>
        <extensions>
          <ns3:TrackPointExtension>
            <ns3:hr>179</ns3:hr>
            <ns3:cad>80</ns3:cad>
          </ns3:TrackPointExtension>
        </extensions>
      </trkpt>
      <trkpt lat="52.06734649837017059326171875" lon="1.29673012532293796539306640625">
        <ele>68.1999969482421875</ele>
        <time>2025-09-05T12:52:23.000Z</time>
        <extensions>
          <ns3:TrackPointExtension>
            <ns3:hr>178</ns3:hr>
            <ns3:cad>81</ns3:cad>
          </ns3:TrackPointExtension>
        </extensions>
      </trkpt>
      <trkpt lat="52.0673335902392864227294921875" lon="1.29681645892560482025146484375">
        <ele>68.1999969482421875</ele>
        <time>2025-09-05T12:52:27.000Z</time>
        <extensions>
          <ns3:TrackPointExtension>
            <ns3:hr>175</ns3:hr>
            <ns3:cad>0</ns3:cad>
          </ns3:TrackPointExtension>
        </extensions>
      </trkpt>
      <trkpt lat="52.067328393459320068359375" lon="1.2968485616147518157958984375">
        <ele>68.1999969482421875</ele>
        <time>2025-09-05T12:52:28.000Z</time>
        <extensions>
          <ns3:TrackPointExtension>
            <ns3:hr>175</ns3:hr>
            <ns3:cad>0</ns3:cad>
          </ns3:TrackPointExtension>
        </extensions>
      </trkpt>
      <trkpt lat="52.0672883279621601104736328125" lon="1.29706062376499176025390625">
        <ele>68.40000152587890625</ele>
        <time>2025-09-05T12:52:34.000Z</time>
        <extensions>
          <ns3:TrackPointExtension>
            <ns3:hr>173</ns3:hr>
            <ns3:cad>80</ns3:cad>
          </ns3:TrackPointExtension>
        </extensions>
      </trkpt>
      <trkpt lat="52.06728220917284488677978515625" lon="1.297133378684520721435546875">
        <ele>68.40000152587890625</ele>
        <time>2025-09-05T12:52:36.000Z</time>
        <extensions>
          <ns3:TrackPointExtension>
            <ns3:hr>173</ns3:hr>
            <ns3:cad>80</ns3:cad>
          </ns3:TrackPointExtension>
        </extensions>
      </trkpt>
      <trkpt lat="52.0672226138412952423095703125" lon="1.29736832343041896820068359375">
        <ele>68.40000152587890625</ele>
        <time>2025-09-05T12:52:44.000Z</time>
        <extensions>
          <ns3:TrackPointExtension>
            <ns3:hr>175</ns3:hr>
            <ns3:cad>81</ns3:cad>
          </ns3:TrackPointExtension>
        </extensions>
      </trkpt>
      <trkpt lat="52.067189924418926239013671875" lon="1.2976334430277347564697265625">
        <ele>68.40000152587890625</ele>
        <time>2025-09-05T12:52:52.000Z</time>
        <extensions>
          <ns3:TrackPointExtension>
            <ns3:hr>176</ns3:hr>
            <ns3:cad>81</ns3:cad>
          </ns3:TrackPointExtension>
        </extensions>
      </trkpt>
      <trkpt lat="52.06719369627535343170166015625" lon="1.297816336154937744140625">
        <ele>68.59999847412109375</ele>
        <time>2025-09-05T12:52:59.000Z</time>
        <extensions>
          <ns3:TrackPointExtension>
            <ns3:hr>175</ns3:hr>
            <ns3:cad>41</ns3:cad>
          </ns3:TrackPointExtension>
        </extensions>
      </trkpt>
      <trkpt lat="52.06721515394747257232666015625" lon="1.29784743301570415496826171875">
        <ele>68.59999847412109375</ele>
        <time>2025-09-05T12:53:06.000Z</time>
        <extensions>
          <ns3:TrackPointExtension>
            <ns3:hr>174</ns3:hr>
            <ns3:cad>0</ns3:cad>
          </ns3:TrackPointExtension>
        </extensions>
      </trkpt>
      <trkpt lat="52.06723057664930820465087890625" lon="1.29785950295627117156982421875">
        <ele>68.8000030517578125</ele>
        <time>2025-09-05T12:53:12.000Z</time>
        <extensions>
          <ns3:TrackPointExtension>
            <ns3:hr>171</ns3:hr>
            <ns3:cad>0</ns3:cad>
          </ns3:TrackPointExtension>
        </extensions>
      </trkpt>
      <trkpt lat="52.0672707259654998779296875" lon="1.29783469252288341522216796875">
        <ele>69</ele>
        <time>2025-09-05T12:53:22.000Z</time>
        <extensions>
          <ns3:TrackPointExtension>
            <ns3:hr>170</ns3:hr>
            <ns3:cad>0</ns3:cad>
          </ns3:TrackPointExtension>
        </extensions>
      </trkpt>
      <trkpt lat="52.06734725274145603179931640625" lon="1.2978610955178737640380859375">
        <ele>69.1999969482421875</ele>
        <time>2025-09-05T12:53:35.000Z</time>
        <extensions>
          <ns3:TrackPointExtension>
            <ns3:hr>171</ns3:hr>
            <ns3:cad>0</ns3:cad>
          </ns3:TrackPointExtension>
        </extensions>
      </trkpt>
      <trkpt lat="52.067473568022251129150390625" lon="1.2978245504200458526611328125">
        <ele>69.1999969482421875</ele>
        <time>2025-09-05T12:53:41.000Z</time>
        <extensions>
          <ns3:TrackPointExtension>
            <ns3:hr>170</ns3:hr>
            <ns3:cad>78</ns3:cad>
          </ns3:TrackPointExtension>
        </extensions>
      </trkpt>
      <trkpt lat="52.0674982108175754547119140625" lon="1.29781139083206653594970703125">
        <ele>69.40000152587890625</ele>
        <time>2025-09-05T12:53:42.000Z</time>
        <extensions>
          <ns3:TrackPointExtension>
            <ns3:hr>170</ns3:hr>
            <ns3:cad>78</ns3:cad>
          </ns3:TrackPointExtension>
        </extensions>
      </trkpt>
      <trkpt lat="52.067634165287017822265625" lon="1.297756321728229522705078125">
        <ele>69.40000152587890625</ele>
        <time>2025-09-05T12:53:47.000Z</time>
        <extensions>
          <ns3:TrackPointExtension>
            <ns3:hr>167</ns3:hr>
            <ns3:cad>80</ns3:cad>
          </ns3:TrackPointExtension>
        </extensions>
      </trkpt>
      <trkpt lat="52.06766165792942047119140625" lon="1.2977487780153751373291015625">
        <ele>69.40000152587890625</ele>
        <time>2025-09-05T12:53:48.000Z</time>
        <extensions>
          <ns3:TrackPointExtension>
            <ns3:hr>165</ns3:hr>
            <ns3:cad>80</ns3:cad>
          </ns3:TrackPointExtension>
        </extensions>
      </trkpt>
      <trkpt lat="52.06768856383860111236572265625" lon="1.29774215631186962127685546875">
        <ele>69.40000152587890625</ele>
        <time>2025-09-05T12:53:49.000Z</time>
        <extensions>
          <ns3:TrackPointExtension>
            <ns3:hr>168</ns3:hr>
            <ns3:cad>80</ns3:cad>
          </ns3:TrackPointExtension>
        </extensions>
      </trkpt>
      <trkpt lat="52.06773407757282257080078125" lon="1.29773410968482494354248046875">
        <ele>69.40000152587890625</ele>
        <time>2025-09-05T12:53:51.000Z</time>
        <extensions>
          <ns3:TrackPointExtension>
            <ns3:hr>172</ns3:hr>
            <ns3:cad>80</ns3:cad>
          </ns3:TrackPointExtension>
        </extensions>
      </trkpt>
      <trkpt lat="52.06777841784060001373291015625" lon="1.297732852399349212646484375">
        <ele>69.59999847412109375</ele>
        <time>2025-09-05T12:53:53.000Z</time>
        <extensions>
          <ns3:TrackPointExtension>
            <ns3:hr>175</ns3:hr>
            <ns3:cad>80</ns3:cad>
          </ns3:TrackPointExtension>
        </extensions>
      </trkpt>
      <trkpt lat="52.06780591048300266265869140625" lon="1.2977291643619537353515625">
        <ele>69.59999847412109375</ele>
        <time>2025-09-05T12:53:54.000Z</time>
        <extensions>
          <ns3:TrackPointExtension>
            <ns3:hr>178</ns3:hr>
            <ns3:cad>80</ns3:cad>
          </ns3:TrackPointExtension>
        </extensions>
      </trkpt>
      <trkpt lat="52.06783357076346874237060546875" lon="1.2977273203432559967041015625">
        <ele>69.59999847412109375</ele>
        <time>2025-09-05T12:53:55.000Z</time>
        <extensions>
          <ns3:TrackPointExtension>
            <ns3:hr>180</ns3:hr>
            <ns3:cad>80</ns3:cad>
          </ns3:TrackPointExtension>
        </extensions>
      </trkpt>
      <trkpt lat="52.0679104328155517578125" lon="1.2977199442684650421142578125">
        <ele>69.59999847412109375</ele>
        <time>2025-09-05T12:53:58.000Z</time>
        <extensions>
          <ns3:TrackPointExtension>
            <ns3:hr>183</ns3:hr>
            <ns3:cad>81</ns3:cad>
          </ns3:TrackPointExtension>
        </extensions>
      </trkpt>
      <trkpt lat="52.06801428459584712982177734375" lon="1.29772254265844821929931640625">
        <ele>69.59999847412109375</ele>
        <time>2025-09-05T12:54:02.000Z</time>
        <extensions>
          <ns3:TrackPointExtension>
            <ns3:hr>186</ns3:hr>
            <ns3:cad>82</ns3:cad>
          </ns3:TrackPointExtension>
        </extensions>
      </trkpt>
      <trkpt lat="52.06804127432405948638916015625" lon="1.2977219559252262115478515625">
        <ele>69.8000030517578125</ele>
        <time>2025-09-05T12:54:03.000Z</time>
        <extensions>
          <ns3:TrackPointExtension>
            <ns3:hr>188</ns3:hr>
            <ns3:cad>82</ns3:cad>
          </ns3:TrackPointExtension>
        </extensions>
      </trkpt>
      <trkpt lat="52.068226598203182220458984375" lon="1.2977132387459278106689453125">
        <ele>69.8000030517578125</ele>
        <time>2025-09-05T12:54:10.000Z</time>
        <extensions>
          <ns3:TrackPointExtension>
            <ns3:hr>189</ns3:hr>
            <ns3:cad>81</ns3:cad>
          </ns3:TrackPointExtension>
        </extensions>
      </trkpt>
      <trkpt lat="52.06839901395142078399658203125" lon="1.2977105565369129180908203125">
        <ele>70</ele>
        <time>2025-09-05T12:54:18.000Z</time>
        <extensions>
          <ns3:TrackPointExtension>
            <ns3:hr>190</ns3:hr>
            <ns3:cad>81</ns3:cad>
          </ns3:TrackPointExtension>
        </extensions>
      </trkpt>
      <trkpt lat="52.068524323403835296630859375" lon="1.297691948711872100830078125">
        <ele>70</ele>
        <time>2025-09-05T12:54:24.000Z</time>
        <extensions>
          <ns3:TrackPointExtension>
            <ns3:hr>188</ns3:hr>
            <ns3:cad>81</ns3:cad>
          </ns3:TrackPointExtension>
        </extensions>
      </trkpt>
      <trkpt lat="52.06868886016309261322021484375" lon="1.2977259792387485504150390625">
        <ele>70.1999969482421875</ele>
        <time>2025-09-05T12:54:32.000Z</time>
        <extensions>
          <ns3:TrackPointExtension>
            <ns3:hr>189</ns3:hr>
            <ns3:cad>80</ns3:cad>
          </ns3:TrackPointExtension>
        </extensions>
      </trkpt>
      <trkpt lat="52.06884359009563922882080078125" lon="1.29770427010953426361083984375">
        <ele>70.40000152587890625</ele>
        <time>2025-09-05T12:54:39.000Z</time>
        <extensions>
          <ns3:TrackPointExtension>
            <ns3:hr>188</ns3:hr>
            <ns3:cad>81</ns3:cad>
          </ns3:TrackPointExtension>
        </extensions>
      </trkpt>
      <trkpt lat="52.0690082944929599761962890625" lon="1.297655068337917327880859375">
        <ele>70.40000152587890625</ele>
        <time>2025-09-05T12:54:46.000Z</time>
        <extensions>
          <ns3:TrackPointExtension>
            <ns3:hr>189</ns3:hr>
            <ns3:cad>81</ns3:cad>
          </ns3:TrackPointExtension>
        </extensions>
      </trkpt>
      <trkpt lat="52.06905699335038661956787109375" lon="1.29764710552990436553955078125">
        <ele>70.59999847412109375</ele>
        <time>2025-09-05T12:54:48.000Z</time>
        <extensions>
          <ns3:TrackPointExtension>
            <ns3:hr>186</ns3:hr>
            <ns3:cad>81</ns3:cad>
          </ns3:TrackPointExtension>
        </extensions>
      </trkpt>
      <trkpt lat="52.06910074688494205474853515625" lon="1.297639645636081695556640625">
        <ele>70.59999847412109375</ele>
        <time>2025-09-05T12:54:50.000Z</time>
        <extensions>
          <ns3:TrackPointExtension>
            <ns3:hr>178</ns3:hr>
            <ns3:cad>81</ns3:cad>
          </ns3:TrackPointExtension>
        </extensions>
      </trkpt>
      <trkpt lat="52.0691652037203311920166015625" lon="1.29764358513057231903076171875">
        <ele>70.59999847412109375</ele>
        <time>2025-09-05T12:54:53.000Z</time>
        <extensions>
          <ns3:TrackPointExtension>
            <ns3:hr>176</ns3:hr>
            <ns3:cad>80</ns3:cad>
          </ns3:TrackPointExtension>
        </extensions>
      </trkpt>
      <trkpt lat="52.06929839216172695159912109375" lon="1.29760502837598323822021484375">
        <ele>70.8000030517578125</ele>
        <time>2025-09-05T12:54:59.000Z</time>
        <extensions>
          <ns3:TrackPointExtension>
            <ns3:hr>175</ns3:hr>
            <ns3:cad>81</ns3:cad>
          </ns3:TrackPointExtension>
        </extensions>
      </trkpt>
      <trkpt lat="52.0694609172642230987548828125" lon="1.29757267422974109649658203125">
        <ele>70.8000030517578125</ele>
        <time>2025-09-05T12:55:06.000Z</time>
        <extensions>
          <ns3:TrackPointExtension>
            <ns3:hr>175</ns3:hr>
            <ns3:cad>79</ns3:cad>
          </ns3:TrackPointExtension>
        </extensions>
      </trkpt>
      <trkpt lat="52.069549262523651123046875" lon="1.29757837392389774322509765625">
        <ele>71</ele>
        <time>2025-09-05T12:55:12.000Z</time>
        <extensions>
          <ns3:TrackPointExtension>
            <ns3:hr>176</ns3:hr>
            <ns3:cad>74</ns3:cad>
          </ns3:TrackPointExtension>
        </extensions>
      </trkpt>
      <trkpt lat="52.0695547945797443389892578125" lon="1.2976031005382537841796875">
        <ele>71</ele>
        <time>2025-09-05T12:55:14.000Z</time>
        <extensions>
          <ns3:TrackPointExtension>
            <ns3:hr>175</ns3:hr>
            <ns3:cad>71</ns3:cad>
          </ns3:TrackPointExtension>
        </extensions>
      </trkpt>
      <trkpt lat="52.06955730915069580078125" lon="1.297691948711872100830078125">
        <ele>71</ele>
        <time>2025-09-05T12:55:16.000Z</time>
        <extensions>
          <ns3:TrackPointExtension>
            <ns3:hr>174</ns3:hr>
            <ns3:cad>65</ns3:cad>
          </ns3:TrackPointExtension>
        </extensions>
      </trkpt>
      <trkpt lat="52.069556303322315216064453125" lon="1.2977908551692962646484375">
        <ele>71</ele>
        <time>2025-09-05T12:55:18.000Z</time>
        <extensions>
          <ns3:TrackPointExtension>
            <ns3:hr>178</ns3:hr>
            <ns3:cad>75</ns3:cad>
          </ns3:TrackPointExtension>
        </extensions>
      </trkpt>
      <trkpt lat="52.0695249550044536590576171875" lon="1.29793410189449787139892578125">
        <ele>71</ele>
        <time>2025-09-05T12:55:22.000Z</time>
        <extensions>
          <ns3:TrackPointExtension>
            <ns3:hr>179</ns3:hr>
            <ns3:cad>79</ns3:cad>
          </ns3:TrackPointExtension>
        </extensions>
      </trkpt>
      <trkpt lat="52.06950693391263484954833984375" lon="1.2981152348220348358154296875">
        <ele>71.1999969482421875</ele>
        <time>2025-09-05T12:55:28.000Z</time>
        <extensions>
          <ns3:TrackPointExtension>
            <ns3:hr>181</ns3:hr>
            <ns3:cad>81</ns3:cad>
          </ns3:TrackPointExtension>
        </extensions>
      </trkpt>
      <trkpt lat="52.06950240768492221832275390625" lon="1.298274658620357513427734375">
        <ele>71.1999969482421875</ele>
        <time>2025-09-05T12:55:33.000Z</time>
        <extensions>
          <ns3:TrackPointExtension>
            <ns3:hr>184</ns3:hr>
            <ns3:cad>81</ns3:cad>
          </ns3:TrackPointExtension>
        </extensions>
      </trkpt>
      <trkpt lat="52.06950039602816104888916015625" lon="1.29833257757127285003662109375">
        <ele>71.1999969482421875</ele>
        <time>2025-09-05T12:55:35.000Z</time>
        <extensions>
          <ns3:TrackPointExtension>
            <ns3:hr>181</ns3:hr>
            <ns3:cad>80</ns3:cad>
          </ns3:TrackPointExtension>
        </extensions>
      </trkpt>
      <trkpt lat="52.0695050060749053955078125" lon="1.29836275242269039154052734375">
        <ele>71.1999969482421875</ele>
        <time>2025-09-05T12:55:36.000Z</time>
        <extensions>
          <ns3:TrackPointExtension>
            <ns3:hr>181</ns3:hr>
            <ns3:cad>81</ns3:cad>
          </ns3:TrackPointExtension>
        </extensions>
      </trkpt>
      <trkpt lat="52.0695319958031177520751953125" lon="1.2984032370150089263916015625">
        <ele>71.1999969482421875</ele>
        <time>2025-09-05T12:55:38.000Z</time>
        <extensions>
          <ns3:TrackPointExtension>
            <ns3:hr>181</ns3:hr>
            <ns3:cad>80</ns3:cad>
          </ns3:TrackPointExtension>
        </extensions>
      </trkpt>
      <trkpt lat="52.06956208683550357818603515625" lon="1.29847909323871135711669921875">
        <ele>71.1999969482421875</ele>
        <time>2025-09-05T12:55:41.000Z</time>
        <extensions>
          <ns3:TrackPointExtension>
            <ns3:hr>181</ns3:hr>
            <ns3:cad>79</ns3:cad>
          </ns3:TrackPointExtension>
        </extensions>
      </trkpt>
      <trkpt lat="52.06965730525553226470947265625" lon="1.2985078431665897369384765625">
        <ele>71.1999969482421875</ele>
        <time>2025-09-05T12:55:46.000Z</time>
        <extensions>
          <ns3:TrackPointExtension>
            <ns3:hr>179</ns3:hr>
            <ns3:cad>57</ns3:cad>
          </ns3:TrackPointExtension>
        </extensions>
      </trkpt>
      <trkpt lat="52.06969209015369415283203125" lon="1.29850826226174831390380859375">
        <ele>71.40000152587890625</ele>
        <time>2025-09-05T12:55:48.000Z</time>
        <extensions>
          <ns3:TrackPointExtension>
            <ns3:hr>178</ns3:hr>
            <ns3:cad>58</ns3:cad>
          </ns3:TrackPointExtension>
        </extensions>
      </trkpt>
      <trkpt lat="52.06973458640277385711669921875" lon="1.2985065020620822906494140625">
        <ele>71.40000152587890625</ele>
        <time>2025-09-05T12:55:50.000Z</time>
        <extensions>
          <ns3:TrackPointExtension>
            <ns3:hr>175</ns3:hr>
            <ns3:cad>58</ns3:cad>
          </ns3:TrackPointExtension>
        </extensions>
      </trkpt>
      <trkpt lat="52.0697552897036075592041015625" lon="1.2985081784427165985107421875">
        <ele>71.40000152587890625</ele>
        <time>2025-09-05T12:55:51.000Z</time>
        <extensions>
          <ns3:TrackPointExtension>
            <ns3:hr>174</ns3:hr>
            <ns3:cad>58</ns3:cad>
          </ns3:TrackPointExtension>
        </extensions>
      </trkpt>
      <trkpt lat="52.069798372685909271240234375" lon="1.29847959615290164947509765625">
        <ele>71.40000152587890625</ele>
        <time>2025-09-05T12:55:53.000Z</time>
        <extensions>
          <ns3:TrackPointExtension>
            <ns3:hr>171</ns3:hr>
            <ns3:cad>58</ns3:cad>
          </ns3:TrackPointExtension>
        </extensions>
      </trkpt>
      <trkpt lat="52.06982645206153392791748046875" lon="1.298471800982952117919921875">
        <ele>71.40000152587890625</ele>
        <time>2025-09-05T12:55:55.000Z</time>
        <extensions>
          <ns3:TrackPointExtension>
            <ns3:hr>170</ns3:hr>
            <ns3:cad>58</ns3:cad>
          </ns3:TrackPointExtension>
        </extensions>
      </trkpt>
      <trkpt lat="52.0699638314545154571533203125" lon="1.2984676100313663482666015625">
        <ele>71.59999847412109375</ele>
        <time>2025-09-05T12:56:04.000Z</time>
        <extensions>
          <ns3:TrackPointExtension>
            <ns3:hr>171</ns3:hr>
            <ns3:cad>59</ns3:cad>
          </ns3:TrackPointExtension>
        </extensions>
      </trkpt>
      <trkpt lat="52.07003532908856868743896484375" lon="1.29845696501433849334716796875">
        <ele>71.59999847412109375</ele>
        <time>2025-09-05T12:56:09.000Z</time>
        <extensions>
          <ns3:TrackPointExtension>
            <ns3:hr>168</ns3:hr>
            <ns3:cad>60</ns3:cad>
          </ns3:TrackPointExtension>
        </extensions>
      </trkpt>
      <trkpt lat="52.07008243538439273834228515625" lon="1.29843399859964847564697265625">
        <ele>71.59999847412109375</ele>
        <time>2025-09-05T12:56:12.000Z</time>
        <extensions>
          <ns3:TrackPointExtension>
            <ns3:hr>169</ns3:hr>
            <ns3:cad>60</ns3:cad>
          </ns3:TrackPointExtension>
        </extensions>
      </trkpt>
      <trkpt lat="52.0701914839446544647216796875" lon="1.29842310212552547454833984375">
        <ele>71.59999847412109375</ele>
        <time>2025-09-05T12:56:17.000Z</time>
        <extensions>
          <ns3:TrackPointExtension>
            <ns3:hr>170</ns3:hr>
            <ns3:cad>62</ns3:cad>
          </ns3:TrackPointExtension>
        </extensions>
      </trkpt>
      <trkpt lat="52.0703544281423091888427734375" lon="1.29838722757995128631591796875">
        <ele>71.8000030517578125</ele>
        <time>2025-09-05T12:56:24.000Z</time>
        <extensions>
          <ns3:TrackPointExtension>
            <ns3:hr>168</ns3:hr>
            <ns3:cad>80</ns3:cad>
          </ns3:TrackPointExtension>
        </extensions>
      </trkpt>
      <trkpt lat="52.0705110020935535430908203125" lon="1.29831723868846893310546875">
        <ele>72</ele>
        <time>2025-09-05T12:56:31.000Z</time>
        <extensions>
          <ns3:TrackPointExtension>
            <ns3:hr>170</ns3:hr>
            <ns3:cad>81</ns3:cad>
          </ns3:TrackPointExtension>
        </extensions>
      </trkpt>
      <trkpt lat="52.07058048807084560394287109375" lon="1.2982852198183536529541015625">
        <ele>72</ele>
        <time>2025-09-05T12:56:34.000Z</time>
        <extensions>
          <ns3:TrackPointExtension>
            <ns3:hr>173</ns3:hr>
            <ns3:cad>81</ns3:cad>
          </ns3:TrackPointExtension>
        </extensions>
      </trkpt>
      <trkpt lat="52.0706229843199253082275390625" lon="1.29827641882002353668212890625">
        <ele>72.59999847412109375</ele>
        <time>2025-09-05T12:56:36.000Z</time>
        <extensions>
          <ns3:TrackPointExtension>
            <ns3:hr>175</ns3:hr>
            <ns3:cad>81</ns3:cad>
          </ns3:TrackPointExtension>
        </extensions>
      </trkpt>
      <trkpt lat="52.070673443377017974853515625" lon="1.29828429780900478363037109375">
        <ele>73.1999969482421875</ele>
        <time>2025-09-05T12:56:38.000Z</time>
        <extensions>
          <ns3:TrackPointExtension>
            <ns3:hr>177</ns3:hr>
            <ns3:cad>80</ns3:cad>
          </ns3:TrackPointExtension>
        </extensions>
      </trkpt>
      <trkpt lat="52.070696912705898284912109375" lon="1.29828530363738536834716796875">
        <ele>73.59999847412109375</ele>
        <time>2025-09-05T12:56:39.000Z</time>
        <extensions>
          <ns3:TrackPointExtension>
            <ns3:hr>177</ns3:hr>
            <ns3:cad>80</ns3:cad>
          </ns3:TrackPointExtension>
        </extensions>
      </trkpt>
      <trkpt lat="52.07077276892960071563720703125" lon="1.2982687912881374359130859375">
        <ele>74.8000030517578125</ele>
        <time>2025-09-05T12:56:42.000Z</time>
        <extensions>
          <ns3:TrackPointExtension>
            <ns3:hr>177</ns3:hr>
            <ns3:cad>81</ns3:cad>
          </ns3:TrackPointExtension>
        </extensions>
      </trkpt>
      <trkpt lat="52.0708389021456241607666015625" lon="1.29827491007745265960693359375">
        <ele>76</ele>
        <time>2025-09-05T12:56:45.000Z</time>
        <extensions>
          <ns3:TrackPointExtension>
            <ns3:hr>177</ns3:hr>
            <ns3:cad>81</ns3:cad>
          </ns3:TrackPointExtension>
        </extensions>
      </trkpt>
      <trkpt lat="52.0708595216274261474609375" lon="1.2982714734971523284912109375">
        <ele>76.59999847412109375</ele>
        <time>2025-09-05T12:56:46.000Z</time>
        <extensions>
          <ns3:TrackPointExtension>
            <ns3:hr>178</ns3:hr>
            <ns3:cad>81</ns3:cad>
          </ns3:TrackPointExtension>
        </extensions>
      </trkpt>
      <trkpt lat="52.0709019340574741363525390625" lon="1.29825009964406490325927734375">
        <ele>77.59999847412109375</ele>
        <time>2025-09-05T12:56:48.000Z</time>
        <extensions>
          <ns3:TrackPointExtension>
            <ns3:hr>180</ns3:hr>
            <ns3:cad>81</ns3:cad>
          </ns3:TrackPointExtension>
        </extensions>
      </trkpt>
      <trkpt lat="52.0709441788494586944580078125" lon="1.2982258759438991546630859375">
        <ele>78.59999847412109375</ele>
        <time>2025-09-05T12:56:50.000Z</time>
        <extensions>
          <ns3:TrackPointExtension>
            <ns3:hr>180</ns3:hr>
            <ns3:cad>81</ns3:cad>
          </ns3:TrackPointExtension>
        </extensions>
      </trkpt>
      <trkpt lat="52.07098768092691898345947265625" lon="1.29819159395992755889892578125">
        <ele>79.8000030517578125</ele>
        <time>2025-09-05T12:56:52.000Z</time>
        <extensions>
          <ns3:TrackPointExtension>
            <ns3:hr>180</ns3:hr>
            <ns3:cad>81</ns3:cad>
          </ns3:TrackPointExtension>
        </extensions>
      </trkpt>
      <trkpt lat="52.07101031206548213958740234375" lon="1.2981717288494110107421875">
        <ele>80.40000152587890625</ele>
        <time>2025-09-05T12:56:53.000Z</time>
        <extensions>
          <ns3:TrackPointExtension>
            <ns3:hr>181</ns3:hr>
            <ns3:cad>81</ns3:cad>
          </ns3:TrackPointExtension>
        </extensions>
      </trkpt>
      <trkpt lat="52.0710310153663158416748046875" lon="1.29814289510250091552734375">
        <ele>81.1999969482421875</ele>
        <time>2025-09-05T12:56:54.000Z</time>
        <extensions>
          <ns3:TrackPointExtension>
            <ns3:hr>180</ns3:hr>
            <ns3:cad>81</ns3:cad>
          </ns3:TrackPointExtension>
        </extensions>
      </trkpt>
      <trkpt lat="52.07107619382441043853759765625" lon="1.2981303222477436065673828125">
        <ele>82.59999847412109375</ele>
        <time>2025-09-05T12:56:56.000Z</time>
        <extensions>
          <ns3:TrackPointExtension>
            <ns3:hr>181</ns3:hr>
            <ns3:cad>81</ns3:cad>
          </ns3:TrackPointExtension>
        </extensions>
      </trkpt>
      <trkpt lat="52.0711024291813373565673828125" lon="1.29813945852220058441162109375">
        <ele>83.8000030517578125</ele>
        <time>2025-09-05T12:56:58.000Z</time>
        <extensions>
          <ns3:TrackPointExtension>
            <ns3:hr>181</ns3:hr>
            <ns3:cad>81</ns3:cad>
          </ns3:TrackPointExtension>
        </extensions>
      </trkpt>
      <trkpt lat="52.07110234536230564117431640625" lon="1.29815387539565563201904296875">
        <ele>84.59999847412109375</ele>
        <time>2025-09-05T12:56:59.000Z</time>
        <extensions>
          <ns3:TrackPointExtension>
            <ns3:hr>180</ns3:hr>
            <ns3:cad>81</ns3:cad>
          </ns3:TrackPointExtension>
        </extensions>
      </trkpt>
      <trkpt lat="52.07110217772424221038818359375" lon="1.2981672026216983795166015625">
        <ele>85.1999969482421875</ele>
        <time>2025-09-05T12:57:00.000Z</time>
        <extensions>
          <ns3:TrackPointExtension>
            <ns3:hr>179</ns3:hr>
            <ns3:cad>79</ns3:cad>
          </ns3:TrackPointExtension>
        </extensions>
      </trkpt>
      <trkpt lat="52.07110066898167133331298828125" lon="1.2981772609055042266845703125">
        <ele>86.59999847412109375</ele>
        <time>2025-09-05T12:57:02.000Z</time>
        <extensions>
          <ns3:TrackPointExtension>
            <ns3:hr>179</ns3:hr>
            <ns3:cad>0</ns3:cad>
          </ns3:TrackPointExtension>
        </extensions>
      </trkpt>
      <trkpt lat="52.071094214916229248046875" lon="1.298190169036388397216796875">
        <ele>87.8000030517578125</ele>
        <time>2025-09-05T12:57:04.000Z</time>
        <extensions>
          <ns3:TrackPointExtension>
            <ns3:hr>179</ns3:hr>
            <ns3:cad>0</ns3:cad>
          </ns3:TrackPointExtension>
        </extensions>
      </trkpt>
      <trkpt lat="52.07109346054494380950927734375" lon="1.29819452762603759765625">
        <ele>88.59999847412109375</ele>
        <time>2025-09-05T12:57:05.000Z</time>
        <extensions>
          <ns3:TrackPointExtension>
            <ns3:hr>178</ns3:hr>
            <ns3:cad>0</ns3:cad>
          </ns3:TrackPointExtension>
        </extensions>
      </trkpt>
      <trkpt lat="52.071089856326580047607421875" lon="1.298202909529209136962890625">
        <ele>89.1999969482421875</ele>
        <time>2025-09-05T12:57:06.000Z</time>
        <extensions>
          <ns3:TrackPointExtension>
            <ns3:hr>179</ns3:hr>
            <ns3:cad>0</ns3:cad>
          </ns3:TrackPointExtension>
        </extensions>
      </trkpt>
      <trkpt lat="52.0710759423673152923583984375" lon="1.29821137525141239166259765625">
        <ele>90.59999847412109375</ele>
        <time>2025-09-05T12:57:08.000Z</time>
        <extensions>
          <ns3:TrackPointExtension>
            <ns3:hr>178</ns3:hr>
            <ns3:cad>0</ns3:cad>
          </ns3:TrackPointExtension>
        </extensions>
      </trkpt>
      <trkpt lat="52.07107300870120525360107421875" lon="1.29821238107979297637939453125">
        <ele>92</ele>
        <time>2025-09-05T12:57:10.000Z</time>
        <extensions>
          <ns3:TrackPointExtension>
            <ns3:hr>177</ns3:hr>
            <ns3:cad>0</ns3:cad>
          </ns3:TrackPointExtension>
        </extensions>
      </trkpt>
      <trkpt lat="52.071072757244110107421875" lon="1.29821305163204669952392578125">
        <ele>93.40000152587890625</ele>
        <time>2025-09-05T12:57:12.000Z</time>
        <extensions>
          <ns3:TrackPointExtension>
            <ns3:hr>175</ns3:hr>
            <ns3:cad>0</ns3:cad>
          </ns3:TrackPointExtension>
        </extensions>
      </trkpt>
      <trkpt lat="52.07107149995863437652587890625" lon="1.2982134707272052764892578125">
        <ele>94</ele>
        <time>2025-09-05T12:57:13.000Z</time>
        <extensions>
          <ns3:TrackPointExtension>
            <ns3:hr>173</ns3:hr>
            <ns3:cad>0</ns3:cad>
          </ns3:TrackPointExtension>
        </extensions>
      </trkpt>
      <trkpt lat="52.0710705779492855072021484375" lon="1.298213638365268707275390625">
        <ele>94.59999847412109375</ele>
        <time>2025-09-05T12:57:14.000Z</time>
        <extensions>
          <ns3:TrackPointExtension>
            <ns3:hr>173</ns3:hr>
            <ns3:cad>0</ns3:cad>
          </ns3:TrackPointExtension>
        </extensions>
      </trkpt>
      <trkpt lat="52.07107149995863437652587890625" lon="1.29821221344172954559326171875">
        <ele>96</ele>
        <time>2025-09-05T12:57:16.000Z</time>
        <extensions>
          <ns3:TrackPointExtension>
            <ns3:hr>172</ns3:hr>
            <ns3:cad>0</ns3:cad>
          </ns3:TrackPointExtension>
        </extensions>
      </trkpt>
      <trkpt lat="52.071079127490520477294921875" lon="1.29820450209081172943115234375">
        <ele>97.1999969482421875</ele>
        <time>2025-09-05T12:57:18.000Z</time>
        <extensions>
          <ns3:TrackPointExtension>
            <ns3:hr>172</ns3:hr>
            <ns3:cad>0</ns3:cad>
          </ns3:TrackPointExtension>
        </extensions>
      </trkpt>
      <trkpt lat="52.07109396345913410186767578125" lon="1.298194192349910736083984375">
        <ele>98.40000152587890625</ele>
        <time>2025-09-05T12:57:20.000Z</time>
        <extensions>
          <ns3:TrackPointExtension>
            <ns3:hr>172</ns3:hr>
            <ns3:cad>0</ns3:cad>
          </ns3:TrackPointExtension>
        </extensions>
      </trkpt>
      <trkpt lat="52.07111726514995098114013671875" lon="1.29818757064640522003173828125">
        <ele>99.59999847412109375</ele>
        <time>2025-09-05T12:57:22.000Z</time>
        <extensions>
          <ns3:TrackPointExtension>
            <ns3:hr>170</ns3:hr>
            <ns3:cad>58</ns3:cad>
          </ns3:TrackPointExtension>
        </extensions>
      </trkpt>
      <trkpt lat="52.07113285548985004425048828125" lon="1.298183463513851165771484375">
        <ele>100</ele>
        <time>2025-09-05T12:57:23.000Z</time>
        <extensions>
          <ns3:TrackPointExtension>
            <ns3:hr>169</ns3:hr>
            <ns3:cad>58</ns3:cad>
          </ns3:TrackPointExtension>
        </extensions>
      </trkpt>
      <trkpt lat="52.071168981492519378662109375" lon="1.29816711880266666412353515625">
        <ele>101</ele>
        <time>2025-09-05T12:57:25.000Z</time>
        <extensions>
          <ns3:TrackPointExtension>
            <ns3:hr>169</ns3:hr>
            <ns3:cad>58</ns3:cad>
          </ns3:TrackPointExtension>
        </extensions>
      </trkpt>
      <trkpt lat="52.07124165259301662445068359375" lon="1.29813895560801029205322265625">
        <ele>102.40000152587890625</ele>
        <time>2025-09-05T12:57:28.000Z</time>
        <extensions>
          <ns3:TrackPointExtension>
            <ns3:hr>168</ns3:hr>
            <ns3:cad>75</ns3:cad>
          </ns3:TrackPointExtension>
        </extensions>
      </trkpt>
      <trkpt lat="52.0712630264461040496826171875" lon="1.29813007079064846038818359375">
        <ele>102.8000030517578125</ele>
        <time>2025-09-05T12:57:29.000Z</time>
        <extensions>
          <ns3:TrackPointExtension>
            <ns3:hr>168</ns3:hr>
            <ns3:cad>75</ns3:cad>
          </ns3:TrackPointExtension>
        </extensions>
      </trkpt>
      <trkpt lat="52.071311473846435546875" lon="1.2981127202510833740234375">
        <ele>103.8000030517578125</ele>
        <time>2025-09-05T12:57:31.000Z</time>
        <extensions>
          <ns3:TrackPointExtension>
            <ns3:hr>167</ns3:hr>
            <ns3:cad>78</ns3:cad>
          </ns3:TrackPointExtension>
        </extensions>
      </trkpt>
      <trkpt lat="52.07136134617030620574951171875" lon="1.2981014885008335113525390625">
        <ele>104.8000030517578125</ele>
        <time>2025-09-05T12:57:33.000Z</time>
        <extensions>
          <ns3:TrackPointExtension>
            <ns3:hr>167</ns3:hr>
            <ns3:cad>80</ns3:cad>
          </ns3:TrackPointExtension>
        </extensions>
      </trkpt>
      <trkpt lat="52.0714085362851619720458984375" lon="1.298095621168613433837890625">
        <ele>106</ele>
        <time>2025-09-05T12:57:35.000Z</time>
        <extensions>
          <ns3:TrackPointExtension>
            <ns3:hr>170</ns3:hr>
            <ns3:cad>81</ns3:cad>
          </ns3:TrackPointExtension>
        </extensions>
      </trkpt>
      <trkpt lat="52.07143678329885005950927734375" lon="1.298097632825374603271484375">
        <ele>106.59999847412109375</ele>
        <time>2025-09-05T12:57:36.000Z</time>
        <extensions>
          <ns3:TrackPointExtension>
            <ns3:hr>172</ns3:hr>
            <ns3:cad>81</ns3:cad>
          </ns3:TrackPointExtension>
        </extensions>
      </trkpt>
      <trkpt lat="52.07146645523607730865478515625" lon="1.2981041707098484039306640625">
        <ele>107.40000152587890625</ele>
        <time>2025-09-05T12:57:37.000Z</time>
        <extensions>
          <ns3:TrackPointExtension>
            <ns3:hr>174</ns3:hr>
            <ns3:cad>82</ns3:cad>
          </ns3:TrackPointExtension>
        </extensions>
      </trkpt>
      <trkpt lat="52.071516998112201690673828125" lon="1.29812152124941349029541015625">
        <ele>108.59999847412109375</ele>
        <time>2025-09-05T12:57:39.000Z</time>
        <extensions>
          <ns3:TrackPointExtension>
            <ns3:hr>176</ns3:hr>
            <ns3:cad>81</ns3:cad>
          </ns3:TrackPointExtension>
        </extensions>
      </trkpt>
      <trkpt lat="52.0715676248073577880859375" lon="1.298141889274120330810546875">
        <ele>110</ele>
        <time>2025-09-05T12:57:41.000Z</time>
        <extensions>
          <ns3:TrackPointExtension>
            <ns3:hr>176</ns3:hr>
            <ns3:cad>81</ns3:cad>
          </ns3:TrackPointExtension>
        </extensions>
      </trkpt>
      <trkpt lat="52.07161682657897472381591796875" lon="1.29814331419765949249267578125">
        <ele>111.1999969482421875</ele>
        <time>2025-09-05T12:57:43.000Z</time>
        <extensions>
          <ns3:TrackPointExtension>
            <ns3:hr>177</ns3:hr>
            <ns3:cad>81</ns3:cad>
          </ns3:TrackPointExtension>
        </extensions>
      </trkpt>
      <trkpt lat="52.0716422237455844879150390625" lon="1.2981444038450717926025390625">
        <ele>111.8000030517578125</ele>
        <time>2025-09-05T12:57:44.000Z</time>
        <extensions>
          <ns3:TrackPointExtension>
            <ns3:hr>177</ns3:hr>
            <ns3:cad>81</ns3:cad>
          </ns3:TrackPointExtension>
        </extensions>
      </trkpt>
      <trkpt lat="52.0717562176287174224853515625" lon="1.29813660867512226104736328125">
        <ele>110</ele>
        <time>2025-09-05T12:57:49.000Z</time>
        <extensions>
          <ns3:TrackPointExtension>
            <ns3:hr>180</ns3:hr>
            <ns3:cad>81</ns3:cad>
          </ns3:TrackPointExtension>
        </extensions>
      </trkpt>
      <trkpt lat="52.071826457977294921875" lon="1.2981145642697811126708984375">
        <ele>109</ele>
        <time>2025-09-05T12:57:52.000Z</time>
        <extensions>
          <ns3:TrackPointExtension>
            <ns3:hr>179</ns3:hr>
            <ns3:cad>80</ns3:cad>
          </ns3:TrackPointExtension>
        </extensions>
      </trkpt>
      <trkpt lat="52.0718933455646038055419921875" lon="1.298084892332553863525390625">
        <ele>108</ele>
        <time>2025-09-05T12:57:55.000Z</time>
        <extensions>
          <ns3:TrackPointExtension>
            <ns3:hr>179</ns3:hr>
            <ns3:cad>81</ns3:cad>
          </ns3:TrackPointExtension>
        </extensions>
      </trkpt>
      <trkpt lat="52.07200055010616779327392578125" lon="1.2980193458497524261474609375">
        <ele>106.59999847412109375</ele>
        <time>2025-09-05T12:57:59.000Z</time>
        <extensions>
          <ns3:TrackPointExtension>
            <ns3:hr>180</ns3:hr>
            <ns3:cad>81</ns3:cad>
          </ns3:TrackPointExtension>
        </extensions>
      </trkpt>
      <trkpt lat="52.07210063003003597259521484375" lon="1.298001073300838470458984375">
        <ele>105.1999969482421875</ele>
        <time>2025-09-05T12:58:03.000Z</time>
        <extensions>
          <ns3:TrackPointExtension>
            <ns3:hr>182</ns3:hr>
            <ns3:cad>81</ns3:cad>
          </ns3:TrackPointExtension>
        </extensions>
      </trkpt>
      <trkpt lat="52.07216911017894744873046875" lon="1.2980055995285511016845703125">
        <ele>104.40000152587890625</ele>
        <time>2025-09-05T12:58:06.000Z</time>
        <extensions>
          <ns3:TrackPointExtension>
            <ns3:hr>183</ns3:hr>
            <ns3:cad>81</ns3:cad>
          </ns3:TrackPointExtension>
        </extensions>
      </trkpt>
      <trkpt lat="52.072188556194305419921875" lon="1.2980133108794689178466796875">
        <ele>104</ele>
        <time>2025-09-05T12:58:07.000Z</time>
        <extensions>
          <ns3:TrackPointExtension>
            <ns3:hr>184</ns3:hr>
            <ns3:cad>81</ns3:cad>
          </ns3:TrackPointExtension>
        </extensions>
      </trkpt>
      <trkpt lat="52.0722730457782745361328125" lon="1.29803334362804889678955078125">
        <ele>102.8000030517578125</ele>
        <time>2025-09-05T12:58:11.000Z</time>
        <extensions>
          <ns3:TrackPointExtension>
            <ns3:hr>183</ns3:hr>
            <ns3:cad>81</ns3:cad>
          </ns3:TrackPointExtension>
        </extensions>
      </trkpt>
      <trkpt lat="52.07233649678528308868408203125" lon="1.29808380268514156341552734375">
        <ele>102</ele>
        <time>2025-09-05T12:58:14.000Z</time>
        <extensions>
          <ns3:TrackPointExtension>
            <ns3:hr>183</ns3:hr>
            <ns3:cad>81</ns3:cad>
          </ns3:TrackPointExtension>
        </extensions>
      </trkpt>
      <trkpt lat="52.0723561942577362060546875" lon="1.2981008179485797882080078125">
        <ele>101.59999847412109375</ele>
        <time>2025-09-05T12:58:15.000Z</time>
        <extensions>
          <ns3:TrackPointExtension>
            <ns3:hr>183</ns3:hr>
            <ns3:cad>81</ns3:cad>
          </ns3:TrackPointExtension>
        </extensions>
      </trkpt>
      <trkpt lat="52.07237790338695049285888671875" lon="1.29811833612620830535888671875">
        <ele>101.40000152587890625</ele>
        <time>2025-09-05T12:58:16.000Z</time>
        <extensions>
          <ns3:TrackPointExtension>
            <ns3:hr>183</ns3:hr>
            <ns3:cad>81</ns3:cad>
          </ns3:TrackPointExtension>
        </extensions>
      </trkpt>
      <trkpt lat="52.0724468864500522613525390625" lon="1.298148930072784423828125">
        <ele>100.40000152587890625</ele>
        <time>2025-09-05T12:58:19.000Z</time>
        <extensions>
          <ns3:TrackPointExtension>
            <ns3:hr>183</ns3:hr>
            <ns3:cad>81</ns3:cad>
          </ns3:TrackPointExtension>
        </extensions>
      </trkpt>
      <trkpt lat="52.0725256763398647308349609375" lon="1.29817214794456958770751953125">
        <ele>99.59999847412109375</ele>
        <time>2025-09-05T12:58:22.000Z</time>
        <extensions>
          <ns3:TrackPointExtension>
            <ns3:hr>184</ns3:hr>
            <ns3:cad>81</ns3:cad>
          </ns3:TrackPointExtension>
        </extensions>
      </trkpt>
      <trkpt lat="52.07255375571548938751220703125" lon="1.29818715155124664306640625">
        <ele>99.40000152587890625</ele>
        <time>2025-09-05T12:58:23.000Z</time>
        <extensions>
          <ns3:TrackPointExtension>
            <ns3:hr>185</ns3:hr>
            <ns3:cad>81</ns3:cad>
          </ns3:TrackPointExtension>
        </extensions>
      </trkpt>
      <trkpt lat="52.072577141225337982177734375" lon="1.29820869304239749908447265625">
        <ele>99</ele>
        <time>2025-09-05T12:58:24.000Z</time>
        <extensions>
          <ns3:TrackPointExtension>
            <ns3:hr>188</ns3:hr>
            <ns3:cad>81</ns3:cad>
          </ns3:TrackPointExtension>
        </extensions>
      </trkpt>
      <trkpt lat="52.0726297795772552490234375" lon="1.29824322648346424102783203125">
        <ele>98.40000152587890625</ele>
        <time>2025-09-05T12:58:26.000Z</time>
        <extensions>
          <ns3:TrackPointExtension>
            <ns3:hr>191</ns3:hr>
            <ns3:cad>81</ns3:cad>
          </ns3:TrackPointExtension>
        </extensions>
      </trkpt>
      <trkpt lat="52.0726463757455348968505859375" lon="1.29821858368813991546630859375">
        <ele>98.1999969482421875</ele>
        <time>2025-09-05T12:58:27.000Z</time>
        <extensions>
          <ns3:TrackPointExtension>
            <ns3:hr>191</ns3:hr>
            <ns3:cad>82</ns3:cad>
          </ns3:TrackPointExtension>
        </extensions>
      </trkpt>
      <trkpt lat="52.07268702797591686248779296875" lon="1.298234760761260986328125">
        <ele>97.59999847412109375</ele>
        <time>2025-09-05T12:58:29.000Z</time>
        <extensions>
          <ns3:TrackPointExtension>
            <ns3:hr>194</ns3:hr>
            <ns3:cad>82</ns3:cad>
          </ns3:TrackPointExtension>
        </extensions>
      </trkpt>
      <trkpt lat="52.072737403213977813720703125" lon="1.2982602417469024658203125">
        <ele>97.1999969482421875</ele>
        <time>2025-09-05T12:58:31.000Z</time>
        <extensions>
          <ns3:TrackPointExtension>
            <ns3:hr>195</ns3:hr>
            <ns3:cad>81</ns3:cad>
          </ns3:TrackPointExtension>
        </extensions>
      </trkpt>
      <trkpt lat="52.0728455297648906707763671875" lon="1.2983076833188533782958984375">
        <ele>96.1999969482421875</ele>
        <time>2025-09-05T12:58:35.000Z</time>
        <extensions>
          <ns3:TrackPointExtension>
            <ns3:hr>194</ns3:hr>
            <ns3:cad>81</ns3:cad>
          </ns3:TrackPointExtension>
        </extensions>
      </trkpt>
      <trkpt lat="52.07293999381363391876220703125" lon="1.29837968386709690093994140625">
        <ele>95</ele>
        <time>2025-09-05T12:58:39.000Z</time>
        <extensions>
          <ns3:TrackPointExtension>
            <ns3:hr>193</ns3:hr>
            <ns3:cad>81</ns3:cad>
          </ns3:TrackPointExtension>
        </extensions>
      </trkpt>
      <trkpt lat="52.0730252377688884735107421875" lon="1.2984558753669261932373046875">
        <ele>94</ele>
        <time>2025-09-05T12:58:43.000Z</time>
        <extensions>
          <ns3:TrackPointExtension>
            <ns3:hr>192</ns3:hr>
            <ns3:cad>80</ns3:cad>
          </ns3:TrackPointExtension>
        </extensions>
      </trkpt>
      <trkpt lat="52.07310914061963558197021484375" lon="1.2985499203205108642578125">
        <ele>93</ele>
        <time>2025-09-05T12:58:47.000Z</time>
        <extensions>
          <ns3:TrackPointExtension>
            <ns3:hr>192</ns3:hr>
            <ns3:cad>81</ns3:cad>
          </ns3:TrackPointExtension>
        </extensions>
      </trkpt>
      <trkpt lat="52.073216177523136138916015625" lon="1.29865251481533050537109375">
        <ele>91.8000030517578125</ele>
        <time>2025-09-05T12:58:52.000Z</time>
        <extensions>
          <ns3:TrackPointExtension>
            <ns3:hr>191</ns3:hr>
            <ns3:cad>81</ns3:cad>
          </ns3:TrackPointExtension>
        </extensions>
      </trkpt>
      <trkpt lat="52.0733226276934146881103515625" lon="1.2987163849174976348876953125">
        <ele>90.59999847412109375</ele>
        <time>2025-09-05T12:58:57.000Z</time>
        <extensions>
          <ns3:TrackPointExtension>
            <ns3:hr>191</ns3:hr>
            <ns3:cad>81</ns3:cad>
          </ns3:TrackPointExtension>
        </extensions>
      </trkpt>
      <trkpt lat="52.07338674925267696380615234375" lon="1.29873692058026790618896484375">
        <ele>89.8000030517578125</ele>
        <time>2025-09-05T12:59:00.000Z</time>
        <extensions>
          <ns3:TrackPointExtension>
            <ns3:hr>191</ns3:hr>
            <ns3:cad>81</ns3:cad>
          </ns3:TrackPointExtension>
        </extensions>
      </trkpt>
      <trkpt lat="52.07342840731143951416015625" lon="1.2987348251044750213623046875">
        <ele>89.40000152587890625</ele>
        <time>2025-09-05T12:59:02.000Z</time>
        <extensions>
          <ns3:TrackPointExtension>
            <ns3:hr>191</ns3:hr>
            <ns3:cad>81</ns3:cad>
          </ns3:TrackPointExtension>
        </extensions>
      </trkpt>
      <trkpt lat="52.07351557910442352294921875" lon="1.298712193965911865234375">
        <ele>88.59999847412109375</ele>
        <time>2025-09-05T12:59:06.000Z</time>
        <extensions>
          <ns3:TrackPointExtension>
            <ns3:hr>191</ns3:hr>
            <ns3:cad>81</ns3:cad>
          </ns3:TrackPointExtension>
        </extensions>
      </trkpt>
      <trkpt lat="52.0735378749668598175048828125" lon="1.29871160723268985748291015625">
        <ele>88.1999969482421875</ele>
        <time>2025-09-05T12:59:07.000Z</time>
        <extensions>
          <ns3:TrackPointExtension>
            <ns3:hr>192</ns3:hr>
            <ns3:cad>81</ns3:cad>
          </ns3:TrackPointExtension>
        </extensions>
      </trkpt>
      <trkpt lat="52.07365815527737140655517578125" lon="1.2987167201936244964599609375">
        <ele>87.1999969482421875</ele>
        <time>2025-09-05T12:59:12.000Z</time>
        <extensions>
          <ns3:TrackPointExtension>
            <ns3:hr>193</ns3:hr>
            <ns3:cad>82</ns3:cad>
          </ns3:TrackPointExtension>
        </extensions>
      </trkpt>
      <trkpt lat="52.0737138949334621429443359375" lon="1.2987361662089824676513671875">
        <ele>86.8000030517578125</ele>
        <time>2025-09-05T12:59:14.000Z</time>
        <extensions>
          <ns3:TrackPointExtension>
            <ns3:hr>192</ns3:hr>
            <ns3:cad>81</ns3:cad>
          </ns3:TrackPointExtension>
        </extensions>
      </trkpt>
      <trkpt lat="52.07377952523529529571533203125" lon="1.29874228499829769134521484375">
        <ele>86.1999969482421875</ele>
        <time>2025-09-05T12:59:17.000Z</time>
        <extensions>
          <ns3:TrackPointExtension>
            <ns3:hr>188</ns3:hr>
            <ns3:cad>81</ns3:cad>
          </ns3:TrackPointExtension>
        </extensions>
      </trkpt>
      <trkpt lat="52.0737957023084163665771484375" lon="1.29874714650213718414306640625">
        <ele>85.59999847412109375</ele>
        <time>2025-09-05T12:59:20.000Z</time>
        <extensions>
          <ns3:TrackPointExtension>
            <ns3:hr>183</ns3:hr>
            <ns3:cad>0</ns3:cad>
          </ns3:TrackPointExtension>
        </extensions>
      </trkpt>
      <trkpt lat="52.0737883262336254119873046875" lon="1.29875586368143558502197265625">
        <ele>85.40000152587890625</ele>
        <time>2025-09-05T12:59:21.000Z</time>
        <extensions>
          <ns3:TrackPointExtension>
            <ns3:hr>182</ns3:hr>
            <ns3:cad>0</ns3:cad>
          </ns3:TrackPointExtension>
        </extensions>
      </trkpt>
      <trkpt lat="52.0737910084426403045654296875" lon="1.29875888116657733917236328125">
        <ele>85</ele>
        <time>2025-09-05T12:59:23.000Z</time>
        <extensions>
          <ns3:TrackPointExtension>
            <ns3:hr>178</ns3:hr>
            <ns3:cad>0</ns3:cad>
          </ns3:TrackPointExtension>
        </extensions>
      </trkpt>
      <trkpt lat="52.0738037489354610443115234375" lon="1.29875720478594303131103515625">
        <ele>84.59999847412109375</ele>
        <time>2025-09-05T12:59:25.000Z</time>
        <extensions>
          <ns3:TrackPointExtension>
            <ns3:hr>174</ns3:hr>
            <ns3:cad>0</ns3:cad>
          </ns3:TrackPointExtension>
        </extensions>
      </trkpt>
      <trkpt lat="52.073815651237964630126953125" lon="1.298744380474090576171875">
        <ele>84.1999969482421875</ele>
        <time>2025-09-05T12:59:27.000Z</time>
        <extensions>
          <ns3:TrackPointExtension>
            <ns3:hr>171</ns3:hr>
            <ns3:cad>58</ns3:cad>
          </ns3:TrackPointExtension>
        </extensions>
      </trkpt>
      <trkpt lat="52.07382445223629474639892578125" lon="1.29872920922935009002685546875">
        <ele>83.8000030517578125</ele>
        <time>2025-09-05T12:59:29.000Z</time>
        <extensions>
          <ns3:TrackPointExtension>
            <ns3:hr>170</ns3:hr>
            <ns3:cad>59</ns3:cad>
          </ns3:TrackPointExtension>
        </extensions>
      </trkpt>
      <trkpt lat="52.07383610308170318603515625" lon="1.29872283898293972015380859375">
        <ele>83.59999847412109375</ele>
        <time>2025-09-05T12:59:30.000Z</time>
        <extensions>
          <ns3:TrackPointExtension>
            <ns3:hr>170</ns3:hr>
            <ns3:cad>60</ns3:cad>
          </ns3:TrackPointExtension>
        </extensions>
      </trkpt>
      <trkpt lat="52.07391120493412017822265625" lon="1.2987150438129901885986328125">
        <ele>82.8000030517578125</ele>
        <time>2025-09-05T12:59:35.000Z</time>
        <extensions>
          <ns3:TrackPointExtension>
            <ns3:hr>172</ns3:hr>
            <ns3:cad>62</ns3:cad>
          </ns3:TrackPointExtension>
        </extensions>
      </trkpt>
      <trkpt lat="52.07399108447134494781494140625" lon="1.29869283176958560943603515625">
        <ele>82</ele>
        <time>2025-09-05T12:59:40.000Z</time>
        <extensions>
          <ns3:TrackPointExtension>
            <ns3:hr>173</ns3:hr>
            <ns3:cad>62</ns3:cad>
          </ns3:TrackPointExtension>
        </extensions>
      </trkpt>
      <trkpt lat="52.074011452496051788330078125" lon="1.29869249649345874786376953125">
        <ele>81.59999847412109375</ele>
        <time>2025-09-05T12:59:42.000Z</time>
        <extensions>
          <ns3:TrackPointExtension>
            <ns3:hr>173</ns3:hr>
            <ns3:cad>62</ns3:cad>
          </ns3:TrackPointExtension>
        </extensions>
      </trkpt>
      <trkpt lat="52.07411379553377628326416015625" lon="1.29865142516791820526123046875">
        <ele>80.59999847412109375</ele>
        <time>2025-09-05T12:59:50.000Z</time>
        <extensions>
          <ns3:TrackPointExtension>
            <ns3:hr>173</ns3:hr>
            <ns3:cad>62</ns3:cad>
          </ns3:TrackPointExtension>
        </extensions>
      </trkpt>
      <trkpt lat="52.074125111103057861328125" lon="1.2986422888934612274169921875">
        <ele>80.40000152587890625</ele>
        <time>2025-09-05T12:59:51.000Z</time>
        <extensions>
          <ns3:TrackPointExtension>
            <ns3:hr>173</ns3:hr>
            <ns3:cad>62</ns3:cad>
          </ns3:TrackPointExtension>
        </extensions>
      </trkpt>
      <trkpt lat="52.07422259263694286346435546875" lon="1.298598535358905792236328125">
        <ele>79.40000152587890625</ele>
        <time>2025-09-05T12:59:59.000Z</time>
        <extensions>
          <ns3:TrackPointExtension>
            <ns3:hr>170</ns3:hr>
            <ns3:cad>62</ns3:cad>
          </ns3:TrackPointExtension>
        </extensions>
      </trkpt>
      <trkpt lat="52.07426651380956172943115234375" lon="1.29859082400798797607421875">
        <ele>79.1999969482421875</ele>
        <time>2025-09-05T13:00:02.000Z</time>
        <extensions>
          <ns3:TrackPointExtension>
            <ns3:hr>170</ns3:hr>
            <ns3:cad>61</ns3:cad>
          </ns3:TrackPointExtension>
        </extensions>
      </trkpt>
      <trkpt lat="52.07436474971473217010498046875" lon="1.2985879741609096527099609375">
        <ele>78.40000152587890625</ele>
        <time>2025-09-05T13:00:10.000Z</time>
        <extensions>
          <ns3:TrackPointExtension>
            <ns3:hr>170</ns3:hr>
            <ns3:cad>63</ns3:cad>
          </ns3:TrackPointExtension>
        </extensions>
      </trkpt>
      <trkpt lat="52.0743817649781703948974609375" lon="1.29857816733419895172119140625">
        <ele>78.40000152587890625</ele>
        <time>2025-09-05T13:00:11.000Z</time>
        <extensions>
          <ns3:TrackPointExtension>
            <ns3:hr>169</ns3:hr>
            <ns3:cad>62</ns3:cad>
          </ns3:TrackPointExtension>
        </extensions>
      </trkpt>
      <trkpt lat="52.07450489513576030731201171875" lon="1.2984783388674259185791015625">
        <ele>77.8000030517578125</ele>
        <time>2025-09-05T13:00:17.000Z</time>
        <extensions>
          <ns3:TrackPointExtension>
            <ns3:hr>168</ns3:hr>
            <ns3:cad>63</ns3:cad>
          </ns3:TrackPointExtension>
        </extensions>
      </trkpt>
      <trkpt lat="52.07458720542490482330322265625" lon="1.2983889877796173095703125">
        <ele>77.59999847412109375</ele>
        <time>2025-09-05T13:00:21.000Z</time>
        <extensions>
          <ns3:TrackPointExtension>
            <ns3:hr>165</ns3:hr>
            <ns3:cad>81</ns3:cad>
          </ns3:TrackPointExtension>
        </extensions>
      </trkpt>
      <trkpt lat="52.07462106831371784210205078125" lon="1.29834674298763275146484375">
        <ele>77.40000152587890625</ele>
        <time>2025-09-05T13:00:23.000Z</time>
        <extensions>
          <ns3:TrackPointExtension>
            <ns3:hr>166</ns3:hr>
            <ns3:cad>81</ns3:cad>
          </ns3:TrackPointExtension>
        </extensions>
      </trkpt>
      <trkpt lat="52.07463129423558712005615234375" lon="1.29826837219297885894775390625">
        <ele>77.1999969482421875</ele>
        <time>2025-09-05T13:00:25.000Z</time>
        <extensions>
          <ns3:TrackPointExtension>
            <ns3:hr>166</ns3:hr>
            <ns3:cad>82</ns3:cad>
          </ns3:TrackPointExtension>
        </extensions>
      </trkpt>
      <trkpt lat="52.07463531754910945892333984375" lon="1.29820684902369976043701171875">
        <ele>77.1999969482421875</ele>
        <time>2025-09-05T13:00:27.000Z</time>
        <extensions>
          <ns3:TrackPointExtension>
            <ns3:hr>171</ns3:hr>
            <ns3:cad>82</ns3:cad>
          </ns3:TrackPointExtension>
        </extensions>
      </trkpt>
      <trkpt lat="52.07463934086263179779052734375" lon="1.29817415960133075714111328125">
        <ele>77</ele>
        <time>2025-09-05T13:00:28.000Z</time>
        <extensions>
          <ns3:TrackPointExtension>
            <ns3:hr>175</ns3:hr>
            <ns3:cad>82</ns3:cad>
          </ns3:TrackPointExtension>
        </extensions>
      </trkpt>
      <trkpt lat="52.074639759957790374755859375" lon="1.29803694784641265869140625">
        <ele>76.8000030517578125</ele>
        <time>2025-09-05T13:00:33.000Z</time>
        <extensions>
          <ns3:TrackPointExtension>
            <ns3:hr>175</ns3:hr>
            <ns3:cad>82</ns3:cad>
          </ns3:TrackPointExtension>
        </extensions>
      </trkpt>
      <trkpt lat="52.074614949524402618408203125" lon="1.2978510372340679168701171875">
        <ele>76.40000152587890625</ele>
        <time>2025-09-05T13:00:39.000Z</time>
        <extensions>
          <ns3:TrackPointExtension>
            <ns3:hr>175</ns3:hr>
            <ns3:cad>83</ns3:cad>
          </ns3:TrackPointExtension>
        </extensions>
      </trkpt>
      <trkpt lat="52.074602879583835601806640625" lon="1.29777635447680950164794921875">
        <ele>76.1999969482421875</ele>
        <time>2025-09-05T13:00:41.000Z</time>
        <extensions>
          <ns3:TrackPointExtension>
            <ns3:hr>178</ns3:hr>
            <ns3:cad>82</ns3:cad>
          </ns3:TrackPointExtension>
        </extensions>
      </trkpt>
      <trkpt lat="52.0745879597961902618408203125" lon="1.29771281965076923370361328125">
        <ele>76.1999969482421875</ele>
        <time>2025-09-05T13:00:43.000Z</time>
        <extensions>
          <ns3:TrackPointExtension>
            <ns3:hr>179</ns3:hr>
            <ns3:cad>81</ns3:cad>
          </ns3:TrackPointExtension>
        </extensions>
      </trkpt>
      <trkpt lat="52.0745738781988620758056640625" lon="1.29764492623507976531982421875">
        <ele>76</ele>
        <time>2025-09-05T13:00:46.000Z</time>
        <extensions>
          <ns3:TrackPointExtension>
            <ns3:hr>176</ns3:hr>
            <ns3:cad>0</ns3:cad>
          </ns3:TrackPointExtension>
        </extensions>
      </trkpt>
      <trkpt lat="52.07456423901021480560302734375" lon="1.29757787100970745086669921875">
        <ele>75.8000030517578125</ele>
        <time>2025-09-05T13:00:50.000Z</time>
        <extensions>
          <ns3:TrackPointExtension>
            <ns3:hr>175</ns3:hr>
            <ns3:cad>0</ns3:cad>
          </ns3:TrackPointExtension>
        </extensions>
      </trkpt>
      <trkpt lat="52.074559628963470458984375" lon="1.297553144395351409912109375">
        <ele>75.59999847412109375</ele>
        <time>2025-09-05T13:00:51.000Z</time>
        <extensions>
          <ns3:TrackPointExtension>
            <ns3:hr>171</ns3:hr>
            <ns3:cad>0</ns3:cad>
          </ns3:TrackPointExtension>
        </extensions>
      </trkpt>
      <trkpt lat="52.07456172443926334381103515625" lon="1.29739413969218730926513671875">
        <ele>75.40000152587890625</ele>
        <time>2025-09-05T13:00:57.000Z</time>
        <extensions>
          <ns3:TrackPointExtension>
            <ns3:hr>171</ns3:hr>
            <ns3:cad>61</ns3:cad>
          </ns3:TrackPointExtension>
        </extensions>
      </trkpt>
      <trkpt lat="52.0745564438402652740478515625" lon="1.2973303534090518951416015625">
        <ele>75.1999969482421875</ele>
        <time>2025-09-05T13:00:59.000Z</time>
        <extensions>
          <ns3:TrackPointExtension>
            <ns3:hr>170</ns3:hr>
            <ns3:cad>0</ns3:cad>
          </ns3:TrackPointExtension>
        </extensions>
      </trkpt>
      <trkpt lat="52.07455225288867950439453125" lon="1.297248713672161102294921875">
        <ele>75.1999969482421875</ele>
        <time>2025-09-05T13:01:02.000Z</time>
        <extensions>
          <ns3:TrackPointExtension>
            <ns3:hr>167</ns3:hr>
            <ns3:cad>80</ns3:cad>
          </ns3:TrackPointExtension>
        </extensions>
      </trkpt>
      <trkpt lat="52.074492238461971282958984375" lon="1.29704587161540985107421875">
        <ele>74.8000030517578125</ele>
        <time>2025-09-05T13:01:08.000Z</time>
        <extensions>
          <ns3:TrackPointExtension>
            <ns3:hr>167</ns3:hr>
            <ns3:cad>82</ns3:cad>
          </ns3:TrackPointExtension>
        </extensions>
      </trkpt>
      <trkpt lat="52.0743898116052150726318359375" lon="1.2967623956501483917236328125">
        <ele>74.59999847412109375</ele>
        <time>2025-09-05T13:01:16.000Z</time>
        <extensions>
          <ns3:TrackPointExtension>
            <ns3:hr>171</ns3:hr>
            <ns3:cad>81</ns3:cad>
          </ns3:TrackPointExtension>
        </extensions>
      </trkpt>
      <trkpt lat="52.07436810247600078582763671875" lon="1.29665854386985301971435546875">
        <ele>74.40000152587890625</ele>
        <time>2025-09-05T13:01:19.000Z</time>
        <extensions>
          <ns3:TrackPointExtension>
            <ns3:hr>174</ns3:hr>
            <ns3:cad>83</ns3:cad>
          </ns3:TrackPointExtension>
        </extensions>
      </trkpt>
      <trkpt lat="52.0743477344512939453125" lon="1.2965562008321285247802734375">
        <ele>74.40000152587890625</ele>
        <time>2025-09-05T13:01:22.000Z</time>
        <extensions>
          <ns3:TrackPointExtension>
            <ns3:hr>177</ns3:hr>
            <ns3:cad>83</ns3:cad>
          </ns3:TrackPointExtension>
        </extensions>
      </trkpt>
      <trkpt lat="52.074332647025585174560546875" lon="1.29644078202545642852783203125">
        <ele>74.1999969482421875</ele>
        <time>2025-09-05T13:01:25.000Z</time>
        <extensions>
          <ns3:TrackPointExtension>
            <ns3:hr>178</ns3:hr>
            <ns3:cad>82</ns3:cad>
          </ns3:TrackPointExtension>
        </extensions>
      </trkpt>
      <trkpt lat="52.074307166039943695068359375" lon="1.2961464934051036834716796875">
        <ele>74</ele>
        <time>2025-09-05T13:01:32.000Z</time>
        <extensions>
          <ns3:TrackPointExtension>
            <ns3:hr>178</ns3:hr>
            <ns3:cad>83</ns3:cad>
          </ns3:TrackPointExtension>
        </extensions>
      </trkpt>
      <trkpt lat="52.074307836592197418212890625" lon="1.29606460221111774444580078125">
        <ele>74</ele>
        <time>2025-09-05T13:01:34.000Z</time>
        <extensions>
          <ns3:TrackPointExtension>
            <ns3:hr>180</ns3:hr>
            <ns3:cad>83</ns3:cad>
          </ns3:TrackPointExtension>
        </extensions>
      </trkpt>
      <trkpt lat="52.07426919601857662200927734375" lon="1.295874081552028656005859375">
        <ele>73.8000030517578125</ele>
        <time>2025-09-05T13:01:41.000Z</time>
        <extensions>
          <ns3:TrackPointExtension>
            <ns3:hr>179</ns3:hr>
            <ns3:cad>82</ns3:cad>
          </ns3:TrackPointExtension>
        </extensions>
      </trkpt>
      <trkpt lat="52.07418655045330524444580078125" lon="1.29557861946523189544677734375">
        <ele>73.59999847412109375</ele>
        <time>2025-09-05T13:01:48.000Z</time>
        <extensions>
          <ns3:TrackPointExtension>
            <ns3:hr>179</ns3:hr>
            <ns3:cad>82</ns3:cad>
          </ns3:TrackPointExtension>
        </extensions>
      </trkpt>
      <trkpt lat="52.0741886459290981292724609375" lon="1.2954041920602321624755859375">
        <ele>73.40000152587890625</ele>
        <time>2025-09-05T13:01:53.000Z</time>
        <extensions>
          <ns3:TrackPointExtension>
            <ns3:hr>178</ns3:hr>
            <ns3:cad>82</ns3:cad>
          </ns3:TrackPointExtension>
        </extensions>
      </trkpt>
      <trkpt lat="52.07419627346098423004150390625" lon="1.2953941337764263153076171875">
        <ele>73.40000152587890625</ele>
        <time>2025-09-05T13:01:54.000Z</time>
        <extensions>
          <ns3:TrackPointExtension>
            <ns3:hr>179</ns3:hr>
            <ns3:cad>81</ns3:cad>
          </ns3:TrackPointExtension>
        </extensions>
      </trkpt>
      <trkpt lat="52.07424857653677463531494140625" lon="1.295328252017498016357421875">
        <ele>73.40000152587890625</ele>
        <time>2025-09-05T13:02:00.000Z</time>
        <extensions>
          <ns3:TrackPointExtension>
            <ns3:hr>178</ns3:hr>
            <ns3:cad>0</ns3:cad>
          </ns3:TrackPointExtension>
        </extensions>
      </trkpt>
      <trkpt lat="52.07425050437450408935546875" lon="1.29532163031399250030517578125">
        <ele>73.40000152587890625</ele>
        <time>2025-09-05T13:02:01.000Z</time>
        <extensions>
          <ns3:TrackPointExtension>
            <ns3:hr>179</ns3:hr>
            <ns3:cad>0</ns3:cad>
          </ns3:TrackPointExtension>
        </extensions>
      </trkpt>
      <trkpt lat="52.0742439664900302886962890625" lon="1.2953109852969646453857421875">
        <ele>73.40000152587890625</ele>
        <time>2025-09-05T13:02:03.000Z</time>
        <extensions>
          <ns3:TrackPointExtension>
            <ns3:hr>176</ns3:hr>
            <ns3:cad>0</ns3:cad>
          </ns3:TrackPointExtension>
        </extensions>
      </trkpt>
      <trkpt lat="52.07421354018151760101318359375" lon="1.2952979095280170440673828125">
        <ele>73.1999969482421875</ele>
        <time>2025-09-05T13:02:06.000Z</time>
        <extensions>
          <ns3:TrackPointExtension>
            <ns3:hr>174</ns3:hr>
            <ns3:cad>0</ns3:cad>
          </ns3:TrackPointExtension>
        </extensions>
      </trkpt>
      <trkpt lat="52.0741966925561428070068359375" lon="1.29521802999079227447509765625">
        <ele>73.1999969482421875</ele>
        <time>2025-09-05T13:02:11.000Z</time>
        <extensions>
          <ns3:TrackPointExtension>
            <ns3:hr>171</ns3:hr>
            <ns3:cad>59</ns3:cad>
          </ns3:TrackPointExtension>
        </extensions>
      </trkpt>
      <trkpt lat="52.0741712115705013275146484375" lon="1.2951453588902950286865234375">
        <ele>73</ele>
        <time>2025-09-05T13:02:14.000Z</time>
        <extensions>
          <ns3:TrackPointExtension>
            <ns3:hr>167</ns3:hr>
            <ns3:cad>59</ns3:cad>
          </ns3:TrackPointExtension>
        </extensions>
      </trkpt>
      <trkpt lat="52.0741344988346099853515625" lon="1.29497294314205646514892578125">
        <ele>73</ele>
        <time>2025-09-05T13:02:20.000Z</time>
        <extensions>
          <ns3:TrackPointExtension>
            <ns3:hr>165</ns3:hr>
            <ns3:cad>81</ns3:cad>
          </ns3:TrackPointExtension>
        </extensions>
      </trkpt>
      <trkpt lat="52.0741480775177478790283203125" lon="1.294941343367099761962890625">
        <ele>73</ele>
        <time>2025-09-05T13:02:21.000Z</time>
        <extensions>
          <ns3:TrackPointExtension>
            <ns3:hr>164</ns3:hr>
            <ns3:cad>78</ns3:cad>
          </ns3:TrackPointExtension>
        </extensions>
      </trkpt>
      <trkpt lat="52.0741209201514720916748046875" lon="1.2949026189744472503662109375">
        <ele>72.8000030517578125</ele>
        <time>2025-09-05T13:02:28.000Z</time>
        <extensions>
          <ns3:TrackPointExtension>
            <ns3:hr>167</ns3:hr>
            <ns3:cad>0</ns3:cad>
          </ns3:TrackPointExtension>
        </extensions>
      </trkpt>
      <trkpt lat="52.07411932758986949920654296875" lon="1.29490706138312816619873046875">
        <ele>72.8000030517578125</ele>
        <time>2025-09-05T13:02:29.000Z</time>
        <extensions>
          <ns3:TrackPointExtension>
            <ns3:hr>172</ns3:hr>
            <ns3:cad>0</ns3:cad>
          </ns3:TrackPointExtension>
        </extensions>
      </trkpt>
      <trkpt lat="52.07411798648536205291748046875" lon="1.29491074942052364349365234375">
        <ele>72.8000030517578125</ele>
        <time>2025-09-05T13:02:30.000Z</time>
        <extensions>
          <ns3:TrackPointExtension>
            <ns3:hr>171</ns3:hr>
            <ns3:cad>0</ns3:cad>
          </ns3:TrackPointExtension>
        </extensions>
      </trkpt>
      <trkpt lat="52.07413609139621257781982421875" lon="1.2949059717357158660888671875">
        <ele>72.8000030517578125</ele>
        <time>2025-09-05T13:02:38.000Z</time>
        <extensions>
          <ns3:TrackPointExtension>
            <ns3:hr>169</ns3:hr>
            <ns3:cad>0</ns3:cad>
          </ns3:TrackPointExtension>
        </extensions>
      </trkpt>
      <trkpt lat="52.07417096011340618133544921875" lon="1.29489566199481487274169921875">
        <ele>72.8000030517578125</ele>
        <time>2025-09-05T13:02:39.000Z</time>
        <extensions>
          <ns3:TrackPointExtension>
            <ns3:hr>168</ns3:hr>
            <ns3:cad>0</ns3:cad>
          </ns3:TrackPointExtension>
        </extensions>
      </trkpt>
      <trkpt lat="52.07422963343560695648193359375" lon="1.294844783842563629150390625">
        <ele>72.8000030517578125</ele>
        <time>2025-09-05T13:02:44.000Z</time>
        <extensions>
          <ns3:TrackPointExtension>
            <ns3:hr>166</ns3:hr>
            <ns3:cad>80</ns3:cad>
          </ns3:TrackPointExtension>
        </extensions>
      </trkpt>
      <trkpt lat="52.07426550798118114471435546875" lon="1.294814608991146087646484375">
        <ele>72.8000030517578125</ele>
        <time>2025-09-05T13:02:47.000Z</time>
        <extensions>
          <ns3:TrackPointExtension>
            <ns3:hr>169</ns3:hr>
            <ns3:cad>83</ns3:cad>
          </ns3:TrackPointExtension>
        </extensions>
      </trkpt>
      <trkpt lat="52.0743007957935333251953125" lon="1.2947867810726165771484375">
        <ele>72.59999847412109375</ele>
        <time>2025-09-05T13:02:50.000Z</time>
        <extensions>
          <ns3:TrackPointExtension>
            <ns3:hr>173</ns3:hr>
            <ns3:cad>84</ns3:cad>
          </ns3:TrackPointExtension>
        </extensions>
      </trkpt>
      <trkpt lat="52.07430808804929256439208984375" lon="1.29478049464523792266845703125">
        <ele>72.59999847412109375</ele>
        <time>2025-09-05T13:02:51.000Z</time>
        <extensions>
          <ns3:TrackPointExtension>
            <ns3:hr>174</ns3:hr>
            <ns3:cad>84</ns3:cad>
          </ns3:TrackPointExtension>
        </extensions>
      </trkpt>
      <trkpt lat="52.0743465609848499298095703125" lon="1.2947312928736209869384765625">
        <ele>72.40000152587890625</ele>
        <time>2025-09-05T13:02:58.000Z</time>
        <extensions>
          <ns3:TrackPointExtension>
            <ns3:hr>177</ns3:hr>
            <ns3:cad>84</ns3:cad>
          </ns3:TrackPointExtension>
        </extensions>
      </trkpt>
      <trkpt lat="52.07435536198318004608154296875" lon="1.2947182171046733856201171875">
        <ele>72.40000152587890625</ele>
        <time>2025-09-05T13:02:59.000Z</time>
        <extensions>
          <ns3:TrackPointExtension>
            <ns3:hr>176</ns3:hr>
            <ns3:cad>82</ns3:cad>
          </ns3:TrackPointExtension>
        </extensions>
      </trkpt>
      <trkpt lat="52.07435972057282924652099609375" lon="1.29469835199415683746337890625">
        <ele>72.40000152587890625</ele>
        <time>2025-09-05T13:03:00.000Z</time>
        <extensions>
          <ns3:TrackPointExtension>
            <ns3:hr>176</ns3:hr>
            <ns3:cad>81</ns3:cad>
          </ns3:TrackPointExtension>
        </extensions>
      </trkpt>
      <trkpt lat="52.07440732978284358978271484375" lon="1.294668428599834442138671875">
        <ele>72</ele>
        <time>2025-09-05T13:03:07.000Z</time>
        <extensions>
          <ns3:TrackPointExtension>
            <ns3:hr>176</ns3:hr>
            <ns3:cad>76</ns3:cad>
          </ns3:TrackPointExtension>
        </extensions>
      </trkpt>
      <trkpt lat="52.074467428028583526611328125" lon="1.29464889876544475555419921875">
        <ele>71.59999847412109375</ele>
        <time>2025-09-05T13:03:13.000Z</time>
        <extensions>
          <ns3:TrackPointExtension>
            <ns3:hr>179</ns3:hr>
            <ns3:cad>79</ns3:cad>
          </ns3:TrackPointExtension>
        </extensions>
      </trkpt>
      <trkpt lat="52.07453741692006587982177734375" lon="1.29463029094040393829345703125">
        <ele>71.1999969482421875</ele>
        <time>2025-09-05T13:03:16.000Z</time>
        <extensions>
          <ns3:TrackPointExtension>
            <ns3:hr>181</ns3:hr>
            <ns3:cad>79</ns3:cad>
          </ns3:TrackPointExtension>
        </extensions>
      </trkpt>
      <trkpt lat="52.07455920986831188201904296875" lon="1.29462249577045440673828125">
        <ele>71.1999969482421875</ele>
        <time>2025-09-05T13:03:17.000Z</time>
        <extensions>
          <ns3:TrackPointExtension>
            <ns3:hr>181</ns3:hr>
            <ns3:cad>84</ns3:cad>
          </ns3:TrackPointExtension>
        </extensions>
      </trkpt>
      <trkpt lat="52.07474327646195888519287109375" lon="1.29455585964024066925048828125">
        <ele>70.59999847412109375</ele>
        <time>2025-09-05T13:03:24.000Z</time>
        <extensions>
          <ns3:TrackPointExtension>
            <ns3:hr>179</ns3:hr>
            <ns3:cad>80</ns3:cad>
          </ns3:TrackPointExtension>
        </extensions>
      </trkpt>
      <trkpt lat="52.07480278797447681427001953125" lon="1.29454135894775390625">
        <ele>70.40000152587890625</ele>
        <time>2025-09-05T13:03:26.000Z</time>
        <extensions>
          <ns3:TrackPointExtension>
            <ns3:hr>179</ns3:hr>
            <ns3:cad>81</ns3:cad>
          </ns3:TrackPointExtension>
        </extensions>
      </trkpt>
      <trkpt lat="52.07496472634375095367431640625" lon="1.29451327957212924957275390625">
        <ele>71.59999847412109375</ele>
        <time>2025-09-05T13:03:34.000Z</time>
        <extensions>
          <ns3:TrackPointExtension>
            <ns3:hr>180</ns3:hr>
            <ns3:cad>81</ns3:cad>
          </ns3:TrackPointExtension>
        </extensions>
      </trkpt>
      <trkpt lat="52.07503831945359706878662109375" lon="1.294519565999507904052734375">
        <ele>72.40000152587890625</ele>
        <time>2025-09-05T13:03:37.000Z</time>
        <extensions>
          <ns3:TrackPointExtension>
            <ns3:hr>179</ns3:hr>
            <ns3:cad>74</ns3:cad>
          </ns3:TrackPointExtension>
        </extensions>
      </trkpt>
      <trkpt lat="52.0751358009874820709228515625" lon="1.29450623877346515655517578125">
        <ele>73.59999847412109375</ele>
        <time>2025-09-05T13:03:42.000Z</time>
        <extensions>
          <ns3:TrackPointExtension>
            <ns3:hr>180</ns3:hr>
            <ns3:cad>78</ns3:cad>
          </ns3:TrackPointExtension>
        </extensions>
      </trkpt>
      <trkpt lat="52.07520578987896442413330078125" lon="1.29450657404959201812744140625">
        <ele>74.8000030517578125</ele>
        <time>2025-09-05T13:03:45.000Z</time>
        <extensions>
          <ns3:TrackPointExtension>
            <ns3:hr>179</ns3:hr>
            <ns3:cad>77</ns3:cad>
          </ns3:TrackPointExtension>
        </extensions>
      </trkpt>
      <trkpt lat="52.0752776227891445159912109375" lon="1.294512860476970672607421875">
        <ele>76.1999969482421875</ele>
        <time>2025-09-05T13:03:48.000Z</time>
        <extensions>
          <ns3:TrackPointExtension>
            <ns3:hr>179</ns3:hr>
            <ns3:cad>80</ns3:cad>
          </ns3:TrackPointExtension>
        </extensions>
      </trkpt>
      <trkpt lat="52.07536420784890651702880859375" lon="1.29453758709132671356201171875">
        <ele>77.59999847412109375</ele>
        <time>2025-09-05T13:03:51.000Z</time>
        <extensions>
          <ns3:TrackPointExtension>
            <ns3:hr>182</ns3:hr>
            <ns3:cad>82</ns3:cad>
          </ns3:TrackPointExtension>
        </extensions>
      </trkpt>
      <trkpt lat="52.075400836765766143798828125" lon="1.2945480644702911376953125">
        <ele>78.8000030517578125</ele>
        <time>2025-09-05T13:03:53.000Z</time>
        <extensions>
          <ns3:TrackPointExtension>
            <ns3:hr>184</ns3:hr>
            <ns3:cad>81</ns3:cad>
          </ns3:TrackPointExtension>
        </extensions>
      </trkpt>
      <trkpt lat="52.075450457632541656494140625" lon="1.2945534288883209228515625">
        <ele>80</ele>
        <time>2025-09-05T13:03:55.000Z</time>
        <extensions>
          <ns3:TrackPointExtension>
            <ns3:hr>183</ns3:hr>
            <ns3:cad>80</ns3:cad>
          </ns3:TrackPointExtension>
        </extensions>
      </trkpt>
      <trkpt lat="52.07549965940415859222412109375" lon="1.2945649959146976470947265625">
        <ele>81.1999969482421875</ele>
        <time>2025-09-05T13:03:57.000Z</time>
        <extensions>
          <ns3:TrackPointExtension>
            <ns3:hr>185</ns3:hr>
            <ns3:cad>82</ns3:cad>
          </ns3:TrackPointExtension>
        </extensions>
      </trkpt>
      <trkpt lat="52.07556067965924739837646484375" lon="1.2945535965263843536376953125">
        <ele>82.40000152587890625</ele>
        <time>2025-09-05T13:03:59.000Z</time>
        <extensions>
          <ns3:TrackPointExtension>
            <ns3:hr>184</ns3:hr>
            <ns3:cad>82</ns3:cad>
          </ns3:TrackPointExtension>
        </extensions>
      </trkpt>
      <trkpt lat="52.0755924470722675323486328125" lon="1.29454177804291248321533203125">
        <ele>83</ele>
        <time>2025-09-05T13:04:00.000Z</time>
        <extensions>
          <ns3:TrackPointExtension>
            <ns3:hr>183</ns3:hr>
            <ns3:cad>82</ns3:cad>
          </ns3:TrackPointExtension>
        </extensions>
      </trkpt>
      <trkpt lat="52.07562186755239963531494140625" lon="1.2945301271975040435791015625">
        <ele>83.59999847412109375</ele>
        <time>2025-09-05T13:04:01.000Z</time>
        <extensions>
          <ns3:TrackPointExtension>
            <ns3:hr>184</ns3:hr>
            <ns3:cad>82</ns3:cad>
          </ns3:TrackPointExtension>
        </extensions>
      </trkpt>
      <trkpt lat="52.075684480369091033935546875" lon="1.29450389184057712554931640625">
        <ele>85</ele>
        <time>2025-09-05T13:04:03.000Z</time>
        <extensions>
          <ns3:TrackPointExtension>
            <ns3:hr>184</ns3:hr>
            <ns3:cad>82</ns3:cad>
          </ns3:TrackPointExtension>
        </extensions>
      </trkpt>
      <trkpt lat="52.07574575208127498626708984375" lon="1.29446885548532009124755859375">
        <ele>86.40000152587890625</ele>
        <time>2025-09-05T13:04:05.000Z</time>
        <extensions>
          <ns3:TrackPointExtension>
            <ns3:hr>184</ns3:hr>
            <ns3:cad>82</ns3:cad>
          </ns3:TrackPointExtension>
        </extensions>
      </trkpt>
      <trkpt lat="52.0757652819156646728515625" lon="1.29446550272405147552490234375">
        <ele>87.8000030517578125</ele>
        <time>2025-09-05T13:04:07.000Z</time>
        <extensions>
          <ns3:TrackPointExtension>
            <ns3:hr>185</ns3:hr>
            <ns3:cad>82</ns3:cad>
          </ns3:TrackPointExtension>
        </extensions>
      </trkpt>
      <trkpt lat="52.07578028552234172821044921875" lon="1.29446885548532009124755859375">
        <ele>89.1999969482421875</ele>
        <time>2025-09-05T13:04:09.000Z</time>
        <extensions>
          <ns3:TrackPointExtension>
            <ns3:hr>184</ns3:hr>
            <ns3:cad>0</ns3:cad>
          </ns3:TrackPointExtension>
        </extensions>
      </trkpt>
      <trkpt lat="52.07578212954103946685791015625" lon="1.294477991759777069091796875">
        <ele>90.59999847412109375</ele>
        <time>2025-09-05T13:04:11.000Z</time>
        <extensions>
          <ns3:TrackPointExtension>
            <ns3:hr>183</ns3:hr>
            <ns3:cad>0</ns3:cad>
          </ns3:TrackPointExtension>
        </extensions>
      </trkpt>
      <trkpt lat="52.07579076290130615234375" lon="1.2944768182933330535888671875">
        <ele>91.8000030517578125</ele>
        <time>2025-09-05T13:04:13.000Z</time>
        <extensions>
          <ns3:TrackPointExtension>
            <ns3:hr>184</ns3:hr>
            <ns3:cad>0</ns3:cad>
          </ns3:TrackPointExtension>
        </extensions>
      </trkpt>
      <trkpt lat="52.0757979713380336761474609375" lon="1.29447774030268192291259765625">
        <ele>92.59999847412109375</ele>
        <time>2025-09-05T13:04:14.000Z</time>
        <extensions>
          <ns3:TrackPointExtension>
            <ns3:hr>184</ns3:hr>
            <ns3:cad>0</ns3:cad>
          </ns3:TrackPointExtension>
        </extensions>
      </trkpt>
      <trkpt lat="52.07580442540347576141357421875" lon="1.2944783270359039306640625">
        <ele>93.40000152587890625</ele>
        <time>2025-09-05T13:04:15.000Z</time>
        <extensions>
          <ns3:TrackPointExtension>
            <ns3:hr>183</ns3:hr>
            <ns3:cad>48</ns3:cad>
          </ns3:TrackPointExtension>
        </extensions>
      </trkpt>
      <trkpt lat="52.07582554779946804046630859375" lon="1.29447455517947673797607421875">
        <ele>94.8000030517578125</ele>
        <time>2025-09-05T13:04:17.000Z</time>
        <extensions>
          <ns3:TrackPointExtension>
            <ns3:hr>184</ns3:hr>
            <ns3:cad>48</ns3:cad>
          </ns3:TrackPointExtension>
        </extensions>
      </trkpt>
      <trkpt lat="52.07583392970263957977294921875" lon="1.29448293708264827728271484375">
        <ele>96.40000152587890625</ele>
        <time>2025-09-05T13:04:19.000Z</time>
        <extensions>
          <ns3:TrackPointExtension>
            <ns3:hr>184</ns3:hr>
            <ns3:cad>0</ns3:cad>
          </ns3:TrackPointExtension>
        </extensions>
      </trkpt>
      <trkpt lat="52.07583946175873279571533203125" lon="1.29449802450835704803466796875">
        <ele>97.8000030517578125</ele>
        <time>2025-09-05T13:04:21.000Z</time>
        <extensions>
          <ns3:TrackPointExtension>
            <ns3:hr>184</ns3:hr>
            <ns3:cad>0</ns3:cad>
          </ns3:TrackPointExtension>
        </extensions>
      </trkpt>
      <trkpt lat="52.07586293108761310577392578125" lon="1.2945024669170379638671875">
        <ele>99.40000152587890625</ele>
        <time>2025-09-05T13:04:23.000Z</time>
        <extensions>
          <ns3:TrackPointExtension>
            <ns3:hr>183</ns3:hr>
            <ns3:cad>0</ns3:cad>
          </ns3:TrackPointExtension>
        </extensions>
      </trkpt>
      <trkpt lat="52.075889669358730316162109375" lon="1.294496767222881317138671875">
        <ele>101</ele>
        <time>2025-09-05T13:04:25.000Z</time>
        <extensions>
          <ns3:TrackPointExtension>
            <ns3:hr>182</ns3:hr>
            <ns3:cad>0</ns3:cad>
          </ns3:TrackPointExtension>
        </extensions>
      </trkpt>
      <trkpt lat="52.07593166269361972808837890625" lon="1.294492073357105255126953125">
        <ele>102.40000152587890625</ele>
        <time>2025-09-05T13:04:27.000Z</time>
        <extensions>
          <ns3:TrackPointExtension>
            <ns3:hr>180</ns3:hr>
            <ns3:cad>0</ns3:cad>
          </ns3:TrackPointExtension>
        </extensions>
      </trkpt>
      <trkpt lat="52.07598212175071239471435546875" lon="1.29449081607162952423095703125">
        <ele>104</ele>
        <time>2025-09-05T13:04:29.000Z</time>
        <extensions>
          <ns3:TrackPointExtension>
            <ns3:hr>178</ns3:hr>
            <ns3:cad>77</ns3:cad>
          </ns3:TrackPointExtension>
        </extensions>
      </trkpt>
      <trkpt lat="52.07601003348827362060546875" lon="1.2944877147674560546875">
        <ele>104.8000030517578125</ele>
        <time>2025-09-05T13:04:30.000Z</time>
        <extensions>
          <ns3:TrackPointExtension>
            <ns3:hr>176</ns3:hr>
            <ns3:cad>77</ns3:cad>
          </ns3:TrackPointExtension>
        </extensions>
      </trkpt>
      <trkpt lat="52.07603895105421543121337890625" lon="1.29447899758815765380859375">
        <ele>105.40000152587890625</ele>
        <time>2025-09-05T13:04:31.000Z</time>
        <extensions>
          <ns3:TrackPointExtension>
            <ns3:hr>177</ns3:hr>
            <ns3:cad>77</ns3:cad>
          </ns3:TrackPointExtension>
        </extensions>
      </trkpt>
      <trkpt lat="52.07609075121581554412841796875" lon="1.29446952603757381439208984375">
        <ele>107</ele>
        <time>2025-09-05T13:04:33.000Z</time>
        <extensions>
          <ns3:TrackPointExtension>
            <ns3:hr>172</ns3:hr>
            <ns3:cad>81</ns3:cad>
          </ns3:TrackPointExtension>
        </extensions>
      </trkpt>
      <trkpt lat="52.0761429704725742340087890625" lon="1.2944624014198780059814453125">
        <ele>108.40000152587890625</ele>
        <time>2025-09-05T13:04:35.000Z</time>
        <extensions>
          <ns3:TrackPointExtension>
            <ns3:hr>171</ns3:hr>
            <ns3:cad>82</ns3:cad>
          </ns3:TrackPointExtension>
        </extensions>
      </trkpt>
      <trkpt lat="52.076190747320652008056640625" lon="1.2944540195167064666748046875">
        <ele>110</ele>
        <time>2025-09-05T13:04:37.000Z</time>
        <extensions>
          <ns3:TrackPointExtension>
            <ns3:hr>170</ns3:hr>
            <ns3:cad>81</ns3:cad>
          </ns3:TrackPointExtension>
        </extensions>
      </trkpt>
      <trkpt lat="52.0762180723249912261962890625" lon="1.294445134699344635009765625">
        <ele>110.59999847412109375</ele>
        <time>2025-09-05T13:04:38.000Z</time>
        <extensions>
          <ns3:TrackPointExtension>
            <ns3:hr>169</ns3:hr>
            <ns3:cad>81</ns3:cad>
          </ns3:TrackPointExtension>
        </extensions>
      </trkpt>
      <trkpt lat="52.07624279893934726715087890625" lon="1.29443884827196598052978515625">
        <ele>111.1999969482421875</ele>
        <time>2025-09-05T13:04:39.000Z</time>
        <extensions>
          <ns3:TrackPointExtension>
            <ns3:hr>169</ns3:hr>
            <ns3:cad>82</ns3:cad>
          </ns3:TrackPointExtension>
        </extensions>
      </trkpt>
      <trkpt lat="52.0763956010341644287109375" lon="1.29444169811904430389404296875">
        <ele>110.1999969482421875</ele>
        <time>2025-09-05T13:04:45.000Z</time>
        <extensions>
          <ns3:TrackPointExtension>
            <ns3:hr>169</ns3:hr>
            <ns3:cad>82</ns3:cad>
          </ns3:TrackPointExtension>
        </extensions>
      </trkpt>
      <trkpt lat="52.0765107683837413787841796875" lon="1.29449634812772274017333984375">
        <ele>109.40000152587890625</ele>
        <time>2025-09-05T13:04:50.000Z</time>
        <extensions>
          <ns3:TrackPointExtension>
            <ns3:hr>172</ns3:hr>
            <ns3:cad>83</ns3:cad>
          </ns3:TrackPointExtension>
        </extensions>
      </trkpt>
      <trkpt lat="52.0765587128698825836181640625" lon="1.29453993402421474456787109375">
        <ele>109.1999969482421875</ele>
        <time>2025-09-05T13:04:52.000Z</time>
        <extensions>
          <ns3:TrackPointExtension>
            <ns3:hr>172</ns3:hr>
            <ns3:cad>83</ns3:cad>
          </ns3:TrackPointExtension>
        </extensions>
      </trkpt>
      <trkpt lat="52.0766690187156200408935546875" lon="1.29470706917345523834228515625">
        <ele>109</ele>
        <time>2025-09-05T13:04:58.000Z</time>
        <extensions>
          <ns3:TrackPointExtension>
            <ns3:hr>173</ns3:hr>
            <ns3:cad>82</ns3:cad>
          </ns3:TrackPointExtension>
        </extensions>
      </trkpt>
      <trkpt lat="52.0767981000244617462158203125" lon="1.29481184296309947967529296875">
        <ele>109.1999969482421875</ele>
        <time>2025-09-05T13:05:04.000Z</time>
        <extensions>
          <ns3:TrackPointExtension>
            <ns3:hr>170</ns3:hr>
            <ns3:cad>79</ns3:cad>
          </ns3:TrackPointExtension>
        </extensions>
      </trkpt>
      <trkpt lat="52.07682064734399318695068359375" lon="1.29482097923755645751953125">
        <ele>109.40000152587890625</ele>
        <time>2025-09-05T13:05:05.000Z</time>
        <extensions>
          <ns3:TrackPointExtension>
            <ns3:hr>171</ns3:hr>
            <ns3:cad>79</ns3:cad>
          </ns3:TrackPointExtension>
        </extensions>
      </trkpt>
      <trkpt lat="52.07700647413730621337890625" lon="1.29486733116209506988525390625">
        <ele>110</ele>
        <time>2025-09-05T13:05:13.000Z</time>
        <extensions>
          <ns3:TrackPointExtension>
            <ns3:hr>171</ns3:hr>
            <ns3:cad>81</ns3:cad>
          </ns3:TrackPointExtension>
        </extensions>
      </trkpt>
      <trkpt lat="52.0770405046641826629638671875" lon="1.29488962702453136444091796875">
        <ele>110.1999969482421875</ele>
        <time>2025-09-05T13:05:15.000Z</time>
        <extensions>
          <ns3:TrackPointExtension>
            <ns3:hr>171</ns3:hr>
            <ns3:cad>80</ns3:cad>
          </ns3:TrackPointExtension>
        </extensions>
      </trkpt>
      <trkpt lat="52.0771464519202709197998046875" lon="1.29495131783187389373779296875">
        <ele>111.40000152587890625</ele>
        <time>2025-09-05T13:05:21.000Z</time>
        <extensions>
          <ns3:TrackPointExtension>
            <ns3:hr>174</ns3:hr>
            <ns3:cad>81</ns3:cad>
          </ns3:TrackPointExtension>
        </extensions>
      </trkpt>
      <trkpt lat="52.07723571918904781341552734375" lon="1.29498191177845001220703125">
        <ele>112.40000152587890625</ele>
        <time>2025-09-05T13:05:25.000Z</time>
        <extensions>
          <ns3:TrackPointExtension>
            <ns3:hr>174</ns3:hr>
            <ns3:cad>81</ns3:cad>
          </ns3:TrackPointExtension>
        </extensions>
      </trkpt>
      <trkpt lat="52.0773316919803619384765625" lon="1.2949871085584163665771484375">
        <ele>113.59999847412109375</ele>
        <time>2025-09-05T13:05:29.000Z</time>
        <extensions>
          <ns3:TrackPointExtension>
            <ns3:hr>174</ns3:hr>
            <ns3:cad>81</ns3:cad>
          </ns3:TrackPointExtension>
        </extensions>
      </trkpt>
      <trkpt lat="52.0773533172905445098876953125" lon="1.29497596062719821929931640625">
        <ele>113.8000030517578125</ele>
        <time>2025-09-05T13:05:30.000Z</time>
        <extensions>
          <ns3:TrackPointExtension>
            <ns3:hr>174</ns3:hr>
            <ns3:cad>81</ns3:cad>
          </ns3:TrackPointExtension>
        </extensions>
      </trkpt>
      <trkpt lat="52.07740922458469867706298828125" lon="1.29490815103054046630859375">
        <ele>114.8000030517578125</ele>
        <time>2025-09-05T13:05:33.000Z</time>
        <extensions>
          <ns3:TrackPointExtension>
            <ns3:hr>175</ns3:hr>
            <ns3:cad>82</ns3:cad>
          </ns3:TrackPointExtension>
        </extensions>
      </trkpt>
      <trkpt lat="52.07744057290256023406982421875" lon="1.29485006444156169891357421875">
        <ele>115.40000152587890625</ele>
        <time>2025-09-05T13:05:35.000Z</time>
        <extensions>
          <ns3:TrackPointExtension>
            <ns3:hr>176</ns3:hr>
            <ns3:cad>82</ns3:cad>
          </ns3:TrackPointExtension>
        </extensions>
      </trkpt>
      <trkpt lat="52.07747342996299266815185546875" lon="1.29479725845158100128173828125">
        <ele>116</ele>
        <time>2025-09-05T13:05:37.000Z</time>
        <extensions>
          <ns3:TrackPointExtension>
            <ns3:hr>176</ns3:hr>
            <ns3:cad>82</ns3:cad>
          </ns3:TrackPointExtension>
        </extensions>
      </trkpt>
      <trkpt lat="52.0775226317346096038818359375" lon="1.294718049466609954833984375">
        <ele>117.1999969482421875</ele>
        <time>2025-09-05T13:05:40.000Z</time>
        <extensions>
          <ns3:TrackPointExtension>
            <ns3:hr>178</ns3:hr>
            <ns3:cad>82</ns3:cad>
          </ns3:TrackPointExtension>
        </extensions>
      </trkpt>
      <trkpt lat="52.0775784552097320556640625" lon="1.29466230981051921844482421875">
        <ele>118.40000152587890625</ele>
        <time>2025-09-05T13:05:43.000Z</time>
        <extensions>
          <ns3:TrackPointExtension>
            <ns3:hr>175</ns3:hr>
            <ns3:cad>81</ns3:cad>
          </ns3:TrackPointExtension>
        </extensions>
      </trkpt>
      <trkpt lat="52.0776416547596454620361328125" lon="1.29460564814507961273193359375">
        <ele>119.59999847412109375</ele>
        <time>2025-09-05T13:05:46.000Z</time>
        <extensions>
          <ns3:TrackPointExtension>
            <ns3:hr>175</ns3:hr>
            <ns3:cad>81</ns3:cad>
          </ns3:TrackPointExtension>
        </extensions>
      </trkpt>
      <trkpt lat="52.07771449349820613861083984375" lon="1.29457329399883747100830078125">
        <ele>121</ele>
        <time>2025-09-05T13:05:49.000Z</time>
        <extensions>
          <ns3:TrackPointExtension>
            <ns3:hr>177</ns3:hr>
            <ns3:cad>80</ns3:cad>
          </ns3:TrackPointExtension>
        </extensions>
      </trkpt>
      <trkpt lat="52.0777392201125621795654296875" lon="1.2945834361016750335693359375">
        <ele>121.59999847412109375</ele>
        <time>2025-09-05T13:05:50.000Z</time>
        <extensions>
          <ns3:TrackPointExtension>
            <ns3:hr>177</ns3:hr>
            <ns3:cad>79</ns3:cad>
          </ns3:TrackPointExtension>
        </extensions>
      </trkpt>
      <trkpt lat="52.0777828060090541839599609375" lon="1.294622160494327545166015625">
        <ele>122.59999847412109375</ele>
        <time>2025-09-05T13:05:52.000Z</time>
        <extensions>
          <ns3:TrackPointExtension>
            <ns3:hr>178</ns3:hr>
            <ns3:cad>78</ns3:cad>
          </ns3:TrackPointExtension>
        </extensions>
      </trkpt>
      <trkpt lat="52.0778225362300872802734375" lon="1.2946709431707859039306640625">
        <ele>123.59999847412109375</ele>
        <time>2025-09-05T13:05:54.000Z</time>
        <extensions>
          <ns3:TrackPointExtension>
            <ns3:hr>178</ns3:hr>
            <ns3:cad>80</ns3:cad>
          </ns3:TrackPointExtension>
        </extensions>
      </trkpt>
      <trkpt lat="52.07786302082240581512451171875" lon="1.294720731675624847412109375">
        <ele>124.59999847412109375</ele>
        <time>2025-09-05T13:05:56.000Z</time>
        <extensions>
          <ns3:TrackPointExtension>
            <ns3:hr>179</ns3:hr>
            <ns3:cad>81</ns3:cad>
          </ns3:TrackPointExtension>
        </extensions>
      </trkpt>
      <trkpt lat="52.0779051817953586578369140625" lon="1.2947742082178592681884765625">
        <ele>125.59999847412109375</ele>
        <time>2025-09-05T13:05:58.000Z</time>
        <extensions>
          <ns3:TrackPointExtension>
            <ns3:hr>177</ns3:hr>
            <ns3:cad>81</ns3:cad>
          </ns3:TrackPointExtension>
        </extensions>
      </trkpt>
      <trkpt lat="52.07794399000704288482666015625" lon="1.2948268465697765350341796875">
        <ele>126.59999847412109375</ele>
        <time>2025-09-05T13:06:00.000Z</time>
        <extensions>
          <ns3:TrackPointExtension>
            <ns3:hr>177</ns3:hr>
            <ns3:cad>81</ns3:cad>
          </ns3:TrackPointExtension>
        </extensions>
      </trkpt>
      <trkpt lat="52.07797701470553874969482421875" lon="1.294879652559757232666015625">
        <ele>127.8000030517578125</ele>
        <time>2025-09-05T13:06:02.000Z</time>
        <extensions>
          <ns3:TrackPointExtension>
            <ns3:hr>178</ns3:hr>
            <ns3:cad>81</ns3:cad>
          </ns3:TrackPointExtension>
        </extensions>
      </trkpt>
      <trkpt lat="52.0779920183122158050537109375" lon="1.29491024650633335113525390625">
        <ele>128.399993896484375</ele>
        <time>2025-09-05T13:06:03.000Z</time>
        <extensions>
          <ns3:TrackPointExtension>
            <ns3:hr>179</ns3:hr>
            <ns3:cad>81</ns3:cad>
          </ns3:TrackPointExtension>
        </extensions>
      </trkpt>
      <trkpt lat="52.0780040882527828216552734375" lon="1.2949394993484020233154296875">
        <ele>128.8000030517578125</ele>
        <time>2025-09-05T13:06:04.000Z</time>
        <extensions>
          <ns3:TrackPointExtension>
            <ns3:hr>179</ns3:hr>
            <ns3:cad>81</ns3:cad>
          </ns3:TrackPointExtension>
        </extensions>
      </trkpt>
      <trkpt lat="52.07803099416196346282958984375" lon="1.294993646442890167236328125">
        <ele>130</ele>
        <time>2025-09-05T13:06:06.000Z</time>
        <extensions>
          <ns3:TrackPointExtension>
            <ns3:hr>181</ns3:hr>
            <ns3:cad>81</ns3:cad>
          </ns3:TrackPointExtension>
        </extensions>
      </trkpt>
      <trkpt lat="52.0780620910227298736572265625" lon="1.295044608414173126220703125">
        <ele>131</ele>
        <time>2025-09-05T13:06:08.000Z</time>
        <extensions>
          <ns3:TrackPointExtension>
            <ns3:hr>182</ns3:hr>
            <ns3:cad>82</ns3:cad>
          </ns3:TrackPointExtension>
        </extensions>
      </trkpt>
      <trkpt lat="52.078089080750942230224609375" lon="1.2950990907847881317138671875">
        <ele>132.1999969482421875</ele>
        <time>2025-09-05T13:06:10.000Z</time>
        <extensions>
          <ns3:TrackPointExtension>
            <ns3:hr>181</ns3:hr>
            <ns3:cad>82</ns3:cad>
          </ns3:TrackPointExtension>
        </extensions>
      </trkpt>
      <trkpt lat="52.07811196334660053253173828125" lon="1.295157261192798614501953125">
        <ele>133.1999969482421875</ele>
        <time>2025-09-05T13:06:12.000Z</time>
        <extensions>
          <ns3:TrackPointExtension>
            <ns3:hr>180</ns3:hr>
            <ns3:cad>80</ns3:cad>
          </ns3:TrackPointExtension>
        </extensions>
      </trkpt>
      <trkpt lat="52.07810257561504840850830078125" lon="1.29527703858911991119384765625">
        <ele>131.8000030517578125</ele>
        <time>2025-09-05T13:06:15.000Z</time>
        <extensions>
          <ns3:TrackPointExtension>
            <ns3:hr>178</ns3:hr>
            <ns3:cad>79</ns3:cad>
          </ns3:TrackPointExtension>
        </extensions>
      </trkpt>
      <trkpt lat="52.07808581180870532989501953125" lon="1.2953592650592327117919921875">
        <ele>130.1999969482421875</ele>
        <time>2025-09-05T13:06:17.000Z</time>
        <extensions>
          <ns3:TrackPointExtension>
            <ns3:hr>179</ns3:hr>
            <ns3:cad>79</ns3:cad>
          </ns3:TrackPointExtension>
        </extensions>
      </trkpt>
      <trkpt lat="52.07806502468883991241455078125" lon="1.29543361254036426544189453125">
        <ele>128.600006103515625</ele>
        <time>2025-09-05T13:06:19.000Z</time>
        <extensions>
          <ns3:TrackPointExtension>
            <ns3:hr>178</ns3:hr>
            <ns3:cad>78</ns3:cad>
          </ns3:TrackPointExtension>
        </extensions>
      </trkpt>
      <trkpt lat="52.07803719677031040191650390625" lon="1.2954953871667385101318359375">
        <ele>127</ele>
        <time>2025-09-05T13:06:21.000Z</time>
        <extensions>
          <ns3:TrackPointExtension>
            <ns3:hr>178</ns3:hr>
            <ns3:cad>79</ns3:cad>
          </ns3:TrackPointExtension>
        </extensions>
      </trkpt>
      <trkpt lat="52.07802529446780681610107421875" lon="1.29552916623651981353759765625">
        <ele>126.1999969482421875</ele>
        <time>2025-09-05T13:06:22.000Z</time>
        <extensions>
          <ns3:TrackPointExtension>
            <ns3:hr>178</ns3:hr>
            <ns3:cad>80</ns3:cad>
          </ns3:TrackPointExtension>
        </extensions>
      </trkpt>
      <trkpt lat="52.07800853066146373748779296875" lon="1.295568309724330902099609375">
        <ele>125.40000152587890625</ele>
        <time>2025-09-05T13:06:23.000Z</time>
        <extensions>
          <ns3:TrackPointExtension>
            <ns3:hr>179</ns3:hr>
            <ns3:cad>80</ns3:cad>
          </ns3:TrackPointExtension>
        </extensions>
      </trkpt>
      <trkpt lat="52.0779843069612979888916015625" lon="1.295635364949703216552734375">
        <ele>123.8000030517578125</ele>
        <time>2025-09-05T13:06:25.000Z</time>
        <extensions>
          <ns3:TrackPointExtension>
            <ns3:hr>178</ns3:hr>
            <ns3:cad>80</ns3:cad>
          </ns3:TrackPointExtension>
        </extensions>
      </trkpt>
      <trkpt lat="52.0779568143188953399658203125" lon="1.29570476710796356201171875">
        <ele>122.1999969482421875</ele>
        <time>2025-09-05T13:06:27.000Z</time>
        <extensions>
          <ns3:TrackPointExtension>
            <ns3:hr>178</ns3:hr>
            <ns3:cad>81</ns3:cad>
          </ns3:TrackPointExtension>
        </extensions>
      </trkpt>
      <trkpt lat="52.07792554982006549835205078125" lon="1.2957743369042873382568359375">
        <ele>120.8000030517578125</ele>
        <time>2025-09-05T13:06:29.000Z</time>
        <extensions>
          <ns3:TrackPointExtension>
            <ns3:hr>177</ns3:hr>
            <ns3:cad>81</ns3:cad>
          </ns3:TrackPointExtension>
        </extensions>
      </trkpt>
      <trkpt lat="52.07791440188884735107421875" lon="1.29580937325954437255859375">
        <ele>120</ele>
        <time>2025-09-05T13:06:30.000Z</time>
        <extensions>
          <ns3:TrackPointExtension>
            <ns3:hr>180</ns3:hr>
            <ns3:cad>81</ns3:cad>
          </ns3:TrackPointExtension>
        </extensions>
      </trkpt>
      <trkpt lat="52.07790643908083438873291015625" lon="1.29584466107189655303955078125">
        <ele>119.1999969482421875</ele>
        <time>2025-09-05T13:06:31.000Z</time>
        <extensions>
          <ns3:TrackPointExtension>
            <ns3:hr>179</ns3:hr>
            <ns3:cad>81</ns3:cad>
          </ns3:TrackPointExtension>
        </extensions>
      </trkpt>
      <trkpt lat="52.07788229919970035552978515625" lon="1.29591532051563262939453125">
        <ele>117.8000030517578125</ele>
        <time>2025-09-05T13:06:33.000Z</time>
        <extensions>
          <ns3:TrackPointExtension>
            <ns3:hr>180</ns3:hr>
            <ns3:cad>80</ns3:cad>
          </ns3:TrackPointExtension>
        </extensions>
      </trkpt>
      <trkpt lat="52.0778689719736576080322265625" lon="1.29598363302648067474365234375">
        <ele>116.40000152587890625</ele>
        <time>2025-09-05T13:06:35.000Z</time>
        <extensions>
          <ns3:TrackPointExtension>
            <ns3:hr>179</ns3:hr>
            <ns3:cad>80</ns3:cad>
          </ns3:TrackPointExtension>
        </extensions>
      </trkpt>
      <trkpt lat="52.07786184735596179962158203125" lon="1.296054460108280181884765625">
        <ele>115</ele>
        <time>2025-09-05T13:06:37.000Z</time>
        <extensions>
          <ns3:TrackPointExtension>
            <ns3:hr>177</ns3:hr>
            <ns3:cad>80</ns3:cad>
          </ns3:TrackPointExtension>
        </extensions>
      </trkpt>
      <trkpt lat="52.0778498612344264984130859375" lon="1.2961300648748874664306640625">
        <ele>113.59999847412109375</ele>
        <time>2025-09-05T13:06:39.000Z</time>
        <extensions>
          <ns3:TrackPointExtension>
            <ns3:hr>179</ns3:hr>
            <ns3:cad>80</ns3:cad>
          </ns3:TrackPointExtension>
        </extensions>
      </trkpt>
      <trkpt lat="52.0778371207416057586669921875" lon="1.2961998023092746734619140625">
        <ele>112.1999969482421875</ele>
        <time>2025-09-05T13:06:41.000Z</time>
        <extensions>
          <ns3:TrackPointExtension>
            <ns3:hr>178</ns3:hr>
            <ns3:cad>80</ns3:cad>
          </ns3:TrackPointExtension>
        </extensions>
      </trkpt>
      <trkpt lat="52.07782094366848468780517578125" lon="1.296269707381725311279296875">
        <ele>110.8000030517578125</ele>
        <time>2025-09-05T13:06:43.000Z</time>
        <extensions>
          <ns3:TrackPointExtension>
            <ns3:hr>179</ns3:hr>
            <ns3:cad>80</ns3:cad>
          </ns3:TrackPointExtension>
        </extensions>
      </trkpt>
      <trkpt lat="52.07781038247048854827880859375" lon="1.29634086973965167999267578125">
        <ele>109.59999847412109375</ele>
        <time>2025-09-05T13:06:45.000Z</time>
        <extensions>
          <ns3:TrackPointExtension>
            <ns3:hr>179</ns3:hr>
            <ns3:cad>81</ns3:cad>
          </ns3:TrackPointExtension>
        </extensions>
      </trkpt>
      <trkpt lat="52.07780015654861927032470703125" lon="1.29637825302779674530029296875">
        <ele>109</ele>
        <time>2025-09-05T13:06:46.000Z</time>
        <extensions>
          <ns3:TrackPointExtension>
            <ns3:hr>180</ns3:hr>
            <ns3:cad>81</ns3:cad>
          </ns3:TrackPointExtension>
        </extensions>
      </trkpt>
      <trkpt lat="52.0777901820838451385498046875" lon="1.29641312174499034881591796875">
        <ele>108.40000152587890625</ele>
        <time>2025-09-05T13:06:47.000Z</time>
        <extensions>
          <ns3:TrackPointExtension>
            <ns3:hr>180</ns3:hr>
            <ns3:cad>81</ns3:cad>
          </ns3:TrackPointExtension>
        </extensions>
      </trkpt>
      <trkpt lat="52.07778506912291049957275390625" lon="1.29648118279874324798583984375">
        <ele>107</ele>
        <time>2025-09-05T13:06:49.000Z</time>
        <extensions>
          <ns3:TrackPointExtension>
            <ns3:hr>181</ns3:hr>
            <ns3:cad>80</ns3:cad>
          </ns3:TrackPointExtension>
        </extensions>
      </trkpt>
      <trkpt lat="52.07778238691389560699462890625" lon="1.2965476512908935546875">
        <ele>105.8000030517578125</ele>
        <time>2025-09-05T13:06:51.000Z</time>
        <extensions>
          <ns3:TrackPointExtension>
            <ns3:hr>181</ns3:hr>
            <ns3:cad>81</ns3:cad>
          </ns3:TrackPointExtension>
        </extensions>
      </trkpt>
      <trkpt lat="52.07777685485780239105224609375" lon="1.2966188974678516387939453125">
        <ele>104.59999847412109375</ele>
        <time>2025-09-05T13:06:53.000Z</time>
        <extensions>
          <ns3:TrackPointExtension>
            <ns3:hr>181</ns3:hr>
            <ns3:cad>81</ns3:cad>
          </ns3:TrackPointExtension>
        </extensions>
      </trkpt>
      <trkpt lat="52.07777651958167552947998046875" lon="1.29665418528020381927490234375">
        <ele>104</ele>
        <time>2025-09-05T13:06:54.000Z</time>
        <extensions>
          <ns3:TrackPointExtension>
            <ns3:hr>180</ns3:hr>
            <ns3:cad>81</ns3:cad>
          </ns3:TrackPointExtension>
        </extensions>
      </trkpt>
      <trkpt lat="52.0777740888297557830810546875" lon="1.296688131988048553466796875">
        <ele>103.40000152587890625</ele>
        <time>2025-09-05T13:06:55.000Z</time>
        <extensions>
          <ns3:TrackPointExtension>
            <ns3:hr>178</ns3:hr>
            <ns3:cad>80</ns3:cad>
          </ns3:TrackPointExtension>
        </extensions>
      </trkpt>
      <trkpt lat="52.0777724124491214752197265625" lon="1.296753175556659698486328125">
        <ele>102.1999969482421875</ele>
        <time>2025-09-05T13:06:57.000Z</time>
        <extensions>
          <ns3:TrackPointExtension>
            <ns3:hr>175</ns3:hr>
            <ns3:cad>81</ns3:cad>
          </ns3:TrackPointExtension>
        </extensions>
      </trkpt>
      <trkpt lat="52.07776277326047420501708984375" lon="1.29682349972426891326904296875">
        <ele>101.1999969482421875</ele>
        <time>2025-09-05T13:06:59.000Z</time>
        <extensions>
          <ns3:TrackPointExtension>
            <ns3:hr>172</ns3:hr>
            <ns3:cad>81</ns3:cad>
          </ns3:TrackPointExtension>
        </extensions>
      </trkpt>
      <trkpt lat="52.07774668000638484954833984375" lon="1.29689306952059268951416015625">
        <ele>100</ele>
        <time>2025-09-05T13:07:01.000Z</time>
        <extensions>
          <ns3:TrackPointExtension>
            <ns3:hr>168</ns3:hr>
            <ns3:cad>80</ns3:cad>
          </ns3:TrackPointExtension>
        </extensions>
      </trkpt>
      <trkpt lat="52.07774114795029163360595703125" lon="1.296930201351642608642578125">
        <ele>99.40000152587890625</ele>
        <time>2025-09-05T13:07:02.000Z</time>
        <extensions>
          <ns3:TrackPointExtension>
            <ns3:hr>172</ns3:hr>
            <ns3:cad>80</ns3:cad>
          </ns3:TrackPointExtension>
        </extensions>
      </trkpt>
      <trkpt lat="52.0777362026274204254150390625" lon="1.29696548916399478912353515625">
        <ele>99</ele>
        <time>2025-09-05T13:07:03.000Z</time>
        <extensions>
          <ns3:TrackPointExtension>
            <ns3:hr>171</ns3:hr>
            <ns3:cad>80</ns3:cad>
          </ns3:TrackPointExtension>
        </extensions>
      </trkpt>
      <trkpt lat="52.07772455178201198577880859375" lon="1.29703857935965061187744140625">
        <ele>97.8000030517578125</ele>
        <time>2025-09-05T13:07:05.000Z</time>
        <extensions>
          <ns3:TrackPointExtension>
            <ns3:hr>170</ns3:hr>
            <ns3:cad>80</ns3:cad>
          </ns3:TrackPointExtension>
        </extensions>
      </trkpt>
      <trkpt lat="52.07771784625947475433349609375" lon="1.297111250460147857666015625">
        <ele>96.8000030517578125</ele>
        <time>2025-09-05T13:07:07.000Z</time>
        <extensions>
          <ns3:TrackPointExtension>
            <ns3:hr>169</ns3:hr>
            <ns3:cad>79</ns3:cad>
          </ns3:TrackPointExtension>
        </extensions>
      </trkpt>
      <trkpt lat="52.07770795561373233795166015625" lon="1.2971835024654865264892578125">
        <ele>95.8000030517578125</ele>
        <time>2025-09-05T13:07:09.000Z</time>
        <extensions>
          <ns3:TrackPointExtension>
            <ns3:hr>169</ns3:hr>
            <ns3:cad>78</ns3:cad>
          </ns3:TrackPointExtension>
        </extensions>
      </trkpt>
      <trkpt lat="52.07770225591957569122314453125" lon="1.29721694625914096832275390625">
        <ele>95.1999969482421875</ele>
        <time>2025-09-05T13:07:10.000Z</time>
        <extensions>
          <ns3:TrackPointExtension>
            <ns3:hr>168</ns3:hr>
            <ns3:cad>79</ns3:cad>
          </ns3:TrackPointExtension>
        </extensions>
      </trkpt>
      <trkpt lat="52.0776963047683238983154296875" lon="1.2972488813102245330810546875">
        <ele>94.8000030517578125</ele>
        <time>2025-09-05T13:07:11.000Z</time>
        <extensions>
          <ns3:TrackPointExtension>
            <ns3:hr>167</ns3:hr>
            <ns3:cad>79</ns3:cad>
          </ns3:TrackPointExtension>
        </extensions>
      </trkpt>
      <trkpt lat="52.077692784368991851806640625" lon="1.297315098345279693603515625">
        <ele>93.8000030517578125</ele>
        <time>2025-09-05T13:07:13.000Z</time>
        <extensions>
          <ns3:TrackPointExtension>
            <ns3:hr>170</ns3:hr>
            <ns3:cad>80</ns3:cad>
          </ns3:TrackPointExtension>
        </extensions>
      </trkpt>
      <trkpt lat="52.0776964724063873291015625" lon="1.2973504699766635894775390625">
        <ele>93.1999969482421875</ele>
        <time>2025-09-05T13:07:14.000Z</time>
        <extensions>
          <ns3:TrackPointExtension>
            <ns3:hr>169</ns3:hr>
            <ns3:cad>80</ns3:cad>
          </ns3:TrackPointExtension>
        </extensions>
      </trkpt>
      <trkpt lat="52.07769756205379962921142578125" lon="1.297424733638763427734375">
        <ele>92.1999969482421875</ele>
        <time>2025-09-05T13:07:16.000Z</time>
        <extensions>
          <ns3:TrackPointExtension>
            <ns3:hr>172</ns3:hr>
            <ns3:cad>80</ns3:cad>
          </ns3:TrackPointExtension>
        </extensions>
      </trkpt>
      <trkpt lat="52.07770007662475109100341796875" lon="1.29746136255562305450439453125">
        <ele>91.8000030517578125</ele>
        <time>2025-09-05T13:07:17.000Z</time>
        <extensions>
          <ns3:TrackPointExtension>
            <ns3:hr>173</ns3:hr>
            <ns3:cad>80</ns3:cad>
          </ns3:TrackPointExtension>
        </extensions>
      </trkpt>
      <trkpt lat="52.07771994173526763916015625" lon="1.29756563343107700347900390625">
        <ele>90.40000152587890625</ele>
        <time>2025-09-05T13:07:20.000Z</time>
        <extensions>
          <ns3:TrackPointExtension>
            <ns3:hr>176</ns3:hr>
            <ns3:cad>80</ns3:cad>
          </ns3:TrackPointExtension>
        </extensions>
      </trkpt>
      <trkpt lat="52.077749781310558319091796875" lon="1.29767174832522869110107421875">
        <ele>89</ele>
        <time>2025-09-05T13:07:23.000Z</time>
        <extensions>
          <ns3:TrackPointExtension>
            <ns3:hr>176</ns3:hr>
            <ns3:cad>81</ns3:cad>
          </ns3:TrackPointExtension>
        </extensions>
      </trkpt>
      <trkpt lat="52.07776109687983989715576171875" lon="1.2977792881429195404052734375">
        <ele>87.59999847412109375</ele>
        <time>2025-09-05T13:07:26.000Z</time>
        <extensions>
          <ns3:TrackPointExtension>
            <ns3:hr>176</ns3:hr>
            <ns3:cad>80</ns3:cad>
          </ns3:TrackPointExtension>
        </extensions>
      </trkpt>
      <trkpt lat="52.07777618430554866790771484375" lon="1.29788137972354888916015625">
        <ele>86.40000152587890625</ele>
        <time>2025-09-05T13:07:29.000Z</time>
        <extensions>
          <ns3:TrackPointExtension>
            <ns3:hr>176</ns3:hr>
            <ns3:cad>81</ns3:cad>
          </ns3:TrackPointExtension>
        </extensions>
      </trkpt>
      <trkpt lat="52.07778691314160823822021484375" lon="1.297987662255764007568359375">
        <ele>85.1999969482421875</ele>
        <time>2025-09-05T13:07:32.000Z</time>
        <extensions>
          <ns3:TrackPointExtension>
            <ns3:hr>176</ns3:hr>
            <ns3:cad>80</ns3:cad>
          </ns3:TrackPointExtension>
        </extensions>
      </trkpt>
      <trkpt lat="52.077805101871490478515625" lon="1.2980555556714534759521484375">
        <ele>84.1999969482421875</ele>
        <time>2025-09-05T13:07:34.000Z</time>
        <extensions>
          <ns3:TrackPointExtension>
            <ns3:hr>176</ns3:hr>
            <ns3:cad>81</ns3:cad>
          </ns3:TrackPointExtension>
        </extensions>
      </trkpt>
      <trkpt lat="52.077818848192691802978515625" lon="1.298086903989315032958984375">
        <ele>83.8000030517578125</ele>
        <time>2025-09-05T13:07:35.000Z</time>
        <extensions>
          <ns3:TrackPointExtension>
            <ns3:hr>176</ns3:hr>
            <ns3:cad>81</ns3:cad>
          </ns3:TrackPointExtension>
        </extensions>
      </trkpt>
      <trkpt lat="52.07786201499402523040771484375" lon="1.2981869839131832122802734375">
        <ele>82.59999847412109375</ele>
        <time>2025-09-05T13:07:38.000Z</time>
        <extensions>
          <ns3:TrackPointExtension>
            <ns3:hr>176</ns3:hr>
            <ns3:cad>81</ns3:cad>
          </ns3:TrackPointExtension>
        </extensions>
      </trkpt>
      <trkpt lat="52.0778807066380977630615234375" lon="1.29828899167478084564208984375">
        <ele>81.59999847412109375</ele>
        <time>2025-09-05T13:07:41.000Z</time>
        <extensions>
          <ns3:TrackPointExtension>
            <ns3:hr>176</ns3:hr>
            <ns3:cad>81</ns3:cad>
          </ns3:TrackPointExtension>
        </extensions>
      </trkpt>
      <trkpt lat="52.07789218984544277191162109375" lon="1.2983854673802852630615234375">
        <ele>80.40000152587890625</ele>
        <time>2025-09-05T13:07:44.000Z</time>
        <extensions>
          <ns3:TrackPointExtension>
            <ns3:hr>176</ns3:hr>
            <ns3:cad>81</ns3:cad>
          </ns3:TrackPointExtension>
        </extensions>
      </trkpt>
      <trkpt lat="52.07791171967983245849609375" lon="1.2984733097255229949951171875">
        <ele>79.40000152587890625</ele>
        <time>2025-09-05T13:07:47.000Z</time>
        <extensions>
          <ns3:TrackPointExtension>
            <ns3:hr>177</ns3:hr>
            <ns3:cad>81</ns3:cad>
          </ns3:TrackPointExtension>
        </extensions>
      </trkpt>
      <trkpt lat="52.0779413916170597076416015625" lon="1.29856978543102741241455078125">
        <ele>78.1999969482421875</ele>
        <time>2025-09-05T13:07:50.000Z</time>
        <extensions>
          <ns3:TrackPointExtension>
            <ns3:hr>178</ns3:hr>
            <ns3:cad>80</ns3:cad>
          </ns3:TrackPointExtension>
        </extensions>
      </trkpt>
      <trkpt lat="52.07798388786613941192626953125" lon="1.29866869188845157623291015625">
        <ele>77.1999969482421875</ele>
        <time>2025-09-05T13:07:53.000Z</time>
        <extensions>
          <ns3:TrackPointExtension>
            <ns3:hr>179</ns3:hr>
            <ns3:cad>81</ns3:cad>
          </ns3:TrackPointExtension>
        </extensions>
      </trkpt>
      <trkpt lat="52.07799897529184818267822265625" lon="1.29873658530414104461669921875">
        <ele>76.59999847412109375</ele>
        <time>2025-09-05T13:07:55.000Z</time>
        <extensions>
          <ns3:TrackPointExtension>
            <ns3:hr>178</ns3:hr>
            <ns3:cad>81</ns3:cad>
          </ns3:TrackPointExtension>
        </extensions>
      </trkpt>
      <trkpt lat="52.07801205106079578399658203125" lon="1.29880347289144992828369140625">
        <ele>76</ele>
        <time>2025-09-05T13:07:57.000Z</time>
        <extensions>
          <ns3:TrackPointExtension>
            <ns3:hr>179</ns3:hr>
            <ns3:cad>81</ns3:cad>
          </ns3:TrackPointExtension>
        </extensions>
      </trkpt>
      <trkpt lat="52.07802764140069484710693359375" lon="1.29893682897090911865234375">
        <ele>74.8000030517578125</ele>
        <time>2025-09-05T13:08:01.000Z</time>
        <extensions>
          <ns3:TrackPointExtension>
            <ns3:hr>181</ns3:hr>
            <ns3:cad>80</ns3:cad>
          </ns3:TrackPointExtension>
        </extensions>
      </trkpt>
      <trkpt lat="52.0780335925519466400146484375" lon="1.2989718653261661529541015625">
        <ele>74.40000152587890625</ele>
        <time>2025-09-05T13:08:02.000Z</time>
        <extensions>
          <ns3:TrackPointExtension>
            <ns3:hr>181</ns3:hr>
            <ns3:cad>80</ns3:cad>
          </ns3:TrackPointExtension>
        </extensions>
      </trkpt>
      <trkpt lat="52.07803082652390003204345703125" lon="1.2990809977054595947265625">
        <ele>73.59999847412109375</ele>
        <time>2025-09-05T13:08:05.000Z</time>
        <extensions>
          <ns3:TrackPointExtension>
            <ns3:hr>182</ns3:hr>
            <ns3:cad>81</ns3:cad>
          </ns3:TrackPointExtension>
        </extensions>
      </trkpt>
      <trkpt lat="52.078046500682830810546875" lon="1.29918669350445270538330078125">
        <ele>72.8000030517578125</ele>
        <time>2025-09-05T13:08:08.000Z</time>
        <extensions>
          <ns3:TrackPointExtension>
            <ns3:hr>182</ns3:hr>
            <ns3:cad>81</ns3:cad>
          </ns3:TrackPointExtension>
        </extensions>
      </trkpt>
      <trkpt lat="52.0780510269105434417724609375" lon="1.29926313646137714385986328125">
        <ele>72.40000152587890625</ele>
        <time>2025-09-05T13:08:10.000Z</time>
        <extensions>
          <ns3:TrackPointExtension>
            <ns3:hr>183</ns3:hr>
            <ns3:cad>81</ns3:cad>
          </ns3:TrackPointExtension>
        </extensions>
      </trkpt>
      <trkpt lat="52.0780476741492748260498046875" lon="1.29943295381963253021240234375">
        <ele>73.1999969482421875</ele>
        <time>2025-09-05T13:08:15.000Z</time>
        <extensions>
          <ns3:TrackPointExtension>
            <ns3:hr>182</ns3:hr>
            <ns3:cad>81</ns3:cad>
          </ns3:TrackPointExtension>
        </extensions>
      </trkpt>
      <trkpt lat="52.078046165406703948974609375" lon="1.2994680739939212799072265625">
        <ele>73.59999847412109375</ele>
        <time>2025-09-05T13:08:16.000Z</time>
        <extensions>
          <ns3:TrackPointExtension>
            <ns3:hr>183</ns3:hr>
            <ns3:cad>81</ns3:cad>
          </ns3:TrackPointExtension>
        </extensions>
      </trkpt>
      <trkpt lat="52.07804054953157901763916015625" lon="1.29957326687872409820556640625">
        <ele>74.59999847412109375</ele>
        <time>2025-09-05T13:08:19.000Z</time>
        <extensions>
          <ns3:TrackPointExtension>
            <ns3:hr>183</ns3:hr>
            <ns3:cad>80</ns3:cad>
          </ns3:TrackPointExtension>
        </extensions>
      </trkpt>
      <trkpt lat="52.0780325867235660552978515625" lon="1.2996766157448291778564453125">
        <ele>76</ele>
        <time>2025-09-05T13:08:22.000Z</time>
        <extensions>
          <ns3:TrackPointExtension>
            <ns3:hr>183</ns3:hr>
            <ns3:cad>81</ns3:cad>
          </ns3:TrackPointExtension>
        </extensions>
      </trkpt>
      <trkpt lat="52.0780211873352527618408203125" lon="1.29975196905434131622314453125">
        <ele>77</ele>
        <time>2025-09-05T13:08:24.000Z</time>
        <extensions>
          <ns3:TrackPointExtension>
            <ns3:hr>183</ns3:hr>
            <ns3:cad>81</ns3:cad>
          </ns3:TrackPointExtension>
        </extensions>
      </trkpt>
      <trkpt lat="52.078015990555286407470703125" lon="1.2997877597808837890625">
        <ele>77.40000152587890625</ele>
        <time>2025-09-05T13:08:25.000Z</time>
        <extensions>
          <ns3:TrackPointExtension>
            <ns3:hr>183</ns3:hr>
            <ns3:cad>81</ns3:cad>
          </ns3:TrackPointExtension>
        </extensions>
      </trkpt>
      <trkpt lat="52.0779960416257381439208984375" lon="1.29986009560525417327880859375">
        <ele>78.40000152587890625</ele>
        <time>2025-09-05T13:08:27.000Z</time>
        <extensions>
          <ns3:TrackPointExtension>
            <ns3:hr>182</ns3:hr>
            <ns3:cad>81</ns3:cad>
          </ns3:TrackPointExtension>
        </extensions>
      </trkpt>
      <trkpt lat="52.0779776014387607574462890625" lon="1.29992262460291385650634765625">
        <ele>79.59999847412109375</ele>
        <time>2025-09-05T13:08:29.000Z</time>
        <extensions>
          <ns3:TrackPointExtension>
            <ns3:hr>182</ns3:hr>
            <ns3:cad>80</ns3:cad>
          </ns3:TrackPointExtension>
        </extensions>
      </trkpt>
      <trkpt lat="52.07795329391956329345703125" lon="1.29997258074581623077392578125">
        <ele>80.8000030517578125</ele>
        <time>2025-09-05T13:08:31.000Z</time>
        <extensions>
          <ns3:TrackPointExtension>
            <ns3:hr>182</ns3:hr>
            <ns3:cad>80</ns3:cad>
          </ns3:TrackPointExtension>
        </extensions>
      </trkpt>
      <trkpt lat="52.07793024368584156036376953125" lon="1.30000744946300983428955078125">
        <ele>81.8000030517578125</ele>
        <time>2025-09-05T13:08:33.000Z</time>
        <extensions>
          <ns3:TrackPointExtension>
            <ns3:hr>181</ns3:hr>
            <ns3:cad>80</ns3:cad>
          </ns3:TrackPointExtension>
        </extensions>
      </trkpt>
      <trkpt lat="52.07790367305278778076171875" lon="1.30002974532544612884521484375">
        <ele>83</ele>
        <time>2025-09-05T13:08:35.000Z</time>
        <extensions>
          <ns3:TrackPointExtension>
            <ns3:hr>181</ns3:hr>
            <ns3:cad>79</ns3:cad>
          </ns3:TrackPointExtension>
        </extensions>
      </trkpt>
      <trkpt lat="52.07787509076297283172607421875" lon="1.3000507839024066925048828125">
        <ele>84.1999969482421875</ele>
        <time>2025-09-05T13:08:37.000Z</time>
        <extensions>
          <ns3:TrackPointExtension>
            <ns3:hr>181</ns3:hr>
            <ns3:cad>79</ns3:cad>
          </ns3:TrackPointExtension>
        </extensions>
      </trkpt>
      <trkpt lat="52.0778600871562957763671875" lon="1.30006059072911739349365234375">
        <ele>84.8000030517578125</ele>
        <time>2025-09-05T13:08:38.000Z</time>
        <extensions>
          <ns3:TrackPointExtension>
            <ns3:hr>181</ns3:hr>
            <ns3:cad>80</ns3:cad>
          </ns3:TrackPointExtension>
        </extensions>
      </trkpt>
      <trkpt lat="52.0778475143015384674072265625" lon="1.30007165484130382537841796875">
        <ele>85.40000152587890625</ele>
        <time>2025-09-05T13:08:39.000Z</time>
        <extensions>
          <ns3:TrackPointExtension>
            <ns3:hr>181</ns3:hr>
            <ns3:cad>80</ns3:cad>
          </ns3:TrackPointExtension>
        </extensions>
      </trkpt>
      <trkpt lat="52.077827565371990203857421875" lon="1.30010535009205341339111328125">
        <ele>86.59999847412109375</ele>
        <time>2025-09-05T13:08:41.000Z</time>
        <extensions>
          <ns3:TrackPointExtension>
            <ns3:hr>180</ns3:hr>
            <ns3:cad>80</ns3:cad>
          </ns3:TrackPointExtension>
        </extensions>
      </trkpt>
      <trkpt lat="52.07780065946280956268310546875" lon="1.30018296651542186737060546875">
        <ele>87.8000030517578125</ele>
        <time>2025-09-05T13:08:43.000Z</time>
        <extensions>
          <ns3:TrackPointExtension>
            <ns3:hr>180</ns3:hr>
            <ns3:cad>80</ns3:cad>
          </ns3:TrackPointExtension>
        </extensions>
      </trkpt>
      <trkpt lat="52.0777918584644794464111328125" lon="1.3002182543277740478515625">
        <ele>88.40000152587890625</ele>
        <time>2025-09-05T13:08:44.000Z</time>
        <extensions>
          <ns3:TrackPointExtension>
            <ns3:hr>180</ns3:hr>
            <ns3:cad>80</ns3:cad>
          </ns3:TrackPointExtension>
        </extensions>
      </trkpt>
      <trkpt lat="52.0777809619903564453125" lon="1.30025505088269710540771484375">
        <ele>89</ele>
        <time>2025-09-05T13:08:45.000Z</time>
        <extensions>
          <ns3:TrackPointExtension>
            <ns3:hr>180</ns3:hr>
            <ns3:cad>80</ns3:cad>
          </ns3:TrackPointExtension>
        </extensions>
      </trkpt>
      <trkpt lat="52.07776444964110851287841796875" lon="1.3003330864012241363525390625">
        <ele>90.40000152587890625</ele>
        <time>2025-09-05T13:08:47.000Z</time>
        <extensions>
          <ns3:TrackPointExtension>
            <ns3:hr>179</ns3:hr>
            <ns3:cad>80</ns3:cad>
          </ns3:TrackPointExtension>
        </extensions>
      </trkpt>
      <trkpt lat="52.077745757997035980224609375" lon="1.30041070282459259033203125">
        <ele>91.59999847412109375</ele>
        <time>2025-09-05T13:08:49.000Z</time>
        <extensions>
          <ns3:TrackPointExtension>
            <ns3:hr>179</ns3:hr>
            <ns3:cad>79</ns3:cad>
          </ns3:TrackPointExtension>
        </extensions>
      </trkpt>
      <trkpt lat="52.07773645408451557159423828125" lon="1.30047666840255260467529296875">
        <ele>93</ele>
        <time>2025-09-05T13:08:51.000Z</time>
        <extensions>
          <ns3:TrackPointExtension>
            <ns3:hr>179</ns3:hr>
            <ns3:cad>80</ns3:cad>
          </ns3:TrackPointExtension>
        </extensions>
      </trkpt>
      <trkpt lat="52.0777382142841815948486328125" lon="1.30054472945630550384521484375">
        <ele>94.1999969482421875</ele>
        <time>2025-09-05T13:08:53.000Z</time>
        <extensions>
          <ns3:TrackPointExtension>
            <ns3:hr>179</ns3:hr>
            <ns3:cad>81</ns3:cad>
          </ns3:TrackPointExtension>
        </extensions>
      </trkpt>
      <trkpt lat="52.07773662172257900238037109375" lon="1.30061932839453220367431640625">
        <ele>95.59999847412109375</ele>
        <time>2025-09-05T13:08:55.000Z</time>
        <extensions>
          <ns3:TrackPointExtension>
            <ns3:hr>179</ns3:hr>
            <ns3:cad>81</ns3:cad>
          </ns3:TrackPointExtension>
        </extensions>
      </trkpt>
      <trkpt lat="52.077729664742946624755859375" lon="1.300694681704044342041015625">
        <ele>96.8000030517578125</ele>
        <time>2025-09-05T13:08:57.000Z</time>
        <extensions>
          <ns3:TrackPointExtension>
            <ns3:hr>180</ns3:hr>
            <ns3:cad>81</ns3:cad>
          </ns3:TrackPointExtension>
        </extensions>
      </trkpt>
      <trkpt lat="52.0777278207242488861083984375" lon="1.30076785571873188018798828125">
        <ele>98</ele>
        <time>2025-09-05T13:08:59.000Z</time>
        <extensions>
          <ns3:TrackPointExtension>
            <ns3:hr>180</ns3:hr>
            <ns3:cad>81</ns3:cad>
          </ns3:TrackPointExtension>
        </extensions>
      </trkpt>
      <trkpt lat="52.07772421650588512420654296875" lon="1.30083709023892879486083984375">
        <ele>99.1999969482421875</ele>
        <time>2025-09-05T13:09:01.000Z</time>
        <extensions>
          <ns3:TrackPointExtension>
            <ns3:hr>180</ns3:hr>
            <ns3:cad>80</ns3:cad>
          </ns3:TrackPointExtension>
        </extensions>
      </trkpt>
      <trkpt lat="52.07772237248718738555908203125" lon="1.30089844577014446258544921875">
        <ele>100.40000152587890625</ele>
        <time>2025-09-05T13:09:03.000Z</time>
        <extensions>
          <ns3:TrackPointExtension>
            <ns3:hr>179</ns3:hr>
            <ns3:cad>81</ns3:cad>
          </ns3:TrackPointExtension>
        </extensions>
      </trkpt>
      <trkpt lat="52.07772455178201198577880859375" lon="1.30096214823424816131591796875">
        <ele>99.40000152587890625</ele>
        <time>2025-09-05T13:09:05.000Z</time>
        <extensions>
          <ns3:TrackPointExtension>
            <ns3:hr>178</ns3:hr>
            <ns3:cad>81</ns3:cad>
          </ns3:TrackPointExtension>
        </extensions>
      </trkpt>
      <trkpt lat="52.07771969027817249298095703125" lon="1.3010291196405887603759765625">
        <ele>98.40000152587890625</ele>
        <time>2025-09-05T13:09:07.000Z</time>
        <extensions>
          <ns3:TrackPointExtension>
            <ns3:hr>177</ns3:hr>
            <ns3:cad>80</ns3:cad>
          </ns3:TrackPointExtension>
        </extensions>
      </trkpt>
      <trkpt lat="52.07772237248718738555908203125" lon="1.30110128782689571380615234375">
        <ele>97.1999969482421875</ele>
        <time>2025-09-05T13:09:09.000Z</time>
        <extensions>
          <ns3:TrackPointExtension>
            <ns3:hr>177</ns3:hr>
            <ns3:cad>81</ns3:cad>
          </ns3:TrackPointExtension>
        </extensions>
      </trkpt>
      <trkpt lat="52.07772337831556797027587890625" lon="1.30117320455610752105712890625">
        <ele>96.1999969482421875</ele>
        <time>2025-09-05T13:09:11.000Z</time>
        <extensions>
          <ns3:TrackPointExtension>
            <ns3:hr>177</ns3:hr>
            <ns3:cad>81</ns3:cad>
          </ns3:TrackPointExtension>
        </extensions>
      </trkpt>
      <trkpt lat="52.07773678936064243316650390625" lon="1.30123942159116268157958984375">
        <ele>95.1999969482421875</ele>
        <time>2025-09-05T13:09:13.000Z</time>
        <extensions>
          <ns3:TrackPointExtension>
            <ns3:hr>178</ns3:hr>
            <ns3:cad>81</ns3:cad>
          </ns3:TrackPointExtension>
        </extensions>
      </trkpt>
      <trkpt lat="52.0777474343776702880859375" lon="1.30126741714775562286376953125">
        <ele>94.8000030517578125</ele>
        <time>2025-09-05T13:09:14.000Z</time>
        <extensions>
          <ns3:TrackPointExtension>
            <ns3:hr>178</ns3:hr>
            <ns3:cad>81</ns3:cad>
          </ns3:TrackPointExtension>
        </extensions>
      </trkpt>
      <trkpt lat="52.07775615155696868896484375" lon="1.3012929819524288177490234375">
        <ele>94.1999969482421875</ele>
        <time>2025-09-05T13:09:15.000Z</time>
        <extensions>
          <ns3:TrackPointExtension>
            <ns3:hr>179</ns3:hr>
            <ns3:cad>81</ns3:cad>
          </ns3:TrackPointExtension>
        </extensions>
      </trkpt>
      <trkpt lat="52.0777767710387706756591796875" lon="1.301335394382476806640625">
        <ele>92.8000030517578125</ele>
        <time>2025-09-05T13:09:18.000Z</time>
        <extensions>
          <ns3:TrackPointExtension>
            <ns3:hr>179</ns3:hr>
            <ns3:cad>0</ns3:cad>
          </ns3:TrackPointExtension>
        </extensions>
      </trkpt>
      <trkpt lat="52.07781071774661540985107421875" lon="1.30134620703756809234619140625">
        <ele>91.8000030517578125</ele>
        <time>2025-09-05T13:09:20.000Z</time>
        <extensions>
          <ns3:TrackPointExtension>
            <ns3:hr>179</ns3:hr>
            <ns3:cad>0</ns3:cad>
          </ns3:TrackPointExtension>
        </extensions>
      </trkpt>
      <trkpt lat="52.07782027311623096466064453125" lon="1.30134754814207553863525390625">
        <ele>91.40000152587890625</ele>
        <time>2025-09-05T13:09:21.000Z</time>
        <extensions>
          <ns3:TrackPointExtension>
            <ns3:hr>179</ns3:hr>
            <ns3:cad>0</ns3:cad>
          </ns3:TrackPointExtension>
        </extensions>
      </trkpt>
      <trkpt lat="52.07782295532524585723876953125" lon="1.301348470151424407958984375">
        <ele>90.8000030517578125</ele>
        <time>2025-09-05T13:09:22.000Z</time>
        <extensions>
          <ns3:TrackPointExtension>
            <ns3:hr>176</ns3:hr>
            <ns3:cad>0</ns3:cad>
          </ns3:TrackPointExtension>
        </extensions>
      </trkpt>
      <trkpt lat="52.07783267833292484283447265625" lon="1.30136766470968723297119140625">
        <ele>90</ele>
        <time>2025-09-05T13:09:24.000Z</time>
        <extensions>
          <ns3:TrackPointExtension>
            <ns3:hr>176</ns3:hr>
            <ns3:cad>0</ns3:cad>
          </ns3:TrackPointExtension>
        </extensions>
      </trkpt>
      <trkpt lat="52.077843658626079559326171875" lon="1.301433630287647247314453125">
        <ele>88.59999847412109375</ele>
        <time>2025-09-05T13:09:27.000Z</time>
        <extensions>
          <ns3:TrackPointExtension>
            <ns3:hr>175</ns3:hr>
            <ns3:cad>0</ns3:cad>
          </ns3:TrackPointExtension>
        </extensions>
      </trkpt>
      <trkpt lat="52.0778538845479488372802734375" lon="1.301458775997161865234375">
        <ele>88.1999969482421875</ele>
        <time>2025-09-05T13:09:28.000Z</time>
        <extensions>
          <ns3:TrackPointExtension>
            <ns3:hr>175</ns3:hr>
            <ns3:cad>0</ns3:cad>
          </ns3:TrackPointExtension>
        </extensions>
      </trkpt>
      <trkpt lat="52.07787777297198772430419921875" lon="1.30151149816811084747314453125">
        <ele>87.1999969482421875</ele>
        <time>2025-09-05T13:09:30.000Z</time>
        <extensions>
          <ns3:TrackPointExtension>
            <ns3:hr>171</ns3:hr>
            <ns3:cad>77</ns3:cad>
          </ns3:TrackPointExtension>
        </extensions>
      </trkpt>
      <trkpt lat="52.07793879322707653045654296875" lon="1.301598586142063140869140625">
        <ele>86</ele>
        <time>2025-09-05T13:09:33.000Z</time>
        <extensions>
          <ns3:TrackPointExtension>
            <ns3:hr>170</ns3:hr>
            <ns3:cad>79</ns3:cad>
          </ns3:TrackPointExtension>
        </extensions>
      </trkpt>
      <trkpt lat="52.07795589230954647064208984375" lon="1.30162934772670269012451171875">
        <ele>85.59999847412109375</ele>
        <time>2025-09-05T13:09:34.000Z</time>
        <extensions>
          <ns3:TrackPointExtension>
            <ns3:hr>170</ns3:hr>
            <ns3:cad>79</ns3:cad>
          </ns3:TrackPointExtension>
        </extensions>
      </trkpt>
      <trkpt lat="52.0779843069612979888916015625" lon="1.30169757641851902008056640625">
        <ele>84.8000030517578125</ele>
        <time>2025-09-05T13:09:36.000Z</time>
        <extensions>
          <ns3:TrackPointExtension>
            <ns3:hr>168</ns3:hr>
            <ns3:cad>79</ns3:cad>
          </ns3:TrackPointExtension>
        </extensions>
      </trkpt>
      <trkpt lat="52.0780231989920139312744140625" lon="1.30179279483854770660400390625">
        <ele>83.59999847412109375</ele>
        <time>2025-09-05T13:09:39.000Z</time>
        <extensions>
          <ns3:TrackPointExtension>
            <ns3:hr>169</ns3:hr>
            <ns3:cad>80</ns3:cad>
          </ns3:TrackPointExtension>
        </extensions>
      </trkpt>
      <trkpt lat="52.07804909907281398773193359375" lon="1.30185683257877826690673828125">
        <ele>82.8000030517578125</ele>
        <time>2025-09-05T13:09:41.000Z</time>
        <extensions>
          <ns3:TrackPointExtension>
            <ns3:hr>173</ns3:hr>
            <ns3:cad>80</ns3:cad>
          </ns3:TrackPointExtension>
        </extensions>
      </trkpt>
      <trkpt lat="52.07805454730987548828125" lon="1.30189103074371814727783203125">
        <ele>82.40000152587890625</ele>
        <time>2025-09-05T13:09:42.000Z</time>
        <extensions>
          <ns3:TrackPointExtension>
            <ns3:hr>174</ns3:hr>
            <ns3:cad>80</ns3:cad>
          </ns3:TrackPointExtension>
        </extensions>
      </trkpt>
      <trkpt lat="52.07806519232690334320068359375" lon="1.30192237906157970428466796875">
        <ele>82</ele>
        <time>2025-09-05T13:09:43.000Z</time>
        <extensions>
          <ns3:TrackPointExtension>
            <ns3:hr>173</ns3:hr>
            <ns3:cad>80</ns3:cad>
          </ns3:TrackPointExtension>
        </extensions>
      </trkpt>
      <trkpt lat="52.07809251733124256134033203125" lon="1.30198658443987369537353515625">
        <ele>81.1999969482421875</ele>
        <time>2025-09-05T13:09:45.000Z</time>
        <extensions>
          <ns3:TrackPointExtension>
            <ns3:hr>174</ns3:hr>
            <ns3:cad>80</ns3:cad>
          </ns3:TrackPointExtension>
        </extensions>
      </trkpt>
      <trkpt lat="52.0781408809125423431396484375" lon="1.30208297632634639739990234375">
        <ele>80.1999969482421875</ele>
        <time>2025-09-05T13:09:48.000Z</time>
        <extensions>
          <ns3:TrackPointExtension>
            <ns3:hr>174</ns3:hr>
            <ns3:cad>80</ns3:cad>
          </ns3:TrackPointExtension>
        </extensions>
      </trkpt>
      <trkpt lat="52.078168205916881561279296875" lon="1.30214072763919830322265625">
        <ele>79.40000152587890625</ele>
        <time>2025-09-05T13:09:50.000Z</time>
        <extensions>
          <ns3:TrackPointExtension>
            <ns3:hr>173</ns3:hr>
            <ns3:cad>80</ns3:cad>
          </ns3:TrackPointExtension>
        </extensions>
      </trkpt>
      <trkpt lat="52.078171558678150177001953125" lon="1.30217048339545726776123046875">
        <ele>79</ele>
        <time>2025-09-05T13:09:51.000Z</time>
        <extensions>
          <ns3:TrackPointExtension>
            <ns3:hr>173</ns3:hr>
            <ns3:cad>81</ns3:cad>
          </ns3:TrackPointExtension>
        </extensions>
      </trkpt>
      <trkpt lat="52.0781945250928401947021484375" lon="1.3022428192198276519775390625">
        <ele>78</ele>
        <time>2025-09-05T13:09:54.000Z</time>
        <extensions>
          <ns3:TrackPointExtension>
            <ns3:hr>175</ns3:hr>
            <ns3:cad>81</ns3:cad>
          </ns3:TrackPointExtension>
        </extensions>
      </trkpt>
      <trkpt lat="52.0782257057726383209228515625" lon="1.30230258218944072723388671875">
        <ele>77</ele>
        <time>2025-09-05T13:09:57.000Z</time>
        <extensions>
          <ns3:TrackPointExtension>
            <ns3:hr>175</ns3:hr>
            <ns3:cad>80</ns3:cad>
          </ns3:TrackPointExtension>
        </extensions>
      </trkpt>
      <trkpt lat="52.078277170658111572265625" lon="1.30241909064352512359619140625">
        <ele>75.59999847412109375</ele>
        <time>2025-09-05T13:10:01.000Z</time>
        <extensions>
          <ns3:TrackPointExtension>
            <ns3:hr>176</ns3:hr>
            <ns3:cad>81</ns3:cad>
          </ns3:TrackPointExtension>
        </extensions>
      </trkpt>
      <trkpt lat="52.0782853849232196807861328125" lon="1.30249268375337123870849609375">
        <ele>75</ele>
        <time>2025-09-05T13:10:03.000Z</time>
        <extensions>
          <ns3:TrackPointExtension>
            <ns3:hr>178</ns3:hr>
            <ns3:cad>81</ns3:cad>
          </ns3:TrackPointExtension>
        </extensions>
      </trkpt>
      <trkpt lat="52.0782941021025180816650390625" lon="1.302558816969394683837890625">
        <ele>74.40000152587890625</ele>
        <time>2025-09-05T13:10:05.000Z</time>
        <extensions>
          <ns3:TrackPointExtension>
            <ns3:hr>179</ns3:hr>
            <ns3:cad>80</ns3:cad>
          </ns3:TrackPointExtension>
        </extensions>
      </trkpt>
      <trkpt lat="52.078275494277477264404296875" lon="1.3027046620845794677734375">
        <ele>73.1999969482421875</ele>
        <time>2025-09-05T13:10:09.000Z</time>
        <extensions>
          <ns3:TrackPointExtension>
            <ns3:hr>179</ns3:hr>
            <ns3:cad>80</ns3:cad>
          </ns3:TrackPointExtension>
        </extensions>
      </trkpt>
      <trkpt lat="52.07823232747614383697509765625" lon="1.30284757353365421295166015625">
        <ele>72</ele>
        <time>2025-09-05T13:10:13.000Z</time>
        <extensions>
          <ns3:TrackPointExtension>
            <ns3:hr>179</ns3:hr>
            <ns3:cad>81</ns3:cad>
          </ns3:TrackPointExtension>
        </extensions>
      </trkpt>
      <trkpt lat="52.07821086980402469635009765625" lon="1.30298352800309658050537109375">
        <ele>71</ele>
        <time>2025-09-05T13:10:17.000Z</time>
        <extensions>
          <ns3:TrackPointExtension>
            <ns3:hr>180</ns3:hr>
            <ns3:cad>81</ns3:cad>
          </ns3:TrackPointExtension>
        </extensions>
      </trkpt>
      <trkpt lat="52.07817533053457736968994140625" lon="1.30312786437571048736572265625">
        <ele>70</ele>
        <time>2025-09-05T13:10:21.000Z</time>
        <extensions>
          <ns3:TrackPointExtension>
            <ns3:hr>177</ns3:hr>
            <ns3:cad>81</ns3:cad>
          </ns3:TrackPointExtension>
        </extensions>
      </trkpt>
      <trkpt lat="52.07816292531788349151611328125" lon="1.30319877527654170989990234375">
        <ele>69.40000152587890625</ele>
        <time>2025-09-05T13:10:23.000Z</time>
        <extensions>
          <ns3:TrackPointExtension>
            <ns3:hr>176</ns3:hr>
            <ns3:cad>80</ns3:cad>
          </ns3:TrackPointExtension>
        </extensions>
      </trkpt>
      <trkpt lat="52.0781472511589527130126953125" lon="1.30327588878571987152099609375">
        <ele>68.8000030517578125</ele>
        <time>2025-09-05T13:10:25.000Z</time>
        <extensions>
          <ns3:TrackPointExtension>
            <ns3:hr>176</ns3:hr>
            <ns3:cad>81</ns3:cad>
          </ns3:TrackPointExtension>
        </extensions>
      </trkpt>
      <trkpt lat="52.07814482040703296661376953125" lon="1.303394325077533721923828125">
        <ele>67.8000030517578125</ele>
        <time>2025-09-05T13:10:29.000Z</time>
        <extensions>
          <ns3:TrackPointExtension>
            <ns3:hr>176</ns3:hr>
            <ns3:cad>81</ns3:cad>
          </ns3:TrackPointExtension>
        </extensions>
      </trkpt>
      <trkpt lat="52.0781552977859973907470703125" lon="1.30341921932995319366455078125">
        <ele>67.59999847412109375</ele>
        <time>2025-09-05T13:10:30.000Z</time>
        <extensions>
          <ns3:TrackPointExtension>
            <ns3:hr>177</ns3:hr>
            <ns3:cad>81</ns3:cad>
          </ns3:TrackPointExtension>
        </extensions>
      </trkpt>
      <trkpt lat="52.07824540324509143829345703125" lon="1.30353438667953014373779296875">
        <ele>66.40000152587890625</ele>
        <time>2025-09-05T13:10:35.000Z</time>
        <extensions>
          <ns3:TrackPointExtension>
            <ns3:hr>174</ns3:hr>
            <ns3:cad>81</ns3:cad>
          </ns3:TrackPointExtension>
        </extensions>
      </trkpt>
      <trkpt lat="52.07828228361904621124267578125" lon="1.303700767457485198974609375">
        <ele>65.40000152587890625</ele>
        <time>2025-09-05T13:10:40.000Z</time>
        <extensions>
          <ns3:TrackPointExtension>
            <ns3:hr>175</ns3:hr>
            <ns3:cad>81</ns3:cad>
          </ns3:TrackPointExtension>
        </extensions>
      </trkpt>
      <trkpt lat="52.07828588783740997314453125" lon="1.3037311099469661712646484375">
        <ele>65.1999969482421875</ele>
        <time>2025-09-05T13:10:41.000Z</time>
        <extensions>
          <ns3:TrackPointExtension>
            <ns3:hr>177</ns3:hr>
            <ns3:cad>81</ns3:cad>
          </ns3:TrackPointExtension>
        </extensions>
      </trkpt>
      <trkpt lat="52.078286223113536834716796875" lon="1.30386530421674251556396484375">
        <ele>64.1999969482421875</ele>
        <time>2025-09-05T13:10:45.000Z</time>
        <extensions>
          <ns3:TrackPointExtension>
            <ns3:hr>178</ns3:hr>
            <ns3:cad>80</ns3:cad>
          </ns3:TrackPointExtension>
        </extensions>
      </trkpt>
      <trkpt lat="52.07827339880168437957763671875" lon="1.3039661385118961334228515625">
        <ele>63.59999847412109375</ele>
        <time>2025-09-05T13:10:48.000Z</time>
        <extensions>
          <ns3:TrackPointExtension>
            <ns3:hr>178</ns3:hr>
            <ns3:cad>79</ns3:cad>
          </ns3:TrackPointExtension>
        </extensions>
      </trkpt>
      <trkpt lat="52.078258730471134185791015625" lon="1.3040362112224102020263671875">
        <ele>63.200000762939453125</ele>
        <time>2025-09-05T13:10:50.000Z</time>
        <extensions>
          <ns3:TrackPointExtension>
            <ns3:hr>178</ns3:hr>
            <ns3:cad>80</ns3:cad>
          </ns3:TrackPointExtension>
        </extensions>
      </trkpt>
      <trkpt lat="52.07823350094258785247802734375" lon="1.30417040549218654632568359375">
        <ele>62.40000152587890625</ele>
        <time>2025-09-05T13:10:54.000Z</time>
        <extensions>
          <ns3:TrackPointExtension>
            <ns3:hr>177</ns3:hr>
            <ns3:cad>81</ns3:cad>
          </ns3:TrackPointExtension>
        </extensions>
      </trkpt>
      <trkpt lat="52.078221179544925689697265625" lon="1.3042377121746540069580078125">
        <ele>62</ele>
        <time>2025-09-05T13:10:56.000Z</time>
        <extensions>
          <ns3:TrackPointExtension>
            <ns3:hr>177</ns3:hr>
            <ns3:cad>80</ns3:cad>
          </ns3:TrackPointExtension>
        </extensions>
      </trkpt>
      <trkpt lat="52.07819603383541107177734375" lon="1.30442756228148937225341796875">
        <ele>61</ele>
        <time>2025-09-05T13:11:02.000Z</time>
        <extensions>
          <ns3:TrackPointExtension>
            <ns3:hr>180</ns3:hr>
            <ns3:cad>80</ns3:cad>
          </ns3:TrackPointExtension>
        </extensions>
      </trkpt>
      <trkpt lat="52.07821170799434185028076171875" lon="1.3044915162026882171630859375">
        <ele>60.59999847412109375</ele>
        <time>2025-09-05T13:11:04.000Z</time>
        <extensions>
          <ns3:TrackPointExtension>
            <ns3:hr>183</ns3:hr>
            <ns3:cad>81</ns3:cad>
          </ns3:TrackPointExtension>
        </extensions>
      </trkpt>
      <trkpt lat="52.07822428084909915924072265625" lon="1.30459067411720752716064453125">
        <ele>60.200000762939453125</ele>
        <time>2025-09-05T13:11:07.000Z</time>
        <extensions>
          <ns3:TrackPointExtension>
            <ns3:hr>186</ns3:hr>
            <ns3:cad>80</ns3:cad>
          </ns3:TrackPointExtension>
        </extensions>
      </trkpt>
      <trkpt lat="52.07822193391621112823486328125" lon="1.30462084896862506866455078125">
        <ele>60</ele>
        <time>2025-09-05T13:11:08.000Z</time>
        <extensions>
          <ns3:TrackPointExtension>
            <ns3:hr>186</ns3:hr>
            <ns3:cad>80</ns3:cad>
          </ns3:TrackPointExtension>
        </extensions>
      </trkpt>
      <trkpt lat="52.0782096125185489654541015625" lon="1.3047862239181995391845703125">
        <ele>59.200000762939453125</ele>
        <time>2025-09-05T13:11:13.000Z</time>
        <extensions>
          <ns3:TrackPointExtension>
            <ns3:hr>183</ns3:hr>
            <ns3:cad>81</ns3:cad>
          </ns3:TrackPointExtension>
        </extensions>
      </trkpt>
      <trkpt lat="52.07821673713624477386474609375" lon="1.30485654808580875396728515625">
        <ele>58.799999237060546875</ele>
        <time>2025-09-05T13:11:15.000Z</time>
        <extensions>
          <ns3:TrackPointExtension>
            <ns3:hr>186</ns3:hr>
            <ns3:cad>80</ns3:cad>
          </ns3:TrackPointExtension>
        </extensions>
      </trkpt>
      <trkpt lat="52.078228555619716644287109375" lon="1.305085457861423492431640625">
        <ele>57.799999237060546875</ele>
        <time>2025-09-05T13:11:22.000Z</time>
        <extensions>
          <ns3:TrackPointExtension>
            <ns3:hr>184</ns3:hr>
            <ns3:cad>80</ns3:cad>
          </ns3:TrackPointExtension>
        </extensions>
      </trkpt>
      <trkpt lat="52.07826652564108371734619140625" lon="1.305357702076435089111328125">
        <ele>56.799999237060546875</ele>
        <time>2025-09-05T13:11:30.000Z</time>
        <extensions>
          <ns3:TrackPointExtension>
            <ns3:hr>183</ns3:hr>
            <ns3:cad>80</ns3:cad>
          </ns3:TrackPointExtension>
        </extensions>
      </trkpt>
      <trkpt lat="52.0782669447362422943115234375" lon="1.30539215169847011566162109375">
        <ele>56.59999847412109375</ele>
        <time>2025-09-05T13:11:31.000Z</time>
        <extensions>
          <ns3:TrackPointExtension>
            <ns3:hr>183</ns3:hr>
            <ns3:cad>80</ns3:cad>
          </ns3:TrackPointExtension>
        </extensions>
      </trkpt>
      <trkpt lat="52.07826308906078338623046875" lon="1.30564059130847454071044921875">
        <ele>55.59999847412109375</ele>
        <time>2025-09-05T13:11:38.000Z</time>
        <extensions>
          <ns3:TrackPointExtension>
            <ns3:hr>183</ns3:hr>
            <ns3:cad>80</ns3:cad>
          </ns3:TrackPointExtension>
        </extensions>
      </trkpt>
      <trkpt lat="52.07825906574726104736328125" lon="1.305678896605968475341796875">
        <ele>55.59999847412109375</ele>
        <time>2025-09-05T13:11:39.000Z</time>
        <extensions>
          <ns3:TrackPointExtension>
            <ns3:hr>181</ns3:hr>
            <ns3:cad>79</ns3:cad>
          </ns3:TrackPointExtension>
        </extensions>
      </trkpt>
      <trkpt lat="52.07827440463006496429443359375" lon="1.30593110807240009307861328125">
        <ele>54.59999847412109375</ele>
        <time>2025-09-05T13:11:46.000Z</time>
        <extensions>
          <ns3:TrackPointExtension>
            <ns3:hr>182</ns3:hr>
            <ns3:cad>81</ns3:cad>
          </ns3:TrackPointExtension>
        </extensions>
      </trkpt>
      <trkpt lat="52.078276164829730987548828125" lon="1.3059710897505283355712890625">
        <ele>54.59999847412109375</ele>
        <time>2025-09-05T13:11:47.000Z</time>
        <extensions>
          <ns3:TrackPointExtension>
            <ns3:hr>183</ns3:hr>
            <ns3:cad>81</ns3:cad>
          </ns3:TrackPointExtension>
        </extensions>
      </trkpt>
      <trkpt lat="52.07827172242105007171630859375" lon="1.3062527216970920562744140625">
        <ele>53.59999847412109375</ele>
        <time>2025-09-05T13:11:55.000Z</time>
        <extensions>
          <ns3:TrackPointExtension>
            <ns3:hr>179</ns3:hr>
            <ns3:cad>81</ns3:cad>
          </ns3:TrackPointExtension>
        </extensions>
      </trkpt>
      <trkpt lat="52.07828630693256855010986328125" lon="1.3065112195909023284912109375">
        <ele>52.59999847412109375</ele>
        <time>2025-09-05T13:12:03.000Z</time>
        <extensions>
          <ns3:TrackPointExtension>
            <ns3:hr>178</ns3:hr>
            <ns3:cad>80</ns3:cad>
          </ns3:TrackPointExtension>
        </extensions>
      </trkpt>
      <trkpt lat="52.0782863907516002655029296875" lon="1.30654466338455677032470703125">
        <ele>52.59999847412109375</ele>
        <time>2025-09-05T13:12:04.000Z</time>
        <extensions>
          <ns3:TrackPointExtension>
            <ns3:hr>178</ns3:hr>
            <ns3:cad>80</ns3:cad>
          </ns3:TrackPointExtension>
        </extensions>
      </trkpt>
      <trkpt lat="52.07827650010585784912109375" lon="1.30674331448972225189208984375">
        <ele>52</ele>
        <time>2025-09-05T13:12:10.000Z</time>
        <extensions>
          <ns3:TrackPointExtension>
            <ns3:hr>179</ns3:hr>
            <ns3:cad>80</ns3:cad>
          </ns3:TrackPointExtension>
        </extensions>
      </trkpt>
      <trkpt lat="52.07830407656729221343994140625" lon="1.3068964518606662750244140625">
        <ele>51.59999847412109375</ele>
        <time>2025-09-05T13:12:14.000Z</time>
        <extensions>
          <ns3:TrackPointExtension>
            <ns3:hr>179</ns3:hr>
            <ns3:cad>80</ns3:cad>
          </ns3:TrackPointExtension>
        </extensions>
      </trkpt>
      <trkpt lat="52.07831966690719127655029296875" lon="1.30696761421859264373779296875">
        <ele>51.40000152587890625</ele>
        <time>2025-09-05T13:12:16.000Z</time>
        <extensions>
          <ns3:TrackPointExtension>
            <ns3:hr>178</ns3:hr>
            <ns3:cad>80</ns3:cad>
          </ns3:TrackPointExtension>
        </extensions>
      </trkpt>
      <trkpt lat="52.0783616602420806884765625" lon="1.30721504800021648406982421875">
        <ele>50.59999847412109375</ele>
        <time>2025-09-05T13:12:24.000Z</time>
        <extensions>
          <ns3:TrackPointExtension>
            <ns3:hr>176</ns3:hr>
            <ns3:cad>81</ns3:cad>
          </ns3:TrackPointExtension>
        </extensions>
      </trkpt>
      <trkpt lat="52.07836057059466838836669921875" lon="1.30724471993744373321533203125">
        <ele>50.40000152587890625</ele>
        <time>2025-09-05T13:12:25.000Z</time>
        <extensions>
          <ns3:TrackPointExtension>
            <ns3:hr>176</ns3:hr>
            <ns3:cad>81</ns3:cad>
          </ns3:TrackPointExtension>
        </extensions>
      </trkpt>
      <trkpt lat="52.0783869735896587371826171875" lon="1.30740447901189327239990234375">
        <ele>50</ele>
        <time>2025-09-05T13:12:31.000Z</time>
        <extensions>
          <ns3:TrackPointExtension>
            <ns3:hr>175</ns3:hr>
            <ns3:cad>81</ns3:cad>
          </ns3:TrackPointExtension>
        </extensions>
      </trkpt>
      <trkpt lat="52.07849065773189067840576171875" lon="1.30761721171438694000244140625">
        <ele>49.40000152587890625</ele>
        <time>2025-09-05T13:12:37.000Z</time>
        <extensions>
          <ns3:TrackPointExtension>
            <ns3:hr>174</ns3:hr>
            <ns3:cad>81</ns3:cad>
          </ns3:TrackPointExtension>
        </extensions>
      </trkpt>
      <trkpt lat="52.078494764864444732666015625" lon="1.30765358917415142059326171875">
        <ele>49.40000152587890625</ele>
        <time>2025-09-05T13:12:38.000Z</time>
        <extensions>
          <ns3:TrackPointExtension>
            <ns3:hr>174</ns3:hr>
            <ns3:cad>81</ns3:cad>
          </ns3:TrackPointExtension>
        </extensions>
      </trkpt>
      <trkpt lat="52.078542374074459075927734375" lon="1.30782977677881717681884765625">
        <ele>49</ele>
        <time>2025-09-05T13:12:43.000Z</time>
        <extensions>
          <ns3:TrackPointExtension>
            <ns3:hr>174</ns3:hr>
            <ns3:cad>81</ns3:cad>
          </ns3:TrackPointExtension>
        </extensions>
      </trkpt>
      <trkpt lat="52.0785968564450740814208984375" lon="1.3080491311848163604736328125">
        <ele>48.59999847412109375</ele>
        <time>2025-09-05T13:12:50.000Z</time>
        <extensions>
          <ns3:TrackPointExtension>
            <ns3:hr>174</ns3:hr>
            <ns3:cad>81</ns3:cad>
          </ns3:TrackPointExtension>
        </extensions>
      </trkpt>
      <trkpt lat="52.07859006710350513458251953125" lon="1.30815424025058746337890625">
        <ele>48.40000152587890625</ele>
        <time>2025-09-05T13:12:53.000Z</time>
        <extensions>
          <ns3:TrackPointExtension>
            <ns3:hr>174</ns3:hr>
            <ns3:cad>80</ns3:cad>
          </ns3:TrackPointExtension>
        </extensions>
      </trkpt>
      <trkpt lat="52.07859031856060028076171875" lon="1.30828927271068096160888671875">
        <ele>48</ele>
        <time>2025-09-05T13:12:57.000Z</time>
        <extensions>
          <ns3:TrackPointExtension>
            <ns3:hr>175</ns3:hr>
            <ns3:cad>79</ns3:cad>
          </ns3:TrackPointExtension>
        </extensions>
      </trkpt>
      <trkpt lat="52.07858839072287082672119140625" lon="1.308555901050567626953125">
        <ele>47.59999847412109375</ele>
        <time>2025-09-05T13:13:05.000Z</time>
        <extensions>
          <ns3:TrackPointExtension>
            <ns3:hr>176</ns3:hr>
            <ns3:cad>80</ns3:cad>
          </ns3:TrackPointExtension>
        </extensions>
      </trkpt>
      <trkpt lat="52.0785817690193653106689453125" lon="1.3086908496916294097900390625">
        <ele>47.200000762939453125</ele>
        <time>2025-09-05T13:13:09.000Z</time>
        <extensions>
          <ns3:TrackPointExtension>
            <ns3:hr>177</ns3:hr>
            <ns3:cad>80</ns3:cad>
          </ns3:TrackPointExtension>
        </extensions>
      </trkpt>
      <trkpt lat="52.07859995774924755096435546875" lon="1.30882923491299152374267578125">
        <ele>47</ele>
        <time>2025-09-05T13:13:13.000Z</time>
        <extensions>
          <ns3:TrackPointExtension>
            <ns3:hr>177</ns3:hr>
            <ns3:cad>81</ns3:cad>
          </ns3:TrackPointExtension>
        </extensions>
      </trkpt>
      <trkpt lat="52.07861990667879581451416015625" lon="1.3090777583420276641845703125">
        <ele>46.59999847412109375</ele>
        <time>2025-09-05T13:13:20.000Z</time>
        <extensions>
          <ns3:TrackPointExtension>
            <ns3:hr>179</ns3:hr>
            <ns3:cad>81</ns3:cad>
          </ns3:TrackPointExtension>
        </extensions>
      </trkpt>
      <trkpt lat="52.07862728275358676910400390625" lon="1.3091754913330078125">
        <ele>46.40000152587890625</ele>
        <time>2025-09-05T13:13:23.000Z</time>
        <extensions>
          <ns3:TrackPointExtension>
            <ns3:hr>176</ns3:hr>
            <ns3:cad>81</ns3:cad>
          </ns3:TrackPointExtension>
        </extensions>
      </trkpt>
      <trkpt lat="52.07860163412988185882568359375" lon="1.309314630925655364990234375">
        <ele>46.200000762939453125</ele>
        <time>2025-09-05T13:13:27.000Z</time>
        <extensions>
          <ns3:TrackPointExtension>
            <ns3:hr>176</ns3:hr>
            <ns3:cad>80</ns3:cad>
          </ns3:TrackPointExtension>
        </extensions>
      </trkpt>
      <trkpt lat="52.07856215536594390869140625" lon="1.3094584643840789794921875">
        <ele>46</ele>
        <time>2025-09-05T13:13:31.000Z</time>
        <extensions>
          <ns3:TrackPointExtension>
            <ns3:hr>179</ns3:hr>
            <ns3:cad>80</ns3:cad>
          </ns3:TrackPointExtension>
        </extensions>
      </trkpt>
      <trkpt lat="52.0785579644143581390380859375" lon="1.30953423678874969482421875">
        <ele>46</ele>
        <time>2025-09-05T13:13:33.000Z</time>
        <extensions>
          <ns3:TrackPointExtension>
            <ns3:hr>183</ns3:hr>
            <ns3:cad>80</ns3:cad>
          </ns3:TrackPointExtension>
        </extensions>
      </trkpt>
      <trkpt lat="52.078551761806011199951171875" lon="1.30956902168691158294677734375">
        <ele>45.799999237060546875</ele>
        <time>2025-09-05T13:13:34.000Z</time>
        <extensions>
          <ns3:TrackPointExtension>
            <ns3:hr>184</ns3:hr>
            <ns3:cad>81</ns3:cad>
          </ns3:TrackPointExtension>
        </extensions>
      </trkpt>
      <trkpt lat="52.07854229025542736053466796875" lon="1.30979147739708423614501953125">
        <ele>45.59999847412109375</ele>
        <time>2025-09-05T13:13:40.000Z</time>
        <extensions>
          <ns3:TrackPointExtension>
            <ns3:hr>186</ns3:hr>
            <ns3:cad>81</ns3:cad>
          </ns3:TrackPointExtension>
        </extensions>
      </trkpt>
      <trkpt lat="52.078510858118534088134765625" lon="1.310018710792064666748046875">
        <ele>45.200000762939453125</ele>
        <time>2025-09-05T13:13:47.000Z</time>
        <extensions>
          <ns3:TrackPointExtension>
            <ns3:hr>185</ns3:hr>
            <ns3:cad>80</ns3:cad>
          </ns3:TrackPointExtension>
        </extensions>
      </trkpt>
      <trkpt lat="52.07850490696728229522705078125" lon="1.31005248986184597015380859375">
        <ele>45.200000762939453125</ele>
        <time>2025-09-05T13:13:48.000Z</time>
        <extensions>
          <ns3:TrackPointExtension>
            <ns3:hr>184</ns3:hr>
            <ns3:cad>80</ns3:cad>
          </ns3:TrackPointExtension>
        </extensions>
      </trkpt>
      <trkpt lat="52.0785199105739593505859375" lon="1.31028030999004840850830078125">
        <ele>45</ele>
        <time>2025-09-05T13:13:55.000Z</time>
        <extensions>
          <ns3:TrackPointExtension>
            <ns3:hr>181</ns3:hr>
            <ns3:cad>81</ns3:cad>
          </ns3:TrackPointExtension>
        </extensions>
      </trkpt>
      <trkpt lat="52.07855142652988433837890625" lon="1.3104093074798583984375">
        <ele>44.59999847412109375</ele>
        <time>2025-09-05T13:14:00.000Z</time>
        <extensions>
          <ns3:TrackPointExtension>
            <ns3:hr>184</ns3:hr>
            <ns3:cad>80</ns3:cad>
          </ns3:TrackPointExtension>
        </extensions>
      </trkpt>
      <trkpt lat="52.07860171794891357421875" lon="1.31049186922609806060791015625">
        <ele>44.59999847412109375</ele>
        <time>2025-09-05T13:14:04.000Z</time>
        <extensions>
          <ns3:TrackPointExtension>
            <ns3:hr>181</ns3:hr>
            <ns3:cad>80</ns3:cad>
          </ns3:TrackPointExtension>
        </extensions>
      </trkpt>
      <trkpt lat="52.07861638627946376800537109375" lon="1.31064601242542266845703125">
        <ele>44.200000762939453125</ele>
        <time>2025-09-05T13:14:11.000Z</time>
        <extensions>
          <ns3:TrackPointExtension>
            <ns3:hr>178</ns3:hr>
            <ns3:cad>59</ns3:cad>
          </ns3:TrackPointExtension>
        </extensions>
      </trkpt>
      <trkpt lat="52.078612782061100006103515625" lon="1.31067392416298389434814453125">
        <ele>44.200000762939453125</ele>
        <time>2025-09-05T13:14:12.000Z</time>
        <extensions>
          <ns3:TrackPointExtension>
            <ns3:hr>178</ns3:hr>
            <ns3:cad>58</ns3:cad>
          </ns3:TrackPointExtension>
        </extensions>
      </trkpt>
      <trkpt lat="52.07861923612654209136962890625" lon="1.31071365438401699066162109375">
        <ele>44.200000762939453125</ele>
        <time>2025-09-05T13:14:14.000Z</time>
        <extensions>
          <ns3:TrackPointExtension>
            <ns3:hr>177</ns3:hr>
            <ns3:cad>58</ns3:cad>
          </ns3:TrackPointExtension>
        </extensions>
      </trkpt>
      <trkpt lat="52.078635580837726593017578125" lon="1.31081423722207546234130859375">
        <ele>44</ele>
        <time>2025-09-05T13:14:18.000Z</time>
        <extensions>
          <ns3:TrackPointExtension>
            <ns3:hr>173</ns3:hr>
            <ns3:cad>57</ns3:cad>
          </ns3:TrackPointExtension>
        </extensions>
      </trkpt>
      <trkpt lat="52.0786401070654392242431640625" lon="1.31086871959269046783447265625">
        <ele>44</ele>
        <time>2025-09-05T13:14:20.000Z</time>
        <extensions>
          <ns3:TrackPointExtension>
            <ns3:hr>172</ns3:hr>
            <ns3:cad>57</ns3:cad>
          </ns3:TrackPointExtension>
        </extensions>
      </trkpt>
      <trkpt lat="52.07863549701869487762451171875" lon="1.3108934462070465087890625">
        <ele>43.799999237060546875</ele>
        <time>2025-09-05T13:14:21.000Z</time>
        <extensions>
          <ns3:TrackPointExtension>
            <ns3:hr>176</ns3:hr>
            <ns3:cad>0</ns3:cad>
          </ns3:TrackPointExtension>
        </extensions>
      </trkpt>
      <trkpt lat="52.078597359359264373779296875" lon="1.31100752390921115875244140625">
        <ele>43.799999237060546875</ele>
        <time>2025-09-05T13:14:26.000Z</time>
        <extensions>
          <ns3:TrackPointExtension>
            <ns3:hr>174</ns3:hr>
            <ns3:cad>0</ns3:cad>
          </ns3:TrackPointExtension>
        </extensions>
      </trkpt>
      <trkpt lat="52.07856877706944942474365234375" lon="1.311192847788333892822265625">
        <ele>43.40000152587890625</ele>
        <time>2025-09-05T13:14:32.000Z</time>
        <extensions>
          <ns3:TrackPointExtension>
            <ns3:hr>171</ns3:hr>
            <ns3:cad>80</ns3:cad>
          </ns3:TrackPointExtension>
        </extensions>
      </trkpt>
      <trkpt lat="52.07855888642370700836181640625" lon="1.3112295605242252349853515625">
        <ele>43.40000152587890625</ele>
        <time>2025-09-05T13:14:33.000Z</time>
        <extensions>
          <ns3:TrackPointExtension>
            <ns3:hr>169</ns3:hr>
            <ns3:cad>80</ns3:cad>
          </ns3:TrackPointExtension>
        </extensions>
      </trkpt>
      <trkpt lat="52.0785013027489185333251953125" lon="1.31138806231319904327392578125">
        <ele>43.200000762939453125</ele>
        <time>2025-09-05T13:14:38.000Z</time>
        <extensions>
          <ns3:TrackPointExtension>
            <ns3:hr>170</ns3:hr>
            <ns3:cad>81</ns3:cad>
          </ns3:TrackPointExtension>
        </extensions>
      </trkpt>
      <trkpt lat="52.07845352590084075927734375" lon="1.31149166263639926910400390625">
        <ele>43</ele>
        <time>2025-09-05T13:14:41.000Z</time>
        <extensions>
          <ns3:TrackPointExtension>
            <ns3:hr>171</ns3:hr>
            <ns3:cad>81</ns3:cad>
          </ns3:TrackPointExtension>
        </extensions>
      </trkpt>
      <trkpt lat="52.0784439705312252044677734375" lon="1.311717219650745391845703125">
        <ele>42.799999237060546875</ele>
        <time>2025-09-05T13:14:48.000Z</time>
        <extensions>
          <ns3:TrackPointExtension>
            <ns3:hr>174</ns3:hr>
            <ns3:cad>81</ns3:cad>
          </ns3:TrackPointExtension>
        </extensions>
      </trkpt>
      <trkpt lat="52.07834280095994472503662109375" lon="1.31200010888278484344482421875">
        <ele>42.59999847412109375</ele>
        <time>2025-09-05T13:14:55.000Z</time>
        <extensions>
          <ns3:TrackPointExtension>
            <ns3:hr>175</ns3:hr>
            <ns3:cad>82</ns3:cad>
          </ns3:TrackPointExtension>
        </extensions>
      </trkpt>
      <trkpt lat="52.0783133804798126220703125" lon="1.31222222931683063507080078125">
        <ele>42.200000762939453125</ele>
        <time>2025-09-05T13:15:02.000Z</time>
        <extensions>
          <ns3:TrackPointExtension>
            <ns3:hr>179</ns3:hr>
            <ns3:cad>82</ns3:cad>
          </ns3:TrackPointExtension>
        </extensions>
      </trkpt>
      <trkpt lat="52.0783112011849880218505859375" lon="1.31225340999662876129150390625">
        <ele>42.200000762939453125</ele>
        <time>2025-09-05T13:15:03.000Z</time>
        <extensions>
          <ns3:TrackPointExtension>
            <ns3:hr>176</ns3:hr>
            <ns3:cad>82</ns3:cad>
          </ns3:TrackPointExtension>
        </extensions>
      </trkpt>
      <trkpt lat="52.07830390892922878265380859375" lon="1.31231962703168392181396484375">
        <ele>42.200000762939453125</ele>
        <time>2025-09-05T13:15:05.000Z</time>
        <extensions>
          <ns3:TrackPointExtension>
            <ns3:hr>176</ns3:hr>
            <ns3:cad>82</ns3:cad>
          </ns3:TrackPointExtension>
        </extensions>
      </trkpt>
      <trkpt lat="52.07833039574325084686279296875" lon="1.3124419189989566802978515625">
        <ele>42</ele>
        <time>2025-09-05T13:15:09.000Z</time>
        <extensions>
          <ns3:TrackPointExtension>
            <ns3:hr>176</ns3:hr>
            <ns3:cad>81</ns3:cad>
          </ns3:TrackPointExtension>
        </extensions>
      </trkpt>
      <trkpt lat="52.078373730182647705078125" lon="1.31262506358325481414794921875">
        <ele>41.799999237060546875</ele>
        <time>2025-09-05T13:15:16.000Z</time>
        <extensions>
          <ns3:TrackPointExtension>
            <ns3:hr>173</ns3:hr>
            <ns3:cad>82</ns3:cad>
          </ns3:TrackPointExtension>
        </extensions>
      </trkpt>
      <trkpt lat="52.0783911645412445068359375" lon="1.312638558447360992431640625">
        <ele>41.799999237060546875</ele>
        <time>2025-09-05T13:15:17.000Z</time>
        <extensions>
          <ns3:TrackPointExtension>
            <ns3:hr>174</ns3:hr>
            <ns3:cad>82</ns3:cad>
          </ns3:TrackPointExtension>
        </extensions>
      </trkpt>
      <trkpt lat="52.078532986342906951904296875" lon="1.312678791582584381103515625">
        <ele>41.59999847412109375</ele>
        <time>2025-09-05T13:15:24.000Z</time>
        <extensions>
          <ns3:TrackPointExtension>
            <ns3:hr>174</ns3:hr>
            <ns3:cad>80</ns3:cad>
          </ns3:TrackPointExtension>
        </extensions>
      </trkpt>
      <trkpt lat="52.0785847865045070648193359375" lon="1.312682814896106719970703125">
        <ele>41.59999847412109375</ele>
        <time>2025-09-05T13:15:26.000Z</time>
        <extensions>
          <ns3:TrackPointExtension>
            <ns3:hr>175</ns3:hr>
            <ns3:cad>80</ns3:cad>
          </ns3:TrackPointExtension>
        </extensions>
      </trkpt>
      <trkpt lat="52.0786297135055065155029296875" lon="1.312665380537509918212890625">
        <ele>41.59999847412109375</ele>
        <time>2025-09-05T13:15:28.000Z</time>
        <extensions>
          <ns3:TrackPointExtension>
            <ns3:hr>175</ns3:hr>
            <ns3:cad>80</ns3:cad>
          </ns3:TrackPointExtension>
        </extensions>
      </trkpt>
      <trkpt lat="52.078786790370941162109375" lon="1.312633194029331207275390625">
        <ele>41.40000152587890625</ele>
        <time>2025-09-05T13:15:35.000Z</time>
        <extensions>
          <ns3:TrackPointExtension>
            <ns3:hr>174</ns3:hr>
            <ns3:cad>77</ns3:cad>
          </ns3:TrackPointExtension>
        </extensions>
      </trkpt>
      <trkpt lat="52.07887756638228893280029296875" lon="1.3125897757709026336669921875">
        <ele>41.200000762939453125</ele>
        <time>2025-09-05T13:15:40.000Z</time>
        <extensions>
          <ns3:TrackPointExtension>
            <ns3:hr>177</ns3:hr>
            <ns3:cad>80</ns3:cad>
          </ns3:TrackPointExtension>
        </extensions>
      </trkpt>
      <trkpt lat="52.07892333157360553741455078125" lon="1.31258063949644565582275390625">
        <ele>41.200000762939453125</ele>
        <time>2025-09-05T13:15:42.000Z</time>
        <extensions>
          <ns3:TrackPointExtension>
            <ns3:hr>178</ns3:hr>
            <ns3:cad>80</ns3:cad>
          </ns3:TrackPointExtension>
        </extensions>
      </trkpt>
      <trkpt lat="52.07897010259330272674560546875" lon="1.31257108412683010101318359375">
        <ele>41.200000762939453125</ele>
        <time>2025-09-05T13:15:44.000Z</time>
        <extensions>
          <ns3:TrackPointExtension>
            <ns3:hr>178</ns3:hr>
            <ns3:cad>80</ns3:cad>
          </ns3:TrackPointExtension>
        </extensions>
      </trkpt>
      <trkpt lat="52.0791497267782688140869140625" lon="1.31244334392249584197998046875">
        <ele>41</ele>
        <time>2025-09-05T13:15:51.000Z</time>
        <extensions>
          <ns3:TrackPointExtension>
            <ns3:hr>176</ns3:hr>
            <ns3:cad>80</ns3:cad>
          </ns3:TrackPointExtension>
        </extensions>
      </trkpt>
      <trkpt lat="52.07917462103068828582763671875" lon="1.31242289207875728607177734375">
        <ele>40.799999237060546875</ele>
        <time>2025-09-05T13:15:52.000Z</time>
        <extensions>
          <ns3:TrackPointExtension>
            <ns3:hr>177</ns3:hr>
            <ns3:cad>81</ns3:cad>
          </ns3:TrackPointExtension>
        </extensions>
      </trkpt>
      <trkpt lat="52.07935667596757411956787109375" lon="1.31232599727809429168701171875">
        <ele>40.59999847412109375</ele>
        <time>2025-09-05T13:16:01.000Z</time>
        <extensions>
          <ns3:TrackPointExtension>
            <ns3:hr>176</ns3:hr>
            <ns3:cad>81</ns3:cad>
          </ns3:TrackPointExtension>
        </extensions>
      </trkpt>
      <trkpt lat="52.0795284211635589599609375" lon="1.31224402226507663726806640625">
        <ele>40.40000152587890625</ele>
        <time>2025-09-05T13:16:10.000Z</time>
        <extensions>
          <ns3:TrackPointExtension>
            <ns3:hr>179</ns3:hr>
            <ns3:cad>81</ns3:cad>
          </ns3:TrackPointExtension>
        </extensions>
      </trkpt>
      <trkpt lat="52.07965758629143238067626953125" lon="1.31220110692083835601806640625">
        <ele>40.200000762939453125</ele>
        <time>2025-09-05T13:16:17.000Z</time>
        <extensions>
          <ns3:TrackPointExtension>
            <ns3:hr>177</ns3:hr>
            <ns3:cad>80</ns3:cad>
          </ns3:TrackPointExtension>
        </extensions>
      </trkpt>
      <trkpt lat="52.07973587326705455780029296875" lon="1.31220395676791667938232421875">
        <ele>40.200000762939453125</ele>
        <time>2025-09-05T13:16:21.000Z</time>
        <extensions>
          <ns3:TrackPointExtension>
            <ns3:hr>177</ns3:hr>
            <ns3:cad>81</ns3:cad>
          </ns3:TrackPointExtension>
        </extensions>
      </trkpt>
      <trkpt lat="52.0798263140022754669189453125" lon="1.31220781244337558746337890625">
        <ele>40</ele>
        <time>2025-09-05T13:16:25.000Z</time>
        <extensions>
          <ns3:TrackPointExtension>
            <ns3:hr>176</ns3:hr>
            <ns3:cad>81</ns3:cad>
          </ns3:TrackPointExtension>
        </extensions>
      </trkpt>
      <trkpt lat="52.0799195207655429840087890625" lon="1.31218132562935352325439453125">
        <ele>39.799999237060546875</ele>
        <time>2025-09-05T13:16:32.000Z</time>
        <extensions>
          <ns3:TrackPointExtension>
            <ns3:hr>179</ns3:hr>
            <ns3:cad>40</ns3:cad>
          </ns3:TrackPointExtension>
        </extensions>
      </trkpt>
      <trkpt lat="52.0800288207828998565673828125" lon="1.312122903764247894287109375">
        <ele>39.799999237060546875</ele>
        <time>2025-09-05T13:16:38.000Z</time>
        <extensions>
          <ns3:TrackPointExtension>
            <ns3:hr>178</ns3:hr>
            <ns3:cad>55</ns3:cad>
          </ns3:TrackPointExtension>
        </extensions>
      </trkpt>
      <trkpt lat="52.08012697286903858184814453125" lon="1.31207562983036041259765625">
        <ele>39.799999237060546875</ele>
        <time>2025-09-05T13:16:46.000Z</time>
        <extensions>
          <ns3:TrackPointExtension>
            <ns3:hr>177</ns3:hr>
            <ns3:cad>60</ns3:cad>
          </ns3:TrackPointExtension>
        </extensions>
      </trkpt>
      <trkpt lat="52.0801921002566814422607421875" lon="1.311946213245391845703125">
        <ele>39.799999237060546875</ele>
        <time>2025-09-05T13:16:54.000Z</time>
        <extensions>
          <ns3:TrackPointExtension>
            <ns3:hr>176</ns3:hr>
            <ns3:cad>62</ns3:cad>
          </ns3:TrackPointExtension>
        </extensions>
      </trkpt>
      <trkpt lat="52.08026510663330554962158203125" lon="1.31185744889080524444580078125">
        <ele>39.799999237060546875</ele>
        <time>2025-09-05T13:16:59.000Z</time>
        <extensions>
          <ns3:TrackPointExtension>
            <ns3:hr>173</ns3:hr>
            <ns3:cad>61</ns3:cad>
          </ns3:TrackPointExtension>
        </extensions>
      </trkpt>
      <trkpt lat="52.0802990533411502838134765625" lon="1.3118411041796207427978515625">
        <ele>39.799999237060546875</ele>
        <time>2025-09-05T13:17:01.000Z</time>
        <extensions>
          <ns3:TrackPointExtension>
            <ns3:hr>174</ns3:hr>
            <ns3:cad>61</ns3:cad>
          </ns3:TrackPointExtension>
        </extensions>
      </trkpt>
      <trkpt lat="52.08033241331577301025390625" lon="1.31183029152452945709228515625">
        <ele>39.799999237060546875</ele>
        <time>2025-09-05T13:17:03.000Z</time>
        <extensions>
          <ns3:TrackPointExtension>
            <ns3:hr>171</ns3:hr>
            <ns3:cad>61</ns3:cad>
          </ns3:TrackPointExtension>
        </extensions>
      </trkpt>
      <trkpt lat="52.0804338343441486358642578125" lon="1.31177195347845554351806640625">
        <ele>39.799999237060546875</ele>
        <time>2025-09-05T13:17:08.000Z</time>
        <extensions>
          <ns3:TrackPointExtension>
            <ns3:hr>170</ns3:hr>
            <ns3:cad>68</ns3:cad>
          </ns3:TrackPointExtension>
        </extensions>
      </trkpt>
      <trkpt lat="52.08059350959956645965576171875" lon="1.3117415271699428558349609375">
        <ele>39.799999237060546875</ele>
        <time>2025-09-05T13:17:17.000Z</time>
        <extensions>
          <ns3:TrackPointExtension>
            <ns3:hr>174</ns3:hr>
            <ns3:cad>80</ns3:cad>
          </ns3:TrackPointExtension>
        </extensions>
      </trkpt>
      <trkpt lat="52.080613039433956146240234375" lon="1.31175108253955841064453125">
        <ele>39.799999237060546875</ele>
        <time>2025-09-05T13:17:18.000Z</time>
        <extensions>
          <ns3:TrackPointExtension>
            <ns3:hr>175</ns3:hr>
            <ns3:cad>80</ns3:cad>
          </ns3:TrackPointExtension>
        </extensions>
      </trkpt>
      <trkpt lat="52.0807084254920482635498046875" lon="1.31180497817695140838623046875">
        <ele>39.799999237060546875</ele>
        <time>2025-09-05T13:17:22.000Z</time>
        <extensions>
          <ns3:TrackPointExtension>
            <ns3:hr>178</ns3:hr>
            <ns3:cad>80</ns3:cad>
          </ns3:TrackPointExtension>
        </extensions>
      </trkpt>
      <trkpt lat="52.08073868416249752044677734375" lon="1.31183699704706668853759765625">
        <ele>39.799999237060546875</ele>
        <time>2025-09-05T13:17:24.000Z</time>
        <extensions>
          <ns3:TrackPointExtension>
            <ns3:hr>180</ns3:hr>
            <ns3:cad>80</ns3:cad>
          </ns3:TrackPointExtension>
        </extensions>
      </trkpt>
      <trkpt lat="52.08086240105330944061279296875" lon="1.31202022545039653778076171875">
        <ele>39.799999237060546875</ele>
        <time>2025-09-05T13:17:31.000Z</time>
        <extensions>
          <ns3:TrackPointExtension>
            <ns3:hr>181</ns3:hr>
            <ns3:cad>81</ns3:cad>
          </ns3:TrackPointExtension>
        </extensions>
      </trkpt>
      <trkpt lat="52.08099424839019775390625" lon="1.31218870170414447784423828125">
        <ele>39.59999847412109375</ele>
        <time>2025-09-05T13:17:38.000Z</time>
        <extensions>
          <ns3:TrackPointExtension>
            <ns3:hr>180</ns3:hr>
            <ns3:cad>81</ns3:cad>
          </ns3:TrackPointExtension>
        </extensions>
      </trkpt>
      <trkpt lat="52.08111654035747051239013671875" lon="1.31227402947843074798583984375">
        <ele>39.59999847412109375</ele>
        <time>2025-09-05T13:17:44.000Z</time>
        <extensions>
          <ns3:TrackPointExtension>
            <ns3:hr>183</ns3:hr>
            <ns3:cad>82</ns3:cad>
          </ns3:TrackPointExtension>
        </extensions>
      </trkpt>
      <trkpt lat="52.08113615401089191436767578125" lon="1.31228995509445667266845703125">
        <ele>39.59999847412109375</ele>
        <time>2025-09-05T13:17:45.000Z</time>
        <extensions>
          <ns3:TrackPointExtension>
            <ns3:hr>182</ns3:hr>
            <ns3:cad>82</ns3:cad>
          </ns3:TrackPointExtension>
        </extensions>
      </trkpt>
      <trkpt lat="52.0812503993511199951171875" lon="1.31237226538360118865966796875">
        <ele>39.59999847412109375</ele>
        <time>2025-09-05T13:17:50.000Z</time>
        <extensions>
          <ns3:TrackPointExtension>
            <ns3:hr>185</ns3:hr>
            <ns3:cad>82</ns3:cad>
          </ns3:TrackPointExtension>
        </extensions>
      </trkpt>
      <trkpt lat="52.0812968350946903228759765625" lon="1.31239975802600383758544921875">
        <ele>39.59999847412109375</ele>
        <time>2025-09-05T13:17:52.000Z</time>
        <extensions>
          <ns3:TrackPointExtension>
            <ns3:hr>183</ns3:hr>
            <ns3:cad>82</ns3:cad>
          </ns3:TrackPointExtension>
        </extensions>
      </trkpt>
      <trkpt lat="52.0814366452395915985107421875" lon="1.31248156540095806121826171875">
        <ele>39.40000152587890625</ele>
        <time>2025-09-05T13:17:58.000Z</time>
        <extensions>
          <ns3:TrackPointExtension>
            <ns3:hr>185</ns3:hr>
            <ns3:cad>82</ns3:cad>
          </ns3:TrackPointExtension>
        </extensions>
      </trkpt>
      <trkpt lat="52.08151702769100666046142578125" lon="1.31254635751247406005859375">
        <ele>39.40000152587890625</ele>
        <time>2025-09-05T13:18:02.000Z</time>
        <extensions>
          <ns3:TrackPointExtension>
            <ns3:hr>182</ns3:hr>
            <ns3:cad>81</ns3:cad>
          </ns3:TrackPointExtension>
        </extensions>
      </trkpt>
      <trkpt lat="52.08159615285694599151611328125" lon="1.312616430222988128662109375">
        <ele>39.40000152587890625</ele>
        <time>2025-09-05T13:18:06.000Z</time>
        <extensions>
          <ns3:TrackPointExtension>
            <ns3:hr>183</ns3:hr>
            <ns3:cad>82</ns3:cad>
          </ns3:TrackPointExtension>
        </extensions>
      </trkpt>
      <trkpt lat="52.08170008845627307891845703125" lon="1.31277409382164478302001953125">
        <ele>39.40000152587890625</ele>
        <time>2025-09-05T13:18:12.000Z</time>
        <extensions>
          <ns3:TrackPointExtension>
            <ns3:hr>180</ns3:hr>
            <ns3:cad>81</ns3:cad>
          </ns3:TrackPointExtension>
        </extensions>
      </trkpt>
      <trkpt lat="52.081804610788822174072265625" lon="1.3129441626369953155517578125">
        <ele>39.200000762939453125</ele>
        <time>2025-09-05T13:18:19.000Z</time>
        <extensions>
          <ns3:TrackPointExtension>
            <ns3:hr>179</ns3:hr>
            <ns3:cad>81</ns3:cad>
          </ns3:TrackPointExtension>
        </extensions>
      </trkpt>
      <trkpt lat="52.08193545229732990264892578125" lon="1.313083134591579437255859375">
        <ele>39.200000762939453125</ele>
        <time>2025-09-05T13:18:26.000Z</time>
        <extensions>
          <ns3:TrackPointExtension>
            <ns3:hr>179</ns3:hr>
            <ns3:cad>81</ns3:cad>
          </ns3:TrackPointExtension>
        </extensions>
      </trkpt>
      <trkpt lat="52.08207107149064540863037109375" lon="1.3131952844560146331787109375">
        <ele>39.200000762939453125</ele>
        <time>2025-09-05T13:18:33.000Z</time>
        <extensions>
          <ns3:TrackPointExtension>
            <ns3:hr>178</ns3:hr>
            <ns3:cad>82</ns3:cad>
          </ns3:TrackPointExtension>
        </extensions>
      </trkpt>
      <trkpt lat="52.08214365877211093902587890625" lon="1.31325353868305683135986328125">
        <ele>39.200000762939453125</ele>
        <time>2025-09-05T13:18:37.000Z</time>
        <extensions>
          <ns3:TrackPointExtension>
            <ns3:hr>181</ns3:hr>
            <ns3:cad>81</ns3:cad>
          </ns3:TrackPointExtension>
        </extensions>
      </trkpt>
      <trkpt lat="52.0821999013423919677734375" lon="1.3133119605481624603271484375">
        <ele>39</ele>
        <time>2025-09-05T13:18:40.000Z</time>
        <extensions>
          <ns3:TrackPointExtension>
            <ns3:hr>178</ns3:hr>
            <ns3:cad>81</ns3:cad>
          </ns3:TrackPointExtension>
        </extensions>
      </trkpt>
      <trkpt lat="52.0822466723620891571044921875" lon="1.31337918341159820556640625">
        <ele>39</ele>
        <time>2025-09-05T13:18:43.000Z</time>
        <extensions>
          <ns3:TrackPointExtension>
            <ns3:hr>175</ns3:hr>
            <ns3:cad>81</ns3:cad>
          </ns3:TrackPointExtension>
        </extensions>
      </trkpt>
      <trkpt lat="52.08234784193336963653564453125" lon="1.3134638406336307525634765625">
        <ele>39</ele>
        <time>2025-09-05T13:18:48.000Z</time>
        <extensions>
          <ns3:TrackPointExtension>
            <ns3:hr>176</ns3:hr>
            <ns3:cad>82</ns3:cad>
          </ns3:TrackPointExtension>
        </extensions>
      </trkpt>
      <trkpt lat="52.0823844708502292633056640625" lon="1.3135044090449810028076171875">
        <ele>40.59999847412109375</ele>
        <time>2025-09-05T13:18:50.000Z</time>
        <extensions>
          <ns3:TrackPointExtension>
            <ns3:hr>175</ns3:hr>
            <ns3:cad>81</ns3:cad>
          </ns3:TrackPointExtension>
        </extensions>
      </trkpt>
      <trkpt lat="52.08241489715874195098876953125" lon="1.31353475153446197509765625">
        <ele>42.200000762939453125</ele>
        <time>2025-09-05T13:18:52.000Z</time>
        <extensions>
          <ns3:TrackPointExtension>
            <ns3:hr>176</ns3:hr>
            <ns3:cad>81</ns3:cad>
          </ns3:TrackPointExtension>
        </extensions>
      </trkpt>
      <trkpt lat="52.0824481733143329620361328125" lon="1.31356920115649700164794921875">
        <ele>44</ele>
        <time>2025-09-05T13:18:54.000Z</time>
        <extensions>
          <ns3:TrackPointExtension>
            <ns3:hr>176</ns3:hr>
            <ns3:cad>82</ns3:cad>
          </ns3:TrackPointExtension>
        </extensions>
      </trkpt>
      <trkpt lat="52.08248312585055828094482421875" lon="1.31360842846333980560302734375">
        <ele>45.799999237060546875</ele>
        <time>2025-09-05T13:18:56.000Z</time>
        <extensions>
          <ns3:TrackPointExtension>
            <ns3:hr>176</ns3:hr>
            <ns3:cad>82</ns3:cad>
          </ns3:TrackPointExtension>
        </extensions>
      </trkpt>
      <trkpt lat="52.0825182460248470306396484375" lon="1.3136512599885463714599609375">
        <ele>47.799999237060546875</ele>
        <time>2025-09-05T13:18:58.000Z</time>
        <extensions>
          <ns3:TrackPointExtension>
            <ns3:hr>176</ns3:hr>
            <ns3:cad>81</ns3:cad>
          </ns3:TrackPointExtension>
        </extensions>
      </trkpt>
      <trkpt lat="52.08253559656441211700439453125" lon="1.313674561679363250732421875">
        <ele>48.799999237060546875</ele>
        <time>2025-09-05T13:18:59.000Z</time>
        <extensions>
          <ns3:TrackPointExtension>
            <ns3:hr>177</ns3:hr>
            <ns3:cad>81</ns3:cad>
          </ns3:TrackPointExtension>
        </extensions>
      </trkpt>
      <trkpt lat="52.08255437202751636505126953125" lon="1.31369777955114841461181640625">
        <ele>49.799999237060546875</ele>
        <time>2025-09-05T13:19:00.000Z</time>
        <extensions>
          <ns3:TrackPointExtension>
            <ns3:hr>176</ns3:hr>
            <ns3:cad>81</ns3:cad>
          </ns3:TrackPointExtension>
        </extensions>
      </trkpt>
      <trkpt lat="52.08256962709128856658935546875" lon="1.31372627802193164825439453125">
        <ele>50.799999237060546875</ele>
        <time>2025-09-05T13:19:01.000Z</time>
        <extensions>
          <ns3:TrackPointExtension>
            <ns3:hr>177</ns3:hr>
            <ns3:cad>81</ns3:cad>
          </ns3:TrackPointExtension>
        </extensions>
      </trkpt>
      <trkpt lat="52.08258119411766529083251953125" lon="1.3137558661401271820068359375">
        <ele>51.799999237060546875</ele>
        <time>2025-09-05T13:19:02.000Z</time>
        <extensions>
          <ns3:TrackPointExtension>
            <ns3:hr>177</ns3:hr>
            <ns3:cad>81</ns3:cad>
          </ns3:TrackPointExtension>
        </extensions>
      </trkpt>
      <trkpt lat="52.0826158113777637481689453125" lon="1.313803978264331817626953125">
        <ele>53.799999237060546875</ele>
        <time>2025-09-05T13:19:04.000Z</time>
        <extensions>
          <ns3:TrackPointExtension>
            <ns3:hr>176</ns3:hr>
            <ns3:cad>82</ns3:cad>
          </ns3:TrackPointExtension>
        </extensions>
      </trkpt>
      <trkpt lat="52.0826371014118194580078125" lon="1.3138547725975513458251953125">
        <ele>55.799999237060546875</ele>
        <time>2025-09-05T13:19:06.000Z</time>
        <extensions>
          <ns3:TrackPointExtension>
            <ns3:hr>177</ns3:hr>
            <ns3:cad>82</ns3:cad>
          </ns3:TrackPointExtension>
        </extensions>
      </trkpt>
      <trkpt lat="52.082670293748378753662109375" lon="1.31390196271240711212158203125">
        <ele>57.799999237060546875</ele>
        <time>2025-09-05T13:19:08.000Z</time>
        <extensions>
          <ns3:TrackPointExtension>
            <ns3:hr>177</ns3:hr>
            <ns3:cad>82</ns3:cad>
          </ns3:TrackPointExtension>
        </extensions>
      </trkpt>
      <trkpt lat="52.0827019773423671722412109375" lon="1.31395007483661174774169921875">
        <ele>59.799999237060546875</ele>
        <time>2025-09-05T13:19:10.000Z</time>
        <extensions>
          <ns3:TrackPointExtension>
            <ns3:hr>178</ns3:hr>
            <ns3:cad>82</ns3:cad>
          </ns3:TrackPointExtension>
        </extensions>
      </trkpt>
      <trkpt lat="52.08273592405021190643310546875" lon="1.31399366073310375213623046875">
        <ele>61.799999237060546875</ele>
        <time>2025-09-05T13:19:12.000Z</time>
        <extensions>
          <ns3:TrackPointExtension>
            <ns3:hr>178</ns3:hr>
            <ns3:cad>81</ns3:cad>
          </ns3:TrackPointExtension>
        </extensions>
      </trkpt>
      <trkpt lat="52.0827643387019634246826171875" lon="1.314044035971164703369140625">
        <ele>63.59999847412109375</ele>
        <time>2025-09-05T13:19:14.000Z</time>
        <extensions>
          <ns3:TrackPointExtension>
            <ns3:hr>179</ns3:hr>
            <ns3:cad>82</ns3:cad>
          </ns3:TrackPointExtension>
        </extensions>
      </trkpt>
      <trkpt lat="52.0827878080308437347412109375" lon="1.3140995241701602935791015625">
        <ele>65.40000152587890625</ele>
        <time>2025-09-05T13:19:16.000Z</time>
        <extensions>
          <ns3:TrackPointExtension>
            <ns3:hr>179</ns3:hr>
            <ns3:cad>82</ns3:cad>
          </ns3:TrackPointExtension>
        </extensions>
      </trkpt>
      <trkpt lat="52.0828176476061344146728515625" lon="1.3141474686563014984130859375">
        <ele>66.1999969482421875</ele>
        <time>2025-09-05T13:19:18.000Z</time>
        <extensions>
          <ns3:TrackPointExtension>
            <ns3:hr>182</ns3:hr>
            <ns3:cad>82</ns3:cad>
          </ns3:TrackPointExtension>
        </extensions>
      </trkpt>
      <trkpt lat="52.082835920155048370361328125" lon="1.3141732849180698394775390625">
        <ele>65.8000030517578125</ele>
        <time>2025-09-05T13:19:19.000Z</time>
        <extensions>
          <ns3:TrackPointExtension>
            <ns3:hr>182</ns3:hr>
            <ns3:cad>82</ns3:cad>
          </ns3:TrackPointExtension>
        </extensions>
      </trkpt>
      <trkpt lat="52.0829611457884311676025390625" lon="1.31429742090404033660888671875">
        <ele>64.40000152587890625</ele>
        <time>2025-09-05T13:19:25.000Z</time>
        <extensions>
          <ns3:TrackPointExtension>
            <ns3:hr>183</ns3:hr>
            <ns3:cad>82</ns3:cad>
          </ns3:TrackPointExtension>
        </extensions>
      </trkpt>
      <trkpt lat="52.08304001949727535247802734375" lon="1.31441812030971050262451171875">
        <ele>63.200000762939453125</ele>
        <time>2025-09-05T13:19:30.000Z</time>
        <extensions>
          <ns3:TrackPointExtension>
            <ns3:hr>181</ns3:hr>
            <ns3:cad>81</ns3:cad>
          </ns3:TrackPointExtension>
        </extensions>
      </trkpt>
      <trkpt lat="52.08309265784919261932373046875" lon="1.3144750334322452545166015625">
        <ele>62.40000152587890625</ele>
        <time>2025-09-05T13:19:33.000Z</time>
        <extensions>
          <ns3:TrackPointExtension>
            <ns3:hr>183</ns3:hr>
            <ns3:cad>81</ns3:cad>
          </ns3:TrackPointExtension>
        </extensions>
      </trkpt>
      <trkpt lat="52.08313507027924060821533203125" lon="1.3145062141120433807373046875">
        <ele>62</ele>
        <time>2025-09-05T13:19:35.000Z</time>
        <extensions>
          <ns3:TrackPointExtension>
            <ns3:hr>182</ns3:hr>
            <ns3:cad>80</ns3:cad>
          </ns3:TrackPointExtension>
        </extensions>
      </trkpt>
      <trkpt lat="52.08324286155402660369873046875" lon="1.31461895070970058441162109375">
        <ele>61</ele>
        <time>2025-09-05T13:19:40.000Z</time>
        <extensions>
          <ns3:TrackPointExtension>
            <ns3:hr>182</ns3:hr>
            <ns3:cad>77</ns3:cad>
          </ns3:TrackPointExtension>
        </extensions>
      </trkpt>
      <trkpt lat="52.0832964219152927398681640625" lon="1.314732693135738372802734375">
        <ele>60</ele>
        <time>2025-09-05T13:19:44.000Z</time>
        <extensions>
          <ns3:TrackPointExtension>
            <ns3:hr>179</ns3:hr>
            <ns3:cad>79</ns3:cad>
          </ns3:TrackPointExtension>
        </extensions>
      </trkpt>
      <trkpt lat="52.08331176079809665679931640625" lon="1.31476010195910930633544921875">
        <ele>59.799999237060546875</ele>
        <time>2025-09-05T13:19:45.000Z</time>
        <extensions>
          <ns3:TrackPointExtension>
            <ns3:hr>181</ns3:hr>
            <ns3:cad>79</ns3:cad>
          </ns3:TrackPointExtension>
        </extensions>
      </trkpt>
      <trkpt lat="52.083337493240833282470703125" lon="1.31481642834842205047607421875">
        <ele>59.40000152587890625</ele>
        <time>2025-09-05T13:19:47.000Z</time>
        <extensions>
          <ns3:TrackPointExtension>
            <ns3:hr>180</ns3:hr>
            <ns3:cad>79</ns3:cad>
          </ns3:TrackPointExtension>
        </extensions>
      </trkpt>
      <trkpt lat="52.08337764255702495574951171875" lon="1.31489873863756656646728515625">
        <ele>58.799999237060546875</ele>
        <time>2025-09-05T13:19:50.000Z</time>
        <extensions>
          <ns3:TrackPointExtension>
            <ns3:hr>185</ns3:hr>
            <ns3:cad>80</ns3:cad>
          </ns3:TrackPointExtension>
        </extensions>
      </trkpt>
      <trkpt lat="52.08339222706854343414306640625" lon="1.31492405198514461517333984375">
        <ele>58.59999847412109375</ele>
        <time>2025-09-05T13:19:51.000Z</time>
        <extensions>
          <ns3:TrackPointExtension>
            <ns3:hr>185</ns3:hr>
            <ns3:cad>80</ns3:cad>
          </ns3:TrackPointExtension>
        </extensions>
      </trkpt>
      <trkpt lat="52.08342022262513637542724609375" lon="1.31497333757579326629638671875">
        <ele>58.40000152587890625</ele>
        <time>2025-09-05T13:19:53.000Z</time>
        <extensions>
          <ns3:TrackPointExtension>
            <ns3:hr>185</ns3:hr>
            <ns3:cad>80</ns3:cad>
          </ns3:TrackPointExtension>
        </extensions>
      </trkpt>
      <trkpt lat="52.0834808237850666046142578125" lon="1.31508079357445240020751953125">
        <ele>57.59999847412109375</ele>
        <time>2025-09-05T13:19:57.000Z</time>
        <extensions>
          <ns3:TrackPointExtension>
            <ns3:hr>186</ns3:hr>
            <ns3:cad>81</ns3:cad>
          </ns3:TrackPointExtension>
        </extensions>
      </trkpt>
      <trkpt lat="52.08354712463915348052978515625" lon="1.31519914604723453521728515625">
        <ele>56.799999237060546875</ele>
        <time>2025-09-05T13:20:01.000Z</time>
        <extensions>
          <ns3:TrackPointExtension>
            <ns3:hr>188</ns3:hr>
            <ns3:cad>82</ns3:cad>
          </ns3:TrackPointExtension>
        </extensions>
      </trkpt>
      <trkpt lat="52.083572186529636383056640625" lon="1.31525899283587932586669921875">
        <ele>56.59999847412109375</ele>
        <time>2025-09-05T13:20:03.000Z</time>
        <extensions>
          <ns3:TrackPointExtension>
            <ns3:hr>188</ns3:hr>
            <ns3:cad>81</ns3:cad>
          </ns3:TrackPointExtension>
        </extensions>
      </trkpt>
      <trkpt lat="52.08362658508121967315673828125" lon="1.31539645604789257049560546875">
        <ele>55.799999237060546875</ele>
        <time>2025-09-05T13:20:08.000Z</time>
        <extensions>
          <ns3:TrackPointExtension>
            <ns3:hr>187</ns3:hr>
            <ns3:cad>81</ns3:cad>
          </ns3:TrackPointExtension>
        </extensions>
      </trkpt>
      <trkpt lat="52.08364351652562618255615234375" lon="1.31545965559780597686767578125">
        <ele>55.40000152587890625</ele>
        <time>2025-09-05T13:20:10.000Z</time>
        <extensions>
          <ns3:TrackPointExtension>
            <ns3:hr>188</ns3:hr>
            <ns3:cad>80</ns3:cad>
          </ns3:TrackPointExtension>
        </extensions>
      </trkpt>
      <trkpt lat="52.0837081409990787506103515625" lon="1.31560583598911762237548828125">
        <ele>54.59999847412109375</ele>
        <time>2025-09-05T13:20:15.000Z</time>
        <extensions>
          <ns3:TrackPointExtension>
            <ns3:hr>188</ns3:hr>
            <ns3:cad>82</ns3:cad>
          </ns3:TrackPointExtension>
        </extensions>
      </trkpt>
      <trkpt lat="52.0837342925369739532470703125" lon="1.3156650960445404052734375">
        <ele>54.40000152587890625</ele>
        <time>2025-09-05T13:20:17.000Z</time>
        <extensions>
          <ns3:TrackPointExtension>
            <ns3:hr>188</ns3:hr>
            <ns3:cad>81</ns3:cad>
          </ns3:TrackPointExtension>
        </extensions>
      </trkpt>
      <trkpt lat="52.08381450735032558441162109375" lon="1.31585896946489810943603515625">
        <ele>53.40000152587890625</ele>
        <time>2025-09-05T13:20:24.000Z</time>
        <extensions>
          <ns3:TrackPointExtension>
            <ns3:hr>185</ns3:hr>
            <ns3:cad>81</ns3:cad>
          </ns3:TrackPointExtension>
        </extensions>
      </trkpt>
      <trkpt lat="52.08382867276668548583984375" lon="1.31588847376406192779541015625">
        <ele>53.200000762939453125</ele>
        <time>2025-09-05T13:20:25.000Z</time>
        <extensions>
          <ns3:TrackPointExtension>
            <ns3:hr>185</ns3:hr>
            <ns3:cad>81</ns3:cad>
          </ns3:TrackPointExtension>
        </extensions>
      </trkpt>
      <trkpt lat="52.0838979072868824005126953125" lon="1.31608695723116397857666015625">
        <ele>52.40000152587890625</ele>
        <time>2025-09-05T13:20:31.000Z</time>
        <extensions>
          <ns3:TrackPointExtension>
            <ns3:hr>186</ns3:hr>
            <ns3:cad>81</ns3:cad>
          </ns3:TrackPointExtension>
        </extensions>
      </trkpt>
      <trkpt lat="52.08391257561743259429931640625" lon="1.31614454090595245361328125">
        <ele>52.200000762939453125</ele>
        <time>2025-09-05T13:20:33.000Z</time>
        <extensions>
          <ns3:TrackPointExtension>
            <ns3:hr>187</ns3:hr>
            <ns3:cad>81</ns3:cad>
          </ns3:TrackPointExtension>
        </extensions>
      </trkpt>
      <trkpt lat="52.0839602686464786529541015625" lon="1.3163374923169612884521484375">
        <ele>51.40000152587890625</ele>
        <time>2025-09-05T13:20:39.000Z</time>
        <extensions>
          <ns3:TrackPointExtension>
            <ns3:hr>186</ns3:hr>
            <ns3:cad>81</ns3:cad>
          </ns3:TrackPointExtension>
        </extensions>
      </trkpt>
      <trkpt lat="52.08399957977235317230224609375" lon="1.31644017063081264495849609375">
        <ele>51</ele>
        <time>2025-09-05T13:20:42.000Z</time>
        <extensions>
          <ns3:TrackPointExtension>
            <ns3:hr>181</ns3:hr>
            <ns3:cad>81</ns3:cad>
          </ns3:TrackPointExtension>
        </extensions>
      </trkpt>
      <trkpt lat="52.0840132422745227813720703125" lon="1.31647001020610332489013671875">
        <ele>51</ele>
        <time>2025-09-05T13:20:43.000Z</time>
        <extensions>
          <ns3:TrackPointExtension>
            <ns3:hr>181</ns3:hr>
            <ns3:cad>81</ns3:cad>
          </ns3:TrackPointExtension>
        </extensions>
      </trkpt>
      <trkpt lat="52.08404769189655780792236328125" lon="1.31659003905951976776123046875">
        <ele>50.59999847412109375</ele>
        <time>2025-09-05T13:20:47.000Z</time>
        <extensions>
          <ns3:TrackPointExtension>
            <ns3:hr>180</ns3:hr>
            <ns3:cad>81</ns3:cad>
          </ns3:TrackPointExtension>
        </extensions>
      </trkpt>
      <trkpt lat="52.0841342769563198089599609375" lon="1.31672750227153301239013671875">
        <ele>50</ele>
        <time>2025-09-05T13:20:52.000Z</time>
        <extensions>
          <ns3:TrackPointExtension>
            <ns3:hr>181</ns3:hr>
            <ns3:cad>81</ns3:cad>
          </ns3:TrackPointExtension>
        </extensions>
      </trkpt>
      <trkpt lat="52.0841584168374538421630859375" lon="1.31678148172795772552490234375">
        <ele>49.799999237060546875</ele>
        <time>2025-09-05T13:20:54.000Z</time>
        <extensions>
          <ns3:TrackPointExtension>
            <ns3:hr>180</ns3:hr>
            <ns3:cad>80</ns3:cad>
          </ns3:TrackPointExtension>
        </extensions>
      </trkpt>
      <trkpt lat="52.08422429859638214111328125" lon="1.3169936276972293853759765625">
        <ele>49</ele>
        <time>2025-09-05T13:21:02.000Z</time>
        <extensions>
          <ns3:TrackPointExtension>
            <ns3:hr>178</ns3:hr>
            <ns3:cad>80</ns3:cad>
          </ns3:TrackPointExtension>
        </extensions>
      </trkpt>
      <trkpt lat="52.0843357779085636138916015625" lon="1.3171592541038990020751953125">
        <ele>48.200000762939453125</ele>
        <time>2025-09-05T13:21:10.000Z</time>
        <extensions>
          <ns3:TrackPointExtension>
            <ns3:hr>179</ns3:hr>
            <ns3:cad>80</ns3:cad>
          </ns3:TrackPointExtension>
        </extensions>
      </trkpt>
      <trkpt lat="52.08441666327416896820068359375" lon="1.317195631563663482666015625">
        <ele>48</ele>
        <time>2025-09-05T13:21:14.000Z</time>
        <extensions>
          <ns3:TrackPointExtension>
            <ns3:hr>180</ns3:hr>
            <ns3:cad>81</ns3:cad>
          </ns3:TrackPointExtension>
        </extensions>
      </trkpt>
      <trkpt lat="52.0845030806958675384521484375" lon="1.31720711477100849151611328125">
        <ele>47.59999847412109375</ele>
        <time>2025-09-05T13:21:18.000Z</time>
        <extensions>
          <ns3:TrackPointExtension>
            <ns3:hr>180</ns3:hr>
            <ns3:cad>81</ns3:cad>
          </ns3:TrackPointExtension>
        </extensions>
      </trkpt>
      <trkpt lat="52.084656469523906707763671875" lon="1.31722874008119106292724609375">
        <ele>47</ele>
        <time>2025-09-05T13:21:26.000Z</time>
        <extensions>
          <ns3:TrackPointExtension>
            <ns3:hr>178</ns3:hr>
            <ns3:cad>79</ns3:cad>
          </ns3:TrackPointExtension>
        </extensions>
      </trkpt>
      <trkpt lat="52.08468069322407245635986328125" lon="1.31722404621541500091552734375">
        <ele>46.799999237060546875</ele>
        <time>2025-09-05T13:21:27.000Z</time>
        <extensions>
          <ns3:TrackPointExtension>
            <ns3:hr>178</ns3:hr>
            <ns3:cad>79</ns3:cad>
          </ns3:TrackPointExtension>
        </extensions>
      </trkpt>
      <trkpt lat="52.08482352085411548614501953125" lon="1.317252628505229949951171875">
        <ele>46.40000152587890625</ele>
        <time>2025-09-05T13:21:33.000Z</time>
        <extensions>
          <ns3:TrackPointExtension>
            <ns3:hr>179</ns3:hr>
            <ns3:cad>81</ns3:cad>
          </ns3:TrackPointExtension>
        </extensions>
      </trkpt>
      <trkpt lat="52.0849124528467655181884765625" lon="1.31726478226482868194580078125">
        <ele>46.200000762939453125</ele>
        <time>2025-09-05T13:21:38.000Z</time>
        <extensions>
          <ns3:TrackPointExtension>
            <ns3:hr>179</ns3:hr>
            <ns3:cad>80</ns3:cad>
          </ns3:TrackPointExtension>
        </extensions>
      </trkpt>
      <trkpt lat="52.08497087471187114715576171875" lon="1.31727039813995361328125">
        <ele>45.799999237060546875</ele>
        <time>2025-09-05T13:21:42.000Z</time>
        <extensions>
          <ns3:TrackPointExtension>
            <ns3:hr>179</ns3:hr>
            <ns3:cad>78</ns3:cad>
          </ns3:TrackPointExtension>
        </extensions>
      </trkpt>
      <trkpt lat="52.08499166183173656463623046875" lon="1.3172771036624908447265625">
        <ele>45.799999237060546875</ele>
        <time>2025-09-05T13:21:44.000Z</time>
        <extensions>
          <ns3:TrackPointExtension>
            <ns3:hr>176</ns3:hr>
            <ns3:cad>0</ns3:cad>
          </ns3:TrackPointExtension>
        </extensions>
      </trkpt>
      <trkpt lat="52.08500004373490810394287109375" lon="1.31727919913828372955322265625">
        <ele>45.59999847412109375</ele>
        <time>2025-09-05T13:21:46.000Z</time>
        <extensions>
          <ns3:TrackPointExtension>
            <ns3:hr>178</ns3:hr>
            <ns3:cad>0</ns3:cad>
          </ns3:TrackPointExtension>
        </extensions>
      </trkpt>
      <trkpt lat="52.0850901491940021514892578125" lon="1.3172185979783535003662109375">
        <ele>45.200000762939453125</ele>
        <time>2025-09-05T13:21:54.000Z</time>
        <extensions>
          <ns3:TrackPointExtension>
            <ns3:hr>175</ns3:hr>
            <ns3:cad>0</ns3:cad>
          </ns3:TrackPointExtension>
        </extensions>
      </trkpt>
      <trkpt lat="52.085174135863780975341796875" lon="1.31712195463478565216064453125">
        <ele>44.799999237060546875</ele>
        <time>2025-09-05T13:22:00.000Z</time>
        <extensions>
          <ns3:TrackPointExtension>
            <ns3:hr>177</ns3:hr>
            <ns3:cad>59</ns3:cad>
          </ns3:TrackPointExtension>
        </extensions>
      </trkpt>
      <trkpt lat="52.08518545143306255340576171875" lon="1.317102424800395965576171875">
        <ele>44.799999237060546875</ele>
        <time>2025-09-05T13:22:01.000Z</time>
        <extensions>
          <ns3:TrackPointExtension>
            <ns3:hr>177</ns3:hr>
            <ns3:cad>60</ns3:cad>
          </ns3:TrackPointExtension>
        </extensions>
      </trkpt>
      <trkpt lat="52.0852447114884853363037109375" lon="1.3169956393539905548095703125">
        <ele>44.59999847412109375</ele>
        <time>2025-09-05T13:22:05.000Z</time>
        <extensions>
          <ns3:TrackPointExtension>
            <ns3:hr>178</ns3:hr>
            <ns3:cad>61</ns3:cad>
          </ns3:TrackPointExtension>
        </extensions>
      </trkpt>
      <trkpt lat="52.08528184331953525543212890625" lon="1.3169037736952304840087890625">
        <ele>44.40000152587890625</ele>
        <time>2025-09-05T13:22:08.000Z</time>
        <extensions>
          <ns3:TrackPointExtension>
            <ns3:hr>179</ns3:hr>
            <ns3:cad>80</ns3:cad>
          </ns3:TrackPointExtension>
        </extensions>
      </trkpt>
      <trkpt lat="52.0853340625762939453125" lon="1.31678081117570400238037109375">
        <ele>44.200000762939453125</ele>
        <time>2025-09-05T13:22:12.000Z</time>
        <extensions>
          <ns3:TrackPointExtension>
            <ns3:hr>175</ns3:hr>
            <ns3:cad>81</ns3:cad>
          </ns3:TrackPointExtension>
        </extensions>
      </trkpt>
      <trkpt lat="52.08536448888480663299560546875" lon="1.31668031215667724609375">
        <ele>44</ele>
        <time>2025-09-05T13:22:15.000Z</time>
        <extensions>
          <ns3:TrackPointExtension>
            <ns3:hr>173</ns3:hr>
            <ns3:cad>80</ns3:cad>
          </ns3:TrackPointExtension>
        </extensions>
      </trkpt>
      <trkpt lat="52.08540287800133228302001953125" lon="1.3165690004825592041015625">
        <ele>43.799999237060546875</ele>
        <time>2025-09-05T13:22:19.000Z</time>
        <extensions>
          <ns3:TrackPointExtension>
            <ns3:hr>170</ns3:hr>
            <ns3:cad>80</ns3:cad>
          </ns3:TrackPointExtension>
        </extensions>
      </trkpt>
      <trkpt lat="52.08541260100901126861572265625" lon="1.31654284894466400146484375">
        <ele>43.799999237060546875</ele>
        <time>2025-09-05T13:22:20.000Z</time>
        <extensions>
          <ns3:TrackPointExtension>
            <ns3:hr>170</ns3:hr>
            <ns3:cad>80</ns3:cad>
          </ns3:TrackPointExtension>
        </extensions>
      </trkpt>
      <trkpt lat="52.08543925546109676361083984375" lon="1.3164786435663700103759765625">
        <ele>43.799999237060546875</ele>
        <time>2025-09-05T13:22:22.000Z</time>
        <extensions>
          <ns3:TrackPointExtension>
            <ns3:hr>171</ns3:hr>
            <ns3:cad>80</ns3:cad>
          </ns3:TrackPointExtension>
        </extensions>
      </trkpt>
      <trkpt lat="52.085503377020359039306640625" lon="1.3163053058087825775146484375">
        <ele>43.59999847412109375</ele>
        <time>2025-09-05T13:22:28.000Z</time>
        <extensions>
          <ns3:TrackPointExtension>
            <ns3:hr>174</ns3:hr>
            <ns3:cad>81</ns3:cad>
          </ns3:TrackPointExtension>
        </extensions>
      </trkpt>
      <trkpt lat="52.08553346805274486541748046875" lon="1.31620732136070728302001953125">
        <ele>43.40000152587890625</ele>
        <time>2025-09-05T13:22:31.000Z</time>
        <extensions>
          <ns3:TrackPointExtension>
            <ns3:hr>175</ns3:hr>
            <ns3:cad>82</ns3:cad>
          </ns3:TrackPointExtension>
        </extensions>
      </trkpt>
      <trkpt lat="52.0855840109288692474365234375" lon="1.3161078281700611114501953125">
        <ele>43.200000762939453125</ele>
        <time>2025-09-05T13:22:35.000Z</time>
        <extensions>
          <ns3:TrackPointExtension>
            <ns3:hr>178</ns3:hr>
            <ns3:cad>81</ns3:cad>
          </ns3:TrackPointExtension>
        </extensions>
      </trkpt>
      <trkpt lat="52.08560924045741558074951171875" lon="1.316049993038177490234375">
        <ele>43.200000762939453125</ele>
        <time>2025-09-05T13:22:37.000Z</time>
        <extensions>
          <ns3:TrackPointExtension>
            <ns3:hr>180</ns3:hr>
            <ns3:cad>80</ns3:cad>
          </ns3:TrackPointExtension>
        </extensions>
      </trkpt>
      <trkpt lat="52.08563606254756450653076171875" lon="1.3159958459436893463134765625">
        <ele>43.200000762939453125</ele>
        <time>2025-09-05T13:22:39.000Z</time>
        <extensions>
          <ns3:TrackPointExtension>
            <ns3:hr>183</ns3:hr>
            <ns3:cad>80</ns3:cad>
          </ns3:TrackPointExtension>
        </extensions>
      </trkpt>
      <trkpt lat="52.0856706798076629638671875" lon="1.3159328140318393707275390625">
        <ele>43</ele>
        <time>2025-09-05T13:22:41.000Z</time>
        <extensions>
          <ns3:TrackPointExtension>
            <ns3:hr>186</ns3:hr>
            <ns3:cad>81</ns3:cad>
          </ns3:TrackPointExtension>
        </extensions>
      </trkpt>
      <trkpt lat="52.08571770228445529937744140625" lon="1.3158852048218250274658203125">
        <ele>43</ele>
        <time>2025-09-05T13:22:43.000Z</time>
        <extensions>
          <ns3:TrackPointExtension>
            <ns3:hr>189</ns3:hr>
            <ns3:cad>81</ns3:cad>
          </ns3:TrackPointExtension>
        </extensions>
      </trkpt>
      <trkpt lat="52.0858706720173358917236328125" lon="1.31578101776540279388427734375">
        <ele>42.799999237060546875</ele>
        <time>2025-09-05T13:22:50.000Z</time>
        <extensions>
          <ns3:TrackPointExtension>
            <ns3:hr>186</ns3:hr>
            <ns3:cad>78</ns3:cad>
          </ns3:TrackPointExtension>
        </extensions>
      </trkpt>
      <trkpt lat="52.08591300062835216522216796875" lon="1.31577850319445133209228515625">
        <ele>42.799999237060546875</ele>
        <time>2025-09-05T13:22:52.000Z</time>
        <extensions>
          <ns3:TrackPointExtension>
            <ns3:hr>185</ns3:hr>
            <ns3:cad>79</ns3:cad>
          </ns3:TrackPointExtension>
        </extensions>
      </trkpt>
      <trkpt lat="52.0860327780246734619140625" lon="1.31580180488526821136474609375">
        <ele>43</ele>
        <time>2025-09-05T13:22:57.000Z</time>
        <extensions>
          <ns3:TrackPointExtension>
            <ns3:hr>183</ns3:hr>
            <ns3:cad>80</ns3:cad>
          </ns3:TrackPointExtension>
        </extensions>
      </trkpt>
      <trkpt lat="52.08609354682266712188720703125" lon="1.31582829169929027557373046875">
        <ele>43.40000152587890625</ele>
        <time>2025-09-05T13:23:00.000Z</time>
        <extensions>
          <ns3:TrackPointExtension>
            <ns3:hr>180</ns3:hr>
            <ns3:cad>79</ns3:cad>
          </ns3:TrackPointExtension>
        </extensions>
      </trkpt>
      <trkpt lat="52.086157165467739105224609375" lon="1.31585477851331233978271484375">
        <ele>43.799999237060546875</ele>
        <time>2025-09-05T13:23:03.000Z</time>
        <extensions>
          <ns3:TrackPointExtension>
            <ns3:hr>178</ns3:hr>
            <ns3:cad>80</ns3:cad>
          </ns3:TrackPointExtension>
        </extensions>
      </trkpt>
      <trkpt lat="52.0861797966063022613525390625" lon="1.3158647529780864715576171875">
        <ele>44</ele>
        <time>2025-09-05T13:23:04.000Z</time>
        <extensions>
          <ns3:TrackPointExtension>
            <ns3:hr>178</ns3:hr>
            <ns3:cad>80</ns3:cad>
          </ns3:TrackPointExtension>
        </extensions>
      </trkpt>
      <trkpt lat="52.08625012077391147613525390625" lon="1.31589920260012149810791015625">
        <ele>45</ele>
        <time>2025-09-05T13:23:08.000Z</time>
        <extensions>
          <ns3:TrackPointExtension>
            <ns3:hr>178</ns3:hr>
            <ns3:cad>79</ns3:cad>
          </ns3:TrackPointExtension>
        </extensions>
      </trkpt>
      <trkpt lat="52.08628264255821704864501953125" lon="1.31591965444386005401611328125">
        <ele>45.59999847412109375</ele>
        <time>2025-09-05T13:23:10.000Z</time>
        <extensions>
          <ns3:TrackPointExtension>
            <ns3:hr>178</ns3:hr>
            <ns3:cad>69</ns3:cad>
          </ns3:TrackPointExtension>
        </extensions>
      </trkpt>
      <trkpt lat="52.086313404142856597900390625" lon="1.31593558005988597869873046875">
        <ele>46.200000762939453125</ele>
        <time>2025-09-05T13:23:12.000Z</time>
        <extensions>
          <ns3:TrackPointExtension>
            <ns3:hr>178</ns3:hr>
            <ns3:cad>69</ns3:cad>
          </ns3:TrackPointExtension>
        </extensions>
      </trkpt>
      <trkpt lat="52.08635472692549228668212890625" lon="1.31596424616873264312744140625">
        <ele>47.40000152587890625</ele>
        <time>2025-09-05T13:23:15.000Z</time>
        <extensions>
          <ns3:TrackPointExtension>
            <ns3:hr>177</ns3:hr>
            <ns3:cad>62</ns3:cad>
          </ns3:TrackPointExtension>
        </extensions>
      </trkpt>
      <trkpt lat="52.0863806270062923431396484375" lon="1.3159861229360103607177734375">
        <ele>48.200000762939453125</ele>
        <time>2025-09-05T13:23:17.000Z</time>
        <extensions>
          <ns3:TrackPointExtension>
            <ns3:hr>174</ns3:hr>
            <ns3:cad>61</ns3:cad>
          </ns3:TrackPointExtension>
        </extensions>
      </trkpt>
      <trkpt lat="52.08639420568943023681640625" lon="1.3159951753914356231689453125">
        <ele>48.59999847412109375</ele>
        <time>2025-09-05T13:23:18.000Z</time>
        <extensions>
          <ns3:TrackPointExtension>
            <ns3:hr>173</ns3:hr>
            <ns3:cad>60</ns3:cad>
          </ns3:TrackPointExtension>
        </extensions>
      </trkpt>
      <trkpt lat="52.08643267862498760223388671875" lon="1.316009424626827239990234375">
        <ele>50</ele>
        <time>2025-09-05T13:23:21.000Z</time>
        <extensions>
          <ns3:TrackPointExtension>
            <ns3:hr>171</ns3:hr>
            <ns3:cad>58</ns3:cad>
          </ns3:TrackPointExtension>
        </extensions>
      </trkpt>
      <trkpt lat="52.08649621345102787017822265625" lon="1.31603733636438846588134765625">
        <ele>51.200000762939453125</ele>
        <time>2025-09-05T13:23:24.000Z</time>
        <extensions>
          <ns3:TrackPointExtension>
            <ns3:hr>169</ns3:hr>
            <ns3:cad>55</ns3:cad>
          </ns3:TrackPointExtension>
        </extensions>
      </trkpt>
      <trkpt lat="52.08657165057957172393798828125" lon="1.3160558603703975677490234375">
        <ele>52.799999237060546875</ele>
        <time>2025-09-05T13:23:27.000Z</time>
        <extensions>
          <ns3:TrackPointExtension>
            <ns3:hr>170</ns3:hr>
            <ns3:cad>80</ns3:cad>
          </ns3:TrackPointExtension>
        </extensions>
      </trkpt>
      <trkpt lat="52.08662043325603008270263671875" lon="1.31607153452932834625244140625">
        <ele>53.799999237060546875</ele>
        <time>2025-09-05T13:23:29.000Z</time>
        <extensions>
          <ns3:TrackPointExtension>
            <ns3:hr>170</ns3:hr>
            <ns3:cad>80</ns3:cad>
          </ns3:TrackPointExtension>
        </extensions>
      </trkpt>
      <trkpt lat="52.0866676233708858489990234375" lon="1.31608259864151477813720703125">
        <ele>54.799999237060546875</ele>
        <time>2025-09-05T13:23:31.000Z</time>
        <extensions>
          <ns3:TrackPointExtension>
            <ns3:hr>171</ns3:hr>
            <ns3:cad>82</ns3:cad>
          </ns3:TrackPointExtension>
        </extensions>
      </trkpt>
      <trkpt lat="52.0866926014423370361328125" lon="1.3160890527069568634033203125">
        <ele>55.40000152587890625</ele>
        <time>2025-09-05T13:23:32.000Z</time>
        <extensions>
          <ns3:TrackPointExtension>
            <ns3:hr>174</ns3:hr>
            <ns3:cad>82</ns3:cad>
          </ns3:TrackPointExtension>
        </extensions>
      </trkpt>
      <trkpt lat="52.08671565167605876922607421875" lon="1.316101290285587310791015625">
        <ele>55.799999237060546875</ele>
        <time>2025-09-05T13:23:33.000Z</time>
        <extensions>
          <ns3:TrackPointExtension>
            <ns3:hr>175</ns3:hr>
            <ns3:cad>82</ns3:cad>
          </ns3:TrackPointExtension>
        </extensions>
      </trkpt>
      <trkpt lat="52.0867611654102802276611328125" lon="1.31611947901546955108642578125">
        <ele>57</ele>
        <time>2025-09-05T13:23:35.000Z</time>
        <extensions>
          <ns3:TrackPointExtension>
            <ns3:hr>179</ns3:hr>
            <ns3:cad>82</ns3:cad>
          </ns3:TrackPointExtension>
        </extensions>
      </trkpt>
      <trkpt lat="52.08680701442062854766845703125" lon="1.31613875739276409149169921875">
        <ele>58</ele>
        <time>2025-09-05T13:23:37.000Z</time>
        <extensions>
          <ns3:TrackPointExtension>
            <ns3:hr>181</ns3:hr>
            <ns3:cad>82</ns3:cad>
          </ns3:TrackPointExtension>
        </extensions>
      </trkpt>
      <trkpt lat="52.08682931028306484222412109375" lon="1.31615124642848968505859375">
        <ele>58.59999847412109375</ele>
        <time>2025-09-05T13:23:38.000Z</time>
        <extensions>
          <ns3:TrackPointExtension>
            <ns3:hr>176</ns3:hr>
            <ns3:cad>82</ns3:cad>
          </ns3:TrackPointExtension>
        </extensions>
      </trkpt>
      <trkpt lat="52.086851187050342559814453125" lon="1.3161651603877544403076171875">
        <ele>59.200000762939453125</ele>
        <time>2025-09-05T13:23:39.000Z</time>
        <extensions>
          <ns3:TrackPointExtension>
            <ns3:hr>178</ns3:hr>
            <ns3:cad>83</ns3:cad>
          </ns3:TrackPointExtension>
        </extensions>
      </trkpt>
      <trkpt lat="52.0868728123605251312255859375" lon="1.31618049927055835723876953125">
        <ele>59.799999237060546875</ele>
        <time>2025-09-05T13:23:40.000Z</time>
        <extensions>
          <ns3:TrackPointExtension>
            <ns3:hr>178</ns3:hr>
            <ns3:cad>83</ns3:cad>
          </ns3:TrackPointExtension>
        </extensions>
      </trkpt>
      <trkpt lat="52.08689569495618343353271484375" lon="1.31619407795369625091552734375">
        <ele>60.40000152587890625</ele>
        <time>2025-09-05T13:23:41.000Z</time>
        <extensions>
          <ns3:TrackPointExtension>
            <ns3:hr>177</ns3:hr>
            <ns3:cad>83</ns3:cad>
          </ns3:TrackPointExtension>
        </extensions>
      </trkpt>
      <trkpt lat="52.08694011904299259185791015625" lon="1.3162147812545299530029296875">
        <ele>61.59999847412109375</ele>
        <time>2025-09-05T13:23:43.000Z</time>
        <extensions>
          <ns3:TrackPointExtension>
            <ns3:hr>177</ns3:hr>
            <ns3:cad>82</ns3:cad>
          </ns3:TrackPointExtension>
        </extensions>
      </trkpt>
      <trkpt lat="52.0869831182062625885009765625" lon="1.31623037159442901611328125">
        <ele>63</ele>
        <time>2025-09-05T13:23:45.000Z</time>
        <extensions>
          <ns3:TrackPointExtension>
            <ns3:hr>177</ns3:hr>
            <ns3:cad>82</ns3:cad>
          </ns3:TrackPointExtension>
        </extensions>
      </trkpt>
      <trkpt lat="52.08702108822762966156005859375" lon="1.31624772213399410247802734375">
        <ele>64.40000152587890625</ele>
        <time>2025-09-05T13:23:47.000Z</time>
        <extensions>
          <ns3:TrackPointExtension>
            <ns3:hr>176</ns3:hr>
            <ns3:cad>82</ns3:cad>
          </ns3:TrackPointExtension>
        </extensions>
      </trkpt>
      <trkpt lat="52.08706601522862911224365234375" lon="1.31625660695135593414306640625">
        <ele>65.59999847412109375</ele>
        <time>2025-09-05T13:23:49.000Z</time>
        <extensions>
          <ns3:TrackPointExtension>
            <ns3:hr>175</ns3:hr>
            <ns3:cad>82</ns3:cad>
          </ns3:TrackPointExtension>
        </extensions>
      </trkpt>
      <trkpt lat="52.0871132053434848785400390625" lon="1.31627420894801616668701171875">
        <ele>67</ele>
        <time>2025-09-05T13:23:51.000Z</time>
        <extensions>
          <ns3:TrackPointExtension>
            <ns3:hr>174</ns3:hr>
            <ns3:cad>82</ns3:cad>
          </ns3:TrackPointExtension>
        </extensions>
      </trkpt>
      <trkpt lat="52.08715385757386684417724609375" lon="1.31629114039242267608642578125">
        <ele>68.1999969482421875</ele>
        <time>2025-09-05T13:23:53.000Z</time>
        <extensions>
          <ns3:TrackPointExtension>
            <ns3:hr>174</ns3:hr>
            <ns3:cad>81</ns3:cad>
          </ns3:TrackPointExtension>
        </extensions>
      </trkpt>
      <trkpt lat="52.08719375543296337127685546875" lon="1.31630480289459228515625">
        <ele>69.40000152587890625</ele>
        <time>2025-09-05T13:23:55.000Z</time>
        <extensions>
          <ns3:TrackPointExtension>
            <ns3:hr>174</ns3:hr>
            <ns3:cad>81</ns3:cad>
          </ns3:TrackPointExtension>
        </extensions>
      </trkpt>
      <trkpt lat="52.08721437491476535797119140625" lon="1.3163146935403347015380859375">
        <ele>70</ele>
        <time>2025-09-05T13:23:56.000Z</time>
        <extensions>
          <ns3:TrackPointExtension>
            <ns3:hr>174</ns3:hr>
            <ns3:cad>81</ns3:cad>
          </ns3:TrackPointExtension>
        </extensions>
      </trkpt>
      <trkpt lat="52.08723650313913822174072265625" lon="1.31632248871028423309326171875">
        <ele>70.59999847412109375</ele>
        <time>2025-09-05T13:23:57.000Z</time>
        <extensions>
          <ns3:TrackPointExtension>
            <ns3:hr>173</ns3:hr>
            <ns3:cad>81</ns3:cad>
          </ns3:TrackPointExtension>
        </extensions>
      </trkpt>
      <trkpt lat="52.08727673627436161041259765625" lon="1.3163438625633716583251953125">
        <ele>71.8000030517578125</ele>
        <time>2025-09-05T13:23:59.000Z</time>
        <extensions>
          <ns3:TrackPointExtension>
            <ns3:hr>175</ns3:hr>
            <ns3:cad>81</ns3:cad>
          </ns3:TrackPointExtension>
        </extensions>
      </trkpt>
      <trkpt lat="52.0873250998556613922119140625" lon="1.3163653202354907989501953125">
        <ele>73</ele>
        <time>2025-09-05T13:24:01.000Z</time>
        <extensions>
          <ns3:TrackPointExtension>
            <ns3:hr>176</ns3:hr>
            <ns3:cad>81</ns3:cad>
          </ns3:TrackPointExtension>
        </extensions>
      </trkpt>
      <trkpt lat="52.087367512285709381103515625" lon="1.31640748120844364166259765625">
        <ele>74.1999969482421875</ele>
        <time>2025-09-05T13:24:03.000Z</time>
        <extensions>
          <ns3:TrackPointExtension>
            <ns3:hr>177</ns3:hr>
            <ns3:cad>80</ns3:cad>
          </ns3:TrackPointExtension>
        </extensions>
      </trkpt>
      <trkpt lat="52.08740129135549068450927734375" lon="1.31646498106420040130615234375">
        <ele>75.1999969482421875</ele>
        <time>2025-09-05T13:24:05.000Z</time>
        <extensions>
          <ns3:TrackPointExtension>
            <ns3:hr>177</ns3:hr>
            <ns3:cad>79</ns3:cad>
          </ns3:TrackPointExtension>
        </extensions>
      </trkpt>
      <trkpt lat="52.08742953836917877197265625" lon="1.3165037892758846282958984375">
        <ele>76.40000152587890625</ele>
        <time>2025-09-05T13:24:07.000Z</time>
        <extensions>
          <ns3:TrackPointExtension>
            <ns3:hr>177</ns3:hr>
            <ns3:cad>79</ns3:cad>
          </ns3:TrackPointExtension>
        </extensions>
      </trkpt>
      <trkpt lat="52.08745979703962802886962890625" lon="1.31653077900409698486328125">
        <ele>77.40000152587890625</ele>
        <time>2025-09-05T13:24:09.000Z</time>
        <extensions>
          <ns3:TrackPointExtension>
            <ns3:hr>177</ns3:hr>
            <ns3:cad>81</ns3:cad>
          </ns3:TrackPointExtension>
        </extensions>
      </trkpt>
      <trkpt lat="52.087497599422931671142578125" lon="1.3165403343737125396728515625">
        <ele>78.59999847412109375</ele>
        <time>2025-09-05T13:24:11.000Z</time>
        <extensions>
          <ns3:TrackPointExtension>
            <ns3:hr>177</ns3:hr>
            <ns3:cad>81</ns3:cad>
          </ns3:TrackPointExtension>
        </extensions>
      </trkpt>
      <trkpt lat="52.0875202305614948272705078125" lon="1.31654745899140834808349609375">
        <ele>79</ele>
        <time>2025-09-05T13:24:12.000Z</time>
        <extensions>
          <ns3:TrackPointExtension>
            <ns3:hr>177</ns3:hr>
            <ns3:cad>81</ns3:cad>
          </ns3:TrackPointExtension>
        </extensions>
      </trkpt>
      <trkpt lat="52.08754462189972400665283203125" lon="1.3165534101426601409912109375">
        <ele>79.59999847412109375</ele>
        <time>2025-09-05T13:24:13.000Z</time>
        <extensions>
          <ns3:TrackPointExtension>
            <ns3:hr>177</ns3:hr>
            <ns3:cad>80</ns3:cad>
          </ns3:TrackPointExtension>
        </extensions>
      </trkpt>
      <trkpt lat="52.0875956676900386810302734375" lon="1.31656170822679996490478515625">
        <ele>80.59999847412109375</ele>
        <time>2025-09-05T13:24:15.000Z</time>
        <extensions>
          <ns3:TrackPointExtension>
            <ns3:hr>177</ns3:hr>
            <ns3:cad>80</ns3:cad>
          </ns3:TrackPointExtension>
        </extensions>
      </trkpt>
      <trkpt lat="52.08766783587634563446044921875" lon="1.3165641389787197113037109375">
        <ele>82.1999969482421875</ele>
        <time>2025-09-05T13:24:18.000Z</time>
        <extensions>
          <ns3:TrackPointExtension>
            <ns3:hr>176</ns3:hr>
            <ns3:cad>81</ns3:cad>
          </ns3:TrackPointExtension>
        </extensions>
      </trkpt>
      <trkpt lat="52.08769449032843112945556640625" lon="1.316560618579387664794921875">
        <ele>82.59999847412109375</ele>
        <time>2025-09-05T13:24:19.000Z</time>
        <extensions>
          <ns3:TrackPointExtension>
            <ns3:hr>176</ns3:hr>
            <ns3:cad>81</ns3:cad>
          </ns3:TrackPointExtension>
        </extensions>
      </trkpt>
      <trkpt lat="52.0877425186336040496826171875" lon="1.316564641892910003662109375">
        <ele>83.59999847412109375</ele>
        <time>2025-09-05T13:24:21.000Z</time>
        <extensions>
          <ns3:TrackPointExtension>
            <ns3:hr>178</ns3:hr>
            <ns3:cad>81</ns3:cad>
          </ns3:TrackPointExtension>
        </extensions>
      </trkpt>
      <trkpt lat="52.08780731074512004852294921875" lon="1.31657444871962070465087890625">
        <ele>85</ele>
        <time>2025-09-05T13:24:24.000Z</time>
        <extensions>
          <ns3:TrackPointExtension>
            <ns3:hr>178</ns3:hr>
            <ns3:cad>81</ns3:cad>
          </ns3:TrackPointExtension>
        </extensions>
      </trkpt>
      <trkpt lat="52.087858021259307861328125" lon="1.3166167773306369781494140625">
        <ele>86.40000152587890625</ele>
        <time>2025-09-05T13:24:27.000Z</time>
        <extensions>
          <ns3:TrackPointExtension>
            <ns3:hr>177</ns3:hr>
            <ns3:cad>80</ns3:cad>
          </ns3:TrackPointExtension>
        </extensions>
      </trkpt>
      <trkpt lat="52.0878995954990386962890625" lon="1.3166065514087677001953125">
        <ele>88</ele>
        <time>2025-09-05T13:24:30.000Z</time>
        <extensions>
          <ns3:TrackPointExtension>
            <ns3:hr>178</ns3:hr>
            <ns3:cad>79</ns3:cad>
          </ns3:TrackPointExtension>
        </extensions>
      </trkpt>
      <trkpt lat="52.08791493438184261322021484375" lon="1.31657813675701618194580078125">
        <ele>89</ele>
        <time>2025-09-05T13:24:32.000Z</time>
        <extensions>
          <ns3:TrackPointExtension>
            <ns3:hr>178</ns3:hr>
            <ns3:cad>79</ns3:cad>
          </ns3:TrackPointExtension>
        </extensions>
      </trkpt>
      <trkpt lat="52.08793069235980510711669921875" lon="1.31655533798038959503173828125">
        <ele>90.1999969482421875</ele>
        <time>2025-09-05T13:24:34.000Z</time>
        <extensions>
          <ns3:TrackPointExtension>
            <ns3:hr>179</ns3:hr>
            <ns3:cad>79</ns3:cad>
          </ns3:TrackPointExtension>
        </extensions>
      </trkpt>
      <trkpt lat="52.0879453606903553009033203125" lon="1.31652566604316234588623046875">
        <ele>91.1999969482421875</ele>
        <time>2025-09-05T13:24:36.000Z</time>
        <extensions>
          <ns3:TrackPointExtension>
            <ns3:hr>181</ns3:hr>
            <ns3:cad>61</ns3:cad>
          </ns3:TrackPointExtension>
        </extensions>
      </trkpt>
      <trkpt lat="52.08795801736414432525634765625" lon="1.3165161944925785064697265625">
        <ele>91.8000030517578125</ele>
        <time>2025-09-05T13:24:37.000Z</time>
        <extensions>
          <ns3:TrackPointExtension>
            <ns3:hr>182</ns3:hr>
            <ns3:cad>61</ns3:cad>
          </ns3:TrackPointExtension>
        </extensions>
      </trkpt>
      <trkpt lat="52.0879661478102207183837890625" lon="1.316519714891910552978515625">
        <ele>92.40000152587890625</ele>
        <time>2025-09-05T13:24:38.000Z</time>
        <extensions>
          <ns3:TrackPointExtension>
            <ns3:hr>182</ns3:hr>
            <ns3:cad>58</ns3:cad>
          </ns3:TrackPointExtension>
        </extensions>
      </trkpt>
      <trkpt lat="52.08797930739820003509521484375" lon="1.31652700714766979217529296875">
        <ele>93</ele>
        <time>2025-09-05T13:24:39.000Z</time>
        <extensions>
          <ns3:TrackPointExtension>
            <ns3:hr>182</ns3:hr>
            <ns3:cad>57</ns3:cad>
          </ns3:TrackPointExtension>
        </extensions>
      </trkpt>
      <trkpt lat="52.08799414336681365966796875" lon="1.316536478698253631591796875">
        <ele>93.40000152587890625</ele>
        <time>2025-09-05T13:24:40.000Z</time>
        <extensions>
          <ns3:TrackPointExtension>
            <ns3:hr>181</ns3:hr>
            <ns3:cad>57</ns3:cad>
          </ns3:TrackPointExtension>
        </extensions>
      </trkpt>
      <trkpt lat="52.08803026936948299407958984375" lon="1.31655089557170867919921875">
        <ele>94.59999847412109375</ele>
        <time>2025-09-05T13:24:42.000Z</time>
        <extensions>
          <ns3:TrackPointExtension>
            <ns3:hr>181</ns3:hr>
            <ns3:cad>57</ns3:cad>
          </ns3:TrackPointExtension>
        </extensions>
      </trkpt>
      <trkpt lat="52.08807033486664295196533203125" lon="1.3165569305419921875">
        <ele>95.8000030517578125</ele>
        <time>2025-09-05T13:24:44.000Z</time>
        <extensions>
          <ns3:TrackPointExtension>
            <ns3:hr>177</ns3:hr>
            <ns3:cad>78</ns3:cad>
          </ns3:TrackPointExtension>
        </extensions>
      </trkpt>
      <trkpt lat="52.088115848600864410400390625" lon="1.3165678270161151885986328125">
        <ele>97</ele>
        <time>2025-09-05T13:24:46.000Z</time>
        <extensions>
          <ns3:TrackPointExtension>
            <ns3:hr>178</ns3:hr>
            <ns3:cad>80</ns3:cad>
          </ns3:TrackPointExtension>
        </extensions>
      </trkpt>
      <trkpt lat="52.08815113641321659088134765625" lon="1.3165936432778835296630859375">
        <ele>98</ele>
        <time>2025-09-05T13:24:48.000Z</time>
        <extensions>
          <ns3:TrackPointExtension>
            <ns3:hr>177</ns3:hr>
            <ns3:cad>81</ns3:cad>
          </ns3:TrackPointExtension>
        </extensions>
      </trkpt>
      <trkpt lat="52.08818189799785614013671875" lon="1.31662197411060333251953125">
        <ele>99.1999969482421875</ele>
        <time>2025-09-05T13:24:50.000Z</time>
        <extensions>
          <ns3:TrackPointExtension>
            <ns3:hr>174</ns3:hr>
            <ns3:cad>81</ns3:cad>
          </ns3:TrackPointExtension>
        </extensions>
      </trkpt>
      <trkpt lat="52.088221125304698944091796875" lon="1.31665307097136974334716796875">
        <ele>100</ele>
        <time>2025-09-05T13:24:52.000Z</time>
        <extensions>
          <ns3:TrackPointExtension>
            <ns3:hr>177</ns3:hr>
            <ns3:cad>80</ns3:cad>
          </ns3:TrackPointExtension>
        </extensions>
      </trkpt>
      <trkpt lat="52.08824635483324527740478515625" lon="1.316666565835475921630859375">
        <ele>100.59999847412109375</ele>
        <time>2025-09-05T13:24:53.000Z</time>
        <extensions>
          <ns3:TrackPointExtension>
            <ns3:hr>177</ns3:hr>
            <ns3:cad>80</ns3:cad>
          </ns3:TrackPointExtension>
        </extensions>
      </trkpt>
      <trkpt lat="52.088308297097682952880859375" lon="1.3167084753513336181640625">
        <ele>101.59999847412109375</ele>
        <time>2025-09-05T13:24:56.000Z</time>
        <extensions>
          <ns3:TrackPointExtension>
            <ns3:hr>182</ns3:hr>
            <ns3:cad>81</ns3:cad>
          </ns3:TrackPointExtension>
        </extensions>
      </trkpt>
      <trkpt lat="52.08836839534342288970947265625" lon="1.31673973985016345977783203125">
        <ele>101.59999847412109375</ele>
        <time>2025-09-05T13:24:59.000Z</time>
        <extensions>
          <ns3:TrackPointExtension>
            <ns3:hr>186</ns3:hr>
            <ns3:cad>81</ns3:cad>
          </ns3:TrackPointExtension>
        </extensions>
      </trkpt>
      <trkpt lat="52.08838482387363910675048828125" lon="1.31674678064882755279541015625">
        <ele>101.40000152587890625</ele>
        <time>2025-09-05T13:25:00.000Z</time>
        <extensions>
          <ns3:TrackPointExtension>
            <ns3:hr>187</ns3:hr>
            <ns3:cad>81</ns3:cad>
          </ns3:TrackPointExtension>
        </extensions>
      </trkpt>
      <trkpt lat="52.08847559988498687744140625" lon="1.3168015144765377044677734375">
        <ele>100.8000030517578125</ele>
        <time>2025-09-05T13:25:07.000Z</time>
        <extensions>
          <ns3:TrackPointExtension>
            <ns3:hr>188</ns3:hr>
            <ns3:cad>81</ns3:cad>
          </ns3:TrackPointExtension>
        </extensions>
      </trkpt>
      <trkpt lat="52.08851826377213001251220703125" lon="1.31683026440441608428955078125">
        <ele>100.59999847412109375</ele>
        <time>2025-09-05T13:25:10.000Z</time>
        <extensions>
          <ns3:TrackPointExtension>
            <ns3:hr>191</ns3:hr>
            <ns3:cad>60</ns3:cad>
          </ns3:TrackPointExtension>
        </extensions>
      </trkpt>
      <trkpt lat="52.088573165237903594970703125" lon="1.31688080728054046630859375">
        <ele>100.1999969482421875</ele>
        <time>2025-09-05T13:25:15.000Z</time>
        <extensions>
          <ns3:TrackPointExtension>
            <ns3:hr>188</ns3:hr>
            <ns3:cad>57</ns3:cad>
          </ns3:TrackPointExtension>
        </extensions>
      </trkpt>
      <trkpt lat="52.08858230151236057281494140625" lon="1.31689078174531459808349609375">
        <ele>100</ele>
        <time>2025-09-05T13:25:16.000Z</time>
        <extensions>
          <ns3:TrackPointExtension>
            <ns3:hr>187</ns3:hr>
            <ns3:cad>57</ns3:cad>
          </ns3:TrackPointExtension>
        </extensions>
      </trkpt>
      <trkpt lat="52.08864298649132251739501953125" lon="1.3169373013079166412353515625">
        <ele>99.8000030517578125</ele>
        <time>2025-09-05T13:25:20.000Z</time>
        <extensions>
          <ns3:TrackPointExtension>
            <ns3:hr>184</ns3:hr>
            <ns3:cad>57</ns3:cad>
          </ns3:TrackPointExtension>
        </extensions>
      </trkpt>
      <trkpt lat="52.08870886825025081634521484375" lon="1.31697862409055233001708984375">
        <ele>99.8000030517578125</ele>
        <time>2025-09-05T13:25:23.000Z</time>
        <extensions>
          <ns3:TrackPointExtension>
            <ns3:hr>184</ns3:hr>
            <ns3:cad>78</ns3:cad>
          </ns3:TrackPointExtension>
        </extensions>
      </trkpt>
      <trkpt lat="52.08875513635575771331787109375" lon="1.31701148115098476409912109375">
        <ele>100</ele>
        <time>2025-09-05T13:25:25.000Z</time>
        <extensions>
          <ns3:TrackPointExtension>
            <ns3:hr>181</ns3:hr>
            <ns3:cad>80</ns3:cad>
          </ns3:TrackPointExtension>
        </extensions>
      </trkpt>
      <trkpt lat="52.08877994678914546966552734375" lon="1.31702807731926441192626953125">
        <ele>100.1999969482421875</ele>
        <time>2025-09-05T13:25:26.000Z</time>
        <extensions>
          <ns3:TrackPointExtension>
            <ns3:hr>176</ns3:hr>
            <ns3:cad>81</ns3:cad>
          </ns3:TrackPointExtension>
        </extensions>
      </trkpt>
      <trkpt lat="52.08880391903221607208251953125" lon="1.31704266183078289031982421875">
        <ele>100.40000152587890625</ele>
        <time>2025-09-05T13:25:27.000Z</time>
        <extensions>
          <ns3:TrackPointExtension>
            <ns3:hr>173</ns3:hr>
            <ns3:cad>81</ns3:cad>
          </ns3:TrackPointExtension>
        </extensions>
      </trkpt>
      <trkpt lat="52.08890098147094249725341796875" lon="1.31709278561174869537353515625">
        <ele>101.8000030517578125</ele>
        <time>2025-09-05T13:25:31.000Z</time>
        <extensions>
          <ns3:TrackPointExtension>
            <ns3:hr>172</ns3:hr>
            <ns3:cad>81</ns3:cad>
          </ns3:TrackPointExtension>
        </extensions>
      </trkpt>
      <trkpt lat="52.088970132172107696533203125" lon="1.31713117472827434539794921875">
        <ele>103</ele>
        <time>2025-09-05T13:25:34.000Z</time>
        <extensions>
          <ns3:TrackPointExtension>
            <ns3:hr>169</ns3:hr>
            <ns3:cad>81</ns3:cad>
          </ns3:TrackPointExtension>
        </extensions>
      </trkpt>
      <trkpt lat="52.08901380188763141632080078125" lon="1.31716051138937473297119140625">
        <ele>103.8000030517578125</ele>
        <time>2025-09-05T13:25:36.000Z</time>
        <extensions>
          <ns3:TrackPointExtension>
            <ns3:hr>172</ns3:hr>
            <ns3:cad>81</ns3:cad>
          </ns3:TrackPointExtension>
        </extensions>
      </trkpt>
      <trkpt lat="52.08903626538813114166259765625" lon="1.317171156406402587890625">
        <ele>104.1999969482421875</ele>
        <time>2025-09-05T13:25:37.000Z</time>
        <extensions>
          <ns3:TrackPointExtension>
            <ns3:hr>172</ns3:hr>
            <ns3:cad>81</ns3:cad>
          </ns3:TrackPointExtension>
        </extensions>
      </trkpt>
      <trkpt lat="52.08907012827694416046142578125" lon="1.3171964697539806365966796875">
        <ele>105.1999969482421875</ele>
        <time>2025-09-05T13:25:39.000Z</time>
        <extensions>
          <ns3:TrackPointExtension>
            <ns3:hr>175</ns3:hr>
            <ns3:cad>81</ns3:cad>
          </ns3:TrackPointExtension>
        </extensions>
      </trkpt>
      <trkpt lat="52.08909007720649242401123046875" lon="1.3172102160751819610595703125">
        <ele>105.8000030517578125</ele>
        <time>2025-09-05T13:25:40.000Z</time>
        <extensions>
          <ns3:TrackPointExtension>
            <ns3:hr>177</ns3:hr>
            <ns3:cad>82</ns3:cad>
          </ns3:TrackPointExtension>
        </extensions>
      </trkpt>
      <trkpt lat="52.08914791233837604522705078125" lon="1.31727148778736591339111328125">
        <ele>107.40000152587890625</ele>
        <time>2025-09-05T13:25:43.000Z</time>
        <extensions>
          <ns3:TrackPointExtension>
            <ns3:hr>178</ns3:hr>
            <ns3:cad>82</ns3:cad>
          </ns3:TrackPointExtension>
        </extensions>
      </trkpt>
      <trkpt lat="52.08917926065623760223388671875" lon="1.31731876172125339508056640625">
        <ele>108.59999847412109375</ele>
        <time>2025-09-05T13:25:45.000Z</time>
        <extensions>
          <ns3:TrackPointExtension>
            <ns3:hr>180</ns3:hr>
            <ns3:cad>81</ns3:cad>
          </ns3:TrackPointExtension>
        </extensions>
      </trkpt>
      <trkpt lat="52.08921446464955806732177734375" lon="1.31736989133059978485107421875">
        <ele>109.8000030517578125</ele>
        <time>2025-09-05T13:25:47.000Z</time>
        <extensions>
          <ns3:TrackPointExtension>
            <ns3:hr>182</ns3:hr>
            <ns3:cad>80</ns3:cad>
          </ns3:TrackPointExtension>
        </extensions>
      </trkpt>
      <trkpt lat="52.0892465673387050628662109375" lon="1.3174174167215824127197265625">
        <ele>111.1999969482421875</ele>
        <time>2025-09-05T13:25:49.000Z</time>
        <extensions>
          <ns3:TrackPointExtension>
            <ns3:hr>180</ns3:hr>
            <ns3:cad>80</ns3:cad>
          </ns3:TrackPointExtension>
        </extensions>
      </trkpt>
      <trkpt lat="52.08927716128528118133544921875" lon="1.31747416220605373382568359375">
        <ele>112.59999847412109375</ele>
        <time>2025-09-05T13:25:51.000Z</time>
        <extensions>
          <ns3:TrackPointExtension>
            <ns3:hr>181</ns3:hr>
            <ns3:cad>81</ns3:cad>
          </ns3:TrackPointExtension>
        </extensions>
      </trkpt>
      <trkpt lat="52.08930867724120616912841796875" lon="1.31753861904144287109375">
        <ele>114.1999969482421875</ele>
        <time>2025-09-05T13:25:53.000Z</time>
        <extensions>
          <ns3:TrackPointExtension>
            <ns3:hr>182</ns3:hr>
            <ns3:cad>81</ns3:cad>
          </ns3:TrackPointExtension>
        </extensions>
      </trkpt>
      <trkpt lat="52.08934203721582889556884765625" lon="1.317591257393360137939453125">
        <ele>115.59999847412109375</ele>
        <time>2025-09-05T13:25:55.000Z</time>
        <extensions>
          <ns3:TrackPointExtension>
            <ns3:hr>183</ns3:hr>
            <ns3:cad>82</ns3:cad>
          </ns3:TrackPointExtension>
        </extensions>
      </trkpt>
      <trkpt lat="52.089370451867580413818359375" lon="1.31764062680304050445556640625">
        <ele>117.1999969482421875</ele>
        <time>2025-09-05T13:25:57.000Z</time>
        <extensions>
          <ns3:TrackPointExtension>
            <ns3:hr>181</ns3:hr>
            <ns3:cad>80</ns3:cad>
          </ns3:TrackPointExtension>
        </extensions>
      </trkpt>
      <trkpt lat="52.08938931114971637725830078125" lon="1.31769879721105098724365234375">
        <ele>118.8000030517578125</ele>
        <time>2025-09-05T13:25:59.000Z</time>
        <extensions>
          <ns3:TrackPointExtension>
            <ns3:hr>179</ns3:hr>
            <ns3:cad>80</ns3:cad>
          </ns3:TrackPointExtension>
        </extensions>
      </trkpt>
      <trkpt lat="52.08939685486257076263427734375" lon="1.31774288602173328399658203125">
        <ele>120.40000152587890625</ele>
        <time>2025-09-05T13:26:01.000Z</time>
        <extensions>
          <ns3:TrackPointExtension>
            <ns3:hr>176</ns3:hr>
            <ns3:cad>81</ns3:cad>
          </ns3:TrackPointExtension>
        </extensions>
      </trkpt>
      <trkpt lat="52.08940087817609310150146484375" lon="1.31775897927582263946533203125">
        <ele>121.1999969482421875</ele>
        <time>2025-09-05T13:26:02.000Z</time>
        <extensions>
          <ns3:TrackPointExtension>
            <ns3:hr>176</ns3:hr>
            <ns3:cad>81</ns3:cad>
          </ns3:TrackPointExtension>
        </extensions>
      </trkpt>
      <trkpt lat="52.089402973651885986328125" lon="1.3177738152444362640380859375">
        <ele>122</ele>
        <time>2025-09-05T13:26:03.000Z</time>
        <extensions>
          <ns3:TrackPointExtension>
            <ns3:hr>174</ns3:hr>
            <ns3:cad>81</ns3:cad>
          </ns3:TrackPointExtension>
        </extensions>
      </trkpt>
      <trkpt lat="52.0894018001854419708251953125" lon="1.31780105642974376678466796875">
        <ele>123.40000152587890625</ele>
        <time>2025-09-05T13:26:05.000Z</time>
        <extensions>
          <ns3:TrackPointExtension>
            <ns3:hr>172</ns3:hr>
            <ns3:cad>81</ns3:cad>
          </ns3:TrackPointExtension>
        </extensions>
      </trkpt>
      <trkpt lat="52.08937992341816425323486328125" lon="1.317806504666805267333984375">
        <ele>125</ele>
        <time>2025-09-05T13:26:07.000Z</time>
        <extensions>
          <ns3:TrackPointExtension>
            <ns3:hr>172</ns3:hr>
            <ns3:cad>0</ns3:cad>
          </ns3:TrackPointExtension>
        </extensions>
      </trkpt>
      <trkpt lat="52.0893801748752593994140625" lon="1.317803151905536651611328125">
        <ele>125.8000030517578125</ele>
        <time>2025-09-05T13:26:08.000Z</time>
        <extensions>
          <ns3:TrackPointExtension>
            <ns3:hr>173</ns3:hr>
            <ns3:cad>0</ns3:cad>
          </ns3:TrackPointExtension>
        </extensions>
      </trkpt>
      <trkpt lat="52.08937489427626132965087890625" lon="1.317800469696521759033203125">
        <ele>126.59999847412109375</ele>
        <time>2025-09-05T13:26:09.000Z</time>
        <extensions>
          <ns3:TrackPointExtension>
            <ns3:hr>173</ns3:hr>
            <ns3:cad>0</ns3:cad>
          </ns3:TrackPointExtension>
        </extensions>
      </trkpt>
      <trkpt lat="52.089371122419834136962890625" lon="1.31778605282306671142578125">
        <ele>128.1999969482421875</ele>
        <time>2025-09-05T13:26:11.000Z</time>
        <extensions>
          <ns3:TrackPointExtension>
            <ns3:hr>174</ns3:hr>
            <ns3:cad>0</ns3:cad>
          </ns3:TrackPointExtension>
        </extensions>
      </trkpt>
      <trkpt lat="52.08936785347759723663330078125" lon="1.3177798502147197723388671875">
        <ele>129.8000030517578125</ele>
        <time>2025-09-05T13:26:13.000Z</time>
        <extensions>
          <ns3:TrackPointExtension>
            <ns3:cad>0</ns3:cad>
          </ns3:TrackPointExtension>
        </extensions>
      </trkpt>
      <trkpt lat="52.08936684764921665191650390625" lon="1.31777926348149776458740234375">
        <ele>131.399993896484375</ele>
        <time>2025-09-05T13:26:15.000Z</time>
        <extensions>
          <ns3:TrackPointExtension>
            <ns3:hr>173</ns3:hr>
            <ns3:cad>0</ns3:cad>
          </ns3:TrackPointExtension>
        </extensions>
      </trkpt>
      <trkpt lat="52.08936735056340694427490234375" lon="1.3177724741399288177490234375">
        <ele>132.600006103515625</ele>
        <time>2025-09-05T13:26:17.000Z</time>
        <extensions>
          <ns3:TrackPointExtension>
            <ns3:hr>171</ns3:hr>
            <ns3:cad>0</ns3:cad>
          </ns3:TrackPointExtension>
        </extensions>
      </trkpt>
      <trkpt lat="52.0893722958862781524658203125" lon="1.3177684508264064788818359375">
        <ele>133.8000030517578125</ele>
        <time>2025-09-05T13:26:19.000Z</time>
        <extensions>
          <ns3:TrackPointExtension>
            <ns3:hr>170</ns3:hr>
            <ns3:cad>0</ns3:cad>
          </ns3:TrackPointExtension>
        </extensions>
      </trkpt>
      <trkpt lat="52.089377157390117645263671875" lon="1.31776685826480388641357421875">
        <ele>132.1999969482421875</ele>
        <time>2025-09-05T13:26:21.000Z</time>
        <extensions>
          <ns3:TrackPointExtension>
            <ns3:hr>170</ns3:hr>
            <ns3:cad>0</ns3:cad>
          </ns3:TrackPointExtension>
        </extensions>
      </trkpt>
      <trkpt lat="52.0893820188939571380615234375" lon="1.31776392459869384765625">
        <ele>131.399993896484375</ele>
        <time>2025-09-05T13:26:22.000Z</time>
        <extensions>
          <ns3:TrackPointExtension>
            <ns3:hr>169</ns3:hr>
            <ns3:cad>0</ns3:cad>
          </ns3:TrackPointExtension>
        </extensions>
      </trkpt>
      <trkpt lat="52.08938545547425746917724609375" lon="1.31775747053325176239013671875">
        <ele>130.399993896484375</ele>
        <time>2025-09-05T13:26:23.000Z</time>
        <extensions>
          <ns3:TrackPointExtension>
            <ns3:hr>168</ns3:hr>
            <ns3:cad>0</ns3:cad>
          </ns3:TrackPointExtension>
        </extensions>
      </trkpt>
      <trkpt lat="52.0893863774836063385009765625" lon="1.31774439476430416107177734375">
        <ele>128.8000030517578125</ele>
        <time>2025-09-05T13:26:25.000Z</time>
        <extensions>
          <ns3:TrackPointExtension>
            <ns3:hr>167</ns3:hr>
            <ns3:cad>0</ns3:cad>
          </ns3:TrackPointExtension>
        </extensions>
      </trkpt>
      <trkpt lat="52.089410685002803802490234375" lon="1.3177473284304141998291015625">
        <ele>127.1999969482421875</ele>
        <time>2025-09-05T13:26:27.000Z</time>
        <extensions>
          <ns3:TrackPointExtension>
            <ns3:hr>167</ns3:hr>
            <ns3:cad>0</ns3:cad>
          </ns3:TrackPointExtension>
        </extensions>
      </trkpt>
      <trkpt lat="52.0894185639917850494384765625" lon="1.31775814108550548553466796875">
        <ele>125.40000152587890625</ele>
        <time>2025-09-05T13:26:29.000Z</time>
        <extensions>
          <ns3:TrackPointExtension>
            <ns3:hr>164</ns3:hr>
            <ns3:cad>0</ns3:cad>
          </ns3:TrackPointExtension>
        </extensions>
      </trkpt>
      <trkpt lat="52.08942468278110027313232421875" lon="1.31775093264877796173095703125">
        <ele>124</ele>
        <time>2025-09-05T13:26:31.000Z</time>
        <extensions>
          <ns3:TrackPointExtension>
            <ns3:hr>164</ns3:hr>
            <ns3:cad>0</ns3:cad>
          </ns3:TrackPointExtension>
        </extensions>
      </trkpt>
      <trkpt lat="52.0894289575517177581787109375" lon="1.317745149135589599609375">
        <ele>122.8000030517578125</ele>
        <time>2025-09-05T13:26:33.000Z</time>
        <extensions>
          <ns3:TrackPointExtension>
            <ns3:hr>163</ns3:hr>
            <ns3:cad>0</ns3:cad>
          </ns3:TrackPointExtension>
        </extensions>
      </trkpt>
      <trkpt lat="52.08942954428493976593017578125" lon="1.31774858571588993072509765625">
        <ele>121.59999847412109375</ele>
        <time>2025-09-05T13:26:35.000Z</time>
        <extensions>
          <ns3:TrackPointExtension>
            <ns3:hr>162</ns3:hr>
            <ns3:cad>0</ns3:cad>
          </ns3:TrackPointExtension>
        </extensions>
      </trkpt>
      <trkpt lat="52.089423425495624542236328125" lon="1.31775110028684139251708984375">
        <ele>120.59999847412109375</ele>
        <time>2025-09-05T13:26:37.000Z</time>
        <extensions>
          <ns3:TrackPointExtension>
            <ns3:hr>161</ns3:hr>
            <ns3:cad>0</ns3:cad>
          </ns3:TrackPointExtension>
        </extensions>
      </trkpt>
      <trkpt lat="52.08942250348627567291259765625" lon="1.3177500106394290924072265625">
        <ele>120.1999969482421875</ele>
        <time>2025-09-05T13:26:38.000Z</time>
        <extensions>
          <ns3:TrackPointExtension>
            <ns3:hr>161</ns3:hr>
            <ns3:cad>0</ns3:cad>
          </ns3:TrackPointExtension>
        </extensions>
      </trkpt>
      <trkpt lat="52.08940875716507434844970703125" lon="1.3177630864083766937255859375">
        <ele>119.40000152587890625</ele>
        <time>2025-09-05T13:26:40.000Z</time>
        <extensions>
          <ns3:TrackPointExtension>
            <ns3:hr>161</ns3:hr>
            <ns3:cad>0</ns3:cad>
          </ns3:TrackPointExtension>
        </extensions>
      </trkpt>
      <trkpt lat="52.0894007943570613861083984375" lon="1.3177741505205631256103515625">
        <ele>118.40000152587890625</ele>
        <time>2025-09-05T13:26:44.000Z</time>
        <extensions>
          <ns3:TrackPointExtension>
            <ns3:hr>160</ns3:hr>
            <ns3:cad>0</ns3:cad>
          </ns3:TrackPointExtension>
        </extensions>
      </trkpt>
      <trkpt lat="52.0893977768719196319580078125" lon="1.3177791796624660491943359375">
        <ele>117.8000030517578125</ele>
        <time>2025-09-05T13:26:46.000Z</time>
        <extensions>
          <ns3:TrackPointExtension>
            <ns3:hr>159</ns3:hr>
            <ns3:cad>0</ns3:cad>
          </ns3:TrackPointExtension>
        </extensions>
      </trkpt>
      <trkpt lat="52.08936835639178752899169921875" lon="1.31778848357498645782470703125">
        <ele>117.40000152587890625</ele>
        <time>2025-09-05T13:26:52.000Z</time>
        <extensions>
          <ns3:TrackPointExtension>
            <ns3:hr>156</ns3:hr>
            <ns3:cad>0</ns3:cad>
          </ns3:TrackPointExtension>
        </extensions>
      </trkpt>
      <trkpt lat="52.0893619023263454437255859375" lon="1.31778697483241558074951171875">
        <ele>117.59999847412109375</ele>
        <time>2025-09-05T13:26:54.000Z</time>
        <extensions>
          <ns3:TrackPointExtension>
            <ns3:hr>154</ns3:hr>
            <ns3:cad>0</ns3:cad>
          </ns3:TrackPointExtension>
        </extensions>
      </trkpt>
      <trkpt lat="52.0893491618335247039794921875" lon="1.31778202950954437255859375">
        <ele>118.8000030517578125</ele>
        <time>2025-09-05T13:27:00.000Z</time>
        <extensions>
          <ns3:TrackPointExtension>
            <ns3:hr>151</ns3:hr>
            <ns3:cad>0</ns3:cad>
          </ns3:TrackPointExtension>
        </extensions>
      </trkpt>
      <trkpt lat="52.08934538997709751129150390625" lon="1.3177821971476078033447265625">
        <ele>119.59999847412109375</ele>
        <time>2025-09-05T13:27:03.000Z</time>
        <extensions>
          <ns3:TrackPointExtension>
            <ns3:hr>147</ns3:hr>
            <ns3:cad>0</ns3:cad>
          </ns3:TrackPointExtension>
        </extensions>
      </trkpt>
      <trkpt lat="52.08934723399579524993896484375" lon="1.31778077222406864166259765625">
        <ele>120</ele>
        <time>2025-09-05T13:27:04.000Z</time>
        <extensions>
          <ns3:TrackPointExtension>
            <ns3:hr>150</ns3:hr>
            <ns3:cad>0</ns3:cad>
          </ns3:TrackPointExtension>
        </extensions>
      </trkpt>
      <trkpt lat="52.0893481560051441192626953125" lon="1.317780353128910064697265625">
        <ele>120.1999969482421875</ele>
        <time>2025-09-05T13:27:05.000Z</time>
        <extensions>
          <ns3:TrackPointExtension>
            <ns3:hr>147</ns3:hr>
            <ns3:cad>0</ns3:cad>
          </ns3:TrackPointExtension>
        </extensions>
      </trkpt>
      <trkpt lat="52.08934773690998554229736328125" lon="1.31778161041438579559326171875">
        <ele>120.59999847412109375</ele>
        <time>2025-09-05T13:27:06.000Z</time>
        <extensions>
          <ns3:TrackPointExtension>
            <ns3:hr>145</ns3:hr>
            <ns3:cad>0</ns3:cad>
          </ns3:TrackPointExtension>
        </extensions>
      </trkpt>
      <trkpt lat="52.08936550654470920562744140625" lon="1.31778026930987834930419921875">
        <ele>121.59999847412109375</ele>
        <time>2025-09-05T13:27:08.000Z</time>
        <extensions>
          <ns3:TrackPointExtension>
            <ns3:hr>141</ns3:hr>
            <ns3:cad>0</ns3:cad>
          </ns3:TrackPointExtension>
        </extensions>
      </trkpt>
      <trkpt lat="52.08937145769596099853515625" lon="1.3177778385579586029052734375">
        <ele>122</ele>
        <time>2025-09-05T13:27:09.000Z</time>
        <extensions>
          <ns3:TrackPointExtension>
            <ns3:hr>140</ns3:hr>
            <ns3:cad>0</ns3:cad>
          </ns3:TrackPointExtension>
        </extensions>
      </trkpt>
      <trkpt lat="52.08937455900013446807861328125" lon="1.31777758710086345672607421875">
        <ele>122.8000030517578125</ele>
        <time>2025-09-05T13:27:11.000Z</time>
        <extensions>
          <ns3:TrackPointExtension>
            <ns3:hr>137</ns3:hr>
            <ns3:cad>0</ns3:cad>
          </ns3:TrackPointExtension>
        </extensions>
      </trkpt>
      <trkpt lat="52.0893736369907855987548828125" lon="1.31777909584343433380126953125">
        <ele>123.40000152587890625</ele>
        <time>2025-09-05T13:27:12.000Z</time>
        <extensions>
          <ns3:TrackPointExtension>
            <ns3:hr>137</ns3:hr>
            <ns3:cad>0</ns3:cad>
          </ns3:TrackPointExtension>
        </extensions>
      </trkpt>
      <trkpt lat="52.0893692784011363983154296875" lon="1.31777909584343433380126953125">
        <ele>124.8000030517578125</ele>
        <time>2025-09-05T13:27:15.000Z</time>
        <extensions>
          <ns3:TrackPointExtension>
            <ns3:hr>135</ns3:hr>
            <ns3:cad>0</ns3:cad>
          </ns3:TrackPointExtension>
        </extensions>
      </trkpt>
      <trkpt lat="52.0893694460391998291015625" lon="1.3177818618714809417724609375">
        <ele>125.8000030517578125</ele>
        <time>2025-09-05T13:27:17.000Z</time>
        <extensions>
          <ns3:TrackPointExtension>
            <ns3:hr>134</ns3:hr>
            <ns3:cad>0</ns3:cad>
          </ns3:TrackPointExtension>
        </extensions>
      </trkpt>
      <trkpt lat="52.08936500363051891326904296875" lon="1.3177828676998615264892578125">
        <ele>127</ele>
        <time>2025-09-05T13:27:19.000Z</time>
        <extensions>
          <ns3:TrackPointExtension>
            <ns3:hr>133</ns3:hr>
            <ns3:cad>0</ns3:cad>
          </ns3:TrackPointExtension>
        </extensions>
      </trkpt>
      <trkpt lat="52.089363746345043182373046875" lon="1.31777993403375148773193359375">
        <ele>128</ele>
        <time>2025-09-05T13:27:21.000Z</time>
        <extensions>
          <ns3:TrackPointExtension>
            <ns3:hr>132</ns3:hr>
            <ns3:cad>0</ns3:cad>
          </ns3:TrackPointExtension>
        </extensions>
      </trkpt>
      <trkpt lat="52.089362405240535736083984375" lon="1.31778337061405181884765625">
        <ele>129.1999969482421875</ele>
        <time>2025-09-05T13:27:23.000Z</time>
        <extensions>
          <ns3:TrackPointExtension>
            <ns3:hr>130</ns3:hr>
            <ns3:cad>0</ns3:cad>
          </ns3:TrackPointExtension>
        </extensions>
      </trkpt>
      <trkpt lat="52.08936114795506000518798828125" lon="1.3177878968417644500732421875">
        <ele>130.600006103515625</ele>
        <time>2025-09-05T13:27:25.000Z</time>
        <extensions>
          <ns3:TrackPointExtension>
            <ns3:hr>132</ns3:hr>
            <ns3:cad>0</ns3:cad>
          </ns3:TrackPointExtension>
        </extensions>
      </trkpt>
      <trkpt lat="52.08935712464153766632080078125" lon="1.31779435090720653533935546875">
        <ele>132</ele>
        <time>2025-09-05T13:27:27.000Z</time>
        <extensions>
          <ns3:TrackPointExtension>
            <ns3:hr>133</ns3:hr>
            <ns3:cad>0</ns3:cad>
          </ns3:TrackPointExtension>
        </extensions>
      </trkpt>
      <trkpt lat="52.08935410715639591217041015625" lon="1.31779870949685573577880859375">
        <ele>133.399993896484375</ele>
        <time>2025-09-05T13:27:29.000Z</time>
        <extensions>
          <ns3:TrackPointExtension>
            <ns3:hr>133</ns3:hr>
            <ns3:cad>0</ns3:cad>
          </ns3:TrackPointExtension>
        </extensions>
      </trkpt>
      <trkpt lat="52.08935310132801532745361328125" lon="1.31780222989618778228759765625">
        <ele>135</ele>
        <time>2025-09-05T13:27:31.000Z</time>
        <extensions>
          <ns3:TrackPointExtension>
            <ns3:hr>133</ns3:hr>
            <ns3:cad>0</ns3:cad>
          </ns3:TrackPointExtension>
        </extensions>
      </trkpt>
      <trkpt lat="52.089351676404476165771484375" lon="1.317804157733917236328125">
        <ele>136.600006103515625</ele>
        <time>2025-09-05T13:27:33.000Z</time>
        <extensions>
          <ns3:TrackPointExtension>
            <ns3:hr>134</ns3:hr>
            <ns3:cad>0</ns3:cad>
          </ns3:TrackPointExtension>
        </extensions>
      </trkpt>
      <trkpt lat="52.0893560349941253662109375" lon="1.3178003020584583282470703125">
        <ele>138.399993896484375</ele>
        <time>2025-09-05T13:27:35.000Z</time>
        <extensions>
          <ns3:TrackPointExtension>
            <ns3:hr>136</ns3:hr>
            <ns3:cad>0</ns3:cad>
          </ns3:TrackPointExtension>
        </extensions>
      </trkpt>
      <trkpt lat="52.0893625728785991668701171875" lon="1.31779485382139682769775390625">
        <ele>140.1999969482421875</ele>
        <time>2025-09-05T13:27:37.000Z</time>
        <extensions>
          <ns3:TrackPointExtension>
            <ns3:hr>137</ns3:hr>
            <ns3:cad>0</ns3:cad>
          </ns3:TrackPointExtension>
        </extensions>
      </trkpt>
      <trkpt lat="52.08936802111566066741943359375" lon="1.31779015995562076568603515625">
        <ele>142</ele>
        <time>2025-09-05T13:27:39.000Z</time>
        <extensions>
          <ns3:TrackPointExtension>
            <ns3:hr>136</ns3:hr>
            <ns3:cad>0</ns3:cad>
          </ns3:TrackPointExtension>
        </extensions>
      </trkpt>
      <trkpt lat="52.08936885930597782135009765625" lon="1.31778848357498645782470703125">
        <ele>143.8000030517578125</ele>
        <time>2025-09-05T13:27:41.000Z</time>
        <extensions>
          <ns3:TrackPointExtension>
            <ns3:hr>136</ns3:hr>
            <ns3:cad>0</ns3:cad>
          </ns3:TrackPointExtension>
        </extensions>
      </trkpt>
      <trkpt lat="52.0893655903637409210205078125" lon="1.31778714247047901153564453125">
        <ele>145.600006103515625</ele>
        <time>2025-09-05T13:27:43.000Z</time>
        <extensions>
          <ns3:TrackPointExtension>
            <ns3:hr>135</ns3:hr>
            <ns3:cad>0</ns3:cad>
          </ns3:TrackPointExtension>
        </extensions>
      </trkpt>
      <trkpt lat="52.089359052479267120361328125" lon="1.3177895732223987579345703125">
        <ele>147.399993896484375</ele>
        <time>2025-09-05T13:27:45.000Z</time>
        <extensions>
          <ns3:TrackPointExtension>
            <ns3:hr>134</ns3:hr>
            <ns3:cad>0</ns3:cad>
          </ns3:TrackPointExtension>
        </extensions>
      </trkpt>
      <trkpt lat="52.08935729227960109710693359375" lon="1.31779133342206478118896484375">
        <ele>148.1999969482421875</ele>
        <time>2025-09-05T13:27:46.000Z</time>
        <extensions>
          <ns3:TrackPointExtension>
            <ns3:hr>133</ns3:hr>
            <ns3:cad>0</ns3:cad>
          </ns3:TrackPointExtension>
        </extensions>
      </trkpt>
      <trkpt lat="52.089354693889617919921875" lon="1.317793764173984527587890625">
        <ele>149.1999969482421875</ele>
        <time>2025-09-05T13:27:47.000Z</time>
        <extensions>
          <ns3:TrackPointExtension>
            <ns3:hr>134</ns3:hr>
            <ns3:cad>0</ns3:cad>
          </ns3:TrackPointExtension>
        </extensions>
      </trkpt>
      <trkpt lat="52.08935268223285675048828125" lon="1.317789070308208465576171875">
        <ele>151</ele>
        <time>2025-09-05T13:27:49.000Z</time>
        <extensions>
          <ns3:TrackPointExtension>
            <ns3:hr>133</ns3:hr>
            <ns3:cad>0</ns3:cad>
          </ns3:TrackPointExtension>
        </extensions>
      </trkpt>
      <trkpt lat="52.08934865891933441162109375" lon="1.31778898648917675018310546875">
        <ele>153</ele>
        <time>2025-09-05T13:27:51.000Z</time>
        <extensions>
          <ns3:TrackPointExtension>
            <ns3:hr>133</ns3:hr>
            <ns3:cad>0</ns3:cad>
          </ns3:TrackPointExtension>
        </extensions>
      </trkpt>
      <trkpt lat="52.0893458090722560882568359375" lon="1.31779007613658905029296875">
        <ele>154.600006103515625</ele>
        <time>2025-09-05T13:27:53.000Z</time>
        <extensions>
          <ns3:TrackPointExtension>
            <ns3:hr>131</ns3:hr>
            <ns3:cad>0</ns3:cad>
          </ns3:TrackPointExtension>
        </extensions>
      </trkpt>
      <trkpt lat="52.0893464796245098114013671875" lon="1.3177852146327495574951171875">
        <ele>156.1999969482421875</ele>
        <time>2025-09-05T13:27:55.000Z</time>
        <extensions>
          <ns3:TrackPointExtension>
            <ns3:hr>132</ns3:hr>
            <ns3:cad>0</ns3:cad>
          </ns3:TrackPointExtension>
        </extensions>
      </trkpt>
      <trkpt lat="52.0893478207290172576904296875" lon="1.31778814829885959625244140625">
        <ele>157.600006103515625</ele>
        <time>2025-09-05T13:27:57.000Z</time>
        <extensions>
          <ns3:TrackPointExtension>
            <ns3:hr>130</ns3:hr>
            <ns3:cad>0</ns3:cad>
          </ns3:TrackPointExtension>
        </extensions>
      </trkpt>
      <trkpt lat="52.0893518440425395965576171875" lon="1.3177805207669734954833984375">
        <ele>155.600006103515625</ele>
        <time>2025-09-05T13:28:01.000Z</time>
        <extensions>
          <ns3:TrackPointExtension>
            <ns3:cad>0</ns3:cad>
          </ns3:TrackPointExtension>
        </extensions>
      </trkpt>
      <trkpt lat="52.089352346956729888916015625" lon="1.31777842529118061065673828125">
        <ele>154.600006103515625</ele>
        <time>2025-09-05T13:28:02.000Z</time>
        <extensions>
          <ns3:TrackPointExtension>
            <ns3:hr>128</ns3:hr>
            <ns3:cad>0</ns3:cad>
          </ns3:TrackPointExtension>
        </extensions>
      </trkpt>
      <trkpt lat="52.08935477770864963531494140625" lon="1.31777758710086345672607421875">
        <ele>153.399993896484375</ele>
        <time>2025-09-05T13:28:03.000Z</time>
        <extensions>
          <ns3:TrackPointExtension>
            <ns3:hr>128</ns3:hr>
            <ns3:cad>0</ns3:cad>
          </ns3:TrackPointExtension>
        </extensions>
      </trkpt>
      <trkpt lat="52.08935611881315708160400390625" lon="1.31777859292924404144287109375">
        <ele>152.1999969482421875</ele>
        <time>2025-09-05T13:28:04.000Z</time>
        <extensions>
          <ns3:TrackPointExtension>
            <ns3:hr>128</ns3:hr>
            <ns3:cad>0</ns3:cad>
          </ns3:TrackPointExtension>
        </extensions>
      </trkpt>
      <trkpt lat="52.08935444243252277374267578125" lon="1.31777842529118061065673828125">
        <ele>151.1999969482421875</ele>
        <time>2025-09-05T13:28:05.000Z</time>
        <extensions>
          <ns3:TrackPointExtension>
            <ns3:hr>128</ns3:hr>
            <ns3:cad>0</ns3:cad>
          </ns3:TrackPointExtension>
        </extensions>
      </trkpt>
      <trkpt lat="52.08935393951833248138427734375" lon="1.31777825765311717987060546875">
        <ele>150</ele>
        <time>2025-09-05T13:28:06.000Z</time>
        <extensions>
          <ns3:TrackPointExtension>
            <ns3:hr>128</ns3:hr>
            <ns3:cad>0</ns3:cad>
          </ns3:TrackPointExtension>
        </extensions>
      </trkpt>
      <trkpt lat="52.08935310132801532745361328125" lon="1.31777800619602203369140625">
        <ele>149</ele>
        <time>2025-09-05T13:28:07.000Z</time>
        <extensions>
          <ns3:TrackPointExtension>
            <ns3:hr>127</ns3:hr>
            <ns3:cad>0</ns3:cad>
          </ns3:TrackPointExtension>
        </extensions>
      </trkpt>
      <trkpt lat="52.0893538556993007659912109375" lon="1.3177785091102123260498046875">
        <ele>148</ele>
        <time>2025-09-05T13:28:08.000Z</time>
        <extensions>
          <ns3:TrackPointExtension>
            <ns3:hr>127</ns3:hr>
            <ns3:cad>0</ns3:cad>
          </ns3:TrackPointExtension>
        </extensions>
      </trkpt>
      <trkpt lat="52.0893545262515544891357421875" lon="1.31777775473892688751220703125">
        <ele>146.8000030517578125</ele>
        <time>2025-09-05T13:28:09.000Z</time>
        <extensions>
          <ns3:TrackPointExtension>
            <ns3:hr>128</ns3:hr>
            <ns3:cad>0</ns3:cad>
          </ns3:TrackPointExtension>
        </extensions>
      </trkpt>
      <trkpt lat="52.08935410715639591217041015625" lon="1.31777876056730747222900390625">
        <ele>145.8000030517578125</ele>
        <time>2025-09-05T13:28:10.000Z</time>
        <extensions>
          <ns3:TrackPointExtension>
            <ns3:hr>128</ns3:hr>
            <ns3:cad>0</ns3:cad>
          </ns3:TrackPointExtension>
        </extensions>
      </trkpt>
      <trkpt lat="52.08935377188026905059814453125" lon="1.3177805207669734954833984375">
        <ele>144.8000030517578125</ele>
        <time>2025-09-05T13:28:11.000Z</time>
        <extensions>
          <ns3:TrackPointExtension>
            <ns3:hr>129</ns3:hr>
            <ns3:cad>0</ns3:cad>
          </ns3:TrackPointExtension>
        </extensions>
      </trkpt>
      <trkpt lat="52.08935662172734737396240234375" lon="1.31778093986213207244873046875">
        <ele>143.8000030517578125</ele>
        <time>2025-09-05T13:28:12.000Z</time>
        <extensions>
          <ns3:TrackPointExtension>
            <ns3:hr>129</ns3:hr>
            <ns3:cad>0</ns3:cad>
          </ns3:TrackPointExtension>
        </extensions>
      </trkpt>
      <trkpt lat="52.08935779519379138946533203125" lon="1.31778244860470294952392578125">
        <ele>142.600006103515625</ele>
        <time>2025-09-05T13:28:13.000Z</time>
        <extensions>
          <ns3:TrackPointExtension>
            <ns3:hr>129</ns3:hr>
            <ns3:cad>0</ns3:cad>
          </ns3:TrackPointExtension>
        </extensions>
      </trkpt>
      <trkpt lat="52.08935796283185482025146484375" lon="1.317782700061798095703125">
        <ele>141.600006103515625</ele>
        <time>2025-09-05T13:28:14.000Z</time>
        <extensions>
          <ns3:TrackPointExtension>
            <ns3:hr>129</ns3:hr>
            <ns3:cad>0</ns3:cad>
          </ns3:TrackPointExtension>
        </extensions>
      </trkpt>
      <trkpt lat="52.0893582142889499664306640625" lon="1.31778337061405181884765625">
        <ele>140.600006103515625</ele>
        <time>2025-09-05T13:28:15.000Z</time>
        <extensions>
          <ns3:TrackPointExtension>
            <ns3:hr>128</ns3:hr>
            <ns3:cad>0</ns3:cad>
          </ns3:TrackPointExtension>
        </extensions>
      </trkpt>
      <trkpt lat="52.08935997448861598968505859375" lon="1.31778328679502010345458984375">
        <ele>138.600006103515625</ele>
        <time>2025-09-05T13:28:17.000Z</time>
        <extensions>
          <ns3:TrackPointExtension>
            <ns3:hr>128</ns3:hr>
            <ns3:cad>0</ns3:cad>
          </ns3:TrackPointExtension>
        </extensions>
      </trkpt>
      <trkpt lat="52.08936198614537715911865234375" lon="1.317787058651447296142578125">
        <ele>136.8000030517578125</ele>
        <time>2025-09-05T13:28:19.000Z</time>
        <extensions>
          <ns3:TrackPointExtension>
            <ns3:hr>127</ns3:hr>
            <ns3:cad>0</ns3:cad>
          </ns3:TrackPointExtension>
        </extensions>
      </trkpt>
      <trkpt lat="52.089364416897296905517578125" lon="1.3177922554314136505126953125">
        <ele>134.8000030517578125</ele>
        <time>2025-09-05T13:28:21.000Z</time>
        <extensions>
          <ns3:TrackPointExtension>
            <ns3:hr>127</ns3:hr>
            <ns3:cad>0</ns3:cad>
          </ns3:TrackPointExtension>
        </extensions>
      </trkpt>
      <trkpt lat="52.08936684764921665191650390625" lon="1.31778764538466930389404296875">
        <ele>133</ele>
        <time>2025-09-05T13:28:23.000Z</time>
        <extensions>
          <ns3:TrackPointExtension>
            <ns3:hr>128</ns3:hr>
            <ns3:cad>0</ns3:cad>
          </ns3:TrackPointExtension>
        </extensions>
      </trkpt>
      <trkpt lat="52.08936735056340694427490234375" lon="1.31778630428016185760498046875">
        <ele>131.1999969482421875</ele>
        <time>2025-09-05T13:28:25.000Z</time>
        <extensions>
          <ns3:TrackPointExtension>
            <ns3:cad>0</ns3:cad>
          </ns3:TrackPointExtension>
        </extensions>
      </trkpt>
      <trkpt lat="52.08936751820147037506103515625" lon="1.317784376442432403564453125">
        <ele>130.1999969482421875</ele>
        <time>2025-09-05T13:28:26.000Z</time>
        <extensions>
          <ns3:TrackPointExtension>
            <ns3:cad>0</ns3:cad>
          </ns3:TrackPointExtension>
        </extensions>
      </trkpt>
      <trkpt lat="52.08936743438243865966796875" lon="1.3177825324237346649169921875">
        <ele>129</ele>
        <time>2025-09-05T13:28:27.000Z</time>
        <extensions>
          <ns3:TrackPointExtension>
            <ns3:hr>128</ns3:hr>
            <ns3:cad>0</ns3:cad>
          </ns3:TrackPointExtension>
        </extensions>
      </trkpt>
      <trkpt lat="52.08936701528728008270263671875" lon="1.31778077222406864166259765625">
        <ele>127.8000030517578125</ele>
        <time>2025-09-05T13:28:28.000Z</time>
        <extensions>
          <ns3:TrackPointExtension>
            <ns3:hr>128</ns3:hr>
            <ns3:cad>0</ns3:cad>
          </ns3:TrackPointExtension>
        </extensions>
      </trkpt>
      <trkpt lat="52.08936718292534351348876953125" lon="1.31778077222406864166259765625">
        <ele>126.8000030517578125</ele>
        <time>2025-09-05T13:28:29.000Z</time>
        <extensions>
          <ns3:TrackPointExtension>
            <ns3:hr>130</ns3:hr>
            <ns3:cad>0</ns3:cad>
          </ns3:TrackPointExtension>
        </extensions>
      </trkpt>
      <trkpt lat="52.08936869166791439056396484375" lon="1.317782700061798095703125">
        <ele>125.59999847412109375</ele>
        <time>2025-09-05T13:28:30.000Z</time>
        <extensions>
          <ns3:TrackPointExtension>
            <ns3:hr>129</ns3:hr>
            <ns3:cad>0</ns3:cad>
          </ns3:TrackPointExtension>
        </extensions>
      </trkpt>
      <trkpt lat="52.089370451867580413818359375" lon="1.317784376442432403564453125">
        <ele>124.40000152587890625</ele>
        <time>2025-09-05T13:28:31.000Z</time>
        <extensions>
          <ns3:TrackPointExtension>
            <ns3:hr>128</ns3:hr>
            <ns3:cad>0</ns3:cad>
          </ns3:TrackPointExtension>
        </extensions>
      </trkpt>
      <trkpt lat="52.089370787143707275390625" lon="1.31778471171855926513671875">
        <ele>123.40000152587890625</ele>
        <time>2025-09-05T13:28:32.000Z</time>
        <extensions>
          <ns3:TrackPointExtension>
            <ns3:hr>126</ns3:hr>
            <ns3:cad>0</ns3:cad>
          </ns3:TrackPointExtension>
        </extensions>
      </trkpt>
      <trkpt lat="52.08937279880046844482421875" lon="1.31778362207114696502685546875">
        <ele>122.1999969482421875</ele>
        <time>2025-09-05T13:28:33.000Z</time>
        <extensions>
          <ns3:TrackPointExtension>
            <ns3:hr>125</ns3:hr>
            <ns3:cad>0</ns3:cad>
          </ns3:TrackPointExtension>
        </extensions>
      </trkpt>
      <trkpt lat="52.08937288261950016021728515625" lon="1.31778345443308353424072265625">
        <ele>121</ele>
        <time>2025-09-05T13:28:34.000Z</time>
        <extensions>
          <ns3:TrackPointExtension>
            <ns3:hr>125</ns3:hr>
            <ns3:cad>0</ns3:cad>
          </ns3:TrackPointExtension>
        </extensions>
      </trkpt>
      <trkpt lat="52.08937321789562702178955078125" lon="1.31778345443308353424072265625">
        <ele>120</ele>
        <time>2025-09-05T13:28:35.000Z</time>
        <extensions>
          <ns3:TrackPointExtension>
            <ns3:hr>126</ns3:hr>
            <ns3:cad>0</ns3:cad>
          </ns3:TrackPointExtension>
        </extensions>
      </trkpt>
      <trkpt lat="52.08937372080981731414794921875" lon="1.3177835382521152496337890625">
        <ele>118.8000030517578125</ele>
        <time>2025-09-05T13:28:36.000Z</time>
        <extensions>
          <ns3:TrackPointExtension>
            <ns3:hr>128</ns3:hr>
            <ns3:cad>0</ns3:cad>
          </ns3:TrackPointExtension>
        </extensions>
      </trkpt>
      <trkpt lat="52.08937388844788074493408203125" lon="1.31778261624276638031005859375">
        <ele>117.40000152587890625</ele>
        <time>2025-09-05T13:28:37.000Z</time>
        <extensions>
          <ns3:TrackPointExtension>
            <ns3:hr>129</ns3:hr>
            <ns3:cad>0</ns3:cad>
          </ns3:TrackPointExtension>
        </extensions>
      </trkpt>
      <trkpt lat="52.0893736369907855987548828125" lon="1.317781694233417510986328125">
        <ele>116.1999969482421875</ele>
        <time>2025-09-05T13:28:38.000Z</time>
        <extensions>
          <ns3:TrackPointExtension>
            <ns3:hr>131</ns3:hr>
            <ns3:cad>0</ns3:cad>
          </ns3:TrackPointExtension>
        </extensions>
      </trkpt>
      <trkpt lat="52.08937372080981731414794921875" lon="1.3177821971476078033447265625">
        <ele>115</ele>
        <time>2025-09-05T13:28:39.000Z</time>
        <extensions>
          <ns3:TrackPointExtension>
            <ns3:hr>135</ns3:hr>
            <ns3:cad>0</ns3:cad>
          </ns3:TrackPointExtension>
        </extensions>
      </trkpt>
      <trkpt lat="52.08937439136207103729248046875" lon="1.31778311915695667266845703125">
        <ele>113.8000030517578125</ele>
        <time>2025-09-05T13:28:40.000Z</time>
        <extensions>
          <ns3:TrackPointExtension>
            <ns3:hr>137</ns3:hr>
            <ns3:cad>0</ns3:cad>
          </ns3:TrackPointExtension>
        </extensions>
      </trkpt>
      <trkpt lat="52.08937522955238819122314453125" lon="1.31778345443308353424072265625">
        <ele>112.59999847412109375</ele>
        <time>2025-09-05T13:28:41.000Z</time>
        <extensions>
          <ns3:TrackPointExtension>
            <ns3:hr>137</ns3:hr>
            <ns3:cad>0</ns3:cad>
          </ns3:TrackPointExtension>
        </extensions>
      </trkpt>
      <trkpt lat="52.08937774412333965301513671875" lon="1.31778362207114696502685546875">
        <ele>111.40000152587890625</ele>
        <time>2025-09-05T13:28:42.000Z</time>
        <extensions>
          <ns3:TrackPointExtension>
            <ns3:hr>137</ns3:hr>
            <ns3:cad>0</ns3:cad>
          </ns3:TrackPointExtension>
        </extensions>
      </trkpt>
      <trkpt lat="52.08937925286591053009033203125" lon="1.317785717546939849853515625">
        <ele>110</ele>
        <time>2025-09-05T13:28:43.000Z</time>
        <extensions>
          <ns3:TrackPointExtension>
            <ns3:hr>137</ns3:hr>
            <ns3:cad>0</ns3:cad>
          </ns3:TrackPointExtension>
        </extensions>
      </trkpt>
      <trkpt lat="52.08937925286591053009033203125" lon="1.3177858851850032806396484375">
        <ele>108.8000030517578125</ele>
        <time>2025-09-05T13:28:44.000Z</time>
        <extensions>
          <ns3:TrackPointExtension>
            <ns3:hr>137</ns3:hr>
            <ns3:cad>0</ns3:cad>
          </ns3:TrackPointExtension>
        </extensions>
      </trkpt>
      <trkpt lat="52.08937942050397396087646484375" lon="1.31778580136597156524658203125">
        <ele>107.59999847412109375</ele>
        <time>2025-09-05T13:28:45.000Z</time>
        <extensions>
          <ns3:TrackPointExtension>
            <ns3:hr>137</ns3:hr>
            <ns3:cad>0</ns3:cad>
          </ns3:TrackPointExtension>
        </extensions>
      </trkpt>
      <trkpt lat="52.08938042633235454559326171875" lon="1.31778663955628871917724609375">
        <ele>106.40000152587890625</ele>
        <time>2025-09-05T13:28:46.000Z</time>
        <extensions>
          <ns3:TrackPointExtension>
            <ns3:hr>137</ns3:hr>
            <ns3:cad>0</ns3:cad>
          </ns3:TrackPointExtension>
        </extensions>
      </trkpt>
      <trkpt lat="52.0893810130655765533447265625" lon="1.3177872262895107269287109375">
        <ele>105.1999969482421875</ele>
        <time>2025-09-05T13:28:47.000Z</time>
        <extensions>
          <ns3:TrackPointExtension>
            <ns3:hr>137</ns3:hr>
            <ns3:cad>0</ns3:cad>
          </ns3:TrackPointExtension>
        </extensions>
      </trkpt>
      <trkpt lat="52.089381515979766845703125" lon="1.3177878968417644500732421875">
        <ele>104.1999969482421875</ele>
        <time>2025-09-05T13:28:48.000Z</time>
        <extensions>
          <ns3:TrackPointExtension>
            <ns3:hr>138</ns3:hr>
            <ns3:cad>0</ns3:cad>
          </ns3:TrackPointExtension>
        </extensions>
      </trkpt>
      <trkpt lat="52.08938176743686199188232421875" lon="1.31778873503208160400390625">
        <ele>103</ele>
        <time>2025-09-05T13:28:49.000Z</time>
        <extensions>
          <ns3:TrackPointExtension>
            <ns3:hr>138</ns3:hr>
            <ns3:cad>0</ns3:cad>
          </ns3:TrackPointExtension>
        </extensions>
      </trkpt>
      <trkpt lat="52.0893820188939571380615234375" lon="1.3177895732223987579345703125">
        <ele>101.8000030517578125</ele>
        <time>2025-09-05T13:28:50.000Z</time>
        <extensions>
          <ns3:TrackPointExtension>
            <ns3:hr>138</ns3:hr>
            <ns3:cad>0</ns3:cad>
          </ns3:TrackPointExtension>
        </extensions>
      </trkpt>
      <trkpt lat="52.08938327617943286895751953125" lon="1.3177902437746524810791015625">
        <ele>100.59999847412109375</ele>
        <time>2025-09-05T13:28:51.000Z</time>
        <extensions>
          <ns3:TrackPointExtension>
            <ns3:hr>138</ns3:hr>
            <ns3:cad>0</ns3:cad>
          </ns3:TrackPointExtension>
        </extensions>
      </trkpt>
      <trkpt lat="52.08938411436975002288818359375" lon="1.31779099814593791961669921875">
        <ele>99.59999847412109375</ele>
        <time>2025-09-05T13:28:52.000Z</time>
        <extensions>
          <ns3:TrackPointExtension>
            <ns3:hr>139</ns3:hr>
            <ns3:cad>0</ns3:cad>
          </ns3:TrackPointExtension>
        </extensions>
      </trkpt>
      <trkpt lat="52.08938411436975002288818359375" lon="1.3177922554314136505126953125">
        <ele>98.40000152587890625</ele>
        <time>2025-09-05T13:28:53.000Z</time>
        <extensions>
          <ns3:TrackPointExtension>
            <ns3:hr>139</ns3:hr>
            <ns3:cad>0</ns3:cad>
          </ns3:TrackPointExtension>
        </extensions>
      </trkpt>
      <trkpt lat="52.089383192360401153564453125" lon="1.31779334507882595062255859375">
        <ele>97.40000152587890625</ele>
        <time>2025-09-05T13:28:54.000Z</time>
        <extensions>
          <ns3:TrackPointExtension>
            <ns3:hr>140</ns3:hr>
            <ns3:cad>0</ns3:cad>
          </ns3:TrackPointExtension>
        </extensions>
      </trkpt>
      <trkpt lat="52.0893823541700839996337890625" lon="1.31779284216463565826416015625">
        <ele>96.1999969482421875</ele>
        <time>2025-09-05T13:28:55.000Z</time>
        <extensions>
          <ns3:TrackPointExtension>
            <ns3:hr>140</ns3:hr>
            <ns3:cad>0</ns3:cad>
          </ns3:TrackPointExtension>
        </extensions>
      </trkpt>
      <trkpt lat="52.08938260562717914581298828125" lon="1.3177894055843353271484375">
        <ele>95.1999969482421875</ele>
        <time>2025-09-05T13:28:56.000Z</time>
        <extensions>
          <ns3:TrackPointExtension>
            <ns3:hr>139</ns3:hr>
            <ns3:cad>0</ns3:cad>
          </ns3:TrackPointExtension>
        </extensions>
      </trkpt>
      <trkpt lat="52.0893830247223377227783203125" lon="1.31778831593692302703857421875">
        <ele>94.1999969482421875</ele>
        <time>2025-09-05T13:28:57.000Z</time>
        <extensions>
          <ns3:TrackPointExtension>
            <ns3:hr>139</ns3:hr>
            <ns3:cad>0</ns3:cad>
          </ns3:TrackPointExtension>
        </extensions>
      </trkpt>
      <trkpt lat="52.08938218653202056884765625" lon="1.31778781302273273468017578125">
        <ele>93</ele>
        <time>2025-09-05T13:28:58.000Z</time>
        <extensions>
          <ns3:TrackPointExtension>
            <ns3:hr>138</ns3:hr>
            <ns3:cad>0</ns3:cad>
          </ns3:TrackPointExtension>
        </extensions>
      </trkpt>
      <trkpt lat="52.08938411436975002288818359375" lon="1.3177858851850032806396484375">
        <ele>92</ele>
        <time>2025-09-05T13:28:59.000Z</time>
        <extensions>
          <ns3:TrackPointExtension>
            <ns3:hr>138</ns3:hr>
            <ns3:cad>0</ns3:cad>
          </ns3:TrackPointExtension>
        </extensions>
      </trkpt>
      <trkpt lat="52.08938478492200374603271484375" lon="1.31778345443308353424072265625">
        <ele>91</ele>
        <time>2025-09-05T13:29:00.000Z</time>
        <extensions>
          <ns3:TrackPointExtension>
            <ns3:hr>138</ns3:hr>
            <ns3:cad>0</ns3:cad>
          </ns3:TrackPointExtension>
        </extensions>
      </trkpt>
      <trkpt lat="52.08938478492200374603271484375" lon="1.31778328679502010345458984375">
        <ele>90</ele>
        <time>2025-09-05T13:29:01.000Z</time>
        <extensions>
          <ns3:TrackPointExtension>
            <ns3:hr>138</ns3:hr>
            <ns3:cad>0</ns3:cad>
          </ns3:TrackPointExtension>
        </extensions>
      </trkpt>
      <trkpt lat="52.0893850363790988922119140625" lon="1.31778278388082981109619140625">
        <ele>89</ele>
        <time>2025-09-05T13:29:02.000Z</time>
        <extensions>
          <ns3:TrackPointExtension>
            <ns3:hr>138</ns3:hr>
            <ns3:cad>0</ns3:cad>
          </ns3:TrackPointExtension>
        </extensions>
      </trkpt>
      <trkpt lat="52.089384533464908599853515625" lon="1.31778202950954437255859375">
        <ele>87</ele>
        <time>2025-09-05T13:29:04.000Z</time>
        <extensions>
          <ns3:TrackPointExtension>
            <ns3:hr>138</ns3:hr>
            <ns3:cad>0</ns3:cad>
          </ns3:TrackPointExtension>
        </extensions>
      </trkpt>
      <trkpt lat="52.089383862912654876708984375" lon="1.3177801854908466339111328125">
        <ele>85.1999969482421875</ele>
        <time>2025-09-05T13:29:06.000Z</time>
        <extensions>
          <ns3:TrackPointExtension>
            <ns3:hr>137</ns3:hr>
            <ns3:cad>0</ns3:cad>
          </ns3:TrackPointExtension>
        </extensions>
      </trkpt>
      <trkpt lat="52.0893828570842742919921875" lon="1.31777758710086345672607421875">
        <ele>83.40000152587890625</ele>
        <time>2025-09-05T13:29:08.000Z</time>
        <extensions>
          <ns3:TrackPointExtension>
            <ns3:hr>136</ns3:hr>
            <ns3:cad>0</ns3:cad>
          </ns3:TrackPointExtension>
        </extensions>
      </trkpt>
      <trkpt lat="52.08938218653202056884765625" lon="1.3177754916250705718994140625">
        <ele>81.8000030517578125</ele>
        <time>2025-09-05T13:29:10.000Z</time>
        <extensions>
          <ns3:TrackPointExtension>
            <ns3:hr>136</ns3:hr>
            <ns3:cad>0</ns3:cad>
          </ns3:TrackPointExtension>
        </extensions>
      </trkpt>
      <trkpt lat="52.08938419818878173828125" lon="1.31777171976864337921142578125">
        <ele>80.1999969482421875</ele>
        <time>2025-09-05T13:29:12.000Z</time>
        <extensions>
          <ns3:TrackPointExtension>
            <ns3:hr>138</ns3:hr>
            <ns3:cad>0</ns3:cad>
          </ns3:TrackPointExtension>
        </extensions>
      </trkpt>
      <trkpt lat="52.08938025869429111480712890625" lon="1.31777909584343433380126953125">
        <ele>78.8000030517578125</ele>
        <time>2025-09-05T13:29:14.000Z</time>
        <extensions>
          <ns3:TrackPointExtension>
            <ns3:hr>139</ns3:hr>
            <ns3:cad>0</ns3:cad>
          </ns3:TrackPointExtension>
        </extensions>
      </trkpt>
      <trkpt lat="52.08937489427626132965087890625" lon="1.31778546608984470367431640625">
        <ele>77.1999969482421875</ele>
        <time>2025-09-05T13:29:16.000Z</time>
        <extensions>
          <ns3:TrackPointExtension>
            <ns3:hr>138</ns3:hr>
            <ns3:cad>0</ns3:cad>
          </ns3:TrackPointExtension>
        </extensions>
      </trkpt>
      <trkpt lat="52.0893800072371959686279296875" lon="1.31778471171855926513671875">
        <ele>75.8000030517578125</ele>
        <time>2025-09-05T13:29:18.000Z</time>
        <extensions>
          <ns3:TrackPointExtension>
            <ns3:hr>138</ns3:hr>
            <ns3:cad>0</ns3:cad>
          </ns3:TrackPointExtension>
        </extensions>
      </trkpt>
      <trkpt lat="52.08939534611999988555908203125" lon="1.31778026930987834930419921875">
        <ele>74.40000152587890625</ele>
        <time>2025-09-05T13:29:20.000Z</time>
        <extensions>
          <ns3:TrackPointExtension>
            <ns3:hr>139</ns3:hr>
            <ns3:cad>0</ns3:cad>
          </ns3:TrackPointExtension>
        </extensions>
      </trkpt>
      <trkpt lat="52.08942417986690998077392578125" lon="1.31778965704143047332763671875">
        <ele>73.1999969482421875</ele>
        <time>2025-09-05T13:29:22.000Z</time>
        <extensions>
          <ns3:TrackPointExtension>
            <ns3:hr>140</ns3:hr>
            <ns3:cad>0</ns3:cad>
          </ns3:TrackPointExtension>
        </extensions>
      </trkpt>
      <trkpt lat="52.089441530406475067138671875" lon="1.31783240474760532379150390625">
        <ele>72</ele>
        <time>2025-09-05T13:29:24.000Z</time>
        <extensions>
          <ns3:TrackPointExtension>
            <ns3:hr>138</ns3:hr>
            <ns3:cad>0</ns3:cad>
          </ns3:TrackPointExtension>
        </extensions>
      </trkpt>
      <trkpt lat="52.0894604735076427459716796875" lon="1.3178832828998565673828125">
        <ele>71</ele>
        <time>2025-09-05T13:29:26.000Z</time>
        <extensions>
          <ns3:TrackPointExtension>
            <ns3:hr>138</ns3:hr>
            <ns3:cad>0</ns3:cad>
          </ns3:TrackPointExtension>
        </extensions>
      </trkpt>
      <trkpt lat="52.089482434093952178955078125" lon="1.31793298758566379547119140625">
        <ele>70</ele>
        <time>2025-09-05T13:29:28.000Z</time>
        <extensions>
          <ns3:TrackPointExtension>
            <ns3:hr>138</ns3:hr>
            <ns3:cad>60</ns3:cad>
          </ns3:TrackPointExtension>
        </extensions>
      </trkpt>
      <trkpt lat="52.08949483931064605712890625" lon="1.3179585523903369903564453125">
        <ele>69.59999847412109375</ele>
        <time>2025-09-05T13:29:29.000Z</time>
        <extensions>
          <ns3:TrackPointExtension>
            <ns3:hr>138</ns3:hr>
            <ns3:cad>60</ns3:cad>
          </ns3:TrackPointExtension>
        </extensions>
      </trkpt>
      <trkpt lat="52.08954286761581897735595703125" lon="1.318041197955608367919921875">
        <ele>68.1999969482421875</ele>
        <time>2025-09-05T13:29:32.000Z</time>
        <extensions>
          <ns3:TrackPointExtension>
            <ns3:hr>141</ns3:hr>
            <ns3:cad>62</ns3:cad>
          </ns3:TrackPointExtension>
        </extensions>
      </trkpt>
      <trkpt lat="52.08959030918776988983154296875" lon="1.318110264837741851806640625">
        <ele>67</ele>
        <time>2025-09-05T13:29:35.000Z</time>
        <extensions>
          <ns3:TrackPointExtension>
            <ns3:hr>139</ns3:hr>
            <ns3:cad>61</ns3:cad>
          </ns3:TrackPointExtension>
        </extensions>
      </trkpt>
      <trkpt lat="52.08960589952766895294189453125" lon="1.3181359134614467620849609375">
        <ele>66.59999847412109375</ele>
        <time>2025-09-05T13:29:36.000Z</time>
        <extensions>
          <ns3:TrackPointExtension>
            <ns3:hr>142</ns3:hr>
            <ns3:cad>62</ns3:cad>
          </ns3:TrackPointExtension>
        </extensions>
      </trkpt>
      <trkpt lat="52.08963070996105670928955078125" lon="1.31818293593823909759521484375">
        <ele>66</ele>
        <time>2025-09-05T13:29:38.000Z</time>
        <extensions>
          <ns3:TrackPointExtension>
            <ns3:hr>143</ns3:hr>
            <ns3:cad>0</ns3:cad>
          </ns3:TrackPointExtension>
        </extensions>
      </trkpt>
      <trkpt lat="52.0896438695490360260009765625" lon="1.31820271722972393035888671875">
        <ele>65.59999847412109375</ele>
        <time>2025-09-05T13:29:39.000Z</time>
        <extensions>
          <ns3:TrackPointExtension>
            <ns3:hr>146</ns3:hr>
            <ns3:cad>0</ns3:cad>
          </ns3:TrackPointExtension>
        </extensions>
      </trkpt>
      <trkpt lat="52.08966859616339206695556640625" lon="1.31824412383139133453369140625">
        <ele>65</ele>
        <time>2025-09-05T13:29:41.000Z</time>
        <extensions>
          <ns3:TrackPointExtension>
            <ns3:hr>148</ns3:hr>
            <ns3:cad>0</ns3:cad>
          </ns3:TrackPointExtension>
        </extensions>
      </trkpt>
      <trkpt lat="52.0897176302969455718994140625" lon="1.31832693703472614288330078125">
        <ele>63.799999237060546875</ele>
        <time>2025-09-05T13:29:45.000Z</time>
        <extensions>
          <ns3:TrackPointExtension>
            <ns3:hr>148</ns3:hr>
            <ns3:cad>61</ns3:cad>
          </ns3:TrackPointExtension>
        </extensions>
      </trkpt>
      <trkpt lat="52.08974294364452362060546875" lon="1.31839483045041561126708984375">
        <ele>62.59999847412109375</ele>
        <time>2025-09-05T13:29:49.000Z</time>
        <extensions>
          <ns3:TrackPointExtension>
            <ns3:hr>150</ns3:hr>
            <ns3:cad>62</ns3:cad>
          </ns3:TrackPointExtension>
        </extensions>
      </trkpt>
      <trkpt lat="52.0897739566862583160400390625" lon="1.31845668889582157135009765625">
        <ele>61.59999847412109375</ele>
        <time>2025-09-05T13:29:53.000Z</time>
        <extensions>
          <ns3:TrackPointExtension>
            <ns3:hr>150</ns3:hr>
            <ns3:cad>60</ns3:cad>
          </ns3:TrackPointExtension>
        </extensions>
      </trkpt>
      <trkpt lat="52.08980304189026355743408203125" lon="1.31847672164440155029296875">
        <ele>60.200000762939453125</ele>
        <time>2025-09-05T13:29:56.000Z</time>
        <extensions>
          <ns3:TrackPointExtension>
            <ns3:hr>151</ns3:hr>
            <ns3:cad>62</ns3:cad>
          </ns3:TrackPointExtension>
        </extensions>
      </trkpt>
      <trkpt lat="52.08981402218341827392578125" lon="1.3184789009392261505126953125">
        <ele>59.59999847412109375</ele>
        <time>2025-09-05T13:29:57.000Z</time>
        <extensions>
          <ns3:TrackPointExtension>
            <ns3:hr>152</ns3:hr>
            <ns3:cad>62</ns3:cad>
          </ns3:TrackPointExtension>
        </extensions>
      </trkpt>
      <trkpt lat="52.089826427400112152099609375" lon="1.31848149932920932769775390625">
        <ele>59.200000762939453125</ele>
        <time>2025-09-05T13:29:58.000Z</time>
        <extensions>
          <ns3:TrackPointExtension>
            <ns3:hr>152</ns3:hr>
            <ns3:cad>62</ns3:cad>
          </ns3:TrackPointExtension>
        </extensions>
      </trkpt>
      <trkpt lat="52.08986707963049411773681640625" lon="1.31845953874289989471435546875">
        <ele>57.59999847412109375</ele>
        <time>2025-09-05T13:30:01.000Z</time>
        <extensions>
          <ns3:TrackPointExtension>
            <ns3:hr>153</ns3:hr>
            <ns3:cad>61</ns3:cad>
          </ns3:TrackPointExtension>
        </extensions>
      </trkpt>
      <trkpt lat="52.08990521728992462158203125" lon="1.3184172101318836212158203125">
        <ele>56.200000762939453125</ele>
        <time>2025-09-05T13:30:04.000Z</time>
        <extensions>
          <ns3:TrackPointExtension>
            <ns3:hr>152</ns3:hr>
            <ns3:cad>60</ns3:cad>
          </ns3:TrackPointExtension>
        </extensions>
      </trkpt>
      <trkpt lat="52.09000102244317531585693359375" lon="1.3183256797492504119873046875">
        <ele>55.40000152587890625</ele>
        <time>2025-09-05T13:30:11.000Z</time>
        <extensions>
          <ns3:TrackPointExtension>
            <ns3:hr>151</ns3:hr>
            <ns3:cad>61</ns3:cad>
          </ns3:TrackPointExtension>
        </extensions>
      </trkpt>
      <trkpt lat="52.09008886478841304779052734375" lon="1.3182297907769680023193359375">
        <ele>56.40000152587890625</ele>
        <time>2025-09-05T13:30:18.000Z</time>
        <extensions>
          <ns3:TrackPointExtension>
            <ns3:hr>150</ns3:hr>
            <ns3:cad>61</ns3:cad>
          </ns3:TrackPointExtension>
        </extensions>
      </trkpt>
      <trkpt lat="52.09014259278774261474609375" lon="1.31818545050919055938720703125">
        <ele>57.40000152587890625</ele>
        <time>2025-09-05T13:30:22.000Z</time>
        <extensions>
          <ns3:TrackPointExtension>
            <ns3:hr>150</ns3:hr>
            <ns3:cad>59</ns3:cad>
          </ns3:TrackPointExtension>
        </extensions>
      </trkpt>
      <trkpt lat="52.09016547538340091705322265625" lon="1.31815259344875812530517578125">
        <ele>58</ele>
        <time>2025-09-05T13:30:24.000Z</time>
        <extensions>
          <ns3:TrackPointExtension>
            <ns3:hr>149</ns3:hr>
            <ns3:cad>0</ns3:cad>
          </ns3:TrackPointExtension>
        </extensions>
      </trkpt>
      <trkpt lat="52.09018743596971035003662109375" lon="1.31811604835093021392822265625">
        <ele>58.59999847412109375</ele>
        <time>2025-09-05T13:30:26.000Z</time>
        <extensions>
          <ns3:TrackPointExtension>
            <ns3:hr>149</ns3:hr>
            <ns3:cad>0</ns3:cad>
          </ns3:TrackPointExtension>
        </extensions>
      </trkpt>
      <trkpt lat="52.0901970751583576202392578125" lon="1.31811487488448619842529296875">
        <ele>59</ele>
        <time>2025-09-05T13:30:27.000Z</time>
        <extensions>
          <ns3:TrackPointExtension>
            <ns3:hr>148</ns3:hr>
            <ns3:cad>0</ns3:cad>
          </ns3:TrackPointExtension>
        </extensions>
      </trkpt>
      <trkpt lat="52.0902277529239654541015625" lon="1.31813666783273220062255859375">
        <ele>59.799999237060546875</ele>
        <time>2025-09-05T13:30:29.000Z</time>
        <extensions>
          <ns3:TrackPointExtension>
            <ns3:hr>149</ns3:hr>
            <ns3:cad>0</ns3:cad>
          </ns3:TrackPointExtension>
        </extensions>
      </trkpt>
      <trkpt lat="52.0902741886675357818603515625" lon="1.318192742764949798583984375">
        <ele>61</ele>
        <time>2025-09-05T13:30:32.000Z</time>
        <extensions>
          <ns3:TrackPointExtension>
            <ns3:hr>147</ns3:hr>
            <ns3:cad>60</ns3:cad>
          </ns3:TrackPointExtension>
        </extensions>
      </trkpt>
      <trkpt lat="52.0902974903583526611328125" lon="1.31822551600635051727294921875">
        <ele>62</ele>
        <time>2025-09-05T13:30:34.000Z</time>
        <extensions>
          <ns3:TrackPointExtension>
            <ns3:hr>147</ns3:hr>
            <ns3:cad>60</ns3:cad>
          </ns3:TrackPointExtension>
        </extensions>
      </trkpt>
      <trkpt lat="52.09031064994633197784423828125" lon="1.3182385079562664031982421875">
        <ele>62.40000152587890625</ele>
        <time>2025-09-05T13:30:35.000Z</time>
        <extensions>
          <ns3:TrackPointExtension>
            <ns3:hr>147</ns3:hr>
            <ns3:cad>60</ns3:cad>
          </ns3:TrackPointExtension>
        </extensions>
      </trkpt>
      <trkpt lat="52.09034535102546215057373046875" lon="1.3182991929352283477783203125">
        <ele>63.799999237060546875</ele>
        <time>2025-09-05T13:30:38.000Z</time>
        <extensions>
          <ns3:TrackPointExtension>
            <ns3:hr>149</ns3:hr>
            <ns3:cad>65</ns3:cad>
          </ns3:TrackPointExtension>
        </extensions>
      </trkpt>
      <trkpt lat="52.0903677307069301605224609375" lon="1.31833632476627826690673828125">
        <ele>65</ele>
        <time>2025-09-05T13:30:40.000Z</time>
        <extensions>
          <ns3:TrackPointExtension>
            <ns3:hr>148</ns3:hr>
            <ns3:cad>65</ns3:cad>
          </ns3:TrackPointExtension>
        </extensions>
      </trkpt>
      <trkpt lat="52.0903821475803852081298828125" lon="1.318379156291484832763671875">
        <ele>66</ele>
        <time>2025-09-05T13:30:42.000Z</time>
        <extensions>
          <ns3:TrackPointExtension>
            <ns3:hr>146</ns3:hr>
            <ns3:cad>61</ns3:cad>
          </ns3:TrackPointExtension>
        </extensions>
      </trkpt>
      <trkpt lat="52.090399079024791717529296875" lon="1.31842265836894512176513671875">
        <ele>67</ele>
        <time>2025-09-05T13:30:44.000Z</time>
        <extensions>
          <ns3:TrackPointExtension>
            <ns3:hr>147</ns3:hr>
            <ns3:cad>0</ns3:cad>
          </ns3:TrackPointExtension>
        </extensions>
      </trkpt>
      <trkpt lat="52.09042045287787914276123046875" lon="1.31847563199698925018310546875">
        <ele>68.1999969482421875</ele>
        <time>2025-09-05T13:30:46.000Z</time>
        <extensions>
          <ns3:TrackPointExtension>
            <ns3:hr>145</ns3:hr>
            <ns3:cad>0</ns3:cad>
          </ns3:TrackPointExtension>
        </extensions>
      </trkpt>
      <trkpt lat="52.09042564965784549713134765625" lon="1.3185030408203601837158203125">
        <ele>68.8000030517578125</ele>
        <time>2025-09-05T13:30:47.000Z</time>
        <extensions>
          <ns3:TrackPointExtension>
            <ns3:hr>145</ns3:hr>
            <ns3:cad>0</ns3:cad>
          </ns3:TrackPointExtension>
        </extensions>
      </trkpt>
      <trkpt lat="52.0904257334768772125244140625" lon="1.31853145547211170196533203125">
        <ele>69.40000152587890625</ele>
        <time>2025-09-05T13:30:48.000Z</time>
        <extensions>
          <ns3:TrackPointExtension>
            <ns3:hr>146</ns3:hr>
            <ns3:cad>0</ns3:cad>
          </ns3:TrackPointExtension>
        </extensions>
      </trkpt>
      <trkpt lat="52.09040503017604351043701171875" lon="1.31858543492853641510009765625">
        <ele>70.59999847412109375</ele>
        <time>2025-09-05T13:30:50.000Z</time>
        <extensions>
          <ns3:TrackPointExtension>
            <ns3:hr>146</ns3:hr>
            <ns3:cad>0</ns3:cad>
          </ns3:TrackPointExtension>
        </extensions>
      </trkpt>
      <trkpt lat="52.09038223139941692352294921875" lon="1.31863170303404331207275390625">
        <ele>71.8000030517578125</ele>
        <time>2025-09-05T13:30:52.000Z</time>
        <extensions>
          <ns3:TrackPointExtension>
            <ns3:hr>147</ns3:hr>
            <ns3:cad>58</ns3:cad>
          </ns3:TrackPointExtension>
        </extensions>
      </trkpt>
      <trkpt lat="52.09036697633564472198486328125" lon="1.31865651346743106842041015625">
        <ele>73</ele>
        <time>2025-09-05T13:30:54.000Z</time>
        <extensions>
          <ns3:TrackPointExtension>
            <ns3:hr>148</ns3:hr>
            <ns3:cad>61</ns3:cad>
          </ns3:TrackPointExtension>
        </extensions>
      </trkpt>
      <trkpt lat="52.09036328829824924468994140625" lon="1.31865148432552814483642578125">
        <ele>74.1999969482421875</ele>
        <time>2025-09-05T13:30:56.000Z</time>
        <extensions>
          <ns3:TrackPointExtension>
            <ns3:hr>149</ns3:hr>
            <ns3:cad>61</ns3:cad>
          </ns3:TrackPointExtension>
        </extensions>
      </trkpt>
      <trkpt lat="52.0903627015650272369384765625" lon="1.31864729337394237518310546875">
        <ele>74.8000030517578125</ele>
        <time>2025-09-05T13:30:57.000Z</time>
        <extensions>
          <ns3:TrackPointExtension>
            <ns3:hr>149</ns3:hr>
            <ns3:cad>59</ns3:cad>
          </ns3:TrackPointExtension>
        </extensions>
      </trkpt>
      <trkpt lat="52.09036387503147125244140625" lon="1.3186441920697689056396484375">
        <ele>75.40000152587890625</ele>
        <time>2025-09-05T13:30:58.000Z</time>
        <extensions>
          <ns3:TrackPointExtension>
            <ns3:hr>151</ns3:hr>
            <ns3:cad>59</ns3:cad>
          </ns3:TrackPointExtension>
        </extensions>
      </trkpt>
      <trkpt lat="52.090372927486896514892578125" lon="1.31864611990749835968017578125">
        <ele>76.8000030517578125</ele>
        <time>2025-09-05T13:31:00.000Z</time>
        <extensions>
          <ns3:TrackPointExtension>
            <ns3:hr>150</ns3:hr>
            <ns3:cad>50</ns3:cad>
          </ns3:TrackPointExtension>
        </extensions>
      </trkpt>
      <trkpt lat="52.0903818123042583465576171875" lon="1.3186503946781158447265625">
        <ele>78.1999969482421875</ele>
        <time>2025-09-05T13:31:02.000Z</time>
        <extensions>
          <ns3:TrackPointExtension>
            <ns3:hr>152</ns3:hr>
            <ns3:cad>45</ns3:cad>
          </ns3:TrackPointExtension>
        </extensions>
      </trkpt>
      <trkpt lat="52.09039329551160335540771484375" lon="1.31866673938930034637451171875">
        <ele>79.8000030517578125</ele>
        <time>2025-09-05T13:31:04.000Z</time>
        <extensions>
          <ns3:TrackPointExtension>
            <ns3:hr>149</ns3:hr>
            <ns3:cad>44</ns3:cad>
          </ns3:TrackPointExtension>
        </extensions>
      </trkpt>
      <trkpt lat="52.09040754474699497222900390625" lon="1.31867520511150360107421875">
        <ele>81.59999847412109375</ele>
        <time>2025-09-05T13:31:06.000Z</time>
        <extensions>
          <ns3:TrackPointExtension>
            <ns3:hr>147</ns3:hr>
            <ns3:cad>44</ns3:cad>
          </ns3:TrackPointExtension>
        </extensions>
      </trkpt>
      <trkpt lat="52.090414501726627349853515625" lon="1.31868836469948291778564453125">
        <ele>83.1999969482421875</ele>
        <time>2025-09-05T13:31:08.000Z</time>
        <extensions>
          <ns3:TrackPointExtension>
            <ns3:hr>147</ns3:hr>
            <ns3:cad>0</ns3:cad>
          </ns3:TrackPointExtension>
        </extensions>
      </trkpt>
      <trkpt lat="52.0904193632304668426513671875" lon="1.31869205273687839508056640625">
        <ele>84.8000030517578125</ele>
        <time>2025-09-05T13:31:10.000Z</time>
        <extensions>
          <ns3:TrackPointExtension>
            <ns3:hr>148</ns3:hr>
            <ns3:cad>0</ns3:cad>
          </ns3:TrackPointExtension>
        </extensions>
      </trkpt>
      <trkpt lat="52.0904136635363101959228515625" lon="1.31871032528579235076904296875">
        <ele>86.40000152587890625</ele>
        <time>2025-09-05T13:31:12.000Z</time>
        <extensions>
          <ns3:TrackPointExtension>
            <ns3:hr>148</ns3:hr>
            <ns3:cad>0</ns3:cad>
          </ns3:TrackPointExtension>
        </extensions>
      </trkpt>
      <trkpt lat="52.0904062874615192413330078125" lon="1.3187353871762752532958984375">
        <ele>88</ele>
        <time>2025-09-05T13:31:14.000Z</time>
        <extensions>
          <ns3:TrackPointExtension>
            <ns3:hr>148</ns3:hr>
            <ns3:cad>0</ns3:cad>
          </ns3:TrackPointExtension>
        </extensions>
      </trkpt>
      <trkpt lat="52.09040469489991664886474609375" lon="1.3187397457659244537353515625">
        <ele>89.59999847412109375</ele>
        <time>2025-09-05T13:31:16.000Z</time>
        <extensions>
          <ns3:TrackPointExtension>
            <ns3:hr>148</ns3:hr>
            <ns3:cad>0</ns3:cad>
          </ns3:TrackPointExtension>
        </extensions>
      </trkpt>
      <trkpt lat="52.0904190279543399810791015625" lon="1.318757347762584686279296875">
        <ele>91.40000152587890625</ele>
        <time>2025-09-05T13:31:18.000Z</time>
        <extensions>
          <ns3:TrackPointExtension>
            <ns3:hr>148</ns3:hr>
            <ns3:cad>0</ns3:cad>
          </ns3:TrackPointExtension>
        </extensions>
      </trkpt>
      <trkpt lat="52.0904284156858921051025390625" lon="1.31877335719764232635498046875">
        <ele>93</ele>
        <time>2025-09-05T13:31:20.000Z</time>
        <extensions>
          <ns3:TrackPointExtension>
            <ns3:hr>148</ns3:hr>
            <ns3:cad>0</ns3:cad>
          </ns3:TrackPointExtension>
        </extensions>
      </trkpt>
      <trkpt lat="52.09043503738939762115478515625" lon="1.31878425367176532745361328125">
        <ele>94.59999847412109375</ele>
        <time>2025-09-05T13:31:22.000Z</time>
        <extensions>
          <ns3:TrackPointExtension>
            <ns3:hr>148</ns3:hr>
            <ns3:cad>0</ns3:cad>
          </ns3:TrackPointExtension>
        </extensions>
      </trkpt>
      <trkpt lat="52.09045314230024814605712890625" lon="1.318792887032032012939453125">
        <ele>96.1999969482421875</ele>
        <time>2025-09-05T13:31:24.000Z</time>
        <extensions>
          <ns3:TrackPointExtension>
            <ns3:hr>148</ns3:hr>
            <ns3:cad>0</ns3:cad>
          </ns3:TrackPointExtension>
        </extensions>
      </trkpt>
      <trkpt lat="52.0904525555670261383056640625" lon="1.31879850290715694427490234375">
        <ele>98</ele>
        <time>2025-09-05T13:31:26.000Z</time>
        <extensions>
          <ns3:TrackPointExtension>
            <ns3:hr>148</ns3:hr>
            <ns3:cad>0</ns3:cad>
          </ns3:TrackPointExtension>
        </extensions>
      </trkpt>
      <trkpt lat="52.09044794552028179168701171875" lon="1.318812668323516845703125">
        <ele>99.59999847412109375</ele>
        <time>2025-09-05T13:31:28.000Z</time>
        <extensions>
          <ns3:TrackPointExtension>
            <ns3:hr>147</ns3:hr>
            <ns3:cad>0</ns3:cad>
          </ns3:TrackPointExtension>
        </extensions>
      </trkpt>
      <trkpt lat="52.09044710732996463775634765625" lon="1.318821720778942108154296875">
        <ele>101.1999969482421875</ele>
        <time>2025-09-05T13:31:30.000Z</time>
        <extensions>
          <ns3:TrackPointExtension>
            <ns3:hr>147</ns3:hr>
            <ns3:cad>0</ns3:cad>
          </ns3:TrackPointExtension>
        </extensions>
      </trkpt>
      <trkpt lat="52.0904562436044216156005859375" lon="1.3188074715435504913330078125">
        <ele>104.8000030517578125</ele>
        <time>2025-09-05T13:31:34.000Z</time>
        <extensions>
          <ns3:TrackPointExtension>
            <ns3:hr>146</ns3:hr>
            <ns3:cad>0</ns3:cad>
          </ns3:TrackPointExtension>
        </extensions>
      </trkpt>
      <trkpt lat="52.0904606021940708160400390625" lon="1.31880420260131359100341796875">
        <ele>106.59999847412109375</ele>
        <time>2025-09-05T13:31:36.000Z</time>
        <extensions>
          <ns3:TrackPointExtension>
            <ns3:hr>147</ns3:hr>
            <ns3:cad>0</ns3:cad>
          </ns3:TrackPointExtension>
        </extensions>
      </trkpt>
      <trkpt lat="52.09044174291193485260009765625" lon="1.31878978572785854339599609375">
        <ele>110.1999969482421875</ele>
        <time>2025-09-05T13:31:40.000Z</time>
        <extensions>
          <ns3:TrackPointExtension>
            <ns3:hr>146</ns3:hr>
            <ns3:cad>0</ns3:cad>
          </ns3:TrackPointExtension>
        </extensions>
      </trkpt>
      <trkpt lat="52.0904331095516681671142578125" lon="1.31877603940665721893310546875">
        <ele>112</ele>
        <time>2025-09-05T13:31:42.000Z</time>
        <extensions>
          <ns3:TrackPointExtension>
            <ns3:hr>146</ns3:hr>
            <ns3:cad>0</ns3:cad>
          </ns3:TrackPointExtension>
        </extensions>
      </trkpt>
      <trkpt lat="52.0904170162975788116455078125" lon="1.31876908242702484130859375">
        <ele>113</ele>
        <time>2025-09-05T13:31:43.000Z</time>
        <extensions>
          <ns3:TrackPointExtension>
            <ns3:hr>144</ns3:hr>
            <ns3:cad>0</ns3:cad>
          </ns3:TrackPointExtension>
        </extensions>
      </trkpt>
      <trkpt lat="52.0904133282601833343505859375" lon="1.31877310574054718017578125">
        <ele>113.8000030517578125</ele>
        <time>2025-09-05T13:31:44.000Z</time>
        <extensions>
          <ns3:TrackPointExtension>
            <ns3:hr>145</ns3:hr>
            <ns3:cad>0</ns3:cad>
          </ns3:TrackPointExtension>
        </extensions>
      </trkpt>
      <trkpt lat="52.0903868414461612701416015625" lon="1.31873555481433868408203125">
        <ele>115.59999847412109375</ele>
        <time>2025-09-05T13:31:46.000Z</time>
        <extensions>
          <ns3:TrackPointExtension>
            <ns3:hr>143</ns3:hr>
            <ns3:cad>0</ns3:cad>
          </ns3:TrackPointExtension>
        </extensions>
      </trkpt>
      <trkpt lat="52.09036261774599552154541015625" lon="1.318743936717510223388671875">
        <ele>116.59999847412109375</ele>
        <time>2025-09-05T13:31:47.000Z</time>
        <extensions>
          <ns3:TrackPointExtension>
            <ns3:hr>144</ns3:hr>
            <ns3:cad>0</ns3:cad>
          </ns3:TrackPointExtension>
        </extensions>
      </trkpt>
      <trkpt lat="52.09035239182412624359130859375" lon="1.31873077712953090667724609375">
        <ele>117.40000152587890625</ele>
        <time>2025-09-05T13:31:48.000Z</time>
        <extensions>
          <ns3:TrackPointExtension>
            <ns3:hr>145</ns3:hr>
            <ns3:cad>0</ns3:cad>
          </ns3:TrackPointExtension>
        </extensions>
      </trkpt>
      <trkpt lat="52.09034333936870098114013671875" lon="1.3187132589519023895263671875">
        <ele>119.1999969482421875</ele>
        <time>2025-09-05T13:31:50.000Z</time>
        <extensions>
          <ns3:TrackPointExtension>
            <ns3:hr>144</ns3:hr>
            <ns3:cad>60</ns3:cad>
          </ns3:TrackPointExtension>
        </extensions>
      </trkpt>
      <trkpt lat="52.09033227525651454925537109375" lon="1.3187172822654247283935546875">
        <ele>120.8000030517578125</ele>
        <time>2025-09-05T13:31:52.000Z</time>
        <extensions>
          <ns3:TrackPointExtension>
            <ns3:hr>143</ns3:hr>
            <ns3:cad>60</ns3:cad>
          </ns3:TrackPointExtension>
        </extensions>
      </trkpt>
      <trkpt lat="52.09033244289457798004150390625" lon="1.3187199644744396209716796875">
        <ele>122.59999847412109375</ele>
        <time>2025-09-05T13:31:54.000Z</time>
        <extensions>
          <ns3:TrackPointExtension>
            <ns3:hr>142</ns3:hr>
            <ns3:cad>0</ns3:cad>
          </ns3:TrackPointExtension>
        </extensions>
      </trkpt>
      <trkpt lat="52.09033646620810031890869140625" lon="1.3187142647802829742431640625">
        <ele>124.1999969482421875</ele>
        <time>2025-09-05T13:31:56.000Z</time>
        <extensions>
          <ns3:TrackPointExtension>
            <ns3:hr>141</ns3:hr>
            <ns3:cad>0</ns3:cad>
          </ns3:TrackPointExtension>
        </extensions>
      </trkpt>
      <trkpt lat="52.090350799262523651123046875" lon="1.31870378740131855010986328125">
        <ele>126</ele>
        <time>2025-09-05T13:31:58.000Z</time>
        <extensions>
          <ns3:TrackPointExtension>
            <ns3:hr>142</ns3:hr>
            <ns3:cad>0</ns3:cad>
          </ns3:TrackPointExtension>
        </extensions>
      </trkpt>
      <trkpt lat="52.09035792388021945953369140625" lon="1.31869758479297161102294921875">
        <ele>127.8000030517578125</ele>
        <time>2025-09-05T13:32:00.000Z</time>
        <extensions>
          <ns3:TrackPointExtension>
            <ns3:hr>142</ns3:hr>
            <ns3:cad>0</ns3:cad>
          </ns3:TrackPointExtension>
        </extensions>
      </trkpt>
      <trkpt lat="52.0903673954308032989501953125" lon="1.31868836469948291778564453125">
        <ele>129.600006103515625</ele>
        <time>2025-09-05T13:32:02.000Z</time>
        <extensions>
          <ns3:TrackPointExtension>
            <ns3:hr>141</ns3:hr>
            <ns3:cad>0</ns3:cad>
          </ns3:TrackPointExtension>
        </extensions>
      </trkpt>
      <trkpt lat="52.0903761126101016998291015625" lon="1.3186772167682647705078125">
        <ele>131.600006103515625</ele>
        <time>2025-09-05T13:32:04.000Z</time>
        <extensions>
          <ns3:TrackPointExtension>
            <ns3:hr>142</ns3:hr>
            <ns3:cad>0</ns3:cad>
          </ns3:TrackPointExtension>
        </extensions>
      </trkpt>
      <trkpt lat="52.0903838239610195159912109375" lon="1.31867126561701297760009765625">
        <ele>132.600006103515625</ele>
        <time>2025-09-05T13:32:05.000Z</time>
        <extensions>
          <ns3:TrackPointExtension>
            <ns3:hr>140</ns3:hr>
            <ns3:cad>0</ns3:cad>
          </ns3:TrackPointExtension>
        </extensions>
      </trkpt>
      <trkpt lat="52.09039027802646160125732421875" lon="1.31866724230349063873291015625">
        <ele>133.600006103515625</ele>
        <time>2025-09-05T13:32:06.000Z</time>
        <extensions>
          <ns3:TrackPointExtension>
            <ns3:hr>140</ns3:hr>
            <ns3:cad>0</ns3:cad>
          </ns3:TrackPointExtension>
        </extensions>
      </trkpt>
      <trkpt lat="52.09039530716836452484130859375" lon="1.31866221316158771514892578125">
        <ele>134.600006103515625</ele>
        <time>2025-09-05T13:32:07.000Z</time>
        <extensions>
          <ns3:TrackPointExtension>
            <ns3:hr>137</ns3:hr>
            <ns3:cad>0</ns3:cad>
          </ns3:TrackPointExtension>
        </extensions>
      </trkpt>
      <trkpt lat="52.0903999172151088714599609375" lon="1.31865911185741424560546875">
        <ele>135.600006103515625</ele>
        <time>2025-09-05T13:32:08.000Z</time>
        <extensions>
          <ns3:TrackPointExtension>
            <ns3:hr>136</ns3:hr>
            <ns3:cad>0</ns3:cad>
          </ns3:TrackPointExtension>
        </extensions>
      </trkpt>
      <trkpt lat="52.09040620364248752593994140625" lon="1.31865785457193851470947265625">
        <ele>136.8000030517578125</ele>
        <time>2025-09-05T13:32:09.000Z</time>
        <extensions>
          <ns3:TrackPointExtension>
            <ns3:hr>135</ns3:hr>
            <ns3:cad>0</ns3:cad>
          </ns3:TrackPointExtension>
        </extensions>
      </trkpt>
      <trkpt lat="52.09041072987020015716552734375" lon="1.31865416653454303741455078125">
        <ele>137.8000030517578125</ele>
        <time>2025-09-05T13:32:10.000Z</time>
        <extensions>
          <ns3:TrackPointExtension>
            <ns3:hr>134</ns3:hr>
            <ns3:cad>0</ns3:cad>
          </ns3:TrackPointExtension>
        </extensions>
      </trkpt>
      <trkpt lat="52.0904166810214519500732421875" lon="1.31865483708679676055908203125">
        <ele>139.8000030517578125</ele>
        <time>2025-09-05T13:32:12.000Z</time>
        <extensions>
          <ns3:TrackPointExtension>
            <ns3:hr>133</ns3:hr>
            <ns3:cad>0</ns3:cad>
          </ns3:TrackPointExtension>
        </extensions>
      </trkpt>
      <trkpt lat="52.090416848659515380859375" lon="1.31865584291517734527587890625">
        <ele>141.8000030517578125</ele>
        <time>2025-09-05T13:32:14.000Z</time>
        <extensions>
          <ns3:TrackPointExtension>
            <ns3:hr>134</ns3:hr>
            <ns3:cad>0</ns3:cad>
          </ns3:TrackPointExtension>
        </extensions>
      </trkpt>
      <trkpt lat="52.09040804766118526458740234375" lon="1.3186611235141754150390625">
        <ele>143.8000030517578125</ele>
        <time>2025-09-05T13:32:16.000Z</time>
        <extensions>
          <ns3:TrackPointExtension>
            <ns3:hr>134</ns3:hr>
            <ns3:cad>0</ns3:cad>
          </ns3:TrackPointExtension>
        </extensions>
      </trkpt>
      <trkpt lat="52.09040385670959949493408203125" lon="1.31866472773253917694091796875">
        <ele>144.8000030517578125</ele>
        <time>2025-09-05T13:32:17.000Z</time>
        <extensions>
          <ns3:TrackPointExtension>
            <ns3:hr>134</ns3:hr>
            <ns3:cad>0</ns3:cad>
          </ns3:TrackPointExtension>
        </extensions>
      </trkpt>
      <trkpt lat="52.090395726263523101806640625" lon="1.318672187626361846923828125">
        <ele>146.600006103515625</ele>
        <time>2025-09-05T13:32:19.000Z</time>
        <extensions>
          <ns3:TrackPointExtension>
            <ns3:hr>135</ns3:hr>
            <ns3:cad>0</ns3:cad>
          </ns3:TrackPointExtension>
        </extensions>
      </trkpt>
      <trkpt lat="52.0903912000358104705810546875" lon="1.31867545656859874725341796875">
        <ele>148.600006103515625</ele>
        <time>2025-09-05T13:32:21.000Z</time>
        <extensions>
          <ns3:TrackPointExtension>
            <ns3:hr>136</ns3:hr>
            <ns3:cad>0</ns3:cad>
          </ns3:TrackPointExtension>
        </extensions>
      </trkpt>
      <trkpt lat="52.0903855003416538238525390625" lon="1.31868232972919940948486328125">
        <ele>150.399993896484375</ele>
        <time>2025-09-05T13:32:23.000Z</time>
        <extensions>
          <ns3:TrackPointExtension>
            <ns3:hr>137</ns3:hr>
            <ns3:cad>0</ns3:cad>
          </ns3:TrackPointExtension>
        </extensions>
      </trkpt>
      <trkpt lat="52.09038223139941692352294921875" lon="1.3186857663094997406005859375">
        <ele>152.399993896484375</ele>
        <time>2025-09-05T13:32:25.000Z</time>
        <extensions>
          <ns3:TrackPointExtension>
            <ns3:hr>137</ns3:hr>
            <ns3:cad>0</ns3:cad>
          </ns3:TrackPointExtension>
        </extensions>
      </trkpt>
      <trkpt lat="52.090380974113941192626953125" lon="1.31868702359497547149658203125">
        <ele>154.1999969482421875</ele>
        <time>2025-09-05T13:32:27.000Z</time>
        <extensions>
          <ns3:TrackPointExtension>
            <ns3:hr>138</ns3:hr>
            <ns3:cad>0</ns3:cad>
          </ns3:TrackPointExtension>
        </extensions>
      </trkpt>
      <trkpt lat="52.09038357250392436981201171875" lon="1.318683922290802001953125">
        <ele>156</ele>
        <time>2025-09-05T13:32:29.000Z</time>
        <extensions>
          <ns3:TrackPointExtension>
            <ns3:cad>0</ns3:cad>
          </ns3:TrackPointExtension>
        </extensions>
      </trkpt>
      <trkpt lat="52.090387009084224700927734375" lon="1.31867922842502593994140625">
        <ele>157.8000030517578125</ele>
        <time>2025-09-05T13:32:31.000Z</time>
        <extensions>
          <ns3:TrackPointExtension>
            <ns3:hr>140</ns3:hr>
            <ns3:cad>0</ns3:cad>
          </ns3:TrackPointExtension>
        </extensions>
      </trkpt>
      <trkpt lat="52.09038474597036838531494140625" lon="1.31868333555757999420166015625">
        <ele>159.399993896484375</ele>
        <time>2025-09-05T13:32:33.000Z</time>
        <extensions>
          <ns3:TrackPointExtension>
            <ns3:hr>139</ns3:hr>
            <ns3:cad>0</ns3:cad>
          </ns3:TrackPointExtension>
        </extensions>
      </trkpt>
      <trkpt lat="52.09038441069424152374267578125" lon="1.31868325173854827880859375">
        <ele>160.399993896484375</ele>
        <time>2025-09-05T13:32:34.000Z</time>
        <extensions>
          <ns3:TrackPointExtension>
            <ns3:hr>138</ns3:hr>
            <ns3:cad>0</ns3:cad>
          </ns3:TrackPointExtension>
        </extensions>
      </trkpt>
      <trkpt lat="52.09038457833230495452880859375" lon="1.318683922290802001953125">
        <ele>161.1999969482421875</ele>
        <time>2025-09-05T13:32:35.000Z</time>
        <extensions>
          <ns3:TrackPointExtension>
            <ns3:hr>139</ns3:hr>
            <ns3:cad>0</ns3:cad>
          </ns3:TrackPointExtension>
        </extensions>
      </trkpt>
      <trkpt lat="52.09038675762712955474853515625" lon="1.31868266500532627105712890625">
        <ele>159.1999969482421875</ele>
        <time>2025-09-05T13:32:37.000Z</time>
        <extensions>
          <ns3:TrackPointExtension>
            <ns3:hr>138</ns3:hr>
            <ns3:cad>0</ns3:cad>
          </ns3:TrackPointExtension>
        </extensions>
      </trkpt>
      <trkpt lat="52.090382985770702362060546875" lon="1.31867922842502593994140625">
        <ele>157.399993896484375</ele>
        <time>2025-09-05T13:32:39.000Z</time>
        <extensions>
          <ns3:TrackPointExtension>
            <ns3:hr>138</ns3:hr>
            <ns3:cad>0</ns3:cad>
          </ns3:TrackPointExtension>
        </extensions>
      </trkpt>
      <trkpt lat="52.09039363078773021697998046875" lon="1.31867528893053531646728515625">
        <ele>155.600006103515625</ele>
        <time>2025-09-05T13:32:41.000Z</time>
        <extensions>
          <ns3:TrackPointExtension>
            <ns3:hr>139</ns3:hr>
            <ns3:cad>0</ns3:cad>
          </ns3:TrackPointExtension>
        </extensions>
      </trkpt>
      <trkpt lat="52.09039916284382343292236328125" lon="1.3186718523502349853515625">
        <ele>154</ele>
        <time>2025-09-05T13:32:43.000Z</time>
        <extensions>
          <ns3:TrackPointExtension>
            <ns3:hr>141</ns3:hr>
            <ns3:cad>0</ns3:cad>
          </ns3:TrackPointExtension>
        </extensions>
      </trkpt>
      <trkpt lat="52.09039664827287197113037109375" lon="1.3186646439135074615478515625">
        <ele>152.1999969482421875</ele>
        <time>2025-09-05T13:32:45.000Z</time>
        <extensions>
          <ns3:TrackPointExtension>
            <ns3:hr>141</ns3:hr>
            <ns3:cad>0</ns3:cad>
          </ns3:TrackPointExtension>
        </extensions>
      </trkpt>
      <trkpt lat="52.09039782173931598663330078125" lon="1.3186599500477313995361328125">
        <ele>150.8000030517578125</ele>
        <time>2025-09-05T13:32:47.000Z</time>
        <extensions>
          <ns3:TrackPointExtension>
            <ns3:hr>139</ns3:hr>
            <ns3:cad>0</ns3:cad>
          </ns3:TrackPointExtension>
        </extensions>
      </trkpt>
      <trkpt lat="52.0904012583196163177490234375" lon="1.3186559267342090606689453125">
        <ele>149.399993896484375</ele>
        <time>2025-09-05T13:32:49.000Z</time>
        <extensions>
          <ns3:TrackPointExtension>
            <ns3:hr>140</ns3:hr>
            <ns3:cad>0</ns3:cad>
          </ns3:TrackPointExtension>
        </extensions>
      </trkpt>
      <trkpt lat="52.09040167741477489471435546875" lon="1.3186552561819553375244140625">
        <ele>148.8000030517578125</ele>
        <time>2025-09-05T13:32:50.000Z</time>
        <extensions>
          <ns3:TrackPointExtension>
            <ns3:hr>139</ns3:hr>
            <ns3:cad>0</ns3:cad>
          </ns3:TrackPointExtension>
        </extensions>
      </trkpt>
      <trkpt lat="52.09039731882512569427490234375" lon="1.3186498917639255523681640625">
        <ele>148.1999969482421875</ele>
        <time>2025-09-05T13:32:51.000Z</time>
        <extensions>
          <ns3:TrackPointExtension>
            <ns3:hr>137</ns3:hr>
            <ns3:cad>0</ns3:cad>
          </ns3:TrackPointExtension>
        </extensions>
      </trkpt>
      <trkpt lat="52.09039865992963314056396484375" lon="1.3186405040323734283447265625">
        <ele>147</ele>
        <time>2025-09-05T13:32:53.000Z</time>
        <extensions>
          <ns3:TrackPointExtension>
            <ns3:hr>135</ns3:hr>
            <ns3:cad>0</ns3:cad>
          </ns3:TrackPointExtension>
        </extensions>
      </trkpt>
      <trkpt lat="52.09039698354899883270263671875" lon="1.31863673217594623565673828125">
        <ele>146</ele>
        <time>2025-09-05T13:32:55.000Z</time>
        <extensions>
          <ns3:TrackPointExtension>
            <ns3:hr>134</ns3:hr>
            <ns3:cad>0</ns3:cad>
          </ns3:TrackPointExtension>
        </extensions>
      </trkpt>
      <trkpt lat="52.09040720947086811065673828125" lon="1.31862734444439411163330078125">
        <ele>144.600006103515625</ele>
        <time>2025-09-05T13:32:58.000Z</time>
        <extensions>
          <ns3:TrackPointExtension>
            <ns3:hr>133</ns3:hr>
            <ns3:cad>0</ns3:cad>
          </ns3:TrackPointExtension>
        </extensions>
      </trkpt>
      <trkpt lat="52.09040503017604351043701171875" lon="1.31862499751150608062744140625">
        <ele>143.600006103515625</ele>
        <time>2025-09-05T13:33:01.000Z</time>
        <extensions>
          <ns3:TrackPointExtension>
            <ns3:hr>133</ns3:hr>
            <ns3:cad>0</ns3:cad>
          </ns3:TrackPointExtension>
        </extensions>
      </trkpt>
      <trkpt lat="52.09041089750826358795166015625" lon="1.318623907864093780517578125">
        <ele>142.600006103515625</ele>
        <time>2025-09-05T13:33:04.000Z</time>
        <extensions>
          <ns3:TrackPointExtension>
            <ns3:hr>132</ns3:hr>
            <ns3:cad>0</ns3:cad>
          </ns3:TrackPointExtension>
        </extensions>
      </trkpt>
      <trkpt lat="52.09041710011661052703857421875" lon="1.318623907864093780517578125">
        <ele>141.399993896484375</ele>
        <time>2025-09-05T13:33:08.000Z</time>
        <extensions>
          <ns3:TrackPointExtension>
            <ns3:hr>132</ns3:hr>
            <ns3:cad>0</ns3:cad>
          </ns3:TrackPointExtension>
        </extensions>
      </trkpt>
      <trkpt lat="52.090416848659515380859375" lon="1.31862692534923553466796875">
        <ele>140.8000030517578125</ele>
        <time>2025-09-05T13:33:10.000Z</time>
        <extensions>
          <ns3:TrackPointExtension>
            <ns3:hr>137</ns3:hr>
            <ns3:cad>0</ns3:cad>
          </ns3:TrackPointExtension>
        </extensions>
      </trkpt>
      <trkpt lat="52.0904208719730377197265625" lon="1.31862885318696498870849609375">
        <ele>140.1999969482421875</ele>
        <time>2025-09-05T13:33:13.000Z</time>
        <extensions>
          <ns3:TrackPointExtension>
            <ns3:hr>138</ns3:hr>
            <ns3:cad>0</ns3:cad>
          </ns3:TrackPointExtension>
        </extensions>
      </trkpt>
      <trkpt lat="52.0904274098575115203857421875" lon="1.3186394982039928436279296875">
        <ele>139.1999969482421875</ele>
        <time>2025-09-05T13:33:19.000Z</time>
        <extensions>
          <ns3:TrackPointExtension>
            <ns3:hr>137</ns3:hr>
            <ns3:cad>0</ns3:cad>
          </ns3:TrackPointExtension>
        </extensions>
      </trkpt>
      <trkpt lat="52.09042715840041637420654296875" lon="1.3186396658420562744140625">
        <ele>139</ele>
        <time>2025-09-05T13:33:20.000Z</time>
        <extensions>
          <ns3:TrackPointExtension>
            <ns3:hr>136</ns3:hr>
            <ns3:cad>0</ns3:cad>
          </ns3:TrackPointExtension>
        </extensions>
      </trkpt>
      <trkpt lat="52.090406119823455810546875" lon="1.31866606883704662322998046875">
        <ele>139.399993896484375</ele>
        <time>2025-09-05T13:33:34.000Z</time>
        <extensions>
          <ns3:TrackPointExtension>
            <ns3:hr>132</ns3:hr>
            <ns3:cad>0</ns3:cad>
          </ns3:TrackPointExtension>
        </extensions>
      </trkpt>
      <trkpt lat="52.09040285088121891021728515625" lon="1.31869205273687839508056640625">
        <ele>139.399993896484375</ele>
        <time>2025-09-05T13:33:35.000Z</time>
        <extensions>
          <ns3:TrackPointExtension>
            <ns3:hr>133</ns3:hr>
            <ns3:cad>72</ns3:cad>
          </ns3:TrackPointExtension>
        </extensions>
      </trkpt>
      <trkpt lat="52.0904103107750415802001953125" lon="1.3187444396317005157470703125">
        <ele>139.8000030517578125</ele>
        <time>2025-09-05T13:33:37.000Z</time>
        <extensions>
          <ns3:TrackPointExtension>
            <ns3:hr>130</ns3:hr>
            <ns3:cad>72</ns3:cad>
          </ns3:TrackPointExtension>
        </extensions>
      </trkpt>
      <trkpt lat="52.0904200337827205657958984375" lon="1.318772770464420318603515625">
        <ele>140</ele>
        <time>2025-09-05T13:33:38.000Z</time>
        <extensions>
          <ns3:TrackPointExtension>
            <ns3:hr>133</ns3:hr>
            <ns3:cad>74</ns3:cad>
          </ns3:TrackPointExtension>
        </extensions>
      </trkpt>
      <trkpt lat="52.09042917005717754364013671875" lon="1.31880487315356731414794921875">
        <ele>140.1999969482421875</ele>
        <time>2025-09-05T13:33:39.000Z</time>
        <extensions>
          <ns3:TrackPointExtension>
            <ns3:hr>131</ns3:hr>
            <ns3:cad>76</ns3:cad>
          </ns3:TrackPointExtension>
        </extensions>
      </trkpt>
      <trkpt lat="52.0904488675296306610107421875" lon="1.31887226365506649017333984375">
        <ele>140.600006103515625</ele>
        <time>2025-09-05T13:33:41.000Z</time>
        <extensions>
          <ns3:TrackPointExtension>
            <ns3:hr>130</ns3:hr>
            <ns3:cad>78</ns3:cad>
          </ns3:TrackPointExtension>
        </extensions>
      </trkpt>
      <trkpt lat="52.09044962190091609954833984375" lon="1.3189720921218395233154296875">
        <ele>141</ele>
        <time>2025-09-05T13:33:44.000Z</time>
        <extensions>
          <ns3:TrackPointExtension>
            <ns3:hr>134</ns3:hr>
            <ns3:cad>81</ns3:cad>
          </ns3:TrackPointExtension>
        </extensions>
      </trkpt>
      <trkpt lat="52.09045113064348697662353515625" lon="1.318998746573925018310546875">
        <ele>141.1999969482421875</ele>
        <time>2025-09-05T13:33:45.000Z</time>
        <extensions>
          <ns3:TrackPointExtension>
            <ns3:hr>139</ns3:hr>
            <ns3:cad>81</ns3:cad>
          </ns3:TrackPointExtension>
        </extensions>
      </trkpt>
      <trkpt lat="52.09045372903347015380859375" lon="1.3190243951976299285888671875">
        <ele>141.399993896484375</ele>
        <time>2025-09-05T13:33:46.000Z</time>
        <extensions>
          <ns3:TrackPointExtension>
            <ns3:hr>143</ns3:hr>
            <ns3:cad>81</ns3:cad>
          </ns3:TrackPointExtension>
        </extensions>
      </trkpt>
      <trkpt lat="52.09045029245316982269287109375" lon="1.3190500438213348388671875">
        <ele>141.600006103515625</ele>
        <time>2025-09-05T13:33:47.000Z</time>
        <extensions>
          <ns3:TrackPointExtension>
            <ns3:hr>147</ns3:hr>
            <ns3:cad>81</ns3:cad>
          </ns3:TrackPointExtension>
        </extensions>
      </trkpt>
      <trkpt lat="52.09042749367654323577880859375" lon="1.31907711736857891082763671875">
        <ele>142</ele>
        <time>2025-09-05T13:33:49.000Z</time>
        <extensions>
          <ns3:TrackPointExtension>
            <ns3:hr>152</ns3:hr>
            <ns3:cad>81</ns3:cad>
          </ns3:TrackPointExtension>
        </extensions>
      </trkpt>
      <trkpt lat="52.09041542373597621917724609375" lon="1.31908885203301906585693359375">
        <ele>142</ele>
        <time>2025-09-05T13:33:50.000Z</time>
        <extensions>
          <ns3:TrackPointExtension>
            <ns3:hr>154</ns3:hr>
            <ns3:cad>81</ns3:cad>
          </ns3:TrackPointExtension>
        </extensions>
      </trkpt>
      <trkpt lat="52.090388350188732147216796875" lon="1.31911852397024631500244140625">
        <ele>142.399993896484375</ele>
        <time>2025-09-05T13:33:52.000Z</time>
        <extensions>
          <ns3:TrackPointExtension>
            <ns3:hr>156</ns3:hr>
            <ns3:cad>0</ns3:cad>
          </ns3:TrackPointExtension>
        </extensions>
      </trkpt>
      <trkpt lat="52.090353481471538543701171875" lon="1.31918842904269695281982421875">
        <ele>143</ele>
        <time>2025-09-05T13:33:55.000Z</time>
        <extensions>
          <ns3:TrackPointExtension>
            <ns3:hr>160</ns3:hr>
            <ns3:cad>0</ns3:cad>
          </ns3:TrackPointExtension>
        </extensions>
      </trkpt>
      <trkpt lat="52.09034199826419353485107421875" lon="1.31920753978192806243896484375">
        <ele>143.1999969482421875</ele>
        <time>2025-09-05T13:33:56.000Z</time>
        <extensions>
          <ns3:TrackPointExtension>
            <ns3:hr>161</ns3:hr>
            <ns3:cad>0</ns3:cad>
          </ns3:TrackPointExtension>
        </extensions>
      </trkpt>
      <trkpt lat="52.090304195880889892578125" lon="1.31924743764102458953857421875">
        <ele>143.600006103515625</ele>
        <time>2025-09-05T13:33:58.000Z</time>
        <extensions>
          <ns3:TrackPointExtension>
            <ns3:hr>162</ns3:hr>
            <ns3:cad>0</ns3:cad>
          </ns3:TrackPointExtension>
        </extensions>
      </trkpt>
      <trkpt lat="52.09023470990359783172607421875" lon="1.31932790391147136688232421875">
        <ele>144.8000030517578125</ele>
        <time>2025-09-05T13:34:02.000Z</time>
        <extensions>
          <ns3:TrackPointExtension>
            <ns3:hr>163</ns3:hr>
            <ns3:cad>81</ns3:cad>
          </ns3:TrackPointExtension>
        </extensions>
      </trkpt>
      <trkpt lat="52.09021258167922496795654296875" lon="1.3193747587502002716064453125">
        <ele>145.399993896484375</ele>
        <time>2025-09-05T13:34:04.000Z</time>
        <extensions>
          <ns3:TrackPointExtension>
            <ns3:hr>166</ns3:hr>
            <ns3:cad>81</ns3:cad>
          </ns3:TrackPointExtension>
        </extensions>
      </trkpt>
      <trkpt lat="52.09018274210393428802490234375" lon="1.31941859610378742218017578125">
        <ele>146</ele>
        <time>2025-09-05T13:34:06.000Z</time>
        <extensions>
          <ns3:TrackPointExtension>
            <ns3:hr>168</ns3:hr>
            <ns3:cad>82</ns3:cad>
          </ns3:TrackPointExtension>
        </extensions>
      </trkpt>
      <trkpt lat="52.090152986347675323486328125" lon="1.319465450942516326904296875">
        <ele>146.600006103515625</ele>
        <time>2025-09-05T13:34:08.000Z</time>
        <extensions>
          <ns3:TrackPointExtension>
            <ns3:hr>170</ns3:hr>
            <ns3:cad>82</ns3:cad>
          </ns3:TrackPointExtension>
        </extensions>
      </trkpt>
      <trkpt lat="52.0901266671717166900634765625" lon="1.31950358860194683074951171875">
        <ele>147.1999969482421875</ele>
        <time>2025-09-05T13:34:10.000Z</time>
        <extensions>
          <ns3:TrackPointExtension>
            <ns3:hr>173</ns3:hr>
            <ns3:cad>82</ns3:cad>
          </ns3:TrackPointExtension>
        </extensions>
      </trkpt>
      <trkpt lat="52.0901176147162914276123046875" lon="1.319598220288753509521484375">
        <ele>148</ele>
        <time>2025-09-05T13:34:13.000Z</time>
        <extensions>
          <ns3:TrackPointExtension>
            <ns3:hr>176</ns3:hr>
            <ns3:cad>82</ns3:cad>
          </ns3:TrackPointExtension>
        </extensions>
      </trkpt>
      <trkpt lat="52.09009557031095027923583984375" lon="1.3196614198386669158935546875">
        <ele>146.1999969482421875</ele>
        <time>2025-09-05T13:34:15.000Z</time>
        <extensions>
          <ns3:TrackPointExtension>
            <ns3:hr>176</ns3:hr>
            <ns3:cad>82</ns3:cad>
          </ns3:TrackPointExtension>
        </extensions>
      </trkpt>
      <trkpt lat="52.09009003825485706329345703125" lon="1.31972394883632659912109375">
        <ele>144.399993896484375</ele>
        <time>2025-09-05T13:34:17.000Z</time>
        <extensions>
          <ns3:TrackPointExtension>
            <ns3:hr>176</ns3:hr>
            <ns3:cad>80</ns3:cad>
          </ns3:TrackPointExtension>
        </extensions>
      </trkpt>
      <trkpt lat="52.0901005156338214874267578125" lon="1.319750435650348663330078125">
        <ele>143.600006103515625</ele>
        <time>2025-09-05T13:34:18.000Z</time>
        <extensions>
          <ns3:TrackPointExtension>
            <ns3:hr>175</ns3:hr>
            <ns3:cad>80</ns3:cad>
          </ns3:TrackPointExtension>
        </extensions>
      </trkpt>
      <trkpt lat="52.09011082537472248077392578125" lon="1.31977683864533901214599609375">
        <ele>142.8000030517578125</ele>
        <time>2025-09-05T13:34:19.000Z</time>
        <extensions>
          <ns3:TrackPointExtension>
            <ns3:hr>176</ns3:hr>
            <ns3:cad>79</ns3:cad>
          </ns3:TrackPointExtension>
        </extensions>
      </trkpt>
      <trkpt lat="52.09012876264750957489013671875" lon="1.3198332488536834716796875">
        <ele>141</ele>
        <time>2025-09-05T13:34:21.000Z</time>
        <extensions>
          <ns3:TrackPointExtension>
            <ns3:hr>175</ns3:hr>
            <ns3:cad>80</ns3:cad>
          </ns3:TrackPointExtension>
        </extensions>
      </trkpt>
      <trkpt lat="52.09015592001378536224365234375" lon="1.31988379172980785369873046875">
        <ele>139.399993896484375</ele>
        <time>2025-09-05T13:34:23.000Z</time>
        <extensions>
          <ns3:TrackPointExtension>
            <ns3:hr>176</ns3:hr>
            <ns3:cad>81</ns3:cad>
          </ns3:TrackPointExtension>
        </extensions>
      </trkpt>
      <trkpt lat="52.0901860110461711883544921875" lon="1.31993542425334453582763671875">
        <ele>137.8000030517578125</ele>
        <time>2025-09-05T13:34:25.000Z</time>
        <extensions>
          <ns3:TrackPointExtension>
            <ns3:hr>175</ns3:hr>
            <ns3:cad>80</ns3:cad>
          </ns3:TrackPointExtension>
        </extensions>
      </trkpt>
      <trkpt lat="52.0901984162628650665283203125" lon="1.31995973177254199981689453125">
        <ele>137</ele>
        <time>2025-09-05T13:34:26.000Z</time>
        <extensions>
          <ns3:TrackPointExtension>
            <ns3:hr>175</ns3:hr>
            <ns3:cad>80</ns3:cad>
          </ns3:TrackPointExtension>
        </extensions>
      </trkpt>
      <trkpt lat="52.0902108214795589447021484375" lon="1.319980435073375701904296875">
        <ele>136.399993896484375</ele>
        <time>2025-09-05T13:34:27.000Z</time>
        <extensions>
          <ns3:TrackPointExtension>
            <ns3:hr>174</ns3:hr>
            <ns3:cad>79</ns3:cad>
          </ns3:TrackPointExtension>
        </extensions>
      </trkpt>
      <trkpt lat="52.090246863663196563720703125" lon="1.32000767625868320465087890625">
        <ele>135</ele>
        <time>2025-09-05T13:34:29.000Z</time>
        <extensions>
          <ns3:TrackPointExtension>
            <ns3:hr>171</ns3:hr>
            <ns3:cad>80</ns3:cad>
          </ns3:TrackPointExtension>
        </extensions>
      </trkpt>
      <trkpt lat="52.09027091972529888153076171875" lon="1.32006098516285419464111328125">
        <ele>133.600006103515625</ele>
        <time>2025-09-05T13:34:31.000Z</time>
        <extensions>
          <ns3:TrackPointExtension>
            <ns3:hr>171</ns3:hr>
            <ns3:cad>80</ns3:cad>
          </ns3:TrackPointExtension>
        </extensions>
      </trkpt>
      <trkpt lat="52.09028215147554874420166015625" lon="1.32008948363363742828369140625">
        <ele>133</ele>
        <time>2025-09-05T13:34:32.000Z</time>
        <extensions>
          <ns3:TrackPointExtension>
            <ns3:hr>172</ns3:hr>
            <ns3:cad>80</ns3:cad>
          </ns3:TrackPointExtension>
        </extensions>
      </trkpt>
      <trkpt lat="52.0902953110635280609130859375" lon="1.3201170600950717926025390625">
        <ele>132.399993896484375</ele>
        <time>2025-09-05T13:34:33.000Z</time>
        <extensions>
          <ns3:TrackPointExtension>
            <ns3:hr>172</ns3:hr>
            <ns3:cad>80</ns3:cad>
          </ns3:TrackPointExtension>
        </extensions>
      </trkpt>
      <trkpt lat="52.09032238461077213287353515625" lon="1.3201690278947353363037109375">
        <ele>131.399993896484375</ele>
        <time>2025-09-05T13:34:35.000Z</time>
        <extensions>
          <ns3:TrackPointExtension>
            <ns3:hr>174</ns3:hr>
            <ns3:cad>81</ns3:cad>
          </ns3:TrackPointExtension>
        </extensions>
      </trkpt>
      <trkpt lat="52.090378962457180023193359375" lon="1.320232562720775604248046875">
        <ele>129.8000030517578125</ele>
        <time>2025-09-05T13:34:38.000Z</time>
        <extensions>
          <ns3:TrackPointExtension>
            <ns3:hr>175</ns3:hr>
            <ns3:cad>81</ns3:cad>
          </ns3:TrackPointExtension>
        </extensions>
      </trkpt>
      <trkpt lat="52.0904186926782131195068359375" lon="1.32028511725366115570068359375">
        <ele>128.600006103515625</ele>
        <time>2025-09-05T13:34:41.000Z</time>
        <extensions>
          <ns3:TrackPointExtension>
            <ns3:hr>176</ns3:hr>
            <ns3:cad>82</ns3:cad>
          </ns3:TrackPointExtension>
        </extensions>
      </trkpt>
      <trkpt lat="52.0904503762722015380859375" lon="1.3203581236302852630615234375">
        <ele>127.40000152587890625</ele>
        <time>2025-09-05T13:34:44.000Z</time>
        <extensions>
          <ns3:TrackPointExtension>
            <ns3:hr>177</ns3:hr>
            <ns3:cad>82</ns3:cad>
          </ns3:TrackPointExtension>
        </extensions>
      </trkpt>
      <trkpt lat="52.0905132405459880828857421875" lon="1.32044873200356960296630859375">
        <ele>126.59999847412109375</ele>
        <time>2025-09-05T13:34:48.000Z</time>
        <extensions>
          <ns3:TrackPointExtension>
            <ns3:hr>175</ns3:hr>
            <ns3:cad>81</ns3:cad>
          </ns3:TrackPointExtension>
        </extensions>
      </trkpt>
      <trkpt lat="52.0905303396284580230712890625" lon="1.32047454826533794403076171875">
        <ele>126.40000152587890625</ele>
        <time>2025-09-05T13:34:49.000Z</time>
        <extensions>
          <ns3:TrackPointExtension>
            <ns3:hr>176</ns3:hr>
            <ns3:cad>82</ns3:cad>
          </ns3:TrackPointExtension>
        </extensions>
      </trkpt>
      <trkpt lat="52.09059932269155979156494140625" lon="1.320620477199554443359375">
        <ele>125.8000030517578125</ele>
        <time>2025-09-05T13:34:55.000Z</time>
        <extensions>
          <ns3:TrackPointExtension>
            <ns3:hr>176</ns3:hr>
            <ns3:cad>79</ns3:cad>
          </ns3:TrackPointExtension>
        </extensions>
      </trkpt>
      <trkpt lat="52.09060485474765300750732421875" lon="1.32063992321491241455078125">
        <ele>125.8000030517578125</ele>
        <time>2025-09-05T13:34:56.000Z</time>
        <extensions>
          <ns3:TrackPointExtension>
            <ns3:hr>175</ns3:hr>
            <ns3:cad>79</ns3:cad>
          </ns3:TrackPointExtension>
        </extensions>
      </trkpt>
      <trkpt lat="52.0906837284564971923828125" lon="1.32081091403961181640625">
        <ele>125.40000152587890625</ele>
        <time>2025-09-05T13:35:03.000Z</time>
        <extensions>
          <ns3:TrackPointExtension>
            <ns3:hr>174</ns3:hr>
            <ns3:cad>81</ns3:cad>
          </ns3:TrackPointExtension>
        </extensions>
      </trkpt>
      <trkpt lat="52.0907807908952236175537109375" lon="1.3210786320269107818603515625">
        <ele>125.8000030517578125</ele>
        <time>2025-09-05T13:35:12.000Z</time>
        <extensions>
          <ns3:TrackPointExtension>
            <ns3:hr>172</ns3:hr>
            <ns3:cad>79</ns3:cad>
          </ns3:TrackPointExtension>
        </extensions>
      </trkpt>
      <trkpt lat="52.09085874259471893310546875" lon="1.3212600164115428924560546875">
        <ele>127.1999969482421875</ele>
        <time>2025-09-05T13:35:20.000Z</time>
        <extensions>
          <ns3:TrackPointExtension>
            <ns3:hr>174</ns3:hr>
            <ns3:cad>81</ns3:cad>
          </ns3:TrackPointExtension>
        </extensions>
      </trkpt>
      <trkpt lat="52.0908726565539836883544921875" lon="1.32127828896045684814453125">
        <ele>127.40000152587890625</ele>
        <time>2025-09-05T13:35:21.000Z</time>
        <extensions>
          <ns3:TrackPointExtension>
            <ns3:hr>174</ns3:hr>
            <ns3:cad>81</ns3:cad>
          </ns3:TrackPointExtension>
        </extensions>
      </trkpt>
      <trkpt lat="52.0909323357045650482177734375" lon="1.321341991424560546875">
        <ele>128.399993896484375</ele>
        <time>2025-09-05T13:35:25.000Z</time>
        <extensions>
          <ns3:TrackPointExtension>
            <ns3:hr>171</ns3:hr>
            <ns3:cad>79</ns3:cad>
          </ns3:TrackPointExtension>
        </extensions>
      </trkpt>
      <trkpt lat="52.09095320664346218109130859375" lon="1.3213579170405864715576171875">
        <ele>128.600006103515625</ele>
        <time>2025-09-05T13:35:26.000Z</time>
        <extensions>
          <ns3:TrackPointExtension>
            <ns3:hr>171</ns3:hr>
            <ns3:cad>79</ns3:cad>
          </ns3:TrackPointExtension>
        </extensions>
      </trkpt>
      <trkpt lat="52.09103970788419246673583984375" lon="1.32140192203223705291748046875">
        <ele>129.1999969482421875</ele>
        <time>2025-09-05T13:35:29.000Z</time>
        <extensions>
          <ns3:TrackPointExtension>
            <ns3:hr>172</ns3:hr>
            <ns3:cad>80</ns3:cad>
          </ns3:TrackPointExtension>
        </extensions>
      </trkpt>
      <trkpt lat="52.091127298772335052490234375" lon="1.3214434124529361724853515625">
        <ele>127.40000152587890625</ele>
        <time>2025-09-05T13:35:31.000Z</time>
        <extensions>
          <ns3:TrackPointExtension>
            <ns3:hr>173</ns3:hr>
            <ns3:cad>81</ns3:cad>
          </ns3:TrackPointExtension>
        </extensions>
      </trkpt>
      <trkpt lat="52.0911770872771739959716796875" lon="1.32147274911403656005859375">
        <ele>125.8000030517578125</ele>
        <time>2025-09-05T13:35:33.000Z</time>
        <extensions>
          <ns3:TrackPointExtension>
            <ns3:hr>173</ns3:hr>
            <ns3:cad>82</ns3:cad>
          </ns3:TrackPointExtension>
        </extensions>
      </trkpt>
      <trkpt lat="52.0912310667335987091064453125" lon="1.32150921039283275604248046875">
        <ele>124</ele>
        <time>2025-09-05T13:35:35.000Z</time>
        <extensions>
          <ns3:TrackPointExtension>
            <ns3:hr>174</ns3:hr>
            <ns3:cad>82</ns3:cad>
          </ns3:TrackPointExtension>
        </extensions>
      </trkpt>
      <trkpt lat="52.09125646390020847320556640625" lon="1.32151943631470203399658203125">
        <ele>123</ele>
        <time>2025-09-05T13:35:36.000Z</time>
        <extensions>
          <ns3:TrackPointExtension>
            <ns3:hr>173</ns3:hr>
            <ns3:cad>82</ns3:cad>
          </ns3:TrackPointExtension>
        </extensions>
      </trkpt>
      <trkpt lat="52.09127540700137615203857421875" lon="1.32153217680752277374267578125">
        <ele>122.1999969482421875</ele>
        <time>2025-09-05T13:35:37.000Z</time>
        <extensions>
          <ns3:TrackPointExtension>
            <ns3:hr>174</ns3:hr>
            <ns3:cad>82</ns3:cad>
          </ns3:TrackPointExtension>
        </extensions>
      </trkpt>
      <trkpt lat="52.0913031511008739471435546875" lon="1.32155078463256359100341796875">
        <ele>120.59999847412109375</ele>
        <time>2025-09-05T13:35:39.000Z</time>
        <extensions>
          <ns3:TrackPointExtension>
            <ns3:hr>173</ns3:hr>
            <ns3:cad>81</ns3:cad>
          </ns3:TrackPointExtension>
        </extensions>
      </trkpt>
      <trkpt lat="52.091319076716899871826171875" lon="1.32157039828598499298095703125">
        <ele>118.8000030517578125</ele>
        <time>2025-09-05T13:35:41.000Z</time>
        <extensions>
          <ns3:TrackPointExtension>
            <ns3:hr>174</ns3:hr>
            <ns3:cad>80</ns3:cad>
          </ns3:TrackPointExtension>
        </extensions>
      </trkpt>
      <trkpt lat="52.09133693017065525054931640625" lon="1.32158783264458179473876953125">
        <ele>117.1999969482421875</ele>
        <time>2025-09-05T13:35:43.000Z</time>
        <extensions>
          <ns3:TrackPointExtension>
            <ns3:hr>175</ns3:hr>
            <ns3:cad>80</ns3:cad>
          </ns3:TrackPointExtension>
        </extensions>
      </trkpt>
      <trkpt lat="52.09135838784277439117431640625" lon="1.32159135304391384124755859375">
        <ele>115.59999847412109375</ele>
        <time>2025-09-05T13:35:45.000Z</time>
        <extensions>
          <ns3:TrackPointExtension>
            <ns3:hr>174</ns3:hr>
            <ns3:cad>80</ns3:cad>
          </ns3:TrackPointExtension>
        </extensions>
      </trkpt>
      <trkpt lat="52.091390825808048248291015625" lon="1.32160090841352939605712890625">
        <ele>114.1999969482421875</ele>
        <time>2025-09-05T13:35:47.000Z</time>
        <extensions>
          <ns3:TrackPointExtension>
            <ns3:hr>174</ns3:hr>
            <ns3:cad>80</ns3:cad>
          </ns3:TrackPointExtension>
        </extensions>
      </trkpt>
      <trkpt lat="52.09140649996697902679443359375" lon="1.3216107152402400970458984375">
        <ele>112.59999847412109375</ele>
        <time>2025-09-05T13:35:49.000Z</time>
        <extensions>
          <ns3:TrackPointExtension>
            <ns3:hr>174</ns3:hr>
            <ns3:cad>80</ns3:cad>
          </ns3:TrackPointExtension>
        </extensions>
      </trkpt>
      <trkpt lat="52.09145025350153446197509765625" lon="1.32163024507462978363037109375">
        <ele>111</ele>
        <time>2025-09-05T13:35:51.000Z</time>
        <extensions>
          <ns3:TrackPointExtension>
            <ns3:hr>173</ns3:hr>
            <ns3:cad>80</ns3:cad>
          </ns3:TrackPointExtension>
        </extensions>
      </trkpt>
      <trkpt lat="52.09147389046847820281982421875" lon="1.32163728587329387664794921875">
        <ele>110.40000152587890625</ele>
        <time>2025-09-05T13:35:52.000Z</time>
        <extensions>
          <ns3:TrackPointExtension>
            <ns3:hr>173</ns3:hr>
            <ns3:cad>81</ns3:cad>
          </ns3:TrackPointExtension>
        </extensions>
      </trkpt>
      <trkpt lat="52.091491408646106719970703125" lon="1.32164600305259227752685546875">
        <ele>109.8000030517578125</ele>
        <time>2025-09-05T13:35:53.000Z</time>
        <extensions>
          <ns3:TrackPointExtension>
            <ns3:hr>172</ns3:hr>
            <ns3:cad>81</ns3:cad>
          </ns3:TrackPointExtension>
        </extensions>
      </trkpt>
      <trkpt lat="52.09156005643308162689208984375" lon="1.32169947959482669830322265625">
        <ele>108.40000152587890625</ele>
        <time>2025-09-05T13:35:56.000Z</time>
        <extensions>
          <ns3:TrackPointExtension>
            <ns3:hr>174</ns3:hr>
            <ns3:cad>81</ns3:cad>
          </ns3:TrackPointExtension>
        </extensions>
      </trkpt>
      <trkpt lat="52.09163926541805267333984375" lon="1.32178581319749355316162109375">
        <ele>107.1999969482421875</ele>
        <time>2025-09-05T13:36:00.000Z</time>
        <extensions>
          <ns3:TrackPointExtension>
            <ns3:hr>172</ns3:hr>
            <ns3:cad>77</ns3:cad>
          </ns3:TrackPointExtension>
        </extensions>
      </trkpt>
      <trkpt lat="52.0918070711195468902587890625" lon="1.321946494281291961669921875">
        <ele>106.8000030517578125</ele>
        <time>2025-09-05T13:36:07.000Z</time>
        <extensions>
          <ns3:TrackPointExtension>
            <ns3:hr>171</ns3:hr>
            <ns3:cad>79</ns3:cad>
          </ns3:TrackPointExtension>
        </extensions>
      </trkpt>
      <trkpt lat="52.0918224938213825225830078125" lon="1.32198262028396129608154296875">
        <ele>107</ele>
        <time>2025-09-05T13:36:08.000Z</time>
        <extensions>
          <ns3:TrackPointExtension>
            <ns3:hr>170</ns3:hr>
            <ns3:cad>79</ns3:cad>
          </ns3:TrackPointExtension>
        </extensions>
      </trkpt>
      <trkpt lat="52.09187186323106288909912109375" lon="1.3220874778926372528076171875">
        <ele>107.40000152587890625</ele>
        <time>2025-09-05T13:36:11.000Z</time>
        <extensions>
          <ns3:TrackPointExtension>
            <ns3:hr>173</ns3:hr>
            <ns3:cad>79</ns3:cad>
          </ns3:TrackPointExtension>
        </extensions>
      </trkpt>
      <trkpt lat="52.0919294469058513641357421875" lon="1.32219065912067890167236328125">
        <ele>108.1999969482421875</ele>
        <time>2025-09-05T13:36:15.000Z</time>
        <extensions>
          <ns3:TrackPointExtension>
            <ns3:hr>172</ns3:hr>
            <ns3:cad>80</ns3:cad>
          </ns3:TrackPointExtension>
        </extensions>
      </trkpt>
      <trkpt lat="52.09196113049983978271484375" lon="1.322232149541378021240234375">
        <ele>108.8000030517578125</ele>
        <time>2025-09-05T13:36:17.000Z</time>
        <extensions>
          <ns3:TrackPointExtension>
            <ns3:hr>172</ns3:hr>
            <ns3:cad>80</ns3:cad>
          </ns3:TrackPointExtension>
        </extensions>
      </trkpt>
      <trkpt lat="52.0919851027429103851318359375" lon="1.32229476235806941986083984375">
        <ele>109.40000152587890625</ele>
        <time>2025-09-05T13:36:19.000Z</time>
        <extensions>
          <ns3:TrackPointExtension>
            <ns3:hr>171</ns3:hr>
            <ns3:cad>80</ns3:cad>
          </ns3:TrackPointExtension>
        </extensions>
      </trkpt>
      <trkpt lat="52.09201066754758358001708984375" lon="1.32238411344587802886962890625">
        <ele>110.40000152587890625</ele>
        <time>2025-09-05T13:36:22.000Z</time>
        <extensions>
          <ns3:TrackPointExtension>
            <ns3:hr>172</ns3:hr>
            <ns3:cad>80</ns3:cad>
          </ns3:TrackPointExtension>
        </extensions>
      </trkpt>
      <trkpt lat="52.0920233242213726043701171875" lon="1.32243926636874675750732421875">
        <ele>111.1999969482421875</ele>
        <time>2025-09-05T13:36:24.000Z</time>
        <extensions>
          <ns3:TrackPointExtension>
            <ns3:hr>173</ns3:hr>
            <ns3:cad>80</ns3:cad>
          </ns3:TrackPointExtension>
        </extensions>
      </trkpt>
      <trkpt lat="52.09202977828681468963623046875" lon="1.322470195591449737548828125">
        <ele>111.59999847412109375</ele>
        <time>2025-09-05T13:36:25.000Z</time>
        <extensions>
          <ns3:TrackPointExtension>
            <ns3:hr>173</ns3:hr>
            <ns3:cad>80</ns3:cad>
          </ns3:TrackPointExtension>
        </extensions>
      </trkpt>
      <trkpt lat="52.09204436279833316802978515625" lon="1.32254756055772304534912109375">
        <ele>112.8000030517578125</ele>
        <time>2025-09-05T13:36:28.000Z</time>
        <extensions>
          <ns3:TrackPointExtension>
            <ns3:hr>176</ns3:hr>
            <ns3:cad>81</ns3:cad>
          </ns3:TrackPointExtension>
        </extensions>
      </trkpt>
      <trkpt lat="52.092098928987979888916015625" lon="1.32261495105922222137451171875">
        <ele>113.8000030517578125</ele>
        <time>2025-09-05T13:36:31.000Z</time>
        <extensions>
          <ns3:TrackPointExtension>
            <ns3:hr>173</ns3:hr>
            <ns3:cad>81</ns3:cad>
          </ns3:TrackPointExtension>
        </extensions>
      </trkpt>
      <trkpt lat="52.0921527408063411712646484375" lon="1.32268569432199001312255859375">
        <ele>115</ele>
        <time>2025-09-05T13:36:34.000Z</time>
        <extensions>
          <ns3:TrackPointExtension>
            <ns3:hr>175</ns3:hr>
            <ns3:cad>80</ns3:cad>
          </ns3:TrackPointExtension>
        </extensions>
      </trkpt>
      <trkpt lat="52.09221233613789081573486328125" lon="1.32274151779711246490478515625">
        <ele>116.1999969482421875</ele>
        <time>2025-09-05T13:36:37.000Z</time>
        <extensions>
          <ns3:TrackPointExtension>
            <ns3:hr>175</ns3:hr>
            <ns3:cad>81</ns3:cad>
          </ns3:TrackPointExtension>
        </extensions>
      </trkpt>
      <trkpt lat="52.092242427170276641845703125" lon="1.3227818347513675689697265625">
        <ele>117</ele>
        <time>2025-09-05T13:36:39.000Z</time>
        <extensions>
          <ns3:TrackPointExtension>
            <ns3:hr>176</ns3:hr>
            <ns3:cad>80</ns3:cad>
          </ns3:TrackPointExtension>
        </extensions>
      </trkpt>
      <trkpt lat="52.09227285347878932952880859375" lon="1.32280220277607440948486328125">
        <ele>117.1999969482421875</ele>
        <time>2025-09-05T13:36:40.000Z</time>
        <extensions>
          <ns3:TrackPointExtension>
            <ns3:hr>176</ns3:hr>
            <ns3:cad>79</ns3:cad>
          </ns3:TrackPointExtension>
        </extensions>
      </trkpt>
      <trkpt lat="52.09233353845775127410888671875" lon="1.3228576071560382843017578125">
        <ele>116</ele>
        <time>2025-09-05T13:36:43.000Z</time>
        <extensions>
          <ns3:TrackPointExtension>
            <ns3:hr>176</ns3:hr>
            <ns3:cad>79</ns3:cad>
          </ns3:TrackPointExtension>
        </extensions>
      </trkpt>
      <trkpt lat="52.09237142466008663177490234375" lon="1.3228995166718959808349609375">
        <ele>114.40000152587890625</ele>
        <time>2025-09-05T13:36:45.000Z</time>
        <extensions>
          <ns3:TrackPointExtension>
            <ns3:hr>176</ns3:hr>
            <ns3:cad>78</ns3:cad>
          </ns3:TrackPointExtension>
        </extensions>
      </trkpt>
      <trkpt lat="52.092407383024692535400390625" lon="1.32293363101780414581298828125">
        <ele>112.59999847412109375</ele>
        <time>2025-09-05T13:36:47.000Z</time>
        <extensions>
          <ns3:TrackPointExtension>
            <ns3:hr>176</ns3:hr>
            <ns3:cad>79</ns3:cad>
          </ns3:TrackPointExtension>
        </extensions>
      </trkpt>
      <trkpt lat="52.09243831224739551544189453125" lon="1.3229595310986042022705078125">
        <ele>111.1999969482421875</ele>
        <time>2025-09-05T13:36:49.000Z</time>
        <extensions>
          <ns3:TrackPointExtension>
            <ns3:hr>177</ns3:hr>
            <ns3:cad>81</ns3:cad>
          </ns3:TrackPointExtension>
        </extensions>
      </trkpt>
      <trkpt lat="52.09246865473687648773193359375" lon="1.32298685610294342041015625">
        <ele>109.59999847412109375</ele>
        <time>2025-09-05T13:36:51.000Z</time>
        <extensions>
          <ns3:TrackPointExtension>
            <ns3:hr>177</ns3:hr>
            <ns3:cad>81</ns3:cad>
          </ns3:TrackPointExtension>
        </extensions>
      </trkpt>
      <trkpt lat="52.09249732084572315216064453125" lon="1.32302029989659786224365234375">
        <ele>108</ele>
        <time>2025-09-05T13:36:53.000Z</time>
        <extensions>
          <ns3:TrackPointExtension>
            <ns3:hr>179</ns3:hr>
            <ns3:cad>81</ns3:cad>
          </ns3:TrackPointExtension>
        </extensions>
      </trkpt>
      <trkpt lat="52.092540822923183441162109375" lon="1.323052234947681427001953125">
        <ele>106.59999847412109375</ele>
        <time>2025-09-05T13:36:55.000Z</time>
        <extensions>
          <ns3:TrackPointExtension>
            <ns3:hr>180</ns3:hr>
            <ns3:cad>81</ns3:cad>
          </ns3:TrackPointExtension>
        </extensions>
      </trkpt>
      <trkpt lat="52.09258231334388256072998046875" lon="1.32307746447622776031494140625">
        <ele>105</ele>
        <time>2025-09-05T13:36:57.000Z</time>
        <extensions>
          <ns3:TrackPointExtension>
            <ns3:hr>182</ns3:hr>
            <ns3:cad>80</ns3:cad>
          </ns3:TrackPointExtension>
        </extensions>
      </trkpt>
      <trkpt lat="52.09264685399830341339111328125" lon="1.32310361601412296295166015625">
        <ele>103.59999847412109375</ele>
        <time>2025-09-05T13:36:59.000Z</time>
        <extensions>
          <ns3:TrackPointExtension>
            <ns3:hr>183</ns3:hr>
            <ns3:cad>81</ns3:cad>
          </ns3:TrackPointExtension>
        </extensions>
      </trkpt>
      <trkpt lat="52.09270535968244075775146484375" lon="1.32312641479074954986572265625">
        <ele>102.1999969482421875</ele>
        <time>2025-09-05T13:37:01.000Z</time>
        <extensions>
          <ns3:TrackPointExtension>
            <ns3:hr>179</ns3:hr>
            <ns3:cad>82</ns3:cad>
          </ns3:TrackPointExtension>
        </extensions>
      </trkpt>
      <trkpt lat="52.092743329703807830810546875" lon="1.323144435882568359375">
        <ele>100.8000030517578125</ele>
        <time>2025-09-05T13:37:03.000Z</time>
        <extensions>
          <ns3:TrackPointExtension>
            <ns3:hr>178</ns3:hr>
            <ns3:cad>82</ns3:cad>
          </ns3:TrackPointExtension>
        </extensions>
      </trkpt>
      <trkpt lat="52.09277786314487457275390625" lon="1.32315876893699169158935546875">
        <ele>99.40000152587890625</ele>
        <time>2025-09-05T13:37:05.000Z</time>
        <extensions>
          <ns3:TrackPointExtension>
            <ns3:hr>176</ns3:hr>
            <ns3:cad>81</ns3:cad>
          </ns3:TrackPointExtension>
        </extensions>
      </trkpt>
      <trkpt lat="52.0927984826266765594482421875" lon="1.32317536510527133941650390625">
        <ele>98</ele>
        <time>2025-09-05T13:37:07.000Z</time>
        <extensions>
          <ns3:TrackPointExtension>
            <ns3:hr>177</ns3:hr>
            <ns3:cad>80</ns3:cad>
          </ns3:TrackPointExtension>
        </extensions>
      </trkpt>
      <trkpt lat="52.09281667135655879974365234375" lon="1.32320855744183063507080078125">
        <ele>97.40000152587890625</ele>
        <time>2025-09-05T13:37:08.000Z</time>
        <extensions>
          <ns3:TrackPointExtension>
            <ns3:hr>176</ns3:hr>
            <ns3:cad>80</ns3:cad>
          </ns3:TrackPointExtension>
        </extensions>
      </trkpt>
      <trkpt lat="52.09283821284770965576171875" lon="1.32324292324483394622802734375">
        <ele>96.59999847412109375</ele>
        <time>2025-09-05T13:37:09.000Z</time>
        <extensions>
          <ns3:TrackPointExtension>
            <ns3:hr>175</ns3:hr>
            <ns3:cad>81</ns3:cad>
          </ns3:TrackPointExtension>
        </extensions>
      </trkpt>
      <trkpt lat="52.0928719080984592437744140625" lon="1.32328298874199390411376953125">
        <ele>95.40000152587890625</ele>
        <time>2025-09-05T13:37:11.000Z</time>
        <extensions>
          <ns3:TrackPointExtension>
            <ns3:hr>177</ns3:hr>
            <ns3:cad>81</ns3:cad>
          </ns3:TrackPointExtension>
        </extensions>
      </trkpt>
      <trkpt lat="52.09289177320897579193115234375" lon="1.32331274449825286865234375">
        <ele>94</ele>
        <time>2025-09-05T13:37:13.000Z</time>
        <extensions>
          <ns3:TrackPointExtension>
            <ns3:hr>176</ns3:hr>
            <ns3:cad>81</ns3:cad>
          </ns3:TrackPointExtension>
        </extensions>
      </trkpt>
      <trkpt lat="52.09290954284369945526123046875" lon="1.3233497925102710723876953125">
        <ele>92.8000030517578125</ele>
        <time>2025-09-05T13:37:15.000Z</time>
        <extensions>
          <ns3:TrackPointExtension>
            <ns3:hr>175</ns3:hr>
            <ns3:cad>81</ns3:cad>
          </ns3:TrackPointExtension>
        </extensions>
      </trkpt>
      <trkpt lat="52.09296301938593387603759765625" lon="1.323390863835811614990234375">
        <ele>91.59999847412109375</ele>
        <time>2025-09-05T13:37:17.000Z</time>
        <extensions>
          <ns3:TrackPointExtension>
            <ns3:hr>176</ns3:hr>
            <ns3:cad>81</ns3:cad>
          </ns3:TrackPointExtension>
        </extensions>
      </trkpt>
      <trkpt lat="52.09300895221531391143798828125" lon="1.32343905977904796600341796875">
        <ele>90.40000152587890625</ele>
        <time>2025-09-05T13:37:19.000Z</time>
        <extensions>
          <ns3:TrackPointExtension>
            <ns3:hr>176</ns3:hr>
            <ns3:cad>80</ns3:cad>
          </ns3:TrackPointExtension>
        </extensions>
      </trkpt>
      <trkpt lat="52.0930620096623897552490234375" lon="1.323487423360347747802734375">
        <ele>89.1999969482421875</ele>
        <time>2025-09-05T13:37:21.000Z</time>
        <extensions>
          <ns3:TrackPointExtension>
            <ns3:hr>174</ns3:hr>
            <ns3:cad>79</ns3:cad>
          </ns3:TrackPointExtension>
        </extensions>
      </trkpt>
      <trkpt lat="52.0931079424917697906494140625" lon="1.323564536869525909423828125">
        <ele>88.1999969482421875</ele>
        <time>2025-09-05T13:37:23.000Z</time>
        <extensions>
          <ns3:TrackPointExtension>
            <ns3:hr>176</ns3:hr>
            <ns3:cad>79</ns3:cad>
          </ns3:TrackPointExtension>
        </extensions>
      </trkpt>
      <trkpt lat="52.0931565575301647186279296875" lon="1.32361575029790401458740234375">
        <ele>87</ele>
        <time>2025-09-05T13:37:25.000Z</time>
        <extensions>
          <ns3:TrackPointExtension>
            <ns3:hr>174</ns3:hr>
            <ns3:cad>80</ns3:cad>
          </ns3:TrackPointExtension>
        </extensions>
      </trkpt>
      <trkpt lat="52.09319553337991237640380859375" lon="1.32366009056568145751953125">
        <ele>85.8000030517578125</ele>
        <time>2025-09-05T13:37:27.000Z</time>
        <extensions>
          <ns3:TrackPointExtension>
            <ns3:hr>175</ns3:hr>
            <ns3:cad>80</ns3:cad>
          </ns3:TrackPointExtension>
        </extensions>
      </trkpt>
      <trkpt lat="52.0932464115321636199951171875" lon="1.3237088732421398162841796875">
        <ele>84.8000030517578125</ele>
        <time>2025-09-05T13:37:29.000Z</time>
        <extensions>
          <ns3:TrackPointExtension>
            <ns3:hr>176</ns3:hr>
            <ns3:cad>80</ns3:cad>
          </ns3:TrackPointExtension>
        </extensions>
      </trkpt>
      <trkpt lat="52.09327214397490024566650390625" lon="1.3237306661903858184814453125">
        <ele>84.1999969482421875</ele>
        <time>2025-09-05T13:37:30.000Z</time>
        <extensions>
          <ns3:TrackPointExtension>
            <ns3:hr>175</ns3:hr>
            <ns3:cad>80</ns3:cad>
          </ns3:TrackPointExtension>
        </extensions>
      </trkpt>
      <trkpt lat="52.09329913370311260223388671875" lon="1.3237551413476467132568359375">
        <ele>83.59999847412109375</ele>
        <time>2025-09-05T13:37:31.000Z</time>
        <extensions>
          <ns3:TrackPointExtension>
            <ns3:hr>176</ns3:hr>
            <ns3:cad>80</ns3:cad>
          </ns3:TrackPointExtension>
        </extensions>
      </trkpt>
      <trkpt lat="52.0933496765792369842529296875" lon="1.32380249910056591033935546875">
        <ele>82.59999847412109375</ele>
        <time>2025-09-05T13:37:33.000Z</time>
        <extensions>
          <ns3:TrackPointExtension>
            <ns3:hr>177</ns3:hr>
            <ns3:cad>80</ns3:cad>
          </ns3:TrackPointExtension>
        </extensions>
      </trkpt>
      <trkpt lat="52.09339183755218982696533203125" lon="1.32384558208286762237548828125">
        <ele>81.59999847412109375</ele>
        <time>2025-09-05T13:37:35.000Z</time>
        <extensions>
          <ns3:TrackPointExtension>
            <ns3:hr>177</ns3:hr>
            <ns3:cad>80</ns3:cad>
          </ns3:TrackPointExtension>
        </extensions>
      </trkpt>
      <trkpt lat="52.0934328250586986541748046875" lon="1.3238815404474735260009765625">
        <ele>80.59999847412109375</ele>
        <time>2025-09-05T13:37:37.000Z</time>
        <extensions>
          <ns3:TrackPointExtension>
            <ns3:hr>177</ns3:hr>
            <ns3:cad>80</ns3:cad>
          </ns3:TrackPointExtension>
        </extensions>
      </trkpt>
      <trkpt lat="52.09344841539859771728515625" lon="1.3238996453583240509033203125">
        <ele>80.1999969482421875</ele>
        <time>2025-09-05T13:37:38.000Z</time>
        <extensions>
          <ns3:TrackPointExtension>
            <ns3:hr>177</ns3:hr>
            <ns3:cad>80</ns3:cad>
          </ns3:TrackPointExtension>
        </extensions>
      </trkpt>
      <trkpt lat="52.093482278287410736083984375" lon="1.32392965257167816162109375">
        <ele>79.1999969482421875</ele>
        <time>2025-09-05T13:37:40.000Z</time>
        <extensions>
          <ns3:TrackPointExtension>
            <ns3:hr>176</ns3:hr>
            <ns3:cad>80</ns3:cad>
          </ns3:TrackPointExtension>
        </extensions>
      </trkpt>
      <trkpt lat="52.093539275228977203369140625" lon="1.32397784851491451263427734375">
        <ele>77.59999847412109375</ele>
        <time>2025-09-05T13:37:43.000Z</time>
        <extensions>
          <ns3:TrackPointExtension>
            <ns3:hr>177</ns3:hr>
            <ns3:cad>81</ns3:cad>
          </ns3:TrackPointExtension>
        </extensions>
      </trkpt>
      <trkpt lat="52.09357590414583683013916015625" lon="1.32403451018035411834716796875">
        <ele>76.40000152587890625</ele>
        <time>2025-09-05T13:37:46.000Z</time>
        <extensions>
          <ns3:TrackPointExtension>
            <ns3:hr>177</ns3:hr>
            <ns3:cad>82</ns3:cad>
          </ns3:TrackPointExtension>
        </extensions>
      </trkpt>
      <trkpt lat="52.09360809065401554107666015625" lon="1.3240773417055606842041015625">
        <ele>75.40000152587890625</ele>
        <time>2025-09-05T13:37:48.000Z</time>
        <extensions>
          <ns3:TrackPointExtension>
            <ns3:hr>178</ns3:hr>
            <ns3:cad>81</ns3:cad>
          </ns3:TrackPointExtension>
        </extensions>
      </trkpt>
      <trkpt lat="52.09362250752747058868408203125" lon="1.3240952789783477783203125">
        <ele>75</ele>
        <time>2025-09-05T13:37:49.000Z</time>
        <extensions>
          <ns3:TrackPointExtension>
            <ns3:hr>177</ns3:hr>
            <ns3:cad>81</ns3:cad>
          </ns3:TrackPointExtension>
        </extensions>
      </trkpt>
      <trkpt lat="52.09364564158022403717041015625" lon="1.3241212628781795501708984375">
        <ele>74</ele>
        <time>2025-09-05T13:37:51.000Z</time>
        <extensions>
          <ns3:TrackPointExtension>
            <ns3:hr>178</ns3:hr>
            <ns3:cad>81</ns3:cad>
          </ns3:TrackPointExtension>
        </extensions>
      </trkpt>
      <trkpt lat="52.093670032918453216552734375" lon="1.3241065107285976409912109375">
        <ele>73.59999847412109375</ele>
        <time>2025-09-05T13:37:52.000Z</time>
        <extensions>
          <ns3:TrackPointExtension>
            <ns3:hr>177</ns3:hr>
            <ns3:cad>81</ns3:cad>
          </ns3:TrackPointExtension>
        </extensions>
      </trkpt>
      <trkpt lat="52.093712948262691497802734375" lon="1.32407038472592830657958984375">
        <ele>72.8000030517578125</ele>
        <time>2025-09-05T13:37:54.000Z</time>
        <extensions>
          <ns3:TrackPointExtension>
            <ns3:hr>178</ns3:hr>
            <ns3:cad>81</ns3:cad>
          </ns3:TrackPointExtension>
        </extensions>
      </trkpt>
      <trkpt lat="52.093726359307765960693359375" lon="1.32405093871057033538818359375">
        <ele>72.40000152587890625</ele>
        <time>2025-09-05T13:37:55.000Z</time>
        <extensions>
          <ns3:TrackPointExtension>
            <ns3:hr>178</ns3:hr>
            <ns3:cad>81</ns3:cad>
          </ns3:TrackPointExtension>
        </extensions>
      </trkpt>
      <trkpt lat="52.09380456246435642242431640625" lon="1.32398019544780254364013671875">
        <ele>71.1999969482421875</ele>
        <time>2025-09-05T13:37:58.000Z</time>
        <extensions>
          <ns3:TrackPointExtension>
            <ns3:hr>178</ns3:hr>
            <ns3:cad>81</ns3:cad>
          </ns3:TrackPointExtension>
        </extensions>
      </trkpt>
      <trkpt lat="52.0938619785010814666748046875" lon="1.32395102642476558685302734375">
        <ele>70.40000152587890625</ele>
        <time>2025-09-05T13:38:00.000Z</time>
        <extensions>
          <ns3:TrackPointExtension>
            <ns3:hr>178</ns3:hr>
            <ns3:cad>81</ns3:cad>
          </ns3:TrackPointExtension>
        </extensions>
      </trkpt>
      <trkpt lat="52.0938780717551708221435546875" lon="1.3239370286464691162109375">
        <ele>70</ele>
        <time>2025-09-05T13:38:01.000Z</time>
        <extensions>
          <ns3:TrackPointExtension>
            <ns3:hr>178</ns3:hr>
            <ns3:cad>80</ns3:cad>
          </ns3:TrackPointExtension>
        </extensions>
      </trkpt>
      <trkpt lat="52.09394319914281368255615234375" lon="1.3238919340074062347412109375">
        <ele>68.8000030517578125</ele>
        <time>2025-09-05T13:38:04.000Z</time>
        <extensions>
          <ns3:TrackPointExtension>
            <ns3:hr>179</ns3:hr>
            <ns3:cad>81</ns3:cad>
          </ns3:TrackPointExtension>
        </extensions>
      </trkpt>
      <trkpt lat="52.09396608173847198486328125" lon="1.32388137280941009521484375">
        <ele>68.40000152587890625</ele>
        <time>2025-09-05T13:38:05.000Z</time>
        <extensions>
          <ns3:TrackPointExtension>
            <ns3:hr>179</ns3:hr>
            <ns3:cad>81</ns3:cad>
          </ns3:TrackPointExtension>
        </extensions>
      </trkpt>
      <trkpt lat="52.0940088294446468353271484375" lon="1.32387525402009487152099609375">
        <ele>67.59999847412109375</ele>
        <time>2025-09-05T13:38:07.000Z</time>
        <extensions>
          <ns3:TrackPointExtension>
            <ns3:hr>179</ns3:hr>
            <ns3:cad>81</ns3:cad>
          </ns3:TrackPointExtension>
        </extensions>
      </trkpt>
      <trkpt lat="52.09405736066401004791259765625" lon="1.32390090264379978179931640625">
        <ele>66.59999847412109375</ele>
        <time>2025-09-05T13:38:10.000Z</time>
        <extensions>
          <ns3:TrackPointExtension>
            <ns3:hr>177</ns3:hr>
            <ns3:cad>80</ns3:cad>
          </ns3:TrackPointExtension>
        </extensions>
      </trkpt>
      <trkpt lat="52.09407831542193889617919921875" lon="1.323912553489208221435546875">
        <ele>66.1999969482421875</ele>
        <time>2025-09-05T13:38:11.000Z</time>
        <extensions>
          <ns3:TrackPointExtension>
            <ns3:hr>176</ns3:hr>
            <ns3:cad>79</ns3:cad>
          </ns3:TrackPointExtension>
        </extensions>
      </trkpt>
      <trkpt lat="52.09411368705332279205322265625" lon="1.3239338435232639312744140625">
        <ele>65.40000152587890625</ele>
        <time>2025-09-05T13:38:13.000Z</time>
        <extensions>
          <ns3:TrackPointExtension>
            <ns3:hr>176</ns3:hr>
            <ns3:cad>79</ns3:cad>
          </ns3:TrackPointExtension>
        </extensions>
      </trkpt>
      <trkpt lat="52.09415157325565814971923828125" lon="1.32396041415631771087646484375">
        <ele>64.40000152587890625</ele>
        <time>2025-09-05T13:38:16.000Z</time>
        <extensions>
          <ns3:TrackPointExtension>
            <ns3:hr>175</ns3:hr>
            <ns3:cad>79</ns3:cad>
          </ns3:TrackPointExtension>
        </extensions>
      </trkpt>
      <trkpt lat="52.09416347555816173553466796875" lon="1.3239925168454647064208984375">
        <ele>63.40000152587890625</ele>
        <time>2025-09-05T13:38:19.000Z</time>
        <extensions>
          <ns3:TrackPointExtension>
            <ns3:hr>177</ns3:hr>
            <ns3:cad>79</ns3:cad>
          </ns3:TrackPointExtension>
        </extensions>
      </trkpt>
      <trkpt lat="52.094187699258327484130859375" lon="1.3240542076528072357177734375">
        <ele>62</ele>
        <time>2025-09-05T13:38:23.000Z</time>
        <extensions>
          <ns3:TrackPointExtension>
            <ns3:hr>175</ns3:hr>
            <ns3:cad>79</ns3:cad>
          </ns3:TrackPointExtension>
        </extensions>
      </trkpt>
      <trkpt lat="52.09422097541391849517822265625" lon="1.3240830413997173309326171875">
        <ele>61.200000762939453125</ele>
        <time>2025-09-05T13:38:26.000Z</time>
        <extensions>
          <ns3:TrackPointExtension>
            <ns3:hr>176</ns3:hr>
            <ns3:cad>77</ns3:cad>
          </ns3:TrackPointExtension>
        </extensions>
      </trkpt>
      <trkpt lat="52.09422533400356769561767578125" lon="1.3240924291312694549560546875">
        <ele>60.799999237060546875</ele>
        <time>2025-09-05T13:38:27.000Z</time>
        <extensions>
          <ns3:TrackPointExtension>
            <ns3:hr>174</ns3:hr>
            <ns3:cad>77</ns3:cad>
          </ns3:TrackPointExtension>
        </extensions>
      </trkpt>
      <trkpt lat="52.09426506422460079193115234375" lon="1.32413140498101711273193359375">
        <ele>59.799999237060546875</ele>
        <time>2025-09-05T13:38:30.000Z</time>
        <extensions>
          <ns3:TrackPointExtension>
            <ns3:hr>175</ns3:hr>
            <ns3:cad>76</ns3:cad>
          </ns3:TrackPointExtension>
        </extensions>
      </trkpt>
      <trkpt lat="52.0942807383835315704345703125" lon="1.3241507671773433685302734375">
        <ele>59.59999847412109375</ele>
        <time>2025-09-05T13:38:31.000Z</time>
        <extensions>
          <ns3:TrackPointExtension>
            <ns3:hr>174</ns3:hr>
            <ns3:cad>76</ns3:cad>
          </ns3:TrackPointExtension>
        </extensions>
      </trkpt>
      <trkpt lat="52.09432139061391353607177734375" lon="1.32419594563543796539306640625">
        <ele>59</ele>
        <time>2025-09-05T13:38:33.000Z</time>
        <extensions>
          <ns3:TrackPointExtension>
            <ns3:hr>171</ns3:hr>
            <ns3:cad>76</ns3:cad>
          </ns3:TrackPointExtension>
        </extensions>
      </trkpt>
      <trkpt lat="52.09433354437351226806640625" lon="1.32421723566949367523193359375">
        <ele>58.799999237060546875</ele>
        <time>2025-09-05T13:38:34.000Z</time>
        <extensions>
          <ns3:TrackPointExtension>
            <ns3:hr>171</ns3:hr>
            <ns3:cad>77</ns3:cad>
          </ns3:TrackPointExtension>
        </extensions>
      </trkpt>
      <trkpt lat="52.09434536285698413848876953125" lon="1.32424305193126201629638671875">
        <ele>58.40000152587890625</ele>
        <time>2025-09-05T13:38:35.000Z</time>
        <extensions>
          <ns3:TrackPointExtension>
            <ns3:hr>171</ns3:hr>
            <ns3:cad>77</ns3:cad>
          </ns3:TrackPointExtension>
        </extensions>
      </trkpt>
      <trkpt lat="52.094389535486698150634765625" lon="1.324339024722576141357421875">
        <ele>57.200000762939453125</ele>
        <time>2025-09-05T13:38:39.000Z</time>
        <extensions>
          <ns3:TrackPointExtension>
            <ns3:hr>172</ns3:hr>
            <ns3:cad>78</ns3:cad>
          </ns3:TrackPointExtension>
        </extensions>
      </trkpt>
      <trkpt lat="52.094415016472339630126953125" lon="1.3244233466684818267822265625">
        <ele>56.40000152587890625</ele>
        <time>2025-09-05T13:38:42.000Z</time>
        <extensions>
          <ns3:TrackPointExtension>
            <ns3:hr>174</ns3:hr>
            <ns3:cad>78</ns3:cad>
          </ns3:TrackPointExtension>
        </extensions>
      </trkpt>
      <trkpt lat="52.0944178663194179534912109375" lon="1.32445259951055049896240234375">
        <ele>56.200000762939453125</ele>
        <time>2025-09-05T13:38:43.000Z</time>
        <extensions>
          <ns3:TrackPointExtension>
            <ns3:hr>173</ns3:hr>
            <ns3:cad>79</ns3:cad>
          </ns3:TrackPointExtension>
        </extensions>
      </trkpt>
      <trkpt lat="52.0944410003721714019775390625" lon="1.32455670274794101715087890625">
        <ele>55.40000152587890625</ele>
        <time>2025-09-05T13:38:46.000Z</time>
        <extensions>
          <ns3:TrackPointExtension>
            <ns3:hr>177</ns3:hr>
            <ns3:cad>80</ns3:cad>
          </ns3:TrackPointExtension>
        </extensions>
      </trkpt>
      <trkpt lat="52.09444628097116947174072265625" lon="1.3245869614183902740478515625">
        <ele>55</ele>
        <time>2025-09-05T13:38:47.000Z</time>
        <extensions>
          <ns3:TrackPointExtension>
            <ns3:hr>176</ns3:hr>
            <ns3:cad>80</ns3:cad>
          </ns3:TrackPointExtension>
        </extensions>
      </trkpt>
      <trkpt lat="52.09448232315480709075927734375" lon="1.32465627975761890411376953125">
        <ele>54.200000762939453125</ele>
        <time>2025-09-05T13:38:50.000Z</time>
        <extensions>
          <ns3:TrackPointExtension>
            <ns3:hr>174</ns3:hr>
            <ns3:cad>81</ns3:cad>
          </ns3:TrackPointExtension>
        </extensions>
      </trkpt>
      <trkpt lat="52.09448911249637603759765625" lon="1.32468075491487979888916015625">
        <ele>54</ele>
        <time>2025-09-05T13:38:51.000Z</time>
        <extensions>
          <ns3:TrackPointExtension>
            <ns3:hr>173</ns3:hr>
            <ns3:cad>81</ns3:cad>
          </ns3:TrackPointExtension>
        </extensions>
      </trkpt>
      <trkpt lat="52.0945137552917003631591796875" lon="1.3247364945709705352783203125">
        <ele>53.200000762939453125</ele>
        <time>2025-09-05T13:38:54.000Z</time>
        <extensions>
          <ns3:TrackPointExtension>
            <ns3:hr>172</ns3:hr>
            <ns3:cad>81</ns3:cad>
          </ns3:TrackPointExtension>
        </extensions>
      </trkpt>
      <trkpt lat="52.09452875889837741851806640625" lon="1.32476842962205410003662109375">
        <ele>53</ele>
        <time>2025-09-05T13:38:55.000Z</time>
        <extensions>
          <ns3:TrackPointExtension>
            <ns3:hr>172</ns3:hr>
            <ns3:cad>81</ns3:cad>
          </ns3:TrackPointExtension>
        </extensions>
      </trkpt>
      <trkpt lat="52.09453982301056385040283203125" lon="1.3247926533222198486328125">
        <ele>52.799999237060546875</ele>
        <time>2025-09-05T13:38:56.000Z</time>
        <extensions>
          <ns3:TrackPointExtension>
            <ns3:hr>173</ns3:hr>
            <ns3:cad>81</ns3:cad>
          </ns3:TrackPointExtension>
        </extensions>
      </trkpt>
      <trkpt lat="52.0945922099053859710693359375" lon="1.32489784620702266693115234375">
        <ele>51.799999237060546875</ele>
        <time>2025-09-05T13:39:00.000Z</time>
        <extensions>
          <ns3:TrackPointExtension>
            <ns3:hr>174</ns3:hr>
            <ns3:cad>60</ns3:cad>
          </ns3:TrackPointExtension>
        </extensions>
      </trkpt>
      <trkpt lat="52.09459966979920864105224609375" lon="1.3249245844781398773193359375">
        <ele>51.59999847412109375</ele>
        <time>2025-09-05T13:39:01.000Z</time>
        <extensions>
          <ns3:TrackPointExtension>
            <ns3:hr>171</ns3:hr>
            <ns3:cad>60</ns3:cad>
          </ns3:TrackPointExtension>
        </extensions>
      </trkpt>
      <trkpt lat="52.0946049503982067108154296875" lon="1.324961967766284942626953125">
        <ele>51.200000762939453125</ele>
        <time>2025-09-05T13:39:03.000Z</time>
        <extensions>
          <ns3:TrackPointExtension>
            <ns3:hr>169</ns3:hr>
            <ns3:cad>60</ns3:cad>
          </ns3:TrackPointExtension>
        </extensions>
      </trkpt>
      <trkpt lat="52.0946133323013782501220703125" lon="1.32501703687012195587158203125">
        <ele>50.59999847412109375</ele>
        <time>2025-09-05T13:39:05.000Z</time>
        <extensions>
          <ns3:TrackPointExtension>
            <ns3:hr>168</ns3:hr>
            <ns3:cad>59</ns3:cad>
          </ns3:TrackPointExtension>
        </extensions>
      </trkpt>
      <trkpt lat="52.09467007778584957122802734375" lon="1.325088702142238616943359375">
        <ele>49.59999847412109375</ele>
        <time>2025-09-05T13:39:10.000Z</time>
        <extensions>
          <ns3:TrackPointExtension>
            <ns3:hr>166</ns3:hr>
            <ns3:cad>60</ns3:cad>
          </ns3:TrackPointExtension>
        </extensions>
      </trkpt>
      <trkpt lat="52.0946797169744968414306640625" lon="1.32510705851018428802490234375">
        <ele>49.40000152587890625</ele>
        <time>2025-09-05T13:39:11.000Z</time>
        <extensions>
          <ns3:TrackPointExtension>
            <ns3:hr>167</ns3:hr>
            <ns3:cad>61</ns3:cad>
          </ns3:TrackPointExtension>
        </extensions>
      </trkpt>
      <trkpt lat="52.09474794566631317138671875" lon="1.3251696713268756866455078125">
        <ele>48.59999847412109375</ele>
        <time>2025-09-05T13:39:15.000Z</time>
        <extensions>
          <ns3:TrackPointExtension>
            <ns3:hr>165</ns3:hr>
            <ns3:cad>61</ns3:cad>
          </ns3:TrackPointExtension>
        </extensions>
      </trkpt>
      <trkpt lat="52.09476965479552745819091796875" lon="1.32518702186644077301025390625">
        <ele>48.59999847412109375</ele>
        <time>2025-09-05T13:39:16.000Z</time>
        <extensions>
          <ns3:TrackPointExtension>
            <ns3:hr>163</ns3:hr>
            <ns3:cad>61</ns3:cad>
          </ns3:TrackPointExtension>
        </extensions>
      </trkpt>
      <trkpt lat="52.09491801448166370391845703125" lon="1.325211413204669952392578125">
        <ele>47.40000152587890625</ele>
        <time>2025-09-05T13:39:22.000Z</time>
        <extensions>
          <ns3:TrackPointExtension>
            <ns3:hr>164</ns3:hr>
            <ns3:cad>77</ns3:cad>
          </ns3:TrackPointExtension>
        </extensions>
      </trkpt>
      <trkpt lat="52.09507073275744915008544921875" lon="1.3251815736293792724609375">
        <ele>46.40000152587890625</ele>
        <time>2025-09-05T13:39:28.000Z</time>
        <extensions>
          <ns3:TrackPointExtension>
            <ns3:hr>166</ns3:hr>
            <ns3:cad>80</ns3:cad>
          </ns3:TrackPointExtension>
        </extensions>
      </trkpt>
      <trkpt lat="52.09511616267263889312744140625" lon="1.32517411373555660247802734375">
        <ele>46</ele>
        <time>2025-09-05T13:39:30.000Z</time>
        <extensions>
          <ns3:TrackPointExtension>
            <ns3:hr>169</ns3:hr>
            <ns3:cad>80</ns3:cad>
          </ns3:TrackPointExtension>
        </extensions>
      </trkpt>
      <trkpt lat="52.0951876603066921234130859375" lon="1.32517595775425434112548828125">
        <ele>45.59999847412109375</ele>
        <time>2025-09-05T13:39:33.000Z</time>
        <extensions>
          <ns3:TrackPointExtension>
            <ns3:hr>171</ns3:hr>
            <ns3:cad>80</ns3:cad>
          </ns3:TrackPointExtension>
        </extensions>
      </trkpt>
      <trkpt lat="52.09523133002221584320068359375" lon="1.3251840882003307342529296875">
        <ele>45.200000762939453125</ele>
        <time>2025-09-05T13:39:35.000Z</time>
        <extensions>
          <ns3:TrackPointExtension>
            <ns3:hr>173</ns3:hr>
            <ns3:cad>80</ns3:cad>
          </ns3:TrackPointExtension>
        </extensions>
      </trkpt>
      <trkpt lat="52.09526955150067806243896484375" lon="1.325195990502834320068359375">
        <ele>45</ele>
        <time>2025-09-05T13:39:37.000Z</time>
        <extensions>
          <ns3:TrackPointExtension>
            <ns3:hr>176</ns3:hr>
            <ns3:cad>80</ns3:cad>
          </ns3:TrackPointExtension>
        </extensions>
      </trkpt>
      <trkpt lat="52.095289416611194610595703125" lon="1.325204037129878997802734375">
        <ele>44.799999237060546875</ele>
        <time>2025-09-05T13:39:38.000Z</time>
        <extensions>
          <ns3:TrackPointExtension>
            <ns3:hr>175</ns3:hr>
            <ns3:cad>80</ns3:cad>
          </ns3:TrackPointExtension>
        </extensions>
      </trkpt>
      <trkpt lat="52.09536594338715076446533203125" lon="1.3252410851418972015380859375">
        <ele>44.200000762939453125</ele>
        <time>2025-09-05T13:39:42.000Z</time>
        <extensions>
          <ns3:TrackPointExtension>
            <ns3:hr>177</ns3:hr>
            <ns3:cad>81</ns3:cad>
          </ns3:TrackPointExtension>
        </extensions>
      </trkpt>
      <trkpt lat="52.09539243020117282867431640625" lon="1.32526673376560211181640625">
        <ele>44</ele>
        <time>2025-09-05T13:39:44.000Z</time>
        <extensions>
          <ns3:TrackPointExtension>
            <ns3:hr>178</ns3:hr>
            <ns3:cad>80</ns3:cad>
          </ns3:TrackPointExtension>
        </extensions>
      </trkpt>
      <trkpt lat="52.09543635137379169464111328125" lon="1.32531006820499897003173828125">
        <ele>43.40000152587890625</ele>
        <time>2025-09-05T13:39:47.000Z</time>
        <extensions>
          <ns3:TrackPointExtension>
            <ns3:hr>173</ns3:hr>
            <ns3:cad>79</ns3:cad>
          </ns3:TrackPointExtension>
        </extensions>
      </trkpt>
      <trkpt lat="52.0954645983874797821044921875" lon="1.3253425061702728271484375">
        <ele>43.200000762939453125</ele>
        <time>2025-09-05T13:39:49.000Z</time>
        <extensions>
          <ns3:TrackPointExtension>
            <ns3:hr>172</ns3:hr>
            <ns3:cad>79</ns3:cad>
          </ns3:TrackPointExtension>
        </extensions>
      </trkpt>
      <trkpt lat="52.09550357423722743988037109375" lon="1.3254124112427234649658203125">
        <ele>42.799999237060546875</ele>
        <time>2025-09-05T13:39:52.000Z</time>
        <extensions>
          <ns3:TrackPointExtension>
            <ns3:hr>171</ns3:hr>
            <ns3:cad>80</ns3:cad>
          </ns3:TrackPointExtension>
        </extensions>
      </trkpt>
      <trkpt lat="52.095572389662265777587890625" lon="1.32550620473921298980712890625">
        <ele>42.200000762939453125</ele>
        <time>2025-09-05T13:39:57.000Z</time>
        <extensions>
          <ns3:TrackPointExtension>
            <ns3:hr>171</ns3:hr>
            <ns3:cad>80</ns3:cad>
          </ns3:TrackPointExtension>
        </extensions>
      </trkpt>
      <trkpt lat="52.09560465998947620391845703125" lon="1.32557208649814128875732421875">
        <ele>41.799999237060546875</ele>
        <time>2025-09-05T13:40:00.000Z</time>
        <extensions>
          <ns3:TrackPointExtension>
            <ns3:hr>171</ns3:hr>
            <ns3:cad>79</ns3:cad>
          </ns3:TrackPointExtension>
        </extensions>
      </trkpt>
      <trkpt lat="52.095662914216518402099609375" lon="1.32573704235255718231201171875">
        <ele>41</ele>
        <time>2025-09-05T13:40:06.000Z</time>
        <extensions>
          <ns3:TrackPointExtension>
            <ns3:hr>171</ns3:hr>
            <ns3:cad>80</ns3:cad>
          </ns3:TrackPointExtension>
        </extensions>
      </trkpt>
      <trkpt lat="52.0957438834011554718017578125" lon="1.32590912282466888427734375">
        <ele>40.200000762939453125</ele>
        <time>2025-09-05T13:40:13.000Z</time>
        <extensions>
          <ns3:TrackPointExtension>
            <ns3:hr>170</ns3:hr>
            <ns3:cad>79</ns3:cad>
          </ns3:TrackPointExtension>
        </extensions>
      </trkpt>
      <trkpt lat="52.09575704298913478851318359375" lon="1.32601934485137462615966796875">
        <ele>40</ele>
        <time>2025-09-05T13:40:16.000Z</time>
        <extensions>
          <ns3:TrackPointExtension>
            <ns3:hr>171</ns3:hr>
            <ns3:cad>79</ns3:cad>
          </ns3:TrackPointExtension>
        </extensions>
      </trkpt>
      <trkpt lat="52.0957579649984836578369140625" lon="1.32617977447807788848876953125">
        <ele>39.40000152587890625</ele>
        <time>2025-09-05T13:40:20.000Z</time>
        <extensions>
          <ns3:TrackPointExtension>
            <ns3:hr>171</ns3:hr>
            <ns3:cad>80</ns3:cad>
          </ns3:TrackPointExtension>
        </extensions>
      </trkpt>
      <trkpt lat="52.095764838159084320068359375" lon="1.32637725211679935455322265625">
        <ele>38.799999237060546875</ele>
        <time>2025-09-05T13:40:27.000Z</time>
        <extensions>
          <ns3:TrackPointExtension>
            <ns3:hr>172</ns3:hr>
            <ns3:cad>0</ns3:cad>
          </ns3:TrackPointExtension>
        </extensions>
      </trkpt>
      <trkpt lat="52.0957810990512371063232421875" lon="1.32642544806003570556640625">
        <ele>38.59999847412109375</ele>
        <time>2025-09-05T13:40:29.000Z</time>
        <extensions>
          <ns3:TrackPointExtension>
            <ns3:hr>171</ns3:hr>
            <ns3:cad>61</ns3:cad>
          </ns3:TrackPointExtension>
        </extensions>
      </trkpt>
      <trkpt lat="52.09582108072936534881591796875" lon="1.326548494398593902587890625">
        <ele>38.200000762939453125</ele>
        <time>2025-09-05T13:40:34.000Z</time>
        <extensions>
          <ns3:TrackPointExtension>
            <ns3:hr>168</ns3:hr>
            <ns3:cad>58</ns3:cad>
          </ns3:TrackPointExtension>
        </extensions>
      </trkpt>
      <trkpt lat="52.095841951668262481689453125" lon="1.32663876749575138092041015625">
        <ele>37.799999237060546875</ele>
        <time>2025-09-05T13:40:38.000Z</time>
        <extensions>
          <ns3:TrackPointExtension>
            <ns3:hr>175</ns3:hr>
            <ns3:cad>0</ns3:cad>
          </ns3:TrackPointExtension>
        </extensions>
      </trkpt>
      <trkpt lat="52.09584706462919712066650390625" lon="1.32666273973882198333740234375">
        <ele>37.799999237060546875</ele>
        <time>2025-09-05T13:40:39.000Z</time>
        <extensions>
          <ns3:TrackPointExtension>
            <ns3:hr>175</ns3:hr>
            <ns3:cad>0</ns3:cad>
          </ns3:TrackPointExtension>
        </extensions>
      </trkpt>
      <trkpt lat="52.0958903990685939788818359375" lon="1.326856277883052825927734375">
        <ele>37.200000762939453125</ele>
        <time>2025-09-05T13:40:46.000Z</time>
        <extensions>
          <ns3:TrackPointExtension>
            <ns3:hr>175</ns3:hr>
            <ns3:cad>0</ns3:cad>
          </ns3:TrackPointExtension>
        </extensions>
      </trkpt>
      <trkpt lat="52.09593976847827434539794921875" lon="1.32706649601459503173828125">
        <ele>36.799999237060546875</ele>
        <time>2025-09-05T13:40:53.000Z</time>
        <extensions>
          <ns3:TrackPointExtension>
            <ns3:hr>172</ns3:hr>
            <ns3:cad>78</ns3:cad>
          </ns3:TrackPointExtension>
        </extensions>
      </trkpt>
      <trkpt lat="52.09594429470598697662353515625" lon="1.32712818682193756103515625">
        <ele>36.59999847412109375</ele>
        <time>2025-09-05T13:40:55.000Z</time>
        <extensions>
          <ns3:TrackPointExtension>
            <ns3:hr>175</ns3:hr>
            <ns3:cad>79</ns3:cad>
          </ns3:TrackPointExtension>
        </extensions>
      </trkpt>
      <trkpt lat="52.0959551073610782623291015625" lon="1.32722566835582256317138671875">
        <ele>36.40000152587890625</ele>
        <time>2025-09-05T13:40:58.000Z</time>
        <extensions>
          <ns3:TrackPointExtension>
            <ns3:hr>178</ns3:hr>
            <ns3:cad>79</ns3:cad>
          </ns3:TrackPointExtension>
        </extensions>
      </trkpt>
      <trkpt lat="52.0959644950926303863525390625" lon="1.32729087956249713897705078125">
        <ele>36.40000152587890625</ele>
        <time>2025-09-05T13:41:00.000Z</time>
        <extensions>
          <ns3:TrackPointExtension>
            <ns3:hr>181</ns3:hr>
            <ns3:cad>79</ns3:cad>
          </ns3:TrackPointExtension>
        </extensions>
      </trkpt>
      <trkpt lat="52.096014954149723052978515625" lon="1.3275565020740032196044921875">
        <ele>35.799999237060546875</ele>
        <time>2025-09-05T13:41:09.000Z</time>
        <extensions>
          <ns3:TrackPointExtension>
            <ns3:hr>182</ns3:hr>
            <ns3:cad>81</ns3:cad>
          </ns3:TrackPointExtension>
        </extensions>
      </trkpt>
      <trkpt lat="52.09604186005890369415283203125" lon="1.3276047818362712860107421875">
        <ele>35.59999847412109375</ele>
        <time>2025-09-05T13:41:11.000Z</time>
        <extensions>
          <ns3:TrackPointExtension>
            <ns3:hr>182</ns3:hr>
            <ns3:cad>81</ns3:cad>
          </ns3:TrackPointExtension>
        </extensions>
      </trkpt>
      <trkpt lat="52.0960597135126590728759765625" lon="1.32774249650537967681884765625">
        <ele>35.40000152587890625</ele>
        <time>2025-09-05T13:41:15.000Z</time>
        <extensions>
          <ns3:TrackPointExtension>
            <ns3:hr>181</ns3:hr>
            <ns3:cad>80</ns3:cad>
          </ns3:TrackPointExtension>
        </extensions>
      </trkpt>
      <trkpt lat="52.0960674248635768890380859375" lon="1.327950619161128997802734375">
        <ele>35.200000762939453125</ele>
        <time>2025-09-05T13:41:21.000Z</time>
        <extensions>
          <ns3:TrackPointExtension>
            <ns3:hr>181</ns3:hr>
            <ns3:cad>79</ns3:cad>
          </ns3:TrackPointExtension>
        </extensions>
      </trkpt>
      <trkpt lat="52.09607991389930248260498046875" lon="1.32802479900419712066650390625">
        <ele>35</ele>
        <time>2025-09-05T13:41:24.000Z</time>
        <extensions>
          <ns3:TrackPointExtension>
            <ns3:hr>181</ns3:hr>
            <ns3:cad>79</ns3:cad>
          </ns3:TrackPointExtension>
        </extensions>
      </trkpt>
      <trkpt lat="52.0961093343794345855712890625" lon="1.3280537165701389312744140625">
        <ele>35</ele>
        <time>2025-09-05T13:41:26.000Z</time>
        <extensions>
          <ns3:TrackPointExtension>
            <ns3:hr>181</ns3:hr>
            <ns3:cad>79</ns3:cad>
          </ns3:TrackPointExtension>
        </extensions>
      </trkpt>
      <trkpt lat="52.09622257389128208160400390625" lon="1.32815153338015079498291015625">
        <ele>34.799999237060546875</ele>
        <time>2025-09-05T13:41:33.000Z</time>
        <extensions>
          <ns3:TrackPointExtension>
            <ns3:hr>179</ns3:hr>
            <ns3:cad>78</ns3:cad>
          </ns3:TrackPointExtension>
        </extensions>
      </trkpt>
      <trkpt lat="52.09623883478343486785888671875" lon="1.32816494442522525787353515625">
        <ele>34.59999847412109375</ele>
        <time>2025-09-05T13:41:34.000Z</time>
        <extensions>
          <ns3:TrackPointExtension>
            <ns3:hr>180</ns3:hr>
            <ns3:cad>78</ns3:cad>
          </ns3:TrackPointExtension>
        </extensions>
      </trkpt>
      <trkpt lat="52.09630220197141170501708984375" lon="1.3282230310142040252685546875">
        <ele>34.59999847412109375</ele>
        <time>2025-09-05T13:41:38.000Z</time>
        <extensions>
          <ns3:TrackPointExtension>
            <ns3:hr>183</ns3:hr>
            <ns3:cad>79</ns3:cad>
          </ns3:TrackPointExtension>
        </extensions>
      </trkpt>
      <trkpt lat="52.0963539183139801025390625" lon="1.32826049812138080596923828125">
        <ele>34.40000152587890625</ele>
        <time>2025-09-05T13:41:41.000Z</time>
        <extensions>
          <ns3:TrackPointExtension>
            <ns3:hr>183</ns3:hr>
            <ns3:cad>79</ns3:cad>
          </ns3:TrackPointExtension>
        </extensions>
      </trkpt>
      <trkpt lat="52.0964824967086315155029296875" lon="1.3284002244472503662109375">
        <ele>34.200000762939453125</ele>
        <time>2025-09-05T13:41:49.000Z</time>
        <extensions>
          <ns3:TrackPointExtension>
            <ns3:hr>184</ns3:hr>
            <ns3:cad>80</ns3:cad>
          </ns3:TrackPointExtension>
        </extensions>
      </trkpt>
      <trkpt lat="52.096594981849193572998046875" lon="1.32857523858547210693359375">
        <ele>34</ele>
        <time>2025-09-05T13:41:56.000Z</time>
        <extensions>
          <ns3:TrackPointExtension>
            <ns3:hr>181</ns3:hr>
            <ns3:cad>79</ns3:cad>
          </ns3:TrackPointExtension>
        </extensions>
      </trkpt>
      <trkpt lat="52.09661702625453472137451171875" lon="1.3286280445754528045654296875">
        <ele>34</ele>
        <time>2025-09-05T13:41:58.000Z</time>
        <extensions>
          <ns3:TrackPointExtension>
            <ns3:hr>180</ns3:hr>
            <ns3:cad>79</ns3:cad>
          </ns3:TrackPointExtension>
        </extensions>
      </trkpt>
      <trkpt lat="52.09670034237205982208251953125" lon="1.328770034015178680419921875">
        <ele>33.799999237060546875</ele>
        <time>2025-09-05T13:42:04.000Z</time>
        <extensions>
          <ns3:TrackPointExtension>
            <ns3:hr>179</ns3:hr>
            <ns3:cad>78</ns3:cad>
          </ns3:TrackPointExtension>
        </extensions>
      </trkpt>
      <trkpt lat="52.09686756134033203125" lon="1.328865587711334228515625">
        <ele>33.59999847412109375</ele>
        <time>2025-09-05T13:42:11.000Z</time>
        <extensions>
          <ns3:TrackPointExtension>
            <ns3:hr>180</ns3:hr>
            <ns3:cad>80</ns3:cad>
          </ns3:TrackPointExtension>
        </extensions>
      </trkpt>
      <trkpt lat="52.0968952216207981109619140625" lon="1.3288768194615840911865234375">
        <ele>33.59999847412109375</ele>
        <time>2025-09-05T13:42:12.000Z</time>
        <extensions>
          <ns3:TrackPointExtension>
            <ns3:hr>181</ns3:hr>
            <ns3:cad>80</ns3:cad>
          </ns3:TrackPointExtension>
        </extensions>
      </trkpt>
      <trkpt lat="52.0970702357590198516845703125" lon="1.32896684110164642333984375">
        <ele>33.40000152587890625</ele>
        <time>2025-09-05T13:42:20.000Z</time>
        <extensions>
          <ns3:TrackPointExtension>
            <ns3:hr>181</ns3:hr>
            <ns3:cad>79</ns3:cad>
          </ns3:TrackPointExtension>
        </extensions>
      </trkpt>
      <trkpt lat="52.0970910228788852691650390625" lon="1.328979246318340301513671875">
        <ele>33.40000152587890625</ele>
        <time>2025-09-05T13:42:21.000Z</time>
        <extensions>
          <ns3:TrackPointExtension>
            <ns3:hr>181</ns3:hr>
            <ns3:cad>79</ns3:cad>
          </ns3:TrackPointExtension>
        </extensions>
      </trkpt>
      <trkpt lat="52.09721515886485576629638671875" lon="1.32907689549028873443603515625">
        <ele>33.200000762939453125</ele>
        <time>2025-09-05T13:42:29.000Z</time>
        <extensions>
          <ns3:TrackPointExtension>
            <ns3:hr>182</ns3:hr>
            <ns3:cad>80</ns3:cad>
          </ns3:TrackPointExtension>
        </extensions>
      </trkpt>
      <trkpt lat="52.0973595790565013885498046875" lon="1.3291671685874462127685546875">
        <ele>33</ele>
        <time>2025-09-05T13:42:37.000Z</time>
        <extensions>
          <ns3:TrackPointExtension>
            <ns3:hr>182</ns3:hr>
            <ns3:cad>80</ns3:cad>
          </ns3:TrackPointExtension>
        </extensions>
      </trkpt>
      <trkpt lat="52.097505591809749603271484375" lon="1.32919809781014919281005859375">
        <ele>33</ele>
        <time>2025-09-05T13:42:44.000Z</time>
        <extensions>
          <ns3:TrackPointExtension>
            <ns3:hr>182</ns3:hr>
            <ns3:cad>79</ns3:cad>
          </ns3:TrackPointExtension>
        </extensions>
      </trkpt>
      <trkpt lat="52.09766618907451629638671875" lon="1.32924042642116546630859375">
        <ele>32.799999237060546875</ele>
        <time>2025-09-05T13:42:51.000Z</time>
        <extensions>
          <ns3:TrackPointExtension>
            <ns3:hr>183</ns3:hr>
            <ns3:cad>80</ns3:cad>
          </ns3:TrackPointExtension>
        </extensions>
      </trkpt>
      <trkpt lat="52.0977511815726757049560546875" lon="1.32933296263217926025390625">
        <ele>32.799999237060546875</ele>
        <time>2025-09-05T13:42:58.000Z</time>
        <extensions>
          <ns3:TrackPointExtension>
            <ns3:hr>182</ns3:hr>
            <ns3:cad>79</ns3:cad>
          </ns3:TrackPointExtension>
        </extensions>
      </trkpt>
      <trkpt lat="52.09785570390522480010986328125" lon="1.32949917577207088470458984375">
        <ele>32.59999847412109375</ele>
        <time>2025-09-05T13:43:06.000Z</time>
        <extensions>
          <ns3:TrackPointExtension>
            <ns3:hr>182</ns3:hr>
            <ns3:cad>79</ns3:cad>
          </ns3:TrackPointExtension>
        </extensions>
      </trkpt>
      <trkpt lat="52.09789811633527278900146484375" lon="1.32957712747156620025634765625">
        <ele>32.59999847412109375</ele>
        <time>2025-09-05T13:43:09.000Z</time>
        <extensions>
          <ns3:TrackPointExtension>
            <ns3:hr>179</ns3:hr>
            <ns3:cad>79</ns3:cad>
          </ns3:TrackPointExtension>
        </extensions>
      </trkpt>
      <trkpt lat="52.097924686968326568603515625" lon="1.3296238146722316741943359375">
        <ele>32.59999847412109375</ele>
        <time>2025-09-05T13:43:11.000Z</time>
        <extensions>
          <ns3:TrackPointExtension>
            <ns3:hr>178</ns3:hr>
            <ns3:cad>80</ns3:cad>
          </ns3:TrackPointExtension>
        </extensions>
      </trkpt>
      <trkpt lat="52.09796014241874217987060546875" lon="1.329679973423480987548828125">
        <ele>32.59999847412109375</ele>
        <time>2025-09-05T13:43:13.000Z</time>
        <extensions>
          <ns3:TrackPointExtension>
            <ns3:hr>177</ns3:hr>
            <ns3:cad>80</ns3:cad>
          </ns3:TrackPointExtension>
        </extensions>
      </trkpt>
      <trkpt lat="52.09804832004010677337646484375" lon="1.32989765144884586334228515625">
        <ele>32.59999847412109375</ele>
        <time>2025-09-05T13:43:20.000Z</time>
        <extensions>
          <ns3:TrackPointExtension>
            <ns3:hr>177</ns3:hr>
            <ns3:cad>79</ns3:cad>
          </ns3:TrackPointExtension>
        </extensions>
      </trkpt>
      <trkpt lat="52.09813415072858333587646484375" lon="1.33008934557437896728515625">
        <ele>32.40000152587890625</ele>
        <time>2025-09-05T13:43:27.000Z</time>
        <extensions>
          <ns3:TrackPointExtension>
            <ns3:hr>179</ns3:hr>
            <ns3:cad>80</ns3:cad>
          </ns3:TrackPointExtension>
        </extensions>
      </trkpt>
      <trkpt lat="52.09820640273392200469970703125" lon="1.33031666278839111328125">
        <ele>32.40000152587890625</ele>
        <time>2025-09-05T13:43:35.000Z</time>
        <extensions>
          <ns3:TrackPointExtension>
            <ns3:hr>178</ns3:hr>
            <ns3:cad>75</ns3:cad>
          </ns3:TrackPointExtension>
        </extensions>
      </trkpt>
      <trkpt lat="52.0982966758310794830322265625" lon="1.33038061670958995819091796875">
        <ele>32.40000152587890625</ele>
        <time>2025-09-05T13:43:41.000Z</time>
        <extensions>
          <ns3:TrackPointExtension>
            <ns3:hr>178</ns3:hr>
            <ns3:cad>79</ns3:cad>
          </ns3:TrackPointExtension>
        </extensions>
      </trkpt>
      <trkpt lat="52.09849021397531032562255859375" lon="1.33032747544348239898681640625">
        <ele>32.40000152587890625</ele>
        <time>2025-09-05T13:43:49.000Z</time>
        <extensions>
          <ns3:TrackPointExtension>
            <ns3:hr>178</ns3:hr>
            <ns3:cad>79</ns3:cad>
          </ns3:TrackPointExtension>
        </extensions>
      </trkpt>
      <trkpt lat="52.09859917871654033660888671875" lon="1.33017383515834808349609375">
        <ele>32.200000762939453125</ele>
        <time>2025-09-05T13:43:56.000Z</time>
        <extensions>
          <ns3:TrackPointExtension>
            <ns3:hr>178</ns3:hr>
            <ns3:cad>80</ns3:cad>
          </ns3:TrackPointExtension>
        </extensions>
      </trkpt>
      <trkpt lat="52.098658271133899688720703125" lon="1.32996956817805767059326171875">
        <ele>32.200000762939453125</ele>
        <time>2025-09-05T13:44:02.000Z</time>
        <extensions>
          <ns3:TrackPointExtension>
            <ns3:hr>177</ns3:hr>
            <ns3:cad>80</ns3:cad>
          </ns3:TrackPointExtension>
        </extensions>
      </trkpt>
      <trkpt lat="52.0987268351018428802490234375" lon="1.32984367199242115020751953125">
        <ele>32</ele>
        <time>2025-09-05T13:44:08.000Z</time>
        <extensions>
          <ns3:TrackPointExtension>
            <ns3:hr>176</ns3:hr>
            <ns3:cad>79</ns3:cad>
          </ns3:TrackPointExtension>
        </extensions>
      </trkpt>
      <trkpt lat="52.09885382093489170074462890625" lon="1.32979187183082103729248046875">
        <ele>31.799999237060546875</ele>
        <time>2025-09-05T13:44:16.000Z</time>
        <extensions>
          <ns3:TrackPointExtension>
            <ns3:hr>176</ns3:hr>
            <ns3:cad>80</ns3:cad>
          </ns3:TrackPointExtension>
        </extensions>
      </trkpt>
      <trkpt lat="52.0989444293081760406494140625" lon="1.32982037030160427093505859375">
        <ele>31.799999237060546875</ele>
        <time>2025-09-05T13:44:20.000Z</time>
        <extensions>
          <ns3:TrackPointExtension>
            <ns3:hr>173</ns3:hr>
            <ns3:cad>79</ns3:cad>
          </ns3:TrackPointExtension>
        </extensions>
      </trkpt>
      <trkpt lat="52.099010311067104339599609375" lon="1.3298266567289829254150390625">
        <ele>31.799999237060546875</ele>
        <time>2025-09-05T13:44:24.000Z</time>
        <extensions>
          <ns3:TrackPointExtension>
            <ns3:hr>173</ns3:hr>
            <ns3:cad>61</ns3:cad>
          </ns3:TrackPointExtension>
        </extensions>
      </trkpt>
      <trkpt lat="52.09910326637327671051025390625" lon="1.32982313632965087890625">
        <ele>31.799999237060546875</ele>
        <time>2025-09-05T13:44:32.000Z</time>
        <extensions>
          <ns3:TrackPointExtension>
            <ns3:hr>170</ns3:hr>
            <ns3:cad>58</ns3:cad>
          </ns3:TrackPointExtension>
        </extensions>
      </trkpt>
      <trkpt lat="52.0991165935993194580078125" lon="1.32982489652931690216064453125">
        <ele>31.799999237060546875</ele>
        <time>2025-09-05T13:44:33.000Z</time>
        <extensions>
          <ns3:TrackPointExtension>
            <ns3:hr>168</ns3:hr>
            <ns3:cad>58</ns3:cad>
          </ns3:TrackPointExtension>
        </extensions>
      </trkpt>
      <trkpt lat="52.09928691387176513671875" lon="1.32980377413332462310791015625">
        <ele>31.6000003814697265625</ele>
        <time>2025-09-05T13:44:43.000Z</time>
        <extensions>
          <ns3:TrackPointExtension>
            <ns3:hr>171</ns3:hr>
            <ns3:cad>60</ns3:cad>
          </ns3:TrackPointExtension>
        </extensions>
      </trkpt>
      <trkpt lat="52.09936444647610187530517578125" lon="1.32978818379342555999755859375">
        <ele>31.6000003814697265625</ele>
        <time>2025-09-05T13:44:47.000Z</time>
        <extensions>
          <ns3:TrackPointExtension>
            <ns3:hr>168</ns3:hr>
            <ns3:cad>60</ns3:cad>
          </ns3:TrackPointExtension>
        </extensions>
      </trkpt>
      <trkpt lat="52.099427394568920135498046875" lon="1.329767815768718719482421875">
        <ele>31.6000003814697265625</ele>
        <time>2025-09-05T13:44:51.000Z</time>
        <extensions>
          <ns3:TrackPointExtension>
            <ns3:hr>171</ns3:hr>
            <ns3:cad>59</ns3:cad>
          </ns3:TrackPointExtension>
        </extensions>
      </trkpt>
      <trkpt lat="52.099472321569919586181640625" lon="1.3297609426081180572509765625">
        <ele>31.6000003814697265625</ele>
        <time>2025-09-05T13:44:54.000Z</time>
        <extensions>
          <ns3:TrackPointExtension>
            <ns3:hr>170</ns3:hr>
            <ns3:cad>58</ns3:cad>
          </ns3:TrackPointExtension>
        </extensions>
      </trkpt>
      <trkpt lat="52.0995737425982952117919921875" lon="1.32976370863616466522216796875">
        <ele>31.6000003814697265625</ele>
        <time>2025-09-05T13:45:02.000Z</time>
        <extensions>
          <ns3:TrackPointExtension>
            <ns3:hr>168</ns3:hr>
            <ns3:cad>60</ns3:cad>
          </ns3:TrackPointExtension>
        </extensions>
      </trkpt>
      <trkpt lat="52.09964892826974391937255859375" lon="1.329747699201107025146484375">
        <ele>31.6000003814697265625</ele>
        <time>2025-09-05T13:45:07.000Z</time>
        <extensions>
          <ns3:TrackPointExtension>
            <ns3:hr>165</ns3:hr>
            <ns3:cad>60</ns3:cad>
          </ns3:TrackPointExtension>
        </extensions>
      </trkpt>
      <trkpt lat="52.09967784583568572998046875" lon="1.3297492079436779022216796875">
        <ele>31.6000003814697265625</ele>
        <time>2025-09-05T13:45:09.000Z</time>
        <extensions>
          <ns3:TrackPointExtension>
            <ns3:hr>164</ns3:hr>
            <ns3:cad>59</ns3:cad>
          </ns3:TrackPointExtension>
        </extensions>
      </trkpt>
      <trkpt lat="52.099827043712139129638671875" lon="1.32976806722581386566162109375">
        <ele>31.6000003814697265625</ele>
        <time>2025-09-05T13:45:20.000Z</time>
        <extensions>
          <ns3:TrackPointExtension>
            <ns3:hr>162</ns3:hr>
            <ns3:cad>60</ns3:cad>
          </ns3:TrackPointExtension>
        </extensions>
      </trkpt>
      <trkpt lat="52.0999807678163051605224609375" lon="1.32979941554367542266845703125">
        <ele>31.6000003814697265625</ele>
        <time>2025-09-05T13:45:31.000Z</time>
        <extensions>
          <ns3:TrackPointExtension>
            <ns3:hr>160</ns3:hr>
            <ns3:cad>59</ns3:cad>
          </ns3:TrackPointExtension>
        </extensions>
      </trkpt>
      <trkpt lat="52.10008964873850345611572265625" lon="1.32985071279108524322509765625">
        <ele>31.6000003814697265625</ele>
        <time>2025-09-05T13:45:37.000Z</time>
        <extensions>
          <ns3:TrackPointExtension>
            <ns3:hr>157</ns3:hr>
            <ns3:cad>80</ns3:cad>
          </ns3:TrackPointExtension>
        </extensions>
      </trkpt>
      <trkpt lat="52.10026524960994720458984375" lon="1.32995649240911006927490234375">
        <ele>31.6000003814697265625</ele>
        <time>2025-09-05T13:45:45.000Z</time>
        <extensions>
          <ns3:TrackPointExtension>
            <ns3:hr>158</ns3:hr>
            <ns3:cad>80</ns3:cad>
          </ns3:TrackPointExtension>
        </extensions>
      </trkpt>
      <trkpt lat="52.10031093098223209381103515625" lon="1.3299788720905780792236328125">
        <ele>31.6000003814697265625</ele>
        <time>2025-09-05T13:45:47.000Z</time>
        <extensions>
          <ns3:TrackPointExtension>
            <ns3:hr>163</ns3:hr>
            <ns3:cad>81</ns3:cad>
          </ns3:TrackPointExtension>
        </extensions>
      </trkpt>
      <trkpt lat="52.1003411896526813507080078125" lon="1.3300036825239658355712890625">
        <ele>31.6000003814697265625</ele>
        <time>2025-09-05T13:45:49.000Z</time>
        <extensions>
          <ns3:TrackPointExtension>
            <ns3:hr>167</ns3:hr>
            <ns3:cad>81</ns3:cad>
          </ns3:TrackPointExtension>
        </extensions>
      </trkpt>
      <trkpt lat="52.10037052631378173828125" lon="1.33003394119441509246826171875">
        <ele>31.6000003814697265625</ele>
        <time>2025-09-05T13:45:51.000Z</time>
        <extensions>
          <ns3:TrackPointExtension>
            <ns3:hr>170</ns3:hr>
            <ns3:cad>81</ns3:cad>
          </ns3:TrackPointExtension>
        </extensions>
      </trkpt>
      <trkpt lat="52.100381590425968170166015625" lon="1.33005640469491481781005859375">
        <ele>31.6000003814697265625</ele>
        <time>2025-09-05T13:45:52.000Z</time>
        <extensions>
          <ns3:TrackPointExtension>
            <ns3:hr>171</ns3:hr>
            <ns3:cad>81</ns3:cad>
          </ns3:TrackPointExtension>
        </extensions>
      </trkpt>
      <trkpt lat="52.1004223264753818511962890625" lon="1.33012111298739910125732421875">
        <ele>31.6000003814697265625</ele>
        <time>2025-09-05T13:45:55.000Z</time>
        <extensions>
          <ns3:TrackPointExtension>
            <ns3:hr>174</ns3:hr>
            <ns3:cad>81</ns3:cad>
          </ns3:TrackPointExtension>
        </extensions>
      </trkpt>
      <trkpt lat="52.10049214772880077362060546875" lon="1.33024223148822784423828125">
        <ele>31.6000003814697265625</ele>
        <time>2025-09-05T13:46:00.000Z</time>
        <extensions>
          <ns3:TrackPointExtension>
            <ns3:hr>177</ns3:hr>
            <ns3:cad>82</ns3:cad>
          </ns3:TrackPointExtension>
        </extensions>
      </trkpt>
      <trkpt lat="52.10050933063030242919921875" lon="1.33026209659874439239501953125">
        <ele>31.6000003814697265625</ele>
        <time>2025-09-05T13:46:01.000Z</time>
        <extensions>
          <ns3:TrackPointExtension>
            <ns3:hr>179</ns3:hr>
            <ns3:cad>82</ns3:cad>
          </ns3:TrackPointExtension>
        </extensions>
      </trkpt>
      <trkpt lat="52.10061469115316867828369140625" lon="1.33040794171392917633056640625">
        <ele>31.6000003814697265625</ele>
        <time>2025-09-05T13:46:08.000Z</time>
        <extensions>
          <ns3:TrackPointExtension>
            <ns3:hr>179</ns3:hr>
            <ns3:cad>81</ns3:cad>
          </ns3:TrackPointExtension>
        </extensions>
      </trkpt>
      <trkpt lat="52.10062709636986255645751953125" lon="1.33042856119573116302490234375">
        <ele>31.6000003814697265625</ele>
        <time>2025-09-05T13:46:09.000Z</time>
        <extensions>
          <ns3:TrackPointExtension>
            <ns3:hr>176</ns3:hr>
            <ns3:cad>81</ns3:cad>
          </ns3:TrackPointExtension>
        </extensions>
      </trkpt>
      <trkpt lat="52.10074343718588352203369140625" lon="1.3305381126701831817626953125">
        <ele>31.6000003814697265625</ele>
        <time>2025-09-05T13:46:15.000Z</time>
        <extensions>
          <ns3:TrackPointExtension>
            <ns3:hr>175</ns3:hr>
            <ns3:cad>81</ns3:cad>
          </ns3:TrackPointExtension>
        </extensions>
      </trkpt>
      <trkpt lat="52.1008937247097492218017578125" lon="1.3306479156017303466796875">
        <ele>31.6000003814697265625</ele>
        <time>2025-09-05T13:46:23.000Z</time>
        <extensions>
          <ns3:TrackPointExtension>
            <ns3:hr>177</ns3:hr>
            <ns3:cad>82</ns3:cad>
          </ns3:TrackPointExtension>
        </extensions>
      </trkpt>
      <trkpt lat="52.10100310854613780975341796875" lon="1.3307553716003894805908203125">
        <ele>31.6000003814697265625</ele>
        <time>2025-09-05T13:46:29.000Z</time>
        <extensions>
          <ns3:TrackPointExtension>
            <ns3:hr>176</ns3:hr>
            <ns3:cad>81</ns3:cad>
          </ns3:TrackPointExtension>
        </extensions>
      </trkpt>
      <trkpt lat="52.10108122788369655609130859375" lon="1.3310153782367706298828125">
        <ele>33.200000762939453125</ele>
        <time>2025-09-05T13:46:37.000Z</time>
        <extensions>
          <ns3:TrackPointExtension>
            <ns3:hr>177</ns3:hr>
            <ns3:cad>81</ns3:cad>
          </ns3:TrackPointExtension>
        </extensions>
      </trkpt>
      <trkpt lat="52.10109530948102474212646484375" lon="1.3310514204204082489013671875">
        <ele>33.59999847412109375</ele>
        <time>2025-09-05T13:46:38.000Z</time>
        <extensions>
          <ns3:TrackPointExtension>
            <ns3:hr>177</ns3:hr>
            <ns3:cad>81</ns3:cad>
          </ns3:TrackPointExtension>
        </extensions>
      </trkpt>
      <trkpt lat="52.10112221539020538330078125" lon="1.33114454336464405059814453125">
        <ele>34.799999237060546875</ele>
        <time>2025-09-05T13:46:41.000Z</time>
        <extensions>
          <ns3:TrackPointExtension>
            <ns3:hr>176</ns3:hr>
            <ns3:cad>81</ns3:cad>
          </ns3:TrackPointExtension>
        </extensions>
      </trkpt>
      <trkpt lat="52.10113964974880218505859375" lon="1.33123221807181835174560546875">
        <ele>36</ele>
        <time>2025-09-05T13:46:44.000Z</time>
        <extensions>
          <ns3:TrackPointExtension>
            <ns3:hr>176</ns3:hr>
            <ns3:cad>81</ns3:cad>
          </ns3:TrackPointExtension>
        </extensions>
      </trkpt>
      <trkpt lat="52.1011622808873653411865234375" lon="1.3313253410160541534423828125">
        <ele>37.59999847412109375</ele>
        <time>2025-09-05T13:46:47.000Z</time>
        <extensions>
          <ns3:TrackPointExtension>
            <ns3:hr>176</ns3:hr>
            <ns3:cad>81</ns3:cad>
          </ns3:TrackPointExtension>
        </extensions>
      </trkpt>
      <trkpt lat="52.10118214599788188934326171875" lon="1.33138543926179409027099609375">
        <ele>38.59999847412109375</ele>
        <time>2025-09-05T13:46:49.000Z</time>
        <extensions>
          <ns3:TrackPointExtension>
            <ns3:hr>177</ns3:hr>
            <ns3:cad>81</ns3:cad>
          </ns3:TrackPointExtension>
        </extensions>
      </trkpt>
      <trkpt lat="52.10120159201323986053466796875" lon="1.3314463756978511810302734375">
        <ele>39.799999237060546875</ele>
        <time>2025-09-05T13:46:51.000Z</time>
        <extensions>
          <ns3:TrackPointExtension>
            <ns3:hr>176</ns3:hr>
            <ns3:cad>80</ns3:cad>
          </ns3:TrackPointExtension>
        </extensions>
      </trkpt>
      <trkpt lat="52.10121818818151950836181640625" lon="1.33149876259267330169677734375">
        <ele>41</ele>
        <time>2025-09-05T13:46:53.000Z</time>
        <extensions>
          <ns3:TrackPointExtension>
            <ns3:hr>177</ns3:hr>
            <ns3:cad>80</ns3:cad>
          </ns3:TrackPointExtension>
        </extensions>
      </trkpt>
      <trkpt lat="52.10124081932008266448974609375" lon="1.33155508898198604583740234375">
        <ele>42.200000762939453125</ele>
        <time>2025-09-05T13:46:55.000Z</time>
        <extensions>
          <ns3:TrackPointExtension>
            <ns3:hr>175</ns3:hr>
            <ns3:cad>80</ns3:cad>
          </ns3:TrackPointExtension>
        </extensions>
      </trkpt>
      <trkpt lat="52.1012650430202484130859375" lon="1.33161309175193309783935546875">
        <ele>43.40000152587890625</ele>
        <time>2025-09-05T13:46:57.000Z</time>
        <extensions>
          <ns3:TrackPointExtension>
            <ns3:hr>173</ns3:hr>
            <ns3:cad>82</ns3:cad>
          </ns3:TrackPointExtension>
        </extensions>
      </trkpt>
      <trkpt lat="52.101288177073001861572265625" lon="1.3316698372364044189453125">
        <ele>44.799999237060546875</ele>
        <time>2025-09-05T13:46:59.000Z</time>
        <extensions>
          <ns3:TrackPointExtension>
            <ns3:hr>172</ns3:hr>
            <ns3:cad>81</ns3:cad>
          </ns3:TrackPointExtension>
        </extensions>
      </trkpt>
      <trkpt lat="52.101310305297374725341796875" lon="1.331724822521209716796875">
        <ele>46</ele>
        <time>2025-09-05T13:47:01.000Z</time>
        <extensions>
          <ns3:TrackPointExtension>
            <ns3:hr>171</ns3:hr>
            <ns3:cad>81</ns3:cad>
          </ns3:TrackPointExtension>
        </extensions>
      </trkpt>
      <trkpt lat="52.10133285261690616607666015625" lon="1.33178005926311016082763671875">
        <ele>47.59999847412109375</ele>
        <time>2025-09-05T13:47:03.000Z</time>
        <extensions>
          <ns3:TrackPointExtension>
            <ns3:hr>171</ns3:hr>
            <ns3:cad>81</ns3:cad>
          </ns3:TrackPointExtension>
        </extensions>
      </trkpt>
      <trkpt lat="52.10135648958384990692138671875" lon="1.3318309374153614044189453125">
        <ele>49</ele>
        <time>2025-09-05T13:47:05.000Z</time>
        <extensions>
          <ns3:TrackPointExtension>
            <ns3:hr>171</ns3:hr>
            <ns3:cad>81</ns3:cad>
          </ns3:TrackPointExtension>
        </extensions>
      </trkpt>
      <trkpt lat="52.101378031075000762939453125" lon="1.3318808935582637786865234375">
        <ele>50.59999847412109375</ele>
        <time>2025-09-05T13:47:07.000Z</time>
        <extensions>
          <ns3:TrackPointExtension>
            <ns3:hr>170</ns3:hr>
            <ns3:cad>81</ns3:cad>
          </ns3:TrackPointExtension>
        </extensions>
      </trkpt>
      <trkpt lat="52.10140292532742023468017578125" lon="1.3319358788430690765380859375">
        <ele>52.200000762939453125</ele>
        <time>2025-09-05T13:47:09.000Z</time>
        <extensions>
          <ns3:TrackPointExtension>
            <ns3:hr>171</ns3:hr>
            <ns3:cad>80</ns3:cad>
          </ns3:TrackPointExtension>
        </extensions>
      </trkpt>
      <trkpt lat="52.10143896751105785369873046875" lon="1.3319943845272064208984375">
        <ele>54</ele>
        <time>2025-09-05T13:47:11.000Z</time>
        <extensions>
          <ns3:TrackPointExtension>
            <ns3:hr>172</ns3:hr>
            <ns3:cad>81</ns3:cad>
          </ns3:TrackPointExtension>
        </extensions>
      </trkpt>
      <trkpt lat="52.1014734171330928802490234375" lon="1.3320488668978214263916015625">
        <ele>56</ele>
        <time>2025-09-05T13:47:13.000Z</time>
        <extensions>
          <ns3:TrackPointExtension>
            <ns3:hr>172</ns3:hr>
            <ns3:cad>81</ns3:cad>
          </ns3:TrackPointExtension>
        </extensions>
      </trkpt>
      <trkpt lat="52.10150384344160556793212890625" lon="1.3321011699736118316650390625">
        <ele>57.799999237060546875</ele>
        <time>2025-09-05T13:47:15.000Z</time>
        <extensions>
          <ns3:TrackPointExtension>
            <ns3:hr>171</ns3:hr>
            <ns3:cad>81</ns3:cad>
          </ns3:TrackPointExtension>
        </extensions>
      </trkpt>
      <trkpt lat="52.10153804160654544830322265625" lon="1.3321568258106708526611328125">
        <ele>59.799999237060546875</ele>
        <time>2025-09-05T13:47:17.000Z</time>
        <extensions>
          <ns3:TrackPointExtension>
            <ns3:hr>170</ns3:hr>
            <ns3:cad>81</ns3:cad>
          </ns3:TrackPointExtension>
        </extensions>
      </trkpt>
      <trkpt lat="52.1015709824860095977783203125" lon="1.33221038617193698883056640625">
        <ele>61.799999237060546875</ele>
        <time>2025-09-05T13:47:19.000Z</time>
        <extensions>
          <ns3:TrackPointExtension>
            <ns3:hr>170</ns3:hr>
            <ns3:cad>80</ns3:cad>
          </ns3:TrackPointExtension>
        </extensions>
      </trkpt>
      <trkpt lat="52.1015761792659759521484375" lon="1.3322840631008148193359375">
        <ele>63.59999847412109375</ele>
        <time>2025-09-05T13:47:21.000Z</time>
        <extensions>
          <ns3:TrackPointExtension>
            <ns3:hr>170</ns3:hr>
            <ns3:cad>79</ns3:cad>
          </ns3:TrackPointExtension>
        </extensions>
      </trkpt>
      <trkpt lat="52.101580202579498291015625" lon="1.33235556073486804962158203125">
        <ele>65.40000152587890625</ele>
        <time>2025-09-05T13:47:23.000Z</time>
        <extensions>
          <ns3:TrackPointExtension>
            <ns3:hr>171</ns3:hr>
            <ns3:cad>77</ns3:cad>
          </ns3:TrackPointExtension>
        </extensions>
      </trkpt>
      <trkpt lat="52.10160526446998119354248046875" lon="1.332420520484447479248046875">
        <ele>67.40000152587890625</ele>
        <time>2025-09-05T13:47:25.000Z</time>
        <extensions>
          <ns3:TrackPointExtension>
            <ns3:hr>170</ns3:hr>
            <ns3:cad>79</ns3:cad>
          </ns3:TrackPointExtension>
        </extensions>
      </trkpt>
      <trkpt lat="52.10162990726530551910400390625" lon="1.332478187978267669677734375">
        <ele>69</ele>
        <time>2025-09-05T13:47:27.000Z</time>
        <extensions>
          <ns3:TrackPointExtension>
            <ns3:hr>173</ns3:hr>
            <ns3:cad>79</ns3:cad>
          </ns3:TrackPointExtension>
        </extensions>
      </trkpt>
      <trkpt lat="52.1016405522823333740234375" lon="1.33251213468611240386962890625">
        <ele>70</ele>
        <time>2025-09-05T13:47:28.000Z</time>
        <extensions>
          <ns3:TrackPointExtension>
            <ns3:hr>173</ns3:hr>
            <ns3:cad>79</ns3:cad>
          </ns3:TrackPointExtension>
        </extensions>
      </trkpt>
      <trkpt lat="52.1016459167003631591796875" lon="1.33254817686975002288818359375">
        <ele>70.8000030517578125</ele>
        <time>2025-09-05T13:47:29.000Z</time>
        <extensions>
          <ns3:TrackPointExtension>
            <ns3:hr>173</ns3:hr>
            <ns3:cad>79</ns3:cad>
          </ns3:TrackPointExtension>
        </extensions>
      </trkpt>
      <trkpt lat="52.10165865719318389892578125" lon="1.33261623792350292205810546875">
        <ele>72.40000152587890625</ele>
        <time>2025-09-05T13:47:31.000Z</time>
        <extensions>
          <ns3:TrackPointExtension>
            <ns3:hr>173</ns3:hr>
            <ns3:cad>78</ns3:cad>
          </ns3:TrackPointExtension>
        </extensions>
      </trkpt>
      <trkpt lat="52.1016685478389263153076171875" lon="1.33268798701465129852294921875">
        <ele>74</ele>
        <time>2025-09-05T13:47:33.000Z</time>
        <extensions>
          <ns3:TrackPointExtension>
            <ns3:hr>173</ns3:hr>
            <ns3:cad>78</ns3:cad>
          </ns3:TrackPointExtension>
        </extensions>
      </trkpt>
      <trkpt lat="52.101687490940093994140625" lon="1.33276694454252719879150390625">
        <ele>75.59999847412109375</ele>
        <time>2025-09-05T13:47:35.000Z</time>
        <extensions>
          <ns3:TrackPointExtension>
            <ns3:hr>174</ns3:hr>
            <ns3:cad>78</ns3:cad>
          </ns3:TrackPointExtension>
        </extensions>
      </trkpt>
      <trkpt lat="52.10169578902423381805419921875" lon="1.33279795758426189422607421875">
        <ele>76.40000152587890625</ele>
        <time>2025-09-05T13:47:36.000Z</time>
        <extensions>
          <ns3:TrackPointExtension>
            <ns3:hr>174</ns3:hr>
            <ns3:cad>78</ns3:cad>
          </ns3:TrackPointExtension>
        </extensions>
      </trkpt>
      <trkpt lat="52.10170752368867397308349609375" lon="1.33283114992082118988037109375">
        <ele>77.1999969482421875</ele>
        <time>2025-09-05T13:47:37.000Z</time>
        <extensions>
          <ns3:TrackPointExtension>
            <ns3:hr>174</ns3:hr>
            <ns3:cad>78</ns3:cad>
          </ns3:TrackPointExtension>
        </extensions>
      </trkpt>
      <trkpt lat="52.1017366088926792144775390625" lon="1.3328756578266620635986328125">
        <ele>78.59999847412109375</ele>
        <time>2025-09-05T13:47:39.000Z</time>
        <extensions>
          <ns3:TrackPointExtension>
            <ns3:hr>174</ns3:hr>
            <ns3:cad>79</ns3:cad>
          </ns3:TrackPointExtension>
        </extensions>
      </trkpt>
      <trkpt lat="52.10177130997180938720703125" lon="1.33291773498058319091796875">
        <ele>80.1999969482421875</ele>
        <time>2025-09-05T13:47:41.000Z</time>
        <extensions>
          <ns3:TrackPointExtension>
            <ns3:hr>173</ns3:hr>
            <ns3:cad>79</ns3:cad>
          </ns3:TrackPointExtension>
        </extensions>
      </trkpt>
      <trkpt lat="52.1017869003117084503173828125" lon="1.3329373486340045928955078125">
        <ele>81</ele>
        <time>2025-09-05T13:47:42.000Z</time>
        <extensions>
          <ns3:TrackPointExtension>
            <ns3:hr>174</ns3:hr>
            <ns3:cad>79</ns3:cad>
          </ns3:TrackPointExtension>
        </extensions>
      </trkpt>
      <trkpt lat="52.10180492140352725982666015625" lon="1.3329578004777431488037109375">
        <ele>81.59999847412109375</ele>
        <time>2025-09-05T13:47:43.000Z</time>
        <extensions>
          <ns3:TrackPointExtension>
            <ns3:hr>174</ns3:hr>
            <ns3:cad>79</ns3:cad>
          </ns3:TrackPointExtension>
        </extensions>
      </trkpt>
      <trkpt lat="52.10184213705360889434814453125" lon="1.33299761451780796051025390625">
        <ele>83.1999969482421875</ele>
        <time>2025-09-05T13:47:45.000Z</time>
        <extensions>
          <ns3:TrackPointExtension>
            <ns3:hr>175</ns3:hr>
            <ns3:cad>79</ns3:cad>
          </ns3:TrackPointExtension>
        </extensions>
      </trkpt>
      <trkpt lat="52.10186845622956752777099609375" lon="1.333036087453365325927734375">
        <ele>84.8000030517578125</ele>
        <time>2025-09-05T13:47:47.000Z</time>
        <extensions>
          <ns3:TrackPointExtension>
            <ns3:hr>175</ns3:hr>
            <ns3:cad>80</ns3:cad>
          </ns3:TrackPointExtension>
        </extensions>
      </trkpt>
      <trkpt lat="52.10189812816679477691650390625" lon="1.33307875134050846099853515625">
        <ele>86.40000152587890625</ele>
        <time>2025-09-05T13:47:49.000Z</time>
        <extensions>
          <ns3:TrackPointExtension>
            <ns3:hr>175</ns3:hr>
            <ns3:cad>80</ns3:cad>
          </ns3:TrackPointExtension>
        </extensions>
      </trkpt>
      <trkpt lat="52.101930566132068634033203125" lon="1.3331291265785694122314453125">
        <ele>88</ele>
        <time>2025-09-05T13:47:51.000Z</time>
        <extensions>
          <ns3:TrackPointExtension>
            <ns3:hr>175</ns3:hr>
            <ns3:cad>79</ns3:cad>
          </ns3:TrackPointExtension>
        </extensions>
      </trkpt>
      <trkpt lat="52.101953029632568359375" lon="1.33317983709275722503662109375">
        <ele>89.59999847412109375</ele>
        <time>2025-09-05T13:47:53.000Z</time>
        <extensions>
          <ns3:TrackPointExtension>
            <ns3:hr>175</ns3:hr>
            <ns3:cad>79</ns3:cad>
          </ns3:TrackPointExtension>
        </extensions>
      </trkpt>
      <trkpt lat="52.10197557695209980010986328125" lon="1.33322124369442462921142578125">
        <ele>91.40000152587890625</ele>
        <time>2025-09-05T13:47:55.000Z</time>
        <extensions>
          <ns3:TrackPointExtension>
            <ns3:hr>175</ns3:hr>
            <ns3:cad>79</ns3:cad>
          </ns3:TrackPointExtension>
        </extensions>
      </trkpt>
      <trkpt lat="52.10199795663356781005859375" lon="1.333258710801601409912109375">
        <ele>93</ele>
        <time>2025-09-05T13:47:57.000Z</time>
        <extensions>
          <ns3:TrackPointExtension>
            <ns3:hr>174</ns3:hr>
            <ns3:cad>79</ns3:cad>
          </ns3:TrackPointExtension>
        </extensions>
      </trkpt>
      <trkpt lat="52.10201195441186428070068359375" lon="1.333301961421966552734375">
        <ele>94.8000030517578125</ele>
        <time>2025-09-05T13:47:59.000Z</time>
        <extensions>
          <ns3:TrackPointExtension>
            <ns3:hr>174</ns3:hr>
            <ns3:cad>79</ns3:cad>
          </ns3:TrackPointExtension>
        </extensions>
      </trkpt>
      <trkpt lat="52.1020299755036830902099609375" lon="1.33335552178323268890380859375">
        <ele>96.59999847412109375</ele>
        <time>2025-09-05T13:48:01.000Z</time>
        <extensions>
          <ns3:TrackPointExtension>
            <ns3:hr>173</ns3:hr>
            <ns3:cad>79</ns3:cad>
          </ns3:TrackPointExtension>
        </extensions>
      </trkpt>
      <trkpt lat="52.102047912776470184326171875" lon="1.33340631611645221710205078125">
        <ele>98.59999847412109375</ele>
        <time>2025-09-05T13:48:03.000Z</time>
        <extensions>
          <ns3:TrackPointExtension>
            <ns3:hr>174</ns3:hr>
            <ns3:cad>74</ns3:cad>
          </ns3:TrackPointExtension>
        </extensions>
      </trkpt>
      <trkpt lat="52.10205738432705402374267578125" lon="1.33343330584466457366943359375">
        <ele>99.40000152587890625</ele>
        <time>2025-09-05T13:48:04.000Z</time>
        <extensions>
          <ns3:TrackPointExtension>
            <ns3:hr>176</ns3:hr>
            <ns3:cad>75</ns3:cad>
          </ns3:TrackPointExtension>
        </extensions>
      </trkpt>
      <trkpt lat="52.10206576623022556304931640625" lon="1.333457864820957183837890625">
        <ele>100.40000152587890625</ele>
        <time>2025-09-05T13:48:05.000Z</time>
        <extensions>
          <ns3:TrackPointExtension>
            <ns3:hr>176</ns3:hr>
            <ns3:cad>75</ns3:cad>
          </ns3:TrackPointExtension>
        </extensions>
      </trkpt>
      <trkpt lat="52.10208378732204437255859375" lon="1.333507485687732696533203125">
        <ele>102.40000152587890625</ele>
        <time>2025-09-05T13:48:07.000Z</time>
        <extensions>
          <ns3:TrackPointExtension>
            <ns3:hr>176</ns3:hr>
            <ns3:cad>77</ns3:cad>
          </ns3:TrackPointExtension>
        </extensions>
      </trkpt>
      <trkpt lat="52.10208068601787090301513671875" lon="1.33357026614248752593994140625">
        <ele>104.40000152587890625</ele>
        <time>2025-09-05T13:48:09.000Z</time>
        <extensions>
          <ns3:TrackPointExtension>
            <ns3:hr>176</ns3:hr>
            <ns3:cad>79</ns3:cad>
          </ns3:TrackPointExtension>
        </extensions>
      </trkpt>
      <trkpt lat="52.10208470933139324188232421875" lon="1.3335988484323024749755859375">
        <ele>105.1999969482421875</ele>
        <time>2025-09-05T13:48:10.000Z</time>
        <extensions>
          <ns3:TrackPointExtension>
            <ns3:hr>176</ns3:hr>
            <ns3:cad>79</ns3:cad>
          </ns3:TrackPointExtension>
        </extensions>
      </trkpt>
      <trkpt lat="52.10209057666361331939697265625" lon="1.333626173436641693115234375">
        <ele>106.1999969482421875</ele>
        <time>2025-09-05T13:48:11.000Z</time>
        <extensions>
          <ns3:TrackPointExtension>
            <ns3:hr>176</ns3:hr>
            <ns3:cad>79</ns3:cad>
          </ns3:TrackPointExtension>
        </extensions>
      </trkpt>
      <trkpt lat="52.1020933426916599273681640625" lon="1.33368710987269878387451171875">
        <ele>108.1999969482421875</ele>
        <time>2025-09-05T13:48:13.000Z</time>
        <extensions>
          <ns3:TrackPointExtension>
            <ns3:hr>176</ns3:hr>
            <ns3:cad>79</ns3:cad>
          </ns3:TrackPointExtension>
        </extensions>
      </trkpt>
      <trkpt lat="52.1020950190722942352294921875" lon="1.33373689837753772735595703125">
        <ele>110</ele>
        <time>2025-09-05T13:48:15.000Z</time>
        <extensions>
          <ns3:TrackPointExtension>
            <ns3:hr>175</ns3:hr>
            <ns3:cad>79</ns3:cad>
          </ns3:TrackPointExtension>
        </extensions>
      </trkpt>
      <trkpt lat="52.10208906792104244232177734375" lon="1.33378677070140838623046875">
        <ele>111.8000030517578125</ele>
        <time>2025-09-05T13:48:17.000Z</time>
        <extensions>
          <ns3:TrackPointExtension>
            <ns3:hr>174</ns3:hr>
            <ns3:cad>79</ns3:cad>
          </ns3:TrackPointExtension>
        </extensions>
      </trkpt>
      <trkpt lat="52.10207314230501651763916015625" lon="1.333832703530788421630859375">
        <ele>113.59999847412109375</ele>
        <time>2025-09-05T13:48:19.000Z</time>
        <extensions>
          <ns3:TrackPointExtension>
            <ns3:hr>174</ns3:hr>
            <ns3:cad>79</ns3:cad>
          </ns3:TrackPointExtension>
        </extensions>
      </trkpt>
      <trkpt lat="52.10205218754708766937255859375" lon="1.3338754512369632720947265625">
        <ele>115.40000152587890625</ele>
        <time>2025-09-05T13:48:21.000Z</time>
        <extensions>
          <ns3:TrackPointExtension>
            <ns3:hr>173</ns3:hr>
            <ns3:cad>79</ns3:cad>
          </ns3:TrackPointExtension>
        </extensions>
      </trkpt>
      <trkpt lat="52.10203575901687145233154296875" lon="1.333919875323772430419921875">
        <ele>117.1999969482421875</ele>
        <time>2025-09-05T13:48:23.000Z</time>
        <extensions>
          <ns3:TrackPointExtension>
            <ns3:hr>173</ns3:hr>
            <ns3:cad>79</ns3:cad>
          </ns3:TrackPointExtension>
        </extensions>
      </trkpt>
      <trkpt lat="52.10203860886394977569580078125" lon="1.33393538184463977813720703125">
        <ele>118</ele>
        <time>2025-09-05T13:48:24.000Z</time>
        <extensions>
          <ns3:TrackPointExtension>
            <ns3:hr>173</ns3:hr>
            <ns3:cad>79</ns3:cad>
          </ns3:TrackPointExtension>
        </extensions>
      </trkpt>
      <trkpt lat="52.10204347036778926849365234375" lon="1.33395818062126636505126953125">
        <ele>118.8000030517578125</ele>
        <time>2025-09-05T13:48:25.000Z</time>
        <extensions>
          <ns3:TrackPointExtension>
            <ns3:hr>174</ns3:hr>
            <ns3:cad>79</ns3:cad>
          </ns3:TrackPointExtension>
        </extensions>
      </trkpt>
      <trkpt lat="52.10205369628965854644775390625" lon="1.33400528691709041595458984375">
        <ele>120.59999847412109375</ele>
        <time>2025-09-05T13:48:27.000Z</time>
        <extensions>
          <ns3:TrackPointExtension>
            <ns3:hr>174</ns3:hr>
            <ns3:cad>78</ns3:cad>
          </ns3:TrackPointExtension>
        </extensions>
      </trkpt>
      <trkpt lat="52.10207037627696990966796875" lon="1.33405029773712158203125">
        <ele>122.1999969482421875</ele>
        <time>2025-09-05T13:48:29.000Z</time>
        <extensions>
          <ns3:TrackPointExtension>
            <ns3:hr>174</ns3:hr>
            <ns3:cad>78</ns3:cad>
          </ns3:TrackPointExtension>
        </extensions>
      </trkpt>
      <trkpt lat="52.1020789258182048797607421875" lon="1.3340699113905429840087890625">
        <ele>123</ele>
        <time>2025-09-05T13:48:30.000Z</time>
        <extensions>
          <ns3:TrackPointExtension>
            <ns3:hr>174</ns3:hr>
            <ns3:cad>79</ns3:cad>
          </ns3:TrackPointExtension>
        </extensions>
      </trkpt>
      <trkpt lat="52.10208739154040813446044921875" lon="1.3340896926820278167724609375">
        <ele>123.8000030517578125</ele>
        <time>2025-09-05T13:48:31.000Z</time>
        <extensions>
          <ns3:TrackPointExtension>
            <ns3:hr>174</ns3:hr>
            <ns3:cad>79</ns3:cad>
          </ns3:TrackPointExtension>
        </extensions>
      </trkpt>
      <trkpt lat="52.10210868157446384429931640625" lon="1.33413218893110752105712890625">
        <ele>125.59999847412109375</ele>
        <time>2025-09-05T13:48:33.000Z</time>
        <extensions>
          <ns3:TrackPointExtension>
            <ns3:hr>173</ns3:hr>
            <ns3:cad>79</ns3:cad>
          </ns3:TrackPointExtension>
        </extensions>
      </trkpt>
      <trkpt lat="52.10213474929332733154296875" lon="1.3341681472957134246826171875">
        <ele>127.1999969482421875</ele>
        <time>2025-09-05T13:48:35.000Z</time>
        <extensions>
          <ns3:TrackPointExtension>
            <ns3:hr>173</ns3:hr>
            <ns3:cad>79</ns3:cad>
          </ns3:TrackPointExtension>
        </extensions>
      </trkpt>
      <trkpt lat="52.10216634906828403472900390625" lon="1.33420963771641254425048828125">
        <ele>128.8000030517578125</ele>
        <time>2025-09-05T13:48:37.000Z</time>
        <extensions>
          <ns3:TrackPointExtension>
            <ns3:hr>173</ns3:hr>
            <ns3:cad>79</ns3:cad>
          </ns3:TrackPointExtension>
        </extensions>
      </trkpt>
      <trkpt lat="52.102181352674961090087890625" lon="1.33423344232141971588134765625">
        <ele>129.8000030517578125</ele>
        <time>2025-09-05T13:48:38.000Z</time>
        <extensions>
          <ns3:TrackPointExtension>
            <ns3:hr>173</ns3:hr>
            <ns3:cad>79</ns3:cad>
          </ns3:TrackPointExtension>
        </extensions>
      </trkpt>
      <trkpt lat="52.10219199769198894500732421875" lon="1.33425741456449031829833984375">
        <ele>130.600006103515625</ele>
        <time>2025-09-05T13:48:39.000Z</time>
        <extensions>
          <ns3:TrackPointExtension>
            <ns3:hr>173</ns3:hr>
            <ns3:cad>79</ns3:cad>
          </ns3:TrackPointExtension>
        </extensions>
      </trkpt>
      <trkpt lat="52.10221764631569385528564453125" lon="1.334311477839946746826171875">
        <ele>132.1999969482421875</ele>
        <time>2025-09-05T13:48:41.000Z</time>
        <extensions>
          <ns3:TrackPointExtension>
            <ns3:hr>173</ns3:hr>
            <ns3:cad>79</ns3:cad>
          </ns3:TrackPointExtension>
        </extensions>
      </trkpt>
      <trkpt lat="52.1022334881126880645751953125" lon="1.33437375538051128387451171875">
        <ele>133.8000030517578125</ele>
        <time>2025-09-05T13:48:43.000Z</time>
        <extensions>
          <ns3:TrackPointExtension>
            <ns3:hr>174</ns3:hr>
            <ns3:cad>80</ns3:cad>
          </ns3:TrackPointExtension>
        </extensions>
      </trkpt>
      <trkpt lat="52.10224128328263759613037109375" lon="1.33440434932708740234375">
        <ele>134.600006103515625</ele>
        <time>2025-09-05T13:48:44.000Z</time>
        <extensions>
          <ns3:TrackPointExtension>
            <ns3:hr>174</ns3:hr>
            <ns3:cad>80</ns3:cad>
          </ns3:TrackPointExtension>
        </extensions>
      </trkpt>
      <trkpt lat="52.10224798880517482757568359375" lon="1.33443578146398067474365234375">
        <ele>135.399993896484375</ele>
        <time>2025-09-05T13:48:45.000Z</time>
        <extensions>
          <ns3:TrackPointExtension>
            <ns3:hr>174</ns3:hr>
            <ns3:cad>80</ns3:cad>
          </ns3:TrackPointExtension>
        </extensions>
      </trkpt>
      <trkpt lat="52.102263830602169036865234375" lon="1.33449428714811801910400390625">
        <ele>137.1999969482421875</ele>
        <time>2025-09-05T13:48:47.000Z</time>
        <extensions>
          <ns3:TrackPointExtension>
            <ns3:hr>174</ns3:hr>
            <ns3:cad>80</ns3:cad>
          </ns3:TrackPointExtension>
        </extensions>
      </trkpt>
      <trkpt lat="52.1022764034569263458251953125" lon="1.3345480151474475860595703125">
        <ele>138.8000030517578125</ele>
        <time>2025-09-05T13:48:49.000Z</time>
        <extensions>
          <ns3:TrackPointExtension>
            <ns3:hr>174</ns3:hr>
            <ns3:cad>81</ns3:cad>
          </ns3:TrackPointExtension>
        </extensions>
      </trkpt>
      <trkpt lat="52.10229392163455486297607421875" lon="1.33460610173642635345458984375">
        <ele>140.1999969482421875</ele>
        <time>2025-09-05T13:48:51.000Z</time>
        <extensions>
          <ns3:TrackPointExtension>
            <ns3:hr>173</ns3:hr>
            <ns3:cad>79</ns3:cad>
          </ns3:TrackPointExtension>
        </extensions>
      </trkpt>
      <trkpt lat="52.102304063737392425537109375" lon="1.33464046753942966461181640625">
        <ele>141</ele>
        <time>2025-09-05T13:48:52.000Z</time>
        <extensions>
          <ns3:TrackPointExtension>
            <ns3:hr>172</ns3:hr>
            <ns3:cad>79</ns3:cad>
          </ns3:TrackPointExtension>
        </extensions>
      </trkpt>
      <trkpt lat="52.1023163013160228729248046875" lon="1.3346744142472743988037109375">
        <ele>142</ele>
        <time>2025-09-05T13:48:53.000Z</time>
        <extensions>
          <ns3:TrackPointExtension>
            <ns3:hr>172</ns3:hr>
            <ns3:cad>79</ns3:cad>
          </ns3:TrackPointExtension>
        </extensions>
      </trkpt>
      <trkpt lat="52.10233113728463649749755859375" lon="1.33474322967231273651123046875">
        <ele>143.600006103515625</ele>
        <time>2025-09-05T13:48:55.000Z</time>
        <extensions>
          <ns3:TrackPointExtension>
            <ns3:hr>171</ns3:hr>
            <ns3:cad>79</ns3:cad>
          </ns3:TrackPointExtension>
        </extensions>
      </trkpt>
      <trkpt lat="52.102336920797824859619140625" lon="1.33482419885694980621337890625">
        <ele>145.399993896484375</ele>
        <time>2025-09-05T13:48:57.000Z</time>
        <extensions>
          <ns3:TrackPointExtension>
            <ns3:hr>171</ns3:hr>
            <ns3:cad>79</ns3:cad>
          </ns3:TrackPointExtension>
        </extensions>
      </trkpt>
      <trkpt lat="52.10234723053872585296630859375" lon="1.3349050842225551605224609375">
        <ele>147.1999969482421875</ele>
        <time>2025-09-05T13:48:59.000Z</time>
        <extensions>
          <ns3:TrackPointExtension>
            <ns3:hr>171</ns3:hr>
            <ns3:cad>80</ns3:cad>
          </ns3:TrackPointExtension>
        </extensions>
      </trkpt>
      <trkpt lat="52.10235879756510257720947265625" lon="1.33498278446495532989501953125">
        <ele>149</ele>
        <time>2025-09-05T13:49:01.000Z</time>
        <extensions>
          <ns3:TrackPointExtension>
            <ns3:hr>170</ns3:hr>
            <ns3:cad>79</ns3:cad>
          </ns3:TrackPointExtension>
        </extensions>
      </trkpt>
      <trkpt lat="52.1023592166602611541748046875" lon="1.33505419827997684478759765625">
        <ele>150.8000030517578125</ele>
        <time>2025-09-05T13:49:03.000Z</time>
        <extensions>
          <ns3:TrackPointExtension>
            <ns3:hr>171</ns3:hr>
            <ns3:cad>79</ns3:cad>
          </ns3:TrackPointExtension>
        </extensions>
      </trkpt>
      <trkpt lat="52.10235712118446826934814453125" lon="1.33512527681887149810791015625">
        <ele>152.399993896484375</ele>
        <time>2025-09-05T13:49:05.000Z</time>
        <extensions>
          <ns3:TrackPointExtension>
            <ns3:hr>172</ns3:hr>
            <ns3:cad>80</ns3:cad>
          </ns3:TrackPointExtension>
        </extensions>
      </trkpt>
      <trkpt lat="52.1023675985634326934814453125" lon="1.335195600986480712890625">
        <ele>154.1999969482421875</ele>
        <time>2025-09-05T13:49:07.000Z</time>
        <extensions>
          <ns3:TrackPointExtension>
            <ns3:hr>175</ns3:hr>
            <ns3:cad>80</ns3:cad>
          </ns3:TrackPointExtension>
        </extensions>
      </trkpt>
      <trkpt lat="52.10238897241652011871337890625" lon="1.33525938726961612701416015625">
        <ele>155.8000030517578125</ele>
        <time>2025-09-05T13:49:09.000Z</time>
        <extensions>
          <ns3:TrackPointExtension>
            <ns3:hr>175</ns3:hr>
            <ns3:cad>80</ns3:cad>
          </ns3:TrackPointExtension>
        </extensions>
      </trkpt>
      <trkpt lat="52.10241629742085933685302734375" lon="1.33532912470400333404541015625">
        <ele>157.399993896484375</ele>
        <time>2025-09-05T13:49:11.000Z</time>
        <extensions>
          <ns3:TrackPointExtension>
            <ns3:hr>177</ns3:hr>
            <ns3:cad>80</ns3:cad>
          </ns3:TrackPointExtension>
        </extensions>
      </trkpt>
      <trkpt lat="52.1024339832365512847900390625" lon="1.3353915698826313018798828125">
        <ele>159</ele>
        <time>2025-09-05T13:49:13.000Z</time>
        <extensions>
          <ns3:TrackPointExtension>
            <ns3:hr>177</ns3:hr>
            <ns3:cad>80</ns3:cad>
          </ns3:TrackPointExtension>
        </extensions>
      </trkpt>
      <trkpt lat="52.1024396829307079315185546875" lon="1.335420571267604827880859375">
        <ele>158</ele>
        <time>2025-09-05T13:49:14.000Z</time>
        <extensions>
          <ns3:TrackPointExtension>
            <ns3:hr>177</ns3:hr>
            <ns3:cad>80</ns3:cad>
          </ns3:TrackPointExtension>
        </extensions>
      </trkpt>
      <trkpt lat="52.10244722664356231689453125" lon="1.33545049466192722320556640625">
        <ele>157</ele>
        <time>2025-09-05T13:49:15.000Z</time>
        <extensions>
          <ns3:TrackPointExtension>
            <ns3:hr>177</ns3:hr>
            <ns3:cad>80</ns3:cad>
          </ns3:TrackPointExtension>
        </extensions>
      </trkpt>
      <trkpt lat="52.1024544350802898406982421875" lon="1.33547547273337841033935546875">
        <ele>156</ele>
        <time>2025-09-05T13:49:16.000Z</time>
        <extensions>
          <ns3:TrackPointExtension>
            <ns3:hr>177</ns3:hr>
            <ns3:cad>80</ns3:cad>
          </ns3:TrackPointExtension>
        </extensions>
      </trkpt>
      <trkpt lat="52.10245753638446331024169921875" lon="1.33553867228329181671142578125">
        <ele>154</ele>
        <time>2025-09-05T13:49:18.000Z</time>
        <extensions>
          <ns3:TrackPointExtension>
            <ns3:hr>177</ns3:hr>
            <ns3:cad>80</ns3:cad>
          </ns3:TrackPointExtension>
        </extensions>
      </trkpt>
      <trkpt lat="52.1024654991924762725830078125" lon="1.33560019545257091522216796875">
        <ele>152</ele>
        <time>2025-09-05T13:49:20.000Z</time>
        <extensions>
          <ns3:TrackPointExtension>
            <ns3:hr>177</ns3:hr>
            <ns3:cad>80</ns3:cad>
          </ns3:TrackPointExtension>
        </extensions>
      </trkpt>
      <trkpt lat="52.1024695225059986114501953125" lon="1.33563238196074962615966796875">
        <ele>151</ele>
        <time>2025-09-05T13:49:21.000Z</time>
        <extensions>
          <ns3:TrackPointExtension>
            <ns3:hr>177</ns3:hr>
            <ns3:cad>80</ns3:cad>
          </ns3:TrackPointExtension>
        </extensions>
      </trkpt>
      <trkpt lat="52.1024752222001552581787109375" lon="1.3356634788215160369873046875">
        <ele>150.1999969482421875</ele>
        <time>2025-09-05T13:49:22.000Z</time>
        <extensions>
          <ns3:TrackPointExtension>
            <ns3:hr>176</ns3:hr>
            <ns3:cad>80</ns3:cad>
          </ns3:TrackPointExtension>
        </extensions>
      </trkpt>
      <trkpt lat="52.1024836041033267974853515625" lon="1.3357241638004779815673828125">
        <ele>148.1999969482421875</ele>
        <time>2025-09-05T13:49:24.000Z</time>
        <extensions>
          <ns3:TrackPointExtension>
            <ns3:hr>176</ns3:hr>
            <ns3:cad>80</ns3:cad>
          </ns3:TrackPointExtension>
        </extensions>
      </trkpt>
      <trkpt lat="52.102489471435546875" lon="1.335788704454898834228515625">
        <ele>146.600006103515625</ele>
        <time>2025-09-05T13:49:26.000Z</time>
        <extensions>
          <ns3:TrackPointExtension>
            <ns3:hr>176</ns3:hr>
            <ns3:cad>80</ns3:cad>
          </ns3:TrackPointExtension>
        </extensions>
      </trkpt>
      <trkpt lat="52.1024980209767818450927734375" lon="1.33585601113736629486083984375">
        <ele>144.8000030517578125</ele>
        <time>2025-09-05T13:49:28.000Z</time>
        <extensions>
          <ns3:TrackPointExtension>
            <ns3:hr>176</ns3:hr>
            <ns3:cad>80</ns3:cad>
          </ns3:TrackPointExtension>
        </extensions>
      </trkpt>
      <trkpt lat="52.102506570518016815185546875" lon="1.3358907960355281829833984375">
        <ele>144</ele>
        <time>2025-09-05T13:49:29.000Z</time>
        <extensions>
          <ns3:TrackPointExtension>
            <ns3:hr>176</ns3:hr>
            <ns3:cad>80</ns3:cad>
          </ns3:TrackPointExtension>
        </extensions>
      </trkpt>
      <trkpt lat="52.10251168347895145416259765625" lon="1.33592591620981693267822265625">
        <ele>143.399993896484375</ele>
        <time>2025-09-05T13:49:30.000Z</time>
        <extensions>
          <ns3:TrackPointExtension>
            <ns3:hr>176</ns3:hr>
            <ns3:cad>80</ns3:cad>
          </ns3:TrackPointExtension>
        </extensions>
      </trkpt>
      <trkpt lat="52.10252576507627964019775390625" lon="1.33598676882684230804443359375">
        <ele>142</ele>
        <time>2025-09-05T13:49:32.000Z</time>
        <extensions>
          <ns3:TrackPointExtension>
            <ns3:hr>176</ns3:hr>
            <ns3:cad>80</ns3:cad>
          </ns3:TrackPointExtension>
        </extensions>
      </trkpt>
      <trkpt lat="52.1025382541120052337646484375" lon="1.33604879491031169891357421875">
        <ele>140.600006103515625</ele>
        <time>2025-09-05T13:49:34.000Z</time>
        <extensions>
          <ns3:TrackPointExtension>
            <ns3:hr>176</ns3:hr>
            <ns3:cad>80</ns3:cad>
          </ns3:TrackPointExtension>
        </extensions>
      </trkpt>
      <trkpt lat="52.10254336707293987274169921875" lon="1.33610160090029239654541015625">
        <ele>139.399993896484375</ele>
        <time>2025-09-05T13:49:36.000Z</time>
        <extensions>
          <ns3:TrackPointExtension>
            <ns3:hr>177</ns3:hr>
            <ns3:cad>80</ns3:cad>
          </ns3:TrackPointExtension>
        </extensions>
      </trkpt>
      <trkpt lat="52.10254621692001819610595703125" lon="1.33616245351731777191162109375">
        <ele>138.399993896484375</ele>
        <time>2025-09-05T13:49:38.000Z</time>
        <extensions>
          <ns3:TrackPointExtension>
            <ns3:hr>174</ns3:hr>
            <ns3:cad>79</ns3:cad>
          </ns3:TrackPointExtension>
        </extensions>
      </trkpt>
      <trkpt lat="52.1025573648512363433837890625" lon="1.3362619467079639434814453125">
        <ele>137</ele>
        <time>2025-09-05T13:49:41.000Z</time>
        <extensions>
          <ns3:TrackPointExtension>
            <ns3:hr>176</ns3:hr>
            <ns3:cad>80</ns3:cad>
          </ns3:TrackPointExtension>
        </extensions>
      </trkpt>
      <trkpt lat="52.10258360020816326141357421875" lon="1.33635322563350200653076171875">
        <ele>135.8000030517578125</ele>
        <time>2025-09-05T13:49:44.000Z</time>
        <extensions>
          <ns3:TrackPointExtension>
            <ns3:hr>175</ns3:hr>
            <ns3:cad>80</ns3:cad>
          </ns3:TrackPointExtension>
        </extensions>
      </trkpt>
      <trkpt lat="52.1026056446135044097900390625" lon="1.33640460669994354248046875">
        <ele>135.1999969482421875</ele>
        <time>2025-09-05T13:49:46.000Z</time>
        <extensions>
          <ns3:TrackPointExtension>
            <ns3:hr>175</ns3:hr>
            <ns3:cad>80</ns3:cad>
          </ns3:TrackPointExtension>
        </extensions>
      </trkpt>
      <trkpt lat="52.10262634791433811187744140625" lon="1.3364473544061183929443359375">
        <ele>134.600006103515625</ele>
        <time>2025-09-05T13:49:48.000Z</time>
        <extensions>
          <ns3:TrackPointExtension>
            <ns3:hr>175</ns3:hr>
            <ns3:cad>79</ns3:cad>
          </ns3:TrackPointExtension>
        </extensions>
      </trkpt>
      <trkpt lat="52.1026908047497272491455078125" lon="1.33649806492030620574951171875">
        <ele>133.399993896484375</ele>
        <time>2025-09-05T13:49:52.000Z</time>
        <extensions>
          <ns3:TrackPointExtension>
            <ns3:hr>175</ns3:hr>
            <ns3:cad>80</ns3:cad>
          </ns3:TrackPointExtension>
        </extensions>
      </trkpt>
      <trkpt lat="52.10271100513637065887451171875" lon="1.33650359697639942169189453125">
        <ele>133.1999969482421875</ele>
        <time>2025-09-05T13:49:53.000Z</time>
        <extensions>
          <ns3:TrackPointExtension>
            <ns3:hr>175</ns3:hr>
            <ns3:cad>80</ns3:cad>
          </ns3:TrackPointExtension>
        </extensions>
      </trkpt>
      <trkpt lat="52.1028074808418750762939453125" lon="1.33649789728224277496337890625">
        <ele>132.399993896484375</ele>
        <time>2025-09-05T13:49:57.000Z</time>
        <extensions>
          <ns3:TrackPointExtension>
            <ns3:hr>175</ns3:hr>
            <ns3:cad>80</ns3:cad>
          </ns3:TrackPointExtension>
        </extensions>
      </trkpt>
      <trkpt lat="52.10285735316574573516845703125" lon="1.3364845700562000274658203125">
        <ele>132.1999969482421875</ele>
        <time>2025-09-05T13:49:59.000Z</time>
        <extensions>
          <ns3:TrackPointExtension>
            <ns3:hr>175</ns3:hr>
            <ns3:cad>79</ns3:cad>
          </ns3:TrackPointExtension>
        </extensions>
      </trkpt>
      <trkpt lat="52.10304401814937591552734375" lon="1.33638390339910984039306640625">
        <ele>132.399993896484375</ele>
        <time>2025-09-05T13:50:07.000Z</time>
        <extensions>
          <ns3:TrackPointExtension>
            <ns3:hr>176</ns3:hr>
            <ns3:cad>80</ns3:cad>
          </ns3:TrackPointExtension>
        </extensions>
      </trkpt>
      <trkpt lat="52.103154659271240234375" lon="1.33637619204819202423095703125">
        <ele>133.1999969482421875</ele>
        <time>2025-09-05T13:50:13.000Z</time>
        <extensions>
          <ns3:TrackPointExtension>
            <ns3:hr>174</ns3:hr>
            <ns3:cad>78</ns3:cad>
          </ns3:TrackPointExtension>
        </extensions>
      </trkpt>
      <trkpt lat="52.1031816489994525909423828125" lon="1.3364061154425144195556640625">
        <ele>133.600006103515625</ele>
        <time>2025-09-05T13:50:15.000Z</time>
        <extensions>
          <ns3:TrackPointExtension>
            <ns3:hr>174</ns3:hr>
            <ns3:cad>77</ns3:cad>
          </ns3:TrackPointExtension>
        </extensions>
      </trkpt>
      <trkpt lat="52.10329840891063213348388671875" lon="1.33647627197206020355224609375">
        <ele>134.399993896484375</ele>
        <time>2025-09-05T13:50:21.000Z</time>
        <extensions>
          <ns3:TrackPointExtension>
            <ns3:hr>173</ns3:hr>
            <ns3:cad>78</ns3:cad>
          </ns3:TrackPointExtension>
        </extensions>
      </trkpt>
      <trkpt lat="52.1033155918121337890625" lon="1.33648934774100780487060546875">
        <ele>134.600006103515625</ele>
        <time>2025-09-05T13:50:22.000Z</time>
        <extensions>
          <ns3:TrackPointExtension>
            <ns3:hr>173</ns3:hr>
            <ns3:cad>79</ns3:cad>
          </ns3:TrackPointExtension>
        </extensions>
      </trkpt>
      <trkpt lat="52.103419192135334014892578125" lon="1.33656411431729793548583984375">
        <ele>135.600006103515625</ele>
        <time>2025-09-05T13:50:28.000Z</time>
        <extensions>
          <ns3:TrackPointExtension>
            <ns3:hr>176</ns3:hr>
            <ns3:cad>80</ns3:cad>
          </ns3:TrackPointExtension>
        </extensions>
      </trkpt>
      <trkpt lat="52.10343151353299617767333984375" lon="1.33657417260110378265380859375">
        <ele>135.600006103515625</ele>
        <time>2025-09-05T13:50:29.000Z</time>
        <extensions>
          <ns3:TrackPointExtension>
            <ns3:hr>175</ns3:hr>
            <ns3:cad>79</ns3:cad>
          </ns3:TrackPointExtension>
        </extensions>
      </trkpt>
      <trkpt lat="52.10347342304885387420654296875" lon="1.33661516010761260986328125">
        <ele>136.1999969482421875</ele>
        <time>2025-09-05T13:50:32.000Z</time>
        <extensions>
          <ns3:TrackPointExtension>
            <ns3:hr>172</ns3:hr>
            <ns3:cad>79</ns3:cad>
          </ns3:TrackPointExtension>
        </extensions>
      </trkpt>
      <trkpt lat="52.1035041846334934234619140625" lon="1.33664491586387157440185546875">
        <ele>137</ele>
        <time>2025-09-05T13:50:34.000Z</time>
        <extensions>
          <ns3:TrackPointExtension>
            <ns3:hr>172</ns3:hr>
            <ns3:cad>80</ns3:cad>
          </ns3:TrackPointExtension>
        </extensions>
      </trkpt>
      <trkpt lat="52.10353293456137180328369140625" lon="1.33669118396937847137451171875">
        <ele>137.8000030517578125</ele>
        <time>2025-09-05T13:50:36.000Z</time>
        <extensions>
          <ns3:TrackPointExtension>
            <ns3:hr>173</ns3:hr>
            <ns3:cad>80</ns3:cad>
          </ns3:TrackPointExtension>
        </extensions>
      </trkpt>
      <trkpt lat="52.1035504527390003204345703125" lon="1.336716748774051666259765625">
        <ele>138.399993896484375</ele>
        <time>2025-09-05T13:50:37.000Z</time>
        <extensions>
          <ns3:TrackPointExtension>
            <ns3:hr>174</ns3:hr>
            <ns3:cad>80</ns3:cad>
          </ns3:TrackPointExtension>
        </extensions>
      </trkpt>
      <trkpt lat="52.10358775220811367034912109375" lon="1.33676947094500064849853515625">
        <ele>139.600006103515625</ele>
        <time>2025-09-05T13:50:39.000Z</time>
        <extensions>
          <ns3:TrackPointExtension>
            <ns3:hr>172</ns3:hr>
            <ns3:cad>81</ns3:cad>
          </ns3:TrackPointExtension>
        </extensions>
      </trkpt>
      <trkpt lat="52.103623040020465850830078125" lon="1.33682261221110820770263671875">
        <ele>141</ele>
        <time>2025-09-05T13:50:41.000Z</time>
        <extensions>
          <ns3:TrackPointExtension>
            <ns3:hr>173</ns3:hr>
            <ns3:cad>81</ns3:cad>
          </ns3:TrackPointExtension>
        </extensions>
      </trkpt>
      <trkpt lat="52.10366033948957920074462890625" lon="1.33687977679073810577392578125">
        <ele>142.600006103515625</ele>
        <time>2025-09-05T13:50:43.000Z</time>
        <extensions>
          <ns3:TrackPointExtension>
            <ns3:hr>173</ns3:hr>
            <ns3:cad>81</ns3:cad>
          </ns3:TrackPointExtension>
        </extensions>
      </trkpt>
      <trkpt lat="52.10370057262480258941650390625" lon="1.336940042674541473388671875">
        <ele>144.1999969482421875</ele>
        <time>2025-09-05T13:50:45.000Z</time>
        <extensions>
          <ns3:TrackPointExtension>
            <ns3:hr>173</ns3:hr>
            <ns3:cad>80</ns3:cad>
          </ns3:TrackPointExtension>
        </extensions>
      </trkpt>
      <trkpt lat="52.10372689180076122283935546875" lon="1.33700667880475521087646484375">
        <ele>145.600006103515625</ele>
        <time>2025-09-05T13:50:47.000Z</time>
        <extensions>
          <ns3:TrackPointExtension>
            <ns3:hr>172</ns3:hr>
            <ns3:cad>80</ns3:cad>
          </ns3:TrackPointExtension>
        </extensions>
      </trkpt>
      <trkpt lat="52.1037380397319793701171875" lon="1.3370744884014129638671875">
        <ele>147</ele>
        <time>2025-09-05T13:50:49.000Z</time>
        <extensions>
          <ns3:TrackPointExtension>
            <ns3:hr>173</ns3:hr>
            <ns3:cad>80</ns3:cad>
          </ns3:TrackPointExtension>
        </extensions>
      </trkpt>
      <trkpt lat="52.103743739426136016845703125" lon="1.3371078483760356903076171875">
        <ele>147.8000030517578125</ele>
        <time>2025-09-05T13:50:50.000Z</time>
        <extensions>
          <ns3:TrackPointExtension>
            <ns3:hr>173</ns3:hr>
            <ns3:cad>80</ns3:cad>
          </ns3:TrackPointExtension>
        </extensions>
      </trkpt>
      <trkpt lat="52.10374935530126094818115234375" lon="1.33714062161743640899658203125">
        <ele>148.600006103515625</ele>
        <time>2025-09-05T13:50:51.000Z</time>
        <extensions>
          <ns3:TrackPointExtension>
            <ns3:hr>173</ns3:hr>
            <ns3:cad>80</ns3:cad>
          </ns3:TrackPointExtension>
        </extensions>
      </trkpt>
      <trkpt lat="52.103754468262195587158203125" lon="1.337206922471523284912109375">
        <ele>150</ele>
        <time>2025-09-05T13:50:53.000Z</time>
        <extensions>
          <ns3:TrackPointExtension>
            <ns3:hr>173</ns3:hr>
            <ns3:cad>79</ns3:cad>
          </ns3:TrackPointExtension>
        </extensions>
      </trkpt>
      <trkpt lat="52.10375756956636905670166015625" lon="1.33727406151592731475830078125">
        <ele>151.399993896484375</ele>
        <time>2025-09-05T13:50:55.000Z</time>
        <extensions>
          <ns3:TrackPointExtension>
            <ns3:hr>173</ns3:hr>
            <ns3:cad>79</ns3:cad>
          </ns3:TrackPointExtension>
        </extensions>
      </trkpt>
      <trkpt lat="52.10376108996570110321044921875" lon="1.33734396658837795257568359375">
        <ele>152.600006103515625</ele>
        <time>2025-09-05T13:50:57.000Z</time>
        <extensions>
          <ns3:TrackPointExtension>
            <ns3:hr>173</ns3:hr>
            <ns3:cad>79</ns3:cad>
          </ns3:TrackPointExtension>
        </extensions>
      </trkpt>
      <trkpt lat="52.10376326926052570343017578125" lon="1.3374163024127483367919921875">
        <ele>154</ele>
        <time>2025-09-05T13:50:59.000Z</time>
        <extensions>
          <ns3:TrackPointExtension>
            <ns3:hr>173</ns3:hr>
            <ns3:cad>79</ns3:cad>
          </ns3:TrackPointExtension>
        </extensions>
      </trkpt>
      <trkpt lat="52.1037589944899082183837890625" lon="1.3374877162277698516845703125">
        <ele>155.399993896484375</ele>
        <time>2025-09-05T13:51:01.000Z</time>
        <extensions>
          <ns3:TrackPointExtension>
            <ns3:hr>172</ns3:hr>
            <ns3:cad>80</ns3:cad>
          </ns3:TrackPointExtension>
        </extensions>
      </trkpt>
      <trkpt lat="52.1037568151950836181640625" lon="1.33755451999604701995849609375">
        <ele>156.600006103515625</ele>
        <time>2025-09-05T13:51:03.000Z</time>
        <extensions>
          <ns3:TrackPointExtension>
            <ns3:hr>173</ns3:hr>
            <ns3:cad>79</ns3:cad>
          </ns3:TrackPointExtension>
        </extensions>
      </trkpt>
      <trkpt lat="52.1037653647363185882568359375" lon="1.3376211561262607574462890625">
        <ele>157.8000030517578125</ele>
        <time>2025-09-05T13:51:05.000Z</time>
        <extensions>
          <ns3:TrackPointExtension>
            <ns3:hr>174</ns3:hr>
            <ns3:cad>79</ns3:cad>
          </ns3:TrackPointExtension>
        </extensions>
      </trkpt>
      <trkpt lat="52.10377634502947330474853515625" lon="1.337687708437442779541015625">
        <ele>159</ele>
        <time>2025-09-05T13:51:07.000Z</time>
        <extensions>
          <ns3:TrackPointExtension>
            <ns3:hr>173</ns3:hr>
            <ns3:cad>80</ns3:cad>
          </ns3:TrackPointExtension>
        </extensions>
      </trkpt>
      <trkpt lat="52.103783972561359405517578125" lon="1.33776121772825717926025390625">
        <ele>160.1999969482421875</ele>
        <time>2025-09-05T13:51:09.000Z</time>
        <extensions>
          <ns3:TrackPointExtension>
            <ns3:hr>173</ns3:hr>
            <ns3:cad>80</ns3:cad>
          </ns3:TrackPointExtension>
        </extensions>
      </trkpt>
      <trkpt lat="52.103790678083896636962890625" lon="1.33782885968685150146484375">
        <ele>161.399993896484375</ele>
        <time>2025-09-05T13:51:11.000Z</time>
        <extensions>
          <ns3:TrackPointExtension>
            <ns3:hr>173</ns3:hr>
            <ns3:cad>80</ns3:cad>
          </ns3:TrackPointExtension>
        </extensions>
      </trkpt>
      <trkpt lat="52.10379662923514842987060546875" lon="1.33789859712123870849609375">
        <ele>162.600006103515625</ele>
        <time>2025-09-05T13:51:13.000Z</time>
        <extensions>
          <ns3:TrackPointExtension>
            <ns3:hr>174</ns3:hr>
            <ns3:cad>80</ns3:cad>
          </ns3:TrackPointExtension>
        </extensions>
      </trkpt>
      <trkpt lat="52.10379931144416332244873046875" lon="1.337930448353290557861328125">
        <ele>163</ele>
        <time>2025-09-05T13:51:14.000Z</time>
        <extensions>
          <ns3:TrackPointExtension>
            <ns3:hr>174</ns3:hr>
            <ns3:cad>80</ns3:cad>
          </ns3:TrackPointExtension>
        </extensions>
      </trkpt>
      <trkpt lat="52.1038002334535121917724609375" lon="1.337962634861469268798828125">
        <ele>163.600006103515625</ele>
        <time>2025-09-05T13:51:15.000Z</time>
        <extensions>
          <ns3:TrackPointExtension>
            <ns3:hr>174</ns3:hr>
            <ns3:cad>79</ns3:cad>
          </ns3:TrackPointExtension>
        </extensions>
      </trkpt>
      <trkpt lat="52.103805430233478546142578125" lon="1.33802005089819431304931640625">
        <ele>164.8000030517578125</ele>
        <time>2025-09-05T13:51:17.000Z</time>
        <extensions>
          <ns3:TrackPointExtension>
            <ns3:hr>175</ns3:hr>
            <ns3:cad>79</ns3:cad>
          </ns3:TrackPointExtension>
        </extensions>
      </trkpt>
      <trkpt lat="52.103811465203762054443359375" lon="1.338079981505870819091796875">
        <ele>165.8000030517578125</ele>
        <time>2025-09-05T13:51:19.000Z</time>
        <extensions>
          <ns3:TrackPointExtension>
            <ns3:hr>175</ns3:hr>
            <ns3:cad>79</ns3:cad>
          </ns3:TrackPointExtension>
        </extensions>
      </trkpt>
      <trkpt lat="52.10380953736603260040283203125" lon="1.33813806809484958648681640625">
        <ele>167</ele>
        <time>2025-09-05T13:51:21.000Z</time>
        <extensions>
          <ns3:TrackPointExtension>
            <ns3:hr>175</ns3:hr>
            <ns3:cad>79</ns3:cad>
          </ns3:TrackPointExtension>
        </extensions>
      </trkpt>
      <trkpt lat="52.103808112442493438720703125" lon="1.3381643034517765045166015625">
        <ele>167.600006103515625</ele>
        <time>2025-09-05T13:51:22.000Z</time>
        <extensions>
          <ns3:TrackPointExtension>
            <ns3:hr>174</ns3:hr>
            <ns3:cad>79</ns3:cad>
          </ns3:TrackPointExtension>
        </extensions>
      </trkpt>
      <trkpt lat="52.10380819626152515411376953125" lon="1.3381902873516082763671875">
        <ele>168</ele>
        <time>2025-09-05T13:51:23.000Z</time>
        <extensions>
          <ns3:TrackPointExtension>
            <ns3:hr>174</ns3:hr>
            <ns3:cad>79</ns3:cad>
          </ns3:TrackPointExtension>
        </extensions>
      </trkpt>
      <trkpt lat="52.10379746742546558380126953125" lon="1.3382414169609546661376953125">
        <ele>169.1999969482421875</ele>
        <time>2025-09-05T13:51:25.000Z</time>
        <extensions>
          <ns3:TrackPointExtension>
            <ns3:hr>174</ns3:hr>
            <ns3:cad>80</ns3:cad>
          </ns3:TrackPointExtension>
        </extensions>
      </trkpt>
      <trkpt lat="52.103786654770374298095703125" lon="1.33827947080135345458984375">
        <ele>170.1999969482421875</ele>
        <time>2025-09-05T13:51:27.000Z</time>
        <extensions>
          <ns3:TrackPointExtension>
            <ns3:hr>174</ns3:hr>
            <ns3:cad>79</ns3:cad>
          </ns3:TrackPointExtension>
        </extensions>
      </trkpt>
      <trkpt lat="52.10377517156302928924560546875" lon="1.33832104504108428955078125">
        <ele>171.399993896484375</ele>
        <time>2025-09-05T13:51:29.000Z</time>
        <extensions>
          <ns3:TrackPointExtension>
            <ns3:hr>173</ns3:hr>
            <ns3:cad>79</ns3:cad>
          </ns3:TrackPointExtension>
        </extensions>
      </trkpt>
      <trkpt lat="52.10374767892062664031982421875" lon="1.3383527286350727081298828125">
        <ele>172.399993896484375</ele>
        <time>2025-09-05T13:51:31.000Z</time>
        <extensions>
          <ns3:TrackPointExtension>
            <ns3:hr>173</ns3:hr>
            <ns3:cad>79</ns3:cad>
          </ns3:TrackPointExtension>
        </extensions>
      </trkpt>
      <trkpt lat="52.10371096618473529815673828125" lon="1.33838885463774204254150390625">
        <ele>173.399993896484375</ele>
        <time>2025-09-05T13:51:33.000Z</time>
        <extensions>
          <ns3:TrackPointExtension>
            <ns3:hr>174</ns3:hr>
            <ns3:cad>79</ns3:cad>
          </ns3:TrackPointExtension>
        </extensions>
      </trkpt>
      <trkpt lat="52.10367525927722454071044921875" lon="1.33842623792588710784912109375">
        <ele>174.399993896484375</ele>
        <time>2025-09-05T13:51:35.000Z</time>
        <extensions>
          <ns3:TrackPointExtension>
            <ns3:hr>173</ns3:hr>
            <ns3:cad>79</ns3:cad>
          </ns3:TrackPointExtension>
        </extensions>
      </trkpt>
      <trkpt lat="52.10363804362714290618896484375" lon="1.3384546525776386260986328125">
        <ele>175.399993896484375</ele>
        <time>2025-09-05T13:51:37.000Z</time>
        <extensions>
          <ns3:TrackPointExtension>
            <ns3:hr>175</ns3:hr>
            <ns3:cad>79</ns3:cad>
          </ns3:TrackPointExtension>
        </extensions>
      </trkpt>
      <trkpt lat="52.10360351018607616424560546875" lon="1.33848072029650211334228515625">
        <ele>176.399993896484375</ele>
        <time>2025-09-05T13:51:39.000Z</time>
        <extensions>
          <ns3:TrackPointExtension>
            <ns3:hr>173</ns3:hr>
            <ns3:cad>79</ns3:cad>
          </ns3:TrackPointExtension>
        </extensions>
      </trkpt>
      <trkpt lat="52.10355908609926700592041015625" lon="1.3385243900120258331298828125">
        <ele>178</ele>
        <time>2025-09-05T13:51:42.000Z</time>
        <extensions>
          <ns3:TrackPointExtension>
            <ns3:hr>174</ns3:hr>
            <ns3:cad>79</ns3:cad>
          </ns3:TrackPointExtension>
        </extensions>
      </trkpt>
      <trkpt lat="52.10351214744150638580322265625" lon="1.3385683111846446990966796875">
        <ele>179.399993896484375</ele>
        <time>2025-09-05T13:51:45.000Z</time>
        <extensions>
          <ns3:TrackPointExtension>
            <ns3:hr>177</ns3:hr>
            <ns3:cad>79</ns3:cad>
          </ns3:TrackPointExtension>
        </extensions>
      </trkpt>
      <trkpt lat="52.10346956737339496612548828125" lon="1.33860862813889980316162109375">
        <ele>180.8000030517578125</ele>
        <time>2025-09-05T13:51:48.000Z</time>
        <extensions>
          <ns3:TrackPointExtension>
            <ns3:hr>177</ns3:hr>
            <ns3:cad>79</ns3:cad>
          </ns3:TrackPointExtension>
        </extensions>
      </trkpt>
      <trkpt lat="52.10341759957373142242431640625" lon="1.3386497832834720611572265625">
        <ele>182.1999969482421875</ele>
        <time>2025-09-05T13:51:51.000Z</time>
        <extensions>
          <ns3:TrackPointExtension>
            <ns3:hr>175</ns3:hr>
            <ns3:cad>80</ns3:cad>
          </ns3:TrackPointExtension>
        </extensions>
      </trkpt>
      <trkpt lat="52.10340033285319805145263671875" lon="1.33865824900567531585693359375">
        <ele>182.600006103515625</ele>
        <time>2025-09-05T13:51:52.000Z</time>
        <extensions>
          <ns3:TrackPointExtension>
            <ns3:hr>174</ns3:hr>
            <ns3:cad>79</ns3:cad>
          </ns3:TrackPointExtension>
        </extensions>
      </trkpt>
      <trkpt lat="52.10336496122181415557861328125" lon="1.338690854609012603759765625">
        <ele>183.600006103515625</ele>
        <time>2025-09-05T13:51:54.000Z</time>
        <extensions>
          <ns3:TrackPointExtension>
            <ns3:hr>174</ns3:hr>
            <ns3:cad>79</ns3:cad>
          </ns3:TrackPointExtension>
        </extensions>
      </trkpt>
      <trkpt lat="52.10334031842648983001708984375" lon="1.338717676699161529541015625">
        <ele>184</ele>
        <time>2025-09-05T13:51:55.000Z</time>
        <extensions>
          <ns3:TrackPointExtension>
            <ns3:hr>174</ns3:hr>
            <ns3:cad>79</ns3:cad>
          </ns3:TrackPointExtension>
        </extensions>
      </trkpt>
      <trkpt lat="52.1032927930355072021484375" lon="1.33876637555658817291259765625">
        <ele>185</ele>
        <time>2025-09-05T13:51:57.000Z</time>
        <extensions>
          <ns3:TrackPointExtension>
            <ns3:hr>174</ns3:hr>
            <ns3:cad>80</ns3:cad>
          </ns3:TrackPointExtension>
        </extensions>
      </trkpt>
      <trkpt lat="52.10323956795036792755126953125" lon="1.338816583156585693359375">
        <ele>185.8000030517578125</ele>
        <time>2025-09-05T13:51:59.000Z</time>
        <extensions>
          <ns3:TrackPointExtension>
            <ns3:hr>172</ns3:hr>
            <ns3:cad>80</ns3:cad>
          </ns3:TrackPointExtension>
        </extensions>
      </trkpt>
      <trkpt lat="52.10322045721113681793212890625" lon="1.33883561007678508758544921875">
        <ele>186.399993896484375</ele>
        <time>2025-09-05T13:52:00.000Z</time>
        <extensions>
          <ns3:TrackPointExtension>
            <ns3:hr>174</ns3:hr>
            <ns3:cad>79</ns3:cad>
          </ns3:TrackPointExtension>
        </extensions>
      </trkpt>
      <trkpt lat="52.10316178388893604278564453125" lon="1.33889310993254184722900390625">
        <ele>187.600006103515625</ele>
        <time>2025-09-05T13:52:03.000Z</time>
        <extensions>
          <ns3:TrackPointExtension>
            <ns3:hr>174</ns3:hr>
            <ns3:cad>79</ns3:cad>
          </ns3:TrackPointExtension>
        </extensions>
      </trkpt>
      <trkpt lat="52.1031098999083042144775390625" lon="1.33894491009414196014404296875">
        <ele>189</ele>
        <time>2025-09-05T13:52:06.000Z</time>
        <extensions>
          <ns3:TrackPointExtension>
            <ns3:hr>174</ns3:hr>
            <ns3:cad>79</ns3:cad>
          </ns3:TrackPointExtension>
        </extensions>
      </trkpt>
      <trkpt lat="52.10305340588092803955078125" lon="1.3389895856380462646484375">
        <ele>190.1999969482421875</ele>
        <time>2025-09-05T13:52:09.000Z</time>
        <extensions>
          <ns3:TrackPointExtension>
            <ns3:hr>172</ns3:hr>
            <ns3:cad>79</ns3:cad>
          </ns3:TrackPointExtension>
        </extensions>
      </trkpt>
      <trkpt lat="52.1030354686081409454345703125" lon="1.3390031643211841583251953125">
        <ele>190.600006103515625</ele>
        <time>2025-09-05T13:52:10.000Z</time>
        <extensions>
          <ns3:TrackPointExtension>
            <ns3:hr>173</ns3:hr>
            <ns3:cad>79</ns3:cad>
          </ns3:TrackPointExtension>
        </extensions>
      </trkpt>
      <trkpt lat="52.10300202481448650360107421875" lon="1.3390378654003143310546875">
        <ele>191.399993896484375</ele>
        <time>2025-09-05T13:52:12.000Z</time>
        <extensions>
          <ns3:TrackPointExtension>
            <ns3:hr>174</ns3:hr>
            <ns3:cad>79</ns3:cad>
          </ns3:TrackPointExtension>
        </extensions>
      </trkpt>
      <trkpt lat="52.102936394512653350830078125" lon="1.3390780985355377197265625">
        <ele>192.8000030517578125</ele>
        <time>2025-09-05T13:52:15.000Z</time>
        <extensions>
          <ns3:TrackPointExtension>
            <ns3:hr>173</ns3:hr>
            <ns3:cad>79</ns3:cad>
          </ns3:TrackPointExtension>
        </extensions>
      </trkpt>
      <trkpt lat="52.10287277586758136749267578125" lon="1.33911238051950931549072265625">
        <ele>194</ele>
        <time>2025-09-05T13:52:18.000Z</time>
        <extensions>
          <ns3:TrackPointExtension>
            <ns3:hr>172</ns3:hr>
            <ns3:cad>78</ns3:cad>
          </ns3:TrackPointExtension>
        </extensions>
      </trkpt>
      <trkpt lat="52.10285668261349201202392578125" lon="1.3391236960887908935546875">
        <ele>194.399993896484375</ele>
        <time>2025-09-05T13:52:19.000Z</time>
        <extensions>
          <ns3:TrackPointExtension>
            <ns3:hr>173</ns3:hr>
            <ns3:cad>79</ns3:cad>
          </ns3:TrackPointExtension>
        </extensions>
      </trkpt>
      <trkpt lat="52.1028185449540615081787109375" lon="1.33915160782635211944580078125">
        <ele>195</ele>
        <time>2025-09-05T13:52:21.000Z</time>
        <extensions>
          <ns3:TrackPointExtension>
            <ns3:hr>175</ns3:hr>
            <ns3:cad>79</ns3:cad>
          </ns3:TrackPointExtension>
        </extensions>
      </trkpt>
      <trkpt lat="52.102783508598804473876953125" lon="1.33917960338294506072998046875">
        <ele>194</ele>
        <time>2025-09-05T13:52:23.000Z</time>
        <extensions>
          <ns3:TrackPointExtension>
            <ns3:hr>176</ns3:hr>
            <ns3:cad>80</ns3:cad>
          </ns3:TrackPointExtension>
        </extensions>
      </trkpt>
      <trkpt lat="52.10276238620281219482421875" lon="1.339194774627685546875">
        <ele>192.399993896484375</ele>
        <time>2025-09-05T13:52:24.000Z</time>
        <extensions>
          <ns3:TrackPointExtension>
            <ns3:hr>176</ns3:hr>
            <ns3:cad>80</ns3:cad>
          </ns3:TrackPointExtension>
        </extensions>
      </trkpt>
      <trkpt lat="52.10274386219680309295654296875" lon="1.33921145461499691009521484375">
        <ele>191</ele>
        <time>2025-09-05T13:52:25.000Z</time>
        <extensions>
          <ns3:TrackPointExtension>
            <ns3:hr>177</ns3:hr>
            <ns3:cad>80</ns3:cad>
          </ns3:TrackPointExtension>
        </extensions>
      </trkpt>
      <trkpt lat="52.10272273980081081390380859375" lon="1.339231319725513458251953125">
        <ele>189.600006103515625</ele>
        <time>2025-09-05T13:52:26.000Z</time>
        <extensions>
          <ns3:TrackPointExtension>
            <ns3:hr>175</ns3:hr>
            <ns3:cad>79</ns3:cad>
          </ns3:TrackPointExtension>
        </extensions>
      </trkpt>
      <trkpt lat="52.10270195268094539642333984375" lon="1.339250095188617706298828125">
        <ele>188.1999969482421875</ele>
        <time>2025-09-05T13:52:27.000Z</time>
        <extensions>
          <ns3:TrackPointExtension>
            <ns3:hr>176</ns3:hr>
            <ns3:cad>79</ns3:cad>
          </ns3:TrackPointExtension>
        </extensions>
      </trkpt>
      <trkpt lat="52.10268401540815830230712890625" lon="1.33927029557526111602783203125">
        <ele>187</ele>
        <time>2025-09-05T13:52:28.000Z</time>
        <extensions>
          <ns3:TrackPointExtension>
            <ns3:hr>176</ns3:hr>
            <ns3:cad>78</ns3:cad>
          </ns3:TrackPointExtension>
        </extensions>
      </trkpt>
      <trkpt lat="52.10266171954572200775146484375" lon="1.3392926752567291259765625">
        <ele>185.600006103515625</ele>
        <time>2025-09-05T13:52:29.000Z</time>
        <extensions>
          <ns3:TrackPointExtension>
            <ns3:hr>177</ns3:hr>
            <ns3:cad>79</ns3:cad>
          </ns3:TrackPointExtension>
        </extensions>
      </trkpt>
      <trkpt lat="52.10264302790164947509765625" lon="1.33931404910981655120849609375">
        <ele>184.1999969482421875</ele>
        <time>2025-09-05T13:52:30.000Z</time>
        <extensions>
          <ns3:TrackPointExtension>
            <ns3:hr>178</ns3:hr>
            <ns3:cad>80</ns3:cad>
          </ns3:TrackPointExtension>
        </extensions>
      </trkpt>
      <trkpt lat="52.10262785665690898895263671875" lon="1.33933617733418941497802734375">
        <ele>182.8000030517578125</ele>
        <time>2025-09-05T13:52:31.000Z</time>
        <extensions>
          <ns3:TrackPointExtension>
            <ns3:hr>177</ns3:hr>
            <ns3:cad>80</ns3:cad>
          </ns3:TrackPointExtension>
        </extensions>
      </trkpt>
      <trkpt lat="52.10261176340281963348388671875" lon="1.3393585570156574249267578125">
        <ele>181.600006103515625</ele>
        <time>2025-09-05T13:52:32.000Z</time>
        <extensions>
          <ns3:TrackPointExtension>
            <ns3:hr>177</ns3:hr>
            <ns3:cad>80</ns3:cad>
          </ns3:TrackPointExtension>
        </extensions>
      </trkpt>
      <trkpt lat="52.102592401206493377685546875" lon="1.339378841221332550048828125">
        <ele>180.1999969482421875</ele>
        <time>2025-09-05T13:52:33.000Z</time>
        <extensions>
          <ns3:TrackPointExtension>
            <ns3:hr>176</ns3:hr>
            <ns3:cad>80</ns3:cad>
          </ns3:TrackPointExtension>
        </extensions>
      </trkpt>
      <trkpt lat="52.1025712788105010986328125" lon="1.339398957788944244384765625">
        <ele>179</ele>
        <time>2025-09-05T13:52:34.000Z</time>
        <extensions>
          <ns3:TrackPointExtension>
            <ns3:hr>177</ns3:hr>
            <ns3:cad>80</ns3:cad>
          </ns3:TrackPointExtension>
        </extensions>
      </trkpt>
      <trkpt lat="52.10255426354706287384033203125" lon="1.33941471576690673828125">
        <ele>177.8000030517578125</ele>
        <time>2025-09-05T13:52:35.000Z</time>
        <extensions>
          <ns3:TrackPointExtension>
            <ns3:hr>177</ns3:hr>
            <ns3:cad>79</ns3:cad>
          </ns3:TrackPointExtension>
        </extensions>
      </trkpt>
      <trkpt lat="52.10253632627427577972412109375" lon="1.33943189866840839385986328125">
        <ele>176.600006103515625</ele>
        <time>2025-09-05T13:52:36.000Z</time>
        <extensions>
          <ns3:TrackPointExtension>
            <ns3:hr>177</ns3:hr>
            <ns3:cad>79</ns3:cad>
          </ns3:TrackPointExtension>
        </extensions>
      </trkpt>
      <trkpt lat="52.10251855663955211639404296875" lon="1.33944899775087833404541015625">
        <ele>175.1999969482421875</ele>
        <time>2025-09-05T13:52:37.000Z</time>
        <extensions>
          <ns3:TrackPointExtension>
            <ns3:hr>177</ns3:hr>
            <ns3:cad>79</ns3:cad>
          </ns3:TrackPointExtension>
        </extensions>
      </trkpt>
      <trkpt lat="52.10249961353838443756103515625" lon="1.33946978487074375152587890625">
        <ele>174.1999969482421875</ele>
        <time>2025-09-05T13:52:38.000Z</time>
        <extensions>
          <ns3:TrackPointExtension>
            <ns3:hr>178</ns3:hr>
            <ns3:cad>80</ns3:cad>
          </ns3:TrackPointExtension>
        </extensions>
      </trkpt>
      <trkpt lat="52.1024839393794536590576171875" lon="1.33948487229645252227783203125">
        <ele>173</ele>
        <time>2025-09-05T13:52:39.000Z</time>
        <extensions>
          <ns3:TrackPointExtension>
            <ns3:hr>176</ns3:hr>
            <ns3:cad>80</ns3:cad>
          </ns3:TrackPointExtension>
        </extensions>
      </trkpt>
      <trkpt lat="52.1024718694388866424560546875" lon="1.33950230665504932403564453125">
        <ele>171.8000030517578125</ele>
        <time>2025-09-05T13:52:40.000Z</time>
        <extensions>
          <ns3:TrackPointExtension>
            <ns3:hr>176</ns3:hr>
            <ns3:cad>80</ns3:cad>
          </ns3:TrackPointExtension>
        </extensions>
      </trkpt>
      <trkpt lat="52.1024586260318756103515625" lon="1.33952510543167591094970703125">
        <ele>170.8000030517578125</ele>
        <time>2025-09-05T13:52:41.000Z</time>
        <extensions>
          <ns3:TrackPointExtension>
            <ns3:hr>176</ns3:hr>
            <ns3:cad>80</ns3:cad>
          </ns3:TrackPointExtension>
        </extensions>
      </trkpt>
      <trkpt lat="52.10245150141417980194091796875" lon="1.33954555727541446685791015625">
        <ele>169.600006103515625</ele>
        <time>2025-09-05T13:52:42.000Z</time>
        <extensions>
          <ns3:TrackPointExtension>
            <ns3:hr>177</ns3:hr>
            <ns3:cad>80</ns3:cad>
          </ns3:TrackPointExtension>
        </extensions>
      </trkpt>
      <trkpt lat="52.10244161076843738555908203125" lon="1.33957405574619770050048828125">
        <ele>168.600006103515625</ele>
        <time>2025-09-05T13:52:43.000Z</time>
        <extensions>
          <ns3:TrackPointExtension>
            <ns3:hr>178</ns3:hr>
            <ns3:cad>80</ns3:cad>
          </ns3:TrackPointExtension>
        </extensions>
      </trkpt>
      <trkpt lat="52.1024309657514095306396484375" lon="1.33960607461631298065185546875">
        <ele>167.600006103515625</ele>
        <time>2025-09-05T13:52:44.000Z</time>
        <extensions>
          <ns3:TrackPointExtension>
            <ns3:hr>177</ns3:hr>
            <ns3:cad>80</ns3:cad>
          </ns3:TrackPointExtension>
        </extensions>
      </trkpt>
      <trkpt lat="52.10242115892469882965087890625" lon="1.3396710343658924102783203125">
        <ele>165.600006103515625</ele>
        <time>2025-09-05T13:52:46.000Z</time>
        <extensions>
          <ns3:TrackPointExtension>
            <ns3:hr>177</ns3:hr>
            <ns3:cad>80</ns3:cad>
          </ns3:TrackPointExtension>
        </extensions>
      </trkpt>
      <trkpt lat="52.10241160355508327484130859375" lon="1.33974286727607250213623046875">
        <ele>163.8000030517578125</ele>
        <time>2025-09-05T13:52:48.000Z</time>
        <extensions>
          <ns3:TrackPointExtension>
            <ns3:hr>176</ns3:hr>
            <ns3:cad>79</ns3:cad>
          </ns3:TrackPointExtension>
        </extensions>
      </trkpt>
      <trkpt lat="52.10240808315575122833251953125" lon="1.33977605961263179779052734375">
        <ele>162.8000030517578125</ele>
        <time>2025-09-05T13:52:49.000Z</time>
        <extensions>
          <ns3:TrackPointExtension>
            <ns3:hr>177</ns3:hr>
            <ns3:cad>79</ns3:cad>
          </ns3:TrackPointExtension>
        </extensions>
      </trkpt>
      <trkpt lat="52.10240808315575122833251953125" lon="1.3398068211972713470458984375">
        <ele>162</ele>
        <time>2025-09-05T13:52:50.000Z</time>
        <extensions>
          <ns3:TrackPointExtension>
            <ns3:hr>176</ns3:hr>
            <ns3:cad>79</ns3:cad>
          </ns3:TrackPointExtension>
        </extensions>
      </trkpt>
      <trkpt lat="52.10242082364857196807861328125" lon="1.33986289612948894500732421875">
        <ele>160.399993896484375</ele>
        <time>2025-09-05T13:52:52.000Z</time>
        <extensions>
          <ns3:TrackPointExtension>
            <ns3:hr>177</ns3:hr>
            <ns3:cad>79</ns3:cad>
          </ns3:TrackPointExtension>
        </extensions>
      </trkpt>
      <trkpt lat="52.102436833083629608154296875" lon="1.339913271367549896240234375">
        <ele>158.8000030517578125</ele>
        <time>2025-09-05T13:52:54.000Z</time>
        <extensions>
          <ns3:TrackPointExtension>
            <ns3:hr>176</ns3:hr>
            <ns3:cad>79</ns3:cad>
          </ns3:TrackPointExtension>
        </extensions>
      </trkpt>
      <trkpt lat="52.10244722664356231689453125" lon="1.339934058487415313720703125">
        <ele>158</ele>
        <time>2025-09-05T13:52:55.000Z</time>
        <extensions>
          <ns3:TrackPointExtension>
            <ns3:hr>177</ns3:hr>
            <ns3:cad>79</ns3:cad>
          </ns3:TrackPointExtension>
        </extensions>
      </trkpt>
      <trkpt lat="52.10245820693671703338623046875" lon="1.33995241485536098480224609375">
        <ele>157.1999969482421875</ele>
        <time>2025-09-05T13:52:56.000Z</time>
        <extensions>
          <ns3:TrackPointExtension>
            <ns3:hr>176</ns3:hr>
            <ns3:cad>79</ns3:cad>
          </ns3:TrackPointExtension>
        </extensions>
      </trkpt>
      <trkpt lat="52.1024856157600879669189453125" lon="1.339993737637996673583984375">
        <ele>155.8000030517578125</ele>
        <time>2025-09-05T13:52:58.000Z</time>
        <extensions>
          <ns3:TrackPointExtension>
            <ns3:hr>175</ns3:hr>
            <ns3:cad>79</ns3:cad>
          </ns3:TrackPointExtension>
        </extensions>
      </trkpt>
      <trkpt lat="52.1025043912231922149658203125" lon="1.34004964493215084075927734375">
        <ele>154.399993896484375</ele>
        <time>2025-09-05T13:53:00.000Z</time>
        <extensions>
          <ns3:TrackPointExtension>
            <ns3:hr>175</ns3:hr>
            <ns3:cad>79</ns3:cad>
          </ns3:TrackPointExtension>
        </extensions>
      </trkpt>
      <trkpt lat="52.1025147847831249237060546875" lon="1.3400703482329845428466796875">
        <ele>153.8000030517578125</ele>
        <time>2025-09-05T13:53:01.000Z</time>
        <extensions>
          <ns3:TrackPointExtension>
            <ns3:hr>176</ns3:hr>
            <ns3:cad>79</ns3:cad>
          </ns3:TrackPointExtension>
        </extensions>
      </trkpt>
      <trkpt lat="52.1025216579437255859375" lon="1.34008820168673992156982421875">
        <ele>153</ele>
        <time>2025-09-05T13:53:02.000Z</time>
        <extensions>
          <ns3:TrackPointExtension>
            <ns3:hr>175</ns3:hr>
            <ns3:cad>79</ns3:cad>
          </ns3:TrackPointExtension>
        </extensions>
      </trkpt>
      <trkpt lat="52.10253666155040264129638671875" lon="1.3401246629655361175537109375">
        <ele>151.8000030517578125</ele>
        <time>2025-09-05T13:53:04.000Z</time>
        <extensions>
          <ns3:TrackPointExtension>
            <ns3:hr>175</ns3:hr>
            <ns3:cad>79</ns3:cad>
          </ns3:TrackPointExtension>
        </extensions>
      </trkpt>
      <trkpt lat="52.10255241952836513519287109375" lon="1.34015793912112712860107421875">
        <ele>150.399993896484375</ele>
        <time>2025-09-05T13:53:06.000Z</time>
        <extensions>
          <ns3:TrackPointExtension>
            <ns3:hr>174</ns3:hr>
            <ns3:cad>79</ns3:cad>
          </ns3:TrackPointExtension>
        </extensions>
      </trkpt>
      <trkpt lat="52.10257119499146938323974609375" lon="1.34018861688673496246337890625">
        <ele>149.1999969482421875</ele>
        <time>2025-09-05T13:53:08.000Z</time>
        <extensions>
          <ns3:TrackPointExtension>
            <ns3:hr>175</ns3:hr>
            <ns3:cad>64</ns3:cad>
          </ns3:TrackPointExtension>
        </extensions>
      </trkpt>
      <trkpt lat="52.10258401930332183837890625" lon="1.34019951336085796356201171875">
        <ele>148.600006103515625</ele>
        <time>2025-09-05T13:53:09.000Z</time>
        <extensions>
          <ns3:TrackPointExtension>
            <ns3:hr>175</ns3:hr>
            <ns3:cad>60</ns3:cad>
          </ns3:TrackPointExtension>
        </extensions>
      </trkpt>
      <trkpt lat="52.10261997766792774200439453125" lon="1.34022113867104053497314453125">
        <ele>148</ele>
        <time>2025-09-05T13:53:10.000Z</time>
        <extensions>
          <ns3:TrackPointExtension>
            <ns3:hr>174</ns3:hr>
            <ns3:cad>59</ns3:cad>
          </ns3:TrackPointExtension>
        </extensions>
      </trkpt>
      <trkpt lat="52.10266389884054660797119140625" lon="1.34025081060826778411865234375">
        <ele>146.600006103515625</ele>
        <time>2025-09-05T13:53:12.000Z</time>
        <extensions>
          <ns3:TrackPointExtension>
            <ns3:hr>173</ns3:hr>
            <ns3:cad>58</ns3:cad>
          </ns3:TrackPointExtension>
        </extensions>
      </trkpt>
      <trkpt lat="52.102695666253566741943359375" lon="1.3402770459651947021484375">
        <ele>145.1999969482421875</ele>
        <time>2025-09-05T13:53:14.000Z</time>
        <extensions>
          <ns3:TrackPointExtension>
            <ns3:hr>169</ns3:hr>
            <ns3:cad>0</ns3:cad>
          </ns3:TrackPointExtension>
        </extensions>
      </trkpt>
      <trkpt lat="52.10271100513637065887451171875" lon="1.3403199613094329833984375">
        <ele>143.8000030517578125</ele>
        <time>2025-09-05T13:53:16.000Z</time>
        <extensions>
          <ns3:TrackPointExtension>
            <ns3:hr>167</ns3:hr>
            <ns3:cad>0</ns3:cad>
          </ns3:TrackPointExtension>
        </extensions>
      </trkpt>
      <trkpt lat="52.102720476686954498291015625" lon="1.340359188616275787353515625">
        <ele>142.399993896484375</ele>
        <time>2025-09-05T13:53:18.000Z</time>
        <extensions>
          <ns3:TrackPointExtension>
            <ns3:hr>169</ns3:hr>
            <ns3:cad>59</ns3:cad>
          </ns3:TrackPointExtension>
        </extensions>
      </trkpt>
      <trkpt lat="52.102728188037872314453125" lon="1.3403975777328014373779296875">
        <ele>141</ele>
        <time>2025-09-05T13:53:20.000Z</time>
        <extensions>
          <ns3:TrackPointExtension>
            <ns3:hr>167</ns3:hr>
            <ns3:cad>59</ns3:cad>
          </ns3:TrackPointExtension>
        </extensions>
      </trkpt>
      <trkpt lat="52.10273598320782184600830078125" lon="1.340442337095737457275390625">
        <ele>139.600006103515625</ele>
        <time>2025-09-05T13:53:22.000Z</time>
        <extensions>
          <ns3:TrackPointExtension>
            <ns3:hr>170</ns3:hr>
            <ns3:cad>0</ns3:cad>
          </ns3:TrackPointExtension>
        </extensions>
      </trkpt>
      <trkpt lat="52.10274101234972476959228515625" lon="1.34048114530742168426513671875">
        <ele>138.399993896484375</ele>
        <time>2025-09-05T13:53:24.000Z</time>
        <extensions>
          <ns3:TrackPointExtension>
            <ns3:hr>170</ns3:hr>
            <ns3:cad>0</ns3:cad>
          </ns3:TrackPointExtension>
        </extensions>
      </trkpt>
      <trkpt lat="52.1027451194822788238525390625" lon="1.3405155949294567108154296875">
        <ele>137</ele>
        <time>2025-09-05T13:53:26.000Z</time>
        <extensions>
          <ns3:TrackPointExtension>
            <ns3:hr>170</ns3:hr>
            <ns3:cad>0</ns3:cad>
          </ns3:TrackPointExtension>
        </extensions>
      </trkpt>
      <trkpt lat="52.102747298777103424072265625" lon="1.34055842645466327667236328125">
        <ele>135.8000030517578125</ele>
        <time>2025-09-05T13:53:28.000Z</time>
        <extensions>
          <ns3:TrackPointExtension>
            <ns3:hr>171</ns3:hr>
            <ns3:cad>59</ns3:cad>
          </ns3:TrackPointExtension>
        </extensions>
      </trkpt>
      <trkpt lat="52.1027521602809429168701171875" lon="1.3405772857367992401123046875">
        <ele>135.1999969482421875</ele>
        <time>2025-09-05T13:53:29.000Z</time>
        <extensions>
          <ns3:TrackPointExtension>
            <ns3:hr>170</ns3:hr>
            <ns3:cad>59</ns3:cad>
          </ns3:TrackPointExtension>
        </extensions>
      </trkpt>
      <trkpt lat="52.10275526158511638641357421875" lon="1.3405970670282840728759765625">
        <ele>134.600006103515625</ele>
        <time>2025-09-05T13:53:30.000Z</time>
        <extensions>
          <ns3:TrackPointExtension>
            <ns3:hr>172</ns3:hr>
            <ns3:cad>60</ns3:cad>
          </ns3:TrackPointExtension>
        </extensions>
      </trkpt>
      <trkpt lat="52.102768421173095703125" lon="1.34063386358320713043212890625">
        <ele>133.1999969482421875</ele>
        <time>2025-09-05T13:53:32.000Z</time>
        <extensions>
          <ns3:TrackPointExtension>
            <ns3:hr>171</ns3:hr>
            <ns3:cad>60</ns3:cad>
          </ns3:TrackPointExtension>
        </extensions>
      </trkpt>
      <trkpt lat="52.1027724444866180419921875" lon="1.34067711420357227325439453125">
        <ele>132</ele>
        <time>2025-09-05T13:53:34.000Z</time>
        <extensions>
          <ns3:TrackPointExtension>
            <ns3:hr>170</ns3:hr>
            <ns3:cad>60</ns3:cad>
          </ns3:TrackPointExtension>
        </extensions>
      </trkpt>
      <trkpt lat="52.10276900790631771087646484375" lon="1.3407268188893795013427734375">
        <ele>130.600006103515625</ele>
        <time>2025-09-05T13:53:36.000Z</time>
        <extensions>
          <ns3:TrackPointExtension>
            <ns3:hr>167</ns3:hr>
            <ns3:cad>60</ns3:cad>
          </ns3:TrackPointExtension>
        </extensions>
      </trkpt>
      <trkpt lat="52.10276506841182708740234375" lon="1.340752132236957550048828125">
        <ele>130</ele>
        <time>2025-09-05T13:53:37.000Z</time>
        <extensions>
          <ns3:TrackPointExtension>
            <ns3:hr>166</ns3:hr>
            <ns3:cad>60</ns3:cad>
          </ns3:TrackPointExtension>
        </extensions>
      </trkpt>
      <trkpt lat="52.102760374546051025390625" lon="1.3407719135284423828125">
        <ele>129.1999969482421875</ele>
        <time>2025-09-05T13:53:38.000Z</time>
        <extensions>
          <ns3:TrackPointExtension>
            <ns3:hr>166</ns3:hr>
            <ns3:cad>60</ns3:cad>
          </ns3:TrackPointExtension>
        </extensions>
      </trkpt>
      <trkpt lat="52.102737911045551300048828125" lon="1.34081658907234668731689453125">
        <ele>128</ele>
        <time>2025-09-05T13:53:40.000Z</time>
        <extensions>
          <ns3:TrackPointExtension>
            <ns3:hr>165</ns3:hr>
            <ns3:cad>59</ns3:cad>
          </ns3:TrackPointExtension>
        </extensions>
      </trkpt>
      <trkpt lat="52.1027161180973052978515625" lon="1.3408679701387882232666015625">
        <ele>126.59999847412109375</ele>
        <time>2025-09-05T13:53:42.000Z</time>
        <extensions>
          <ns3:TrackPointExtension>
            <ns3:hr>165</ns3:hr>
            <ns3:cad>59</ns3:cad>
          </ns3:TrackPointExtension>
        </extensions>
      </trkpt>
      <trkpt lat="52.10269910283386707305908203125" lon="1.3409216143190860748291015625">
        <ele>125.40000152587890625</ele>
        <time>2025-09-05T13:53:44.000Z</time>
        <extensions>
          <ns3:TrackPointExtension>
            <ns3:hr>164</ns3:hr>
            <ns3:cad>60</ns3:cad>
          </ns3:TrackPointExtension>
        </extensions>
      </trkpt>
      <trkpt lat="52.10268250666558742523193359375" lon="1.34099210612475872039794921875">
        <ele>124</ele>
        <time>2025-09-05T13:53:46.000Z</time>
        <extensions>
          <ns3:TrackPointExtension>
            <ns3:hr>163</ns3:hr>
            <ns3:cad>60</ns3:cad>
          </ns3:TrackPointExtension>
        </extensions>
      </trkpt>
      <trkpt lat="52.10267026908695697784423828125" lon="1.34106419049203395843505859375">
        <ele>122.8000030517578125</ele>
        <time>2025-09-05T13:53:48.000Z</time>
        <extensions>
          <ns3:TrackPointExtension>
            <ns3:hr>164</ns3:hr>
            <ns3:cad>60</ns3:cad>
          </ns3:TrackPointExtension>
        </extensions>
      </trkpt>
      <trkpt lat="52.10265870206058025360107421875" lon="1.34112772531807422637939453125">
        <ele>121.59999847412109375</ele>
        <time>2025-09-05T13:53:50.000Z</time>
        <extensions>
          <ns3:TrackPointExtension>
            <ns3:hr>165</ns3:hr>
            <ns3:cad>77</ns3:cad>
          </ns3:TrackPointExtension>
        </extensions>
      </trkpt>
      <trkpt lat="52.1026592887938022613525390625" lon="1.34115706197917461395263671875">
        <ele>121</ele>
        <time>2025-09-05T13:53:51.000Z</time>
        <extensions>
          <ns3:TrackPointExtension>
            <ns3:hr>165</ns3:hr>
            <ns3:cad>78</ns3:cad>
          </ns3:TrackPointExtension>
        </extensions>
      </trkpt>
      <trkpt lat="52.10265769623219966888427734375" lon="1.34118790738284587860107421875">
        <ele>120.40000152587890625</ele>
        <time>2025-09-05T13:53:52.000Z</time>
        <extensions>
          <ns3:TrackPointExtension>
            <ns3:hr>166</ns3:hr>
            <ns3:cad>78</ns3:cad>
          </ns3:TrackPointExtension>
        </extensions>
      </trkpt>
      <trkpt lat="52.10265333764255046844482421875" lon="1.341241635382175445556640625">
        <ele>119.40000152587890625</ele>
        <time>2025-09-05T13:53:54.000Z</time>
        <extensions>
          <ns3:TrackPointExtension>
            <ns3:hr>166</ns3:hr>
            <ns3:cad>79</ns3:cad>
          </ns3:TrackPointExtension>
        </extensions>
      </trkpt>
      <trkpt lat="52.10264629684388637542724609375" lon="1.34131439030170440673828125">
        <ele>118</ele>
        <time>2025-09-05T13:53:57.000Z</time>
        <extensions>
          <ns3:TrackPointExtension>
            <ns3:hr>167</ns3:hr>
            <ns3:cad>79</ns3:cad>
          </ns3:TrackPointExtension>
        </extensions>
      </trkpt>
      <trkpt lat="52.1026317961513996124267578125" lon="1.34138035587966442108154296875">
        <ele>117</ele>
        <time>2025-09-05T13:54:00.000Z</time>
        <extensions>
          <ns3:TrackPointExtension>
            <ns3:hr>166</ns3:hr>
            <ns3:cad>79</ns3:cad>
          </ns3:TrackPointExtension>
        </extensions>
      </trkpt>
      <trkpt lat="52.1026277728378772735595703125" lon="1.34140868671238422393798828125">
        <ele>116.59999847412109375</ele>
        <time>2025-09-05T13:54:01.000Z</time>
        <extensions>
          <ns3:TrackPointExtension>
            <ns3:hr>167</ns3:hr>
            <ns3:cad>79</ns3:cad>
          </ns3:TrackPointExtension>
        </extensions>
      </trkpt>
      <trkpt lat="52.1026113443076610565185546875" lon="1.34149250574409961700439453125">
        <ele>115.59999847412109375</ele>
        <time>2025-09-05T13:54:04.000Z</time>
        <extensions>
          <ns3:TrackPointExtension>
            <ns3:hr>168</ns3:hr>
            <ns3:cad>80</ns3:cad>
          </ns3:TrackPointExtension>
        </extensions>
      </trkpt>
      <trkpt lat="52.10260706953704357147216796875" lon="1.34151848964393138885498046875">
        <ele>115.40000152587890625</ele>
        <time>2025-09-05T13:54:05.000Z</time>
        <extensions>
          <ns3:TrackPointExtension>
            <ns3:hr>171</ns3:hr>
            <ns3:cad>80</ns3:cad>
          </ns3:TrackPointExtension>
        </extensions>
      </trkpt>
      <trkpt lat="52.10259851999580860137939453125" lon="1.3416310586035251617431640625">
        <ele>114.59999847412109375</ele>
        <time>2025-09-05T13:54:09.000Z</time>
        <extensions>
          <ns3:TrackPointExtension>
            <ns3:hr>172</ns3:hr>
            <ns3:cad>81</ns3:cad>
          </ns3:TrackPointExtension>
        </extensions>
      </trkpt>
      <trkpt lat="52.10259072482585906982421875" lon="1.34168193675577640533447265625">
        <ele>114.40000152587890625</ele>
        <time>2025-09-05T13:54:11.000Z</time>
        <extensions>
          <ns3:TrackPointExtension>
            <ns3:hr>173</ns3:hr>
            <ns3:cad>81</ns3:cad>
          </ns3:TrackPointExtension>
        </extensions>
      </trkpt>
      <trkpt lat="52.10254806093871593475341796875" lon="1.34186784736812114715576171875">
        <ele>114.59999847412109375</ele>
        <time>2025-09-05T13:54:18.000Z</time>
        <extensions>
          <ns3:TrackPointExtension>
            <ns3:hr>176</ns3:hr>
            <ns3:cad>81</ns3:cad>
          </ns3:TrackPointExtension>
        </extensions>
      </trkpt>
      <trkpt lat="52.10252542980015277862548828125" lon="1.3419147022068500518798828125">
        <ele>114.8000030517578125</ele>
        <time>2025-09-05T13:54:20.000Z</time>
        <extensions>
          <ns3:TrackPointExtension>
            <ns3:hr>175</ns3:hr>
            <ns3:cad>80</ns3:cad>
          </ns3:TrackPointExtension>
        </extensions>
      </trkpt>
      <trkpt lat="52.10247077979147434234619140625" lon="1.34205509908497333526611328125">
        <ele>115.8000030517578125</ele>
        <time>2025-09-05T13:54:26.000Z</time>
        <extensions>
          <ns3:TrackPointExtension>
            <ns3:hr>175</ns3:hr>
            <ns3:cad>77</ns3:cad>
          </ns3:TrackPointExtension>
        </extensions>
      </trkpt>
      <trkpt lat="52.1024591289460659027099609375" lon="1.3420860283076763153076171875">
        <ele>116</ele>
        <time>2025-09-05T13:54:27.000Z</time>
        <extensions>
          <ns3:TrackPointExtension>
            <ns3:hr>174</ns3:hr>
            <ns3:cad>77</ns3:cad>
          </ns3:TrackPointExtension>
        </extensions>
      </trkpt>
      <trkpt lat="52.10242384113371372222900390625" lon="1.34219683706760406494140625">
        <ele>116.8000030517578125</ele>
        <time>2025-09-05T13:54:31.000Z</time>
        <extensions>
          <ns3:TrackPointExtension>
            <ns3:hr>176</ns3:hr>
            <ns3:cad>55</ns3:cad>
          </ns3:TrackPointExtension>
        </extensions>
      </trkpt>
      <trkpt lat="52.1024101786315441131591796875" lon="1.3422456197440624237060546875">
        <ele>117.1999969482421875</ele>
        <time>2025-09-05T13:54:33.000Z</time>
        <extensions>
          <ns3:TrackPointExtension>
            <ns3:hr>175</ns3:hr>
            <ns3:cad>0</ns3:cad>
          </ns3:TrackPointExtension>
        </extensions>
      </trkpt>
      <trkpt lat="52.10239131934940814971923828125" lon="1.3423472084105014801025390625">
        <ele>117.8000030517578125</ele>
        <time>2025-09-05T13:54:37.000Z</time>
        <extensions>
          <ns3:TrackPointExtension>
            <ns3:hr>174</ns3:hr>
            <ns3:cad>55</ns3:cad>
          </ns3:TrackPointExtension>
        </extensions>
      </trkpt>
      <trkpt lat="52.1023816801607608795166015625" lon="1.3423718512058258056640625">
        <ele>118</ele>
        <time>2025-09-05T13:54:38.000Z</time>
        <extensions>
          <ns3:TrackPointExtension>
            <ns3:hr>171</ns3:hr>
            <ns3:cad>60</ns3:cad>
          </ns3:TrackPointExtension>
        </extensions>
      </trkpt>
      <trkpt lat="52.102373801171779632568359375" lon="1.34241250343620777130126953125">
        <ele>118.1999969482421875</ele>
        <time>2025-09-05T13:54:40.000Z</time>
        <extensions>
          <ns3:TrackPointExtension>
            <ns3:hr>170</ns3:hr>
            <ns3:cad>60</ns3:cad>
          </ns3:TrackPointExtension>
        </extensions>
      </trkpt>
      <trkpt lat="52.10237505845725536346435546875" lon="1.3425520621240139007568359375">
        <ele>117.59999847412109375</ele>
        <time>2025-09-05T13:54:45.000Z</time>
        <extensions>
          <ns3:TrackPointExtension>
            <ns3:hr>167</ns3:hr>
            <ns3:cad>0</ns3:cad>
          </ns3:TrackPointExtension>
        </extensions>
      </trkpt>
      <trkpt lat="52.10235871374607086181640625" lon="1.34262138046324253082275390625">
        <ele>116.8000030517578125</ele>
        <time>2025-09-05T13:54:47.000Z</time>
        <extensions>
          <ns3:TrackPointExtension>
            <ns3:hr>166</ns3:hr>
            <ns3:cad>0</ns3:cad>
          </ns3:TrackPointExtension>
        </extensions>
      </trkpt>
      <trkpt lat="52.10235075093805789947509765625" lon="1.3426774553954601287841796875">
        <ele>115.8000030517578125</ele>
        <time>2025-09-05T13:54:49.000Z</time>
        <extensions>
          <ns3:TrackPointExtension>
            <ns3:hr>163</ns3:hr>
            <ns3:cad>65</ns3:cad>
          </ns3:TrackPointExtension>
        </extensions>
      </trkpt>
      <trkpt lat="52.10235108621418476104736328125" lon="1.342724896967411041259765625">
        <ele>114.40000152587890625</ele>
        <time>2025-09-05T13:54:51.000Z</time>
        <extensions>
          <ns3:TrackPointExtension>
            <ns3:hr>164</ns3:hr>
            <ns3:cad>65</ns3:cad>
          </ns3:TrackPointExtension>
        </extensions>
      </trkpt>
      <trkpt lat="52.10235242731869220733642578125" lon="1.34275180287659168243408203125">
        <ele>113.40000152587890625</ele>
        <time>2025-09-05T13:54:52.000Z</time>
        <extensions>
          <ns3:TrackPointExtension>
            <ns3:hr>161</ns3:hr>
            <ns3:cad>65</ns3:cad>
          </ns3:TrackPointExtension>
        </extensions>
      </trkpt>
      <trkpt lat="52.1023551933467388153076171875" lon="1.342785917222499847412109375">
        <ele>112.59999847412109375</ele>
        <time>2025-09-05T13:54:53.000Z</time>
        <extensions>
          <ns3:TrackPointExtension>
            <ns3:hr>163</ns3:hr>
            <ns3:cad>65</ns3:cad>
          </ns3:TrackPointExtension>
        </extensions>
      </trkpt>
      <trkpt lat="52.10235561244189739227294921875" lon="1.3428224623203277587890625">
        <ele>111.40000152587890625</ele>
        <time>2025-09-05T13:54:54.000Z</time>
        <extensions>
          <ns3:TrackPointExtension>
            <ns3:hr>163</ns3:hr>
            <ns3:cad>65</ns3:cad>
          </ns3:TrackPointExtension>
        </extensions>
      </trkpt>
      <trkpt lat="52.10235913284122943878173828125" lon="1.34286110289394855499267578125">
        <ele>110.1999969482421875</ele>
        <time>2025-09-05T13:54:55.000Z</time>
        <extensions>
          <ns3:TrackPointExtension>
            <ns3:hr>163</ns3:hr>
            <ns3:cad>65</ns3:cad>
          </ns3:TrackPointExtension>
        </extensions>
      </trkpt>
      <trkpt lat="52.1023629046976566314697265625" lon="1.3428957201540470123291015625">
        <ele>109</ele>
        <time>2025-09-05T13:54:56.000Z</time>
        <extensions>
          <ns3:TrackPointExtension>
            <ns3:hr>163</ns3:hr>
            <ns3:cad>80</ns3:cad>
          </ns3:TrackPointExtension>
        </extensions>
      </trkpt>
      <trkpt lat="52.1023686043918132781982421875" lon="1.34292983449995517730712890625">
        <ele>107.59999847412109375</ele>
        <time>2025-09-05T13:54:57.000Z</time>
        <extensions>
          <ns3:TrackPointExtension>
            <ns3:hr>163</ns3:hr>
            <ns3:cad>80</ns3:cad>
          </ns3:TrackPointExtension>
        </extensions>
      </trkpt>
      <trkpt lat="52.1023722924292087554931640625" lon="1.34296051226556301116943359375">
        <ele>106.1999969482421875</ele>
        <time>2025-09-05T13:54:58.000Z</time>
        <extensions>
          <ns3:TrackPointExtension>
            <ns3:hr>165</ns3:hr>
            <ns3:cad>80</ns3:cad>
          </ns3:TrackPointExtension>
        </extensions>
      </trkpt>
      <trkpt lat="52.1023776568472385406494140625" lon="1.342987753450870513916015625">
        <ele>104.8000030517578125</ele>
        <time>2025-09-05T13:54:59.000Z</time>
        <extensions>
          <ns3:TrackPointExtension>
            <ns3:hr>164</ns3:hr>
            <ns3:cad>80</ns3:cad>
          </ns3:TrackPointExtension>
        </extensions>
      </trkpt>
      <trkpt lat="52.102381177246570587158203125" lon="1.343017257750034332275390625">
        <ele>103.40000152587890625</ele>
        <time>2025-09-05T13:55:00.000Z</time>
        <extensions>
          <ns3:TrackPointExtension>
            <ns3:hr>165</ns3:hr>
            <ns3:cad>80</ns3:cad>
          </ns3:TrackPointExtension>
        </extensions>
      </trkpt>
      <trkpt lat="52.102384530007839202880859375" lon="1.34304734878242015838623046875">
        <ele>101.8000030517578125</ele>
        <time>2025-09-05T13:55:01.000Z</time>
        <extensions>
          <ns3:TrackPointExtension>
            <ns3:hr>164</ns3:hr>
            <ns3:cad>80</ns3:cad>
          </ns3:TrackPointExtension>
        </extensions>
      </trkpt>
      <trkpt lat="52.102385200560092926025390625" lon="1.34307802654802799224853515625">
        <ele>100.40000152587890625</ele>
        <time>2025-09-05T13:55:02.000Z</time>
        <extensions>
          <ns3:TrackPointExtension>
            <ns3:hr>164</ns3:hr>
            <ns3:cad>80</ns3:cad>
          </ns3:TrackPointExtension>
        </extensions>
      </trkpt>
      <trkpt lat="52.10238494910299777984619140625" lon="1.343108117580413818359375">
        <ele>98.8000030517578125</ele>
        <time>2025-09-05T13:55:03.000Z</time>
        <extensions>
          <ns3:TrackPointExtension>
            <ns3:hr>165</ns3:hr>
            <ns3:cad>80</ns3:cad>
          </ns3:TrackPointExtension>
        </extensions>
      </trkpt>
      <trkpt lat="52.10238377563655376434326171875" lon="1.34313770569860935211181640625">
        <ele>97.40000152587890625</ele>
        <time>2025-09-05T13:55:04.000Z</time>
        <extensions>
          <ns3:TrackPointExtension>
            <ns3:hr>166</ns3:hr>
            <ns3:cad>80</ns3:cad>
          </ns3:TrackPointExtension>
        </extensions>
      </trkpt>
      <trkpt lat="52.10238017141819000244140625" lon="1.34317810647189617156982421875">
        <ele>96</ele>
        <time>2025-09-05T13:55:05.000Z</time>
        <extensions>
          <ns3:TrackPointExtension>
            <ns3:hr>168</ns3:hr>
            <ns3:cad>80</ns3:cad>
          </ns3:TrackPointExtension>
        </extensions>
      </trkpt>
      <trkpt lat="52.1023789979517459869384765625" lon="1.34322068654000759124755859375">
        <ele>94.40000152587890625</ele>
        <time>2025-09-05T13:55:06.000Z</time>
        <extensions>
          <ns3:TrackPointExtension>
            <ns3:hr>169</ns3:hr>
            <ns3:cad>80</ns3:cad>
          </ns3:TrackPointExtension>
        </extensions>
      </trkpt>
      <trkpt lat="52.1023729629814624786376953125" lon="1.3432618416845798492431640625">
        <ele>93</ele>
        <time>2025-09-05T13:55:07.000Z</time>
        <extensions>
          <ns3:TrackPointExtension>
            <ns3:hr>169</ns3:hr>
            <ns3:cad>79</ns3:cad>
          </ns3:TrackPointExtension>
        </extensions>
      </trkpt>
      <trkpt lat="52.1023696102201938629150390625" lon="1.34329394437372684478759765625">
        <ele>91.59999847412109375</ele>
        <time>2025-09-05T13:55:08.000Z</time>
        <extensions>
          <ns3:TrackPointExtension>
            <ns3:hr>169</ns3:hr>
            <ns3:cad>79</ns3:cad>
          </ns3:TrackPointExtension>
        </extensions>
      </trkpt>
      <trkpt lat="52.10236550308763980865478515625" lon="1.34332604706287384033203125">
        <ele>90.1999969482421875</ele>
        <time>2025-09-05T13:55:09.000Z</time>
        <extensions>
          <ns3:TrackPointExtension>
            <ns3:hr>171</ns3:hr>
            <ns3:cad>79</ns3:cad>
          </ns3:TrackPointExtension>
        </extensions>
      </trkpt>
      <trkpt lat="52.10236131213605403900146484375" lon="1.34336083196103572845458984375">
        <ele>88.59999847412109375</ele>
        <time>2025-09-05T13:55:10.000Z</time>
        <extensions>
          <ns3:TrackPointExtension>
            <ns3:hr>170</ns3:hr>
            <ns3:cad>79</ns3:cad>
          </ns3:TrackPointExtension>
        </extensions>
      </trkpt>
      <trkpt lat="52.10236013866961002349853515625" lon="1.34339620359241962432861328125">
        <ele>87.1999969482421875</ele>
        <time>2025-09-05T13:55:11.000Z</time>
        <extensions>
          <ns3:TrackPointExtension>
            <ns3:hr>171</ns3:hr>
            <ns3:cad>79</ns3:cad>
          </ns3:TrackPointExtension>
        </extensions>
      </trkpt>
      <trkpt lat="52.10235846228897571563720703125" lon="1.34343241341412067413330078125">
        <ele>85.8000030517578125</ele>
        <time>2025-09-05T13:55:12.000Z</time>
        <extensions>
          <ns3:TrackPointExtension>
            <ns3:hr>170</ns3:hr>
            <ns3:cad>78</ns3:cad>
          </ns3:TrackPointExtension>
        </extensions>
      </trkpt>
      <trkpt lat="52.1023561991751194000244140625" lon="1.34346761740744113922119140625">
        <ele>84.40000152587890625</ele>
        <time>2025-09-05T13:55:13.000Z</time>
        <extensions>
          <ns3:TrackPointExtension>
            <ns3:hr>170</ns3:hr>
            <ns3:cad>77</ns3:cad>
          </ns3:TrackPointExtension>
        </extensions>
      </trkpt>
      <trkpt lat="52.102358378469944000244140625" lon="1.34349829517304897308349609375">
        <ele>83</ele>
        <time>2025-09-05T13:55:14.000Z</time>
        <extensions>
          <ns3:TrackPointExtension>
            <ns3:hr>171</ns3:hr>
            <ns3:cad>77</ns3:cad>
          </ns3:TrackPointExtension>
        </extensions>
      </trkpt>
      <trkpt lat="52.10236139595508575439453125" lon="1.343524865806102752685546875">
        <ele>81.59999847412109375</ele>
        <time>2025-09-05T13:55:15.000Z</time>
        <extensions>
          <ns3:TrackPointExtension>
            <ns3:hr>170</ns3:hr>
            <ns3:cad>76</ns3:cad>
          </ns3:TrackPointExtension>
        </extensions>
      </trkpt>
      <trkpt lat="52.10236667655408382415771484375" lon="1.3435468263924121856689453125">
        <ele>80.1999969482421875</ele>
        <time>2025-09-05T13:55:16.000Z</time>
        <extensions>
          <ns3:TrackPointExtension>
            <ns3:hr>170</ns3:hr>
            <ns3:cad>76</ns3:cad>
          </ns3:TrackPointExtension>
        </extensions>
      </trkpt>
      <trkpt lat="52.10236818529665470123291015625" lon="1.34356568567454814910888671875">
        <ele>79</ele>
        <time>2025-09-05T13:55:17.000Z</time>
        <extensions>
          <ns3:TrackPointExtension>
            <ns3:hr>169</ns3:hr>
            <ns3:cad>76</ns3:cad>
          </ns3:TrackPointExtension>
        </extensions>
      </trkpt>
      <trkpt lat="52.10237354971468448638916015625" lon="1.3435850478708744049072265625">
        <ele>77.59999847412109375</ele>
        <time>2025-09-05T13:55:18.000Z</time>
        <extensions>
          <ns3:TrackPointExtension>
            <ns3:hr>168</ns3:hr>
            <ns3:cad>0</ns3:cad>
          </ns3:TrackPointExtension>
        </extensions>
      </trkpt>
      <trkpt lat="52.10237639956176280975341796875" lon="1.34360172785818576812744140625">
        <ele>76.1999969482421875</ele>
        <time>2025-09-05T13:55:19.000Z</time>
        <extensions>
          <ns3:TrackPointExtension>
            <ns3:hr>168</ns3:hr>
            <ns3:cad>0</ns3:cad>
          </ns3:TrackPointExtension>
        </extensions>
      </trkpt>
      <trkpt lat="52.102379165589809417724609375" lon="1.34361413307487964630126953125">
        <ele>75</ele>
        <time>2025-09-05T13:55:20.000Z</time>
        <extensions>
          <ns3:TrackPointExtension>
            <ns3:hr>168</ns3:hr>
            <ns3:cad>0</ns3:cad>
          </ns3:TrackPointExtension>
        </extensions>
      </trkpt>
      <trkpt lat="52.1023835241794586181640625" lon="1.34362645447254180908203125">
        <ele>73.59999847412109375</ele>
        <time>2025-09-05T13:55:21.000Z</time>
        <extensions>
          <ns3:TrackPointExtension>
            <ns3:hr>168</ns3:hr>
            <ns3:cad>0</ns3:cad>
          </ns3:TrackPointExtension>
        </extensions>
      </trkpt>
      <trkpt lat="52.10238193161785602569580078125" lon="1.34364145807921886444091796875">
        <ele>72.40000152587890625</ele>
        <time>2025-09-05T13:55:22.000Z</time>
        <extensions>
          <ns3:TrackPointExtension>
            <ns3:hr>170</ns3:hr>
            <ns3:cad>63</ns3:cad>
          </ns3:TrackPointExtension>
        </extensions>
      </trkpt>
      <trkpt lat="52.10237673483788967132568359375" lon="1.34366325102746486663818359375">
        <ele>71</ele>
        <time>2025-09-05T13:55:23.000Z</time>
        <extensions>
          <ns3:TrackPointExtension>
            <ns3:hr>174</ns3:hr>
            <ns3:cad>63</ns3:cad>
          </ns3:TrackPointExtension>
        </extensions>
      </trkpt>
      <trkpt lat="52.1023686043918132781982421875" lon="1.3436856307089328765869140625">
        <ele>69.8000030517578125</ele>
        <time>2025-09-05T13:55:24.000Z</time>
        <extensions>
          <ns3:TrackPointExtension>
            <ns3:hr>174</ns3:hr>
            <ns3:cad>63</ns3:cad>
          </ns3:TrackPointExtension>
        </extensions>
      </trkpt>
      <trkpt lat="52.10236550308763980865478515625" lon="1.3437074236571788787841796875">
        <ele>68.59999847412109375</ele>
        <time>2025-09-05T13:55:25.000Z</time>
        <extensions>
          <ns3:TrackPointExtension>
            <ns3:hr>174</ns3:hr>
            <ns3:cad>63</ns3:cad>
          </ns3:TrackPointExtension>
        </extensions>
      </trkpt>
      <trkpt lat="52.10235645063221454620361328125" lon="1.34373013861477375030517578125">
        <ele>67.40000152587890625</ele>
        <time>2025-09-05T13:55:26.000Z</time>
        <extensions>
          <ns3:TrackPointExtension>
            <ns3:hr>175</ns3:hr>
            <ns3:cad>63</ns3:cad>
          </ns3:TrackPointExtension>
        </extensions>
      </trkpt>
      <trkpt lat="52.10234907455742359161376953125" lon="1.3437570445239543914794921875">
        <ele>66</ele>
        <time>2025-09-05T13:55:27.000Z</time>
        <extensions>
          <ns3:TrackPointExtension>
            <ns3:hr>175</ns3:hr>
            <ns3:cad>80</ns3:cad>
          </ns3:TrackPointExtension>
        </extensions>
      </trkpt>
      <trkpt lat="52.10233834572136402130126953125" lon="1.34378143586218357086181640625">
        <ele>64.8000030517578125</ele>
        <time>2025-09-05T13:55:28.000Z</time>
        <extensions>
          <ns3:TrackPointExtension>
            <ns3:hr>175</ns3:hr>
            <ns3:cad>80</ns3:cad>
          </ns3:TrackPointExtension>
        </extensions>
      </trkpt>
      <trkpt lat="52.10233080200850963592529296875" lon="1.343809850513935089111328125">
        <ele>63.59999847412109375</ele>
        <time>2025-09-05T13:55:29.000Z</time>
        <extensions>
          <ns3:TrackPointExtension>
            <ns3:hr>175</ns3:hr>
            <ns3:cad>80</ns3:cad>
          </ns3:TrackPointExtension>
        </extensions>
      </trkpt>
      <trkpt lat="52.102322168648242950439453125" lon="1.34383608587086200714111328125">
        <ele>62.40000152587890625</ele>
        <time>2025-09-05T13:55:30.000Z</time>
        <extensions>
          <ns3:TrackPointExtension>
            <ns3:hr>176</ns3:hr>
            <ns3:cad>81</ns3:cad>
          </ns3:TrackPointExtension>
        </extensions>
      </trkpt>
      <trkpt lat="52.10231504403054714202880859375" lon="1.34386517107486724853515625">
        <ele>61.200000762939453125</ele>
        <time>2025-09-05T13:55:31.000Z</time>
        <extensions>
          <ns3:TrackPointExtension>
            <ns3:hr>177</ns3:hr>
            <ns3:cad>81</ns3:cad>
          </ns3:TrackPointExtension>
        </extensions>
      </trkpt>
      <trkpt lat="52.102307416498661041259765625" lon="1.34389492683112621307373046875">
        <ele>60</ele>
        <time>2025-09-05T13:55:32.000Z</time>
        <extensions>
          <ns3:TrackPointExtension>
            <ns3:hr>177</ns3:hr>
            <ns3:cad>81</ns3:cad>
          </ns3:TrackPointExtension>
        </extensions>
      </trkpt>
      <trkpt lat="52.10229727439582347869873046875" lon="1.34392174892127513885498046875">
        <ele>58.799999237060546875</ele>
        <time>2025-09-05T13:55:33.000Z</time>
        <extensions>
          <ns3:TrackPointExtension>
            <ns3:hr>177</ns3:hr>
            <ns3:cad>81</ns3:cad>
          </ns3:TrackPointExtension>
        </extensions>
      </trkpt>
      <trkpt lat="52.1022923290729522705078125" lon="1.34394756518304347991943359375">
        <ele>57.799999237060546875</ele>
        <time>2025-09-05T13:55:34.000Z</time>
        <extensions>
          <ns3:TrackPointExtension>
            <ns3:hr>178</ns3:hr>
            <ns3:cad>81</ns3:cad>
          </ns3:TrackPointExtension>
        </extensions>
      </trkpt>
      <trkpt lat="52.102285958826541900634765625" lon="1.3439729623496532440185546875">
        <ele>56.59999847412109375</ele>
        <time>2025-09-05T13:55:35.000Z</time>
        <extensions>
          <ns3:TrackPointExtension>
            <ns3:hr>180</ns3:hr>
            <ns3:cad>81</ns3:cad>
          </ns3:TrackPointExtension>
        </extensions>
      </trkpt>
      <trkpt lat="52.10227196104824542999267578125" lon="1.343996934592723846435546875">
        <ele>55.40000152587890625</ele>
        <time>2025-09-05T13:55:36.000Z</time>
        <extensions>
          <ns3:TrackPointExtension>
            <ns3:hr>182</ns3:hr>
            <ns3:cad>81</ns3:cad>
          </ns3:TrackPointExtension>
        </extensions>
      </trkpt>
      <trkpt lat="52.10225922055542469024658203125" lon="1.3440202362835407257080078125">
        <ele>54.40000152587890625</ele>
        <time>2025-09-05T13:55:37.000Z</time>
        <extensions>
          <ns3:TrackPointExtension>
            <ns3:hr>180</ns3:hr>
            <ns3:cad>81</ns3:cad>
          </ns3:TrackPointExtension>
        </extensions>
      </trkpt>
      <trkpt lat="52.10224949754774570465087890625" lon="1.34404798038303852081298828125">
        <ele>53.200000762939453125</ele>
        <time>2025-09-05T13:55:38.000Z</time>
        <extensions>
          <ns3:TrackPointExtension>
            <ns3:hr>179</ns3:hr>
            <ns3:cad>81</ns3:cad>
          </ns3:TrackPointExtension>
        </extensions>
      </trkpt>
      <trkpt lat="52.10223793052136898040771484375" lon="1.34407497011125087738037109375">
        <ele>52</ele>
        <time>2025-09-05T13:55:39.000Z</time>
        <extensions>
          <ns3:TrackPointExtension>
            <ns3:hr>179</ns3:hr>
            <ns3:cad>81</ns3:cad>
          </ns3:TrackPointExtension>
        </extensions>
      </trkpt>
      <trkpt lat="52.10222183726727962493896484375" lon="1.3441037200391292572021484375">
        <ele>51</ele>
        <time>2025-09-05T13:55:40.000Z</time>
        <extensions>
          <ns3:TrackPointExtension>
            <ns3:hr>177</ns3:hr>
            <ns3:cad>81</ns3:cad>
          </ns3:TrackPointExtension>
        </extensions>
      </trkpt>
      <trkpt lat="52.10220582783222198486328125" lon="1.34413364343345165252685546875">
        <ele>49.799999237060546875</ele>
        <time>2025-09-05T13:55:41.000Z</time>
        <extensions>
          <ns3:TrackPointExtension>
            <ns3:hr>176</ns3:hr>
            <ns3:cad>82</ns3:cad>
          </ns3:TrackPointExtension>
        </extensions>
      </trkpt>
      <trkpt lat="52.10219216533005237579345703125" lon="1.34416046552360057830810546875">
        <ele>48.799999237060546875</ele>
        <time>2025-09-05T13:55:42.000Z</time>
        <extensions>
          <ns3:TrackPointExtension>
            <ns3:hr>175</ns3:hr>
            <ns3:cad>82</ns3:cad>
          </ns3:TrackPointExtension>
        </extensions>
      </trkpt>
      <trkpt lat="52.10217791609466075897216796875" lon="1.34418661706149578094482421875">
        <ele>47.799999237060546875</ele>
        <time>2025-09-05T13:55:43.000Z</time>
        <extensions>
          <ns3:TrackPointExtension>
            <ns3:hr>175</ns3:hr>
            <ns3:cad>82</ns3:cad>
          </ns3:TrackPointExtension>
        </extensions>
      </trkpt>
      <trkpt lat="52.1021627448499202728271484375" lon="1.34421444498002529144287109375">
        <ele>46.59999847412109375</ele>
        <time>2025-09-05T13:55:44.000Z</time>
        <extensions>
          <ns3:TrackPointExtension>
            <ns3:hr>175</ns3:hr>
            <ns3:cad>81</ns3:cad>
          </ns3:TrackPointExtension>
        </extensions>
      </trkpt>
      <trkpt lat="52.10214438848197460174560546875" lon="1.34423841722309589385986328125">
        <ele>45.59999847412109375</ele>
        <time>2025-09-05T13:55:45.000Z</time>
        <extensions>
          <ns3:TrackPointExtension>
            <ns3:hr>174</ns3:hr>
            <ns3:cad>81</ns3:cad>
          </ns3:TrackPointExtension>
        </extensions>
      </trkpt>
      <trkpt lat="52.1021292172372341156005859375" lon="1.34426389820873737335205078125">
        <ele>44.59999847412109375</ele>
        <time>2025-09-05T13:55:46.000Z</time>
        <extensions>
          <ns3:TrackPointExtension>
            <ns3:hr>174</ns3:hr>
            <ns3:cad>81</ns3:cad>
          </ns3:TrackPointExtension>
        </extensions>
      </trkpt>
      <trkpt lat="52.1021171472966670989990234375" lon="1.3442911393940448760986328125">
        <ele>43.59999847412109375</ele>
        <time>2025-09-05T13:55:47.000Z</time>
        <extensions>
          <ns3:TrackPointExtension>
            <ns3:hr>174</ns3:hr>
            <ns3:cad>81</ns3:cad>
          </ns3:TrackPointExtension>
        </extensions>
      </trkpt>
      <trkpt lat="52.10208873264491558074951171875" lon="1.3443454541265964508056640625">
        <ele>41.59999847412109375</ele>
        <time>2025-09-05T13:55:49.000Z</time>
        <extensions>
          <ns3:TrackPointExtension>
            <ns3:hr>175</ns3:hr>
            <ns3:cad>81</ns3:cad>
          </ns3:TrackPointExtension>
        </extensions>
      </trkpt>
      <trkpt lat="52.10206626914441585540771484375" lon="1.34439314715564250946044921875">
        <ele>39.799999237060546875</ele>
        <time>2025-09-05T13:55:51.000Z</time>
        <extensions>
          <ns3:TrackPointExtension>
            <ns3:hr>176</ns3:hr>
            <ns3:cad>80</ns3:cad>
          </ns3:TrackPointExtension>
        </extensions>
      </trkpt>
      <trkpt lat="52.1020504273474216461181640625" lon="1.344428770244121551513671875">
        <ele>37.799999237060546875</ele>
        <time>2025-09-05T13:55:53.000Z</time>
        <extensions>
          <ns3:TrackPointExtension>
            <ns3:hr>176</ns3:hr>
            <ns3:cad>81</ns3:cad>
          </ns3:TrackPointExtension>
        </extensions>
      </trkpt>
      <trkpt lat="52.10204481147229671478271484375" lon="1.3444457016885280609130859375">
        <ele>37</ele>
        <time>2025-09-05T13:55:54.000Z</time>
        <extensions>
          <ns3:TrackPointExtension>
            <ns3:hr>175</ns3:hr>
            <ns3:cad>81</ns3:cad>
          </ns3:TrackPointExtension>
        </extensions>
      </trkpt>
      <trkpt lat="52.10204162634909152984619140625" lon="1.3444639742374420166015625">
        <ele>36</ele>
        <time>2025-09-05T13:55:55.000Z</time>
        <extensions>
          <ns3:TrackPointExtension>
            <ns3:hr>176</ns3:hr>
            <ns3:cad>81</ns3:cad>
          </ns3:TrackPointExtension>
        </extensions>
      </trkpt>
      <trkpt lat="52.10203508846461772918701171875" lon="1.3445015251636505126953125">
        <ele>34.40000152587890625</ele>
        <time>2025-09-05T13:55:57.000Z</time>
        <extensions>
          <ns3:TrackPointExtension>
            <ns3:hr>176</ns3:hr>
            <ns3:cad>80</ns3:cad>
          </ns3:TrackPointExtension>
        </extensions>
      </trkpt>
      <trkpt lat="52.10201673209667205810546875" lon="1.34454418905079364776611328125">
        <ele>32.59999847412109375</ele>
        <time>2025-09-05T13:55:59.000Z</time>
        <extensions>
          <ns3:TrackPointExtension>
            <ns3:hr>177</ns3:hr>
            <ns3:cad>80</ns3:cad>
          </ns3:TrackPointExtension>
        </extensions>
      </trkpt>
      <trkpt lat="52.102010361850261688232421875" lon="1.34458844549953937530517578125">
        <ele>31</ele>
        <time>2025-09-05T13:56:01.000Z</time>
        <extensions>
          <ns3:TrackPointExtension>
            <ns3:hr>175</ns3:hr>
            <ns3:cad>80</ns3:cad>
          </ns3:TrackPointExtension>
        </extensions>
      </trkpt>
      <trkpt lat="52.10200089029967784881591796875" lon="1.34462381713092327117919921875">
        <ele>29.3999996185302734375</ele>
        <time>2025-09-05T13:56:03.000Z</time>
        <extensions>
          <ns3:TrackPointExtension>
            <ns3:hr>177</ns3:hr>
            <ns3:cad>81</ns3:cad>
          </ns3:TrackPointExtension>
        </extensions>
      </trkpt>
      <trkpt lat="52.10198747925460338592529296875" lon="1.34466136805713176727294921875">
        <ele>27.799999237060546875</ele>
        <time>2025-09-05T13:56:05.000Z</time>
        <extensions>
          <ns3:TrackPointExtension>
            <ns3:hr>178</ns3:hr>
            <ns3:cad>81</ns3:cad>
          </ns3:TrackPointExtension>
        </extensions>
      </trkpt>
      <trkpt lat="52.10197784006595611572265625" lon="1.3447068817913532257080078125">
        <ele>26.3999996185302734375</ele>
        <time>2025-09-05T13:56:07.000Z</time>
        <extensions>
          <ns3:TrackPointExtension>
            <ns3:hr>177</ns3:hr>
            <ns3:cad>81</ns3:cad>
          </ns3:TrackPointExtension>
        </extensions>
      </trkpt>
      <trkpt lat="52.10195772349834442138671875" lon="1.34477854706346988677978515625">
        <ele>24.799999237060546875</ele>
        <time>2025-09-05T13:56:09.000Z</time>
        <extensions>
          <ns3:TrackPointExtension>
            <ns3:hr>176</ns3:hr>
            <ns3:cad>80</ns3:cad>
          </ns3:TrackPointExtension>
        </extensions>
      </trkpt>
      <trkpt lat="52.10192729718983173370361328125" lon="1.3448322750627994537353515625">
        <ele>23.3999996185302734375</ele>
        <time>2025-09-05T13:56:11.000Z</time>
        <extensions>
          <ns3:TrackPointExtension>
            <ns3:hr>177</ns3:hr>
            <ns3:cad>80</ns3:cad>
          </ns3:TrackPointExtension>
        </extensions>
      </trkpt>
      <trkpt lat="52.10189737379550933837890625" lon="1.3448939658701419830322265625">
        <ele>22</ele>
        <time>2025-09-05T13:56:13.000Z</time>
        <extensions>
          <ns3:TrackPointExtension>
            <ns3:hr>178</ns3:hr>
            <ns3:cad>80</ns3:cad>
          </ns3:TrackPointExtension>
        </extensions>
      </trkpt>
      <trkpt lat="52.101894356310367584228515625" lon="1.3449140824377536773681640625">
        <ele>21.200000762939453125</ele>
        <time>2025-09-05T13:56:14.000Z</time>
        <extensions>
          <ns3:TrackPointExtension>
            <ns3:hr>179</ns3:hr>
            <ns3:cad>80</ns3:cad>
          </ns3:TrackPointExtension>
        </extensions>
      </trkpt>
      <trkpt lat="52.10188454948365688323974609375" lon="1.3449355401098728179931640625">
        <ele>20.3999996185302734375</ele>
        <time>2025-09-05T13:56:15.000Z</time>
        <extensions>
          <ns3:TrackPointExtension>
            <ns3:hr>180</ns3:hr>
            <ns3:cad>0</ns3:cad>
          </ns3:TrackPointExtension>
        </extensions>
      </trkpt>
      <trkpt lat="52.10187365300953388214111328125" lon="1.3449690677225589752197265625">
        <ele>19</ele>
        <time>2025-09-05T13:56:17.000Z</time>
        <extensions>
          <ns3:TrackPointExtension>
            <ns3:hr>180</ns3:hr>
            <ns3:cad>0</ns3:cad>
          </ns3:TrackPointExtension>
        </extensions>
      </trkpt>
      <trkpt lat="52.1018670313060283660888671875" lon="1.34498708881437778472900390625">
        <ele>18.3999996185302734375</ele>
        <time>2025-09-05T13:56:18.000Z</time>
        <extensions>
          <ns3:TrackPointExtension>
            <ns3:hr>179</ns3:hr>
            <ns3:cad>0</ns3:cad>
          </ns3:TrackPointExtension>
        </extensions>
      </trkpt>
      <trkpt lat="52.101862169802188873291015625" lon="1.345006115734577178955078125">
        <ele>17.6000003814697265625</ele>
        <time>2025-09-05T13:56:19.000Z</time>
        <extensions>
          <ns3:TrackPointExtension>
            <ns3:hr>178</ns3:hr>
            <ns3:cad>0</ns3:cad>
          </ns3:TrackPointExtension>
        </extensions>
      </trkpt>
      <trkpt lat="52.10186024196445941925048828125" lon="1.34502388536930084228515625">
        <ele>16</ele>
        <time>2025-09-05T13:56:21.000Z</time>
        <extensions>
          <ns3:TrackPointExtension>
            <ns3:hr>179</ns3:hr>
            <ns3:cad>0</ns3:cad>
          </ns3:TrackPointExtension>
        </extensions>
      </trkpt>
      <trkpt lat="52.10184641182422637939453125" lon="1.34504324756562709808349609375">
        <ele>14.6000003814697265625</ele>
        <time>2025-09-05T13:56:23.000Z</time>
        <extensions>
          <ns3:TrackPointExtension>
            <ns3:hr>177</ns3:hr>
            <ns3:cad>0</ns3:cad>
          </ns3:TrackPointExtension>
        </extensions>
      </trkpt>
      <trkpt lat="52.10183727554976940155029296875" lon="1.34505934081971645355224609375">
        <ele>13</ele>
        <time>2025-09-05T13:56:25.000Z</time>
        <extensions>
          <ns3:TrackPointExtension>
            <ns3:hr>176</ns3:hr>
            <ns3:cad>0</ns3:cad>
          </ns3:TrackPointExtension>
        </extensions>
      </trkpt>
      <trkpt lat="52.10181816481053829193115234375" lon="1.34506604634225368499755859375">
        <ele>12.3999996185302734375</ele>
        <time>2025-09-05T13:56:26.000Z</time>
        <extensions>
          <ns3:TrackPointExtension>
            <ns3:hr>175</ns3:hr>
            <ns3:cad>0</ns3:cad>
          </ns3:TrackPointExtension>
        </extensions>
      </trkpt>
      <trkpt lat="52.101801149547100067138671875" lon="1.34509840048849582672119140625">
        <ele>11.6000003814697265625</ele>
        <time>2025-09-05T13:56:27.000Z</time>
        <extensions>
          <ns3:TrackPointExtension>
            <ns3:hr>174</ns3:hr>
            <ns3:cad>0</ns3:cad>
          </ns3:TrackPointExtension>
        </extensions>
      </trkpt>
      <trkpt lat="52.1017614193260669708251953125" lon="1.345102675259113311767578125">
        <ele>10.19999980926513671875</ele>
        <time>2025-09-05T13:56:29.000Z</time>
        <extensions>
          <ns3:TrackPointExtension>
            <ns3:hr>175</ns3:hr>
            <ns3:cad>0</ns3:cad>
          </ns3:TrackPointExtension>
        </extensions>
      </trkpt>
      <trkpt lat="52.10172780789434909820556640625" lon="1.34511985816061496734619140625">
        <ele>8.80000019073486328125</ele>
        <time>2025-09-05T13:56:31.000Z</time>
        <extensions>
          <ns3:TrackPointExtension>
            <ns3:hr>174</ns3:hr>
            <ns3:cad>0</ns3:cad>
          </ns3:TrackPointExtension>
        </extensions>
      </trkpt>
      <trkpt lat="52.10171473212540149688720703125" lon="1.3451157510280609130859375">
        <ele>7.400000095367431640625</ele>
        <time>2025-09-05T13:56:33.000Z</time>
        <extensions>
          <ns3:TrackPointExtension>
            <ns3:hr>173</ns3:hr>
            <ns3:cad>0</ns3:cad>
          </ns3:TrackPointExtension>
        </extensions>
      </trkpt>
      <trkpt lat="52.10170182399451732635498046875" lon="1.3451031781733036041259765625">
        <ele>6</ele>
        <time>2025-09-05T13:56:35.000Z</time>
        <extensions>
          <ns3:TrackPointExtension>
            <ns3:hr>170</ns3:hr>
            <ns3:cad>0</ns3:cad>
          </ns3:TrackPointExtension>
        </extensions>
      </trkpt>
      <trkpt lat="52.10170425474643707275390625" lon="1.34509454481303691864013671875">
        <ele>4.80000019073486328125</ele>
        <time>2025-09-05T13:56:37.000Z</time>
        <extensions>
          <ns3:TrackPointExtension>
            <ns3:hr>170</ns3:hr>
            <ns3:cad>0</ns3:cad>
          </ns3:TrackPointExtension>
        </extensions>
      </trkpt>
      <trkpt lat="52.10171489976346492767333984375" lon="1.34513209573924541473388671875">
        <ele>3.400000095367431640625</ele>
        <time>2025-09-05T13:56:39.000Z</time>
        <extensions>
          <ns3:TrackPointExtension>
            <ns3:hr>169</ns3:hr>
            <ns3:cad>0</ns3:cad>
          </ns3:TrackPointExtension>
        </extensions>
      </trkpt>
      <trkpt lat="52.10171339102089405059814453125" lon="1.34518540464341640472412109375">
        <ele>2.2000000476837158203125</ele>
        <time>2025-09-05T13:56:41.000Z</time>
        <extensions>
          <ns3:TrackPointExtension>
            <ns3:hr>168</ns3:hr>
            <ns3:cad>75</ns3:cad>
          </ns3:TrackPointExtension>
        </extensions>
      </trkpt>
      <trkpt lat="52.10171121172606945037841796875" lon="1.3452419824898242950439453125">
        <ele>1</ele>
        <time>2025-09-05T13:56:43.000Z</time>
        <extensions>
          <ns3:TrackPointExtension>
            <ns3:hr>170</ns3:hr>
            <ns3:cad>77</ns3:cad>
          </ns3:TrackPointExtension>
        </extensions>
      </trkpt>
      <trkpt lat="52.10171858780086040496826171875" lon="1.345293782651424407958984375">
        <ele>-0.20000000298023223876953125</ele>
        <time>2025-09-05T13:56:45.000Z</time>
        <extensions>
          <ns3:TrackPointExtension>
            <ns3:hr>172</ns3:hr>
            <ns3:cad>78</ns3:cad>
          </ns3:TrackPointExtension>
        </extensions>
      </trkpt>
      <trkpt lat="52.101715318858623504638671875" lon="1.34535111486911773681640625">
        <ele>-1.39999997615814208984375</ele>
        <time>2025-09-05T13:56:47.000Z</time>
        <extensions>
          <ns3:TrackPointExtension>
            <ns3:hr>173</ns3:hr>
            <ns3:cad>78</ns3:cad>
          </ns3:TrackPointExtension>
        </extensions>
      </trkpt>
      <trkpt lat="52.10171037353575229644775390625" lon="1.3454032503068447113037109375">
        <ele>-2.599999904632568359375</ele>
        <time>2025-09-05T13:56:49.000Z</time>
        <extensions>
          <ns3:TrackPointExtension>
            <ns3:hr>175</ns3:hr>
            <ns3:cad>61</ns3:cad>
          </ns3:TrackPointExtension>
        </extensions>
      </trkpt>
      <trkpt lat="52.10170584730803966522216796875" lon="1.3454444892704486846923828125">
        <ele>-3.7999999523162841796875</ele>
        <time>2025-09-05T13:56:51.000Z</time>
        <extensions>
          <ns3:TrackPointExtension>
            <ns3:hr>174</ns3:hr>
            <ns3:cad>60</ns3:cad>
          </ns3:TrackPointExtension>
        </extensions>
      </trkpt>
      <trkpt lat="52.10170467384159564971923828125" lon="1.34545530192553997039794921875">
        <ele>-4.400000095367431640625</ele>
        <time>2025-09-05T13:56:52.000Z</time>
        <extensions>
          <ns3:TrackPointExtension>
            <ns3:hr>174</ns3:hr>
            <ns3:cad>60</ns3:cad>
          </ns3:TrackPointExtension>
        </extensions>
      </trkpt>
      <trkpt lat="52.1017017401754856109619140625" lon="1.34546686895191669464111328125">
        <ele>-5</ele>
        <time>2025-09-05T13:56:53.000Z</time>
        <extensions>
          <ns3:TrackPointExtension>
            <ns3:hr>174</ns3:hr>
            <ns3:cad>62</ns3:cad>
          </ns3:TrackPointExtension>
        </extensions>
      </trkpt>
      <trkpt lat="52.10170132108032703399658203125" lon="1.34549855254590511322021484375">
        <ele>-6.19999980926513671875</ele>
        <time>2025-09-05T13:56:55.000Z</time>
        <extensions>
          <ns3:TrackPointExtension>
            <ns3:hr>174</ns3:hr>
            <ns3:cad>0</ns3:cad>
          </ns3:TrackPointExtension>
        </extensions>
      </trkpt>
      <trkpt lat="52.1016968786716461181640625" lon="1.34553073905408382415771484375">
        <ele>-7.400000095367431640625</ele>
        <time>2025-09-05T13:56:57.000Z</time>
        <extensions>
          <ns3:TrackPointExtension>
            <ns3:hr>173</ns3:hr>
            <ns3:cad>0</ns3:cad>
          </ns3:TrackPointExtension>
        </extensions>
      </trkpt>
      <trkpt lat="52.1017017401754856109619140625" lon="1.3455824553966522216796875">
        <ele>-8.6000003814697265625</ele>
        <time>2025-09-05T13:56:59.000Z</time>
        <extensions>
          <ns3:TrackPointExtension>
            <ns3:hr>170</ns3:hr>
            <ns3:cad>0</ns3:cad>
          </ns3:TrackPointExtension>
        </extensions>
      </trkpt>
      <trkpt lat="52.1017138101160526275634765625" lon="1.34561531245708465576171875">
        <ele>-9.80000019073486328125</ele>
        <time>2025-09-05T13:57:01.000Z</time>
        <extensions>
          <ns3:TrackPointExtension>
            <ns3:hr>170</ns3:hr>
            <ns3:cad>0</ns3:cad>
          </ns3:TrackPointExtension>
        </extensions>
      </trkpt>
      <trkpt lat="52.101718001067638397216796875" lon="1.34565412066876888275146484375">
        <ele>-10.80000019073486328125</ele>
        <time>2025-09-05T13:57:03.000Z</time>
        <extensions>
          <ns3:TrackPointExtension>
            <ns3:hr>169</ns3:hr>
            <ns3:cad>0</ns3:cad>
          </ns3:TrackPointExtension>
        </extensions>
      </trkpt>
      <trkpt lat="52.1017138101160526275634765625" lon="1.3456892408430576324462890625">
        <ele>-11.80000019073486328125</ele>
        <time>2025-09-05T13:57:05.000Z</time>
        <extensions>
          <ns3:TrackPointExtension>
            <ns3:hr>166</ns3:hr>
            <ns3:cad>0</ns3:cad>
          </ns3:TrackPointExtension>
        </extensions>
      </trkpt>
      <trkpt lat="52.10171288810670375823974609375" lon="1.34573458693921566009521484375">
        <ele>-12.80000019073486328125</ele>
        <time>2025-09-05T13:57:07.000Z</time>
        <extensions>
          <ns3:TrackPointExtension>
            <ns3:hr>166</ns3:hr>
            <ns3:cad>60</ns3:cad>
          </ns3:TrackPointExtension>
        </extensions>
      </trkpt>
      <trkpt lat="52.10171364247798919677734375" lon="1.34577834047377109527587890625">
        <ele>-13.80000019073486328125</ele>
        <time>2025-09-05T13:57:09.000Z</time>
        <extensions>
          <ns3:TrackPointExtension>
            <ns3:hr>164</ns3:hr>
            <ns3:cad>61</ns3:cad>
          </ns3:TrackPointExtension>
        </extensions>
      </trkpt>
      <trkpt lat="52.10171640850603580474853515625" lon="1.34579795412719249725341796875">
        <ele>-14.3999996185302734375</ele>
        <time>2025-09-05T13:57:10.000Z</time>
        <extensions>
          <ns3:TrackPointExtension>
            <ns3:hr>163</ns3:hr>
            <ns3:cad>60</ns3:cad>
          </ns3:TrackPointExtension>
        </extensions>
      </trkpt>
      <trkpt lat="52.1017356030642986297607421875" lon="1.3458448089659214019775390625">
        <ele>-15.80000019073486328125</ele>
        <time>2025-09-05T13:57:13.000Z</time>
        <extensions>
          <ns3:TrackPointExtension>
            <ns3:hr>162</ns3:hr>
            <ns3:cad>59</ns3:cad>
          </ns3:TrackPointExtension>
        </extensions>
      </trkpt>
      <trkpt lat="52.10175211541354656219482421875" lon="1.3459021411836147308349609375">
        <ele>-17.200000762939453125</ele>
        <time>2025-09-05T13:57:16.000Z</time>
        <extensions>
          <ns3:TrackPointExtension>
            <ns3:hr>161</ns3:hr>
            <ns3:cad>60</ns3:cad>
          </ns3:TrackPointExtension>
        </extensions>
      </trkpt>
      <trkpt lat="52.10181020200252532958984375" lon="1.3459041528403759002685546875">
        <ele>-18.6000003814697265625</ele>
        <time>2025-09-05T13:57:19.000Z</time>
        <extensions>
          <ns3:TrackPointExtension>
            <ns3:hr>161</ns3:hr>
            <ns3:cad>0</ns3:cad>
          </ns3:TrackPointExtension>
        </extensions>
      </trkpt>
      <trkpt lat="52.10180743597447872161865234375" lon="1.3459353335201740264892578125">
        <ele>-20</ele>
        <time>2025-09-05T13:57:22.000Z</time>
        <extensions>
          <ns3:TrackPointExtension>
            <ns3:hr>159</ns3:hr>
            <ns3:cad>0</ns3:cad>
          </ns3:TrackPointExtension>
        </extensions>
      </trkpt>
      <trkpt lat="52.10183165967464447021484375" lon="1.3459805957973003387451171875">
        <ele>-21.3999996185302734375</ele>
        <time>2025-09-05T13:57:25.000Z</time>
        <extensions>
          <ns3:TrackPointExtension>
            <ns3:hr>158</ns3:hr>
            <ns3:cad>0</ns3:cad>
          </ns3:TrackPointExtension>
        </extensions>
      </trkpt>
      <trkpt lat="52.10183107294142246246337890625" lon="1.3459976948797702789306640625">
        <ele>-21.799999237060546875</ele>
        <time>2025-09-05T13:57:26.000Z</time>
        <extensions>
          <ns3:TrackPointExtension>
            <ns3:hr>158</ns3:hr>
            <ns3:cad>58</ns3:cad>
          </ns3:TrackPointExtension>
        </extensions>
      </trkpt>
      <trkpt lat="52.10183358751237392425537109375" lon="1.34604840539395809173583984375">
        <ele>-22.799999237060546875</ele>
        <time>2025-09-05T13:57:28.000Z</time>
        <extensions>
          <ns3:TrackPointExtension>
            <ns3:hr>159</ns3:hr>
            <ns3:cad>58</ns3:cad>
          </ns3:TrackPointExtension>
        </extensions>
      </trkpt>
      <trkpt lat="52.10184934549033641815185546875" lon="1.34612769819796085357666015625">
        <ele>-24</ele>
        <time>2025-09-05T13:57:31.000Z</time>
        <extensions>
          <ns3:TrackPointExtension>
            <ns3:hr>156</ns3:hr>
            <ns3:cad>61</ns3:cad>
          </ns3:TrackPointExtension>
        </extensions>
      </trkpt>
      <trkpt lat="52.10188320837914943695068359375" lon="1.3461913168430328369140625">
        <ele>-25.200000762939453125</ele>
        <time>2025-09-05T13:57:34.000Z</time>
        <extensions>
          <ns3:TrackPointExtension>
            <ns3:hr>156</ns3:hr>
            <ns3:cad>61</ns3:cad>
          </ns3:TrackPointExtension>
        </extensions>
      </trkpt>
      <trkpt lat="52.1018965356051921844482421875" lon="1.346204392611980438232421875">
        <ele>-25.6000003814697265625</ele>
        <time>2025-09-05T13:57:35.000Z</time>
        <extensions>
          <ns3:TrackPointExtension>
            <ns3:hr>156</ns3:hr>
            <ns3:cad>60</ns3:cad>
          </ns3:TrackPointExtension>
        </extensions>
      </trkpt>
      <trkpt lat="52.10191053338348865509033203125" lon="1.34623414836823940277099609375">
        <ele>-26.3999996185302734375</ele>
        <time>2025-09-05T13:57:37.000Z</time>
        <extensions>
          <ns3:TrackPointExtension>
            <ns3:hr>155</ns3:hr>
            <ns3:cad>60</ns3:cad>
          </ns3:TrackPointExtension>
        </extensions>
      </trkpt>
      <trkpt lat="52.10190835408866405487060546875" lon="1.34630623273551464080810546875">
        <ele>-27.6000003814697265625</ele>
        <time>2025-09-05T13:57:40.000Z</time>
        <extensions>
          <ns3:TrackPointExtension>
            <ns3:hr>154</ns3:hr>
            <ns3:cad>60</ns3:cad>
          </ns3:TrackPointExtension>
        </extensions>
      </trkpt>
      <trkpt lat="52.10190298967063426971435546875" lon="1.34635836817324161529541015625">
        <ele>-28.3999996185302734375</ele>
        <time>2025-09-05T13:57:42.000Z</time>
        <extensions>
          <ns3:TrackPointExtension>
            <ns3:hr>154</ns3:hr>
            <ns3:cad>61</ns3:cad>
          </ns3:TrackPointExtension>
        </extensions>
      </trkpt>
      <trkpt lat="52.10190500132739543914794921875" lon="1.3463844358921051025390625">
        <ele>-28.799999237060546875</ele>
        <time>2025-09-05T13:57:43.000Z</time>
        <extensions>
          <ns3:TrackPointExtension>
            <ns3:hr>154</ns3:hr>
            <ns3:cad>60</ns3:cad>
          </ns3:TrackPointExtension>
        </extensions>
      </trkpt>
      <trkpt lat="52.10197574459016323089599609375" lon="1.3464291952550411224365234375">
        <ele>-29.799999237060546875</ele>
        <time>2025-09-05T13:57:46.000Z</time>
        <extensions>
          <ns3:TrackPointExtension>
            <ns3:hr>154</ns3:hr>
            <ns3:cad>60</ns3:cad>
          </ns3:TrackPointExtension>
        </extensions>
      </trkpt>
      <trkpt lat="52.10197272710502147674560546875" lon="1.34648837149143218994140625">
        <ele>-30.6000003814697265625</ele>
        <time>2025-09-05T13:57:48.000Z</time>
        <extensions>
          <ns3:TrackPointExtension>
            <ns3:hr>153</ns3:hr>
            <ns3:cad>60</ns3:cad>
          </ns3:TrackPointExtension>
        </extensions>
      </trkpt>
      <trkpt lat="52.10197239182889461517333984375" lon="1.3465247489511966705322265625">
        <ele>-31</ele>
        <time>2025-09-05T13:57:49.000Z</time>
        <extensions>
          <ns3:TrackPointExtension>
            <ns3:hr>153</ns3:hr>
            <ns3:cad>60</ns3:cad>
          </ns3:TrackPointExtension>
        </extensions>
      </trkpt>
      <trkpt lat="52.1019947715103626251220703125" lon="1.34667620994150638580322265625">
        <ele>-32</ele>
        <time>2025-09-05T13:57:52.000Z</time>
        <extensions>
          <ns3:TrackPointExtension>
            <ns3:hr>152</ns3:hr>
            <ns3:cad>61</ns3:cad>
          </ns3:TrackPointExtension>
        </extensions>
      </trkpt>
      <trkpt lat="52.10200021974742412567138671875" lon="1.3467678241431713104248046875">
        <ele>-32.59999847412109375</ele>
        <time>2025-09-05T13:57:54.000Z</time>
        <extensions>
          <ns3:TrackPointExtension>
            <ns3:hr>152</ns3:hr>
            <ns3:cad>80</ns3:cad>
          </ns3:TrackPointExtension>
        </extensions>
      </trkpt>
      <trkpt lat="52.1019934304058551788330078125" lon="1.34686966426670551300048828125">
        <ele>-33.200000762939453125</ele>
        <time>2025-09-05T13:57:56.000Z</time>
        <extensions>
          <ns3:TrackPointExtension>
            <ns3:hr>153</ns3:hr>
            <ns3:cad>80</ns3:cad>
          </ns3:TrackPointExtension>
        </extensions>
      </trkpt>
      <trkpt lat="52.101979516446590423583984375" lon="1.34705021046102046966552734375">
        <ele>-34.200000762939453125</ele>
        <time>2025-09-05T13:58:00.000Z</time>
        <extensions>
          <ns3:TrackPointExtension>
            <ns3:hr>157</ns3:hr>
            <ns3:cad>80</ns3:cad>
          </ns3:TrackPointExtension>
        </extensions>
      </trkpt>
      <trkpt lat="52.101982869207859039306640625" lon="1.34708625264465808868408203125">
        <ele>-34.40000152587890625</ele>
        <time>2025-09-05T13:58:01.000Z</time>
        <extensions>
          <ns3:TrackPointExtension>
            <ns3:hr>159</ns3:hr>
            <ns3:cad>80</ns3:cad>
          </ns3:TrackPointExtension>
        </extensions>
      </trkpt>
      <trkpt lat="52.10198647342622280120849609375" lon="1.34712246246635913848876953125">
        <ele>-34.59999847412109375</ele>
        <time>2025-09-05T13:58:02.000Z</time>
        <extensions>
          <ns3:TrackPointExtension>
            <ns3:hr>162</ns3:hr>
            <ns3:cad>80</ns3:cad>
          </ns3:TrackPointExtension>
        </extensions>
      </trkpt>
      <trkpt lat="52.10199661552906036376953125" lon="1.347199492156505584716796875">
        <ele>-35</ele>
        <time>2025-09-05T13:58:04.000Z</time>
        <extensions>
          <ns3:TrackPointExtension>
            <ns3:hr>165</ns3:hr>
            <ns3:cad>81</ns3:cad>
          </ns3:TrackPointExtension>
        </extensions>
      </trkpt>
      <trkpt lat="52.10201497189700603485107421875" lon="1.34731390513479709625244140625">
        <ele>-35.40000152587890625</ele>
        <time>2025-09-05T13:58:07.000Z</time>
        <extensions>
          <ns3:TrackPointExtension>
            <ns3:hr>169</ns3:hr>
            <ns3:cad>81</ns3:cad>
          </ns3:TrackPointExtension>
        </extensions>
      </trkpt>
      <trkpt lat="52.1020229347050189971923828125" lon="1.3473542220890522003173828125">
        <ele>-35.59999847412109375</ele>
        <time>2025-09-05T13:58:08.000Z</time>
        <extensions>
          <ns3:TrackPointExtension>
            <ns3:hr>170</ns3:hr>
            <ns3:cad>82</ns3:cad>
          </ns3:TrackPointExtension>
        </extensions>
      </trkpt>
      <trkpt lat="52.10206635296344757080078125" lon="1.347443573176860809326171875">
        <ele>-35.799999237060546875</ele>
        <time>2025-09-05T13:58:11.000Z</time>
        <extensions>
          <ns3:TrackPointExtension>
            <ns3:hr>174</ns3:hr>
            <ns3:cad>81</ns3:cad>
          </ns3:TrackPointExtension>
        </extensions>
      </trkpt>
      <trkpt lat="52.10207548923790454864501953125" lon="1.3475490175187587738037109375">
        <ele>-36.200000762939453125</ele>
        <time>2025-09-05T13:58:14.000Z</time>
        <extensions>
          <ns3:TrackPointExtension>
            <ns3:hr>176</ns3:hr>
            <ns3:cad>81</ns3:cad>
          </ns3:TrackPointExtension>
        </extensions>
      </trkpt>
      <trkpt lat="52.10207548923790454864501953125" lon="1.34761230088770389556884765625">
        <ele>-36.40000152587890625</ele>
        <time>2025-09-05T13:58:16.000Z</time>
        <extensions>
          <ns3:TrackPointExtension>
            <ns3:hr>178</ns3:hr>
            <ns3:cad>81</ns3:cad>
          </ns3:TrackPointExtension>
        </extensions>
      </trkpt>
      <trkpt lat="52.10209929384291172027587890625" lon="1.34772956371307373046875">
        <ele>-37</ele>
        <time>2025-09-05T13:58:20.000Z</time>
        <extensions>
          <ns3:TrackPointExtension>
            <ns3:hr>179</ns3:hr>
            <ns3:cad>80</ns3:cad>
          </ns3:TrackPointExtension>
        </extensions>
      </trkpt>
      <trkpt lat="52.10213072597980499267578125" lon="1.3478916697204113006591796875">
        <ele>-37.59999847412109375</ele>
        <time>2025-09-05T13:58:25.000Z</time>
        <extensions>
          <ns3:TrackPointExtension>
            <ns3:hr>178</ns3:hr>
            <ns3:cad>80</ns3:cad>
          </ns3:TrackPointExtension>
        </extensions>
      </trkpt>
      <trkpt lat="52.10213902406394481658935546875" lon="1.3479530252516269683837890625">
        <ele>-37.799999237060546875</ele>
        <time>2025-09-05T13:58:27.000Z</time>
        <extensions>
          <ns3:TrackPointExtension>
            <ns3:hr>180</ns3:hr>
            <ns3:cad>80</ns3:cad>
          </ns3:TrackPointExtension>
        </extensions>
      </trkpt>
      <trkpt lat="52.10215562023222446441650390625" lon="1.3480150513350963592529296875">
        <ele>-38.200000762939453125</ele>
        <time>2025-09-05T13:58:29.000Z</time>
        <extensions>
          <ns3:TrackPointExtension>
            <ns3:hr>183</ns3:hr>
            <ns3:cad>81</ns3:cad>
          </ns3:TrackPointExtension>
        </extensions>
      </trkpt>
      <trkpt lat="52.1021573804318904876708984375" lon="1.34804866276681423187255859375">
        <ele>-38.40000152587890625</ele>
        <time>2025-09-05T13:58:30.000Z</time>
        <extensions>
          <ns3:TrackPointExtension>
            <ns3:hr>186</ns3:hr>
            <ns3:cad>81</ns3:cad>
          </ns3:TrackPointExtension>
        </extensions>
      </trkpt>
      <trkpt lat="52.1021691150963306427001953125" lon="1.34811705909669399261474609375">
        <ele>-38.59999847412109375</ele>
        <time>2025-09-05T13:58:32.000Z</time>
        <extensions>
          <ns3:TrackPointExtension>
            <ns3:hr>188</ns3:hr>
            <ns3:cad>81</ns3:cad>
          </ns3:TrackPointExtension>
        </extensions>
      </trkpt>
      <trkpt lat="52.10217338986694812774658203125" lon="1.34815159253776073455810546875">
        <ele>-38.799999237060546875</ele>
        <time>2025-09-05T13:58:33.000Z</time>
        <extensions>
          <ns3:TrackPointExtension>
            <ns3:hr>189</ns3:hr>
            <ns3:cad>81</ns3:cad>
          </ns3:TrackPointExtension>
        </extensions>
      </trkpt>
      <trkpt lat="52.10221915505826473236083984375" lon="1.348354518413543701171875">
        <ele>-39.799999237060546875</ele>
        <time>2025-09-05T13:58:39.000Z</time>
        <extensions>
          <ns3:TrackPointExtension>
            <ns3:hr>191</ns3:hr>
            <ns3:cad>81</ns3:cad>
          </ns3:TrackPointExtension>
        </extensions>
      </trkpt>
      <trkpt lat="52.10223943926393985748291015625" lon="1.348425932228565216064453125">
        <ele>-40</ele>
        <time>2025-09-05T13:58:41.000Z</time>
        <extensions>
          <ns3:TrackPointExtension>
            <ns3:hr>191</ns3:hr>
            <ns3:cad>81</ns3:cad>
          </ns3:TrackPointExtension>
        </extensions>
      </trkpt>
      <trkpt lat="52.10227011702954769134521484375" lon="1.34864176623523235321044921875">
        <ele>-40.799999237060546875</ele>
        <time>2025-09-05T13:58:47.000Z</time>
        <extensions>
          <ns3:TrackPointExtension>
            <ns3:hr>189</ns3:hr>
            <ns3:cad>81</ns3:cad>
          </ns3:TrackPointExtension>
        </extensions>
      </trkpt>
      <trkpt lat="52.10227346979081630706787109375" lon="1.34867982007563114166259765625">
        <ele>-40.799999237060546875</ele>
        <time>2025-09-05T13:58:48.000Z</time>
        <extensions>
          <ns3:TrackPointExtension>
            <ns3:hr>189</ns3:hr>
            <ns3:cad>81</ns3:cad>
          </ns3:TrackPointExtension>
        </extensions>
      </trkpt>
      <trkpt lat="52.10230297408998012542724609375" lon="1.348906718194484710693359375">
        <ele>-41.59999847412109375</ele>
        <time>2025-09-05T13:58:55.000Z</time>
        <extensions>
          <ns3:TrackPointExtension>
            <ns3:hr>190</ns3:hr>
            <ns3:cad>81</ns3:cad>
          </ns3:TrackPointExtension>
        </extensions>
      </trkpt>
      <trkpt lat="52.10231722332537174224853515625" lon="1.348932199180126190185546875">
        <ele>-41.799999237060546875</ele>
        <time>2025-09-05T13:58:56.000Z</time>
        <extensions>
          <ns3:TrackPointExtension>
            <ns3:hr>189</ns3:hr>
            <ns3:cad>81</ns3:cad>
          </ns3:TrackPointExtension>
        </extensions>
      </trkpt>
      <trkpt lat="52.10237757302820682525634765625" lon="1.34915088303387165069580078125">
        <ele>-42.799999237060546875</ele>
        <time>2025-09-05T13:59:03.000Z</time>
        <extensions>
          <ns3:TrackPointExtension>
            <ns3:hr>190</ns3:hr>
            <ns3:cad>81</ns3:cad>
          </ns3:TrackPointExtension>
        </extensions>
      </trkpt>
      <trkpt lat="52.10238545201718807220458984375" lon="1.34918508119881153106689453125">
        <ele>-42.799999237060546875</ele>
        <time>2025-09-05T13:59:04.000Z</time>
        <extensions>
          <ns3:TrackPointExtension>
            <ns3:hr>190</ns3:hr>
            <ns3:cad>81</ns3:cad>
          </ns3:TrackPointExtension>
        </extensions>
      </trkpt>
      <trkpt lat="52.10243339650332927703857421875" lon="1.3493766076862812042236328125">
        <ele>-43.59999847412109375</ele>
        <time>2025-09-05T13:59:10.000Z</time>
        <extensions>
          <ns3:TrackPointExtension>
            <ns3:hr>187</ns3:hr>
            <ns3:cad>81</ns3:cad>
          </ns3:TrackPointExtension>
        </extensions>
      </trkpt>
      <trkpt lat="52.1024430356919765472412109375" lon="1.3494067825376987457275390625">
        <ele>-43.59999847412109375</ele>
        <time>2025-09-05T13:59:11.000Z</time>
        <extensions>
          <ns3:TrackPointExtension>
            <ns3:hr>183</ns3:hr>
            <ns3:cad>81</ns3:cad>
          </ns3:TrackPointExtension>
        </extensions>
      </trkpt>
      <trkpt lat="52.1024665050208568572998046875" lon="1.34946160018444061279296875">
        <ele>-43.799999237060546875</ele>
        <time>2025-09-05T13:59:13.000Z</time>
        <extensions>
          <ns3:TrackPointExtension>
            <ns3:hr>179</ns3:hr>
            <ns3:cad>81</ns3:cad>
          </ns3:TrackPointExtension>
        </extensions>
      </trkpt>
      <trkpt lat="52.10247279144823551177978515625" lon="1.34949118830263614654541015625">
        <ele>-44</ele>
        <time>2025-09-05T13:59:14.000Z</time>
        <extensions>
          <ns3:TrackPointExtension>
            <ns3:hr>177</ns3:hr>
            <ns3:cad>81</ns3:cad>
          </ns3:TrackPointExtension>
        </extensions>
      </trkpt>
      <trkpt lat="52.1025037206709384918212890625" lon="1.34957148693501949310302734375">
        <ele>-44.200000762939453125</ele>
        <time>2025-09-05T13:59:17.000Z</time>
        <extensions>
          <ns3:TrackPointExtension>
            <ns3:hr>175</ns3:hr>
            <ns3:cad>81</ns3:cad>
          </ns3:TrackPointExtension>
        </extensions>
      </trkpt>
      <trkpt lat="52.102486453950405120849609375" lon="1.3496682979166507720947265625">
        <ele>-44.799999237060546875</ele>
        <time>2025-09-05T13:59:23.000Z</time>
        <extensions>
          <ns3:TrackPointExtension>
            <ns3:hr>174</ns3:hr>
            <ns3:cad>75</ns3:cad>
          </ns3:TrackPointExtension>
        </extensions>
      </trkpt>
      <trkpt lat="52.10249491967260837554931640625" lon="1.34969252161681652069091796875">
        <ele>-45</ele>
        <time>2025-09-05T13:59:25.000Z</time>
        <extensions>
          <ns3:TrackPointExtension>
            <ns3:hr>174</ns3:hr>
            <ns3:cad>72</ns3:cad>
          </ns3:TrackPointExtension>
        </extensions>
      </trkpt>
      <trkpt lat="52.1024936623871326446533203125" lon="1.34976427070796489715576171875">
        <ele>-46</ele>
        <time>2025-09-05T13:59:31.000Z</time>
        <extensions>
          <ns3:TrackPointExtension>
            <ns3:hr>173</ns3:hr>
            <ns3:cad>55</ns3:cad>
          </ns3:TrackPointExtension>
        </extensions>
      </trkpt>
      <trkpt lat="52.10249550640583038330078125" lon="1.34977181442081928253173828125">
        <ele>-46</ele>
        <time>2025-09-05T13:59:32.000Z</time>
        <extensions>
          <ns3:TrackPointExtension>
            <ns3:hr>173</ns3:hr>
            <ns3:cad>55</ns3:cad>
          </ns3:TrackPointExtension>
        </extensions>
      </trkpt>
      <trkpt lat="52.10249961353838443756103515625" lon="1.34980768896639347076416015625">
        <ele>-46.59999847412109375</ele>
        <time>2025-09-05T13:59:35.000Z</time>
        <extensions>
          <ns3:TrackPointExtension>
            <ns3:hr>170</ns3:hr>
            <ns3:cad>55</ns3:cad>
          </ns3:TrackPointExtension>
        </extensions>
      </trkpt>
      <trkpt lat="52.10252257995307445526123046875" lon="1.349856220185756683349609375">
        <ele>-47.200000762939453125</ele>
        <time>2025-09-05T13:59:38.000Z</time>
        <extensions>
          <ns3:TrackPointExtension>
            <ns3:hr>169</ns3:hr>
            <ns3:cad>77</ns3:cad>
          </ns3:TrackPointExtension>
        </extensions>
      </trkpt>
      <trkpt lat="52.10255309008061885833740234375" lon="1.349901147186756134033203125">
        <ele>-47.59999847412109375</ele>
        <time>2025-09-05T13:59:40.000Z</time>
        <extensions>
          <ns3:TrackPointExtension>
            <ns3:hr>166</ns3:hr>
            <ns3:cad>78</ns3:cad>
          </ns3:TrackPointExtension>
        </extensions>
      </trkpt>
      <trkpt lat="52.102608494460582733154296875" lon="1.349968872964382171630859375">
        <ele>-48.40000152587890625</ele>
        <time>2025-09-05T13:59:44.000Z</time>
        <extensions>
          <ns3:TrackPointExtension>
            <ns3:hr>170</ns3:hr>
            <ns3:cad>79</ns3:cad>
          </ns3:TrackPointExtension>
        </extensions>
      </trkpt>
      <trkpt lat="52.1026240848004817962646484375" lon="1.3499894924461841583251953125">
        <ele>-48.59999847412109375</ele>
        <time>2025-09-05T13:59:45.000Z</time>
        <extensions>
          <ns3:TrackPointExtension>
            <ns3:hr>171</ns3:hr>
            <ns3:cad>79</ns3:cad>
          </ns3:TrackPointExtension>
        </extensions>
      </trkpt>
      <trkpt lat="52.10271419025957584381103515625" lon="1.35006065480411052703857421875">
        <ele>-49.200000762939453125</ele>
        <time>2025-09-05T13:59:49.000Z</time>
        <extensions>
          <ns3:TrackPointExtension>
            <ns3:hr>174</ns3:hr>
            <ns3:cad>80</ns3:cad>
          </ns3:TrackPointExtension>
        </extensions>
      </trkpt>
      <trkpt lat="52.102739922702312469482421875" lon="1.3500723056495189666748046875">
        <ele>-49.40000152587890625</ele>
        <time>2025-09-05T13:59:50.000Z</time>
        <extensions>
          <ns3:TrackPointExtension>
            <ns3:hr>175</ns3:hr>
            <ns3:cad>80</ns3:cad>
          </ns3:TrackPointExtension>
        </extensions>
      </trkpt>
      <trkpt lat="52.10280169732868671417236328125" lon="1.35012536309659481048583984375">
        <ele>-50</ele>
        <time>2025-09-05T13:59:53.000Z</time>
        <extensions>
          <ns3:TrackPointExtension>
            <ns3:hr>177</ns3:hr>
            <ns3:cad>81</ns3:cad>
          </ns3:TrackPointExtension>
        </extensions>
      </trkpt>
      <trkpt lat="52.1028550900518894195556640625" lon="1.35019786655902862548828125">
        <ele>-50.59999847412109375</ele>
        <time>2025-09-05T13:59:57.000Z</time>
        <extensions>
          <ns3:TrackPointExtension>
            <ns3:hr>179</ns3:hr>
            <ns3:cad>81</ns3:cad>
          </ns3:TrackPointExtension>
        </extensions>
      </trkpt>
      <trkpt lat="52.10290043614804744720458984375" lon="1.35025511495769023895263671875">
        <ele>-51.200000762939453125</ele>
        <time>2025-09-05T14:00:01.000Z</time>
        <extensions>
          <ns3:TrackPointExtension>
            <ns3:hr>179</ns3:hr>
            <ns3:cad>80</ns3:cad>
          </ns3:TrackPointExtension>
        </extensions>
      </trkpt>
      <trkpt lat="52.1029224805533885955810546875" lon="1.35028528980910778045654296875">
        <ele>-51.40000152587890625</ele>
        <time>2025-09-05T14:00:03.000Z</time>
        <extensions>
          <ns3:TrackPointExtension>
            <ns3:hr>182</ns3:hr>
            <ns3:cad>81</ns3:cad>
          </ns3:TrackPointExtension>
        </extensions>
      </trkpt>
      <trkpt lat="52.1029670722782611846923828125" lon="1.3503321446478366851806640625">
        <ele>-51.59999847412109375</ele>
        <time>2025-09-05T14:00:06.000Z</time>
        <extensions>
          <ns3:TrackPointExtension>
            <ns3:hr>181</ns3:hr>
            <ns3:cad>81</ns3:cad>
          </ns3:TrackPointExtension>
        </extensions>
      </trkpt>
      <trkpt lat="52.1030502207577228546142578125" lon="1.3504119403660297393798828125">
        <ele>-52</ele>
        <time>2025-09-05T14:00:10.000Z</time>
        <extensions>
          <ns3:TrackPointExtension>
            <ns3:hr>182</ns3:hr>
            <ns3:cad>81</ns3:cad>
          </ns3:TrackPointExtension>
        </extensions>
      </trkpt>
      <trkpt lat="52.10320838727056980133056640625" lon="1.35051646269857883453369140625">
        <ele>-52.200000762939453125</ele>
        <time>2025-09-05T14:00:18.000Z</time>
        <extensions>
          <ns3:TrackPointExtension>
            <ns3:hr>178</ns3:hr>
            <ns3:cad>81</ns3:cad>
          </ns3:TrackPointExtension>
        </extensions>
      </trkpt>
      <trkpt lat="52.10322682745754718780517578125" lon="1.35052383877336978912353515625">
        <ele>-52.200000762939453125</ele>
        <time>2025-09-05T14:00:19.000Z</time>
        <extensions>
          <ns3:TrackPointExtension>
            <ns3:hr>177</ns3:hr>
            <ns3:cad>81</ns3:cad>
          </ns3:TrackPointExtension>
        </extensions>
      </trkpt>
      <trkpt lat="52.10337401367723941802978515625" lon="1.350624673068523406982421875">
        <ele>-52.200000762939453125</ele>
        <time>2025-09-05T14:00:27.000Z</time>
        <extensions>
          <ns3:TrackPointExtension>
            <ns3:hr>176</ns3:hr>
            <ns3:cad>81</ns3:cad>
          </ns3:TrackPointExtension>
        </extensions>
      </trkpt>
      <trkpt lat="52.10351265035569667816162109375" lon="1.35076121427118778228759765625">
        <ele>-52.200000762939453125</ele>
        <time>2025-09-05T14:00:35.000Z</time>
        <extensions>
          <ns3:TrackPointExtension>
            <ns3:hr>175</ns3:hr>
            <ns3:cad>81</ns3:cad>
          </ns3:TrackPointExtension>
        </extensions>
      </trkpt>
      <trkpt lat="52.103657908737659454345703125" lon="1.35093321092426776885986328125">
        <ele>-52.200000762939453125</ele>
        <time>2025-09-05T14:00:44.000Z</time>
        <extensions>
          <ns3:TrackPointExtension>
            <ns3:hr>175</ns3:hr>
            <ns3:cad>81</ns3:cad>
          </ns3:TrackPointExtension>
        </extensions>
      </trkpt>
      <trkpt lat="52.10378640331327915191650390625" lon="1.351045109331607818603515625">
        <ele>-52.200000762939453125</ele>
        <time>2025-09-05T14:00:51.000Z</time>
        <extensions>
          <ns3:TrackPointExtension>
            <ns3:hr>175</ns3:hr>
            <ns3:cad>81</ns3:cad>
          </ns3:TrackPointExtension>
        </extensions>
      </trkpt>
      <trkpt lat="52.10388313047587871551513671875" lon="1.35117528028786182403564453125">
        <ele>-52</ele>
        <time>2025-09-05T14:00:58.000Z</time>
        <extensions>
          <ns3:TrackPointExtension>
            <ns3:hr>177</ns3:hr>
            <ns3:cad>81</ns3:cad>
          </ns3:TrackPointExtension>
        </extensions>
      </trkpt>
      <trkpt lat="52.10405194200575351715087890625" lon="1.35129623115062713623046875">
        <ele>-52</ele>
        <time>2025-09-05T14:01:05.000Z</time>
        <extensions>
          <ns3:TrackPointExtension>
            <ns3:hr>178</ns3:hr>
            <ns3:cad>81</ns3:cad>
          </ns3:TrackPointExtension>
        </extensions>
      </trkpt>
      <trkpt lat="52.1041415445506572723388671875" lon="1.35140812955796718597412109375">
        <ele>-52.200000762939453125</ele>
        <time>2025-09-05T14:01:12.000Z</time>
        <extensions>
          <ns3:TrackPointExtension>
            <ns3:hr>176</ns3:hr>
            <ns3:cad>80</ns3:cad>
          </ns3:TrackPointExtension>
        </extensions>
      </trkpt>
      <trkpt lat="52.10431446321308612823486328125" lon="1.3515257276594638824462890625">
        <ele>-52.40000152587890625</ele>
        <time>2025-09-05T14:01:20.000Z</time>
        <extensions>
          <ns3:TrackPointExtension>
            <ns3:hr>177</ns3:hr>
            <ns3:cad>81</ns3:cad>
          </ns3:TrackPointExtension>
        </extensions>
      </trkpt>
      <trkpt lat="52.10445075295865535736083984375" lon="1.35170132853090763092041015625">
        <ele>-52.40000152587890625</ele>
        <time>2025-09-05T14:01:29.000Z</time>
        <extensions>
          <ns3:TrackPointExtension>
            <ns3:hr>177</ns3:hr>
            <ns3:cad>80</ns3:cad>
          </ns3:TrackPointExtension>
        </extensions>
      </trkpt>
      <trkpt lat="52.10445863194763660430908203125" lon="1.35171943344175815582275390625">
        <ele>-52.40000152587890625</ele>
        <time>2025-09-05T14:01:30.000Z</time>
        <extensions>
          <ns3:TrackPointExtension>
            <ns3:hr>180</ns3:hr>
            <ns3:cad>80</ns3:cad>
          </ns3:TrackPointExtension>
        </extensions>
      </trkpt>
      <trkpt lat="52.104461230337619781494140625" lon="1.35174013674259185791015625">
        <ele>-52.59999847412109375</ele>
        <time>2025-09-05T14:01:31.000Z</time>
        <extensions>
          <ns3:TrackPointExtension>
            <ns3:hr>179</ns3:hr>
            <ns3:cad>80</ns3:cad>
          </ns3:TrackPointExtension>
        </extensions>
      </trkpt>
      <trkpt lat="52.1044758148491382598876953125" lon="1.351774670183658599853515625">
        <ele>-52.59999847412109375</ele>
        <time>2025-09-05T14:01:34.000Z</time>
        <extensions>
          <ns3:TrackPointExtension>
            <ns3:hr>179</ns3:hr>
            <ns3:cad>0</ns3:cad>
          </ns3:TrackPointExtension>
        </extensions>
      </trkpt>
      <trkpt lat="52.10447338409721851348876953125" lon="1.351782716810703277587890625">
        <ele>-52.59999847412109375</ele>
        <time>2025-09-05T14:01:36.000Z</time>
        <extensions>
          <ns3:TrackPointExtension>
            <ns3:hr>176</ns3:hr>
            <ns3:cad>0</ns3:cad>
          </ns3:TrackPointExtension>
        </extensions>
      </trkpt>
      <trkpt lat="52.10450054146349430084228515625" lon="1.351741142570972442626953125">
        <ele>-52.59999847412109375</ele>
        <time>2025-09-05T14:01:40.000Z</time>
        <extensions>
          <ns3:TrackPointExtension>
            <ns3:hr>173</ns3:hr>
            <ns3:cad>0</ns3:cad>
          </ns3:TrackPointExtension>
        </extensions>
      </trkpt>
      <trkpt lat="52.10449785925447940826416015625" lon="1.35173317976295948028564453125">
        <ele>-52.59999847412109375</ele>
        <time>2025-09-05T14:01:41.000Z</time>
        <extensions>
          <ns3:TrackPointExtension>
            <ns3:hr>173</ns3:hr>
            <ns3:cad>0</ns3:cad>
          </ns3:TrackPointExtension>
        </extensions>
      </trkpt>
      <trkpt lat="52.10452283732593059539794921875" lon="1.3517382927238941192626953125">
        <ele>-52.59999847412109375</ele>
        <time>2025-09-05T14:01:43.000Z</time>
        <extensions>
          <ns3:TrackPointExtension>
            <ns3:hr>171</ns3:hr>
            <ns3:cad>0</ns3:cad>
          </ns3:TrackPointExtension>
        </extensions>
      </trkpt>
      <trkpt lat="52.10455116815865039825439453125" lon="1.35174742899835109710693359375">
        <ele>-52.59999847412109375</ele>
        <time>2025-09-05T14:01:47.000Z</time>
        <extensions>
          <ns3:TrackPointExtension>
            <ns3:hr>168</ns3:hr>
            <ns3:cad>0</ns3:cad>
          </ns3:TrackPointExtension>
        </extensions>
      </trkpt>
      <trkpt lat="52.10454312153160572052001953125" lon="1.35175765492022037506103515625">
        <ele>-52.799999237060546875</ele>
        <time>2025-09-05T14:01:50.000Z</time>
        <extensions>
          <ns3:TrackPointExtension>
            <ns3:hr>165</ns3:hr>
            <ns3:cad>0</ns3:cad>
          </ns3:TrackPointExtension>
        </extensions>
      </trkpt>
      <trkpt lat="52.1045455522835254669189453125" lon="1.35174374096095561981201171875">
        <ele>-53</ele>
        <time>2025-09-05T14:01:55.000Z</time>
        <extensions>
          <ns3:TrackPointExtension>
            <ns3:hr>165</ns3:hr>
            <ns3:cad>0</ns3:cad>
          </ns3:TrackPointExtension>
        </extensions>
      </trkpt>
      <trkpt lat="52.10458938963711261749267578125" lon="1.35174089111387729644775390625">
        <ele>-53.40000152587890625</ele>
        <time>2025-09-05T14:01:59.000Z</time>
        <extensions>
          <ns3:TrackPointExtension>
            <ns3:hr>161</ns3:hr>
            <ns3:cad>0</ns3:cad>
          </ns3:TrackPointExtension>
        </extensions>
      </trkpt>
      <trkpt lat="52.104621492326259613037109375" lon="1.35176293551921844482421875">
        <ele>-53.59999847412109375</ele>
        <time>2025-09-05T14:02:02.000Z</time>
        <extensions>
          <ns3:TrackPointExtension>
            <ns3:hr>160</ns3:hr>
            <ns3:cad>0</ns3:cad>
          </ns3:TrackPointExtension>
        </extensions>
      </trkpt>
      <trkpt lat="52.10463247261941432952880859375" lon="1.3517748378217220306396484375">
        <ele>-53.799999237060546875</ele>
        <time>2025-09-05T14:02:03.000Z</time>
        <extensions>
          <ns3:TrackPointExtension>
            <ns3:hr>159</ns3:hr>
            <ns3:cad>0</ns3:cad>
          </ns3:TrackPointExtension>
        </extensions>
      </trkpt>
      <trkpt lat="52.10471277125179767608642578125" lon="1.35186494328081607818603515625">
        <ele>-54.40000152587890625</ele>
        <time>2025-09-05T14:02:07.000Z</time>
        <extensions>
          <ns3:TrackPointExtension>
            <ns3:hr>164</ns3:hr>
            <ns3:cad>79</ns3:cad>
          </ns3:TrackPointExtension>
        </extensions>
      </trkpt>
      <trkpt lat="52.10473003797233104705810546875" lon="1.3518856465816497802734375">
        <ele>-54.59999847412109375</ele>
        <time>2025-09-05T14:02:08.000Z</time>
        <extensions>
          <ns3:TrackPointExtension>
            <ns3:hr>167</ns3:hr>
            <ns3:cad>79</ns3:cad>
          </ns3:TrackPointExtension>
        </extensions>
      </trkpt>
      <trkpt lat="52.1047460474073886871337890625" lon="1.35190215893089771270751953125">
        <ele>-54.799999237060546875</ele>
        <time>2025-09-05T14:02:09.000Z</time>
        <extensions>
          <ns3:TrackPointExtension>
            <ns3:hr>170</ns3:hr>
            <ns3:cad>80</ns3:cad>
          </ns3:TrackPointExtension>
        </extensions>
      </trkpt>
      <trkpt lat="52.10476239211857318878173828125" lon="1.35191657580435276031494140625">
        <ele>-55</ele>
        <time>2025-09-05T14:02:10.000Z</time>
        <extensions>
          <ns3:TrackPointExtension>
            <ns3:hr>171</ns3:hr>
            <ns3:cad>81</ns3:cad>
          </ns3:TrackPointExtension>
        </extensions>
      </trkpt>
      <trkpt lat="52.10479189641773700714111328125" lon="1.3519552163779735565185546875">
        <ele>-55.40000152587890625</ele>
        <time>2025-09-05T14:02:12.000Z</time>
        <extensions>
          <ns3:TrackPointExtension>
            <ns3:hr>176</ns3:hr>
            <ns3:cad>82</ns3:cad>
          </ns3:TrackPointExtension>
        </extensions>
      </trkpt>
      <trkpt lat="52.10482123307883739471435546875" lon="1.35200810618698596954345703125">
        <ele>-55.799999237060546875</ele>
        <time>2025-09-05T14:02:15.000Z</time>
        <extensions>
          <ns3:TrackPointExtension>
            <ns3:hr>179</ns3:hr>
            <ns3:cad>82</ns3:cad>
          </ns3:TrackPointExtension>
        </extensions>
      </trkpt>
      <trkpt lat="52.1048288606107234954833984375" lon="1.3520306535065174102783203125">
        <ele>-56</ele>
        <time>2025-09-05T14:02:16.000Z</time>
        <extensions>
          <ns3:TrackPointExtension>
            <ns3:hr>179</ns3:hr>
            <ns3:cad>82</ns3:cad>
          </ns3:TrackPointExtension>
        </extensions>
      </trkpt>
      <trkpt lat="52.104842774569988250732421875" lon="1.35204456746578216552734375">
        <ele>-56.200000762939453125</ele>
        <time>2025-09-05T14:02:17.000Z</time>
        <extensions>
          <ns3:TrackPointExtension>
            <ns3:hr>178</ns3:hr>
            <ns3:cad>82</ns3:cad>
          </ns3:TrackPointExtension>
        </extensions>
      </trkpt>
      <trkpt lat="52.104895748198032379150390625" lon="1.3520886562764644622802734375">
        <ele>-56.799999237060546875</ele>
        <time>2025-09-05T14:02:20.000Z</time>
        <extensions>
          <ns3:TrackPointExtension>
            <ns3:hr>175</ns3:hr>
            <ns3:cad>82</ns3:cad>
          </ns3:TrackPointExtension>
        </extensions>
      </trkpt>
      <trkpt lat="52.1049411781132221221923828125" lon="1.352116651833057403564453125">
        <ele>-57</ele>
        <time>2025-09-05T14:02:22.000Z</time>
        <extensions>
          <ns3:TrackPointExtension>
            <ns3:hr>177</ns3:hr>
            <ns3:cad>82</ns3:cad>
          </ns3:TrackPointExtension>
        </extensions>
      </trkpt>
      <trkpt lat="52.10500144399702548980712890625" lon="1.352180354297161102294921875">
        <ele>-57.59999847412109375</ele>
        <time>2025-09-05T14:02:26.000Z</time>
        <extensions>
          <ns3:TrackPointExtension>
            <ns3:hr>178</ns3:hr>
            <ns3:cad>82</ns3:cad>
          </ns3:TrackPointExtension>
        </extensions>
      </trkpt>
      <trkpt lat="52.1050427667796611785888671875" lon="1.35220172815024852752685546875">
        <ele>-57.799999237060546875</ele>
        <time>2025-09-05T14:02:28.000Z</time>
        <extensions>
          <ns3:TrackPointExtension>
            <ns3:hr>175</ns3:hr>
            <ns3:cad>82</ns3:cad>
          </ns3:TrackPointExtension>
        </extensions>
      </trkpt>
      <trkpt lat="52.10509590804576873779296875" lon="1.35221664793789386749267578125">
        <ele>-58.200000762939453125</ele>
        <time>2025-09-05T14:02:31.000Z</time>
        <extensions>
          <ns3:TrackPointExtension>
            <ns3:hr>176</ns3:hr>
            <ns3:cad>81</ns3:cad>
          </ns3:TrackPointExtension>
        </extensions>
      </trkpt>
      <trkpt lat="52.10518500767648220062255859375" lon="1.3522562943398952484130859375">
        <ele>-58.40000152587890625</ele>
        <time>2025-09-05T14:02:35.000Z</time>
        <extensions>
          <ns3:TrackPointExtension>
            <ns3:hr>175</ns3:hr>
            <ns3:cad>81</ns3:cad>
          </ns3:TrackPointExtension>
        </extensions>
      </trkpt>
      <trkpt lat="52.105318866670131683349609375" lon="1.35239702649414539337158203125">
        <ele>-58.40000152587890625</ele>
        <time>2025-09-05T14:02:43.000Z</time>
        <extensions>
          <ns3:TrackPointExtension>
            <ns3:hr>175</ns3:hr>
            <ns3:cad>81</ns3:cad>
          </ns3:TrackPointExtension>
        </extensions>
      </trkpt>
      <trkpt lat="52.1054769493639469146728515625" lon="1.35249207727611064910888671875">
        <ele>-58.40000152587890625</ele>
        <time>2025-09-05T14:02:52.000Z</time>
        <extensions>
          <ns3:TrackPointExtension>
            <ns3:hr>176</ns3:hr>
            <ns3:cad>81</ns3:cad>
          </ns3:TrackPointExtension>
        </extensions>
      </trkpt>
      <trkpt lat="52.10565372370183467864990234375" lon="1.3526314683258533477783203125">
        <ele>-58.59999847412109375</ele>
        <time>2025-09-05T14:03:00.000Z</time>
        <extensions>
          <ns3:TrackPointExtension>
            <ns3:hr>177</ns3:hr>
            <ns3:cad>81</ns3:cad>
          </ns3:TrackPointExtension>
        </extensions>
      </trkpt>
      <trkpt lat="52.10573268122971057891845703125" lon="1.35271889157593250274658203125">
        <ele>-58.799999237060546875</ele>
        <time>2025-09-05T14:03:04.000Z</time>
        <extensions>
          <ns3:TrackPointExtension>
            <ns3:hr>174</ns3:hr>
            <ns3:cad>81</ns3:cad>
          </ns3:TrackPointExtension>
        </extensions>
      </trkpt>
      <trkpt lat="52.10587198846042156219482421875" lon="1.35281360708177089691162109375">
        <ele>-59</ele>
        <time>2025-09-05T14:03:09.000Z</time>
        <extensions>
          <ns3:TrackPointExtension>
            <ns3:hr>173</ns3:hr>
            <ns3:cad>81</ns3:cad>
          </ns3:TrackPointExtension>
        </extensions>
      </trkpt>
      <trkpt lat="52.10593317635357379913330078125" lon="1.35284361429512500762939453125">
        <ele>-59.200000762939453125</ele>
        <time>2025-09-05T14:03:11.000Z</time>
        <extensions>
          <ns3:TrackPointExtension>
            <ns3:hr>173</ns3:hr>
            <ns3:cad>81</ns3:cad>
          </ns3:TrackPointExtension>
        </extensions>
      </trkpt>
      <trkpt lat="52.106042392551898956298828125" lon="1.35295073501765727996826171875">
        <ele>-59.59999847412109375</ele>
        <time>2025-09-05T14:03:17.000Z</time>
        <extensions>
          <ns3:TrackPointExtension>
            <ns3:hr>173</ns3:hr>
            <ns3:cad>81</ns3:cad>
          </ns3:TrackPointExtension>
        </extensions>
      </trkpt>
      <trkpt lat="52.10611992515623569488525390625" lon="1.35307461954653263092041015625">
        <ele>-60</ele>
        <time>2025-09-05T14:03:23.000Z</time>
        <extensions>
          <ns3:TrackPointExtension>
            <ns3:hr>173</ns3:hr>
            <ns3:cad>81</ns3:cad>
          </ns3:TrackPointExtension>
        </extensions>
      </trkpt>
      <trkpt lat="52.1061330847442150115966796875" lon="1.353126503527164459228515625">
        <ele>-60.200000762939453125</ele>
        <time>2025-09-05T14:03:25.000Z</time>
        <extensions>
          <ns3:TrackPointExtension>
            <ns3:hr>174</ns3:hr>
            <ns3:cad>81</ns3:cad>
          </ns3:TrackPointExtension>
        </extensions>
      </trkpt>
      <trkpt lat="52.10620692931115627288818359375" lon="1.35329238139092922210693359375">
        <ele>-60.59999847412109375</ele>
        <time>2025-09-05T14:03:30.000Z</time>
        <extensions>
          <ns3:TrackPointExtension>
            <ns3:hr>177</ns3:hr>
            <ns3:cad>81</ns3:cad>
          </ns3:TrackPointExtension>
        </extensions>
      </trkpt>
      <trkpt lat="52.10622310638427734375" lon="1.35332708247005939483642578125">
        <ele>-60.59999847412109375</ele>
        <time>2025-09-05T14:03:31.000Z</time>
        <extensions>
          <ns3:TrackPointExtension>
            <ns3:hr>177</ns3:hr>
            <ns3:cad>81</ns3:cad>
          </ns3:TrackPointExtension>
        </extensions>
      </trkpt>
      <trkpt lat="52.106358222663402557373046875" lon="1.353481896221637725830078125">
        <ele>-61</ele>
        <time>2025-09-05T14:03:37.000Z</time>
        <extensions>
          <ns3:TrackPointExtension>
            <ns3:hr>178</ns3:hr>
            <ns3:cad>80</ns3:cad>
          </ns3:TrackPointExtension>
        </extensions>
      </trkpt>
      <trkpt lat="52.106405831873416900634765625" lon="1.35356806218624114990234375">
        <ele>-61.200000762939453125</ele>
        <time>2025-09-05T14:03:40.000Z</time>
        <extensions>
          <ns3:TrackPointExtension>
            <ns3:hr>177</ns3:hr>
            <ns3:cad>81</ns3:cad>
          </ns3:TrackPointExtension>
        </extensions>
      </trkpt>
      <trkpt lat="52.10645553655922412872314453125" lon="1.35367828421294689178466796875">
        <ele>-61.59999847412109375</ele>
        <time>2025-09-05T14:03:44.000Z</time>
        <extensions>
          <ns3:TrackPointExtension>
            <ns3:hr>175</ns3:hr>
            <ns3:cad>81</ns3:cad>
          </ns3:TrackPointExtension>
        </extensions>
      </trkpt>
      <trkpt lat="52.106592915952205657958984375" lon="1.35382018983364105224609375">
        <ele>-62</ele>
        <time>2025-09-05T14:03:51.000Z</time>
        <extensions>
          <ns3:TrackPointExtension>
            <ns3:hr>177</ns3:hr>
            <ns3:cad>81</ns3:cad>
          </ns3:TrackPointExtension>
        </extensions>
      </trkpt>
      <trkpt lat="52.10666022263467311859130859375" lon="1.3539132289588451385498046875">
        <ele>-62.200000762939453125</ele>
        <time>2025-09-05T14:03:56.000Z</time>
        <extensions>
          <ns3:TrackPointExtension>
            <ns3:hr>177</ns3:hr>
            <ns3:cad>81</ns3:cad>
          </ns3:TrackPointExtension>
        </extensions>
      </trkpt>
      <trkpt lat="52.106716297566890716552734375" lon="1.35397450067102909088134765625">
        <ele>-62.40000152587890625</ele>
        <time>2025-09-05T14:04:00.000Z</time>
        <extensions>
          <ns3:TrackPointExtension>
            <ns3:hr>178</ns3:hr>
            <ns3:cad>81</ns3:cad>
          </ns3:TrackPointExtension>
        </extensions>
      </trkpt>
      <trkpt lat="52.10677840746939182281494140625" lon="1.35418857447803020477294921875">
        <ele>-62.799999237060546875</ele>
        <time>2025-09-05T14:04:06.000Z</time>
        <extensions>
          <ns3:TrackPointExtension>
            <ns3:hr>176</ns3:hr>
            <ns3:cad>80</ns3:cad>
          </ns3:TrackPointExtension>
        </extensions>
      </trkpt>
      <trkpt lat="52.1068440377712249755859375" lon="1.35439552366733551025390625">
        <ele>-63.200000762939453125</ele>
        <time>2025-09-05T14:04:13.000Z</time>
        <extensions>
          <ns3:TrackPointExtension>
            <ns3:hr>175</ns3:hr>
            <ns3:cad>81</ns3:cad>
          </ns3:TrackPointExtension>
        </extensions>
      </trkpt>
      <trkpt lat="52.1068478934466838836669921875" lon="1.35441890917718410491943359375">
        <ele>-63.40000152587890625</ele>
        <time>2025-09-05T14:04:14.000Z</time>
        <extensions>
          <ns3:TrackPointExtension>
            <ns3:hr>176</ns3:hr>
            <ns3:cad>81</ns3:cad>
          </ns3:TrackPointExtension>
        </extensions>
      </trkpt>
      <trkpt lat="52.10685283876955509185791015625" lon="1.35467455722391605377197265625">
        <ele>-63.200000762939453125</ele>
        <time>2025-09-05T14:04:24.000Z</time>
        <extensions>
          <ns3:TrackPointExtension>
            <ns3:hr>176</ns3:hr>
            <ns3:cad>81</ns3:cad>
          </ns3:TrackPointExtension>
        </extensions>
      </trkpt>
      <trkpt lat="52.1068143658339977264404296875" lon="1.35489567182958126068115234375">
        <ele>-62.200000762939453125</ele>
        <time>2025-09-05T14:04:31.000Z</time>
        <extensions>
          <ns3:TrackPointExtension>
            <ns3:hr>176</ns3:hr>
            <ns3:cad>61</ns3:cad>
          </ns3:TrackPointExtension>
        </extensions>
      </trkpt>
      <trkpt lat="52.10680472664535045623779296875" lon="1.35492349974811077117919921875">
        <ele>-62.200000762939453125</ele>
        <time>2025-09-05T14:04:32.000Z</time>
        <extensions>
          <ns3:TrackPointExtension>
            <ns3:hr>177</ns3:hr>
            <ns3:cad>61</ns3:cad>
          </ns3:TrackPointExtension>
        </extensions>
      </trkpt>
      <trkpt lat="52.10677555762231349945068359375" lon="1.3550970889627933502197265625">
        <ele>-61.40000152587890625</ele>
        <time>2025-09-05T14:04:38.000Z</time>
        <extensions>
          <ns3:TrackPointExtension>
            <ns3:hr>178</ns3:hr>
            <ns3:cad>0</ns3:cad>
          </ns3:TrackPointExtension>
        </extensions>
      </trkpt>
      <trkpt lat="52.10676767863333225250244140625" lon="1.35516188107430934906005859375">
        <ele>-61.200000762939453125</ele>
        <time>2025-09-05T14:04:43.000Z</time>
        <extensions>
          <ns3:TrackPointExtension>
            <ns3:hr>177</ns3:hr>
            <ns3:cad>0</ns3:cad>
          </ns3:TrackPointExtension>
        </extensions>
      </trkpt>
      <trkpt lat="52.106770612299442291259765625" lon="1.3551540859043598175048828125">
        <ele>-61.200000762939453125</ele>
        <time>2025-09-05T14:04:46.000Z</time>
        <extensions>
          <ns3:TrackPointExtension>
            <ns3:hr>174</ns3:hr>
            <ns3:cad>0</ns3:cad>
          </ns3:TrackPointExtension>
        </extensions>
      </trkpt>
      <trkpt lat="52.106769941747188568115234375" lon="1.35515383444726467132568359375">
        <ele>-61.40000152587890625</ele>
        <time>2025-09-05T14:04:50.000Z</time>
        <extensions>
          <ns3:TrackPointExtension>
            <ns3:hr>169</ns3:hr>
            <ns3:cad>0</ns3:cad>
          </ns3:TrackPointExtension>
        </extensions>
      </trkpt>
      <trkpt lat="52.10676969029009342193603515625" lon="1.3551550917327404022216796875">
        <ele>-62.200000762939453125</ele>
        <time>2025-09-05T14:04:56.000Z</time>
        <extensions>
          <ns3:TrackPointExtension>
            <ns3:hr>168</ns3:hr>
            <ns3:cad>0</ns3:cad>
          </ns3:TrackPointExtension>
        </extensions>
      </trkpt>
      <trkpt lat="52.10677807219326496124267578125" lon="1.35515349917113780975341796875">
        <ele>-62.59999847412109375</ele>
        <time>2025-09-05T14:04:58.000Z</time>
        <extensions>
          <ns3:TrackPointExtension>
            <ns3:hr>168</ns3:hr>
            <ns3:cad>0</ns3:cad>
          </ns3:TrackPointExtension>
        </extensions>
      </trkpt>
      <trkpt lat="52.106788046658039093017578125" lon="1.3551497273147106170654296875">
        <ele>-63.40000152587890625</ele>
        <time>2025-09-05T14:05:01.000Z</time>
        <extensions>
          <ns3:TrackPointExtension>
            <ns3:hr>166</ns3:hr>
            <ns3:cad>0</ns3:cad>
          </ns3:TrackPointExtension>
        </extensions>
      </trkpt>
      <trkpt lat="52.1067917346954345703125" lon="1.35515551082789897918701171875">
        <ele>-64</ele>
        <time>2025-09-05T14:05:04.000Z</time>
        <extensions>
          <ns3:TrackPointExtension>
            <ns3:hr>163</ns3:hr>
            <ns3:cad>0</ns3:cad>
          </ns3:TrackPointExtension>
        </extensions>
      </trkpt>
      <trkpt lat="52.10679374635219573974609375" lon="1.35516137816011905670166015625">
        <ele>-64.59999847412109375</ele>
        <time>2025-09-05T14:05:06.000Z</time>
        <extensions>
          <ns3:TrackPointExtension>
            <ns3:hr>164</ns3:hr>
            <ns3:cad>0</ns3:cad>
          </ns3:TrackPointExtension>
        </extensions>
      </trkpt>
      <trkpt lat="52.10679600946605205535888671875" lon="1.35516590438783168792724609375">
        <ele>-65.40000152587890625</ele>
        <time>2025-09-05T14:05:09.000Z</time>
        <extensions>
          <ns3:TrackPointExtension>
            <ns3:hr>167</ns3:hr>
            <ns3:cad>0</ns3:cad>
          </ns3:TrackPointExtension>
        </extensions>
      </trkpt>
      <trkpt lat="52.10679642856121063232421875" lon="1.35516640730202198028564453125">
        <ele>-65.59999847412109375</ele>
        <time>2025-09-05T14:05:10.000Z</time>
        <extensions>
          <ns3:TrackPointExtension>
            <ns3:hr>170</ns3:hr>
            <ns3:cad>0</ns3:cad>
          </ns3:TrackPointExtension>
        </extensions>
      </trkpt>
      <trkpt lat="52.1067972667515277862548828125" lon="1.3551681675016880035400390625">
        <ele>-66.1999969482421875</ele>
        <time>2025-09-05T14:05:12.000Z</time>
        <extensions>
          <ns3:TrackPointExtension>
            <ns3:hr>171</ns3:hr>
            <ns3:cad>0</ns3:cad>
          </ns3:TrackPointExtension>
        </extensions>
      </trkpt>
      <trkpt lat="52.10679617710411548614501953125" lon="1.3551752083003520965576171875">
        <ele>-66.59999847412109375</ele>
        <time>2025-09-05T14:05:14.000Z</time>
        <extensions>
          <ns3:TrackPointExtension>
            <ns3:hr>172</ns3:hr>
            <ns3:cad>0</ns3:cad>
          </ns3:TrackPointExtension>
        </extensions>
      </trkpt>
      <trkpt lat="52.106805145740509033203125" lon="1.35518987663090229034423828125">
        <ele>-67.8000030517578125</ele>
        <time>2025-09-05T14:05:18.000Z</time>
        <extensions>
          <ns3:TrackPointExtension>
            <ns3:hr>172</ns3:hr>
            <ns3:cad>0</ns3:cad>
          </ns3:TrackPointExtension>
        </extensions>
      </trkpt>
      <trkpt lat="52.10682065226137638092041015625" lon="1.355188786983489990234375">
        <ele>-68.8000030517578125</ele>
        <time>2025-09-05T14:05:22.000Z</time>
        <extensions>
          <ns3:TrackPointExtension>
            <ns3:hr>170</ns3:hr>
            <ns3:cad>0</ns3:cad>
          </ns3:TrackPointExtension>
        </extensions>
      </trkpt>
      <trkpt lat="52.10683288984000682830810546875" lon="1.355192475020885467529296875">
        <ele>-70</ele>
        <time>2025-09-05T14:05:26.000Z</time>
        <extensions>
          <ns3:TrackPointExtension>
            <ns3:hr>168</ns3:hr>
            <ns3:cad>0</ns3:cad>
          </ns3:TrackPointExtension>
        </extensions>
      </trkpt>
      <trkpt lat="52.10684495978057384490966796875" lon="1.35520697571337223052978515625">
        <ele>-71.1999969482421875</ele>
        <time>2025-09-05T14:05:30.000Z</time>
        <extensions>
          <ns3:TrackPointExtension>
            <ns3:hr>166</ns3:hr>
            <ns3:cad>0</ns3:cad>
          </ns3:TrackPointExtension>
        </extensions>
      </trkpt>
      <trkpt lat="52.10683724842965602874755859375" lon="1.3552184589207172393798828125">
        <ele>-72.1999969482421875</ele>
        <time>2025-09-05T14:05:34.000Z</time>
        <extensions>
          <ns3:TrackPointExtension>
            <ns3:hr>163</ns3:hr>
            <ns3:cad>0</ns3:cad>
          </ns3:TrackPointExtension>
        </extensions>
      </trkpt>
      <trkpt lat="52.106845378875732421875" lon="1.35526196099817752838134765625">
        <ele>-73.1999969482421875</ele>
        <time>2025-09-05T14:05:37.000Z</time>
        <extensions>
          <ns3:TrackPointExtension>
            <ns3:hr>160</ns3:hr>
            <ns3:cad>0</ns3:cad>
          </ns3:TrackPointExtension>
        </extensions>
      </trkpt>
      <trkpt lat="52.10684479214251041412353515625" lon="1.35526724159717559814453125">
        <ele>-73.40000152587890625</ele>
        <time>2025-09-05T14:05:38.000Z</time>
        <extensions>
          <ns3:TrackPointExtension>
            <ns3:hr>160</ns3:hr>
            <ns3:cad>0</ns3:cad>
          </ns3:TrackPointExtension>
        </extensions>
      </trkpt>
      <trkpt lat="52.106845714151859283447265625" lon="1.35529397986829280853271484375">
        <ele>-74</ele>
        <time>2025-09-05T14:05:40.000Z</time>
        <extensions>
          <ns3:TrackPointExtension>
            <ns3:hr>159</ns3:hr>
            <ns3:cad>0</ns3:cad>
          </ns3:TrackPointExtension>
        </extensions>
      </trkpt>
      <trkpt lat="52.1068374998867511749267578125" lon="1.35534795932471752166748046875">
        <ele>-74.59999847412109375</ele>
        <time>2025-09-05T14:05:42.000Z</time>
        <extensions>
          <ns3:TrackPointExtension>
            <ns3:hr>158</ns3:hr>
            <ns3:cad>55</ns3:cad>
          </ns3:TrackPointExtension>
        </extensions>
      </trkpt>
      <trkpt lat="52.10683674551546573638916015625" lon="1.355521380901336669921875">
        <ele>-75.8000030517578125</ele>
        <time>2025-09-05T14:05:47.000Z</time>
        <extensions>
          <ns3:TrackPointExtension>
            <ns3:hr>159</ns3:hr>
            <ns3:cad>81</ns3:cad>
          </ns3:TrackPointExtension>
        </extensions>
      </trkpt>
      <trkpt lat="52.1068629808723926544189453125" lon="1.3557854108512401580810546875">
        <ele>-76.59999847412109375</ele>
        <time>2025-09-05T14:05:54.000Z</time>
        <extensions>
          <ns3:TrackPointExtension>
            <ns3:hr>164</ns3:hr>
            <ns3:cad>81</ns3:cad>
          </ns3:TrackPointExtension>
        </extensions>
      </trkpt>
      <trkpt lat="52.10686775855720043182373046875" lon="1.35583050549030303955078125">
        <ele>-76.8000030517578125</ele>
        <time>2025-09-05T14:05:55.000Z</time>
        <extensions>
          <ns3:TrackPointExtension>
            <ns3:hr>167</ns3:hr>
            <ns3:cad>81</ns3:cad>
          </ns3:TrackPointExtension>
        </extensions>
      </trkpt>
      <trkpt lat="52.1068817563354969024658203125" lon="1.355913318693637847900390625">
        <ele>-76.8000030517578125</ele>
        <time>2025-09-05T14:05:57.000Z</time>
        <extensions>
          <ns3:TrackPointExtension>
            <ns3:hr>172</ns3:hr>
            <ns3:cad>82</ns3:cad>
          </ns3:TrackPointExtension>
        </extensions>
      </trkpt>
      <trkpt lat="52.1068827621638774871826171875" lon="1.3559912703931331634521484375">
        <ele>-76.8000030517578125</ele>
        <time>2025-09-05T14:05:59.000Z</time>
        <extensions>
          <ns3:TrackPointExtension>
            <ns3:hr>176</ns3:hr>
            <ns3:cad>83</ns3:cad>
          </ns3:TrackPointExtension>
        </extensions>
      </trkpt>
      <trkpt lat="52.10688619874417781829833984375" lon="1.3560972176492214202880859375">
        <ele>-76.59999847412109375</ele>
        <time>2025-09-05T14:06:02.000Z</time>
        <extensions>
          <ns3:TrackPointExtension>
            <ns3:hr>179</ns3:hr>
            <ns3:cad>83</ns3:cad>
          </ns3:TrackPointExtension>
        </extensions>
      </trkpt>
      <trkpt lat="52.10689525119960308074951171875" lon="1.35617927648127079010009765625">
        <ele>-76.59999847412109375</ele>
        <time>2025-09-05T14:06:04.000Z</time>
        <extensions>
          <ns3:TrackPointExtension>
            <ns3:hr>182</ns3:hr>
            <ns3:cad>83</ns3:cad>
          </ns3:TrackPointExtension>
        </extensions>
      </trkpt>
      <trkpt lat="52.106888629496097564697265625" lon="1.35625722818076610565185546875">
        <ele>-76.40000152587890625</ele>
        <time>2025-09-05T14:06:06.000Z</time>
        <extensions>
          <ns3:TrackPointExtension>
            <ns3:hr>183</ns3:hr>
            <ns3:cad>83</ns3:cad>
          </ns3:TrackPointExtension>
        </extensions>
      </trkpt>
      <trkpt lat="52.1068867854773998260498046875" lon="1.356294192373752593994140625">
        <ele>-76.1999969482421875</ele>
        <time>2025-09-05T14:06:07.000Z</time>
        <extensions>
          <ns3:TrackPointExtension>
            <ns3:hr>186</ns3:hr>
            <ns3:cad>83</ns3:cad>
          </ns3:TrackPointExtension>
        </extensions>
      </trkpt>
      <trkpt lat="52.10687848739326000213623046875" lon="1.35637222789227962493896484375">
        <ele>-76</ele>
        <time>2025-09-05T14:06:09.000Z</time>
        <extensions>
          <ns3:TrackPointExtension>
            <ns3:hr>184</ns3:hr>
            <ns3:cad>83</ns3:cad>
          </ns3:TrackPointExtension>
        </extensions>
      </trkpt>
      <trkpt lat="52.1068775653839111328125" lon="1.356439031660556793212890625">
        <ele>-75.59999847412109375</ele>
        <time>2025-09-05T14:06:11.000Z</time>
        <extensions>
          <ns3:TrackPointExtension>
            <ns3:hr>186</ns3:hr>
            <ns3:cad>83</ns3:cad>
          </ns3:TrackPointExtension>
        </extensions>
      </trkpt>
      <trkpt lat="52.10690413601696491241455078125" lon="1.3566412031650543212890625">
        <ele>-74.8000030517578125</ele>
        <time>2025-09-05T14:06:16.000Z</time>
        <extensions>
          <ns3:TrackPointExtension>
            <ns3:hr>186</ns3:hr>
            <ns3:cad>83</ns3:cad>
          </ns3:TrackPointExtension>
        </extensions>
      </trkpt>
      <trkpt lat="52.10690480656921863555908203125" lon="1.35668369941413402557373046875">
        <ele>-74.59999847412109375</ele>
        <time>2025-09-05T14:06:17.000Z</time>
        <extensions>
          <ns3:TrackPointExtension>
            <ns3:hr>187</ns3:hr>
            <ns3:cad>83</ns3:cad>
          </ns3:TrackPointExtension>
        </extensions>
      </trkpt>
      <trkpt lat="52.1069313772022724151611328125" lon="1.35685720480978488922119140625">
        <ele>-73.59999847412109375</ele>
        <time>2025-09-05T14:06:22.000Z</time>
        <extensions>
          <ns3:TrackPointExtension>
            <ns3:hr>188</ns3:hr>
            <ns3:cad>83</ns3:cad>
          </ns3:TrackPointExtension>
        </extensions>
      </trkpt>
      <trkpt lat="52.10695065557956695556640625" lon="1.35703389532864093780517578125">
        <ele>-72.40000152587890625</ele>
        <time>2025-09-05T14:06:27.000Z</time>
        <extensions>
          <ns3:TrackPointExtension>
            <ns3:hr>190</ns3:hr>
            <ns3:cad>83</ns3:cad>
          </ns3:TrackPointExtension>
        </extensions>
      </trkpt>
      <trkpt lat="52.1069635637104511260986328125" lon="1.3571831770241260528564453125">
        <ele>-71.40000152587890625</ele>
        <time>2025-09-05T14:06:31.000Z</time>
        <extensions>
          <ns3:TrackPointExtension>
            <ns3:hr>191</ns3:hr>
            <ns3:cad>84</ns3:cad>
          </ns3:TrackPointExtension>
        </extensions>
      </trkpt>
      <trkpt lat="52.1069820038974285125732421875" lon="1.35733447037637233734130859375">
        <ele>-70.1999969482421875</ele>
        <time>2025-09-05T14:06:35.000Z</time>
        <extensions>
          <ns3:TrackPointExtension>
            <ns3:hr>190</ns3:hr>
            <ns3:cad>84</ns3:cad>
          </ns3:TrackPointExtension>
        </extensions>
      </trkpt>
      <trkpt lat="52.10700639523565769195556640625" lon="1.35747076012194156646728515625">
        <ele>-69.1999969482421875</ele>
        <time>2025-09-05T14:06:39.000Z</time>
        <extensions>
          <ns3:TrackPointExtension>
            <ns3:hr>190</ns3:hr>
            <ns3:cad>83</ns3:cad>
          </ns3:TrackPointExtension>
        </extensions>
      </trkpt>
      <trkpt lat="52.10700958035886287689208984375" lon="1.35750981979072093963623046875">
        <ele>-68.8000030517578125</ele>
        <time>2025-09-05T14:06:40.000Z</time>
        <extensions>
          <ns3:TrackPointExtension>
            <ns3:hr>192</ns3:hr>
            <ns3:cad>83</ns3:cad>
          </ns3:TrackPointExtension>
        </extensions>
      </trkpt>
      <trkpt lat="52.1070131845772266387939453125" lon="1.3576176948845386505126953125">
        <ele>-68</ele>
        <time>2025-09-05T14:06:43.000Z</time>
        <extensions>
          <ns3:TrackPointExtension>
            <ns3:hr>193</ns3:hr>
            <ns3:cad>83</ns3:cad>
          </ns3:TrackPointExtension>
        </extensions>
      </trkpt>
      <trkpt lat="52.10704679600894451141357421875" lon="1.35776563547551631927490234375">
        <ele>-67</ele>
        <time>2025-09-05T14:06:47.000Z</time>
        <extensions>
          <ns3:TrackPointExtension>
            <ns3:hr>196</ns3:hr>
            <ns3:cad>84</ns3:cad>
          </ns3:TrackPointExtension>
        </extensions>
      </trkpt>
      <trkpt lat="52.10705148987472057342529296875" lon="1.357806958258152008056640625">
        <ele>-66.59999847412109375</ele>
        <time>2025-09-05T14:06:48.000Z</time>
        <extensions>
          <ns3:TrackPointExtension>
            <ns3:hr>195</ns3:hr>
            <ns3:cad>84</ns3:cad>
          </ns3:TrackPointExtension>
        </extensions>
      </trkpt>
      <trkpt lat="52.10706775076687335968017578125" lon="1.35790787637233734130859375">
        <ele>-65.8000030517578125</ele>
        <time>2025-09-05T14:06:51.000Z</time>
        <extensions>
          <ns3:TrackPointExtension>
            <ns3:hr>195</ns3:hr>
            <ns3:cad>84</ns3:cad>
          </ns3:TrackPointExtension>
        </extensions>
      </trkpt>
      <trkpt lat="52.1070742048323154449462890625" lon="1.35800032876431941986083984375">
        <ele>-65</ele>
        <time>2025-09-05T14:06:55.000Z</time>
        <extensions>
          <ns3:TrackPointExtension>
            <ns3:hr>193</ns3:hr>
            <ns3:cad>84</ns3:cad>
          </ns3:TrackPointExtension>
        </extensions>
      </trkpt>
      <trkpt lat="52.10707604885101318359375" lon="1.358025558292865753173828125">
        <ele>-64.8000030517578125</ele>
        <time>2025-09-05T14:06:56.000Z</time>
        <extensions>
          <ns3:TrackPointExtension>
            <ns3:hr>193</ns3:hr>
            <ns3:cad>84</ns3:cad>
          </ns3:TrackPointExtension>
        </extensions>
      </trkpt>
      <trkpt lat="52.10709759034216403961181640625" lon="1.35815874673426151275634765625">
        <ele>-63.59999847412109375</ele>
        <time>2025-09-05T14:07:02.000Z</time>
        <extensions>
          <ns3:TrackPointExtension>
            <ns3:hr>191</ns3:hr>
            <ns3:cad>62</ns3:cad>
          </ns3:TrackPointExtension>
        </extensions>
      </trkpt>
      <trkpt lat="52.10709641687572002410888671875" lon="1.35819755494594573974609375">
        <ele>-63.40000152587890625</ele>
        <time>2025-09-05T14:07:04.000Z</time>
        <extensions>
          <ns3:TrackPointExtension>
            <ns3:hr>191</ns3:hr>
            <ns3:cad>62</ns3:cad>
          </ns3:TrackPointExtension>
        </extensions>
      </trkpt>
      <trkpt lat="52.10709390230476856231689453125" lon="1.3582560606300830841064453125">
        <ele>-63.40000152587890625</ele>
        <time>2025-09-05T14:07:07.000Z</time>
        <extensions>
          <ns3:TrackPointExtension>
            <ns3:hr>188</ns3:hr>
            <ns3:cad>61</ns3:cad>
          </ns3:TrackPointExtension>
        </extensions>
      </trkpt>
      <trkpt lat="52.107098512351512908935546875" lon="1.35832336731255054473876953125">
        <ele>-63.200000762939453125</ele>
        <time>2025-09-05T14:07:10.000Z</time>
        <extensions>
          <ns3:TrackPointExtension>
            <ns3:hr>187</ns3:hr>
            <ns3:cad>62</ns3:cad>
          </ns3:TrackPointExtension>
        </extensions>
      </trkpt>
      <trkpt lat="52.1070986799895763397216796875" lon="1.3584454916417598724365234375">
        <ele>-63.40000152587890625</ele>
        <time>2025-09-05T14:07:15.000Z</time>
        <extensions>
          <ns3:TrackPointExtension>
            <ns3:hr>184</ns3:hr>
            <ns3:cad>62</ns3:cad>
          </ns3:TrackPointExtension>
        </extensions>
      </trkpt>
      <trkpt lat="52.1070983447134494781494140625" lon="1.35849251411855220794677734375">
        <ele>-63.59999847412109375</ele>
        <time>2025-09-05T14:07:17.000Z</time>
        <extensions>
          <ns3:TrackPointExtension>
            <ns3:hr>181</ns3:hr>
            <ns3:cad>62</ns3:cad>
          </ns3:TrackPointExtension>
        </extensions>
      </trkpt>
      <trkpt lat="52.10711351595818996429443359375" lon="1.35856233537197113037109375">
        <ele>-63.799999237060546875</ele>
        <time>2025-09-05T14:07:20.000Z</time>
        <extensions>
          <ns3:TrackPointExtension>
            <ns3:hr>178</ns3:hr>
            <ns3:cad>60</ns3:cad>
          </ns3:TrackPointExtension>
        </extensions>
      </trkpt>
      <trkpt lat="52.107127346098423004150390625" lon="1.3587036542594432830810546875">
        <ele>-64.8000030517578125</ele>
        <time>2025-09-05T14:07:26.000Z</time>
        <extensions>
          <ns3:TrackPointExtension>
            <ns3:hr>176</ns3:hr>
            <ns3:cad>0</ns3:cad>
          </ns3:TrackPointExtension>
        </extensions>
      </trkpt>
      <trkpt lat="52.107123993337154388427734375" lon="1.358810774981975555419921875">
        <ele>-65.59999847412109375</ele>
        <time>2025-09-05T14:07:30.000Z</time>
        <extensions>
          <ns3:TrackPointExtension>
            <ns3:hr>173</ns3:hr>
            <ns3:cad>62</ns3:cad>
          </ns3:TrackPointExtension>
        </extensions>
      </trkpt>
      <trkpt lat="52.10712994448840618133544921875" lon="1.35885762982070446014404296875">
        <ele>-66</ele>
        <time>2025-09-05T14:07:32.000Z</time>
        <extensions>
          <ns3:TrackPointExtension>
            <ns3:hr>173</ns3:hr>
            <ns3:cad>60</ns3:cad>
          </ns3:TrackPointExtension>
        </extensions>
      </trkpt>
      <trkpt lat="52.10713128559291362762451171875" lon="1.3588830269873142242431640625">
        <ele>-66.1999969482421875</ele>
        <time>2025-09-05T14:07:33.000Z</time>
        <extensions>
          <ns3:TrackPointExtension>
            <ns3:hr>172</ns3:hr>
            <ns3:cad>60</ns3:cad>
          </ns3:TrackPointExtension>
        </extensions>
      </trkpt>
      <trkpt lat="52.1071412600576877593994140625" lon="1.35896726511418819427490234375">
        <ele>-67</ele>
        <time>2025-09-05T14:07:37.000Z</time>
        <extensions>
          <ns3:TrackPointExtension>
            <ns3:hr>171</ns3:hr>
            <ns3:cad>61</ns3:cad>
          </ns3:TrackPointExtension>
        </extensions>
      </trkpt>
      <trkpt lat="52.10715576075017452239990234375" lon="1.35907270945608615875244140625">
        <ele>-68</ele>
        <time>2025-09-05T14:07:41.000Z</time>
        <extensions>
          <ns3:TrackPointExtension>
            <ns3:hr>169</ns3:hr>
            <ns3:cad>61</ns3:cad>
          </ns3:TrackPointExtension>
        </extensions>
      </trkpt>
      <trkpt lat="52.10715374909341335296630859375" lon="1.35909953154623508453369140625">
        <ele>-68.1999969482421875</ele>
        <time>2025-09-05T14:07:42.000Z</time>
        <extensions>
          <ns3:TrackPointExtension>
            <ns3:hr>169</ns3:hr>
            <ns3:cad>61</ns3:cad>
          </ns3:TrackPointExtension>
        </extensions>
      </trkpt>
      <trkpt lat="52.10714955814182758331298828125" lon="1.35923012159764766693115234375">
        <ele>-69.1999969482421875</ele>
        <time>2025-09-05T14:07:47.000Z</time>
        <extensions>
          <ns3:TrackPointExtension>
            <ns3:hr>167</ns3:hr>
            <ns3:cad>62</ns3:cad>
          </ns3:TrackPointExtension>
        </extensions>
      </trkpt>
      <trkpt lat="52.1071399189531803131103515625" lon="1.3592538423836231231689453125">
        <ele>-69.40000152587890625</ele>
        <time>2025-09-05T14:07:48.000Z</time>
        <extensions>
          <ns3:TrackPointExtension>
            <ns3:hr>167</ns3:hr>
            <ns3:cad>62</ns3:cad>
          </ns3:TrackPointExtension>
        </extensions>
      </trkpt>
      <trkpt lat="52.107132375240325927734375" lon="1.3593933172523975372314453125">
        <ele>-70.40000152587890625</ele>
        <time>2025-09-05T14:07:53.000Z</time>
        <extensions>
          <ns3:TrackPointExtension>
            <ns3:hr>166</ns3:hr>
            <ns3:cad>61</ns3:cad>
          </ns3:TrackPointExtension>
        </extensions>
      </trkpt>
      <trkpt lat="52.10713765583932399749755859375" lon="1.35947772301733493804931640625">
        <ele>-71</ele>
        <time>2025-09-05T14:07:56.000Z</time>
        <extensions>
          <ns3:TrackPointExtension>
            <ns3:hr>168</ns3:hr>
            <ns3:cad>122</ns3:cad>
          </ns3:TrackPointExtension>
        </extensions>
      </trkpt>
      <trkpt lat="52.107130698859691619873046875" lon="1.3595294393599033355712890625">
        <ele>-71.40000152587890625</ele>
        <time>2025-09-05T14:07:58.000Z</time>
        <extensions>
          <ns3:TrackPointExtension>
            <ns3:hr>166</ns3:hr>
            <ns3:cad>122</ns3:cad>
          </ns3:TrackPointExtension>
        </extensions>
      </trkpt>
      <trkpt lat="52.1071234904229640960693359375" lon="1.35962457396090030670166015625">
        <ele>-72.40000152587890625</ele>
        <time>2025-09-05T14:08:02.000Z</time>
        <extensions>
          <ns3:TrackPointExtension>
            <ns3:hr>163</ns3:hr>
            <ns3:cad>62</ns3:cad>
          </ns3:TrackPointExtension>
        </extensions>
      </trkpt>
      <trkpt lat="52.10712776519358158111572265625" lon="1.359648965299129486083984375">
        <ele>-72.59999847412109375</ele>
        <time>2025-09-05T14:08:03.000Z</time>
        <extensions>
          <ns3:TrackPointExtension>
            <ns3:hr>161</ns3:hr>
            <ns3:cad>62</ns3:cad>
          </ns3:TrackPointExtension>
        </extensions>
      </trkpt>
      <trkpt lat="52.107130698859691619873046875" lon="1.35967679321765899658203125">
        <ele>-72.8000030517578125</ele>
        <time>2025-09-05T14:08:04.000Z</time>
        <extensions>
          <ns3:TrackPointExtension>
            <ns3:hr>161</ns3:hr>
            <ns3:cad>62</ns3:cad>
          </ns3:TrackPointExtension>
        </extensions>
      </trkpt>
      <trkpt lat="52.107156179845333099365234375" lon="1.3597594387829303741455078125">
        <ele>-73.59999847412109375</ele>
        <time>2025-09-05T14:08:08.000Z</time>
        <extensions>
          <ns3:TrackPointExtension>
            <ns3:hr>159</ns3:hr>
            <ns3:cad>59</ns3:cad>
          </ns3:TrackPointExtension>
        </extensions>
      </trkpt>
      <trkpt lat="52.10717269219458103179931640625" lon="1.3597788847982883453369140625">
        <ele>-74</ele>
        <time>2025-09-05T14:08:10.000Z</time>
        <extensions>
          <ns3:TrackPointExtension>
            <ns3:hr>159</ns3:hr>
            <ns3:cad>60</ns3:cad>
          </ns3:TrackPointExtension>
        </extensions>
      </trkpt>
      <trkpt lat="52.1071831695735454559326171875" lon="1.35979590006172657012939453125">
        <ele>-74.59999847412109375</ele>
        <time>2025-09-05T14:08:13.000Z</time>
        <extensions>
          <ns3:TrackPointExtension>
            <ns3:hr>159</ns3:hr>
            <ns3:cad>0</ns3:cad>
          </ns3:TrackPointExtension>
        </extensions>
      </trkpt>
      <trkpt lat="52.107189036905765533447265625" lon="1.35977259837090969085693359375">
        <ele>-75.59999847412109375</ele>
        <time>2025-09-05T14:08:18.000Z</time>
        <extensions>
          <ns3:TrackPointExtension>
            <ns3:hr>157</ns3:hr>
            <ns3:cad>0</ns3:cad>
          </ns3:TrackPointExtension>
        </extensions>
      </trkpt>
      <trkpt lat="52.10719339549541473388671875" lon="1.359759606420993804931640625">
        <ele>-75.8000030517578125</ele>
        <time>2025-09-05T14:08:19.000Z</time>
        <extensions>
          <ns3:TrackPointExtension>
            <ns3:hr>156</ns3:hr>
            <ns3:cad>0</ns3:cad>
          </ns3:TrackPointExtension>
        </extensions>
      </trkpt>
      <trkpt lat="52.1072160266339778900146484375" lon="1.35976664721965789794921875">
        <ele>-77</ele>
        <time>2025-09-05T14:08:25.000Z</time>
        <extensions>
          <ns3:TrackPointExtension>
            <ns3:cad>0</ns3:cad>
          </ns3:TrackPointExtension>
        </extensions>
      </trkpt>
      <trkpt lat="52.1071828342974185943603515625" lon="1.35976740159094333648681640625">
        <ele>-77.59999847412109375</ele>
        <time>2025-09-05T14:08:30.000Z</time>
        <extensions>
          <ns3:TrackPointExtension>
            <ns3:hr>154</ns3:hr>
            <ns3:cad>0</ns3:cad>
          </ns3:TrackPointExtension>
        </extensions>
      </trkpt>
      <trkpt lat="52.107173614203929901123046875" lon="1.3597738556563854217529296875">
        <ele>-78</ele>
        <time>2025-09-05T14:08:32.000Z</time>
        <extensions>
          <ns3:TrackPointExtension>
            <ns3:hr>155</ns3:hr>
            <ns3:cad>0</ns3:cad>
          </ns3:TrackPointExtension>
        </extensions>
      </trkpt>
      <trkpt lat="52.1071006916463375091552734375" lon="1.3597976602613925933837890625">
        <ele>-78.59999847412109375</ele>
        <time>2025-09-05T14:08:37.000Z</time>
        <extensions>
          <ns3:TrackPointExtension>
            <ns3:hr>155</ns3:hr>
            <ns3:cad>65</ns3:cad>
          </ns3:TrackPointExtension>
        </extensions>
      </trkpt>
      <trkpt lat="52.1070504002273082733154296875" lon="1.35984384454786777496337890625">
        <ele>-79</ele>
        <time>2025-09-05T14:08:41.000Z</time>
        <extensions>
          <ns3:TrackPointExtension>
            <ns3:hr>153</ns3:hr>
            <ns3:cad>59</ns3:cad>
          </ns3:TrackPointExtension>
        </extensions>
      </trkpt>
      <trkpt lat="52.1070098318159580230712890625" lon="1.35988843627274036407470703125">
        <ele>-79.40000152587890625</ele>
        <time>2025-09-05T14:08:44.000Z</time>
        <extensions>
          <ns3:TrackPointExtension>
            <ns3:hr>151</ns3:hr>
            <ns3:cad>60</ns3:cad>
          </ns3:TrackPointExtension>
        </extensions>
      </trkpt>
      <trkpt lat="52.10699935443699359893798828125" lon="1.359900422394275665283203125">
        <ele>-79.59999847412109375</ele>
        <time>2025-09-05T14:08:45.000Z</time>
        <extensions>
          <ns3:TrackPointExtension>
            <ns3:hr>155</ns3:hr>
            <ns3:cad>61</ns3:cad>
          </ns3:TrackPointExtension>
        </extensions>
      </trkpt>
      <trkpt lat="52.10693682543933391571044921875" lon="1.35996219702064990997314453125">
        <ele>-80.1999969482421875</ele>
        <time>2025-09-05T14:08:50.000Z</time>
        <extensions>
          <ns3:TrackPointExtension>
            <ns3:hr>154</ns3:hr>
            <ns3:cad>60</ns3:cad>
          </ns3:TrackPointExtension>
        </extensions>
      </trkpt>
      <trkpt lat="52.10692651569843292236328125" lon="1.35997242294251918792724609375">
        <ele>-80.1999969482421875</ele>
        <time>2025-09-05T14:08:51.000Z</time>
        <extensions>
          <ns3:TrackPointExtension>
            <ns3:hr>156</ns3:hr>
            <ns3:cad>0</ns3:cad>
          </ns3:TrackPointExtension>
        </extensions>
      </trkpt>
      <trkpt lat="52.1068341471254825592041015625" lon="1.360052637755870819091796875">
        <ele>-81</ele>
        <time>2025-09-05T14:08:57.000Z</time>
        <extensions>
          <ns3:TrackPointExtension>
            <ns3:hr>152</ns3:hr>
            <ns3:cad>60</ns3:cad>
          </ns3:TrackPointExtension>
        </extensions>
      </trkpt>
      <trkpt lat="52.1068225800991058349609375" lon="1.36006630025804042816162109375">
        <ele>-81.1999969482421875</ele>
        <time>2025-09-05T14:08:58.000Z</time>
        <extensions>
          <ns3:TrackPointExtension>
            <ns3:hr>151</ns3:hr>
            <ns3:cad>60</ns3:cad>
          </ns3:TrackPointExtension>
        </extensions>
      </trkpt>
      <trkpt lat="52.10680992342531681060791015625" lon="1.3600779511034488677978515625">
        <ele>-81.1999969482421875</ele>
        <time>2025-09-05T14:08:59.000Z</time>
        <extensions>
          <ns3:TrackPointExtension>
            <ns3:hr>151</ns3:hr>
            <ns3:cad>60</ns3:cad>
          </ns3:TrackPointExtension>
        </extensions>
      </trkpt>
      <trkpt lat="52.10676482878625392913818359375" lon="1.360097229480743408203125">
        <ele>-82</ele>
        <time>2025-09-05T14:09:04.000Z</time>
        <extensions>
          <ns3:TrackPointExtension>
            <ns3:hr>150</ns3:hr>
            <ns3:cad>58</ns3:cad>
          </ns3:TrackPointExtension>
        </extensions>
      </trkpt>
      <trkpt lat="52.10672476328909397125244140625" lon="1.36012363247573375701904296875">
        <ele>-82.1999969482421875</ele>
        <time>2025-09-05T14:09:07.000Z</time>
        <extensions>
          <ns3:TrackPointExtension>
            <ns3:hr>149</ns3:hr>
            <ns3:cad>59</ns3:cad>
          </ns3:TrackPointExtension>
        </extensions>
      </trkpt>
      <trkpt lat="52.10667262785136699676513671875" lon="1.360158585011959075927734375">
        <ele>-82.8000030517578125</ele>
        <time>2025-09-05T14:09:12.000Z</time>
        <extensions>
          <ns3:TrackPointExtension>
            <ns3:hr>151</ns3:hr>
            <ns3:cad>59</ns3:cad>
          </ns3:TrackPointExtension>
        </extensions>
      </trkpt>
      <trkpt lat="52.1066589653491973876953125" lon="1.3602004945278167724609375">
        <ele>-83.40000152587890625</ele>
        <time>2025-09-05T14:09:19.000Z</time>
        <extensions>
          <ns3:TrackPointExtension>
            <ns3:hr>152</ns3:hr>
            <ns3:cad>0</ns3:cad>
          </ns3:TrackPointExtension>
        </extensions>
      </trkpt>
      <trkpt lat="52.1066527627408504486083984375" lon="1.36021365411579608917236328125">
        <ele>-83.40000152587890625</ele>
        <time>2025-09-05T14:09:20.000Z</time>
        <extensions>
          <ns3:TrackPointExtension>
            <ns3:hr>153</ns3:hr>
            <ns3:cad>0</ns3:cad>
          </ns3:TrackPointExtension>
        </extensions>
      </trkpt>
      <trkpt lat="52.10663817822933197021484375" lon="1.36020795442163944244384765625">
        <ele>-83.59999847412109375</ele>
        <time>2025-09-05T14:09:22.000Z</time>
        <extensions>
          <ns3:TrackPointExtension>
            <ns3:hr>150</ns3:hr>
            <ns3:cad>57</ns3:cad>
          </ns3:TrackPointExtension>
        </extensions>
      </trkpt>
      <trkpt lat="52.10658294148743152618408203125" lon="1.360231675207614898681640625">
        <ele>-83.8000030517578125</ele>
        <time>2025-09-05T14:09:26.000Z</time>
        <extensions>
          <ns3:TrackPointExtension>
            <ns3:hr>149</ns3:hr>
            <ns3:cad>56</ns3:cad>
          </ns3:TrackPointExtension>
        </extensions>
      </trkpt>
      <trkpt lat="52.1064926683902740478515625" lon="1.36023477651178836822509765625">
        <ele>-84.1999969482421875</ele>
        <time>2025-09-05T14:09:31.000Z</time>
        <extensions>
          <ns3:TrackPointExtension>
            <ns3:hr>152</ns3:hr>
            <ns3:cad>75</ns3:cad>
          </ns3:TrackPointExtension>
        </extensions>
      </trkpt>
      <trkpt lat="52.106459476053714752197265625" lon="1.36023242957890033721923828125">
        <ele>-84.1999969482421875</ele>
        <time>2025-09-05T14:09:33.000Z</time>
        <extensions>
          <ns3:TrackPointExtension>
            <ns3:hr>155</ns3:hr>
            <ns3:cad>80</ns3:cad>
          </ns3:TrackPointExtension>
        </extensions>
      </trkpt>
      <trkpt lat="52.10644128732383251190185546875" lon="1.3602372072637081146240234375">
        <ele>-84.1999969482421875</ele>
        <time>2025-09-05T14:09:34.000Z</time>
        <extensions>
          <ns3:TrackPointExtension>
            <ns3:hr>158</ns3:hr>
            <ns3:cad>80</ns3:cad>
          </ns3:TrackPointExtension>
        </extensions>
      </trkpt>
      <trkpt lat="52.1064234338700771331787109375" lon="1.3602422364056110382080078125">
        <ele>-84.1999969482421875</ele>
        <time>2025-09-05T14:09:35.000Z</time>
        <extensions>
          <ns3:TrackPointExtension>
            <ns3:hr>161</ns3:hr>
            <ns3:cad>80</ns3:cad>
          </ns3:TrackPointExtension>
        </extensions>
      </trkpt>
      <trkpt lat="52.10640574805438518524169921875" lon="1.36024500243365764617919921875">
        <ele>-84.40000152587890625</ele>
        <time>2025-09-05T14:09:36.000Z</time>
        <extensions>
          <ns3:TrackPointExtension>
            <ns3:hr>164</ns3:hr>
            <ns3:cad>80</ns3:cad>
          </ns3:TrackPointExtension>
        </extensions>
      </trkpt>
      <trkpt lat="52.10638797841966152191162109375" lon="1.36024768464267253875732421875">
        <ele>-84.40000152587890625</ele>
        <time>2025-09-05T14:09:37.000Z</time>
        <extensions>
          <ns3:TrackPointExtension>
            <ns3:hr>164</ns3:hr>
            <ns3:cad>80</ns3:cad>
          </ns3:TrackPointExtension>
        </extensions>
      </trkpt>
      <trkpt lat="52.10635059513151645660400390625" lon="1.3602514564990997314453125">
        <ele>-84.40000152587890625</ele>
        <time>2025-09-05T14:09:39.000Z</time>
        <extensions>
          <ns3:TrackPointExtension>
            <ns3:hr>168</ns3:hr>
            <ns3:cad>81</ns3:cad>
          </ns3:TrackPointExtension>
        </extensions>
      </trkpt>
      <trkpt lat="52.10631589405238628387451171875" lon="1.36026084423065185546875">
        <ele>-84.40000152587890625</ele>
        <time>2025-09-05T14:09:41.000Z</time>
        <extensions>
          <ns3:TrackPointExtension>
            <ns3:hr>170</ns3:hr>
            <ns3:cad>82</ns3:cad>
          </ns3:TrackPointExtension>
        </extensions>
      </trkpt>
      <trkpt lat="52.10616501979529857635498046875" lon="1.36030971072614192962646484375">
        <ele>-84.59999847412109375</ele>
        <time>2025-09-05T14:09:47.000Z</time>
        <extensions>
          <ns3:TrackPointExtension>
            <ns3:hr>167</ns3:hr>
            <ns3:cad>82</ns3:cad>
          </ns3:TrackPointExtension>
        </extensions>
      </trkpt>
      <trkpt lat="52.10606745444238185882568359375" lon="1.36033284477889537811279296875">
        <ele>-84.40000152587890625</ele>
        <time>2025-09-05T14:09:51.000Z</time>
        <extensions>
          <ns3:TrackPointExtension>
            <ns3:hr>170</ns3:hr>
            <ns3:cad>82</ns3:cad>
          </ns3:TrackPointExtension>
        </extensions>
      </trkpt>
      <trkpt lat="52.10597843863070011138916015625" lon="1.36035882867872714996337890625">
        <ele>-84.1999969482421875</ele>
        <time>2025-09-05T14:09:55.000Z</time>
        <extensions>
          <ns3:TrackPointExtension>
            <ns3:hr>172</ns3:hr>
            <ns3:cad>82</ns3:cad>
          </ns3:TrackPointExtension>
        </extensions>
      </trkpt>
      <trkpt lat="52.10585790686309337615966796875" lon="1.36040409095585346221923828125">
        <ele>-83.8000030517578125</ele>
        <time>2025-09-05T14:10:00.000Z</time>
        <extensions>
          <ns3:TrackPointExtension>
            <ns3:hr>175</ns3:hr>
            <ns3:cad>82</ns3:cad>
          </ns3:TrackPointExtension>
        </extensions>
      </trkpt>
      <trkpt lat="52.10578096099197864532470703125" lon="1.36044264771044254302978515625">
        <ele>-83.59999847412109375</ele>
        <time>2025-09-05T14:10:04.000Z</time>
        <extensions>
          <ns3:TrackPointExtension>
            <ns3:hr>174</ns3:hr>
            <ns3:cad>82</ns3:cad>
          </ns3:TrackPointExtension>
        </extensions>
      </trkpt>
      <trkpt lat="52.1057428233325481414794921875" lon="1.36046695522964000701904296875">
        <ele>-83.40000152587890625</ele>
        <time>2025-09-05T14:10:06.000Z</time>
        <extensions>
          <ns3:TrackPointExtension>
            <ns3:hr>174</ns3:hr>
            <ns3:cad>82</ns3:cad>
          </ns3:TrackPointExtension>
        </extensions>
      </trkpt>
      <trkpt lat="52.10565305314958095550537109375" lon="1.36055027134716510772705078125">
        <ele>-82.8000030517578125</ele>
        <time>2025-09-05T14:10:11.000Z</time>
        <extensions>
          <ns3:TrackPointExtension>
            <ns3:hr>176</ns3:hr>
            <ns3:cad>83</ns3:cad>
          </ns3:TrackPointExtension>
        </extensions>
      </trkpt>
      <trkpt lat="52.105566300451755523681640625" lon="1.360582374036312103271484375">
        <ele>-82.1999969482421875</ele>
        <time>2025-09-05T14:10:15.000Z</time>
        <extensions>
          <ns3:TrackPointExtension>
            <ns3:hr>176</ns3:hr>
            <ns3:cad>83</ns3:cad>
          </ns3:TrackPointExtension>
        </extensions>
      </trkpt>
      <trkpt lat="52.1055275760591030120849609375" lon="1.36059972457587718963623046875">
        <ele>-81.8000030517578125</ele>
        <time>2025-09-05T14:10:17.000Z</time>
        <extensions>
          <ns3:TrackPointExtension>
            <ns3:hr>176</ns3:hr>
            <ns3:cad>83</ns3:cad>
          </ns3:TrackPointExtension>
        </extensions>
      </trkpt>
      <trkpt lat="52.1054678969085216522216796875" lon="1.3606509380042552947998046875">
        <ele>-81.1999969482421875</ele>
        <time>2025-09-05T14:10:21.000Z</time>
        <extensions>
          <ns3:TrackPointExtension>
            <ns3:hr>176</ns3:hr>
            <ns3:cad>83</ns3:cad>
          </ns3:TrackPointExtension>
        </extensions>
      </trkpt>
      <trkpt lat="52.10545272566378116607666015625" lon="1.36069594882428646087646484375">
        <ele>-80.8000030517578125</ele>
        <time>2025-09-05T14:10:23.000Z</time>
        <extensions>
          <ns3:TrackPointExtension>
            <ns3:hr>176</ns3:hr>
            <ns3:cad>83</ns3:cad>
          </ns3:TrackPointExtension>
        </extensions>
      </trkpt>
      <trkpt lat="52.10543713532388210296630859375" lon="1.3607441447675228118896484375">
        <ele>-80.40000152587890625</ele>
        <time>2025-09-05T14:10:25.000Z</time>
        <extensions>
          <ns3:TrackPointExtension>
            <ns3:hr>179</ns3:hr>
            <ns3:cad>83</ns3:cad>
          </ns3:TrackPointExtension>
        </extensions>
      </trkpt>
      <trkpt lat="52.1054233051836490631103515625" lon="1.3607930950820446014404296875">
        <ele>-80.1999969482421875</ele>
        <time>2025-09-05T14:10:27.000Z</time>
        <extensions>
          <ns3:TrackPointExtension>
            <ns3:hr>179</ns3:hr>
            <ns3:cad>83</ns3:cad>
          </ns3:TrackPointExtension>
        </extensions>
      </trkpt>
      <trkpt lat="52.10534158162772655487060546875" lon="1.36087699793279170989990234375">
        <ele>-79.40000152587890625</ele>
        <time>2025-09-05T14:10:32.000Z</time>
        <extensions>
          <ns3:TrackPointExtension>
            <ns3:hr>178</ns3:hr>
            <ns3:cad>82</ns3:cad>
          </ns3:TrackPointExtension>
        </extensions>
      </trkpt>
      <trkpt lat="52.10530419833958148956298828125" lon="1.36089527048170566558837890625">
        <ele>-79</ele>
        <time>2025-09-05T14:10:34.000Z</time>
        <extensions>
          <ns3:TrackPointExtension>
            <ns3:hr>177</ns3:hr>
            <ns3:cad>82</ns3:cad>
          </ns3:TrackPointExtension>
        </extensions>
      </trkpt>
      <trkpt lat="52.10517863743007183074951171875" lon="1.3609821908175945281982421875">
        <ele>-78.1999969482421875</ele>
        <time>2025-09-05T14:10:41.000Z</time>
        <extensions>
          <ns3:TrackPointExtension>
            <ns3:hr>179</ns3:hr>
            <ns3:cad>82</ns3:cad>
          </ns3:TrackPointExtension>
        </extensions>
      </trkpt>
      <trkpt lat="52.1051520667970180511474609375" lon="1.36100557632744312286376953125">
        <ele>-78</ele>
        <time>2025-09-05T14:10:42.000Z</time>
        <extensions>
          <ns3:TrackPointExtension>
            <ns3:hr>178</ns3:hr>
            <ns3:cad>82</ns3:cad>
          </ns3:TrackPointExtension>
        </extensions>
      </trkpt>
      <trkpt lat="52.104994319379329681396484375" lon="1.36102384887635707855224609375">
        <ele>-77.1999969482421875</ele>
        <time>2025-09-05T14:10:49.000Z</time>
        <extensions>
          <ns3:TrackPointExtension>
            <ns3:hr>181</ns3:hr>
            <ns3:cad>83</ns3:cad>
          </ns3:TrackPointExtension>
        </extensions>
      </trkpt>
      <trkpt lat="52.1049664914608001708984375" lon="1.36102619580924510955810546875">
        <ele>-77</ele>
        <time>2025-09-05T14:10:50.000Z</time>
        <extensions>
          <ns3:TrackPointExtension>
            <ns3:hr>183</ns3:hr>
            <ns3:cad>83</ns3:cad>
          </ns3:TrackPointExtension>
        </extensions>
      </trkpt>
      <trkpt lat="52.10480413399636745452880859375" lon="1.36101714335381984710693359375">
        <ele>-76.40000152587890625</ele>
        <time>2025-09-05T14:10:55.000Z</time>
        <extensions>
          <ns3:TrackPointExtension>
            <ns3:hr>186</ns3:hr>
            <ns3:cad>82</ns3:cad>
          </ns3:TrackPointExtension>
        </extensions>
      </trkpt>
      <trkpt lat="52.10474587976932525634765625" lon="1.361016891896724700927734375">
        <ele>-76.1999969482421875</ele>
        <time>2025-09-05T14:10:57.000Z</time>
        <extensions>
          <ns3:TrackPointExtension>
            <ns3:hr>183</ns3:hr>
            <ns3:cad>82</ns3:cad>
          </ns3:TrackPointExtension>
        </extensions>
      </trkpt>
      <trkpt lat="52.10471444763243198394775390625" lon="1.3610281236469745635986328125">
        <ele>-76</ele>
        <time>2025-09-05T14:10:58.000Z</time>
        <extensions>
          <ns3:TrackPointExtension>
            <ns3:hr>184</ns3:hr>
            <ns3:cad>82</ns3:cad>
          </ns3:TrackPointExtension>
        </extensions>
      </trkpt>
      <trkpt lat="52.10460640490055084228515625" lon="1.36108369566500186920166015625">
        <ele>-75.40000152587890625</ele>
        <time>2025-09-05T14:11:03.000Z</time>
        <extensions>
          <ns3:TrackPointExtension>
            <ns3:hr>183</ns3:hr>
            <ns3:cad>40</ns3:cad>
          </ns3:TrackPointExtension>
        </extensions>
      </trkpt>
      <trkpt lat="52.10457296110689640045166015625" lon="1.36110247112810611724853515625">
        <ele>-75</ele>
        <time>2025-09-05T14:11:07.000Z</time>
        <extensions>
          <ns3:TrackPointExtension>
            <ns3:hr>180</ns3:hr>
            <ns3:cad>0</ns3:cad>
          </ns3:TrackPointExtension>
        </extensions>
      </trkpt>
      <trkpt lat="52.10444413125514984130859375" lon="1.3611595518887042999267578125">
        <ele>-74.40000152587890625</ele>
        <time>2025-09-05T14:11:14.000Z</time>
        <extensions>
          <ns3:TrackPointExtension>
            <ns3:hr>181</ns3:hr>
            <ns3:cad>81</ns3:cad>
          </ns3:TrackPointExtension>
        </extensions>
      </trkpt>
      <trkpt lat="52.104294598102569580078125" lon="1.36113968677818775177001953125">
        <ele>-74.40000152587890625</ele>
        <time>2025-09-05T14:11:21.000Z</time>
        <extensions>
          <ns3:TrackPointExtension>
            <ns3:hr>183</ns3:hr>
            <ns3:cad>82</ns3:cad>
          </ns3:TrackPointExtension>
        </extensions>
      </trkpt>
      <trkpt lat="52.1041281335055828094482421875" lon="1.36116282083094120025634765625">
        <ele>-74.40000152587890625</ele>
        <time>2025-09-05T14:11:29.000Z</time>
        <extensions>
          <ns3:TrackPointExtension>
            <ns3:hr>183</ns3:hr>
            <ns3:cad>82</ns3:cad>
          </ns3:TrackPointExtension>
        </extensions>
      </trkpt>
      <trkpt lat="52.10400416515767574310302734375" lon="1.36120590381324291229248046875">
        <ele>-74.59999847412109375</ele>
        <time>2025-09-05T14:11:34.000Z</time>
        <extensions>
          <ns3:TrackPointExtension>
            <ns3:hr>186</ns3:hr>
            <ns3:cad>82</ns3:cad>
          </ns3:TrackPointExtension>
        </extensions>
      </trkpt>
      <trkpt lat="52.1039568074047565460205078125" lon="1.3612098433077335357666015625">
        <ele>-74.59999847412109375</ele>
        <time>2025-09-05T14:11:36.000Z</time>
        <extensions>
          <ns3:TrackPointExtension>
            <ns3:hr>186</ns3:hr>
            <ns3:cad>82</ns3:cad>
          </ns3:TrackPointExtension>
        </extensions>
      </trkpt>
      <trkpt lat="52.10377081297338008880615234375" lon="1.361258290708065032958984375">
        <ele>-74.59999847412109375</ele>
        <time>2025-09-05T14:11:45.000Z</time>
        <extensions>
          <ns3:TrackPointExtension>
            <ns3:hr>187</ns3:hr>
            <ns3:cad>82</ns3:cad>
          </ns3:TrackPointExtension>
        </extensions>
      </trkpt>
      <trkpt lat="52.10368716157972812652587890625" lon="1.3612856157124042510986328125">
        <ele>-74.59999847412109375</ele>
        <time>2025-09-05T14:11:49.000Z</time>
        <extensions>
          <ns3:TrackPointExtension>
            <ns3:hr>184</ns3:hr>
            <ns3:cad>81</ns3:cad>
          </ns3:TrackPointExtension>
        </extensions>
      </trkpt>
      <trkpt lat="52.10361407138407230377197265625" lon="1.36130330152809619903564453125">
        <ele>-74.8000030517578125</ele>
        <time>2025-09-05T14:11:53.000Z</time>
        <extensions>
          <ns3:TrackPointExtension>
            <ns3:hr>181</ns3:hr>
            <ns3:cad>81</ns3:cad>
          </ns3:TrackPointExtension>
        </extensions>
      </trkpt>
      <trkpt lat="52.10359789431095123291015625" lon="1.36131201870739459991455078125">
        <ele>-74.8000030517578125</ele>
        <time>2025-09-05T14:11:54.000Z</time>
        <extensions>
          <ns3:TrackPointExtension>
            <ns3:hr>179</ns3:hr>
            <ns3:cad>81</ns3:cad>
          </ns3:TrackPointExtension>
        </extensions>
      </trkpt>
      <trkpt lat="52.1034837327897548675537109375" lon="1.36139315553009510040283203125">
        <ele>-75.1999969482421875</ele>
        <time>2025-09-05T14:12:01.000Z</time>
        <extensions>
          <ns3:TrackPointExtension>
            <ns3:hr>180</ns3:hr>
            <ns3:cad>80</ns3:cad>
          </ns3:TrackPointExtension>
        </extensions>
      </trkpt>
      <trkpt lat="52.1033573336899280548095703125" lon="1.361459791660308837890625">
        <ele>-75.59999847412109375</ele>
        <time>2025-09-05T14:12:07.000Z</time>
        <extensions>
          <ns3:TrackPointExtension>
            <ns3:hr>183</ns3:hr>
            <ns3:cad>82</ns3:cad>
          </ns3:TrackPointExtension>
        </extensions>
      </trkpt>
      <trkpt lat="52.1033157594501972198486328125" lon="1.3614740408957004547119140625">
        <ele>-75.59999847412109375</ele>
        <time>2025-09-05T14:12:09.000Z</time>
        <extensions>
          <ns3:TrackPointExtension>
            <ns3:hr>182</ns3:hr>
            <ns3:cad>81</ns3:cad>
          </ns3:TrackPointExtension>
        </extensions>
      </trkpt>
      <trkpt lat="52.1032557450234889984130859375" lon="1.36148870922625064849853515625">
        <ele>-75.8000030517578125</ele>
        <time>2025-09-05T14:12:12.000Z</time>
        <extensions>
          <ns3:TrackPointExtension>
            <ns3:hr>179</ns3:hr>
            <ns3:cad>81</ns3:cad>
          </ns3:TrackPointExtension>
        </extensions>
      </trkpt>
      <trkpt lat="52.103214003145694732666015625" lon="1.361509077250957489013671875">
        <ele>-75.8000030517578125</ele>
        <time>2025-09-05T14:12:14.000Z</time>
        <extensions>
          <ns3:TrackPointExtension>
            <ns3:hr>176</ns3:hr>
            <ns3:cad>82</ns3:cad>
          </ns3:TrackPointExtension>
        </extensions>
      </trkpt>
      <trkpt lat="52.1031528152525424957275390625" lon="1.36155433952808380126953125">
        <ele>-75.8000030517578125</ele>
        <time>2025-09-05T14:12:17.000Z</time>
        <extensions>
          <ns3:TrackPointExtension>
            <ns3:hr>175</ns3:hr>
            <ns3:cad>82</ns3:cad>
          </ns3:TrackPointExtension>
        </extensions>
      </trkpt>
      <trkpt lat="52.10302029736340045928955078125" lon="1.36169758625328540802001953125">
        <ele>-75.59999847412109375</ele>
        <time>2025-09-05T14:12:25.000Z</time>
        <extensions>
          <ns3:TrackPointExtension>
            <ns3:hr>177</ns3:hr>
            <ns3:cad>83</ns3:cad>
          </ns3:TrackPointExtension>
        </extensions>
      </trkpt>
      <trkpt lat="52.10298391990363597869873046875" lon="1.36175994761288166046142578125">
        <ele>-75.1999969482421875</ele>
        <time>2025-09-05T14:12:31.000Z</time>
        <extensions>
          <ns3:TrackPointExtension>
            <ns3:hr>175</ns3:hr>
            <ns3:cad>0</ns3:cad>
          </ns3:TrackPointExtension>
        </extensions>
      </trkpt>
      <trkpt lat="52.10292440839111804962158203125" lon="1.361874528229236602783203125">
        <ele>-75</ele>
        <time>2025-09-05T14:12:36.000Z</time>
        <extensions>
          <ns3:TrackPointExtension>
            <ns3:hr>172</ns3:hr>
            <ns3:cad>80</ns3:cad>
          </ns3:TrackPointExtension>
        </extensions>
      </trkpt>
      <trkpt lat="52.102908901870250701904296875" lon="1.36189498007297515869140625">
        <ele>-74.8000030517578125</ele>
        <time>2025-09-05T14:12:37.000Z</time>
        <extensions>
          <ns3:TrackPointExtension>
            <ns3:hr>174</ns3:hr>
            <ns3:cad>80</ns3:cad>
          </ns3:TrackPointExtension>
        </extensions>
      </trkpt>
      <trkpt lat="52.10283480584621429443359375" lon="1.36198508553206920623779296875">
        <ele>-74.59999847412109375</ele>
        <time>2025-09-05T14:12:42.000Z</time>
        <extensions>
          <ns3:TrackPointExtension>
            <ns3:hr>177</ns3:hr>
            <ns3:cad>82</ns3:cad>
          </ns3:TrackPointExtension>
        </extensions>
      </trkpt>
      <trkpt lat="52.10278912447392940521240234375" lon="1.36206638999283313751220703125">
        <ele>-74.59999847412109375</ele>
        <time>2025-09-05T14:12:46.000Z</time>
        <extensions>
          <ns3:TrackPointExtension>
            <ns3:hr>179</ns3:hr>
            <ns3:cad>83</ns3:cad>
          </ns3:TrackPointExtension>
        </extensions>
      </trkpt>
      <trkpt lat="52.1027595363557338714599609375" lon="1.3621224649250507354736328125">
        <ele>-74.59999847412109375</ele>
        <time>2025-09-05T14:12:49.000Z</time>
        <extensions>
          <ns3:TrackPointExtension>
            <ns3:hr>176</ns3:hr>
            <ns3:cad>82</ns3:cad>
          </ns3:TrackPointExtension>
        </extensions>
      </trkpt>
      <trkpt lat="52.10270161740481853485107421875" lon="1.3622099719941616058349609375">
        <ele>-74.8000030517578125</ele>
        <time>2025-09-05T14:12:55.000Z</time>
        <extensions>
          <ns3:TrackPointExtension>
            <ns3:hr>175</ns3:hr>
            <ns3:cad>83</ns3:cad>
          </ns3:TrackPointExtension>
        </extensions>
      </trkpt>
      <trkpt lat="52.102564238011837005615234375" lon="1.36231030337512493133544921875">
        <ele>-74.8000030517578125</ele>
        <time>2025-09-05T14:13:02.000Z</time>
        <extensions>
          <ns3:TrackPointExtension>
            <ns3:hr>172</ns3:hr>
            <ns3:cad>82</ns3:cad>
          </ns3:TrackPointExtension>
        </extensions>
      </trkpt>
      <trkpt lat="52.10254135541617870330810546875" lon="1.36233310215175151824951171875">
        <ele>-74.8000030517578125</ele>
        <time>2025-09-05T14:13:03.000Z</time>
        <extensions>
          <ns3:TrackPointExtension>
            <ns3:hr>173</ns3:hr>
            <ns3:cad>82</ns3:cad>
          </ns3:TrackPointExtension>
        </extensions>
      </trkpt>
      <trkpt lat="52.1024768985807895660400390625" lon="1.3623698987066745758056640625">
        <ele>-74.8000030517578125</ele>
        <time>2025-09-05T14:13:07.000Z</time>
        <extensions>
          <ns3:TrackPointExtension>
            <ns3:hr>176</ns3:hr>
            <ns3:cad>82</ns3:cad>
          </ns3:TrackPointExtension>
        </extensions>
      </trkpt>
      <trkpt lat="52.10244211368262767791748046875" lon="1.36239252984523773193359375">
        <ele>-74.8000030517578125</ele>
        <time>2025-09-05T14:13:10.000Z</time>
        <extensions>
          <ns3:TrackPointExtension>
            <ns3:hr>176</ns3:hr>
            <ns3:cad>75</ns3:cad>
          </ns3:TrackPointExtension>
        </extensions>
      </trkpt>
      <trkpt lat="52.10230917669832706451416015625" lon="1.36242044158279895782470703125">
        <ele>-75</ele>
        <time>2025-09-05T14:13:17.000Z</time>
        <extensions>
          <ns3:TrackPointExtension>
            <ns3:hr>176</ns3:hr>
            <ns3:cad>0</ns3:cad>
          </ns3:TrackPointExtension>
        </extensions>
      </trkpt>
      <trkpt lat="52.10225871764123439788818359375" lon="1.3624513708055019378662109375">
        <ele>-75.1999969482421875</ele>
        <time>2025-09-05T14:13:20.000Z</time>
        <extensions>
          <ns3:TrackPointExtension>
            <ns3:hr>173</ns3:hr>
            <ns3:cad>0</ns3:cad>
          </ns3:TrackPointExtension>
        </extensions>
      </trkpt>
      <trkpt lat="52.10219937376677989959716796875" lon="1.36254969052970409393310546875">
        <ele>-75.40000152587890625</ele>
        <time>2025-09-05T14:13:23.000Z</time>
        <extensions>
          <ns3:TrackPointExtension>
            <ns3:hr>171</ns3:hr>
            <ns3:cad>0</ns3:cad>
          </ns3:TrackPointExtension>
        </extensions>
      </trkpt>
      <trkpt lat="52.10219367407262325286865234375" lon="1.3625864870846271514892578125">
        <ele>-75.59999847412109375</ele>
        <time>2025-09-05T14:13:24.000Z</time>
        <extensions>
          <ns3:TrackPointExtension>
            <ns3:hr>169</ns3:hr>
            <ns3:cad>78</ns3:cad>
          </ns3:TrackPointExtension>
        </extensions>
      </trkpt>
      <trkpt lat="52.10216618143022060394287109375" lon="1.36283752508461475372314453125">
        <ele>-76</ele>
        <time>2025-09-05T14:13:29.000Z</time>
        <extensions>
          <ns3:TrackPointExtension>
            <ns3:hr>167</ns3:hr>
            <ns3:cad>79</ns3:cad>
          </ns3:TrackPointExtension>
        </extensions>
      </trkpt>
      <trkpt lat="52.10216148756444454193115234375" lon="1.36288211680948734283447265625">
        <ele>-76.1999969482421875</ele>
        <time>2025-09-05T14:13:30.000Z</time>
        <extensions>
          <ns3:TrackPointExtension>
            <ns3:hr>167</ns3:hr>
            <ns3:cad>80</ns3:cad>
          </ns3:TrackPointExtension>
        </extensions>
      </trkpt>
      <trkpt lat="52.10214505903422832489013671875" lon="1.36302595026791095733642578125">
        <ele>-76.59999847412109375</ele>
        <time>2025-09-05T14:13:33.000Z</time>
        <extensions>
          <ns3:TrackPointExtension>
            <ns3:hr>170</ns3:hr>
            <ns3:cad>82</ns3:cad>
          </ns3:TrackPointExtension>
        </extensions>
      </trkpt>
      <trkpt lat="52.10213516838848590850830078125" lon="1.36310759000480175018310546875">
        <ele>-76.8000030517578125</ele>
        <time>2025-09-05T14:13:35.000Z</time>
        <extensions>
          <ns3:TrackPointExtension>
            <ns3:hr>173</ns3:hr>
            <ns3:cad>82</ns3:cad>
          </ns3:TrackPointExtension>
        </extensions>
      </trkpt>
      <trkpt lat="52.1021354198455810546875" lon="1.36314488947391510009765625">
        <ele>-76.8000030517578125</ele>
        <time>2025-09-05T14:13:36.000Z</time>
        <extensions>
          <ns3:TrackPointExtension>
            <ns3:hr>173</ns3:hr>
            <ns3:cad>82</ns3:cad>
          </ns3:TrackPointExtension>
        </extensions>
      </trkpt>
      <trkpt lat="52.1021568775177001953125" lon="1.36320515535771846771240234375">
        <ele>-77.1999969482421875</ele>
        <time>2025-09-05T14:13:38.000Z</time>
        <extensions>
          <ns3:TrackPointExtension>
            <ns3:hr>174</ns3:hr>
            <ns3:cad>81</ns3:cad>
          </ns3:TrackPointExtension>
        </extensions>
      </trkpt>
      <trkpt lat="52.10217406041920185089111328125" lon="1.3632380962371826171875">
        <ele>-77.59999847412109375</ele>
        <time>2025-09-05T14:13:41.000Z</time>
        <extensions>
          <ns3:TrackPointExtension>
            <ns3:hr>176</ns3:hr>
            <ns3:cad>0</ns3:cad>
          </ns3:TrackPointExtension>
        </extensions>
      </trkpt>
      <trkpt lat="52.10219434462487697601318359375" lon="1.3632637448608875274658203125">
        <ele>-78.1999969482421875</ele>
        <time>2025-09-05T14:13:46.000Z</time>
        <extensions>
          <ns3:TrackPointExtension>
            <ns3:hr>179</ns3:hr>
            <ns3:cad>0</ns3:cad>
          </ns3:TrackPointExtension>
        </extensions>
      </trkpt>
      <trkpt lat="52.10221999324858188629150390625" lon="1.3633053191006183624267578125">
        <ele>-78.40000152587890625</ele>
        <time>2025-09-05T14:13:48.000Z</time>
        <extensions>
          <ns3:TrackPointExtension>
            <ns3:hr>179</ns3:hr>
            <ns3:cad>0</ns3:cad>
          </ns3:TrackPointExtension>
        </extensions>
      </trkpt>
      <trkpt lat="52.10228453390300273895263671875" lon="1.3634317182004451751708984375">
        <ele>-79.1999969482421875</ele>
        <time>2025-09-05T14:13:54.000Z</time>
        <extensions>
          <ns3:TrackPointExtension>
            <ns3:hr>178</ns3:hr>
            <ns3:cad>58</ns3:cad>
          </ns3:TrackPointExtension>
        </extensions>
      </trkpt>
      <trkpt lat="52.10230163298547267913818359375" lon="1.36347136460244655609130859375">
        <ele>-79.59999847412109375</ele>
        <time>2025-09-05T14:13:56.000Z</time>
        <extensions>
          <ns3:TrackPointExtension>
            <ns3:hr>179</ns3:hr>
            <ns3:cad>60</ns3:cad>
          </ns3:TrackPointExtension>
        </extensions>
      </trkpt>
      <trkpt lat="52.10229693911969661712646484375" lon="1.36353272013366222381591796875">
        <ele>-80</ele>
        <time>2025-09-05T14:13:59.000Z</time>
        <extensions>
          <ns3:TrackPointExtension>
            <ns3:hr>176</ns3:hr>
            <ns3:cad>59</ns3:cad>
          </ns3:TrackPointExtension>
        </extensions>
      </trkpt>
      <trkpt lat="52.1023111045360565185546875" lon="1.36357161216437816619873046875">
        <ele>-80.40000152587890625</ele>
        <time>2025-09-05T14:14:01.000Z</time>
        <extensions>
          <ns3:TrackPointExtension>
            <ns3:hr>174</ns3:hr>
            <ns3:cad>58</ns3:cad>
          </ns3:TrackPointExtension>
        </extensions>
      </trkpt>
      <trkpt lat="52.10231470875442028045654296875" lon="1.36362969875335693359375">
        <ele>-80.8000030517578125</ele>
        <time>2025-09-05T14:14:04.000Z</time>
        <extensions>
          <ns3:TrackPointExtension>
            <ns3:hr>173</ns3:hr>
            <ns3:cad>56</ns3:cad>
          </ns3:TrackPointExtension>
        </extensions>
      </trkpt>
      <trkpt lat="52.10231705568730831146240234375" lon="1.36367822997272014617919921875">
        <ele>-81.40000152587890625</ele>
        <time>2025-09-05T14:14:07.000Z</time>
        <extensions>
          <ns3:TrackPointExtension>
            <ns3:hr>170</ns3:hr>
            <ns3:cad>56</ns3:cad>
          </ns3:TrackPointExtension>
        </extensions>
      </trkpt>
      <trkpt lat="52.10232024081051349639892578125" lon="1.3636831752955913543701171875">
        <ele>-81.59999847412109375</ele>
        <time>2025-09-05T14:14:08.000Z</time>
        <extensions>
          <ns3:TrackPointExtension>
            <ns3:hr>170</ns3:hr>
            <ns3:cad>56</ns3:cad>
          </ns3:TrackPointExtension>
        </extensions>
      </trkpt>
      <trkpt lat="52.10233096964657306671142578125" lon="1.363680996000766754150390625">
        <ele>-82</ele>
        <time>2025-09-05T14:14:10.000Z</time>
        <extensions>
          <ns3:TrackPointExtension>
            <ns3:hr>168</ns3:hr>
            <ns3:cad>56</ns3:cad>
          </ns3:TrackPointExtension>
        </extensions>
      </trkpt>
      <trkpt lat="52.10233432240784168243408203125" lon="1.36371678672730922698974609375">
        <ele>-82.59999847412109375</ele>
        <time>2025-09-05T14:14:13.000Z</time>
        <extensions>
          <ns3:TrackPointExtension>
            <ns3:hr>170</ns3:hr>
            <ns3:cad>0</ns3:cad>
          </ns3:TrackPointExtension>
        </extensions>
      </trkpt>
      <trkpt lat="52.1023486554622650146484375" lon="1.36378970928490161895751953125">
        <ele>-83.1999969482421875</ele>
        <time>2025-09-05T14:14:16.000Z</time>
        <extensions>
          <ns3:TrackPointExtension>
            <ns3:hr>168</ns3:hr>
            <ns3:cad>0</ns3:cad>
          </ns3:TrackPointExtension>
        </extensions>
      </trkpt>
      <trkpt lat="52.10236181505024433135986328125" lon="1.36383782140910625457763671875">
        <ele>-83.59999847412109375</ele>
        <time>2025-09-05T14:14:18.000Z</time>
        <extensions>
          <ns3:TrackPointExtension>
            <ns3:hr>168</ns3:hr>
            <ns3:cad>55</ns3:cad>
          </ns3:TrackPointExtension>
        </extensions>
      </trkpt>
      <trkpt lat="52.10238561965525150299072265625" lon="1.36395500041544437408447265625">
        <ele>-84.8000030517578125</ele>
        <time>2025-09-05T14:14:23.000Z</time>
        <extensions>
          <ns3:TrackPointExtension>
            <ns3:hr>166</ns3:hr>
            <ns3:cad>59</ns3:cad>
          </ns3:TrackPointExtension>
        </extensions>
      </trkpt>
      <trkpt lat="52.10238947533071041107177734375" lon="1.36399690993130207061767578125">
        <ele>-85.1999969482421875</ele>
        <time>2025-09-05T14:14:25.000Z</time>
        <extensions>
          <ns3:TrackPointExtension>
            <ns3:hr>166</ns3:hr>
            <ns3:cad>59</ns3:cad>
          </ns3:TrackPointExtension>
        </extensions>
      </trkpt>
      <trkpt lat="52.10237346589565277099609375" lon="1.364076621830463409423828125">
        <ele>-86</ele>
        <time>2025-09-05T14:14:28.000Z</time>
        <extensions>
          <ns3:TrackPointExtension>
            <ns3:hr>166</ns3:hr>
            <ns3:cad>61</ns3:cad>
          </ns3:TrackPointExtension>
        </extensions>
      </trkpt>
      <trkpt lat="52.10236005485057830810546875" lon="1.36420109309256076812744140625">
        <ele>-87.1999969482421875</ele>
        <time>2025-09-05T14:14:33.000Z</time>
        <extensions>
          <ns3:TrackPointExtension>
            <ns3:hr>166</ns3:hr>
            <ns3:cad>61</ns3:cad>
          </ns3:TrackPointExtension>
        </extensions>
      </trkpt>
      <trkpt lat="52.10237069986760616302490234375" lon="1.36433218605816364288330078125">
        <ele>-88.1999969482421875</ele>
        <time>2025-09-05T14:14:38.000Z</time>
        <extensions>
          <ns3:TrackPointExtension>
            <ns3:hr>164</ns3:hr>
            <ns3:cad>62</ns3:cad>
          </ns3:TrackPointExtension>
        </extensions>
      </trkpt>
      <trkpt lat="52.10236852057278156280517578125" lon="1.36435548774898052215576171875">
        <ele>-88.40000152587890625</ele>
        <time>2025-09-05T14:14:39.000Z</time>
        <extensions>
          <ns3:TrackPointExtension>
            <ns3:hr>164</ns3:hr>
            <ns3:cad>45</ns3:cad>
          </ns3:TrackPointExtension>
        </extensions>
      </trkpt>
      <trkpt lat="52.10233801044523715972900390625" lon="1.3644182682037353515625">
        <ele>-89.40000152587890625</ele>
        <time>2025-09-05T14:14:43.000Z</time>
        <extensions>
          <ns3:TrackPointExtension>
            <ns3:hr>162</ns3:hr>
            <ns3:cad>0</ns3:cad>
          </ns3:TrackPointExtension>
        </extensions>
      </trkpt>
      <trkpt lat="52.102327533066272735595703125" lon="1.36442053131759166717529296875">
        <ele>-89.8000030517578125</ele>
        <time>2025-09-05T14:14:45.000Z</time>
        <extensions>
          <ns3:TrackPointExtension>
            <ns3:hr>161</ns3:hr>
            <ns3:cad>0</ns3:cad>
          </ns3:TrackPointExtension>
        </extensions>
      </trkpt>
      <trkpt lat="52.102323509752750396728515625" lon="1.3644217886030673980712890625">
        <ele>-90.1999969482421875</ele>
        <time>2025-09-05T14:14:47.000Z</time>
        <extensions>
          <ns3:TrackPointExtension>
            <ns3:hr>158</ns3:hr>
            <ns3:cad>0</ns3:cad>
          </ns3:TrackPointExtension>
        </extensions>
      </trkpt>
      <trkpt lat="52.10232342593371868133544921875" lon="1.3644224591553211212158203125">
        <ele>-90.40000152587890625</ele>
        <time>2025-09-05T14:14:48.000Z</time>
        <extensions>
          <ns3:TrackPointExtension>
            <ns3:hr>156</ns3:hr>
            <ns3:cad>0</ns3:cad>
          </ns3:TrackPointExtension>
        </extensions>
      </trkpt>
      <trkpt lat="52.10232275538146495819091796875" lon="1.364425979554653167724609375">
        <ele>-90.8000030517578125</ele>
        <time>2025-09-05T14:14:50.000Z</time>
        <extensions>
          <ns3:TrackPointExtension>
            <ns3:hr>152</ns3:hr>
            <ns3:cad>0</ns3:cad>
          </ns3:TrackPointExtension>
        </extensions>
      </trkpt>
      <trkpt lat="52.1022976934909820556640625" lon="1.364412568509578704833984375">
        <ele>-91.1999969482421875</ele>
        <time>2025-09-05T14:14:53.000Z</time>
        <extensions>
          <ns3:TrackPointExtension>
            <ns3:hr>150</ns3:hr>
            <ns3:cad>0</ns3:cad>
          </ns3:TrackPointExtension>
        </extensions>
      </trkpt>
      <trkpt lat="52.10226827301084995269775390625" lon="1.3643927872180938720703125">
        <ele>-91.40000152587890625</ele>
        <time>2025-09-05T14:14:56.000Z</time>
        <extensions>
          <ns3:TrackPointExtension>
            <ns3:hr>148</ns3:hr>
            <ns3:cad>0</ns3:cad>
          </ns3:TrackPointExtension>
        </extensions>
      </trkpt>
      <trkpt lat="52.1021972782909870147705078125" lon="1.3643996603786945343017578125">
        <ele>-91.8000030517578125</ele>
        <time>2025-09-05T14:15:01.000Z</time>
        <extensions>
          <ns3:TrackPointExtension>
            <ns3:hr>149</ns3:hr>
            <ns3:cad>58</ns3:cad>
          </ns3:TrackPointExtension>
        </extensions>
      </trkpt>
      <trkpt lat="52.10207012481987476348876953125" lon="1.364374347031116485595703125">
        <ele>-91.59999847412109375</ele>
        <time>2025-09-05T14:15:10.000Z</time>
        <extensions>
          <ns3:TrackPointExtension>
            <ns3:hr>149</ns3:hr>
            <ns3:cad>60</ns3:cad>
          </ns3:TrackPointExtension>
        </extensions>
      </trkpt>
      <trkpt lat="52.10205771960318088531494140625" lon="1.36437158100306987762451171875">
        <ele>-91.40000152587890625</ele>
        <time>2025-09-05T14:15:11.000Z</time>
        <extensions>
          <ns3:TrackPointExtension>
            <ns3:hr>152</ns3:hr>
            <ns3:cad>61</ns3:cad>
          </ns3:TrackPointExtension>
        </extensions>
      </trkpt>
      <trkpt lat="52.1019900776445865631103515625" lon="1.36436169035732746124267578125">
        <ele>-90.40000152587890625</ele>
        <time>2025-09-05T14:15:17.000Z</time>
        <extensions>
          <ns3:TrackPointExtension>
            <ns3:hr>152</ns3:hr>
            <ns3:cad>61</ns3:cad>
          </ns3:TrackPointExtension>
        </extensions>
      </trkpt>
      <trkpt lat="52.10196116007864475250244140625" lon="1.36434375308454036712646484375">
        <ele>-90</ele>
        <time>2025-09-05T14:15:19.000Z</time>
        <extensions>
          <ns3:TrackPointExtension>
            <ns3:hr>150</ns3:hr>
            <ns3:cad>60</ns3:cad>
          </ns3:TrackPointExtension>
        </extensions>
      </trkpt>
      <trkpt lat="52.101908437907695770263671875" lon="1.364335119724273681640625">
        <ele>-89.1999969482421875</ele>
        <time>2025-09-05T14:15:23.000Z</time>
        <extensions>
          <ns3:TrackPointExtension>
            <ns3:hr>148</ns3:hr>
            <ns3:cad>60</ns3:cad>
          </ns3:TrackPointExtension>
        </extensions>
      </trkpt>
      <trkpt lat="52.10185823030769824981689453125" lon="1.364337466657161712646484375">
        <ele>-88.59999847412109375</ele>
        <time>2025-09-05T14:15:27.000Z</time>
        <extensions>
          <ns3:TrackPointExtension>
            <ns3:hr>149</ns3:hr>
            <ns3:cad>61</ns3:cad>
          </ns3:TrackPointExtension>
        </extensions>
      </trkpt>
      <trkpt lat="52.10181891918182373046875" lon="1.3643337786197662353515625">
        <ele>-88.1999969482421875</ele>
        <time>2025-09-05T14:15:30.000Z</time>
        <extensions>
          <ns3:TrackPointExtension>
            <ns3:hr>151</ns3:hr>
            <ns3:cad>61</ns3:cad>
          </ns3:TrackPointExtension>
        </extensions>
      </trkpt>
      <trkpt lat="52.1017691306769847869873046875" lon="1.364330761134624481201171875">
        <ele>-87.8000030517578125</ele>
        <time>2025-09-05T14:15:34.000Z</time>
        <extensions>
          <ns3:TrackPointExtension>
            <ns3:hr>153</ns3:hr>
            <ns3:cad>61</ns3:cad>
          </ns3:TrackPointExtension>
        </extensions>
      </trkpt>
      <trkpt lat="52.10169478319585323333740234375" lon="1.364246942102909088134765625">
        <ele>-87.40000152587890625</ele>
        <time>2025-09-05T14:15:40.000Z</time>
        <extensions>
          <ns3:TrackPointExtension>
            <ns3:hr>147</ns3:hr>
            <ns3:cad>60</ns3:cad>
          </ns3:TrackPointExtension>
        </extensions>
      </trkpt>
      <trkpt lat="52.10167801938951015472412109375" lon="1.36424803175032138824462890625">
        <ele>-87.40000152587890625</ele>
        <time>2025-09-05T14:15:41.000Z</time>
        <extensions>
          <ns3:TrackPointExtension>
            <ns3:hr>147</ns3:hr>
            <ns3:cad>60</ns3:cad>
          </ns3:TrackPointExtension>
        </extensions>
      </trkpt>
      <trkpt lat="52.101661004126071929931640625" lon="1.3642467744648456573486328125">
        <ele>-87.40000152587890625</ele>
        <time>2025-09-05T14:15:42.000Z</time>
        <extensions>
          <ns3:TrackPointExtension>
            <ns3:hr>146</ns3:hr>
            <ns3:cad>60</ns3:cad>
          </ns3:TrackPointExtension>
        </extensions>
      </trkpt>
      <trkpt lat="52.10155061446130275726318359375" lon="1.3643071241676807403564453125">
        <ele>-87.1999969482421875</ele>
        <time>2025-09-05T14:15:49.000Z</time>
        <extensions>
          <ns3:TrackPointExtension>
            <ns3:hr>145</ns3:hr>
            <ns3:cad>59</ns3:cad>
          </ns3:TrackPointExtension>
        </extensions>
      </trkpt>
      <trkpt lat="52.1014455892145633697509765625" lon="1.364366300404071807861328125">
        <ele>-87.59999847412109375</ele>
        <time>2025-09-05T14:15:57.000Z</time>
        <extensions>
          <ns3:TrackPointExtension>
            <ns3:hr>146</ns3:hr>
            <ns3:cad>60</ns3:cad>
          </ns3:TrackPointExtension>
        </extensions>
      </trkpt>
      <trkpt lat="52.1012953855097293853759765625" lon="1.364382393658161163330078125">
        <ele>-88</ele>
        <time>2025-09-05T14:16:04.000Z</time>
        <extensions>
          <ns3:TrackPointExtension>
            <ns3:hr>145</ns3:hr>
            <ns3:cad>61</ns3:cad>
          </ns3:TrackPointExtension>
        </extensions>
      </trkpt>
      <trkpt lat="52.10118591785430908203125" lon="1.3643537275493144989013671875">
        <ele>-88.59999847412109375</ele>
        <time>2025-09-05T14:16:13.000Z</time>
        <extensions>
          <ns3:TrackPointExtension>
            <ns3:hr>142</ns3:hr>
            <ns3:cad>60</ns3:cad>
          </ns3:TrackPointExtension>
        </extensions>
      </trkpt>
      <trkpt lat="52.101146019995212554931640625" lon="1.3643369637429714202880859375">
        <ele>-88.8000030517578125</ele>
        <time>2025-09-05T14:16:17.000Z</time>
        <extensions>
          <ns3:TrackPointExtension>
            <ns3:hr>139</ns3:hr>
            <ns3:cad>61</ns3:cad>
          </ns3:TrackPointExtension>
        </extensions>
      </trkpt>
      <trkpt lat="52.10110318847000598907470703125" lon="1.3643258996307849884033203125">
        <ele>-89.1999969482421875</ele>
        <time>2025-09-05T14:16:20.000Z</time>
        <extensions>
          <ns3:TrackPointExtension>
            <ns3:hr>139</ns3:hr>
            <ns3:cad>60</ns3:cad>
          </ns3:TrackPointExtension>
        </extensions>
      </trkpt>
      <trkpt lat="52.1010707505047321319580078125" lon="1.36432698927819728851318359375">
        <ele>-89.40000152587890625</ele>
        <time>2025-09-05T14:16:22.000Z</time>
        <extensions>
          <ns3:TrackPointExtension>
            <ns3:hr>142</ns3:hr>
            <ns3:cad>60</ns3:cad>
          </ns3:TrackPointExtension>
        </extensions>
      </trkpt>
      <trkpt lat="52.1009497158229351043701171875" lon="1.36432103812694549560546875">
        <ele>-90.1999969482421875</ele>
        <time>2025-09-05T14:16:30.000Z</time>
        <extensions>
          <ns3:TrackPointExtension>
            <ns3:hr>140</ns3:hr>
            <ns3:cad>61</ns3:cad>
          </ns3:TrackPointExtension>
        </extensions>
      </trkpt>
      <trkpt lat="52.10080781020224094390869140625" lon="1.36433218605816364288330078125">
        <ele>-91</ele>
        <time>2025-09-05T14:16:38.000Z</time>
        <extensions>
          <ns3:TrackPointExtension>
            <ns3:hr>142</ns3:hr>
            <ns3:cad>61</ns3:cad>
          </ns3:TrackPointExtension>
        </extensions>
      </trkpt>
      <trkpt lat="52.10075316019356250762939453125" lon="1.36430787853896617889404296875">
        <ele>-91.40000152587890625</ele>
        <time>2025-09-05T14:16:42.000Z</time>
        <extensions>
          <ns3:TrackPointExtension>
            <ns3:hr>142</ns3:hr>
            <ns3:cad>62</ns3:cad>
          </ns3:TrackPointExtension>
        </extensions>
      </trkpt>
      <trkpt lat="52.10071426816284656524658203125" lon="1.36429849080741405487060546875">
        <ele>-91.59999847412109375</ele>
        <time>2025-09-05T14:16:45.000Z</time>
        <extensions>
          <ns3:TrackPointExtension>
            <ns3:hr>143</ns3:hr>
            <ns3:cad>60</ns3:cad>
          </ns3:TrackPointExtension>
        </extensions>
      </trkpt>
      <trkpt lat="52.10063405334949493408203125" lon="1.36430553160607814788818359375">
        <ele>-91.8000030517578125</ele>
        <time>2025-09-05T14:16:50.000Z</time>
        <extensions>
          <ns3:TrackPointExtension>
            <ns3:hr>146</ns3:hr>
            <ns3:cad>60</ns3:cad>
          </ns3:TrackPointExtension>
        </extensions>
      </trkpt>
      <trkpt lat="52.1005557663738727569580078125" lon="1.36428826488554477691650390625">
        <ele>-92</ele>
        <time>2025-09-05T14:16:54.000Z</time>
        <extensions>
          <ns3:TrackPointExtension>
            <ns3:hr>146</ns3:hr>
            <ns3:cad>60</ns3:cad>
          </ns3:TrackPointExtension>
        </extensions>
      </trkpt>
      <trkpt lat="52.100457362830638885498046875" lon="1.3642903603613376617431640625">
        <ele>-92.40000152587890625</ele>
        <time>2025-09-05T14:16:58.000Z</time>
        <extensions>
          <ns3:TrackPointExtension>
            <ns3:hr>143</ns3:hr>
            <ns3:cad>0</ns3:cad>
          </ns3:TrackPointExtension>
        </extensions>
      </trkpt>
      <trkpt lat="52.10043665952980518341064453125" lon="1.36428742669522762298583984375">
        <ele>-92.40000152587890625</ele>
        <time>2025-09-05T14:16:59.000Z</time>
        <extensions>
          <ns3:TrackPointExtension>
            <ns3:hr>144</ns3:hr>
            <ns3:cad>0</ns3:cad>
          </ns3:TrackPointExtension>
        </extensions>
      </trkpt>
      <trkpt lat="52.10041386075317859649658203125" lon="1.3642839901149272918701171875">
        <ele>-92.40000152587890625</ele>
        <time>2025-09-05T14:17:00.000Z</time>
        <extensions>
          <ns3:TrackPointExtension>
            <ns3:hr>144</ns3:hr>
            <ns3:cad>0</ns3:cad>
          </ns3:TrackPointExtension>
        </extensions>
      </trkpt>
      <trkpt lat="52.10034303367137908935546875" lon="1.36426580138504505157470703125">
        <ele>-92.59999847412109375</ele>
        <time>2025-09-05T14:17:03.000Z</time>
        <extensions>
          <ns3:TrackPointExtension>
            <ns3:hr>148</ns3:hr>
            <ns3:cad>80</ns3:cad>
          </ns3:TrackPointExtension>
        </extensions>
      </trkpt>
      <trkpt lat="52.100290395319461822509765625" lon="1.3642615266144275665283203125">
        <ele>-92.59999847412109375</ele>
        <time>2025-09-05T14:17:05.000Z</time>
        <extensions>
          <ns3:TrackPointExtension>
            <ns3:hr>154</ns3:hr>
            <ns3:cad>81</ns3:cad>
          </ns3:TrackPointExtension>
        </extensions>
      </trkpt>
      <trkpt lat="52.10026365704834461212158203125" lon="1.364256329834461212158203125">
        <ele>-92.59999847412109375</ele>
        <time>2025-09-05T14:17:06.000Z</time>
        <extensions>
          <ns3:TrackPointExtension>
            <ns3:hr>157</ns3:hr>
            <ns3:cad>82</ns3:cad>
          </ns3:TrackPointExtension>
        </extensions>
      </trkpt>
      <trkpt lat="52.1002355776727199554443359375" lon="1.36425171978771686553955078125">
        <ele>-92.8000030517578125</ele>
        <time>2025-09-05T14:17:07.000Z</time>
        <extensions>
          <ns3:TrackPointExtension>
            <ns3:hr>158</ns3:hr>
            <ns3:cad>82</ns3:cad>
          </ns3:TrackPointExtension>
        </extensions>
      </trkpt>
      <trkpt lat="52.100182436406612396240234375" lon="1.364232860505580902099609375">
        <ele>-92.8000030517578125</ele>
        <time>2025-09-05T14:17:09.000Z</time>
        <extensions>
          <ns3:TrackPointExtension>
            <ns3:hr>161</ns3:hr>
            <ns3:cad>83</ns3:cad>
          </ns3:TrackPointExtension>
        </extensions>
      </trkpt>
      <trkpt lat="52.100131474435329437255859375" lon="1.3642092235386371612548828125">
        <ele>-92.8000030517578125</ele>
        <time>2025-09-05T14:17:11.000Z</time>
        <extensions>
          <ns3:TrackPointExtension>
            <ns3:hr>165</ns3:hr>
            <ns3:cad>83</ns3:cad>
          </ns3:TrackPointExtension>
        </extensions>
      </trkpt>
      <trkpt lat="52.1000836975872516632080078125" lon="1.36418759822845458984375">
        <ele>-92.8000030517578125</ele>
        <time>2025-09-05T14:17:13.000Z</time>
        <extensions>
          <ns3:TrackPointExtension>
            <ns3:hr>168</ns3:hr>
            <ns3:cad>83</ns3:cad>
          </ns3:TrackPointExtension>
        </extensions>
      </trkpt>
      <trkpt lat="52.09997984580695629119873046875" lon="1.36415013112127780914306640625">
        <ele>-92.59999847412109375</ele>
        <time>2025-09-05T14:17:17.000Z</time>
        <extensions>
          <ns3:TrackPointExtension>
            <ns3:hr>164</ns3:hr>
            <ns3:cad>84</ns3:cad>
          </ns3:TrackPointExtension>
        </extensions>
      </trkpt>
      <trkpt lat="52.0998151414096355438232421875" lon="1.36403379030525684356689453125">
        <ele>-91.59999847412109375</ele>
        <time>2025-09-05T14:17:25.000Z</time>
        <extensions>
          <ns3:TrackPointExtension>
            <ns3:hr>164</ns3:hr>
            <ns3:cad>82</ns3:cad>
          </ns3:TrackPointExtension>
        </extensions>
      </trkpt>
      <trkpt lat="52.099778093397617340087890625" lon="1.36399741284549236297607421875">
        <ele>-91.40000152587890625</ele>
        <time>2025-09-05T14:17:27.000Z</time>
        <extensions>
          <ns3:TrackPointExtension>
            <ns3:hr>162</ns3:hr>
            <ns3:cad>82</ns3:cad>
          </ns3:TrackPointExtension>
        </extensions>
      </trkpt>
      <trkpt lat="52.0996475033462047576904296875" lon="1.36391468346118927001953125">
        <ele>-90.1999969482421875</ele>
        <time>2025-09-05T14:17:33.000Z</time>
        <extensions>
          <ns3:TrackPointExtension>
            <ns3:hr>162</ns3:hr>
            <ns3:cad>81</ns3:cad>
          </ns3:TrackPointExtension>
        </extensions>
      </trkpt>
      <trkpt lat="52.09961104206740856170654296875" lon="1.36386665515601634979248046875">
        <ele>-89.40000152587890625</ele>
        <time>2025-09-05T14:17:36.000Z</time>
        <extensions>
          <ns3:TrackPointExtension>
            <ns3:hr>166</ns3:hr>
            <ns3:cad>81</ns3:cad>
          </ns3:TrackPointExtension>
        </extensions>
      </trkpt>
      <trkpt lat="52.09960953332483768463134765625" lon="1.3638323731720447540283203125">
        <ele>-89</ele>
        <time>2025-09-05T14:17:38.000Z</time>
        <extensions>
          <ns3:TrackPointExtension>
            <ns3:hr>167</ns3:hr>
            <ns3:cad>0</ns3:cad>
          </ns3:TrackPointExtension>
        </extensions>
      </trkpt>
      <trkpt lat="52.09961037151515483856201171875" lon="1.36381678283214569091796875">
        <ele>-88.40000152587890625</ele>
        <time>2025-09-05T14:17:40.000Z</time>
        <extensions>
          <ns3:TrackPointExtension>
            <ns3:hr>172</ns3:hr>
            <ns3:cad>0</ns3:cad>
          </ns3:TrackPointExtension>
        </extensions>
      </trkpt>
      <trkpt lat="52.099613808095455169677734375" lon="1.36380873620510101318359375">
        <ele>-88.1999969482421875</ele>
        <time>2025-09-05T14:17:41.000Z</time>
        <extensions>
          <ns3:TrackPointExtension>
            <ns3:hr>175</ns3:hr>
            <ns3:cad>0</ns3:cad>
          </ns3:TrackPointExtension>
        </extensions>
      </trkpt>
      <trkpt lat="52.0996166579425334930419921875" lon="1.36379943229258060455322265625">
        <ele>-88</ele>
        <time>2025-09-05T14:17:42.000Z</time>
        <extensions>
          <ns3:TrackPointExtension>
            <ns3:hr>175</ns3:hr>
            <ns3:cad>0</ns3:cad>
          </ns3:TrackPointExtension>
        </extensions>
      </trkpt>
      <trkpt lat="52.09961757995188236236572265625" lon="1.3637946546077728271484375">
        <ele>-87.8000030517578125</ele>
        <time>2025-09-05T14:17:43.000Z</time>
        <extensions>
          <ns3:TrackPointExtension>
            <ns3:hr>175</ns3:hr>
            <ns3:cad>0</ns3:cad>
          </ns3:TrackPointExtension>
        </extensions>
      </trkpt>
      <trkpt lat="52.09960006177425384521484375" lon="1.36376473121345043182373046875">
        <ele>-86.8000030517578125</ele>
        <time>2025-09-05T14:17:47.000Z</time>
        <extensions>
          <ns3:TrackPointExtension>
            <ns3:hr>174</ns3:hr>
            <ns3:cad>0</ns3:cad>
          </ns3:TrackPointExtension>
        </extensions>
      </trkpt>
      <trkpt lat="52.0995874889194965362548828125" lon="1.36375106871128082275390625">
        <ele>-86.8000030517578125</ele>
        <time>2025-09-05T14:17:48.000Z</time>
        <extensions>
          <ns3:TrackPointExtension>
            <ns3:hr>173</ns3:hr>
            <ns3:cad>0</ns3:cad>
          </ns3:TrackPointExtension>
        </extensions>
      </trkpt>
      <trkpt lat="52.09953946061432361602783203125" lon="1.36368443258106708526611328125">
        <ele>-86</ele>
        <time>2025-09-05T14:17:53.000Z</time>
        <extensions>
          <ns3:TrackPointExtension>
            <ns3:hr>170</ns3:hr>
            <ns3:cad>0</ns3:cad>
          </ns3:TrackPointExtension>
        </extensions>
      </trkpt>
      <trkpt lat="52.0995224453508853912353515625" lon="1.363667584955692291259765625">
        <ele>-86</ele>
        <time>2025-09-05T14:17:54.000Z</time>
        <extensions>
          <ns3:TrackPointExtension>
            <ns3:hr>168</ns3:hr>
            <ns3:cad>0</ns3:cad>
          </ns3:TrackPointExtension>
        </extensions>
      </trkpt>
      <trkpt lat="52.09946469403803348541259765625" lon="1.36361301876604557037353515625">
        <ele>-85.59999847412109375</ele>
        <time>2025-09-05T14:17:57.000Z</time>
        <extensions>
          <ns3:TrackPointExtension>
            <ns3:hr>166</ns3:hr>
            <ns3:cad>57</ns3:cad>
          </ns3:TrackPointExtension>
        </extensions>
      </trkpt>
      <trkpt lat="52.09940560162067413330078125" lon="1.363557614386081695556640625">
        <ele>-85.40000152587890625</ele>
        <time>2025-09-05T14:18:00.000Z</time>
        <extensions>
          <ns3:TrackPointExtension>
            <ns3:hr>162</ns3:hr>
            <ns3:cad>78</ns3:cad>
          </ns3:TrackPointExtension>
        </extensions>
      </trkpt>
      <trkpt lat="52.09926319308578968048095703125" lon="1.36343364603817462921142578125">
        <ele>-85</ele>
        <time>2025-09-05T14:18:07.000Z</time>
        <extensions>
          <ns3:TrackPointExtension>
            <ns3:hr>165</ns3:hr>
            <ns3:cad>80</ns3:cad>
          </ns3:TrackPointExtension>
        </extensions>
      </trkpt>
      <trkpt lat="52.09922631271183490753173828125" lon="1.36339835822582244873046875">
        <ele>-84.8000030517578125</ele>
        <time>2025-09-05T14:18:09.000Z</time>
        <extensions>
          <ns3:TrackPointExtension>
            <ns3:hr>169</ns3:hr>
            <ns3:cad>80</ns3:cad>
          </ns3:TrackPointExtension>
        </extensions>
      </trkpt>
      <trkpt lat="52.09918566048145294189453125" lon="1.36337027885019779205322265625">
        <ele>-84.8000030517578125</ele>
        <time>2025-09-05T14:18:11.000Z</time>
        <extensions>
          <ns3:TrackPointExtension>
            <ns3:hr>173</ns3:hr>
            <ns3:cad>80</ns3:cad>
          </ns3:TrackPointExtension>
        </extensions>
      </trkpt>
      <trkpt lat="52.0991466008126735687255859375" lon="1.36333691887557506561279296875">
        <ele>-84.59999847412109375</ele>
        <time>2025-09-05T14:18:13.000Z</time>
        <extensions>
          <ns3:TrackPointExtension>
            <ns3:hr>178</ns3:hr>
            <ns3:cad>79</ns3:cad>
          </ns3:TrackPointExtension>
        </extensions>
      </trkpt>
      <trkpt lat="52.099128998816013336181640625" lon="1.3633199036121368408203125">
        <ele>-84.59999847412109375</ele>
        <time>2025-09-05T14:18:14.000Z</time>
        <extensions>
          <ns3:TrackPointExtension>
            <ns3:hr>183</ns3:hr>
            <ns3:cad>79</ns3:cad>
          </ns3:TrackPointExtension>
        </extensions>
      </trkpt>
      <trkpt lat="52.09911248646676540374755859375" lon="1.36330137960612773895263671875">
        <ele>-84.59999847412109375</ele>
        <time>2025-09-05T14:18:15.000Z</time>
        <extensions>
          <ns3:TrackPointExtension>
            <ns3:hr>185</ns3:hr>
            <ns3:cad>79</ns3:cad>
          </ns3:TrackPointExtension>
        </extensions>
      </trkpt>
      <trkpt lat="52.09900201298296451568603515625" lon="1.36318378150463104248046875">
        <ele>-84.40000152587890625</ele>
        <time>2025-09-05T14:18:21.000Z</time>
        <extensions>
          <ns3:TrackPointExtension>
            <ns3:hr>186</ns3:hr>
            <ns3:cad>79</ns3:cad>
          </ns3:TrackPointExtension>
        </extensions>
      </trkpt>
      <trkpt lat="52.09889464080333709716796875" lon="1.3630387745797634124755859375">
        <ele>-84</ele>
        <time>2025-09-05T14:18:28.000Z</time>
        <extensions>
          <ns3:TrackPointExtension>
            <ns3:hr>186</ns3:hr>
            <ns3:cad>79</ns3:cad>
          </ns3:TrackPointExtension>
        </extensions>
      </trkpt>
      <trkpt lat="52.0988215506076812744140625" lon="1.36295068077743053436279296875">
        <ele>-83.59999847412109375</ele>
        <time>2025-09-05T14:18:34.000Z</time>
        <extensions>
          <ns3:TrackPointExtension>
            <ns3:hr>185</ns3:hr>
            <ns3:cad>0</ns3:cad>
          </ns3:TrackPointExtension>
        </extensions>
      </trkpt>
      <trkpt lat="52.0988113246858119964599609375" lon="1.36293844319880008697509765625">
        <ele>-83.40000152587890625</ele>
        <time>2025-09-05T14:18:35.000Z</time>
        <extensions>
          <ns3:TrackPointExtension>
            <ns3:hr>184</ns3:hr>
            <ns3:cad>0</ns3:cad>
          </ns3:TrackPointExtension>
        </extensions>
      </trkpt>
      <trkpt lat="52.098734043538570404052734375" lon="1.36286853812634944915771484375">
        <ele>-83.1999969482421875</ele>
        <time>2025-09-05T14:18:41.000Z</time>
        <extensions>
          <ns3:TrackPointExtension>
            <ns3:hr>183</ns3:hr>
            <ns3:cad>117</ns3:cad>
          </ns3:TrackPointExtension>
        </extensions>
      </trkpt>
      <trkpt lat="52.098629437386989593505859375" lon="1.3627983815968036651611328125">
        <ele>-82.8000030517578125</ele>
        <time>2025-09-05T14:18:46.000Z</time>
        <extensions>
          <ns3:TrackPointExtension>
            <ns3:hr>180</ns3:hr>
            <ns3:cad>77</ns3:cad>
          </ns3:TrackPointExtension>
        </extensions>
      </trkpt>
      <trkpt lat="52.098589204251766204833984375" lon="1.36276426725089550018310546875">
        <ele>-82.59999847412109375</ele>
        <time>2025-09-05T14:18:48.000Z</time>
        <extensions>
          <ns3:TrackPointExtension>
            <ns3:hr>177</ns3:hr>
            <ns3:cad>78</ns3:cad>
          </ns3:TrackPointExtension>
        </extensions>
      </trkpt>
      <trkpt lat="52.09856850095093250274658203125" lon="1.3627440668642520904541015625">
        <ele>-82.40000152587890625</ele>
        <time>2025-09-05T14:18:49.000Z</time>
        <extensions>
          <ns3:TrackPointExtension>
            <ns3:hr>174</ns3:hr>
            <ns3:cad>78</ns3:cad>
          </ns3:TrackPointExtension>
        </extensions>
      </trkpt>
      <trkpt lat="52.09846523590385913848876953125" lon="1.3626853935420513153076171875">
        <ele>-81.40000152587890625</ele>
        <time>2025-09-05T14:18:54.000Z</time>
        <extensions>
          <ns3:TrackPointExtension>
            <ns3:hr>175</ns3:hr>
            <ns3:cad>79</ns3:cad>
          </ns3:TrackPointExtension>
        </extensions>
      </trkpt>
      <trkpt lat="52.0984254218637943267822265625" lon="1.3626679591834545135498046875">
        <ele>-81</ele>
        <time>2025-09-05T14:18:56.000Z</time>
        <extensions>
          <ns3:TrackPointExtension>
            <ns3:hr>178</ns3:hr>
            <ns3:cad>80</ns3:cad>
          </ns3:TrackPointExtension>
        </extensions>
      </trkpt>
      <trkpt lat="52.09840555675327777862548828125" lon="1.36265815235674381256103515625">
        <ele>-80.8000030517578125</ele>
        <time>2025-09-05T14:18:57.000Z</time>
        <extensions>
          <ns3:TrackPointExtension>
            <ns3:hr>178</ns3:hr>
            <ns3:cad>79</ns3:cad>
          </ns3:TrackPointExtension>
        </extensions>
      </trkpt>
      <trkpt lat="52.098369263112545013427734375" lon="1.3626334257423877716064453125">
        <ele>-80.1999969482421875</ele>
        <time>2025-09-05T14:18:59.000Z</time>
        <extensions>
          <ns3:TrackPointExtension>
            <ns3:hr>179</ns3:hr>
            <ns3:cad>79</ns3:cad>
          </ns3:TrackPointExtension>
        </extensions>
      </trkpt>
      <trkpt lat="52.09826968610286712646484375" lon="1.362586319446563720703125">
        <ele>-79.1999969482421875</ele>
        <time>2025-09-05T14:19:04.000Z</time>
        <extensions>
          <ns3:TrackPointExtension>
            <ns3:hr>181</ns3:hr>
            <ns3:cad>80</ns3:cad>
          </ns3:TrackPointExtension>
        </extensions>
      </trkpt>
      <trkpt lat="52.0982497371733188629150390625" lon="1.36258087120950222015380859375">
        <ele>-79</ele>
        <time>2025-09-05T14:19:05.000Z</time>
        <extensions>
          <ns3:TrackPointExtension>
            <ns3:hr>182</ns3:hr>
            <ns3:cad>80</ns3:cad>
          </ns3:TrackPointExtension>
        </extensions>
      </trkpt>
      <trkpt lat="52.098170109093189239501953125" lon="1.36259579099714756011962890625">
        <ele>-78</ele>
        <time>2025-09-05T14:19:09.000Z</time>
        <extensions>
          <ns3:TrackPointExtension>
            <ns3:hr>183</ns3:hr>
            <ns3:cad>80</ns3:cad>
          </ns3:TrackPointExtension>
        </extensions>
      </trkpt>
      <trkpt lat="52.0981354080140590667724609375" lon="1.3626032508909702301025390625">
        <ele>-77.59999847412109375</ele>
        <time>2025-09-05T14:19:11.000Z</time>
        <extensions>
          <ns3:TrackPointExtension>
            <ns3:hr>184</ns3:hr>
            <ns3:cad>80</ns3:cad>
          </ns3:TrackPointExtension>
        </extensions>
      </trkpt>
      <trkpt lat="52.09808955900371074676513671875" lon="1.36262713931500911712646484375">
        <ele>-77</ele>
        <time>2025-09-05T14:19:14.000Z</time>
        <extensions>
          <ns3:TrackPointExtension>
            <ns3:hr>184</ns3:hr>
            <ns3:cad>80</ns3:cad>
          </ns3:TrackPointExtension>
        </extensions>
      </trkpt>
      <trkpt lat="52.0980163849890232086181640625" lon="1.36267793364822864532470703125">
        <ele>-76.1999969482421875</ele>
        <time>2025-09-05T14:19:18.000Z</time>
        <extensions>
          <ns3:TrackPointExtension>
            <ns3:hr>183</ns3:hr>
            <ns3:cad>80</ns3:cad>
          </ns3:TrackPointExtension>
        </extensions>
      </trkpt>
      <trkpt lat="52.09798646159470081329345703125" lon="1.36270022951066493988037109375">
        <ele>-75.8000030517578125</ele>
        <time>2025-09-05T14:19:20.000Z</time>
        <extensions>
          <ns3:TrackPointExtension>
            <ns3:hr>184</ns3:hr>
            <ns3:cad>80</ns3:cad>
          </ns3:TrackPointExtension>
        </extensions>
      </trkpt>
      <trkpt lat="52.0978873036801815032958984375" lon="1.36273560114204883575439453125">
        <ele>-74.8000030517578125</ele>
        <time>2025-09-05T14:19:26.000Z</time>
        <extensions>
          <ns3:TrackPointExtension>
            <ns3:hr>183</ns3:hr>
            <ns3:cad>79</ns3:cad>
          </ns3:TrackPointExtension>
        </extensions>
      </trkpt>
      <trkpt lat="52.0978772453963756561279296875" lon="1.3627551309764385223388671875">
        <ele>-74.59999847412109375</ele>
        <time>2025-09-05T14:19:27.000Z</time>
        <extensions>
          <ns3:TrackPointExtension>
            <ns3:hr>182</ns3:hr>
            <ns3:cad>79</ns3:cad>
          </ns3:TrackPointExtension>
        </extensions>
      </trkpt>
      <trkpt lat="52.0978132076561450958251953125" lon="1.3628252036869525909423828125">
        <ele>-74.1999969482421875</ele>
        <time>2025-09-05T14:19:32.000Z</time>
        <extensions>
          <ns3:TrackPointExtension>
            <ns3:hr>181</ns3:hr>
            <ns3:cad>79</ns3:cad>
          </ns3:TrackPointExtension>
        </extensions>
      </trkpt>
      <trkpt lat="52.09773098118603229522705078125" lon="1.36292922310531139373779296875">
        <ele>-73.59999847412109375</ele>
        <time>2025-09-05T14:19:38.000Z</time>
        <extensions>
          <ns3:TrackPointExtension>
            <ns3:hr>180</ns3:hr>
            <ns3:cad>80</ns3:cad>
          </ns3:TrackPointExtension>
        </extensions>
      </trkpt>
      <trkpt lat="52.0977059192955493927001953125" lon="1.36300583370029926300048828125">
        <ele>-73.59999847412109375</ele>
        <time>2025-09-05T14:19:41.000Z</time>
        <extensions>
          <ns3:TrackPointExtension>
            <ns3:hr>180</ns3:hr>
            <ns3:cad>80</ns3:cad>
          </ns3:TrackPointExtension>
        </extensions>
      </trkpt>
      <trkpt lat="52.09761581383645534515380859375" lon="1.36319107376039028167724609375">
        <ele>-73.1999969482421875</ele>
        <time>2025-09-05T14:19:49.000Z</time>
        <extensions>
          <ns3:TrackPointExtension>
            <ns3:hr>178</ns3:hr>
            <ns3:cad>80</ns3:cad>
          </ns3:TrackPointExtension>
        </extensions>
      </trkpt>
      <trkpt lat="52.09753517992794513702392578125" lon="1.3634152896702289581298828125">
        <ele>-73.1999969482421875</ele>
        <time>2025-09-05T14:19:57.000Z</time>
        <extensions>
          <ns3:TrackPointExtension>
            <ns3:hr>175</ns3:hr>
            <ns3:cad>80</ns3:cad>
          </ns3:TrackPointExtension>
        </extensions>
      </trkpt>
      <trkpt lat="52.097525708377361297607421875" lon="1.363440267741680145263671875">
        <ele>-73.40000152587890625</ele>
        <time>2025-09-05T14:19:58.000Z</time>
        <extensions>
          <ns3:TrackPointExtension>
            <ns3:hr>176</ns3:hr>
            <ns3:cad>79</ns3:cad>
          </ns3:TrackPointExtension>
        </extensions>
      </trkpt>
      <trkpt lat="52.097459323704242706298828125" lon="1.3636221550405025482177734375">
        <ele>-73.59999847412109375</ele>
        <time>2025-09-05T14:20:06.000Z</time>
        <extensions>
          <ns3:TrackPointExtension>
            <ns3:hr>174</ns3:hr>
            <ns3:cad>63</ns3:cad>
          </ns3:TrackPointExtension>
        </extensions>
      </trkpt>
      <trkpt lat="52.09743191488087177276611328125" lon="1.36371024884283542633056640625">
        <ele>-73.8000030517578125</ele>
        <time>2025-09-05T14:20:10.000Z</time>
        <extensions>
          <ns3:TrackPointExtension>
            <ns3:hr>174</ns3:hr>
            <ns3:cad>56</ns3:cad>
          </ns3:TrackPointExtension>
        </extensions>
      </trkpt>
      <trkpt lat="52.0974142290651798248291015625" lon="1.3637626357376575469970703125">
        <ele>-74</ele>
        <time>2025-09-05T14:20:12.000Z</time>
        <extensions>
          <ns3:TrackPointExtension>
            <ns3:hr>175</ns3:hr>
            <ns3:cad>57</ns3:cad>
          </ns3:TrackPointExtension>
        </extensions>
      </trkpt>
      <trkpt lat="52.09733619354665279388427734375" lon="1.363922059535980224609375">
        <ele>-74.8000030517578125</ele>
        <time>2025-09-05T14:20:20.000Z</time>
        <extensions>
          <ns3:TrackPointExtension>
            <ns3:hr>173</ns3:hr>
            <ns3:cad>60</ns3:cad>
          </ns3:TrackPointExtension>
        </extensions>
      </trkpt>
      <trkpt lat="52.0973169989883899688720703125" lon="1.363961957395076751708984375">
        <ele>-75</ele>
        <time>2025-09-05T14:20:22.000Z</time>
        <extensions>
          <ns3:TrackPointExtension>
            <ns3:hr>171</ns3:hr>
            <ns3:cad>60</ns3:cad>
          </ns3:TrackPointExtension>
        </extensions>
      </trkpt>
      <trkpt lat="52.09728875197470188140869140625" lon="1.3640704192221164703369140625">
        <ele>-75.8000030517578125</ele>
        <time>2025-09-05T14:20:28.000Z</time>
        <extensions>
          <ns3:TrackPointExtension>
            <ns3:hr>168</ns3:hr>
            <ns3:cad>59</ns3:cad>
          </ns3:TrackPointExtension>
        </extensions>
      </trkpt>
      <trkpt lat="52.09728321991860866546630859375" lon="1.3641314394772052764892578125">
        <ele>-76.40000152587890625</ele>
        <time>2025-09-05T14:20:31.000Z</time>
        <extensions>
          <ns3:TrackPointExtension>
            <ns3:hr>167</ns3:hr>
            <ns3:cad>59</ns3:cad>
          </ns3:TrackPointExtension>
        </extensions>
      </trkpt>
      <trkpt lat="52.0972589962184429168701171875" lon="1.36420880444347858428955078125">
        <ele>-76.8000030517578125</ele>
        <time>2025-09-05T14:20:34.000Z</time>
        <extensions>
          <ns3:TrackPointExtension>
            <ns3:hr>166</ns3:hr>
            <ns3:cad>58</ns3:cad>
          </ns3:TrackPointExtension>
        </extensions>
      </trkpt>
      <trkpt lat="52.097260840237140655517578125" lon="1.36430989019572734832763671875">
        <ele>-77.59999847412109375</ele>
        <time>2025-09-05T14:20:38.000Z</time>
        <extensions>
          <ns3:TrackPointExtension>
            <ns3:hr>166</ns3:hr>
            <ns3:cad>59</ns3:cad>
          </ns3:TrackPointExtension>
        </extensions>
      </trkpt>
      <trkpt lat="52.097251452505588531494140625" lon="1.36436772532761096954345703125">
        <ele>-78</ele>
        <time>2025-09-05T14:20:40.000Z</time>
        <extensions>
          <ns3:TrackPointExtension>
            <ns3:hr>165</ns3:hr>
            <ns3:cad>59</ns3:cad>
          </ns3:TrackPointExtension>
        </extensions>
      </trkpt>
      <trkpt lat="52.09722605533897876739501953125" lon="1.36444031260907649993896484375">
        <ele>-78.40000152587890625</ele>
        <time>2025-09-05T14:20:43.000Z</time>
        <extensions>
          <ns3:TrackPointExtension>
            <ns3:hr>165</ns3:hr>
            <ns3:cad>59</ns3:cad>
          </ns3:TrackPointExtension>
        </extensions>
      </trkpt>
      <trkpt lat="52.097216583788394927978515625" lon="1.36446185410022735595703125">
        <ele>-78.59999847412109375</ele>
        <time>2025-09-05T14:20:44.000Z</time>
        <extensions>
          <ns3:TrackPointExtension>
            <ns3:hr>162</ns3:hr>
            <ns3:cad>65</ns3:cad>
          </ns3:TrackPointExtension>
        </extensions>
      </trkpt>
      <trkpt lat="52.0972036756575107574462890625" lon="1.36450384743511676788330078125">
        <ele>-79</ele>
        <time>2025-09-05T14:20:46.000Z</time>
        <extensions>
          <ns3:TrackPointExtension>
            <ns3:hr>162</ns3:hr>
            <ns3:cad>78</ns3:cad>
          </ns3:TrackPointExtension>
        </extensions>
      </trkpt>
      <trkpt lat="52.09717760793864727020263671875" lon="1.3646082021296024322509765625">
        <ele>-79.59999847412109375</ele>
        <time>2025-09-05T14:20:50.000Z</time>
        <extensions>
          <ns3:TrackPointExtension>
            <ns3:hr>161</ns3:hr>
            <ns3:cad>80</ns3:cad>
          </ns3:TrackPointExtension>
        </extensions>
      </trkpt>
      <trkpt lat="52.09715464152395725250244140625" lon="1.3646668754518032073974609375">
        <ele>-79.8000030517578125</ele>
        <time>2025-09-05T14:20:52.000Z</time>
        <extensions>
          <ns3:TrackPointExtension>
            <ns3:hr>165</ns3:hr>
            <ns3:cad>82</ns3:cad>
          </ns3:TrackPointExtension>
        </extensions>
      </trkpt>
      <trkpt lat="52.097143828868865966796875" lon="1.36468992568552494049072265625">
        <ele>-80</ele>
        <time>2025-09-05T14:20:53.000Z</time>
        <extensions>
          <ns3:TrackPointExtension>
            <ns3:hr>167</ns3:hr>
            <ns3:cad>82</ns3:cad>
          </ns3:TrackPointExtension>
        </extensions>
      </trkpt>
      <trkpt lat="52.0971289090812206268310546875" lon="1.36473988182842731475830078125">
        <ele>-80.1999969482421875</ele>
        <time>2025-09-05T14:20:55.000Z</time>
        <extensions>
          <ns3:TrackPointExtension>
            <ns3:hr>170</ns3:hr>
            <ns3:cad>82</ns3:cad>
          </ns3:TrackPointExtension>
        </extensions>
      </trkpt>
      <trkpt lat="52.09711876697838306427001953125" lon="1.36476896703243255615234375">
        <ele>-80.40000152587890625</ele>
        <time>2025-09-05T14:20:56.000Z</time>
        <extensions>
          <ns3:TrackPointExtension>
            <ns3:hr>172</ns3:hr>
            <ns3:cad>82</ns3:cad>
          </ns3:TrackPointExtension>
        </extensions>
      </trkpt>
      <trkpt lat="52.0970886759459972381591796875" lon="1.3648553006350994110107421875">
        <ele>-80.8000030517578125</ele>
        <time>2025-09-05T14:20:59.000Z</time>
        <extensions>
          <ns3:TrackPointExtension>
            <ns3:hr>175</ns3:hr>
            <ns3:cad>82</ns3:cad>
          </ns3:TrackPointExtension>
        </extensions>
      </trkpt>
      <trkpt lat="52.09706361405551433563232421875" lon="1.364960409700870513916015625">
        <ele>-81.1999969482421875</ele>
        <time>2025-09-05T14:21:02.000Z</time>
        <extensions>
          <ns3:TrackPointExtension>
            <ns3:hr>175</ns3:hr>
            <ns3:cad>81</ns3:cad>
          </ns3:TrackPointExtension>
        </extensions>
      </trkpt>
      <trkpt lat="52.0970434136688709259033203125" lon="1.36502486653625965118408203125">
        <ele>-81.40000152587890625</ele>
        <time>2025-09-05T14:21:04.000Z</time>
        <extensions>
          <ns3:TrackPointExtension>
            <ns3:hr>177</ns3:hr>
            <ns3:cad>82</ns3:cad>
          </ns3:TrackPointExtension>
        </extensions>
      </trkpt>
      <trkpt lat="52.0970196090638637542724609375" lon="1.36512628756463527679443359375">
        <ele>-81.8000030517578125</ele>
        <time>2025-09-05T14:21:08.000Z</time>
        <extensions>
          <ns3:TrackPointExtension>
            <ns3:hr>172</ns3:hr>
            <ns3:cad>82</ns3:cad>
          </ns3:TrackPointExtension>
        </extensions>
      </trkpt>
      <trkpt lat="52.09700896404683589935302734375" lon="1.36523575522005558013916015625">
        <ele>-82.1999969482421875</ele>
        <time>2025-09-05T14:21:11.000Z</time>
        <extensions>
          <ns3:TrackPointExtension>
            <ns3:hr>173</ns3:hr>
            <ns3:cad>82</ns3:cad>
          </ns3:TrackPointExtension>
        </extensions>
      </trkpt>
      <trkpt lat="52.097001336514949798583984375" lon="1.36528755538165569305419921875">
        <ele>-82.1999969482421875</ele>
        <time>2025-09-05T14:21:12.000Z</time>
        <extensions>
          <ns3:TrackPointExtension>
            <ns3:hr>174</ns3:hr>
            <ns3:cad>82</ns3:cad>
          </ns3:TrackPointExtension>
        </extensions>
      </trkpt>
      <trkpt lat="52.09696252830326557159423828125" lon="1.36552526615560054779052734375">
        <ele>-82.59999847412109375</ele>
        <time>2025-09-05T14:21:17.000Z</time>
        <extensions>
          <ns3:TrackPointExtension>
            <ns3:hr>174</ns3:hr>
            <ns3:cad>82</ns3:cad>
          </ns3:TrackPointExtension>
        </extensions>
      </trkpt>
      <trkpt lat="52.09690804593265056610107421875" lon="1.36580555699765682220458984375">
        <ele>-83</ele>
        <time>2025-09-05T14:21:24.000Z</time>
        <extensions>
          <ns3:TrackPointExtension>
            <ns3:hr>175</ns3:hr>
            <ns3:cad>82</ns3:cad>
          </ns3:TrackPointExtension>
        </extensions>
      </trkpt>
      <trkpt lat="52.09684484638273715972900390625" lon="1.36610479094088077545166015625">
        <ele>-83.1999969482421875</ele>
        <time>2025-09-05T14:21:32.000Z</time>
        <extensions>
          <ns3:TrackPointExtension>
            <ns3:hr>175</ns3:hr>
            <ns3:cad>81</ns3:cad>
          </ns3:TrackPointExtension>
        </extensions>
      </trkpt>
      <trkpt lat="52.09686060436069965362548828125" lon="1.36631802655756473541259765625">
        <ele>-83.1999969482421875</ele>
        <time>2025-09-05T14:21:38.000Z</time>
        <extensions>
          <ns3:TrackPointExtension>
            <ns3:hr>174</ns3:hr>
            <ns3:cad>81</ns3:cad>
          </ns3:TrackPointExtension>
        </extensions>
      </trkpt>
      <trkpt lat="52.09685490466654300689697265625" lon="1.36653729714453220367431640625">
        <ele>-83.1999969482421875</ele>
        <time>2025-09-05T14:21:44.000Z</time>
        <extensions>
          <ns3:TrackPointExtension>
            <ns3:hr>176</ns3:hr>
            <ns3:cad>80</ns3:cad>
          </ns3:TrackPointExtension>
        </extensions>
      </trkpt>
      <trkpt lat="52.09686395712196826934814453125" lon="1.3666735030710697174072265625">
        <ele>-83.1999969482421875</ele>
        <time>2025-09-05T14:21:48.000Z</time>
        <extensions>
          <ns3:TrackPointExtension>
            <ns3:hr>172</ns3:hr>
            <ns3:cad>80</ns3:cad>
          </ns3:TrackPointExtension>
        </extensions>
      </trkpt>
      <trkpt lat="52.0968630351126194000244140625" lon="1.36678255163133144378662109375">
        <ele>-83.1999969482421875</ele>
        <time>2025-09-05T14:21:52.000Z</time>
        <extensions>
          <ns3:TrackPointExtension>
            <ns3:hr>174</ns3:hr>
            <ns3:cad>79</ns3:cad>
          </ns3:TrackPointExtension>
        </extensions>
      </trkpt>
      <trkpt lat="52.09683394990861415863037109375" lon="1.36692571453750133514404296875">
        <ele>-83.1999969482421875</ele>
        <time>2025-09-05T14:21:58.000Z</time>
        <extensions>
          <ns3:TrackPointExtension>
            <ns3:hr>171</ns3:hr>
            <ns3:cad>80</ns3:cad>
          </ns3:TrackPointExtension>
        </extensions>
      </trkpt>
      <trkpt lat="52.09682523272931575775146484375" lon="1.36696862988173961639404296875">
        <ele>-83.1999969482421875</ele>
        <time>2025-09-05T14:21:59.000Z</time>
        <extensions>
          <ns3:TrackPointExtension>
            <ns3:hr>173</ns3:hr>
            <ns3:cad>80</ns3:cad>
          </ns3:TrackPointExtension>
        </extensions>
      </trkpt>
      <trkpt lat="52.096821963787078857421875" lon="1.36702462099492549896240234375">
        <ele>-83.1999969482421875</ele>
        <time>2025-09-05T14:22:01.000Z</time>
        <extensions>
          <ns3:TrackPointExtension>
            <ns3:hr>172</ns3:hr>
            <ns3:cad>80</ns3:cad>
          </ns3:TrackPointExtension>
        </extensions>
      </trkpt>
      <trkpt lat="52.096778713166713714599609375" lon="1.36716895736753940582275390625">
        <ele>-83.40000152587890625</ele>
        <time>2025-09-05T14:22:07.000Z</time>
        <extensions>
          <ns3:TrackPointExtension>
            <ns3:hr>171</ns3:hr>
            <ns3:cad>79</ns3:cad>
          </ns3:TrackPointExtension>
        </extensions>
      </trkpt>
      <trkpt lat="52.09673806093633174896240234375" lon="1.36738688684999942779541015625">
        <ele>-83.59999847412109375</ele>
        <time>2025-09-05T14:22:14.000Z</time>
        <extensions>
          <ns3:TrackPointExtension>
            <ns3:hr>173</ns3:hr>
            <ns3:cad>80</ns3:cad>
          </ns3:TrackPointExtension>
        </extensions>
      </trkpt>
      <trkpt lat="52.09670017473399639129638671875" lon="1.3676216639578342437744140625">
        <ele>-83.8000030517578125</ele>
        <time>2025-09-05T14:22:22.000Z</time>
        <extensions>
          <ns3:TrackPointExtension>
            <ns3:hr>176</ns3:hr>
            <ns3:cad>79</ns3:cad>
          </ns3:TrackPointExtension>
        </extensions>
      </trkpt>
      <trkpt lat="52.096649296581745147705078125" lon="1.3678432814776897430419921875">
        <ele>-84</ele>
        <time>2025-09-05T14:22:29.000Z</time>
        <extensions>
          <ns3:TrackPointExtension>
            <ns3:hr>177</ns3:hr>
            <ns3:cad>80</ns3:cad>
          </ns3:TrackPointExtension>
        </extensions>
      </trkpt>
      <trkpt lat="52.0966239832341670989990234375" lon="1.36801267974078655242919921875">
        <ele>-84.1999969482421875</ele>
        <time>2025-09-05T14:22:33.000Z</time>
        <extensions>
          <ns3:TrackPointExtension>
            <ns3:hr>178</ns3:hr>
            <ns3:cad>81</ns3:cad>
          </ns3:TrackPointExtension>
        </extensions>
      </trkpt>
      <trkpt lat="52.0966055430471897125244140625" lon="1.368113346397876739501953125">
        <ele>-84.40000152587890625</ele>
        <time>2025-09-05T14:22:36.000Z</time>
        <extensions>
          <ns3:TrackPointExtension>
            <ns3:hr>181</ns3:hr>
            <ns3:cad>57</ns3:cad>
          </ns3:TrackPointExtension>
        </extensions>
      </trkpt>
      <trkpt lat="52.096607051789760589599609375" lon="1.36815651319921016693115234375">
        <ele>-84.8000030517578125</ele>
        <time>2025-09-05T14:22:42.000Z</time>
        <extensions>
          <ns3:TrackPointExtension>
            <ns3:hr>183</ns3:hr>
            <ns3:cad>0</ns3:cad>
          </ns3:TrackPointExtension>
        </extensions>
      </trkpt>
      <trkpt lat="52.0965763740241527557373046875" lon="1.36820579878985881805419921875">
        <ele>-85.40000152587890625</ele>
        <time>2025-09-05T14:22:47.000Z</time>
        <extensions>
          <ns3:TrackPointExtension>
            <ns3:hr>180</ns3:hr>
            <ns3:cad>0</ns3:cad>
          </ns3:TrackPointExtension>
        </extensions>
      </trkpt>
      <trkpt lat="52.0965666510164737701416015625" lon="1.36821770109236240386962890625">
        <ele>-85.40000152587890625</ele>
        <time>2025-09-05T14:22:48.000Z</time>
        <extensions>
          <ns3:TrackPointExtension>
            <ns3:hr>180</ns3:hr>
            <ns3:cad>0</ns3:cad>
          </ns3:TrackPointExtension>
        </extensions>
      </trkpt>
      <trkpt lat="52.0965364761650562286376953125" lon="1.36824016459286212921142578125">
        <ele>-85.59999847412109375</ele>
        <time>2025-09-05T14:22:51.000Z</time>
        <extensions>
          <ns3:TrackPointExtension>
            <ns3:hr>177</ns3:hr>
            <ns3:cad>0</ns3:cad>
          </ns3:TrackPointExtension>
        </extensions>
      </trkpt>
      <trkpt lat="52.09650320000946521759033203125" lon="1.36825793422758579254150390625">
        <ele>-85.8000030517578125</ele>
        <time>2025-09-05T14:22:54.000Z</time>
        <extensions>
          <ns3:TrackPointExtension>
            <ns3:hr>174</ns3:hr>
            <ns3:cad>53</ns3:cad>
          </ns3:TrackPointExtension>
        </extensions>
      </trkpt>
      <trkpt lat="52.096467912197113037109375" lon="1.3682918809354305267333984375">
        <ele>-85.8000030517578125</ele>
        <time>2025-09-05T14:22:57.000Z</time>
        <extensions>
          <ns3:TrackPointExtension>
            <ns3:hr>173</ns3:hr>
            <ns3:cad>57</ns3:cad>
          </ns3:TrackPointExtension>
        </extensions>
      </trkpt>
      <trkpt lat="52.096402533352375030517578125" lon="1.36825709603726863861083984375">
        <ele>-86</ele>
        <time>2025-09-05T14:23:03.000Z</time>
        <extensions>
          <ns3:TrackPointExtension>
            <ns3:hr>172</ns3:hr>
            <ns3:cad>59</ns3:cad>
          </ns3:TrackPointExtension>
        </extensions>
      </trkpt>
      <trkpt lat="52.0963262580335140228271484375" lon="1.368219293653964996337890625">
        <ele>-86.40000152587890625</ele>
        <time>2025-09-05T14:23:09.000Z</time>
        <extensions>
          <ns3:TrackPointExtension>
            <ns3:hr>170</ns3:hr>
            <ns3:cad>59</ns3:cad>
          </ns3:TrackPointExtension>
        </extensions>
      </trkpt>
      <trkpt lat="52.09628175012767314910888671875" lon="1.3682047091424465179443359375">
        <ele>-86.8000030517578125</ele>
        <time>2025-09-05T14:23:13.000Z</time>
        <extensions>
          <ns3:TrackPointExtension>
            <ns3:hr>167</ns3:hr>
            <ns3:cad>60</ns3:cad>
          </ns3:TrackPointExtension>
        </extensions>
      </trkpt>
      <trkpt lat="52.09620296023786067962646484375" lon="1.36825894005596637725830078125">
        <ele>-87.1999969482421875</ele>
        <time>2025-09-05T14:23:18.000Z</time>
        <extensions>
          <ns3:TrackPointExtension>
            <ns3:hr>166</ns3:hr>
            <ns3:cad>58</ns3:cad>
          </ns3:TrackPointExtension>
        </extensions>
      </trkpt>
      <trkpt lat="52.0961931534111499786376953125" lon="1.36826648376882076263427734375">
        <ele>-87.40000152587890625</ele>
        <time>2025-09-05T14:23:19.000Z</time>
        <extensions>
          <ns3:TrackPointExtension>
            <ns3:hr>168</ns3:hr>
            <ns3:cad>58</ns3:cad>
          </ns3:TrackPointExtension>
        </extensions>
      </trkpt>
      <trkpt lat="52.0961190573871135711669921875" lon="1.3683924637734889984130859375">
        <ele>-88.1999969482421875</ele>
        <time>2025-09-05T14:23:25.000Z</time>
        <extensions>
          <ns3:TrackPointExtension>
            <ns3:hr>164</ns3:hr>
            <ns3:cad>78</ns3:cad>
          </ns3:TrackPointExtension>
        </extensions>
      </trkpt>
      <trkpt lat="52.09609600715339183807373046875" lon="1.36845876462757587432861328125">
        <ele>-88.59999847412109375</ele>
        <time>2025-09-05T14:23:28.000Z</time>
        <extensions>
          <ns3:TrackPointExtension>
            <ns3:hr>165</ns3:hr>
            <ns3:cad>80</ns3:cad>
          </ns3:TrackPointExtension>
        </extensions>
      </trkpt>
      <trkpt lat="52.096096090972423553466796875" lon="1.36847854591906070709228515625">
        <ele>-88.59999847412109375</ele>
        <time>2025-09-05T14:23:29.000Z</time>
        <extensions>
          <ns3:TrackPointExtension>
            <ns3:hr>168</ns3:hr>
            <ns3:cad>80</ns3:cad>
          </ns3:TrackPointExtension>
        </extensions>
      </trkpt>
      <trkpt lat="52.09609550423920154571533203125" lon="1.3685108162462711334228515625">
        <ele>-88.8000030517578125</ele>
        <time>2025-09-05T14:23:31.000Z</time>
        <extensions>
          <ns3:TrackPointExtension>
            <ns3:hr>171</ns3:hr>
            <ns3:cad>80</ns3:cad>
          </ns3:TrackPointExtension>
        </extensions>
      </trkpt>
      <trkpt lat="52.09608259610831737518310546875" lon="1.36853856034576892852783203125">
        <ele>-89</ele>
        <time>2025-09-05T14:23:33.000Z</time>
        <extensions>
          <ns3:TrackPointExtension>
            <ns3:hr>173</ns3:hr>
            <ns3:cad>80</ns3:cad>
          </ns3:TrackPointExtension>
        </extensions>
      </trkpt>
      <trkpt lat="52.09604303352534770965576171875" lon="1.368630342185497283935546875">
        <ele>-89.40000152587890625</ele>
        <time>2025-09-05T14:23:39.000Z</time>
        <extensions>
          <ns3:TrackPointExtension>
            <ns3:hr>176</ns3:hr>
            <ns3:cad>81</ns3:cad>
          </ns3:TrackPointExtension>
        </extensions>
      </trkpt>
      <trkpt lat="52.09603699855506420135498046875" lon="1.368657834827899932861328125">
        <ele>-89.40000152587890625</ele>
        <time>2025-09-05T14:23:40.000Z</time>
        <extensions>
          <ns3:TrackPointExtension>
            <ns3:hr>176</ns3:hr>
            <ns3:cad>81</ns3:cad>
          </ns3:TrackPointExtension>
        </extensions>
      </trkpt>
      <trkpt lat="52.09603046067059040069580078125" lon="1.3686838187277317047119140625">
        <ele>-89.40000152587890625</ele>
        <time>2025-09-05T14:23:41.000Z</time>
        <extensions>
          <ns3:TrackPointExtension>
            <ns3:hr>177</ns3:hr>
            <ns3:cad>81</ns3:cad>
          </ns3:TrackPointExtension>
        </extensions>
      </trkpt>
      <trkpt lat="52.09600850008428096771240234375" lon="1.368734277784824371337890625">
        <ele>-89.40000152587890625</ele>
        <time>2025-09-05T14:23:43.000Z</time>
        <extensions>
          <ns3:TrackPointExtension>
            <ns3:hr>180</ns3:hr>
            <ns3:cad>81</ns3:cad>
          </ns3:TrackPointExtension>
        </extensions>
      </trkpt>
      <trkpt lat="52.09595762193202972412109375" lon="1.368869058787822723388671875">
        <ele>-89.59999847412109375</ele>
        <time>2025-09-05T14:23:48.000Z</time>
        <extensions>
          <ns3:TrackPointExtension>
            <ns3:hr>184</ns3:hr>
            <ns3:cad>82</ns3:cad>
          </ns3:TrackPointExtension>
        </extensions>
      </trkpt>
      <trkpt lat="52.09594664163887500762939453125" lon="1.36890283785760402679443359375">
        <ele>-89.59999847412109375</ele>
        <time>2025-09-05T14:23:49.000Z</time>
        <extensions>
          <ns3:TrackPointExtension>
            <ns3:hr>184</ns3:hr>
            <ns3:cad>81</ns3:cad>
          </ns3:TrackPointExtension>
        </extensions>
      </trkpt>
      <trkpt lat="52.09585561417043209075927734375" lon="1.3691156543791294097900390625">
        <ele>-89.40000152587890625</ele>
        <time>2025-09-05T14:23:56.000Z</time>
        <extensions>
          <ns3:TrackPointExtension>
            <ns3:hr>185</ns3:hr>
            <ns3:cad>81</ns3:cad>
          </ns3:TrackPointExtension>
        </extensions>
      </trkpt>
      <trkpt lat="52.0957432128489017486572265625" lon="1.36938848532736301422119140625">
        <ele>-89.40000152587890625</ele>
        <time>2025-09-05T14:24:04.000Z</time>
        <extensions>
          <ns3:TrackPointExtension>
            <ns3:hr>183</ns3:hr>
            <ns3:cad>80</ns3:cad>
          </ns3:TrackPointExtension>
        </extensions>
      </trkpt>
      <trkpt lat="52.095715887844562530517578125" lon="1.36943810619413852691650390625">
        <ele>-89.40000152587890625</ele>
        <time>2025-09-05T14:24:06.000Z</time>
        <extensions>
          <ns3:TrackPointExtension>
            <ns3:hr>179</ns3:hr>
            <ns3:cad>80</ns3:cad>
          </ns3:TrackPointExtension>
        </extensions>
      </trkpt>
      <trkpt lat="52.095694430172443389892578125" lon="1.36949409730732440948486328125">
        <ele>-89.40000152587890625</ele>
        <time>2025-09-05T14:24:08.000Z</time>
        <extensions>
          <ns3:TrackPointExtension>
            <ns3:hr>176</ns3:hr>
            <ns3:cad>80</ns3:cad>
          </ns3:TrackPointExtension>
        </extensions>
      </trkpt>
      <trkpt lat="52.09565813653171062469482421875" lon="1.36956886388361454010009765625">
        <ele>-89.40000152587890625</ele>
        <time>2025-09-05T14:24:11.000Z</time>
        <extensions>
          <ns3:TrackPointExtension>
            <ns3:hr>178</ns3:hr>
            <ns3:cad>79</ns3:cad>
          </ns3:TrackPointExtension>
        </extensions>
      </trkpt>
      <trkpt lat="52.09557884372770786285400390625" lon="1.36980003677308559417724609375">
        <ele>-89.40000152587890625</ele>
        <time>2025-09-05T14:24:19.000Z</time>
        <extensions>
          <ns3:TrackPointExtension>
            <ns3:hr>178</ns3:hr>
            <ns3:cad>80</ns3:cad>
          </ns3:TrackPointExtension>
        </extensions>
      </trkpt>
      <trkpt lat="52.09550441242754459381103515625" lon="1.37000606395304203033447265625">
        <ele>-89.40000152587890625</ele>
        <time>2025-09-05T14:24:26.000Z</time>
        <extensions>
          <ns3:TrackPointExtension>
            <ns3:hr>181</ns3:hr>
            <ns3:cad>81</ns3:cad>
          </ns3:TrackPointExtension>
        </extensions>
      </trkpt>
      <trkpt lat="52.095496617257595062255859375" lon="1.370023079216480255126953125">
        <ele>-89.40000152587890625</ele>
        <time>2025-09-05T14:24:27.000Z</time>
        <extensions>
          <ns3:TrackPointExtension>
            <ns3:hr>181</ns3:hr>
            <ns3:cad>81</ns3:cad>
          </ns3:TrackPointExtension>
        </extensions>
      </trkpt>
      <trkpt lat="52.0953910052776336669921875" lon="1.37028551660478115081787109375">
        <ele>-88.59999847412109375</ele>
        <time>2025-09-05T14:24:36.000Z</time>
        <extensions>
          <ns3:TrackPointExtension>
            <ns3:hr>178</ns3:hr>
            <ns3:cad>80</ns3:cad>
          </ns3:TrackPointExtension>
        </extensions>
      </trkpt>
      <trkpt lat="52.0954022370278835296630859375" lon="1.370304040610790252685546875">
        <ele>-88.40000152587890625</ele>
        <time>2025-09-05T14:24:37.000Z</time>
        <extensions>
          <ns3:TrackPointExtension>
            <ns3:hr>175</ns3:hr>
            <ns3:cad>80</ns3:cad>
          </ns3:TrackPointExtension>
        </extensions>
      </trkpt>
      <trkpt lat="52.0953358523547649383544921875" lon="1.37050847522914409637451171875">
        <ele>-87.8000030517578125</ele>
        <time>2025-09-05T14:24:44.000Z</time>
        <extensions>
          <ns3:TrackPointExtension>
            <ns3:hr>177</ns3:hr>
            <ns3:cad>78</ns3:cad>
          </ns3:TrackPointExtension>
        </extensions>
      </trkpt>
      <trkpt lat="52.09531649015843868255615234375" lon="1.37055323459208011627197265625">
        <ele>-87.59999847412109375</ele>
        <time>2025-09-05T14:24:47.000Z</time>
        <extensions>
          <ns3:TrackPointExtension>
            <ns3:hr>178</ns3:hr>
            <ns3:cad>78</ns3:cad>
          </ns3:TrackPointExtension>
        </extensions>
      </trkpt>
      <trkpt lat="52.09528715349733829498291015625" lon="1.3706267438828945159912109375">
        <ele>-87.1999969482421875</ele>
        <time>2025-09-05T14:24:52.000Z</time>
        <extensions>
          <ns3:TrackPointExtension>
            <ns3:hr>175</ns3:hr>
            <ns3:cad>58</ns3:cad>
          </ns3:TrackPointExtension>
        </extensions>
      </trkpt>
      <trkpt lat="52.09526049904525279998779296875" lon="1.37069120071828365325927734375">
        <ele>-87</ele>
        <time>2025-09-05T14:24:54.000Z</time>
        <extensions>
          <ns3:TrackPointExtension>
            <ns3:hr>174</ns3:hr>
            <ns3:cad>58</ns3:cad>
          </ns3:TrackPointExtension>
        </extensions>
      </trkpt>
      <trkpt lat="52.0952332578599452972412109375" lon="1.3707806356251239776611328125">
        <ele>-86.8000030517578125</ele>
        <time>2025-09-05T14:24:59.000Z</time>
        <extensions>
          <ns3:TrackPointExtension>
            <ns3:hr>170</ns3:hr>
            <ns3:cad>0</ns3:cad>
          </ns3:TrackPointExtension>
        </extensions>
      </trkpt>
      <trkpt lat="52.09516729228198528289794921875" lon="1.371003426611423492431640625">
        <ele>-86.59999847412109375</ele>
        <time>2025-09-05T14:25:06.000Z</time>
        <extensions>
          <ns3:TrackPointExtension>
            <ns3:hr>170</ns3:hr>
            <ns3:cad>0</ns3:cad>
          </ns3:TrackPointExtension>
        </extensions>
      </trkpt>
      <trkpt lat="52.09510224871337413787841796875" lon="1.37114482931792736053466796875">
        <ele>-87.1999969482421875</ele>
        <time>2025-09-05T14:25:12.000Z</time>
        <extensions>
          <ns3:TrackPointExtension>
            <ns3:hr>169</ns3:hr>
            <ns3:cad>58</ns3:cad>
          </ns3:TrackPointExtension>
        </extensions>
      </trkpt>
      <trkpt lat="52.095058076083660125732421875" lon="1.37124306522309780120849609375">
        <ele>-87.8000030517578125</ele>
        <time>2025-09-05T14:25:16.000Z</time>
        <extensions>
          <ns3:TrackPointExtension>
            <ns3:hr>165</ns3:hr>
            <ns3:cad>58</ns3:cad>
          </ns3:TrackPointExtension>
        </extensions>
      </trkpt>
      <trkpt lat="52.095012478530406951904296875" lon="1.3713013194501399993896484375">
        <ele>-88.1999969482421875</ele>
        <time>2025-09-05T14:25:20.000Z</time>
        <extensions>
          <ns3:TrackPointExtension>
            <ns3:hr>165</ns3:hr>
            <ns3:cad>0</ns3:cad>
          </ns3:TrackPointExtension>
        </extensions>
      </trkpt>
      <trkpt lat="52.0949898473918437957763671875" lon="1.37133275158703327178955078125">
        <ele>-88.59999847412109375</ele>
        <time>2025-09-05T14:25:22.000Z</time>
        <extensions>
          <ns3:TrackPointExtension>
            <ns3:hr>163</ns3:hr>
            <ns3:cad>58</ns3:cad>
          </ns3:TrackPointExtension>
        </extensions>
      </trkpt>
      <trkpt lat="52.094957493245601654052734375" lon="1.37143853120505809783935546875">
        <ele>-89.1999969482421875</ele>
        <time>2025-09-05T14:25:27.000Z</time>
        <extensions>
          <ns3:TrackPointExtension>
            <ns3:hr>163</ns3:hr>
            <ns3:cad>0</ns3:cad>
          </ns3:TrackPointExtension>
        </extensions>
      </trkpt>
      <trkpt lat="52.09495573304593563079833984375" lon="1.37145479209721088409423828125">
        <ele>-89.59999847412109375</ele>
        <time>2025-09-05T14:25:31.000Z</time>
        <extensions>
          <ns3:TrackPointExtension>
            <ns3:hr>162</ns3:hr>
            <ns3:cad>0</ns3:cad>
          </ns3:TrackPointExtension>
        </extensions>
      </trkpt>
      <trkpt lat="52.0949543081223964691162109375" lon="1.37146132998168468475341796875">
        <ele>-89.8000030517578125</ele>
        <time>2025-09-05T14:25:33.000Z</time>
        <extensions>
          <ns3:TrackPointExtension>
            <ns3:hr>161</ns3:hr>
            <ns3:cad>0</ns3:cad>
          </ns3:TrackPointExtension>
        </extensions>
      </trkpt>
      <trkpt lat="52.09492790512740612030029296875" lon="1.37151899747550487518310546875">
        <ele>-90.40000152587890625</ele>
        <time>2025-09-05T14:25:38.000Z</time>
        <extensions>
          <ns3:TrackPointExtension>
            <ns3:hr>158</ns3:hr>
            <ns3:cad>0</ns3:cad>
          </ns3:TrackPointExtension>
        </extensions>
      </trkpt>
      <trkpt lat="52.09492371417582035064697265625" lon="1.37152972631156444549560546875">
        <ele>-90.59999847412109375</ele>
        <time>2025-09-05T14:25:39.000Z</time>
        <extensions>
          <ns3:TrackPointExtension>
            <ns3:hr>158</ns3:hr>
            <ns3:cad>0</ns3:cad>
          </ns3:TrackPointExtension>
        </extensions>
      </trkpt>
      <trkpt lat="52.09489689208567142486572265625" lon="1.37158722616732120513916015625">
        <ele>-91.59999847412109375</ele>
        <time>2025-09-05T14:25:43.000Z</time>
        <extensions>
          <ns3:TrackPointExtension>
            <ns3:hr>156</ns3:hr>
            <ns3:cad>58</ns3:cad>
          </ns3:TrackPointExtension>
        </extensions>
      </trkpt>
      <trkpt lat="52.09489052183926105499267578125" lon="1.37160097248852252960205078125">
        <ele>-91.8000030517578125</ele>
        <time>2025-09-05T14:25:44.000Z</time>
        <extensions>
          <ns3:TrackPointExtension>
            <ns3:hr>156</ns3:hr>
            <ns3:cad>58</ns3:cad>
          </ns3:TrackPointExtension>
        </extensions>
      </trkpt>
      <trkpt lat="52.0948839001357555389404296875" lon="1.37161756865680217742919921875">
        <ele>-92.1999969482421875</ele>
        <time>2025-09-05T14:25:45.000Z</time>
        <extensions>
          <ns3:TrackPointExtension>
            <ns3:hr>157</ns3:hr>
            <ns3:cad>57</ns3:cad>
          </ns3:TrackPointExtension>
        </extensions>
      </trkpt>
      <trkpt lat="52.09487275220453739166259765625" lon="1.37163433246314525604248046875">
        <ele>-92.40000152587890625</ele>
        <time>2025-09-05T14:25:46.000Z</time>
        <extensions>
          <ns3:TrackPointExtension>
            <ns3:hr>163</ns3:hr>
            <ns3:cad>57</ns3:cad>
          </ns3:TrackPointExtension>
        </extensions>
      </trkpt>
      <trkpt lat="52.0948144979774951934814453125" lon="1.37176592834293842315673828125">
        <ele>-92.1999969482421875</ele>
        <time>2025-09-05T14:25:54.000Z</time>
        <extensions>
          <ns3:TrackPointExtension>
            <ns3:hr>159</ns3:hr>
            <ns3:cad>80</ns3:cad>
          </ns3:TrackPointExtension>
        </extensions>
      </trkpt>
      <trkpt lat="52.0947722531855106353759765625" lon="1.371890567243099212646484375">
        <ele>-91.40000152587890625</ele>
        <time>2025-09-05T14:25:59.000Z</time>
        <extensions>
          <ns3:TrackPointExtension>
            <ns3:hr>158</ns3:hr>
            <ns3:cad>81</ns3:cad>
          </ns3:TrackPointExtension>
        </extensions>
      </trkpt>
      <trkpt lat="52.0947524718940258026123046875" lon="1.37194597162306308746337890625">
        <ele>-91</ele>
        <time>2025-09-05T14:26:01.000Z</time>
        <extensions>
          <ns3:TrackPointExtension>
            <ns3:hr>163</ns3:hr>
            <ns3:cad>81</ns3:cad>
          </ns3:TrackPointExtension>
        </extensions>
      </trkpt>
      <trkpt lat="52.09473025985062122344970703125" lon="1.37201252393424510955810546875">
        <ele>-90.8000030517578125</ele>
        <time>2025-09-05T14:26:03.000Z</time>
        <extensions>
          <ns3:TrackPointExtension>
            <ns3:hr>165</ns3:hr>
            <ns3:cad>81</ns3:cad>
          </ns3:TrackPointExtension>
        </extensions>
      </trkpt>
      <trkpt lat="52.09471953101456165313720703125" lon="1.37204621918499469757080078125">
        <ele>-90.59999847412109375</ele>
        <time>2025-09-05T14:26:04.000Z</time>
        <extensions>
          <ns3:TrackPointExtension>
            <ns3:hr>168</ns3:hr>
            <ns3:cad>81</ns3:cad>
          </ns3:TrackPointExtension>
        </extensions>
      </trkpt>
      <trkpt lat="52.094669155776500701904296875" lon="1.3721911422908306121826171875">
        <ele>-90</ele>
        <time>2025-09-05T14:26:08.000Z</time>
        <extensions>
          <ns3:TrackPointExtension>
            <ns3:hr>171</ns3:hr>
            <ns3:cad>81</ns3:cad>
          </ns3:TrackPointExtension>
        </extensions>
      </trkpt>
      <trkpt lat="52.094655074179172515869140625" lon="1.37222416698932647705078125">
        <ele>-89.8000030517578125</ele>
        <time>2025-09-05T14:26:09.000Z</time>
        <extensions>
          <ns3:TrackPointExtension>
            <ns3:hr>173</ns3:hr>
            <ns3:cad>81</ns3:cad>
          </ns3:TrackPointExtension>
        </extensions>
      </trkpt>
      <trkpt lat="52.09464141167700290679931640625" lon="1.37225626967847347259521484375">
        <ele>-89.59999847412109375</ele>
        <time>2025-09-05T14:26:10.000Z</time>
        <extensions>
          <ns3:TrackPointExtension>
            <ns3:hr>174</ns3:hr>
            <ns3:cad>81</ns3:cad>
          </ns3:TrackPointExtension>
        </extensions>
      </trkpt>
      <trkpt lat="52.09458433091640472412109375" lon="1.37242005206644535064697265625">
        <ele>-89</ele>
        <time>2025-09-05T14:26:14.000Z</time>
        <extensions>
          <ns3:TrackPointExtension>
            <ns3:hr>177</ns3:hr>
            <ns3:cad>81</ns3:cad>
          </ns3:TrackPointExtension>
        </extensions>
      </trkpt>
      <trkpt lat="52.094552479684352874755859375" lon="1.37253505177795886993408203125">
        <ele>-88.59999847412109375</ele>
        <time>2025-09-05T14:26:17.000Z</time>
        <extensions>
          <ns3:TrackPointExtension>
            <ns3:hr>177</ns3:hr>
            <ns3:cad>81</ns3:cad>
          </ns3:TrackPointExtension>
        </extensions>
      </trkpt>
      <trkpt lat="52.0944869332015514373779296875" lon="1.3727103173732757568359375">
        <ele>-87.8000030517578125</ele>
        <time>2025-09-05T14:26:23.000Z</time>
        <extensions>
          <ns3:TrackPointExtension>
            <ns3:hr>178</ns3:hr>
            <ns3:cad>81</ns3:cad>
          </ns3:TrackPointExtension>
        </extensions>
      </trkpt>
      <trkpt lat="52.09447042085230350494384765625" lon="1.372779719531536102294921875">
        <ele>-87.59999847412109375</ele>
        <time>2025-09-05T14:26:25.000Z</time>
        <extensions>
          <ns3:TrackPointExtension>
            <ns3:hr>178</ns3:hr>
            <ns3:cad>81</ns3:cad>
          </ns3:TrackPointExtension>
        </extensions>
      </trkpt>
      <trkpt lat="52.09445960819721221923828125" lon="1.372817941009998321533203125">
        <ele>-87.40000152587890625</ele>
        <time>2025-09-05T14:26:26.000Z</time>
        <extensions>
          <ns3:TrackPointExtension>
            <ns3:hr>182</ns3:hr>
            <ns3:cad>81</ns3:cad>
          </ns3:TrackPointExtension>
        </extensions>
      </trkpt>
      <trkpt lat="52.0944356359541416168212890625" lon="1.372944004833698272705078125">
        <ele>-87</ele>
        <time>2025-09-05T14:26:30.000Z</time>
        <extensions>
          <ns3:TrackPointExtension>
            <ns3:hr>185</ns3:hr>
            <ns3:cad>82</ns3:cad>
          </ns3:TrackPointExtension>
        </extensions>
      </trkpt>
      <trkpt lat="52.0944039523601531982421875" lon="1.37307652272284030914306640625">
        <ele>-86.40000152587890625</ele>
        <time>2025-09-05T14:26:34.000Z</time>
        <extensions>
          <ns3:TrackPointExtension>
            <ns3:hr>186</ns3:hr>
            <ns3:cad>81</ns3:cad>
          </ns3:TrackPointExtension>
        </extensions>
      </trkpt>
      <trkpt lat="52.09439246915280818939208984375" lon="1.373089514672756195068359375">
        <ele>-86.1999969482421875</ele>
        <time>2025-09-05T14:26:36.000Z</time>
        <extensions>
          <ns3:TrackPointExtension>
            <ns3:hr>184</ns3:hr>
            <ns3:cad>0</ns3:cad>
          </ns3:TrackPointExtension>
        </extensions>
      </trkpt>
      <trkpt lat="52.09436841309070587158203125" lon="1.373104937374591827392578125">
        <ele>-85.59999847412109375</ele>
        <time>2025-09-05T14:26:43.000Z</time>
        <extensions>
          <ns3:TrackPointExtension>
            <ns3:hr>181</ns3:hr>
            <ns3:cad>0</ns3:cad>
          </ns3:TrackPointExtension>
        </extensions>
      </trkpt>
      <trkpt lat="52.0943491347134113311767578125" lon="1.3731101341545581817626953125">
        <ele>-85.40000152587890625</ele>
        <time>2025-09-05T14:26:45.000Z</time>
        <extensions>
          <ns3:TrackPointExtension>
            <ns3:hr>182</ns3:hr>
            <ns3:cad>0</ns3:cad>
          </ns3:TrackPointExtension>
        </extensions>
      </trkpt>
      <trkpt lat="52.09433748386800289154052734375" lon="1.37311122380197048187255859375">
        <ele>-85.40000152587890625</ele>
        <time>2025-09-05T14:26:46.000Z</time>
        <extensions>
          <ns3:TrackPointExtension>
            <ns3:hr>181</ns3:hr>
            <ns3:cad>0</ns3:cad>
          </ns3:TrackPointExtension>
        </extensions>
      </trkpt>
      <trkpt lat="52.0943089015781879425048828125" lon="1.37320342473685741424560546875">
        <ele>-84.8000030517578125</ele>
        <time>2025-09-05T14:26:53.000Z</time>
        <extensions>
          <ns3:TrackPointExtension>
            <ns3:hr>180</ns3:hr>
            <ns3:cad>0</ns3:cad>
          </ns3:TrackPointExtension>
        </extensions>
      </trkpt>
      <trkpt lat="52.094311080873012542724609375" lon="1.37327919714152812957763671875">
        <ele>-84.59999847412109375</ele>
        <time>2025-09-05T14:26:57.000Z</time>
        <extensions>
          <ns3:TrackPointExtension>
            <ns3:hr>177</ns3:hr>
            <ns3:cad>50</ns3:cad>
          </ns3:TrackPointExtension>
        </extensions>
      </trkpt>
      <trkpt lat="52.094310410320758819580078125" lon="1.37328271754086017608642578125">
        <ele>-84.59999847412109375</ele>
        <time>2025-09-05T14:27:00.000Z</time>
        <extensions>
          <ns3:TrackPointExtension>
            <ns3:hr>173</ns3:hr>
            <ns3:cad>0</ns3:cad>
          </ns3:TrackPointExtension>
        </extensions>
      </trkpt>
      <trkpt lat="52.09428065456449985504150390625" lon="1.37336519546806812286376953125">
        <ele>-84.59999847412109375</ele>
        <time>2025-09-05T14:27:06.000Z</time>
        <extensions>
          <ns3:TrackPointExtension>
            <ns3:hr>169</ns3:hr>
            <ns3:cad>0</ns3:cad>
          </ns3:TrackPointExtension>
        </extensions>
      </trkpt>
      <trkpt lat="52.09425886161625385284423828125" lon="1.373517327010631561279296875">
        <ele>-84.59999847412109375</ele>
        <time>2025-09-05T14:27:13.000Z</time>
        <extensions>
          <ns3:TrackPointExtension>
            <ns3:hr>170</ns3:hr>
            <ns3:cad>82</ns3:cad>
          </ns3:TrackPointExtension>
        </extensions>
      </trkpt>
      <trkpt lat="52.09424771368503570556640625" lon="1.37360357679426670074462890625">
        <ele>-84.59999847412109375</ele>
        <time>2025-09-05T14:27:16.000Z</time>
        <extensions>
          <ns3:TrackPointExtension>
            <ns3:hr>173</ns3:hr>
            <ns3:cad>82</ns3:cad>
          </ns3:TrackPointExtension>
        </extensions>
      </trkpt>
      <trkpt lat="52.0942388288676738739013671875" lon="1.3736760802567005157470703125">
        <ele>-84.59999847412109375</ele>
        <time>2025-09-05T14:27:18.000Z</time>
        <extensions>
          <ns3:TrackPointExtension>
            <ns3:hr>176</ns3:hr>
            <ns3:cad>81</ns3:cad>
          </ns3:TrackPointExtension>
        </extensions>
      </trkpt>
      <trkpt lat="52.09423824213445186614990234375" lon="1.37372888624668121337890625">
        <ele>-84.8000030517578125</ele>
        <time>2025-09-05T14:27:20.000Z</time>
        <extensions>
          <ns3:TrackPointExtension>
            <ns3:hr>177</ns3:hr>
            <ns3:cad>81</ns3:cad>
          </ns3:TrackPointExtension>
        </extensions>
      </trkpt>
      <trkpt lat="52.0941841788589954376220703125" lon="1.37395092286169528961181640625">
        <ele>-84.8000030517578125</ele>
        <time>2025-09-05T14:27:26.000Z</time>
        <extensions>
          <ns3:TrackPointExtension>
            <ns3:hr>179</ns3:hr>
            <ns3:cad>81</ns3:cad>
          </ns3:TrackPointExtension>
        </extensions>
      </trkpt>
      <trkpt lat="52.09417219273746013641357421875" lon="1.37401412241160869598388671875">
        <ele>-84.8000030517578125</ele>
        <time>2025-09-05T14:27:28.000Z</time>
        <extensions>
          <ns3:TrackPointExtension>
            <ns3:hr>182</ns3:hr>
            <ns3:cad>81</ns3:cad>
          </ns3:TrackPointExtension>
        </extensions>
      </trkpt>
      <trkpt lat="52.09415844641625881195068359375" lon="1.37413834221661090850830078125">
        <ele>-84.8000030517578125</ele>
        <time>2025-09-05T14:27:32.000Z</time>
        <extensions>
          <ns3:TrackPointExtension>
            <ns3:hr>183</ns3:hr>
            <ns3:cad>82</ns3:cad>
          </ns3:TrackPointExtension>
        </extensions>
      </trkpt>
      <trkpt lat="52.09413581527769565582275390625" lon="1.37437605299055576324462890625">
        <ele>-84.59999847412109375</ele>
        <time>2025-09-05T14:27:39.000Z</time>
        <extensions>
          <ns3:TrackPointExtension>
            <ns3:hr>186</ns3:hr>
            <ns3:cad>82</ns3:cad>
          </ns3:TrackPointExtension>
        </extensions>
      </trkpt>
      <trkpt lat="52.0941268466413021087646484375" lon="1.37449004687368869781494140625">
        <ele>-84.40000152587890625</ele>
        <time>2025-09-05T14:27:42.000Z</time>
        <extensions>
          <ns3:TrackPointExtension>
            <ns3:hr>183</ns3:hr>
            <ns3:cad>81</ns3:cad>
          </ns3:TrackPointExtension>
        </extensions>
      </trkpt>
      <trkpt lat="52.09412659518420696258544921875" lon="1.37453019618988037109375">
        <ele>-84.40000152587890625</ele>
        <time>2025-09-05T14:27:43.000Z</time>
        <extensions>
          <ns3:TrackPointExtension>
            <ns3:hr>183</ns3:hr>
            <ns3:cad>81</ns3:cad>
          </ns3:TrackPointExtension>
        </extensions>
      </trkpt>
      <trkpt lat="52.09411402232944965362548828125" lon="1.37463756836950778961181640625">
        <ele>-84.1999969482421875</ele>
        <time>2025-09-05T14:27:46.000Z</time>
        <extensions>
          <ns3:TrackPointExtension>
            <ns3:hr>183</ns3:hr>
            <ns3:cad>81</ns3:cad>
          </ns3:TrackPointExtension>
        </extensions>
      </trkpt>
      <trkpt lat="52.09408049471676349639892578125" lon="1.37486455030739307403564453125">
        <ele>-83.40000152587890625</ele>
        <time>2025-09-05T14:27:53.000Z</time>
        <extensions>
          <ns3:TrackPointExtension>
            <ns3:hr>181</ns3:hr>
            <ns3:cad>80</ns3:cad>
          </ns3:TrackPointExtension>
        </extensions>
      </trkpt>
      <trkpt lat="52.09407269954681396484375" lon="1.37494987808167934417724609375">
        <ele>-83.1999969482421875</ele>
        <time>2025-09-05T14:27:55.000Z</time>
        <extensions>
          <ns3:TrackPointExtension>
            <ns3:hr>182</ns3:hr>
            <ns3:cad>81</ns3:cad>
          </ns3:TrackPointExtension>
        </extensions>
      </trkpt>
      <trkpt lat="52.09406440146267414093017578125" lon="1.3751328550279140472412109375">
        <ele>-82.8000030517578125</ele>
        <time>2025-09-05T14:27:59.000Z</time>
        <extensions>
          <ns3:TrackPointExtension>
            <ns3:hr>183</ns3:hr>
            <ns3:cad>81</ns3:cad>
          </ns3:TrackPointExtension>
        </extensions>
      </trkpt>
      <trkpt lat="52.094029448926448822021484375" lon="1.37535103596746921539306640625">
        <ele>-82.1999969482421875</ele>
        <time>2025-09-05T14:28:05.000Z</time>
        <extensions>
          <ns3:TrackPointExtension>
            <ns3:hr>180</ns3:hr>
            <ns3:cad>81</ns3:cad>
          </ns3:TrackPointExtension>
        </extensions>
      </trkpt>
      <trkpt lat="52.09402467124164104461669921875" lon="1.37538573704659938812255859375">
        <ele>-82.1999969482421875</ele>
        <time>2025-09-05T14:28:06.000Z</time>
        <extensions>
          <ns3:TrackPointExtension>
            <ns3:hr>179</ns3:hr>
            <ns3:cad>81</ns3:cad>
          </ns3:TrackPointExtension>
        </extensions>
      </trkpt>
      <trkpt lat="52.0940128527581691741943359375" lon="1.375494785606861114501953125">
        <ele>-81.8000030517578125</ele>
        <time>2025-09-05T14:28:09.000Z</time>
        <extensions>
          <ns3:TrackPointExtension>
            <ns3:hr>175</ns3:hr>
            <ns3:cad>81</ns3:cad>
          </ns3:TrackPointExtension>
        </extensions>
      </trkpt>
      <trkpt lat="52.09400790743529796600341796875" lon="1.37559545226395130157470703125">
        <ele>-81.59999847412109375</ele>
        <time>2025-09-05T14:28:12.000Z</time>
        <extensions>
          <ns3:TrackPointExtension>
            <ns3:hr>172</ns3:hr>
            <ns3:cad>81</ns3:cad>
          </ns3:TrackPointExtension>
        </extensions>
      </trkpt>
      <trkpt lat="52.0939984358847141265869140625" lon="1.375655047595500946044921875">
        <ele>-81.40000152587890625</ele>
        <time>2025-09-05T14:28:14.000Z</time>
        <extensions>
          <ns3:TrackPointExtension>
            <ns3:hr>172</ns3:hr>
            <ns3:cad>81</ns3:cad>
          </ns3:TrackPointExtension>
        </extensions>
      </trkpt>
      <trkpt lat="52.09400363266468048095703125" lon="1.3757541216909885406494140625">
        <ele>-81.1999969482421875</ele>
        <time>2025-09-05T14:28:17.000Z</time>
        <extensions>
          <ns3:TrackPointExtension>
            <ns3:hr>169</ns3:hr>
            <ns3:cad>81</ns3:cad>
          </ns3:TrackPointExtension>
        </extensions>
      </trkpt>
      <trkpt lat="52.09400656633079051971435546875" lon="1.37578303925693035125732421875">
        <ele>-81.1999969482421875</ele>
        <time>2025-09-05T14:28:18.000Z</time>
        <extensions>
          <ns3:TrackPointExtension>
            <ns3:hr>169</ns3:hr>
            <ns3:cad>81</ns3:cad>
          </ns3:TrackPointExtension>
        </extensions>
      </trkpt>
      <trkpt lat="52.09401260130107402801513671875" lon="1.3758885674178600311279296875">
        <ele>-81</ele>
        <time>2025-09-05T14:28:21.000Z</time>
        <extensions>
          <ns3:TrackPointExtension>
            <ns3:hr>170</ns3:hr>
            <ns3:cad>81</ns3:cad>
          </ns3:TrackPointExtension>
        </extensions>
      </trkpt>
      <trkpt lat="52.09399466402828693389892578125" lon="1.3761256076395511627197265625">
        <ele>-80.59999847412109375</ele>
        <time>2025-09-05T14:28:28.000Z</time>
        <extensions>
          <ns3:TrackPointExtension>
            <ns3:hr>171</ns3:hr>
            <ns3:cad>81</ns3:cad>
          </ns3:TrackPointExtension>
        </extensions>
      </trkpt>
      <trkpt lat="52.09396499209105968475341796875" lon="1.37633909471333026885986328125">
        <ele>-80.1999969482421875</ele>
        <time>2025-09-05T14:28:35.000Z</time>
        <extensions>
          <ns3:TrackPointExtension>
            <ns3:hr>172</ns3:hr>
            <ns3:cad>81</ns3:cad>
          </ns3:TrackPointExtension>
        </extensions>
      </trkpt>
      <trkpt lat="52.0939535088837146759033203125" lon="1.37638888321816921234130859375">
        <ele>-80</ele>
        <time>2025-09-05T14:28:37.000Z</time>
        <extensions>
          <ns3:TrackPointExtension>
            <ns3:hr>172</ns3:hr>
            <ns3:cad>81</ns3:cad>
          </ns3:TrackPointExtension>
        </extensions>
      </trkpt>
      <trkpt lat="52.09393247030675411224365234375" lon="1.376530788838863372802734375">
        <ele>-79.59999847412109375</ele>
        <time>2025-09-05T14:28:44.000Z</time>
        <extensions>
          <ns3:TrackPointExtension>
            <ns3:hr>171</ns3:hr>
            <ns3:cad>57</ns3:cad>
          </ns3:TrackPointExtension>
        </extensions>
      </trkpt>
      <trkpt lat="52.09386457689106464385986328125" lon="1.37658401392400264739990234375">
        <ele>-79.59999847412109375</ele>
        <time>2025-09-05T14:28:50.000Z</time>
        <extensions>
          <ns3:TrackPointExtension>
            <ns3:hr>169</ns3:hr>
            <ns3:cad>57</ns3:cad>
          </ns3:TrackPointExtension>
        </extensions>
      </trkpt>
      <trkpt lat="52.09383691661059856414794921875" lon="1.37658854015171527862548828125">
        <ele>-79.8000030517578125</ele>
        <time>2025-09-05T14:28:54.000Z</time>
        <extensions>
          <ns3:TrackPointExtension>
            <ns3:hr>166</ns3:hr>
            <ns3:cad>57</ns3:cad>
          </ns3:TrackPointExtension>
        </extensions>
      </trkpt>
      <trkpt lat="52.09381143562495708465576171875" lon="1.376583762466907501220703125">
        <ele>-80</ele>
        <time>2025-09-05T14:28:56.000Z</time>
        <extensions>
          <ns3:TrackPointExtension>
            <ns3:hr>165</ns3:hr>
            <ns3:cad>0</ns3:cad>
          </ns3:TrackPointExtension>
        </extensions>
      </trkpt>
      <trkpt lat="52.0937962643802165985107421875" lon="1.37658334337174892425537109375">
        <ele>-80</ele>
        <time>2025-09-05T14:28:57.000Z</time>
        <extensions>
          <ns3:TrackPointExtension>
            <ns3:hr>165</ns3:hr>
            <ns3:cad>57</ns3:cad>
          </ns3:TrackPointExtension>
        </extensions>
      </trkpt>
      <trkpt lat="52.0937349088490009307861328125" lon="1.37656892649829387664794921875">
        <ele>-80.8000030517578125</ele>
        <time>2025-09-05T14:29:03.000Z</time>
        <extensions>
          <ns3:TrackPointExtension>
            <ns3:hr>167</ns3:hr>
            <ns3:cad>0</ns3:cad>
          </ns3:TrackPointExtension>
        </extensions>
      </trkpt>
      <trkpt lat="52.0937037281692028045654296875" lon="1.3765581138432025909423828125">
        <ele>-81</ele>
        <time>2025-09-05T14:29:06.000Z</time>
        <extensions>
          <ns3:TrackPointExtension>
            <ns3:hr>164</ns3:hr>
            <ns3:cad>0</ns3:cad>
          </ns3:TrackPointExtension>
        </extensions>
      </trkpt>
      <trkpt lat="52.09369182586669921875" lon="1.37655434198677539825439453125">
        <ele>-81.1999969482421875</ele>
        <time>2025-09-05T14:29:08.000Z</time>
        <extensions>
          <ns3:TrackPointExtension>
            <ns3:hr>162</ns3:hr>
            <ns3:cad>0</ns3:cad>
          </ns3:TrackPointExtension>
        </extensions>
      </trkpt>
      <trkpt lat="52.09367246367037296295166015625" lon="1.37653238140046596527099609375">
        <ele>-81.40000152587890625</ele>
        <time>2025-09-05T14:29:10.000Z</time>
        <extensions>
          <ns3:TrackPointExtension>
            <ns3:hr>161</ns3:hr>
            <ns3:cad>0</ns3:cad>
          </ns3:TrackPointExtension>
        </extensions>
      </trkpt>
      <trkpt lat="52.0936470665037631988525390625" lon="1.37653204612433910369873046875">
        <ele>-81.59999847412109375</ele>
        <time>2025-09-05T14:29:12.000Z</time>
        <extensions>
          <ns3:TrackPointExtension>
            <ns3:hr>158</ns3:hr>
            <ns3:cad>0</ns3:cad>
          </ns3:TrackPointExtension>
        </extensions>
      </trkpt>
      <trkpt lat="52.0935595594346523284912109375" lon="1.37651813216507434844970703125">
        <ele>-81.40000152587890625</ele>
        <time>2025-09-05T14:29:18.000Z</time>
        <extensions>
          <ns3:TrackPointExtension>
            <ns3:hr>156</ns3:hr>
            <ns3:cad>64</ns3:cad>
          </ns3:TrackPointExtension>
        </extensions>
      </trkpt>
      <trkpt lat="52.0935189910233020782470703125" lon="1.37650639750063419342041015625">
        <ele>-81</ele>
        <time>2025-09-05T14:29:23.000Z</time>
        <extensions>
          <ns3:TrackPointExtension>
            <ns3:hr>155</ns3:hr>
            <ns3:cad>0</ns3:cad>
          </ns3:TrackPointExtension>
        </extensions>
      </trkpt>
      <trkpt lat="52.09349459968507289886474609375" lon="1.376509331166744232177734375">
        <ele>-80.8000030517578125</ele>
        <time>2025-09-05T14:29:25.000Z</time>
        <extensions>
          <ns3:TrackPointExtension>
            <ns3:hr>154</ns3:hr>
            <ns3:cad>0</ns3:cad>
          </ns3:TrackPointExtension>
        </extensions>
      </trkpt>
      <trkpt lat="52.0934469066560268402099609375" lon="1.37652601115405559539794921875">
        <ele>-80.8000030517578125</ele>
        <time>2025-09-05T14:29:28.000Z</time>
        <extensions>
          <ns3:TrackPointExtension>
            <ns3:hr>151</ns3:hr>
            <ns3:cad>64</ns3:cad>
          </ns3:TrackPointExtension>
        </extensions>
      </trkpt>
      <trkpt lat="52.09339552558958530426025390625" lon="1.3765239156782627105712890625">
        <ele>-80.8000030517578125</ele>
        <time>2025-09-05T14:29:32.000Z</time>
        <extensions>
          <ns3:TrackPointExtension>
            <ns3:hr>154</ns3:hr>
            <ns3:cad>60</ns3:cad>
          </ns3:TrackPointExtension>
        </extensions>
      </trkpt>
      <trkpt lat="52.0932846330106258392333984375" lon="1.3765163719654083251953125">
        <ele>-80.8000030517578125</ele>
        <time>2025-09-05T14:29:39.000Z</time>
        <extensions>
          <ns3:TrackPointExtension>
            <ns3:hr>153</ns3:hr>
            <ns3:cad>80</ns3:cad>
          </ns3:TrackPointExtension>
        </extensions>
      </trkpt>
      <trkpt lat="52.09318212233483791351318359375" lon="1.376528777182102203369140625">
        <ele>-80.8000030517578125</ele>
        <time>2025-09-05T14:29:44.000Z</time>
        <extensions>
          <ns3:TrackPointExtension>
            <ns3:hr>157</ns3:hr>
            <ns3:cad>80</ns3:cad>
          </ns3:TrackPointExtension>
        </extensions>
      </trkpt>
      <trkpt lat="52.0931622572243213653564453125" lon="1.37652835808694362640380859375">
        <ele>-80.8000030517578125</ele>
        <time>2025-09-05T14:29:45.000Z</time>
        <extensions>
          <ns3:TrackPointExtension>
            <ns3:hr>161</ns3:hr>
            <ns3:cad>81</ns3:cad>
          </ns3:TrackPointExtension>
        </extensions>
      </trkpt>
      <trkpt lat="52.09314356558024883270263671875" lon="1.37652886100113391876220703125">
        <ele>-80.59999847412109375</ele>
        <time>2025-09-05T14:29:46.000Z</time>
        <extensions>
          <ns3:TrackPointExtension>
            <ns3:hr>164</ns3:hr>
            <ns3:cad>81</ns3:cad>
          </ns3:TrackPointExtension>
        </extensions>
      </trkpt>
      <trkpt lat="52.09310534410178661346435546875" lon="1.37654596008360385894775390625">
        <ele>-80.59999847412109375</ele>
        <time>2025-09-05T14:29:48.000Z</time>
        <extensions>
          <ns3:TrackPointExtension>
            <ns3:hr>167</ns3:hr>
            <ns3:cad>82</ns3:cad>
          </ns3:TrackPointExtension>
        </extensions>
      </trkpt>
      <trkpt lat="52.09307692945003509521484375" lon="1.3765500672161579132080078125">
        <ele>-80.59999847412109375</ele>
        <time>2025-09-05T14:29:49.000Z</time>
        <extensions>
          <ns3:TrackPointExtension>
            <ns3:hr>170</ns3:hr>
            <ns3:cad>82</ns3:cad>
          </ns3:TrackPointExtension>
        </extensions>
      </trkpt>
      <trkpt lat="52.093034349381923675537109375" lon="1.37655400671064853668212890625">
        <ele>-80.40000152587890625</ele>
        <time>2025-09-05T14:29:51.000Z</time>
        <extensions>
          <ns3:TrackPointExtension>
            <ns3:hr>175</ns3:hr>
            <ns3:cad>81</ns3:cad>
          </ns3:TrackPointExtension>
        </extensions>
      </trkpt>
      <trkpt lat="52.0929902605712413787841796875" lon="1.3765675015747547149658203125">
        <ele>-80.40000152587890625</ele>
        <time>2025-09-05T14:29:53.000Z</time>
        <extensions>
          <ns3:TrackPointExtension>
            <ns3:hr>178</ns3:hr>
            <ns3:cad>81</ns3:cad>
          </ns3:TrackPointExtension>
        </extensions>
      </trkpt>
      <trkpt lat="52.09296687506139278411865234375" lon="1.37657596729695796966552734375">
        <ele>-80.1999969482421875</ele>
        <time>2025-09-05T14:29:54.000Z</time>
        <extensions>
          <ns3:TrackPointExtension>
            <ns3:hr>180</ns3:hr>
            <ns3:cad>81</ns3:cad>
          </ns3:TrackPointExtension>
        </extensions>
      </trkpt>
      <trkpt lat="52.0929453335702419281005859375" lon="1.37658015824854373931884765625">
        <ele>-80.1999969482421875</ele>
        <time>2025-09-05T14:29:55.000Z</time>
        <extensions>
          <ns3:TrackPointExtension>
            <ns3:hr>181</ns3:hr>
            <ns3:cad>81</ns3:cad>
          </ns3:TrackPointExtension>
        </extensions>
      </trkpt>
      <trkpt lat="52.0929054357111454010009765625" lon="1.3765859417617321014404296875">
        <ele>-80</ele>
        <time>2025-09-05T14:29:57.000Z</time>
        <extensions>
          <ns3:TrackPointExtension>
            <ns3:hr>184</ns3:hr>
            <ns3:cad>81</ns3:cad>
          </ns3:TrackPointExtension>
        </extensions>
      </trkpt>
      <trkpt lat="52.0927790366113185882568359375" lon="1.3766560144722461700439453125">
        <ele>-79.1999969482421875</ele>
        <time>2025-09-05T14:30:03.000Z</time>
        <extensions>
          <ns3:TrackPointExtension>
            <ns3:hr>183</ns3:hr>
            <ns3:cad>81</ns3:cad>
          </ns3:TrackPointExtension>
        </extensions>
      </trkpt>
      <trkpt lat="52.09269010461866855621337890625" lon="1.37669683434069156646728515625">
        <ele>-78.1999969482421875</ele>
        <time>2025-09-05T14:30:08.000Z</time>
        <extensions>
          <ns3:TrackPointExtension>
            <ns3:hr>181</ns3:hr>
            <ns3:cad>81</ns3:cad>
          </ns3:TrackPointExtension>
        </extensions>
      </trkpt>
      <trkpt lat="52.0926683954894542694091796875" lon="1.376705802977085113525390625">
        <ele>-78</ele>
        <time>2025-09-05T14:30:09.000Z</time>
        <extensions>
          <ns3:TrackPointExtension>
            <ns3:hr>181</ns3:hr>
            <ns3:cad>81</ns3:cad>
          </ns3:TrackPointExtension>
        </extensions>
      </trkpt>
      <trkpt lat="52.0925644598901271820068359375" lon="1.37671309523284435272216796875">
        <ele>-76.8000030517578125</ele>
        <time>2025-09-05T14:30:14.000Z</time>
        <extensions>
          <ns3:TrackPointExtension>
            <ns3:hr>181</ns3:hr>
            <ns3:cad>81</ns3:cad>
          </ns3:TrackPointExtension>
        </extensions>
      </trkpt>
      <trkpt lat="52.092541493475437164306640625" lon="1.376705802977085113525390625">
        <ele>-76.59999847412109375</ele>
        <time>2025-09-05T14:30:15.000Z</time>
        <extensions>
          <ns3:TrackPointExtension>
            <ns3:hr>181</ns3:hr>
            <ns3:cad>81</ns3:cad>
          </ns3:TrackPointExtension>
        </extensions>
      </trkpt>
      <trkpt lat="52.09244652651250362396240234375" lon="1.3766747899353504180908203125">
        <ele>-75.59999847412109375</ele>
        <time>2025-09-05T14:30:19.000Z</time>
        <extensions>
          <ns3:TrackPointExtension>
            <ns3:hr>181</ns3:hr>
            <ns3:cad>81</ns3:cad>
          </ns3:TrackPointExtension>
        </extensions>
      </trkpt>
      <trkpt lat="52.09236253984272480010986328125" lon="1.376625001430511474609375">
        <ele>-74.8000030517578125</ele>
        <time>2025-09-05T14:30:23.000Z</time>
        <extensions>
          <ns3:TrackPointExtension>
            <ns3:hr>178</ns3:hr>
            <ns3:cad>80</ns3:cad>
          </ns3:TrackPointExtension>
        </extensions>
      </trkpt>
      <trkpt lat="52.09234409965574741363525390625" lon="1.37661159038543701171875">
        <ele>-74.59999847412109375</ele>
        <time>2025-09-05T14:30:24.000Z</time>
        <extensions>
          <ns3:TrackPointExtension>
            <ns3:hr>176</ns3:hr>
            <ns3:cad>80</ns3:cad>
          </ns3:TrackPointExtension>
        </extensions>
      </trkpt>
      <trkpt lat="52.09232725203037261962890625" lon="1.37658703140914440155029296875">
        <ele>-74.1999969482421875</ele>
        <time>2025-09-05T14:30:25.000Z</time>
        <extensions>
          <ns3:TrackPointExtension>
            <ns3:hr>177</ns3:hr>
            <ns3:cad>80</ns3:cad>
          </ns3:TrackPointExtension>
        </extensions>
      </trkpt>
      <trkpt lat="52.09231023676693439483642578125" lon="1.3765681721270084381103515625">
        <ele>-74</ele>
        <time>2025-09-05T14:30:26.000Z</time>
        <extensions>
          <ns3:TrackPointExtension>
            <ns3:hr>174</ns3:hr>
            <ns3:cad>80</ns3:cad>
          </ns3:TrackPointExtension>
        </extensions>
      </trkpt>
      <trkpt lat="52.0922419242560863494873046875" lon="1.3765592873096466064453125">
        <ele>-73.40000152587890625</ele>
        <time>2025-09-05T14:30:29.000Z</time>
        <extensions>
          <ns3:TrackPointExtension>
            <ns3:hr>174</ns3:hr>
            <ns3:cad>80</ns3:cad>
          </ns3:TrackPointExtension>
        </extensions>
      </trkpt>
      <trkpt lat="52.09214377216994762420654296875" lon="1.376515366137027740478515625">
        <ele>-72.59999847412109375</ele>
        <time>2025-09-05T14:30:33.000Z</time>
        <extensions>
          <ns3:TrackPointExtension>
            <ns3:hr>175</ns3:hr>
            <ns3:cad>80</ns3:cad>
          </ns3:TrackPointExtension>
        </extensions>
      </trkpt>
      <trkpt lat="52.09212147630751132965087890625" lon="1.37649902142584323883056640625">
        <ele>-72.40000152587890625</ele>
        <time>2025-09-05T14:30:34.000Z</time>
        <extensions>
          <ns3:TrackPointExtension>
            <ns3:hr>175</ns3:hr>
            <ns3:cad>81</ns3:cad>
          </ns3:TrackPointExtension>
        </extensions>
      </trkpt>
      <trkpt lat="52.09202173165977001190185546875" lon="1.3764224946498870849609375">
        <ele>-71.1999969482421875</ele>
        <time>2025-09-05T14:30:39.000Z</time>
        <extensions>
          <ns3:TrackPointExtension>
            <ns3:hr>177</ns3:hr>
            <ns3:cad>81</ns3:cad>
          </ns3:TrackPointExtension>
        </extensions>
      </trkpt>
      <trkpt lat="52.09197814576327800750732421875" lon="1.376408748328685760498046875">
        <ele>-70.8000030517578125</ele>
        <time>2025-09-05T14:30:41.000Z</time>
        <extensions>
          <ns3:TrackPointExtension>
            <ns3:hr>175</ns3:hr>
            <ns3:cad>81</ns3:cad>
          </ns3:TrackPointExtension>
        </extensions>
      </trkpt>
      <trkpt lat="52.09192802198231220245361328125" lon="1.37634915299713611602783203125">
        <ele>-70.1999969482421875</ele>
        <time>2025-09-05T14:30:44.000Z</time>
        <extensions>
          <ns3:TrackPointExtension>
            <ns3:hr>175</ns3:hr>
            <ns3:cad>81</ns3:cad>
          </ns3:TrackPointExtension>
        </extensions>
      </trkpt>
      <trkpt lat="52.09184219129383563995361328125" lon="1.37629416771233081817626953125">
        <ele>-69.40000152587890625</ele>
        <time>2025-09-05T14:30:49.000Z</time>
        <extensions>
          <ns3:TrackPointExtension>
            <ns3:hr>176</ns3:hr>
            <ns3:cad>81</ns3:cad>
          </ns3:TrackPointExtension>
        </extensions>
      </trkpt>
      <trkpt lat="52.09182358346879482269287109375" lon="1.3762902282178401947021484375">
        <ele>-69.1999969482421875</ele>
        <time>2025-09-05T14:30:50.000Z</time>
        <extensions>
          <ns3:TrackPointExtension>
            <ns3:hr>176</ns3:hr>
            <ns3:cad>81</ns3:cad>
          </ns3:TrackPointExtension>
        </extensions>
      </trkpt>
      <trkpt lat="52.091710679233074188232421875" lon="1.376289390027523040771484375">
        <ele>-68</ele>
        <time>2025-09-05T14:30:56.000Z</time>
        <extensions>
          <ns3:TrackPointExtension>
            <ns3:hr>176</ns3:hr>
            <ns3:cad>81</ns3:cad>
          </ns3:TrackPointExtension>
        </extensions>
      </trkpt>
      <trkpt lat="52.09168176166713237762451171875" lon="1.37627187184989452362060546875">
        <ele>-67.59999847412109375</ele>
        <time>2025-09-05T14:30:58.000Z</time>
        <extensions>
          <ns3:TrackPointExtension>
            <ns3:hr>176</ns3:hr>
            <ns3:cad>81</ns3:cad>
          </ns3:TrackPointExtension>
        </extensions>
      </trkpt>
      <trkpt lat="52.0916256867349147796630859375" lon="1.37626717798411846160888671875">
        <ele>-67</ele>
        <time>2025-09-05T14:31:02.000Z</time>
        <extensions>
          <ns3:TrackPointExtension>
            <ns3:hr>176</ns3:hr>
            <ns3:cad>81</ns3:cad>
          </ns3:TrackPointExtension>
        </extensions>
      </trkpt>
      <trkpt lat="52.0916092582046985626220703125" lon="1.3762365840375423431396484375">
        <ele>-66.59999847412109375</ele>
        <time>2025-09-05T14:31:04.000Z</time>
        <extensions>
          <ns3:TrackPointExtension>
            <ns3:hr>179</ns3:hr>
            <ns3:cad>81</ns3:cad>
          </ns3:TrackPointExtension>
        </extensions>
      </trkpt>
      <trkpt lat="52.09155368618667125701904296875" lon="1.37618687935173511505126953125">
        <ele>-66</ele>
        <time>2025-09-05T14:31:08.000Z</time>
        <extensions>
          <ns3:TrackPointExtension>
            <ns3:hr>177</ns3:hr>
            <ns3:cad>81</ns3:cad>
          </ns3:TrackPointExtension>
        </extensions>
      </trkpt>
      <trkpt lat="52.09153742529451847076416015625" lon="1.3761826045811176300048828125">
        <ele>-66</ele>
        <time>2025-09-05T14:31:09.000Z</time>
        <extensions>
          <ns3:TrackPointExtension>
            <ns3:hr>177</ns3:hr>
            <ns3:cad>81</ns3:cad>
          </ns3:TrackPointExtension>
        </extensions>
      </trkpt>
      <trkpt lat="52.09143097512423992156982421875" lon="1.3762087561190128326416015625">
        <ele>-65.1999969482421875</ele>
        <time>2025-09-05T14:31:15.000Z</time>
        <extensions>
          <ns3:TrackPointExtension>
            <ns3:hr>176</ns3:hr>
            <ns3:cad>81</ns3:cad>
          </ns3:TrackPointExtension>
        </extensions>
      </trkpt>
      <trkpt lat="52.09135436452925205230712890625" lon="1.37625477276742458343505859375">
        <ele>-65</ele>
        <time>2025-09-05T14:31:18.000Z</time>
        <extensions>
          <ns3:TrackPointExtension>
            <ns3:hr>176</ns3:hr>
            <ns3:cad>81</ns3:cad>
          </ns3:TrackPointExtension>
        </extensions>
      </trkpt>
      <trkpt lat="52.09128714166581630706787109375" lon="1.37624806724488735198974609375">
        <ele>-64.59999847412109375</ele>
        <time>2025-09-05T14:31:21.000Z</time>
        <extensions>
          <ns3:TrackPointExtension>
            <ns3:hr>175</ns3:hr>
            <ns3:cad>81</ns3:cad>
          </ns3:TrackPointExtension>
        </extensions>
      </trkpt>
      <trkpt lat="52.0911546237766742706298828125" lon="1.3761772401630878448486328125">
        <ele>-63.799999237060546875</ele>
        <time>2025-09-05T14:31:29.000Z</time>
        <extensions>
          <ns3:TrackPointExtension>
            <ns3:hr>176</ns3:hr>
            <ns3:cad>81</ns3:cad>
          </ns3:TrackPointExtension>
        </extensions>
      </trkpt>
      <trkpt lat="52.09099042229354381561279296875" lon="1.37619316577911376953125">
        <ele>-63.40000152587890625</ele>
        <time>2025-09-05T14:31:36.000Z</time>
        <extensions>
          <ns3:TrackPointExtension>
            <ns3:hr>176</ns3:hr>
            <ns3:cad>81</ns3:cad>
          </ns3:TrackPointExtension>
        </extensions>
      </trkpt>
      <trkpt lat="52.09082429297268390655517578125" lon="1.376233063638210296630859375">
        <ele>-62.799999237060546875</ele>
        <time>2025-09-05T14:31:44.000Z</time>
        <extensions>
          <ns3:TrackPointExtension>
            <ns3:hr>177</ns3:hr>
            <ns3:cad>81</ns3:cad>
          </ns3:TrackPointExtension>
        </extensions>
      </trkpt>
      <trkpt lat="52.090679369866847991943359375" lon="1.37618503533303737640380859375">
        <ele>-62.40000152587890625</ele>
        <time>2025-09-05T14:31:50.000Z</time>
        <extensions>
          <ns3:TrackPointExtension>
            <ns3:hr>173</ns3:hr>
            <ns3:cad>79</ns3:cad>
          </ns3:TrackPointExtension>
        </extensions>
      </trkpt>
      <trkpt lat="52.0906555652618408203125" lon="1.37616743333637714385986328125">
        <ele>-62.40000152587890625</ele>
        <time>2025-09-05T14:31:51.000Z</time>
        <extensions>
          <ns3:TrackPointExtension>
            <ns3:hr>173</ns3:hr>
            <ns3:cad>79</ns3:cad>
          </ns3:TrackPointExtension>
        </extensions>
      </trkpt>
      <trkpt lat="52.09049806930124759674072265625" lon="1.3760483264923095703125">
        <ele>-61.799999237060546875</ele>
        <time>2025-09-05T14:32:00.000Z</time>
        <extensions>
          <ns3:TrackPointExtension>
            <ns3:hr>172</ns3:hr>
            <ns3:cad>79</ns3:cad>
          </ns3:TrackPointExtension>
        </extensions>
      </trkpt>
      <trkpt lat="52.09047652781009674072265625" lon="1.3760354183614253997802734375">
        <ele>-61.799999237060546875</ele>
        <time>2025-09-05T14:32:02.000Z</time>
        <extensions>
          <ns3:TrackPointExtension>
            <ns3:hr>173</ns3:hr>
            <ns3:cad>79</ns3:cad>
          </ns3:TrackPointExtension>
        </extensions>
      </trkpt>
      <trkpt lat="52.09038323722779750823974609375" lon="1.37600868009030818939208984375">
        <ele>-61.40000152587890625</ele>
        <time>2025-09-05T14:32:09.000Z</time>
        <extensions>
          <ns3:TrackPointExtension>
            <ns3:hr>176</ns3:hr>
            <ns3:cad>80</ns3:cad>
          </ns3:TrackPointExtension>
        </extensions>
      </trkpt>
      <trkpt lat="52.09027913399040699005126953125" lon="1.37595620937645435333251953125">
        <ele>-61.59999847412109375</ele>
        <time>2025-09-05T14:32:16.000Z</time>
        <extensions>
          <ns3:TrackPointExtension>
            <ns3:hr>175</ns3:hr>
            <ns3:cad>81</ns3:cad>
          </ns3:TrackPointExtension>
        </extensions>
      </trkpt>
      <trkpt lat="52.09016413427889347076416015625" lon="1.37587222270667552947998046875">
        <ele>-62.59999847412109375</ele>
        <time>2025-09-05T14:32:22.000Z</time>
        <extensions>
          <ns3:TrackPointExtension>
            <ns3:hr>177</ns3:hr>
            <ns3:cad>81</ns3:cad>
          </ns3:TrackPointExtension>
        </extensions>
      </trkpt>
      <trkpt lat="52.09014401771128177642822265625" lon="1.3758677802979946136474609375">
        <ele>-62.799999237060546875</ele>
        <time>2025-09-05T14:32:23.000Z</time>
        <extensions>
          <ns3:TrackPointExtension>
            <ns3:hr>176</ns3:hr>
            <ns3:cad>81</ns3:cad>
          </ns3:TrackPointExtension>
        </extensions>
      </trkpt>
      <trkpt lat="52.09008232690393924713134765625" lon="1.37584439478814601898193359375">
        <ele>-64</ele>
        <time>2025-09-05T14:32:28.000Z</time>
        <extensions>
          <ns3:TrackPointExtension>
            <ns3:hr>176</ns3:hr>
            <ns3:cad>81</ns3:cad>
          </ns3:TrackPointExtension>
        </extensions>
      </trkpt>
      <trkpt lat="52.0900426805019378662109375" lon="1.375845484435558319091796875">
        <ele>-64.40000152587890625</ele>
        <time>2025-09-05T14:32:30.000Z</time>
        <extensions>
          <ns3:TrackPointExtension>
            <ns3:hr>176</ns3:hr>
            <ns3:cad>81</ns3:cad>
          </ns3:TrackPointExtension>
        </extensions>
      </trkpt>
      <trkpt lat="52.08999012596905231475830078125" lon="1.37584975920617580413818359375">
        <ele>-65.1999969482421875</ele>
        <time>2025-09-05T14:32:33.000Z</time>
        <extensions>
          <ns3:TrackPointExtension>
            <ns3:hr>177</ns3:hr>
            <ns3:cad>81</ns3:cad>
          </ns3:TrackPointExtension>
        </extensions>
      </trkpt>
      <trkpt lat="52.08990999497473239898681640625" lon="1.37581321410834789276123046875">
        <ele>-66.1999969482421875</ele>
        <time>2025-09-05T14:32:38.000Z</time>
        <extensions>
          <ns3:TrackPointExtension>
            <ns3:hr>176</ns3:hr>
            <ns3:cad>81</ns3:cad>
          </ns3:TrackPointExtension>
        </extensions>
      </trkpt>
      <trkpt lat="52.089849226176738739013671875" lon="1.3757785968482494354248046875">
        <ele>-67.40000152587890625</ele>
        <time>2025-09-05T14:32:43.000Z</time>
        <extensions>
          <ns3:TrackPointExtension>
            <ns3:hr>175</ns3:hr>
            <ns3:cad>81</ns3:cad>
          </ns3:TrackPointExtension>
        </extensions>
      </trkpt>
      <trkpt lat="52.0897900499403476715087890625" lon="1.37575152330100536346435546875">
        <ele>-68.40000152587890625</ele>
        <time>2025-09-05T14:32:47.000Z</time>
        <extensions>
          <ns3:TrackPointExtension>
            <ns3:hr>174</ns3:hr>
            <ns3:cad>81</ns3:cad>
          </ns3:TrackPointExtension>
        </extensions>
      </trkpt>
      <trkpt lat="52.08977538160979747772216796875" lon="1.375748924911022186279296875">
        <ele>-68.59999847412109375</ele>
        <time>2025-09-05T14:32:48.000Z</time>
        <extensions>
          <ns3:TrackPointExtension>
            <ns3:hr>174</ns3:hr>
            <ns3:cad>81</ns3:cad>
          </ns3:TrackPointExtension>
        </extensions>
      </trkpt>
      <trkpt lat="52.0896991901099681854248046875" lon="1.37572486884891986846923828125">
        <ele>-69.59999847412109375</ele>
        <time>2025-09-05T14:32:53.000Z</time>
        <extensions>
          <ns3:TrackPointExtension>
            <ns3:hr>173</ns3:hr>
            <ns3:cad>81</ns3:cad>
          </ns3:TrackPointExtension>
        </extensions>
      </trkpt>
      <trkpt lat="52.0896606333553791046142578125" lon="1.3757034949958324432373046875">
        <ele>-70</ele>
        <time>2025-09-05T14:32:55.000Z</time>
        <extensions>
          <ns3:TrackPointExtension>
            <ns3:hr>173</ns3:hr>
            <ns3:cad>81</ns3:cad>
          </ns3:TrackPointExtension>
        </extensions>
      </trkpt>
      <trkpt lat="52.08960003219544887542724609375" lon="1.37567189522087574005126953125">
        <ele>-70.59999847412109375</ele>
        <time>2025-09-05T14:32:58.000Z</time>
        <extensions>
          <ns3:TrackPointExtension>
            <ns3:hr>174</ns3:hr>
            <ns3:cad>81</ns3:cad>
          </ns3:TrackPointExtension>
        </extensions>
      </trkpt>
      <trkpt lat="52.08948268555104732513427734375" lon="1.37560131959617137908935546875">
        <ele>-71.8000030517578125</ele>
        <time>2025-09-05T14:33:03.000Z</time>
        <extensions>
          <ns3:TrackPointExtension>
            <ns3:hr>174</ns3:hr>
            <ns3:cad>81</ns3:cad>
          </ns3:TrackPointExtension>
        </extensions>
      </trkpt>
      <trkpt lat="52.08942904137074947357177734375" lon="1.37556108646094799041748046875">
        <ele>-72.1999969482421875</ele>
        <time>2025-09-05T14:33:05.000Z</time>
        <extensions>
          <ns3:TrackPointExtension>
            <ns3:hr>175</ns3:hr>
            <ns3:cad>81</ns3:cad>
          </ns3:TrackPointExtension>
        </extensions>
      </trkpt>
      <trkpt lat="52.0893491618335247039794921875" lon="1.3755036704242229461669921875">
        <ele>-72.8000030517578125</ele>
        <time>2025-09-05T14:33:09.000Z</time>
        <extensions>
          <ns3:TrackPointExtension>
            <ns3:hr>175</ns3:hr>
            <ns3:cad>81</ns3:cad>
          </ns3:TrackPointExtension>
        </extensions>
      </trkpt>
      <trkpt lat="52.08926894702017307281494140625" lon="1.375463940203189849853515625">
        <ele>-73.59999847412109375</ele>
        <time>2025-09-05T14:33:13.000Z</time>
        <extensions>
          <ns3:TrackPointExtension>
            <ns3:hr>175</ns3:hr>
            <ns3:cad>81</ns3:cad>
          </ns3:TrackPointExtension>
        </extensions>
      </trkpt>
      <trkpt lat="52.08923139609396457672119140625" lon="1.37543736957013607025146484375">
        <ele>-74</ele>
        <time>2025-09-05T14:33:15.000Z</time>
        <extensions>
          <ns3:TrackPointExtension>
            <ns3:hr>175</ns3:hr>
            <ns3:cad>81</ns3:cad>
          </ns3:TrackPointExtension>
        </extensions>
      </trkpt>
      <trkpt lat="52.089092172682285308837890625" lon="1.37533477507531642913818359375">
        <ele>-75</ele>
        <time>2025-09-05T14:33:22.000Z</time>
        <extensions>
          <ns3:TrackPointExtension>
            <ns3:hr>174</ns3:hr>
            <ns3:cad>80</ns3:cad>
          </ns3:TrackPointExtension>
        </extensions>
      </trkpt>
      <trkpt lat="52.08907549269497394561767578125" lon="1.37532019056379795074462890625">
        <ele>-75.1999969482421875</ele>
        <time>2025-09-05T14:33:23.000Z</time>
        <extensions>
          <ns3:TrackPointExtension>
            <ns3:hr>171</ns3:hr>
            <ns3:cad>80</ns3:cad>
          </ns3:TrackPointExtension>
        </extensions>
      </trkpt>
      <trkpt lat="52.089052610099315643310546875" lon="1.3753041811287403106689453125">
        <ele>-75.40000152587890625</ele>
        <time>2025-09-05T14:33:24.000Z</time>
        <extensions>
          <ns3:TrackPointExtension>
            <ns3:hr>172</ns3:hr>
            <ns3:cad>79</ns3:cad>
          </ns3:TrackPointExtension>
        </extensions>
      </trkpt>
      <trkpt lat="52.08902151323854923248291015625" lon="1.37527593411505222320556640625">
        <ele>-75.59999847412109375</ele>
        <time>2025-09-05T14:33:26.000Z</time>
        <extensions>
          <ns3:TrackPointExtension>
            <ns3:hr>169</ns3:hr>
            <ns3:cad>79</ns3:cad>
          </ns3:TrackPointExtension>
        </extensions>
      </trkpt>
      <trkpt lat="52.08897440694272518157958984375" lon="1.375256069004535675048828125">
        <ele>-76.1999969482421875</ele>
        <time>2025-09-05T14:33:29.000Z</time>
        <extensions>
          <ns3:TrackPointExtension>
            <ns3:hr>169</ns3:hr>
            <ns3:cad>77</ns3:cad>
          </ns3:TrackPointExtension>
        </extensions>
      </trkpt>
      <trkpt lat="52.0889646001160144805908203125" lon="1.3752371259033679962158203125">
        <ele>-76.40000152587890625</ele>
        <time>2025-09-05T14:33:31.000Z</time>
        <extensions>
          <ns3:TrackPointExtension>
            <ns3:hr>169</ns3:hr>
            <ns3:cad>0</ns3:cad>
          </ns3:TrackPointExtension>
        </extensions>
      </trkpt>
      <trkpt lat="52.08895797841250896453857421875" lon="1.37509471736848354339599609375">
        <ele>-77.1999969482421875</ele>
        <time>2025-09-05T14:33:35.000Z</time>
        <extensions>
          <ns3:TrackPointExtension>
            <ns3:hr>168</ns3:hr>
            <ns3:cad>0</ns3:cad>
          </ns3:TrackPointExtension>
        </extensions>
      </trkpt>
      <trkpt lat="52.088914476335048675537109375" lon="1.37502548284828662872314453125">
        <ele>-78.1999969482421875</ele>
        <time>2025-09-05T14:33:40.000Z</time>
        <extensions>
          <ns3:TrackPointExtension>
            <ns3:hr>168</ns3:hr>
            <ns3:cad>0</ns3:cad>
          </ns3:TrackPointExtension>
        </extensions>
      </trkpt>
      <trkpt lat="52.08884281106293201446533203125" lon="1.374938897788524627685546875">
        <ele>-79.59999847412109375</ele>
        <time>2025-09-05T14:33:45.000Z</time>
        <extensions>
          <ns3:TrackPointExtension>
            <ns3:hr>168</ns3:hr>
            <ns3:cad>55</ns3:cad>
          </ns3:TrackPointExtension>
        </extensions>
      </trkpt>
      <trkpt lat="52.08881313912570476531982421875" lon="1.37490444816648960113525390625">
        <ele>-80</ele>
        <time>2025-09-05T14:33:47.000Z</time>
        <extensions>
          <ns3:TrackPointExtension>
            <ns3:hr>169</ns3:hr>
            <ns3:cad>56</ns3:cad>
          </ns3:TrackPointExtension>
        </extensions>
      </trkpt>
      <trkpt lat="52.0887882448732852935791015625" lon="1.37486471794545650482177734375">
        <ele>-80.59999847412109375</ele>
        <time>2025-09-05T14:33:49.000Z</time>
        <extensions>
          <ns3:TrackPointExtension>
            <ns3:hr>170</ns3:hr>
            <ns3:cad>58</ns3:cad>
          </ns3:TrackPointExtension>
        </extensions>
      </trkpt>
      <trkpt lat="52.08877458237111568450927734375" lon="1.37484728358685970306396484375">
        <ele>-81</ele>
        <time>2025-09-05T14:33:50.000Z</time>
        <extensions>
          <ns3:TrackPointExtension>
            <ns3:hr>169</ns3:hr>
            <ns3:cad>58</ns3:cad>
          </ns3:TrackPointExtension>
        </extensions>
      </trkpt>
      <trkpt lat="52.088733427226543426513671875" lon="1.3748062960803508758544921875">
        <ele>-81.8000030517578125</ele>
        <time>2025-09-05T14:33:53.000Z</time>
        <extensions>
          <ns3:TrackPointExtension>
            <ns3:hr>170</ns3:hr>
            <ns3:cad>58</ns3:cad>
          </ns3:TrackPointExtension>
        </extensions>
      </trkpt>
      <trkpt lat="52.08869428373873233795166015625" lon="1.37478207238018512725830078125">
        <ele>-82.59999847412109375</ele>
        <time>2025-09-05T14:33:56.000Z</time>
        <extensions>
          <ns3:TrackPointExtension>
            <ns3:hr>169</ns3:hr>
            <ns3:cad>58</ns3:cad>
          </ns3:TrackPointExtension>
        </extensions>
      </trkpt>
      <trkpt lat="52.08867819048464298248291015625" lon="1.374773941934108734130859375">
        <ele>-83</ele>
        <time>2025-09-05T14:33:57.000Z</time>
        <extensions>
          <ns3:TrackPointExtension>
            <ns3:hr>169</ns3:hr>
            <ns3:cad>58</ns3:cad>
          </ns3:TrackPointExtension>
        </extensions>
      </trkpt>
      <trkpt lat="52.08861314691603183746337890625" lon="1.37474888004362583160400390625">
        <ele>-84.1999969482421875</ele>
        <time>2025-09-05T14:34:01.000Z</time>
        <extensions>
          <ns3:TrackPointExtension>
            <ns3:hr>166</ns3:hr>
            <ns3:cad>58</ns3:cad>
          </ns3:TrackPointExtension>
        </extensions>
      </trkpt>
      <trkpt lat="52.0885595865547657012939453125" lon="1.3747353851795196533203125">
        <ele>-85.1999969482421875</ele>
        <time>2025-09-05T14:34:04.000Z</time>
        <extensions>
          <ns3:TrackPointExtension>
            <ns3:hr>165</ns3:hr>
            <ns3:cad>58</ns3:cad>
          </ns3:TrackPointExtension>
        </extensions>
      </trkpt>
      <trkpt lat="52.08854089491069316864013671875" lon="1.37472876347601413726806640625">
        <ele>-85.40000152587890625</ele>
        <time>2025-09-05T14:34:05.000Z</time>
        <extensions>
          <ns3:TrackPointExtension>
            <ns3:hr>165</ns3:hr>
            <ns3:cad>58</ns3:cad>
          </ns3:TrackPointExtension>
        </extensions>
      </trkpt>
      <trkpt lat="52.08849965594708919525146484375" lon="1.37470629997551441192626953125">
        <ele>-86.40000152587890625</ele>
        <time>2025-09-05T14:34:08.000Z</time>
        <extensions>
          <ns3:TrackPointExtension>
            <ns3:hr>168</ns3:hr>
            <ns3:cad>60</ns3:cad>
          </ns3:TrackPointExtension>
        </extensions>
      </trkpt>
      <trkpt lat="52.08848540671169757843017578125" lon="1.374701522290706634521484375">
        <ele>-86.59999847412109375</ele>
        <time>2025-09-05T14:34:09.000Z</time>
        <extensions>
          <ns3:TrackPointExtension>
            <ns3:hr>169</ns3:hr>
            <ns3:cad>60</ns3:cad>
          </ns3:TrackPointExtension>
        </extensions>
      </trkpt>
      <trkpt lat="52.08845238201320171356201171875" lon="1.3747020252048969268798828125">
        <ele>-87</ele>
        <time>2025-09-05T14:34:11.000Z</time>
        <extensions>
          <ns3:TrackPointExtension>
            <ns3:hr>167</ns3:hr>
            <ns3:cad>60</ns3:cad>
          </ns3:TrackPointExtension>
        </extensions>
      </trkpt>
      <trkpt lat="52.088374011218547821044921875" lon="1.374667324125766754150390625">
        <ele>-87.59999847412109375</ele>
        <time>2025-09-05T14:34:18.000Z</time>
        <extensions>
          <ns3:TrackPointExtension>
            <ns3:hr>165</ns3:hr>
            <ns3:cad>59</ns3:cad>
          </ns3:TrackPointExtension>
        </extensions>
      </trkpt>
      <trkpt lat="52.08836051635444164276123046875" lon="1.374664641916751861572265625">
        <ele>-87.8000030517578125</ele>
        <time>2025-09-05T14:34:19.000Z</time>
        <extensions>
          <ns3:TrackPointExtension>
            <ns3:hr>164</ns3:hr>
            <ns3:cad>59</ns3:cad>
          </ns3:TrackPointExtension>
        </extensions>
      </trkpt>
      <trkpt lat="52.0883463509380817413330078125" lon="1.3746607862412929534912109375">
        <ele>-87.8000030517578125</ele>
        <time>2025-09-05T14:34:20.000Z</time>
        <extensions>
          <ns3:TrackPointExtension>
            <ns3:hr>159</ns3:hr>
            <ns3:cad>60</ns3:cad>
          </ns3:TrackPointExtension>
        </extensions>
      </trkpt>
      <trkpt lat="52.08830402232706546783447265625" lon="1.37466070242226123809814453125">
        <ele>-88.1999969482421875</ele>
        <time>2025-09-05T14:34:23.000Z</time>
        <extensions>
          <ns3:TrackPointExtension>
            <ns3:hr>156</ns3:hr>
            <ns3:cad>61</ns3:cad>
          </ns3:TrackPointExtension>
        </extensions>
      </trkpt>
      <trkpt lat="52.08826898597180843353271484375" lon="1.37464695610105991363525390625">
        <ele>-88.8000030517578125</ele>
        <time>2025-09-05T14:34:26.000Z</time>
        <extensions>
          <ns3:TrackPointExtension>
            <ns3:hr>155</ns3:hr>
            <ns3:cad>60</ns3:cad>
          </ns3:TrackPointExtension>
        </extensions>
      </trkpt>
      <trkpt lat="52.08825574256479740142822265625" lon="1.3746415078639984130859375">
        <ele>-88.8000030517578125</ele>
        <time>2025-09-05T14:34:27.000Z</time>
        <extensions>
          <ns3:TrackPointExtension>
            <ns3:hr>155</ns3:hr>
            <ns3:cad>59</ns3:cad>
          </ns3:TrackPointExtension>
        </extensions>
      </trkpt>
      <trkpt lat="52.08819002844393253326416015625" lon="1.37460337020456790924072265625">
        <ele>-89.8000030517578125</ele>
        <time>2025-09-05T14:34:32.000Z</time>
        <extensions>
          <ns3:TrackPointExtension>
            <ns3:hr>154</ns3:hr>
            <ns3:cad>60</ns3:cad>
          </ns3:TrackPointExtension>
        </extensions>
      </trkpt>
      <trkpt lat="52.08814828656613826751708984375" lon="1.37457101605832576751708984375">
        <ele>-90.40000152587890625</ele>
        <time>2025-09-05T14:34:35.000Z</time>
        <extensions>
          <ns3:TrackPointExtension>
            <ns3:hr>154</ns3:hr>
            <ns3:cad>60</ns3:cad>
          </ns3:TrackPointExtension>
        </extensions>
      </trkpt>
      <trkpt lat="52.08810587413609027862548828125" lon="1.37455173768103122711181640625">
        <ele>-91</ele>
        <time>2025-09-05T14:34:38.000Z</time>
        <extensions>
          <ns3:TrackPointExtension>
            <ns3:hr>154</ns3:hr>
            <ns3:cad>60</ns3:cad>
          </ns3:TrackPointExtension>
        </extensions>
      </trkpt>
      <trkpt lat="52.0880377292633056640625" lon="1.374500356614589691162109375">
        <ele>-92</ele>
        <time>2025-09-05T14:34:43.000Z</time>
        <extensions>
          <ns3:TrackPointExtension>
            <ns3:hr>155</ns3:hr>
            <ns3:cad>62</ns3:cad>
          </ns3:TrackPointExtension>
        </extensions>
      </trkpt>
      <trkpt lat="52.0879460312426090240478515625" lon="1.37445400469005107879638671875">
        <ele>-93.1999969482421875</ele>
        <time>2025-09-05T14:34:48.000Z</time>
        <extensions>
          <ns3:TrackPointExtension>
            <ns3:hr>156</ns3:hr>
            <ns3:cad>80</ns3:cad>
          </ns3:TrackPointExtension>
        </extensions>
      </trkpt>
      <trkpt lat="52.08792440593242645263671875" lon="1.3744349777698516845703125">
        <ele>-93.59999847412109375</ele>
        <time>2025-09-05T14:34:49.000Z</time>
        <extensions>
          <ns3:TrackPointExtension>
            <ns3:hr>154</ns3:hr>
            <ns3:cad>80</ns3:cad>
          </ns3:TrackPointExtension>
        </extensions>
      </trkpt>
      <trkpt lat="52.08783966489136219024658203125" lon="1.3743774779140949249267578125">
        <ele>-94.59999847412109375</ele>
        <time>2025-09-05T14:34:53.000Z</time>
        <extensions>
          <ns3:TrackPointExtension>
            <ns3:hr>150</ns3:hr>
            <ns3:cad>80</ns3:cad>
          </ns3:TrackPointExtension>
        </extensions>
      </trkpt>
      <trkpt lat="52.087802030146121978759765625" lon="1.3743469677865505218505859375">
        <ele>-95</ele>
        <time>2025-09-05T14:34:55.000Z</time>
        <extensions>
          <ns3:TrackPointExtension>
            <ns3:hr>151</ns3:hr>
            <ns3:cad>80</ns3:cad>
          </ns3:TrackPointExtension>
        </extensions>
      </trkpt>
      <trkpt lat="52.08776825107634067535400390625" lon="1.37430933304131031036376953125">
        <ele>-95.40000152587890625</ele>
        <time>2025-09-05T14:34:57.000Z</time>
        <extensions>
          <ns3:TrackPointExtension>
            <ns3:hr>156</ns3:hr>
            <ns3:cad>81</ns3:cad>
          </ns3:TrackPointExtension>
        </extensions>
      </trkpt>
      <trkpt lat="52.0877509005367755889892578125" lon="1.3742876239120960235595703125">
        <ele>-95.59999847412109375</ele>
        <time>2025-09-05T14:34:58.000Z</time>
        <extensions>
          <ns3:TrackPointExtension>
            <ns3:hr>158</ns3:hr>
            <ns3:cad>81</ns3:cad>
          </ns3:TrackPointExtension>
        </extensions>
      </trkpt>
      <trkpt lat="52.08772047422826290130615234375" lon="1.374246887862682342529296875">
        <ele>-96</ele>
        <time>2025-09-05T14:35:00.000Z</time>
        <extensions>
          <ns3:TrackPointExtension>
            <ns3:hr>162</ns3:hr>
            <ns3:cad>81</ns3:cad>
          </ns3:TrackPointExtension>
        </extensions>
      </trkpt>
      <trkpt lat="52.08770471625030040740966796875" lon="1.3742249272763729095458984375">
        <ele>-96.1999969482421875</ele>
        <time>2025-09-05T14:35:01.000Z</time>
        <extensions>
          <ns3:TrackPointExtension>
            <ns3:hr>162</ns3:hr>
            <ns3:cad>81</ns3:cad>
          </ns3:TrackPointExtension>
        </extensions>
      </trkpt>
      <trkpt lat="52.08764872513711452484130859375" lon="1.37419802136719226837158203125">
        <ele>-96.8000030517578125</ele>
        <time>2025-09-05T14:35:04.000Z</time>
        <extensions>
          <ns3:TrackPointExtension>
            <ns3:hr>163</ns3:hr>
            <ns3:cad>79</ns3:cad>
          </ns3:TrackPointExtension>
        </extensions>
      </trkpt>
      <trkpt lat="52.08759005181491374969482421875" lon="1.3741769827902317047119140625">
        <ele>-97.1999969482421875</ele>
        <time>2025-09-05T14:35:07.000Z</time>
        <extensions>
          <ns3:TrackPointExtension>
            <ns3:hr>162</ns3:hr>
            <ns3:cad>80</ns3:cad>
          </ns3:TrackPointExtension>
        </extensions>
      </trkpt>
      <trkpt lat="52.08751008845865726470947265625" lon="1.37409609742462635040283203125">
        <ele>-97.8000030517578125</ele>
        <time>2025-09-05T14:35:11.000Z</time>
        <extensions>
          <ns3:TrackPointExtension>
            <ns3:hr>163</ns3:hr>
            <ns3:cad>79</ns3:cad>
          </ns3:TrackPointExtension>
        </extensions>
      </trkpt>
      <trkpt lat="52.08741855807602405548095703125" lon="1.37399702332913875579833984375">
        <ele>-98.40000152587890625</ele>
        <time>2025-09-05T14:35:16.000Z</time>
        <extensions>
          <ns3:TrackPointExtension>
            <ns3:hr>162</ns3:hr>
            <ns3:cad>80</ns3:cad>
          </ns3:TrackPointExtension>
        </extensions>
      </trkpt>
      <trkpt lat="52.0873559452593326568603515625" lon="1.3739523477852344512939453125">
        <ele>-98.8000030517578125</ele>
        <time>2025-09-05T14:35:19.000Z</time>
        <extensions>
          <ns3:TrackPointExtension>
            <ns3:hr>165</ns3:hr>
            <ns3:cad>81</ns3:cad>
          </ns3:TrackPointExtension>
        </extensions>
      </trkpt>
      <trkpt lat="52.08733499050140380859375" lon="1.3739419542253017425537109375">
        <ele>-98.8000030517578125</ele>
        <time>2025-09-05T14:35:20.000Z</time>
        <extensions>
          <ns3:TrackPointExtension>
            <ns3:hr>166</ns3:hr>
            <ns3:cad>81</ns3:cad>
          </ns3:TrackPointExtension>
        </extensions>
      </trkpt>
      <trkpt lat="52.08725058473646640777587890625" lon="1.37387062422931194305419921875">
        <ele>-99.1999969482421875</ele>
        <time>2025-09-05T14:35:24.000Z</time>
        <extensions>
          <ns3:TrackPointExtension>
            <ns3:hr>166</ns3:hr>
            <ns3:cad>81</ns3:cad>
          </ns3:TrackPointExtension>
        </extensions>
      </trkpt>
      <trkpt lat="52.08723382093012332916259765625" lon="1.3738504238426685333251953125">
        <ele>-99.40000152587890625</ele>
        <time>2025-09-05T14:35:25.000Z</time>
        <extensions>
          <ns3:TrackPointExtension>
            <ns3:hr>163</ns3:hr>
            <ns3:cad>81</ns3:cad>
          </ns3:TrackPointExtension>
        </extensions>
      </trkpt>
      <trkpt lat="52.087135501205921173095703125" lon="1.37375302612781524658203125">
        <ele>-99.59999847412109375</ele>
        <time>2025-09-05T14:35:30.000Z</time>
        <extensions>
          <ns3:TrackPointExtension>
            <ns3:hr>163</ns3:hr>
            <ns3:cad>81</ns3:cad>
          </ns3:TrackPointExtension>
        </extensions>
      </trkpt>
      <trkpt lat="52.087021172046661376953125" lon="1.373699046671390533447265625">
        <ele>-100</ele>
        <time>2025-09-05T14:35:35.000Z</time>
        <extensions>
          <ns3:TrackPointExtension>
            <ns3:hr>164</ns3:hr>
            <ns3:cad>81</ns3:cad>
          </ns3:TrackPointExtension>
        </extensions>
      </trkpt>
      <trkpt lat="52.087000720202922821044921875" lon="1.37368739582598209381103515625">
        <ele>-100</ele>
        <time>2025-09-05T14:35:36.000Z</time>
        <extensions>
          <ns3:TrackPointExtension>
            <ns3:hr>165</ns3:hr>
            <ns3:cad>81</ns3:cad>
          </ns3:TrackPointExtension>
        </extensions>
      </trkpt>
      <trkpt lat="52.08687038160860538482666015625" lon="1.3736231066286563873291015625">
        <ele>-100.1999969482421875</ele>
        <time>2025-09-05T14:35:43.000Z</time>
        <extensions>
          <ns3:TrackPointExtension>
            <ns3:hr>165</ns3:hr>
            <ns3:cad>81</ns3:cad>
          </ns3:TrackPointExtension>
        </extensions>
      </trkpt>
      <trkpt lat="52.08673342131078243255615234375" lon="1.37350031174719333648681640625">
        <ele>-100.40000152587890625</ele>
        <time>2025-09-05T14:35:51.000Z</time>
        <extensions>
          <ns3:TrackPointExtension>
            <ns3:hr>167</ns3:hr>
            <ns3:cad>81</ns3:cad>
          </ns3:TrackPointExtension>
        </extensions>
      </trkpt>
      <trkpt lat="52.08662210963666439056396484375" lon="1.3734313286840915679931640625">
        <ele>-100.40000152587890625</ele>
        <time>2025-09-05T14:35:57.000Z</time>
        <extensions>
          <ns3:TrackPointExtension>
            <ns3:hr>166</ns3:hr>
            <ns3:cad>81</ns3:cad>
          </ns3:TrackPointExtension>
        </extensions>
      </trkpt>
      <trkpt lat="52.0864584110677242279052734375" lon="1.37336368672549724578857421875">
        <ele>-100.1999969482421875</ele>
        <time>2025-09-05T14:36:05.000Z</time>
        <extensions>
          <ns3:TrackPointExtension>
            <ns3:hr>167</ns3:hr>
            <ns3:cad>81</ns3:cad>
          </ns3:TrackPointExtension>
        </extensions>
      </trkpt>
      <trkpt lat="52.08633678965270519256591796875" lon="1.3733059354126453399658203125">
        <ele>-100.1999969482421875</ele>
        <time>2025-09-05T14:36:11.000Z</time>
        <extensions>
          <ns3:TrackPointExtension>
            <ns3:hr>171</ns3:hr>
            <ns3:cad>81</ns3:cad>
          </ns3:TrackPointExtension>
        </extensions>
      </trkpt>
      <trkpt lat="52.0863172598183155059814453125" lon="1.37328975833952426910400390625">
        <ele>-100.1999969482421875</ele>
        <time>2025-09-05T14:36:12.000Z</time>
        <extensions>
          <ns3:TrackPointExtension>
            <ns3:hr>170</ns3:hr>
            <ns3:cad>81</ns3:cad>
          </ns3:TrackPointExtension>
        </extensions>
      </trkpt>
      <trkpt lat="52.08620670251548290252685546875" lon="1.37318900786340236663818359375">
        <ele>-100.40000152587890625</ele>
        <time>2025-09-05T14:36:18.000Z</time>
        <extensions>
          <ns3:TrackPointExtension>
            <ns3:hr>172</ns3:hr>
            <ns3:cad>81</ns3:cad>
          </ns3:TrackPointExtension>
        </extensions>
      </trkpt>
      <trkpt lat="52.08608918823301792144775390625" lon="1.3730643689632415771484375">
        <ele>-100.40000152587890625</ele>
        <time>2025-09-05T14:36:25.000Z</time>
        <extensions>
          <ns3:TrackPointExtension>
            <ns3:hr>173</ns3:hr>
            <ns3:cad>81</ns3:cad>
          </ns3:TrackPointExtension>
        </extensions>
      </trkpt>
      <trkpt lat="52.085960023105144500732421875" lon="1.37295029126107692718505859375">
        <ele>-100.40000152587890625</ele>
        <time>2025-09-05T14:36:32.000Z</time>
        <extensions>
          <ns3:TrackPointExtension>
            <ns3:hr>172</ns3:hr>
            <ns3:cad>81</ns3:cad>
          </ns3:TrackPointExtension>
        </extensions>
      </trkpt>
      <trkpt lat="52.0858991704881191253662109375" lon="1.3728865049779415130615234375">
        <ele>-100.40000152587890625</ele>
        <time>2025-09-05T14:36:35.000Z</time>
        <extensions>
          <ns3:TrackPointExtension>
            <ns3:hr>175</ns3:hr>
            <ns3:cad>81</ns3:cad>
          </ns3:TrackPointExtension>
        </extensions>
      </trkpt>
      <trkpt lat="52.08581996150314807891845703125" lon="1.372816599905490875244140625">
        <ele>-100.40000152587890625</ele>
        <time>2025-09-05T14:36:39.000Z</time>
        <extensions>
          <ns3:TrackPointExtension>
            <ns3:hr>175</ns3:hr>
            <ns3:cad>81</ns3:cad>
          </ns3:TrackPointExtension>
        </extensions>
      </trkpt>
      <trkpt lat="52.08567109890282154083251953125" lon="1.37268793769180774688720703125">
        <ele>-100.1999969482421875</ele>
        <time>2025-09-05T14:36:47.000Z</time>
        <extensions>
          <ns3:TrackPointExtension>
            <ns3:hr>175</ns3:hr>
            <ns3:cad>81</ns3:cad>
          </ns3:TrackPointExtension>
        </extensions>
      </trkpt>
      <trkpt lat="52.0856063067913055419921875" lon="1.372592635452747344970703125">
        <ele>-100</ele>
        <time>2025-09-05T14:36:54.000Z</time>
        <extensions>
          <ns3:TrackPointExtension>
            <ns3:hr>174</ns3:hr>
            <ns3:cad>56</ns3:cad>
          </ns3:TrackPointExtension>
        </extensions>
      </trkpt>
      <trkpt lat="52.08553992211818695068359375" lon="1.3725297711789608001708984375">
        <ele>-100.1999969482421875</ele>
        <time>2025-09-05T14:37:00.000Z</time>
        <extensions>
          <ns3:TrackPointExtension>
            <ns3:hr>177</ns3:hr>
            <ns3:cad>59</ns3:cad>
          </ns3:TrackPointExtension>
        </extensions>
      </trkpt>
      <trkpt lat="52.08551838062703609466552734375" lon="1.37250688858330249786376953125">
        <ele>-100.40000152587890625</ele>
        <time>2025-09-05T14:37:02.000Z</time>
        <extensions>
          <ns3:TrackPointExtension>
            <ns3:hr>176</ns3:hr>
            <ns3:cad>59</ns3:cad>
          </ns3:TrackPointExtension>
        </extensions>
      </trkpt>
      <trkpt lat="52.08544378168880939483642578125" lon="1.37240915559232234954833984375">
        <ele>-101</ele>
        <time>2025-09-05T14:37:09.000Z</time>
        <extensions>
          <ns3:TrackPointExtension>
            <ns3:hr>175</ns3:hr>
            <ns3:cad>65</ns3:cad>
          </ns3:TrackPointExtension>
        </extensions>
      </trkpt>
      <trkpt lat="52.08540388382971286773681640625" lon="1.3723550923168659210205078125">
        <ele>-101.40000152587890625</ele>
        <time>2025-09-05T14:37:12.000Z</time>
        <extensions>
          <ns3:TrackPointExtension>
            <ns3:hr>169</ns3:hr>
            <ns3:cad>60</ns3:cad>
          </ns3:TrackPointExtension>
        </extensions>
      </trkpt>
      <trkpt lat="52.08535887300968170166015625" lon="1.372282505035400390625">
        <ele>-102</ele>
        <time>2025-09-05T14:37:16.000Z</time>
        <extensions>
          <ns3:TrackPointExtension>
            <ns3:hr>168</ns3:hr>
            <ns3:cad>59</ns3:cad>
          </ns3:TrackPointExtension>
        </extensions>
      </trkpt>
      <trkpt lat="52.08534571342170238494873046875" lon="1.372270099818706512451171875">
        <ele>-102.1999969482421875</ele>
        <time>2025-09-05T14:37:17.000Z</time>
        <extensions>
          <ns3:TrackPointExtension>
            <ns3:hr>168</ns3:hr>
            <ns3:cad>59</ns3:cad>
          </ns3:TrackPointExtension>
        </extensions>
      </trkpt>
      <trkpt lat="52.08530229516327381134033203125" lon="1.3722169585525989532470703125">
        <ele>-103</ele>
        <time>2025-09-05T14:37:21.000Z</time>
        <extensions>
          <ns3:TrackPointExtension>
            <ns3:hr>167</ns3:hr>
            <ns3:cad>59</ns3:cad>
          </ns3:TrackPointExtension>
        </extensions>
      </trkpt>
      <trkpt lat="52.08525250665843486785888671875" lon="1.37217010371387004852294921875">
        <ele>-104</ele>
        <time>2025-09-05T14:37:25.000Z</time>
        <extensions>
          <ns3:TrackPointExtension>
            <ns3:hr>166</ns3:hr>
            <ns3:cad>0</ns3:cad>
          </ns3:TrackPointExtension>
        </extensions>
      </trkpt>
      <trkpt lat="52.08524110727012157440185546875" lon="1.37216038070619106292724609375">
        <ele>-104.1999969482421875</ele>
        <time>2025-09-05T14:37:26.000Z</time>
        <extensions>
          <ns3:TrackPointExtension>
            <ns3:hr>164</ns3:hr>
            <ns3:cad>0</ns3:cad>
          </ns3:TrackPointExtension>
        </extensions>
      </trkpt>
      <trkpt lat="52.08517891354858875274658203125" lon="1.372119225561618804931640625">
        <ele>-105.40000152587890625</ele>
        <time>2025-09-05T14:37:31.000Z</time>
        <extensions>
          <ns3:TrackPointExtension>
            <ns3:hr>163</ns3:hr>
            <ns3:cad>58</ns3:cad>
          </ns3:TrackPointExtension>
        </extensions>
      </trkpt>
      <trkpt lat="52.08515309728682041168212890625" lon="1.3720929063856601715087890625">
        <ele>-105.8000030517578125</ele>
        <time>2025-09-05T14:37:33.000Z</time>
        <extensions>
          <ns3:TrackPointExtension>
            <ns3:hr>160</ns3:hr>
            <ns3:cad>60</ns3:cad>
          </ns3:TrackPointExtension>
        </extensions>
      </trkpt>
      <trkpt lat="52.08514069207012653350830078125" lon="1.37207823805510997772216796875">
        <ele>-106</ele>
        <time>2025-09-05T14:37:34.000Z</time>
        <extensions>
          <ns3:TrackPointExtension>
            <ns3:hr>159</ns3:hr>
            <ns3:cad>60</ns3:cad>
          </ns3:TrackPointExtension>
        </extensions>
      </trkpt>
      <trkpt lat="52.08511789329349994659423828125" lon="1.37205510400235652923583984375">
        <ele>-106.59999847412109375</ele>
        <time>2025-09-05T14:37:36.000Z</time>
        <extensions>
          <ns3:TrackPointExtension>
            <ns3:hr>157</ns3:hr>
            <ns3:cad>60</ns3:cad>
          </ns3:TrackPointExtension>
        </extensions>
      </trkpt>
      <trkpt lat="52.08508000709116458892822265625" lon="1.37203230522572994232177734375">
        <ele>-107.59999847412109375</ele>
        <time>2025-09-05T14:37:40.000Z</time>
        <extensions>
          <ns3:TrackPointExtension>
            <ns3:hr>154</ns3:hr>
            <ns3:cad>0</ns3:cad>
          </ns3:TrackPointExtension>
        </extensions>
      </trkpt>
      <trkpt lat="52.08507346920669078826904296875" lon="1.372029371559619903564453125">
        <ele>-107.8000030517578125</ele>
        <time>2025-09-05T14:37:41.000Z</time>
        <extensions>
          <ns3:TrackPointExtension>
            <ns3:hr>153</ns3:hr>
            <ns3:cad>0</ns3:cad>
          </ns3:TrackPointExtension>
        </extensions>
      </trkpt>
      <trkpt lat="52.08507363684475421905517578125" lon="1.37202744372189044952392578125">
        <ele>-108</ele>
        <time>2025-09-05T14:37:42.000Z</time>
        <extensions>
          <ns3:TrackPointExtension>
            <ns3:hr>152</ns3:hr>
            <ns3:cad>0</ns3:cad>
          </ns3:TrackPointExtension>
        </extensions>
      </trkpt>
      <trkpt lat="52.0850639976561069488525390625" lon="1.37200632132589817047119140625">
        <ele>-109</ele>
        <time>2025-09-05T14:37:46.000Z</time>
        <extensions>
          <ns3:TrackPointExtension>
            <ns3:hr>149</ns3:hr>
            <ns3:cad>0</ns3:cad>
          </ns3:TrackPointExtension>
        </extensions>
      </trkpt>
      <trkpt lat="52.08504145033657550811767578125" lon="1.37198268435895442962646484375">
        <ele>-109.40000152587890625</ele>
        <time>2025-09-05T14:37:48.000Z</time>
        <extensions>
          <ns3:TrackPointExtension>
            <ns3:hr>148</ns3:hr>
            <ns3:cad>0</ns3:cad>
          </ns3:TrackPointExtension>
        </extensions>
      </trkpt>
      <trkpt lat="52.0850043185055255889892578125" lon="1.37193323113024234771728515625">
        <ele>-110</ele>
        <time>2025-09-05T14:37:51.000Z</time>
        <extensions>
          <ns3:TrackPointExtension>
            <ns3:hr>148</ns3:hr>
            <ns3:cad>57</ns3:cad>
          </ns3:TrackPointExtension>
        </extensions>
      </trkpt>
      <trkpt lat="52.08496048115193843841552734375" lon="1.371846310794353485107421875">
        <ele>-110.1999969482421875</ele>
        <time>2025-09-05T14:37:54.000Z</time>
        <extensions>
          <ns3:TrackPointExtension>
            <ns3:hr>147</ns3:hr>
            <ns3:cad>57</ns3:cad>
          </ns3:TrackPointExtension>
        </extensions>
      </trkpt>
      <trkpt lat="52.084922008216381072998046875" lon="1.3717418722808361053466796875">
        <ele>-110.40000152587890625</ele>
        <time>2025-09-05T14:37:57.000Z</time>
        <extensions>
          <ns3:TrackPointExtension>
            <ns3:hr>150</ns3:hr>
            <ns3:cad>77</ns3:cad>
          </ns3:TrackPointExtension>
        </extensions>
      </trkpt>
      <trkpt lat="52.0848943479359149932861328125" lon="1.3716808520257472991943359375">
        <ele>-110.40000152587890625</ele>
        <time>2025-09-05T14:37:59.000Z</time>
        <extensions>
          <ns3:TrackPointExtension>
            <ns3:hr>153</ns3:hr>
            <ns3:cad>78</ns3:cad>
          </ns3:TrackPointExtension>
        </extensions>
      </trkpt>
      <trkpt lat="52.0848767459392547607421875" lon="1.37165629304945468902587890625">
        <ele>-110.40000152587890625</ele>
        <time>2025-09-05T14:38:00.000Z</time>
        <extensions>
          <ns3:TrackPointExtension>
            <ns3:hr>154</ns3:hr>
            <ns3:cad>79</ns3:cad>
          </ns3:TrackPointExtension>
        </extensions>
      </trkpt>
      <trkpt lat="52.08484447561204433441162109375" lon="1.3715923391282558441162109375">
        <ele>-110.40000152587890625</ele>
        <time>2025-09-05T14:38:02.000Z</time>
        <extensions>
          <ns3:TrackPointExtension>
            <ns3:hr>158</ns3:hr>
            <ns3:cad>79</ns3:cad>
          </ns3:TrackPointExtension>
        </extensions>
      </trkpt>
      <trkpt lat="52.08480365574359893798828125" lon="1.37150089256465435028076171875">
        <ele>-110.1999969482421875</ele>
        <time>2025-09-05T14:38:05.000Z</time>
        <extensions>
          <ns3:TrackPointExtension>
            <ns3:hr>161</ns3:hr>
            <ns3:cad>81</ns3:cad>
          </ns3:TrackPointExtension>
        </extensions>
      </trkpt>
      <trkpt lat="52.08479301072657108306884765625" lon="1.37147205881774425506591796875">
        <ele>-110.1999969482421875</ele>
        <time>2025-09-05T14:38:06.000Z</time>
        <extensions>
          <ns3:TrackPointExtension>
            <ns3:hr>162</ns3:hr>
            <ns3:cad>81</ns3:cad>
          </ns3:TrackPointExtension>
        </extensions>
      </trkpt>
      <trkpt lat="52.08476216532289981842041015625" lon="1.3713911734521389007568359375">
        <ele>-109.59999847412109375</ele>
        <time>2025-09-05T14:38:09.000Z</time>
        <extensions>
          <ns3:TrackPointExtension>
            <ns3:hr>165</ns3:hr>
            <ns3:cad>82</ns3:cad>
          </ns3:TrackPointExtension>
        </extensions>
      </trkpt>
      <trkpt lat="52.08471271209418773651123046875" lon="1.37131758034229278564453125">
        <ele>-109</ele>
        <time>2025-09-05T14:38:12.000Z</time>
        <extensions>
          <ns3:TrackPointExtension>
            <ns3:hr>166</ns3:hr>
            <ns3:cad>81</ns3:cad>
          </ns3:TrackPointExtension>
        </extensions>
      </trkpt>
      <trkpt lat="52.08464012481272220611572265625" lon="1.37122881598770618438720703125">
        <ele>-108</ele>
        <time>2025-09-05T14:38:16.000Z</time>
        <extensions>
          <ns3:TrackPointExtension>
            <ns3:hr>168</ns3:hr>
            <ns3:cad>81</ns3:cad>
          </ns3:TrackPointExtension>
        </extensions>
      </trkpt>
      <trkpt lat="52.0845684595406055450439453125" lon="1.371122114360332489013671875">
        <ele>-107</ele>
        <time>2025-09-05T14:38:20.000Z</time>
        <extensions>
          <ns3:TrackPointExtension>
            <ns3:hr>169</ns3:hr>
            <ns3:cad>79</ns3:cad>
          </ns3:TrackPointExtension>
        </extensions>
      </trkpt>
      <trkpt lat="52.08449310623109340667724609375" lon="1.3710206933319568634033203125">
        <ele>-105.59999847412109375</ele>
        <time>2025-09-05T14:38:25.000Z</time>
        <extensions>
          <ns3:TrackPointExtension>
            <ns3:hr>169</ns3:hr>
            <ns3:cad>80</ns3:cad>
          </ns3:TrackPointExtension>
        </extensions>
      </trkpt>
      <trkpt lat="52.0844470895826816558837890625" lon="1.3709502853453159332275390625">
        <ele>-104.8000030517578125</ele>
        <time>2025-09-05T14:38:29.000Z</time>
        <extensions>
          <ns3:TrackPointExtension>
            <ns3:hr>169</ns3:hr>
            <ns3:cad>78</ns3:cad>
          </ns3:TrackPointExtension>
        </extensions>
      </trkpt>
      <trkpt lat="52.08443409763276576995849609375" lon="1.370933018624782562255859375">
        <ele>-104.59999847412109375</ele>
        <time>2025-09-05T14:38:30.000Z</time>
        <extensions>
          <ns3:TrackPointExtension>
            <ns3:hr>168</ns3:hr>
            <ns3:cad>80</ns3:cad>
          </ns3:TrackPointExtension>
        </extensions>
      </trkpt>
      <trkpt lat="52.084419764578342437744140625" lon="1.370916925370693206787109375">
        <ele>-104.40000152587890625</ele>
        <time>2025-09-05T14:38:31.000Z</time>
        <extensions>
          <ns3:TrackPointExtension>
            <ns3:hr>171</ns3:hr>
            <ns3:cad>80</ns3:cad>
          </ns3:TrackPointExtension>
        </extensions>
      </trkpt>
      <trkpt lat="52.08431021310389041900634765625" lon="1.37080527842044830322265625">
        <ele>-103.59999847412109375</ele>
        <time>2025-09-05T14:38:37.000Z</time>
        <extensions>
          <ns3:TrackPointExtension>
            <ns3:hr>170</ns3:hr>
            <ns3:cad>79</ns3:cad>
          </ns3:TrackPointExtension>
        </extensions>
      </trkpt>
      <trkpt lat="52.084187753498554229736328125" lon="1.37067175470292568206787109375">
        <ele>-102.59999847412109375</ele>
        <time>2025-09-05T14:38:44.000Z</time>
        <extensions>
          <ns3:TrackPointExtension>
            <ns3:hr>171</ns3:hr>
            <ns3:cad>79</ns3:cad>
          </ns3:TrackPointExtension>
        </extensions>
      </trkpt>
      <trkpt lat="52.0841289125382900238037109375" lon="1.37061576358973979949951171875">
        <ele>-102.40000152587890625</ele>
        <time>2025-09-05T14:38:47.000Z</time>
        <extensions>
          <ns3:TrackPointExtension>
            <ns3:hr>171</ns3:hr>
            <ns3:cad>79</ns3:cad>
          </ns3:TrackPointExtension>
        </extensions>
      </trkpt>
      <trkpt lat="52.0840908586978912353515625" lon="1.37053999118506908416748046875">
        <ele>-102.1999969482421875</ele>
        <time>2025-09-05T14:38:50.000Z</time>
        <extensions>
          <ns3:TrackPointExtension>
            <ns3:hr>172</ns3:hr>
            <ns3:cad>80</ns3:cad>
          </ns3:TrackPointExtension>
        </extensions>
      </trkpt>
      <trkpt lat="52.08396689034998416900634765625" lon="1.37041778303682804107666015625">
        <ele>-102</ele>
        <time>2025-09-05T14:38:57.000Z</time>
        <extensions>
          <ns3:TrackPointExtension>
            <ns3:hr>172</ns3:hr>
            <ns3:cad>78</ns3:cad>
          </ns3:TrackPointExtension>
        </extensions>
      </trkpt>
      <trkpt lat="52.08390218205749988555908203125" lon="1.3703367300331592559814453125">
        <ele>-101.8000030517578125</ele>
        <time>2025-09-05T14:39:02.000Z</time>
        <extensions>
          <ns3:TrackPointExtension>
            <ns3:hr>171</ns3:hr>
            <ns3:cad>80</ns3:cad>
          </ns3:TrackPointExtension>
        </extensions>
      </trkpt>
      <trkpt lat="52.08377234637737274169921875" lon="1.37019113637506961822509765625">
        <ele>-101.59999847412109375</ele>
        <time>2025-09-05T14:39:09.000Z</time>
        <extensions>
          <ns3:TrackPointExtension>
            <ns3:hr>172</ns3:hr>
            <ns3:cad>79</ns3:cad>
          </ns3:TrackPointExtension>
        </extensions>
      </trkpt>
      <trkpt lat="52.08372599445283412933349609375" lon="1.37013397179543972015380859375">
        <ele>-101.40000152587890625</ele>
        <time>2025-09-05T14:39:12.000Z</time>
        <extensions>
          <ns3:TrackPointExtension>
            <ns3:hr>169</ns3:hr>
            <ns3:cad>80</ns3:cad>
          </ns3:TrackPointExtension>
        </extensions>
      </trkpt>
      <trkpt lat="52.0837098173797130584716796875" lon="1.37012843973934650421142578125">
        <ele>-101.40000152587890625</ele>
        <time>2025-09-05T14:39:13.000Z</time>
        <extensions>
          <ns3:TrackPointExtension>
            <ns3:hr>170</ns3:hr>
            <ns3:cad>79</ns3:cad>
          </ns3:TrackPointExtension>
        </extensions>
      </trkpt>
      <trkpt lat="52.08367687650024890899658203125" lon="1.3701120950281620025634765625">
        <ele>-101.40000152587890625</ele>
        <time>2025-09-05T14:39:15.000Z</time>
        <extensions>
          <ns3:TrackPointExtension>
            <ns3:hr>168</ns3:hr>
            <ns3:cad>79</ns3:cad>
          </ns3:TrackPointExtension>
        </extensions>
      </trkpt>
      <trkpt lat="52.08358802832663059234619140625" lon="1.36998795904219150543212890625">
        <ele>-101.1999969482421875</ele>
        <time>2025-09-05T14:39:21.000Z</time>
        <extensions>
          <ns3:TrackPointExtension>
            <ns3:hr>165</ns3:hr>
            <ns3:cad>81</ns3:cad>
          </ns3:TrackPointExtension>
        </extensions>
      </trkpt>
      <trkpt lat="52.08349934779107570648193359375" lon="1.3698564469814300537109375">
        <ele>-101.40000152587890625</ele>
        <time>2025-09-05T14:39:27.000Z</time>
        <extensions>
          <ns3:TrackPointExtension>
            <ns3:hr>168</ns3:hr>
            <ns3:cad>81</ns3:cad>
          </ns3:TrackPointExtension>
        </extensions>
      </trkpt>
      <trkpt lat="52.08346925675868988037109375" lon="1.36980808340013027191162109375">
        <ele>-101.40000152587890625</ele>
        <time>2025-09-05T14:39:29.000Z</time>
        <extensions>
          <ns3:TrackPointExtension>
            <ns3:hr>169</ns3:hr>
            <ns3:cad>81</ns3:cad>
          </ns3:TrackPointExtension>
        </extensions>
      </trkpt>
      <trkpt lat="52.08343162201344966888427734375" lon="1.3697446323931217193603515625">
        <ele>-101.59999847412109375</ele>
        <time>2025-09-05T14:39:32.000Z</time>
        <extensions>
          <ns3:TrackPointExtension>
            <ns3:hr>172</ns3:hr>
            <ns3:cad>81</ns3:cad>
          </ns3:TrackPointExtension>
        </extensions>
      </trkpt>
      <trkpt lat="52.0833881199359893798828125" lon="1.3696782477200031280517578125">
        <ele>-101.8000030517578125</ele>
        <time>2025-09-05T14:39:35.000Z</time>
        <extensions>
          <ns3:TrackPointExtension>
            <ns3:hr>176</ns3:hr>
            <ns3:cad>80</ns3:cad>
          </ns3:TrackPointExtension>
        </extensions>
      </trkpt>
      <trkpt lat="52.08327052183449268341064453125" lon="1.36953550390899181365966796875">
        <ele>-102.1999969482421875</ele>
        <time>2025-09-05T14:39:42.000Z</time>
        <extensions>
          <ns3:TrackPointExtension>
            <ns3:hr>177</ns3:hr>
            <ns3:cad>80</ns3:cad>
          </ns3:TrackPointExtension>
        </extensions>
      </trkpt>
      <trkpt lat="52.08322391845285892486572265625" lon="1.36947356164455413818359375">
        <ele>-102.40000152587890625</ele>
        <time>2025-09-05T14:39:45.000Z</time>
        <extensions>
          <ns3:TrackPointExtension>
            <ns3:hr>177</ns3:hr>
            <ns3:cad>79</ns3:cad>
          </ns3:TrackPointExtension>
        </extensions>
      </trkpt>
      <trkpt lat="52.08313875831663608551025390625" lon="1.3693875633180141448974609375">
        <ele>-102.8000030517578125</ele>
        <time>2025-09-05T14:39:50.000Z</time>
        <extensions>
          <ns3:TrackPointExtension>
            <ns3:hr>177</ns3:hr>
            <ns3:cad>80</ns3:cad>
          </ns3:TrackPointExtension>
        </extensions>
      </trkpt>
      <trkpt lat="52.083097435534000396728515625" lon="1.36930885724723339080810546875">
        <ele>-103.1999969482421875</ele>
        <time>2025-09-05T14:39:53.000Z</time>
        <extensions>
          <ns3:TrackPointExtension>
            <ns3:hr>180</ns3:hr>
            <ns3:cad>81</ns3:cad>
          </ns3:TrackPointExtension>
        </extensions>
      </trkpt>
      <trkpt lat="52.083032391965389251708984375" lon="1.3692219369113445281982421875">
        <ele>-103.59999847412109375</ele>
        <time>2025-09-05T14:39:57.000Z</time>
        <extensions>
          <ns3:TrackPointExtension>
            <ns3:hr>183</ns3:hr>
            <ns3:cad>80</ns3:cad>
          </ns3:TrackPointExtension>
        </extensions>
      </trkpt>
      <trkpt lat="52.083015628159046173095703125" lon="1.36920575983822345733642578125">
        <ele>-103.59999847412109375</ele>
        <time>2025-09-05T14:39:58.000Z</time>
        <extensions>
          <ns3:TrackPointExtension>
            <ns3:hr>183</ns3:hr>
            <ns3:cad>80</ns3:cad>
          </ns3:TrackPointExtension>
        </extensions>
      </trkpt>
      <trkpt lat="52.0829256065189838409423828125" lon="1.369061172008514404296875">
        <ele>-104.1999969482421875</ele>
        <time>2025-09-05T14:40:04.000Z</time>
        <extensions>
          <ns3:TrackPointExtension>
            <ns3:hr>183</ns3:hr>
            <ns3:cad>81</ns3:cad>
          </ns3:TrackPointExtension>
        </extensions>
      </trkpt>
      <trkpt lat="52.08288855850696563720703125" lon="1.3689983077347278594970703125">
        <ele>-104.59999847412109375</ele>
        <time>2025-09-05T14:40:07.000Z</time>
        <extensions>
          <ns3:TrackPointExtension>
            <ns3:hr>181</ns3:hr>
            <ns3:cad>81</ns3:cad>
          </ns3:TrackPointExtension>
        </extensions>
      </trkpt>
      <trkpt lat="52.08281588740646839141845703125" lon="1.36889764107763767242431640625">
        <ele>-105.1999969482421875</ele>
        <time>2025-09-05T14:40:12.000Z</time>
        <extensions>
          <ns3:TrackPointExtension>
            <ns3:hr>180</ns3:hr>
            <ns3:cad>80</ns3:cad>
          </ns3:TrackPointExtension>
        </extensions>
      </trkpt>
      <trkpt lat="52.08275486715137958526611328125" lon="1.36880460195243358612060546875">
        <ele>-105.59999847412109375</ele>
        <time>2025-09-05T14:40:16.000Z</time>
        <extensions>
          <ns3:TrackPointExtension>
            <ns3:hr>179</ns3:hr>
            <ns3:cad>78</ns3:cad>
          </ns3:TrackPointExtension>
        </extensions>
      </trkpt>
      <trkpt lat="52.08269334398210048675537109375" lon="1.368733607232570648193359375">
        <ele>-106.40000152587890625</ele>
        <time>2025-09-05T14:40:20.000Z</time>
        <extensions>
          <ns3:TrackPointExtension>
            <ns3:hr>179</ns3:hr>
            <ns3:cad>79</ns3:cad>
          </ns3:TrackPointExtension>
        </extensions>
      </trkpt>
      <trkpt lat="52.0826473273336887359619140625" lon="1.3686891831457614898681640625">
        <ele>-106.8000030517578125</ele>
        <time>2025-09-05T14:40:23.000Z</time>
        <extensions>
          <ns3:TrackPointExtension>
            <ns3:hr>179</ns3:hr>
            <ns3:cad>79</ns3:cad>
          </ns3:TrackPointExtension>
        </extensions>
      </trkpt>
      <trkpt lat="52.0825910009443759918212890625" lon="1.368632018566131591796875">
        <ele>-107.59999847412109375</ele>
        <time>2025-09-05T14:40:27.000Z</time>
        <extensions>
          <ns3:TrackPointExtension>
            <ns3:hr>178</ns3:hr>
            <ns3:cad>78</ns3:cad>
          </ns3:TrackPointExtension>
        </extensions>
      </trkpt>
      <trkpt lat="52.0825754106044769287109375" lon="1.36860645376145839691162109375">
        <ele>-108</ele>
        <time>2025-09-05T14:40:29.000Z</time>
        <extensions>
          <ns3:TrackPointExtension>
            <ns3:hr>178</ns3:hr>
            <ns3:cad>0</ns3:cad>
          </ns3:TrackPointExtension>
        </extensions>
      </trkpt>
      <trkpt lat="52.08253006450831890106201171875" lon="1.368567980825901031494140625">
        <ele>-109</ele>
        <time>2025-09-05T14:40:34.000Z</time>
        <extensions>
          <ns3:TrackPointExtension>
            <ns3:hr>178</ns3:hr>
            <ns3:cad>0</ns3:cad>
          </ns3:TrackPointExtension>
        </extensions>
      </trkpt>
      <trkpt lat="52.08252252079546451568603515625" lon="1.36856387369334697723388671875">
        <ele>-109.1999969482421875</ele>
        <time>2025-09-05T14:40:35.000Z</time>
        <extensions>
          <ns3:TrackPointExtension>
            <ns3:hr>178</ns3:hr>
            <ns3:cad>0</ns3:cad>
          </ns3:TrackPointExtension>
        </extensions>
      </trkpt>
      <trkpt lat="52.0824625901877880096435546875" lon="1.3685046136379241943359375">
        <ele>-110.1999969482421875</ele>
        <time>2025-09-05T14:40:40.000Z</time>
        <extensions>
          <ns3:TrackPointExtension>
            <ns3:hr>175</ns3:hr>
            <ns3:cad>58</ns3:cad>
          </ns3:TrackPointExtension>
        </extensions>
      </trkpt>
      <trkpt lat="52.0824505202472209930419921875" lon="1.368492543697357177734375">
        <ele>-110.40000152587890625</ele>
        <time>2025-09-05T14:40:41.000Z</time>
        <extensions>
          <ns3:TrackPointExtension>
            <ns3:hr>174</ns3:hr>
            <ns3:cad>58</ns3:cad>
          </ns3:TrackPointExtension>
        </extensions>
      </trkpt>
      <trkpt lat="52.08239528350532054901123046875" lon="1.36842573992908000946044921875">
        <ele>-111.40000152587890625</ele>
        <time>2025-09-05T14:40:46.000Z</time>
        <extensions>
          <ns3:TrackPointExtension>
            <ns3:hr>178</ns3:hr>
            <ns3:cad>57</ns3:cad>
          </ns3:TrackPointExtension>
        </extensions>
      </trkpt>
      <trkpt lat="52.082388661801815032958984375" lon="1.3684129156172275543212890625">
        <ele>-111.59999847412109375</ele>
        <time>2025-09-05T14:40:47.000Z</time>
        <extensions>
          <ns3:TrackPointExtension>
            <ns3:hr>179</ns3:hr>
            <ns3:cad>57</ns3:cad>
          </ns3:TrackPointExtension>
        </extensions>
      </trkpt>
      <trkpt lat="52.08236695267260074615478515625" lon="1.36839942075312137603759765625">
        <ele>-112</ele>
        <time>2025-09-05T14:40:49.000Z</time>
        <extensions>
          <ns3:TrackPointExtension>
            <ns3:hr>179</ns3:hr>
            <ns3:cad>58</ns3:cad>
          </ns3:TrackPointExtension>
        </extensions>
      </trkpt>
      <trkpt lat="52.0823499374091625213623046875" lon="1.36838014237582683563232421875">
        <ele>-112.40000152587890625</ele>
        <time>2025-09-05T14:40:51.000Z</time>
        <extensions>
          <ns3:TrackPointExtension>
            <ns3:hr>175</ns3:hr>
            <ns3:cad>58</ns3:cad>
          </ns3:TrackPointExtension>
        </extensions>
      </trkpt>
      <trkpt lat="52.0823405496776103973388671875" lon="1.36837041936814785003662109375">
        <ele>-112.59999847412109375</ele>
        <time>2025-09-05T14:40:52.000Z</time>
        <extensions>
          <ns3:TrackPointExtension>
            <ns3:hr>176</ns3:hr>
            <ns3:cad>58</ns3:cad>
          </ns3:TrackPointExtension>
        </extensions>
      </trkpt>
      <trkpt lat="52.082310877740383148193359375" lon="1.36833135969936847686767578125">
        <ele>-113.8000030517578125</ele>
        <time>2025-09-05T14:40:56.000Z</time>
        <extensions>
          <ns3:TrackPointExtension>
            <ns3:hr>175</ns3:hr>
            <ns3:cad>60</ns3:cad>
          </ns3:TrackPointExtension>
        </extensions>
      </trkpt>
      <trkpt lat="52.08230316638946533203125" lon="1.36832264252007007598876953125">
        <ele>-114</ele>
        <time>2025-09-05T14:40:57.000Z</time>
        <extensions>
          <ns3:TrackPointExtension>
            <ns3:hr>175</ns3:hr>
            <ns3:cad>60</ns3:cad>
          </ns3:TrackPointExtension>
        </extensions>
      </trkpt>
      <trkpt lat="52.08227039314806461334228515625" lon="1.36829095892608165740966796875">
        <ele>-115</ele>
        <time>2025-09-05T14:41:00.000Z</time>
        <extensions>
          <ns3:TrackPointExtension>
            <ns3:hr>175</ns3:hr>
            <ns3:cad>59</ns3:cad>
          </ns3:TrackPointExtension>
        </extensions>
      </trkpt>
      <trkpt lat="52.082225717604160308837890625" lon="1.36826388537883758544921875">
        <ele>-116</ele>
        <time>2025-09-05T14:41:04.000Z</time>
        <extensions>
          <ns3:TrackPointExtension>
            <ns3:hr>174</ns3:hr>
            <ns3:cad>59</ns3:cad>
          </ns3:TrackPointExtension>
        </extensions>
      </trkpt>
      <trkpt lat="52.08220132626593112945556640625" lon="1.368246786296367645263671875">
        <ele>-116.59999847412109375</ele>
        <time>2025-09-05T14:41:06.000Z</time>
        <extensions>
          <ns3:TrackPointExtension>
            <ns3:hr>174</ns3:hr>
            <ns3:cad>59</ns3:cad>
          </ns3:TrackPointExtension>
        </extensions>
      </trkpt>
      <trkpt lat="52.082176767289638519287109375" lon="1.3682392425835132598876953125">
        <ele>-117.1999969482421875</ele>
        <time>2025-09-05T14:41:08.000Z</time>
        <extensions>
          <ns3:TrackPointExtension>
            <ns3:hr>174</ns3:hr>
            <ns3:cad>60</ns3:cad>
          </ns3:TrackPointExtension>
        </extensions>
      </trkpt>
      <trkpt lat="52.08215405233204364776611328125" lon="1.3682208023965358734130859375">
        <ele>-117.8000030517578125</ele>
        <time>2025-09-05T14:41:10.000Z</time>
        <extensions>
          <ns3:TrackPointExtension>
            <ns3:hr>171</ns3:hr>
            <ns3:cad>58</ns3:cad>
          </ns3:TrackPointExtension>
        </extensions>
      </trkpt>
      <trkpt lat="52.082133181393146514892578125" lon="1.368207223713397979736328125">
        <ele>-118.59999847412109375</ele>
        <time>2025-09-05T14:41:12.000Z</time>
        <extensions>
          <ns3:TrackPointExtension>
            <ns3:hr>170</ns3:hr>
            <ns3:cad>56</ns3:cad>
          </ns3:TrackPointExtension>
        </extensions>
      </trkpt>
      <trkpt lat="52.082113735377788543701171875" lon="1.36818719096481800079345703125">
        <ele>-119.1999969482421875</ele>
        <time>2025-09-05T14:41:14.000Z</time>
        <extensions>
          <ns3:TrackPointExtension>
            <ns3:hr>167</ns3:hr>
            <ns3:cad>56</ns3:cad>
          </ns3:TrackPointExtension>
        </extensions>
      </trkpt>
      <trkpt lat="52.08210208453238010406494140625" lon="1.36817646212875843048095703125">
        <ele>-119.59999847412109375</ele>
        <time>2025-09-05T14:41:15.000Z</time>
        <extensions>
          <ns3:TrackPointExtension>
            <ns3:hr>167</ns3:hr>
            <ns3:cad>56</ns3:cad>
          </ns3:TrackPointExtension>
        </extensions>
      </trkpt>
      <trkpt lat="52.08207073621451854705810546875" lon="1.368138156831264495849609375">
        <ele>-120.59999847412109375</ele>
        <time>2025-09-05T14:41:18.000Z</time>
        <extensions>
          <ns3:TrackPointExtension>
            <ns3:hr>165</ns3:hr>
            <ns3:cad>56</ns3:cad>
          </ns3:TrackPointExtension>
        </extensions>
      </trkpt>
      <trkpt lat="52.0820398069918155670166015625" lon="1.3680840097367763519287109375">
        <ele>-121.59999847412109375</ele>
        <time>2025-09-05T14:41:21.000Z</time>
        <extensions>
          <ns3:TrackPointExtension>
            <ns3:hr>164</ns3:hr>
            <ns3:cad>58</ns3:cad>
          </ns3:TrackPointExtension>
        </extensions>
      </trkpt>
      <trkpt lat="52.0820228755474090576171875" lon="1.3680568523705005645751953125">
        <ele>-122.1999969482421875</ele>
        <time>2025-09-05T14:41:23.000Z</time>
        <extensions>
          <ns3:TrackPointExtension>
            <ns3:hr>165</ns3:hr>
            <ns3:cad>59</ns3:cad>
          </ns3:TrackPointExtension>
        </extensions>
      </trkpt>
      <trkpt lat="52.08201591856777667999267578125" lon="1.36804318986833095550537109375">
        <ele>-122.59999847412109375</ele>
        <time>2025-09-05T14:41:24.000Z</time>
        <extensions>
          <ns3:TrackPointExtension>
            <ns3:hr>165</ns3:hr>
            <ns3:cad>59</ns3:cad>
          </ns3:TrackPointExtension>
        </extensions>
      </trkpt>
      <trkpt lat="52.08197903819382190704345703125" lon="1.3679851032793521881103515625">
        <ele>-123.8000030517578125</ele>
        <time>2025-09-05T14:41:28.000Z</time>
        <extensions>
          <ns3:TrackPointExtension>
            <ns3:hr>165</ns3:hr>
            <ns3:cad>58</ns3:cad>
          </ns3:TrackPointExtension>
        </extensions>
      </trkpt>
      <trkpt lat="52.08195288665592670440673828125" lon="1.36794461868703365325927734375">
        <ele>-124.8000030517578125</ele>
        <time>2025-09-05T14:41:31.000Z</time>
        <extensions>
          <ns3:TrackPointExtension>
            <ns3:hr>163</ns3:hr>
            <ns3:cad>58</ns3:cad>
          </ns3:TrackPointExtension>
        </extensions>
      </trkpt>
      <trkpt lat="52.0819439180195331573486328125" lon="1.3679371587932109832763671875">
        <ele>-125</ele>
        <time>2025-09-05T14:41:32.000Z</time>
        <extensions>
          <ns3:TrackPointExtension>
            <ns3:hr>163</ns3:hr>
            <ns3:cad>58</ns3:cad>
          </ns3:TrackPointExtension>
        </extensions>
      </trkpt>
      <trkpt lat="52.08190661855041980743408203125" lon="1.36788996867835521697998046875">
        <ele>-126.1999969482421875</ele>
        <time>2025-09-05T14:41:36.000Z</time>
        <extensions>
          <ns3:TrackPointExtension>
            <ns3:hr>162</ns3:hr>
            <ns3:cad>57</ns3:cad>
          </ns3:TrackPointExtension>
        </extensions>
      </trkpt>
      <trkpt lat="52.0819048583507537841796875" lon="1.3678888790309429168701171875">
        <ele>-126.8000030517578125</ele>
        <time>2025-09-05T14:41:38.000Z</time>
        <extensions>
          <ns3:TrackPointExtension>
            <ns3:hr>161</ns3:hr>
            <ns3:cad>57</ns3:cad>
          </ns3:TrackPointExtension>
        </extensions>
      </trkpt>
      <trkpt lat="52.08191248588263988494873046875" lon="1.367910169064998626708984375">
        <ele>-127.40000152587890625</ele>
        <time>2025-09-05T14:41:40.000Z</time>
        <extensions>
          <ns3:TrackPointExtension>
            <ns3:hr>160</ns3:hr>
            <ns3:cad>57</ns3:cad>
          </ns3:TrackPointExtension>
        </extensions>
      </trkpt>
      <trkpt lat="52.08192036487162113189697265625" lon="1.3679193891584873199462890625">
        <ele>-127.59999847412109375</ele>
        <time>2025-09-05T14:41:41.000Z</time>
        <extensions>
          <ns3:TrackPointExtension>
            <ns3:hr>159</ns3:hr>
            <ns3:cad>57</ns3:cad>
          </ns3:TrackPointExtension>
        </extensions>
      </trkpt>
      <trkpt lat="52.08194039762020111083984375" lon="1.36796322651207447052001953125">
        <ele>-128.399993896484375</ele>
        <time>2025-09-05T14:41:44.000Z</time>
        <extensions>
          <ns3:TrackPointExtension>
            <ns3:hr>159</ns3:hr>
            <ns3:cad>57</ns3:cad>
          </ns3:TrackPointExtension>
        </extensions>
      </trkpt>
      <trkpt lat="52.08194618113338947296142578125" lon="1.3679763861000537872314453125">
        <ele>-128.600006103515625</ele>
        <time>2025-09-05T14:41:45.000Z</time>
        <extensions>
          <ns3:TrackPointExtension>
            <ns3:hr>159</ns3:hr>
            <ns3:cad>58</ns3:cad>
          </ns3:TrackPointExtension>
        </extensions>
      </trkpt>
      <trkpt lat="52.08197367377579212188720703125" lon="1.3680182956159114837646484375">
        <ele>-129.1999969482421875</ele>
        <time>2025-09-05T14:41:48.000Z</time>
        <extensions>
          <ns3:TrackPointExtension>
            <ns3:hr>156</ns3:hr>
            <ns3:cad>58</ns3:cad>
          </ns3:TrackPointExtension>
        </extensions>
      </trkpt>
      <trkpt lat="52.08199010230600833892822265625" lon="1.368052996695041656494140625">
        <ele>-129.8000030517578125</ele>
        <time>2025-09-05T14:41:50.000Z</time>
        <extensions>
          <ns3:TrackPointExtension>
            <ns3:hr>155</ns3:hr>
            <ns3:cad>58</ns3:cad>
          </ns3:TrackPointExtension>
        </extensions>
      </trkpt>
      <trkpt lat="52.08200887776911258697509765625" lon="1.3680920563638210296630859375">
        <ele>-130.1999969482421875</ele>
        <time>2025-09-05T14:41:52.000Z</time>
        <extensions>
          <ns3:TrackPointExtension>
            <ns3:hr>154</ns3:hr>
            <ns3:cad>58</ns3:cad>
          </ns3:TrackPointExtension>
        </extensions>
      </trkpt>
      <trkpt lat="52.0820404775440692901611328125" lon="1.36814209632575511932373046875">
        <ele>-130.8000030517578125</ele>
        <time>2025-09-05T14:41:55.000Z</time>
        <extensions>
          <ns3:TrackPointExtension>
            <ns3:hr>153</ns3:hr>
            <ns3:cad>60</ns3:cad>
          </ns3:TrackPointExtension>
        </extensions>
      </trkpt>
      <trkpt lat="52.08206704817712306976318359375" lon="1.3682368956506252288818359375">
        <ele>-131.8000030517578125</ele>
        <time>2025-09-05T14:42:00.000Z</time>
        <extensions>
          <ns3:TrackPointExtension>
            <ns3:hr>153</ns3:hr>
            <ns3:cad>58</ns3:cad>
          </ns3:TrackPointExtension>
        </extensions>
      </trkpt>
      <trkpt lat="52.0820471830666065216064453125" lon="1.36831778101623058319091796875">
        <ele>-133</ele>
        <time>2025-09-05T14:42:05.000Z</time>
        <extensions>
          <ns3:TrackPointExtension>
            <ns3:hr>153</ns3:hr>
            <ns3:cad>54</ns3:cad>
          </ns3:TrackPointExtension>
        </extensions>
      </trkpt>
      <trkpt lat="52.08202798850834369659423828125" lon="1.36834225617349147796630859375">
        <ele>-133.399993896484375</ele>
        <time>2025-09-05T14:42:07.000Z</time>
        <extensions>
          <ns3:TrackPointExtension>
            <ns3:hr>152</ns3:hr>
            <ns3:cad>55</ns3:cad>
          </ns3:TrackPointExtension>
        </extensions>
      </trkpt>
      <trkpt lat="52.08199295215308666229248046875" lon="1.3683897815644741058349609375">
        <ele>-134</ele>
        <time>2025-09-05T14:42:10.000Z</time>
        <extensions>
          <ns3:TrackPointExtension>
            <ns3:hr>153</ns3:hr>
            <ns3:cad>59</ns3:cad>
          </ns3:TrackPointExtension>
        </extensions>
      </trkpt>
      <trkpt lat="52.0819496177136898040771484375" lon="1.36846966110169887542724609375">
        <ele>-135</ele>
        <time>2025-09-05T14:42:15.000Z</time>
        <extensions>
          <ns3:TrackPointExtension>
            <ns3:hr>151</ns3:hr>
            <ns3:cad>58</ns3:cad>
          </ns3:TrackPointExtension>
        </extensions>
      </trkpt>
      <trkpt lat="52.0819412358105182647705078125" lon="1.36848114430904388427734375">
        <ele>-135.1999969482421875</ele>
        <time>2025-09-05T14:42:16.000Z</time>
        <extensions>
          <ns3:TrackPointExtension>
            <ns3:hr>152</ns3:hr>
            <ns3:cad>58</ns3:cad>
          </ns3:TrackPointExtension>
        </extensions>
      </trkpt>
      <trkpt lat="52.08190343342721462249755859375" lon="1.3685312680900096893310546875">
        <ele>-136</ele>
        <time>2025-09-05T14:42:20.000Z</time>
        <extensions>
          <ns3:TrackPointExtension>
            <ns3:hr>149</ns3:hr>
            <ns3:cad>57</ns3:cad>
          </ns3:TrackPointExtension>
        </extensions>
      </trkpt>
      <trkpt lat="52.0818959735333919525146484375" lon="1.3685416616499423980712890625">
        <ele>-136.1999969482421875</ele>
        <time>2025-09-05T14:42:21.000Z</time>
        <extensions>
          <ns3:TrackPointExtension>
            <ns3:hr>150</ns3:hr>
            <ns3:cad>58</ns3:cad>
          </ns3:TrackPointExtension>
        </extensions>
      </trkpt>
      <trkpt lat="52.08186051808297634124755859375" lon="1.36858063749969005584716796875">
        <ele>-136.8000030517578125</ele>
        <time>2025-09-05T14:42:25.000Z</time>
        <extensions>
          <ns3:TrackPointExtension>
            <ns3:hr>150</ns3:hr>
            <ns3:cad>58</ns3:cad>
          </ns3:TrackPointExtension>
        </extensions>
      </trkpt>
      <trkpt lat="52.081839479506015777587890625" lon="1.3686050288379192352294921875">
        <ele>-137.399993896484375</ele>
        <time>2025-09-05T14:42:27.000Z</time>
        <extensions>
          <ns3:TrackPointExtension>
            <ns3:hr>151</ns3:hr>
            <ns3:cad>58</ns3:cad>
          </ns3:TrackPointExtension>
        </extensions>
      </trkpt>
      <trkpt lat="52.0818175189197063446044921875" lon="1.368637382984161376953125">
        <ele>-137.600006103515625</ele>
        <time>2025-09-05T14:42:29.000Z</time>
        <extensions>
          <ns3:TrackPointExtension>
            <ns3:hr>148</ns3:hr>
            <ns3:cad>58</ns3:cad>
          </ns3:TrackPointExtension>
        </extensions>
      </trkpt>
      <trkpt lat="52.08179463632404804229736328125" lon="1.3686677254736423492431640625">
        <ele>-138</ele>
        <time>2025-09-05T14:42:31.000Z</time>
        <extensions>
          <ns3:TrackPointExtension>
            <ns3:hr>151</ns3:hr>
            <ns3:cad>60</ns3:cad>
          </ns3:TrackPointExtension>
        </extensions>
      </trkpt>
      <trkpt lat="52.0817789621651172637939453125" lon="1.36868926696479320526123046875">
        <ele>-138.399993896484375</ele>
        <time>2025-09-05T14:42:33.000Z</time>
        <extensions>
          <ns3:TrackPointExtension>
            <ns3:hr>150</ns3:hr>
            <ns3:cad>59</ns3:cad>
          </ns3:TrackPointExtension>
        </extensions>
      </trkpt>
      <trkpt lat="52.08177083171904087066650390625" lon="1.368700750172138214111328125">
        <ele>-138.600006103515625</ele>
        <time>2025-09-05T14:42:34.000Z</time>
        <extensions>
          <ns3:TrackPointExtension>
            <ns3:hr>150</ns3:hr>
            <ns3:cad>58</ns3:cad>
          </ns3:TrackPointExtension>
        </extensions>
      </trkpt>
      <trkpt lat="52.081701345741748809814453125" lon="1.368796639144420623779296875">
        <ele>-139.399993896484375</ele>
        <time>2025-09-05T14:42:42.000Z</time>
        <extensions>
          <ns3:TrackPointExtension>
            <ns3:hr>149</ns3:hr>
            <ns3:cad>58</ns3:cad>
          </ns3:TrackPointExtension>
        </extensions>
      </trkpt>
      <trkpt lat="52.0816371403634548187255859375" lon="1.36890635825693607330322265625">
        <ele>-139.1999969482421875</ele>
        <time>2025-09-05T14:42:49.000Z</time>
        <extensions>
          <ns3:TrackPointExtension>
            <ns3:hr>149</ns3:hr>
            <ns3:cad>58</ns3:cad>
          </ns3:TrackPointExtension>
        </extensions>
      </trkpt>
      <trkpt lat="52.081530354917049407958984375" lon="1.3690274767577648162841796875">
        <ele>-138.399993896484375</ele>
        <time>2025-09-05T14:42:58.000Z</time>
        <extensions>
          <ns3:TrackPointExtension>
            <ns3:hr>149</ns3:hr>
            <ns3:cad>58</ns3:cad>
          </ns3:TrackPointExtension>
        </extensions>
      </trkpt>
      <trkpt lat="52.08145969547331333160400390625" lon="1.36909964494407176971435546875">
        <ele>-137.600006103515625</ele>
        <time>2025-09-05T14:43:05.000Z</time>
        <extensions>
          <ns3:TrackPointExtension>
            <ns3:hr>146</ns3:hr>
            <ns3:cad>57</ns3:cad>
          </ns3:TrackPointExtension>
        </extensions>
      </trkpt>
      <trkpt lat="52.08145014010369777679443359375" lon="1.36910718865692615509033203125">
        <ele>-137.600006103515625</ele>
        <time>2025-09-05T14:43:06.000Z</time>
        <extensions>
          <ns3:TrackPointExtension>
            <ns3:hr>148</ns3:hr>
            <ns3:cad>57</ns3:cad>
          </ns3:TrackPointExtension>
        </extensions>
      </trkpt>
      <trkpt lat="52.0814193785190582275390625" lon="1.36913334019482135772705078125">
        <ele>-137.600006103515625</ele>
        <time>2025-09-05T14:43:09.000Z</time>
        <extensions>
          <ns3:TrackPointExtension>
            <ns3:hr>145</ns3:hr>
            <ns3:cad>57</ns3:cad>
          </ns3:TrackPointExtension>
        </extensions>
      </trkpt>
      <trkpt lat="52.0813799835741519927978515625" lon="1.36918564327061176300048828125">
        <ele>-137.8000030517578125</ele>
        <time>2025-09-05T14:43:14.000Z</time>
        <extensions>
          <ns3:TrackPointExtension>
            <ns3:hr>148</ns3:hr>
            <ns3:cad>60</ns3:cad>
          </ns3:TrackPointExtension>
        </extensions>
      </trkpt>
      <trkpt lat="52.08137235604226589202880859375" lon="1.36919536627829074859619140625">
        <ele>-137.8000030517578125</ele>
        <time>2025-09-05T14:43:15.000Z</time>
        <extensions>
          <ns3:TrackPointExtension>
            <ns3:hr>148</ns3:hr>
            <ns3:cad>60</ns3:cad>
          </ns3:TrackPointExtension>
        </extensions>
      </trkpt>
      <trkpt lat="52.08128233440220355987548828125" lon="1.36928924359381198883056640625">
        <ele>-138.600006103515625</ele>
        <time>2025-09-05T14:43:24.000Z</time>
        <extensions>
          <ns3:TrackPointExtension>
            <ns3:hr>146</ns3:hr>
            <ns3:cad>58</ns3:cad>
          </ns3:TrackPointExtension>
        </extensions>
      </trkpt>
      <trkpt lat="52.08123455755412578582763671875" lon="1.3694157265126705169677734375">
        <ele>-139.399993896484375</ele>
        <time>2025-09-05T14:43:32.000Z</time>
        <extensions>
          <ns3:TrackPointExtension>
            <ns3:hr>147</ns3:hr>
            <ns3:cad>57</ns3:cad>
          </ns3:TrackPointExtension>
        </extensions>
      </trkpt>
      <trkpt lat="52.0812264271080493927001953125" lon="1.3694214262068271636962890625">
        <ele>-139.399993896484375</ele>
        <time>2025-09-05T14:43:33.000Z</time>
        <extensions>
          <ns3:TrackPointExtension>
            <ns3:hr>147</ns3:hr>
            <ns3:cad>57</ns3:cad>
          </ns3:TrackPointExtension>
        </extensions>
      </trkpt>
      <trkpt lat="52.08113045431673526763916015625" lon="1.36960507370531558990478515625">
        <ele>-140.399993896484375</ele>
        <time>2025-09-05T14:43:42.000Z</time>
        <extensions>
          <ns3:TrackPointExtension>
            <ns3:hr>145</ns3:hr>
            <ns3:cad>58</ns3:cad>
          </ns3:TrackPointExtension>
        </extensions>
      </trkpt>
      <trkpt lat="52.0810976810753345489501953125" lon="1.369630806148052215576171875">
        <ele>-140.8000030517578125</ele>
        <time>2025-09-05T14:43:45.000Z</time>
        <extensions>
          <ns3:TrackPointExtension>
            <ns3:hr>141</ns3:hr>
            <ns3:cad>58</ns3:cad>
          </ns3:TrackPointExtension>
        </extensions>
      </trkpt>
      <trkpt lat="52.08108770661056041717529296875" lon="1.369642205536365509033203125">
        <ele>-141</ele>
        <time>2025-09-05T14:43:46.000Z</time>
        <extensions>
          <ns3:TrackPointExtension>
            <ns3:hr>138</ns3:hr>
            <ns3:cad>58</ns3:cad>
          </ns3:TrackPointExtension>
        </extensions>
      </trkpt>
      <trkpt lat="52.0810691826045513153076171875" lon="1.369652263820171356201171875">
        <ele>-141.399993896484375</ele>
        <time>2025-09-05T14:43:48.000Z</time>
        <extensions>
          <ns3:TrackPointExtension>
            <ns3:hr>134</ns3:hr>
            <ns3:cad>58</ns3:cad>
          </ns3:TrackPointExtension>
        </extensions>
      </trkpt>
      <trkpt lat="52.081050910055637359619140625" lon="1.36967313475906848907470703125">
        <ele>-141.600006103515625</ele>
        <time>2025-09-05T14:43:50.000Z</time>
        <extensions>
          <ns3:TrackPointExtension>
            <ns3:hr>132</ns3:hr>
            <ns3:cad>58</ns3:cad>
          </ns3:TrackPointExtension>
        </extensions>
      </trkpt>
      <trkpt lat="52.081028781831264495849609375" lon="1.369700543582439422607421875">
        <ele>-141.8000030517578125</ele>
        <time>2025-09-05T14:43:52.000Z</time>
        <extensions>
          <ns3:TrackPointExtension>
            <ns3:hr>132</ns3:hr>
            <ns3:cad>57</ns3:cad>
          </ns3:TrackPointExtension>
        </extensions>
      </trkpt>
      <trkpt lat="52.08101964555680751800537109375" lon="1.36972057633101940155029296875">
        <ele>-142</ele>
        <time>2025-09-05T14:43:53.000Z</time>
        <extensions>
          <ns3:TrackPointExtension>
            <ns3:hr>132</ns3:hr>
            <ns3:cad>57</ns3:cad>
          </ns3:TrackPointExtension>
        </extensions>
      </trkpt>
      <trkpt lat="52.08097890950739383697509765625" lon="1.36976600624620914459228515625">
        <ele>-142.600006103515625</ele>
        <time>2025-09-05T14:43:57.000Z</time>
        <extensions>
          <ns3:TrackPointExtension>
            <ns3:hr>133</ns3:hr>
            <ns3:cad>59</ns3:cad>
          </ns3:TrackPointExtension>
        </extensions>
      </trkpt>
      <trkpt lat="52.08096600137650966644287109375" lon="1.36978897266089916229248046875">
        <ele>-142.8000030517578125</ele>
        <time>2025-09-05T14:43:58.000Z</time>
        <extensions>
          <ns3:TrackPointExtension>
            <ns3:hr>133</ns3:hr>
            <ns3:cad>59</ns3:cad>
          </ns3:TrackPointExtension>
        </extensions>
      </trkpt>
      <trkpt lat="52.08093180321156978607177734375" lon="1.3698683492839336395263671875">
        <ele>-143.1999969482421875</ele>
        <time>2025-09-05T14:44:01.000Z</time>
        <extensions>
          <ns3:TrackPointExtension>
            <ns3:hr>136</ns3:hr>
            <ns3:cad>59</ns3:cad>
          </ns3:TrackPointExtension>
        </extensions>
      </trkpt>
      <trkpt lat="52.0809082500636577606201171875" lon="1.369911096990108489990234375">
        <ele>-143.600006103515625</ele>
        <time>2025-09-05T14:44:03.000Z</time>
        <extensions>
          <ns3:TrackPointExtension>
            <ns3:hr>138</ns3:hr>
            <ns3:cad>59</ns3:cad>
          </ns3:TrackPointExtension>
        </extensions>
      </trkpt>
      <trkpt lat="52.08089726977050304412841796875" lon="1.3699364103376865386962890625">
        <ele>-143.8000030517578125</ele>
        <time>2025-09-05T14:44:04.000Z</time>
        <extensions>
          <ns3:TrackPointExtension>
            <ns3:hr>136</ns3:hr>
            <ns3:cad>0</ns3:cad>
          </ns3:TrackPointExtension>
        </extensions>
      </trkpt>
      <trkpt lat="52.08081311546266078948974609375" lon="1.370102204382419586181640625">
        <ele>-144.8000030517578125</ele>
        <time>2025-09-05T14:44:09.000Z</time>
        <extensions>
          <ns3:TrackPointExtension>
            <ns3:hr>137</ns3:hr>
            <ns3:cad>79</ns3:cad>
          </ns3:TrackPointExtension>
        </extensions>
      </trkpt>
      <trkpt lat="52.08077900111675262451171875" lon="1.37017906643450260162353515625">
        <ele>-145</ele>
        <time>2025-09-05T14:44:11.000Z</time>
        <extensions>
          <ns3:TrackPointExtension>
            <ns3:hr>137</ns3:hr>
            <ns3:cad>81</ns3:cad>
          </ns3:TrackPointExtension>
        </extensions>
      </trkpt>
      <trkpt lat="52.08073767833411693572998046875" lon="1.3702622987329959869384765625">
        <ele>-145.600006103515625</ele>
        <time>2025-09-05T14:44:14.000Z</time>
        <extensions>
          <ns3:TrackPointExtension>
            <ns3:hr>142</ns3:hr>
            <ns3:cad>82</ns3:cad>
          </ns3:TrackPointExtension>
        </extensions>
      </trkpt>
      <trkpt lat="52.08072594366967678070068359375" lon="1.3702887855470180511474609375">
        <ele>-145.600006103515625</ele>
        <time>2025-09-05T14:44:15.000Z</time>
        <extensions>
          <ns3:TrackPointExtension>
            <ns3:hr>146</ns3:hr>
            <ns3:cad>82</ns3:cad>
          </ns3:TrackPointExtension>
        </extensions>
      </trkpt>
      <trkpt lat="52.080712281167507171630859375" lon="1.3703109137713909149169921875">
        <ele>-145.8000030517578125</ele>
        <time>2025-09-05T14:44:16.000Z</time>
        <extensions>
          <ns3:TrackPointExtension>
            <ns3:hr>149</ns3:hr>
            <ns3:cad>82</ns3:cad>
          </ns3:TrackPointExtension>
        </extensions>
      </trkpt>
      <trkpt lat="52.08068990148603916168212890625" lon="1.3703226484358310699462890625">
        <ele>-146</ele>
        <time>2025-09-05T14:44:17.000Z</time>
        <extensions>
          <ns3:TrackPointExtension>
            <ns3:hr>152</ns3:hr>
            <ns3:cad>82</ns3:cad>
          </ns3:TrackPointExtension>
        </extensions>
      </trkpt>
      <trkpt lat="52.08065486513078212738037109375" lon="1.3703618757426738739013671875">
        <ele>-146.1999969482421875</ele>
        <time>2025-09-05T14:44:19.000Z</time>
        <extensions>
          <ns3:TrackPointExtension>
            <ns3:hr>156</ns3:hr>
            <ns3:cad>82</ns3:cad>
          </ns3:TrackPointExtension>
        </extensions>
      </trkpt>
      <trkpt lat="52.08063759841024875640869140625" lon="1.37038123793900012969970703125">
        <ele>-146.1999969482421875</ele>
        <time>2025-09-05T14:44:20.000Z</time>
        <extensions>
          <ns3:TrackPointExtension>
            <ns3:hr>159</ns3:hr>
            <ns3:cad>82</ns3:cad>
          </ns3:TrackPointExtension>
        </extensions>
      </trkpt>
      <trkpt lat="52.08061764948070049285888671875" lon="1.370400600135326385498046875">
        <ele>-146.399993896484375</ele>
        <time>2025-09-05T14:44:21.000Z</time>
        <extensions>
          <ns3:TrackPointExtension>
            <ns3:hr>159</ns3:hr>
            <ns3:cad>82</ns3:cad>
          </ns3:TrackPointExtension>
        </extensions>
      </trkpt>
      <trkpt lat="52.08057842217385768890380859375" lon="1.3704423420131206512451171875">
        <ele>-146.399993896484375</ele>
        <time>2025-09-05T14:44:23.000Z</time>
        <extensions>
          <ns3:TrackPointExtension>
            <ns3:hr>162</ns3:hr>
            <ns3:cad>81</ns3:cad>
          </ns3:TrackPointExtension>
        </extensions>
      </trkpt>
      <trkpt lat="52.08051991648972034454345703125" lon="1.3705117441713809967041015625">
        <ele>-146.1999969482421875</ele>
        <time>2025-09-05T14:44:26.000Z</time>
        <extensions>
          <ns3:TrackPointExtension>
            <ns3:hr>163</ns3:hr>
            <ns3:cad>81</ns3:cad>
          </ns3:TrackPointExtension>
        </extensions>
      </trkpt>
      <trkpt lat="52.080459482967853546142578125" lon="1.370583660900592803955078125">
        <ele>-146.1999969482421875</ele>
        <time>2025-09-05T14:44:29.000Z</time>
        <extensions>
          <ns3:TrackPointExtension>
            <ns3:hr>166</ns3:hr>
            <ns3:cad>81</ns3:cad>
          </ns3:TrackPointExtension>
        </extensions>
      </trkpt>
      <trkpt lat="52.0803852193057537078857421875" lon="1.37067854404449462890625">
        <ele>-146</ele>
        <time>2025-09-05T14:44:33.000Z</time>
        <extensions>
          <ns3:TrackPointExtension>
            <ns3:hr>166</ns3:hr>
            <ns3:cad>81</ns3:cad>
          </ns3:TrackPointExtension>
        </extensions>
      </trkpt>
      <trkpt lat="52.08028086461126804351806640625" lon="1.370826400816440582275390625">
        <ele>-145.8000030517578125</ele>
        <time>2025-09-05T14:44:41.000Z</time>
        <extensions>
          <ns3:TrackPointExtension>
            <ns3:hr>167</ns3:hr>
            <ns3:cad>80</ns3:cad>
          </ns3:TrackPointExtension>
        </extensions>
      </trkpt>
      <trkpt lat="52.08018623292446136474609375" lon="1.37095749378204345703125">
        <ele>-145.399993896484375</ele>
        <time>2025-09-05T14:44:48.000Z</time>
        <extensions>
          <ns3:TrackPointExtension>
            <ns3:hr>169</ns3:hr>
            <ns3:cad>82</ns3:cad>
          </ns3:TrackPointExtension>
        </extensions>
      </trkpt>
      <trkpt lat="52.0801200158894062042236328125" lon="1.37107961811125278472900390625">
        <ele>-145</ele>
        <time>2025-09-05T14:44:53.000Z</time>
        <extensions>
          <ns3:TrackPointExtension>
            <ns3:hr>173</ns3:hr>
            <ns3:cad>82</ns3:cad>
          </ns3:TrackPointExtension>
        </extensions>
      </trkpt>
      <trkpt lat="52.08009327761828899383544921875" lon="1.37114549987018108367919921875">
        <ele>-144.8000030517578125</ele>
        <time>2025-09-05T14:44:55.000Z</time>
        <extensions>
          <ns3:TrackPointExtension>
            <ns3:hr>172</ns3:hr>
            <ns3:cad>82</ns3:cad>
          </ns3:TrackPointExtension>
        </extensions>
      </trkpt>
      <trkpt lat="52.080079615116119384765625" lon="1.371167711913585662841796875">
        <ele>-144.600006103515625</ele>
        <time>2025-09-05T14:44:56.000Z</time>
        <extensions>
          <ns3:TrackPointExtension>
            <ns3:hr>172</ns3:hr>
            <ns3:cad>82</ns3:cad>
          </ns3:TrackPointExtension>
        </extensions>
      </trkpt>
      <trkpt lat="52.0800103805959224700927734375" lon="1.37126502580940723419189453125">
        <ele>-143.600006103515625</ele>
        <time>2025-09-05T14:45:01.000Z</time>
        <extensions>
          <ns3:TrackPointExtension>
            <ns3:hr>172</ns3:hr>
            <ns3:cad>82</ns3:cad>
          </ns3:TrackPointExtension>
        </extensions>
      </trkpt>
      <trkpt lat="52.07996050827205181121826171875" lon="1.37134213931858539581298828125">
        <ele>-143</ele>
        <time>2025-09-05T14:45:04.000Z</time>
        <extensions>
          <ns3:TrackPointExtension>
            <ns3:hr>172</ns3:hr>
            <ns3:cad>81</ns3:cad>
          </ns3:TrackPointExtension>
        </extensions>
      </trkpt>
      <trkpt lat="52.07993268035352230072021484375" lon="1.37139846570789813995361328125">
        <ele>-142.399993896484375</ele>
        <time>2025-09-05T14:45:06.000Z</time>
        <extensions>
          <ns3:TrackPointExtension>
            <ns3:hr>171</ns3:hr>
            <ns3:cad>81</ns3:cad>
          </ns3:TrackPointExtension>
        </extensions>
      </trkpt>
      <trkpt lat="52.079868726432323455810546875" lon="1.37154095806181430816650390625">
        <ele>-141.399993896484375</ele>
        <time>2025-09-05T14:45:10.000Z</time>
        <extensions>
          <ns3:TrackPointExtension>
            <ns3:hr>170</ns3:hr>
            <ns3:cad>81</ns3:cad>
          </ns3:TrackPointExtension>
        </extensions>
      </trkpt>
      <trkpt lat="52.0798528008162975311279296875" lon="1.3715665228664875030517578125">
        <ele>-141.1999969482421875</ele>
        <time>2025-09-05T14:45:11.000Z</time>
        <extensions>
          <ns3:TrackPointExtension>
            <ns3:hr>170</ns3:hr>
            <ns3:cad>80</ns3:cad>
          </ns3:TrackPointExtension>
        </extensions>
      </trkpt>
      <trkpt lat="52.0798162557184696197509765625" lon="1.37160767801105976104736328125">
        <ele>-140.8000030517578125</ele>
        <time>2025-09-05T14:45:13.000Z</time>
        <extensions>
          <ns3:TrackPointExtension>
            <ns3:hr>167</ns3:hr>
            <ns3:cad>79</ns3:cad>
          </ns3:TrackPointExtension>
        </extensions>
      </trkpt>
      <trkpt lat="52.079784907400608062744140625" lon="1.37163265608251094818115234375">
        <ele>-140.1999969482421875</ele>
        <time>2025-09-05T14:45:15.000Z</time>
        <extensions>
          <ns3:TrackPointExtension>
            <ns3:hr>167</ns3:hr>
            <ns3:cad>79</ns3:cad>
          </ns3:TrackPointExtension>
        </extensions>
      </trkpt>
      <trkpt lat="52.07975716330111026763916015625" lon="1.3716664351522922515869140625">
        <ele>-139.8000030517578125</ele>
        <time>2025-09-05T14:45:17.000Z</time>
        <extensions>
          <ns3:TrackPointExtension>
            <ns3:hr>167</ns3:hr>
            <ns3:cad>79</ns3:cad>
          </ns3:TrackPointExtension>
        </extensions>
      </trkpt>
      <trkpt lat="52.07972296513617038726806640625" lon="1.37169803492724895477294921875">
        <ele>-139.1999969482421875</ele>
        <time>2025-09-05T14:45:19.000Z</time>
        <extensions>
          <ns3:TrackPointExtension>
            <ns3:hr>167</ns3:hr>
            <ns3:cad>80</ns3:cad>
          </ns3:TrackPointExtension>
        </extensions>
      </trkpt>
      <trkpt lat="52.0796657167375087738037109375" lon="1.371775232255458831787109375">
        <ele>-138.1999969482421875</ele>
        <time>2025-09-05T14:45:23.000Z</time>
        <extensions>
          <ns3:TrackPointExtension>
            <ns3:hr>169</ns3:hr>
            <ns3:cad>81</ns3:cad>
          </ns3:TrackPointExtension>
        </extensions>
      </trkpt>
      <trkpt lat="52.07965381443500518798828125" lon="1.3717914931476116180419921875">
        <ele>-137.8000030517578125</ele>
        <time>2025-09-05T14:45:24.000Z</time>
        <extensions>
          <ns3:TrackPointExtension>
            <ns3:hr>170</ns3:hr>
            <ns3:cad>81</ns3:cad>
          </ns3:TrackPointExtension>
        </extensions>
      </trkpt>
      <trkpt lat="52.07960151135921478271484375" lon="1.3718491606414318084716796875">
        <ele>-137</ele>
        <time>2025-09-05T14:45:27.000Z</time>
        <extensions>
          <ns3:TrackPointExtension>
            <ns3:hr>171</ns3:hr>
            <ns3:cad>81</ns3:cad>
          </ns3:TrackPointExtension>
        </extensions>
      </trkpt>
      <trkpt lat="52.07954929210245609283447265625" lon="1.37193046510219573974609375">
        <ele>-136</ele>
        <time>2025-09-05T14:45:31.000Z</time>
        <extensions>
          <ns3:TrackPointExtension>
            <ns3:hr>172</ns3:hr>
            <ns3:cad>81</ns3:cad>
          </ns3:TrackPointExtension>
        </extensions>
      </trkpt>
      <trkpt lat="52.0794913731515407562255859375" lon="1.3720060698688030242919921875">
        <ele>-135</ele>
        <time>2025-09-05T14:45:35.000Z</time>
        <extensions>
          <ns3:TrackPointExtension>
            <ns3:hr>171</ns3:hr>
            <ns3:cad>80</ns3:cad>
          </ns3:TrackPointExtension>
        </extensions>
      </trkpt>
      <trkpt lat="52.079424150288105010986328125" lon="1.37208326719701290130615234375">
        <ele>-134</ele>
        <time>2025-09-05T14:45:39.000Z</time>
        <extensions>
          <ns3:TrackPointExtension>
            <ns3:hr>173</ns3:hr>
            <ns3:cad>81</ns3:cad>
          </ns3:TrackPointExtension>
        </extensions>
      </trkpt>
      <trkpt lat="52.0793673209846019744873046875" lon="1.37214093469083309173583984375">
        <ele>-132.8000030517578125</ele>
        <time>2025-09-05T14:45:43.000Z</time>
        <extensions>
          <ns3:TrackPointExtension>
            <ns3:hr>172</ns3:hr>
            <ns3:cad>82</ns3:cad>
          </ns3:TrackPointExtension>
        </extensions>
      </trkpt>
      <trkpt lat="52.0793220587074756622314453125" lon="1.37221989221870899200439453125">
        <ele>-131.8000030517578125</ele>
        <time>2025-09-05T14:45:47.000Z</time>
        <extensions>
          <ns3:TrackPointExtension>
            <ns3:hr>172</ns3:hr>
            <ns3:cad>82</ns3:cad>
          </ns3:TrackPointExtension>
        </extensions>
      </trkpt>
      <trkpt lat="52.0792784728109836578369140625" lon="1.372285187244415283203125">
        <ele>-130.600006103515625</ele>
        <time>2025-09-05T14:45:51.000Z</time>
        <extensions>
          <ns3:TrackPointExtension>
            <ns3:hr>174</ns3:hr>
            <ns3:cad>82</ns3:cad>
          </ns3:TrackPointExtension>
        </extensions>
      </trkpt>
      <trkpt lat="52.07922122441232204437255859375" lon="1.3723857700824737548828125">
        <ele>-129.399993896484375</ele>
        <time>2025-09-05T14:45:55.000Z</time>
        <extensions>
          <ns3:TrackPointExtension>
            <ns3:hr>174</ns3:hr>
            <ns3:cad>81</ns3:cad>
          </ns3:TrackPointExtension>
        </extensions>
      </trkpt>
      <trkpt lat="52.07915752194821834564208984375" lon="1.37247763574123382568359375">
        <ele>-128.1999969482421875</ele>
        <time>2025-09-05T14:45:59.000Z</time>
        <extensions>
          <ns3:TrackPointExtension>
            <ns3:hr>172</ns3:hr>
            <ns3:cad>81</ns3:cad>
          </ns3:TrackPointExtension>
        </extensions>
      </trkpt>
      <trkpt lat="52.07908644340932369232177734375" lon="1.37257277034223079681396484375">
        <ele>-127</ele>
        <time>2025-09-05T14:46:03.000Z</time>
        <extensions>
          <ns3:TrackPointExtension>
            <ns3:hr>174</ns3:hr>
            <ns3:cad>81</ns3:cad>
          </ns3:TrackPointExtension>
        </extensions>
      </trkpt>
      <trkpt lat="52.07902492024004459381103515625" lon="1.37259489856660366058349609375">
        <ele>-125.8000030517578125</ele>
        <time>2025-09-05T14:46:07.000Z</time>
        <extensions>
          <ns3:TrackPointExtension>
            <ns3:hr>172</ns3:hr>
            <ns3:cad>81</ns3:cad>
          </ns3:TrackPointExtension>
        </extensions>
      </trkpt>
      <trkpt lat="52.07896473817527294158935546875" lon="1.37265809811651706695556640625">
        <ele>-124.8000030517578125</ele>
        <time>2025-09-05T14:46:11.000Z</time>
        <extensions>
          <ns3:TrackPointExtension>
            <ns3:hr>171</ns3:hr>
            <ns3:cad>81</ns3:cad>
          </ns3:TrackPointExtension>
        </extensions>
      </trkpt>
      <trkpt lat="52.07895618863403797149658203125" lon="1.372680477797985076904296875">
        <ele>-124.40000152587890625</ele>
        <time>2025-09-05T14:46:12.000Z</time>
        <extensions>
          <ns3:TrackPointExtension>
            <ns3:hr>171</ns3:hr>
            <ns3:cad>81</ns3:cad>
          </ns3:TrackPointExtension>
        </extensions>
      </trkpt>
      <trkpt lat="52.07892031408846378326416015625" lon="1.3727420009672641754150390625">
        <ele>-123.40000152587890625</ele>
        <time>2025-09-05T14:46:15.000Z</time>
        <extensions>
          <ns3:TrackPointExtension>
            <ns3:hr>171</ns3:hr>
            <ns3:cad>81</ns3:cad>
          </ns3:TrackPointExtension>
        </extensions>
      </trkpt>
      <trkpt lat="52.07886700518429279327392578125" lon="1.37280679307878017425537109375">
        <ele>-122.1999969482421875</ele>
        <time>2025-09-05T14:46:19.000Z</time>
        <extensions>
          <ns3:TrackPointExtension>
            <ns3:hr>172</ns3:hr>
            <ns3:cad>82</ns3:cad>
          </ns3:TrackPointExtension>
        </extensions>
      </trkpt>
      <trkpt lat="52.078851163387298583984375" lon="1.372832022607326507568359375">
        <ele>-122</ele>
        <time>2025-09-05T14:46:20.000Z</time>
        <extensions>
          <ns3:TrackPointExtension>
            <ns3:hr>173</ns3:hr>
            <ns3:cad>82</ns3:cad>
          </ns3:TrackPointExtension>
        </extensions>
      </trkpt>
      <trkpt lat="52.0788110978901386260986328125" lon="1.37291391380131244659423828125">
        <ele>-121</ele>
        <time>2025-09-05T14:46:23.000Z</time>
        <extensions>
          <ns3:TrackPointExtension>
            <ns3:hr>172</ns3:hr>
            <ns3:cad>82</ns3:cad>
          </ns3:TrackPointExtension>
        </extensions>
      </trkpt>
      <trkpt lat="52.07875703461468219757080078125" lon="1.373025476932525634765625">
        <ele>-119.8000030517578125</ele>
        <time>2025-09-05T14:46:27.000Z</time>
        <extensions>
          <ns3:TrackPointExtension>
            <ns3:hr>173</ns3:hr>
            <ns3:cad>80</ns3:cad>
          </ns3:TrackPointExtension>
        </extensions>
      </trkpt>
      <trkpt lat="52.07869450561702251434326171875" lon="1.373104266822338104248046875">
        <ele>-118.8000030517578125</ele>
        <time>2025-09-05T14:46:31.000Z</time>
        <extensions>
          <ns3:TrackPointExtension>
            <ns3:hr>174</ns3:hr>
            <ns3:cad>81</ns3:cad>
          </ns3:TrackPointExtension>
        </extensions>
      </trkpt>
      <trkpt lat="52.07863164134323596954345703125" lon="1.373163275420665740966796875">
        <ele>-117.8000030517578125</ele>
        <time>2025-09-05T14:46:35.000Z</time>
        <extensions>
          <ns3:TrackPointExtension>
            <ns3:hr>173</ns3:hr>
            <ns3:cad>81</ns3:cad>
          </ns3:TrackPointExtension>
        </extensions>
      </trkpt>
      <trkpt lat="52.0786152966320514678955078125" lon="1.37317626737058162689208984375">
        <ele>-117.59999847412109375</ele>
        <time>2025-09-05T14:46:36.000Z</time>
        <extensions>
          <ns3:TrackPointExtension>
            <ns3:hr>173</ns3:hr>
            <ns3:cad>80</ns3:cad>
          </ns3:TrackPointExtension>
        </extensions>
      </trkpt>
      <trkpt lat="52.0785257779061794281005859375" lon="1.37328305281698703765869140625">
        <ele>-116.59999847412109375</ele>
        <time>2025-09-05T14:46:41.000Z</time>
        <extensions>
          <ns3:TrackPointExtension>
            <ns3:hr>174</ns3:hr>
            <ns3:cad>81</ns3:cad>
          </ns3:TrackPointExtension>
        </extensions>
      </trkpt>
      <trkpt lat="52.07849032245576381683349609375" lon="1.3733433187007904052734375">
        <ele>-116.1999969482421875</ele>
        <time>2025-09-05T14:46:43.000Z</time>
        <extensions>
          <ns3:TrackPointExtension>
            <ns3:hr>173</ns3:hr>
            <ns3:cad>81</ns3:cad>
          </ns3:TrackPointExtension>
        </extensions>
      </trkpt>
      <trkpt lat="52.07844103686511516571044921875" lon="1.3734407164156436920166015625">
        <ele>-115.59999847412109375</ele>
        <time>2025-09-05T14:46:47.000Z</time>
        <extensions>
          <ns3:TrackPointExtension>
            <ns3:hr>173</ns3:hr>
            <ns3:cad>81</ns3:cad>
          </ns3:TrackPointExtension>
        </extensions>
      </trkpt>
      <trkpt lat="52.07838806323707103729248046875" lon="1.37351321987807750701904296875">
        <ele>-115</ele>
        <time>2025-09-05T14:46:50.000Z</time>
        <extensions>
          <ns3:TrackPointExtension>
            <ns3:hr>172</ns3:hr>
            <ns3:cad>81</ns3:cad>
          </ns3:TrackPointExtension>
        </extensions>
      </trkpt>
      <trkpt lat="52.0783246122300624847412109375" lon="1.373627297580242156982421875">
        <ele>-114.40000152587890625</ele>
        <time>2025-09-05T14:46:54.000Z</time>
        <extensions>
          <ns3:TrackPointExtension>
            <ns3:hr>172</ns3:hr>
            <ns3:cad>81</ns3:cad>
          </ns3:TrackPointExtension>
        </extensions>
      </trkpt>
      <trkpt lat="52.07828513346612453460693359375" lon="1.3736703805625438690185546875">
        <ele>-114.1999969482421875</ele>
        <time>2025-09-05T14:46:56.000Z</time>
        <extensions>
          <ns3:TrackPointExtension>
            <ns3:hr>173</ns3:hr>
            <ns3:cad>80</ns3:cad>
          </ns3:TrackPointExtension>
        </extensions>
      </trkpt>
      <trkpt lat="52.07819142378866672515869140625" lon="1.37380826286971569061279296875">
        <ele>-113.40000152587890625</ele>
        <time>2025-09-05T14:47:02.000Z</time>
        <extensions>
          <ns3:TrackPointExtension>
            <ns3:hr>173</ns3:hr>
            <ns3:cad>81</ns3:cad>
          </ns3:TrackPointExtension>
        </extensions>
      </trkpt>
      <trkpt lat="52.07817885093390941619873046875" lon="1.37382653541862964630126953125">
        <ele>-113.1999969482421875</ele>
        <time>2025-09-05T14:47:03.000Z</time>
        <extensions>
          <ns3:TrackPointExtension>
            <ns3:hr>173</ns3:hr>
            <ns3:cad>81</ns3:cad>
          </ns3:TrackPointExtension>
        </extensions>
      </trkpt>
      <trkpt lat="52.07804046571254730224609375" lon="1.3739798404276371002197265625">
        <ele>-112.40000152587890625</ele>
        <time>2025-09-05T14:47:11.000Z</time>
        <extensions>
          <ns3:TrackPointExtension>
            <ns3:hr>171</ns3:hr>
            <ns3:cad>80</ns3:cad>
          </ns3:TrackPointExtension>
        </extensions>
      </trkpt>
      <trkpt lat="52.077944912016391754150390625" lon="1.37415468692779541015625">
        <ele>-111.59999847412109375</ele>
        <time>2025-09-05T14:47:17.000Z</time>
        <extensions>
          <ns3:TrackPointExtension>
            <ns3:hr>172</ns3:hr>
            <ns3:cad>80</ns3:cad>
          </ns3:TrackPointExtension>
        </extensions>
      </trkpt>
      <trkpt lat="52.07789671607315540313720703125" lon="1.37423573993146419525146484375">
        <ele>-111.1999969482421875</ele>
        <time>2025-09-05T14:47:21.000Z</time>
        <extensions>
          <ns3:TrackPointExtension>
            <ns3:hr>171</ns3:hr>
            <ns3:cad>78</ns3:cad>
          </ns3:TrackPointExtension>
        </extensions>
      </trkpt>
      <trkpt lat="52.0778548903763294219970703125" lon="1.3742852769792079925537109375">
        <ele>-111</ele>
        <time>2025-09-05T14:47:24.000Z</time>
        <extensions>
          <ns3:TrackPointExtension>
            <ns3:hr>170</ns3:hr>
            <ns3:cad>58</ns3:cad>
          </ns3:TrackPointExtension>
        </extensions>
      </trkpt>
      <trkpt lat="52.0778149925172328948974609375" lon="1.37438728474080562591552734375">
        <ele>-110.59999847412109375</ele>
        <time>2025-09-05T14:47:31.000Z</time>
        <extensions>
          <ns3:TrackPointExtension>
            <ns3:hr>168</ns3:hr>
            <ns3:cad>0</ns3:cad>
          </ns3:TrackPointExtension>
        </extensions>
      </trkpt>
      <trkpt lat="52.07777869887650012969970703125" lon="1.37439030222594738006591796875">
        <ele>-110.40000152587890625</ele>
        <time>2025-09-05T14:47:36.000Z</time>
        <extensions>
          <ns3:TrackPointExtension>
            <ns3:hr>164</ns3:hr>
            <ns3:cad>54</ns3:cad>
          </ns3:TrackPointExtension>
        </extensions>
      </trkpt>
      <trkpt lat="52.07777383737266063690185546875" lon="1.3743952475488185882568359375">
        <ele>-110.40000152587890625</ele>
        <time>2025-09-05T14:47:37.000Z</time>
        <extensions>
          <ns3:TrackPointExtension>
            <ns3:hr>164</ns3:hr>
            <ns3:cad>54</ns3:cad>
          </ns3:TrackPointExtension>
        </extensions>
      </trkpt>
      <trkpt lat="52.07774668000638484954833984375" lon="1.37442902661859989166259765625">
        <ele>-110.40000152587890625</ele>
        <time>2025-09-05T14:47:39.000Z</time>
        <extensions>
          <ns3:TrackPointExtension>
            <ns3:hr>163</ns3:hr>
            <ns3:cad>54</ns3:cad>
          </ns3:TrackPointExtension>
        </extensions>
      </trkpt>
      <trkpt lat="52.0777211152017116546630859375" lon="1.37445333413779735565185546875">
        <ele>-110.40000152587890625</ele>
        <time>2025-09-05T14:47:41.000Z</time>
        <extensions>
          <ns3:TrackPointExtension>
            <ns3:hr>160</ns3:hr>
            <ns3:cad>58</ns3:cad>
          </ns3:TrackPointExtension>
        </extensions>
      </trkpt>
      <trkpt lat="52.0776973105967044830322265625" lon="1.3744706846773624420166015625">
        <ele>-110.40000152587890625</ele>
        <time>2025-09-05T14:47:43.000Z</time>
        <extensions>
          <ns3:TrackPointExtension>
            <ns3:hr>159</ns3:hr>
            <ns3:cad>58</ns3:cad>
          </ns3:TrackPointExtension>
        </extensions>
      </trkpt>
      <trkpt lat="52.07762296311557292938232421875" lon="1.37448526918888092041015625">
        <ele>-110.8000030517578125</ele>
        <time>2025-09-05T14:47:50.000Z</time>
        <extensions>
          <ns3:TrackPointExtension>
            <ns3:hr>158</ns3:hr>
            <ns3:cad>60</ns3:cad>
          </ns3:TrackPointExtension>
        </extensions>
      </trkpt>
      <trkpt lat="52.0776094682514667510986328125" lon="1.3745028711855411529541015625">
        <ele>-111</ele>
        <time>2025-09-05T14:47:51.000Z</time>
        <extensions>
          <ns3:TrackPointExtension>
            <ns3:hr>157</ns3:hr>
            <ns3:cad>59</ns3:cad>
          </ns3:TrackPointExtension>
        </extensions>
      </trkpt>
      <trkpt lat="52.07756496034562587738037109375" lon="1.37458157725632190704345703125">
        <ele>-111.59999847412109375</ele>
        <time>2025-09-05T14:47:56.000Z</time>
        <extensions>
          <ns3:TrackPointExtension>
            <ns3:hr>156</ns3:hr>
            <ns3:cad>59</ns3:cad>
          </ns3:TrackPointExtension>
        </extensions>
      </trkpt>
      <trkpt lat="52.07751198671758174896240234375" lon="1.37467042542994022369384765625">
        <ele>-112.1999969482421875</ele>
        <time>2025-09-05T14:48:02.000Z</time>
        <extensions>
          <ns3:TrackPointExtension>
            <ns3:hr>153</ns3:hr>
            <ns3:cad>58</ns3:cad>
          </ns3:TrackPointExtension>
        </extensions>
      </trkpt>
      <trkpt lat="52.07750259898602962493896484375" lon="1.37468601576983928680419921875">
        <ele>-112.40000152587890625</ele>
        <time>2025-09-05T14:48:03.000Z</time>
        <extensions>
          <ns3:TrackPointExtension>
            <ns3:hr>153</ns3:hr>
            <ns3:cad>58</ns3:cad>
          </ns3:TrackPointExtension>
        </extensions>
      </trkpt>
      <trkpt lat="52.0774470269680023193359375" lon="1.37480135075747966766357421875">
        <ele>-113.1999969482421875</ele>
        <time>2025-09-05T14:48:09.000Z</time>
        <extensions>
          <ns3:TrackPointExtension>
            <ns3:hr>150</ns3:hr>
            <ns3:cad>58</ns3:cad>
          </ns3:TrackPointExtension>
        </extensions>
      </trkpt>
      <trkpt lat="52.07742615602910518646240234375" lon="1.37482766993343830108642578125">
        <ele>-113.40000152587890625</ele>
        <time>2025-09-05T14:48:11.000Z</time>
        <extensions>
          <ns3:TrackPointExtension>
            <ns3:hr>151</ns3:hr>
            <ns3:cad>58</ns3:cad>
          </ns3:TrackPointExtension>
        </extensions>
      </trkpt>
      <trkpt lat="52.0774153433740139007568359375" lon="1.3748398236930370330810546875">
        <ele>-113.59999847412109375</ele>
        <time>2025-09-05T14:48:12.000Z</time>
        <extensions>
          <ns3:TrackPointExtension>
            <ns3:hr>151</ns3:hr>
            <ns3:cad>58</ns3:cad>
          </ns3:TrackPointExtension>
        </extensions>
      </trkpt>
      <trkpt lat="52.07733345218002796173095703125" lon="1.37494719587266445159912109375">
        <ele>-114.40000152587890625</ele>
        <time>2025-09-05T14:48:19.000Z</time>
        <extensions>
          <ns3:TrackPointExtension>
            <ns3:hr>151</ns3:hr>
            <ns3:cad>59</ns3:cad>
          </ns3:TrackPointExtension>
        </extensions>
      </trkpt>
      <trkpt lat="52.0773218013346195220947265625" lon="1.37496161274611949920654296875">
        <ele>-114.59999847412109375</ele>
        <time>2025-09-05T14:48:20.000Z</time>
        <extensions>
          <ns3:TrackPointExtension>
            <ns3:hr>151</ns3:hr>
            <ns3:cad>59</ns3:cad>
          </ns3:TrackPointExtension>
        </extensions>
      </trkpt>
      <trkpt lat="52.0772463642060756683349609375" lon="1.3751028478145599365234375">
        <ele>-115.40000152587890625</ele>
        <time>2025-09-05T14:48:27.000Z</time>
        <extensions>
          <ns3:TrackPointExtension>
            <ns3:hr>152</ns3:hr>
            <ns3:cad>60</ns3:cad>
          </ns3:TrackPointExtension>
        </extensions>
      </trkpt>
      <trkpt lat="52.077233791351318359375" lon="1.3751201145350933074951171875">
        <ele>-115.59999847412109375</ele>
        <time>2025-09-05T14:48:28.000Z</time>
        <extensions>
          <ns3:TrackPointExtension>
            <ns3:hr>152</ns3:hr>
            <ns3:cad>0</ns3:cad>
          </ns3:TrackPointExtension>
        </extensions>
      </trkpt>
      <trkpt lat="52.07714460790157318115234375" lon="1.37522195465862751007080078125">
        <ele>-116.1999969482421875</ele>
        <time>2025-09-05T14:48:34.000Z</time>
        <extensions>
          <ns3:TrackPointExtension>
            <ns3:hr>151</ns3:hr>
            <ns3:cad>78</ns3:cad>
          </ns3:TrackPointExtension>
        </extensions>
      </trkpt>
      <trkpt lat="52.0771042071282863616943359375" lon="1.375257410109043121337890625">
        <ele>-116.59999847412109375</ele>
        <time>2025-09-05T14:48:36.000Z</time>
        <extensions>
          <ns3:TrackPointExtension>
            <ns3:hr>150</ns3:hr>
            <ns3:cad>78</ns3:cad>
          </ns3:TrackPointExtension>
        </extensions>
      </trkpt>
      <trkpt lat="52.07701007835566997528076171875" lon="1.37538607232272624969482421875">
        <ele>-117.1999969482421875</ele>
        <time>2025-09-05T14:48:41.000Z</time>
        <extensions>
          <ns3:TrackPointExtension>
            <ns3:hr>153</ns3:hr>
            <ns3:cad>81</ns3:cad>
          </ns3:TrackPointExtension>
        </extensions>
      </trkpt>
      <trkpt lat="52.076992727816104888916015625" lon="1.37540929019451141357421875">
        <ele>-117.40000152587890625</ele>
        <time>2025-09-05T14:48:42.000Z</time>
        <extensions>
          <ns3:TrackPointExtension>
            <ns3:hr>157</ns3:hr>
            <ns3:cad>81</ns3:cad>
          </ns3:TrackPointExtension>
        </extensions>
      </trkpt>
      <trkpt lat="52.07694436423480510711669921875" lon="1.37546737678349018096923828125">
        <ele>-117.59999847412109375</ele>
        <time>2025-09-05T14:48:45.000Z</time>
        <extensions>
          <ns3:TrackPointExtension>
            <ns3:hr>158</ns3:hr>
            <ns3:cad>82</ns3:cad>
          </ns3:TrackPointExtension>
        </extensions>
      </trkpt>
      <trkpt lat="52.07691184245049953460693359375" lon="1.37551330961287021636962890625">
        <ele>-117.8000030517578125</ele>
        <time>2025-09-05T14:48:47.000Z</time>
        <extensions>
          <ns3:TrackPointExtension>
            <ns3:hr>163</ns3:hr>
            <ns3:cad>84</ns3:cad>
          </ns3:TrackPointExtension>
        </extensions>
      </trkpt>
      <trkpt lat="52.07689776085317134857177734375" lon="1.37552772648632526397705078125">
        <ele>-118</ele>
        <time>2025-09-05T14:48:48.000Z</time>
        <extensions>
          <ns3:TrackPointExtension>
            <ns3:hr>161</ns3:hr>
            <ns3:cad>84</ns3:cad>
          </ns3:TrackPointExtension>
        </extensions>
      </trkpt>
      <trkpt lat="52.0768091641366481781005859375" lon="1.3756384514272212982177734375">
        <ele>-118.59999847412109375</ele>
        <time>2025-09-05T14:48:54.000Z</time>
        <extensions>
          <ns3:TrackPointExtension>
            <ns3:hr>165</ns3:hr>
            <ns3:cad>0</ns3:cad>
          </ns3:TrackPointExtension>
        </extensions>
      </trkpt>
      <trkpt lat="52.07679365761578083038330078125" lon="1.37565898708999156951904296875">
        <ele>-118.59999847412109375</ele>
        <time>2025-09-05T14:48:55.000Z</time>
        <extensions>
          <ns3:TrackPointExtension>
            <ns3:hr>164</ns3:hr>
            <ns3:cad>0</ns3:cad>
          </ns3:TrackPointExtension>
        </extensions>
      </trkpt>
      <trkpt lat="52.0767773129045963287353515625" lon="1.37568010948598384857177734375">
        <ele>-118.8000030517578125</ele>
        <time>2025-09-05T14:48:56.000Z</time>
        <extensions>
          <ns3:TrackPointExtension>
            <ns3:hr>165</ns3:hr>
            <ns3:cad>0</ns3:cad>
          </ns3:TrackPointExtension>
        </extensions>
      </trkpt>
      <trkpt lat="52.07668905146420001983642578125" lon="1.3758248649537563323974609375">
        <ele>-119.40000152587890625</ele>
        <time>2025-09-05T14:49:03.000Z</time>
        <extensions>
          <ns3:TrackPointExtension>
            <ns3:hr>165</ns3:hr>
            <ns3:cad>61</ns3:cad>
          </ns3:TrackPointExtension>
        </extensions>
      </trkpt>
      <trkpt lat="52.076666839420795440673828125" lon="1.3758647628128528594970703125">
        <ele>-119.8000030517578125</ele>
        <time>2025-09-05T14:49:05.000Z</time>
        <extensions>
          <ns3:TrackPointExtension>
            <ns3:hr>164</ns3:hr>
            <ns3:cad>62</ns3:cad>
          </ns3:TrackPointExtension>
        </extensions>
      </trkpt>
      <trkpt lat="52.07661696709692478179931640625" lon="1.375944055616855621337890625">
        <ele>-120.8000030517578125</ele>
        <time>2025-09-05T14:49:10.000Z</time>
        <extensions>
          <ns3:TrackPointExtension>
            <ns3:hr>167</ns3:hr>
            <ns3:cad>61</ns3:cad>
          </ns3:TrackPointExtension>
        </extensions>
      </trkpt>
      <trkpt lat="52.07661529071629047393798828125" lon="1.37595050968229770660400390625">
        <ele>-121</ele>
        <time>2025-09-05T14:49:11.000Z</time>
        <extensions>
          <ns3:TrackPointExtension>
            <ns3:hr>164</ns3:hr>
            <ns3:cad>61</ns3:cad>
          </ns3:TrackPointExtension>
        </extensions>
      </trkpt>
      <trkpt lat="52.07660640589892864227294921875" lon="1.37596341781318187713623046875">
        <ele>-121.40000152587890625</ele>
        <time>2025-09-05T14:49:13.000Z</time>
        <extensions>
          <ns3:TrackPointExtension>
            <ns3:hr>161</ns3:hr>
            <ns3:cad>61</ns3:cad>
          </ns3:TrackPointExtension>
        </extensions>
      </trkpt>
      <trkpt lat="52.0765748061239719390869140625" lon="1.3759982027113437652587890625">
        <ele>-121.8000030517578125</ele>
        <time>2025-09-05T14:49:15.000Z</time>
        <extensions>
          <ns3:TrackPointExtension>
            <ns3:hr>160</ns3:hr>
            <ns3:cad>61</ns3:cad>
          </ns3:TrackPointExtension>
        </extensions>
      </trkpt>
      <trkpt lat="52.07656265236437320709228515625" lon="1.375999711453914642333984375">
        <ele>-122.1999969482421875</ele>
        <time>2025-09-05T14:49:16.000Z</time>
        <extensions>
          <ns3:TrackPointExtension>
            <ns3:hr>159</ns3:hr>
            <ns3:cad>61</ns3:cad>
          </ns3:TrackPointExtension>
        </extensions>
      </trkpt>
      <trkpt lat="52.0765506662428379058837890625" lon="1.376013793051242828369140625">
        <ele>-122.40000152587890625</ele>
        <time>2025-09-05T14:49:17.000Z</time>
        <extensions>
          <ns3:TrackPointExtension>
            <ns3:hr>160</ns3:hr>
            <ns3:cad>61</ns3:cad>
          </ns3:TrackPointExtension>
        </extensions>
      </trkpt>
      <trkpt lat="52.076525352895259857177734375" lon="1.37604271061718463897705078125">
        <ele>-123</ele>
        <time>2025-09-05T14:49:19.000Z</time>
        <extensions>
          <ns3:TrackPointExtension>
            <ns3:hr>162</ns3:hr>
            <ns3:cad>62</ns3:cad>
          </ns3:TrackPointExtension>
        </extensions>
      </trkpt>
      <trkpt lat="52.07647782750427722930908203125" lon="1.3761101849377155303955078125">
        <ele>-124.1999969482421875</ele>
        <time>2025-09-05T14:49:23.000Z</time>
        <extensions>
          <ns3:TrackPointExtension>
            <ns3:hr>162</ns3:hr>
            <ns3:cad>61</ns3:cad>
          </ns3:TrackPointExtension>
        </extensions>
      </trkpt>
      <trkpt lat="52.0764626562595367431640625" lon="1.37615301646292209625244140625">
        <ele>-124.8000030517578125</ele>
        <time>2025-09-05T14:49:25.000Z</time>
        <extensions>
          <ns3:TrackPointExtension>
            <ns3:hr>159</ns3:hr>
            <ns3:cad>61</ns3:cad>
          </ns3:TrackPointExtension>
        </extensions>
      </trkpt>
      <trkpt lat="52.07644698210060596466064453125" lon="1.37617363594472408294677734375">
        <ele>-125.40000152587890625</ele>
        <time>2025-09-05T14:49:27.000Z</time>
        <extensions>
          <ns3:TrackPointExtension>
            <ns3:hr>157</ns3:hr>
            <ns3:cad>61</ns3:cad>
          </ns3:TrackPointExtension>
        </extensions>
      </trkpt>
      <trkpt lat="52.0764370076358318328857421875" lon="1.376212947070598602294921875">
        <ele>-126.1999969482421875</ele>
        <time>2025-09-05T14:49:30.000Z</time>
        <extensions>
          <ns3:TrackPointExtension>
            <ns3:hr>160</ns3:hr>
            <ns3:cad>0</ns3:cad>
          </ns3:TrackPointExtension>
        </extensions>
      </trkpt>
      <trkpt lat="52.076430134475231170654296875" lon="1.3762282021343708038330078125">
        <ele>-126.59999847412109375</ele>
        <time>2025-09-05T14:49:31.000Z</time>
        <extensions>
          <ns3:TrackPointExtension>
            <ns3:hr>158</ns3:hr>
            <ns3:cad>0</ns3:cad>
          </ns3:TrackPointExtension>
        </extensions>
      </trkpt>
      <trkpt lat="52.076365761458873748779296875" lon="1.37635434977710247039794921875">
        <ele>-127.1999969482421875</ele>
        <time>2025-09-05T14:49:37.000Z</time>
        <extensions>
          <ns3:TrackPointExtension>
            <ns3:hr>156</ns3:hr>
            <ns3:cad>78</ns3:cad>
          </ns3:TrackPointExtension>
        </extensions>
      </trkpt>
      <trkpt lat="52.07626056857407093048095703125" lon="1.37656272388994693756103515625">
        <ele>-126.40000152587890625</ele>
        <time>2025-09-05T14:49:45.000Z</time>
        <extensions>
          <ns3:TrackPointExtension>
            <ns3:hr>159</ns3:hr>
            <ns3:cad>82</ns3:cad>
          </ns3:TrackPointExtension>
        </extensions>
      </trkpt>
      <trkpt lat="52.07624875009059906005859375" lon="1.37659289874136447906494140625">
        <ele>-126.1999969482421875</ele>
        <time>2025-09-05T14:49:46.000Z</time>
        <extensions>
          <ns3:TrackPointExtension>
            <ns3:hr>161</ns3:hr>
            <ns3:cad>82</ns3:cad>
          </ns3:TrackPointExtension>
        </extensions>
      </trkpt>
      <trkpt lat="52.07621044479310512542724609375" lon="1.3766932301223278045654296875">
        <ele>-125.40000152587890625</ele>
        <time>2025-09-05T14:49:49.000Z</time>
        <extensions>
          <ns3:TrackPointExtension>
            <ns3:hr>165</ns3:hr>
            <ns3:cad>82</ns3:cad>
          </ns3:TrackPointExtension>
        </extensions>
      </trkpt>
      <trkpt lat="52.07619703374803066253662109375" lon="1.37672114185988903045654296875">
        <ele>-125.1999969482421875</ele>
        <time>2025-09-05T14:49:50.000Z</time>
        <extensions>
          <ns3:TrackPointExtension>
            <ns3:hr>162</ns3:hr>
            <ns3:cad>81</ns3:cad>
          </ns3:TrackPointExtension>
        </extensions>
      </trkpt>
      <trkpt lat="52.076153866946697235107421875" lon="1.37681736610829830169677734375">
        <ele>-124.40000152587890625</ele>
        <time>2025-09-05T14:49:53.000Z</time>
        <extensions>
          <ns3:TrackPointExtension>
            <ns3:hr>164</ns3:hr>
            <ns3:cad>81</ns3:cad>
          </ns3:TrackPointExtension>
        </extensions>
      </trkpt>
      <trkpt lat="52.0761355943977832794189453125" lon="1.37685240246355533599853515625">
        <ele>-124.1999969482421875</ele>
        <time>2025-09-05T14:49:54.000Z</time>
        <extensions>
          <ns3:TrackPointExtension>
            <ns3:hr>165</ns3:hr>
            <ns3:cad>81</ns3:cad>
          </ns3:TrackPointExtension>
        </extensions>
      </trkpt>
      <trkpt lat="52.0760903321206569671630859375" lon="1.37693689204752445220947265625">
        <ele>-123.1999969482421875</ele>
        <time>2025-09-05T14:49:57.000Z</time>
        <extensions>
          <ns3:TrackPointExtension>
            <ns3:hr>168</ns3:hr>
            <ns3:cad>81</ns3:cad>
          </ns3:TrackPointExtension>
        </extensions>
      </trkpt>
      <trkpt lat="52.07603191025555133819580078125" lon="1.37703948654234409332275390625">
        <ele>-122</ele>
        <time>2025-09-05T14:50:01.000Z</time>
        <extensions>
          <ns3:TrackPointExtension>
            <ns3:hr>169</ns3:hr>
            <ns3:cad>82</ns3:cad>
          </ns3:TrackPointExtension>
        </extensions>
      </trkpt>
      <trkpt lat="52.07602017559111118316650390625" lon="1.3770653866231441497802734375">
        <ele>-121.8000030517578125</ele>
        <time>2025-09-05T14:50:02.000Z</time>
        <extensions>
          <ns3:TrackPointExtension>
            <ns3:hr>171</ns3:hr>
            <ns3:cad>82</ns3:cad>
          </ns3:TrackPointExtension>
        </extensions>
      </trkpt>
      <trkpt lat="52.075989581644535064697265625" lon="1.3771538995206356048583984375">
        <ele>-120.8000030517578125</ele>
        <time>2025-09-05T14:50:05.000Z</time>
        <extensions>
          <ns3:TrackPointExtension>
            <ns3:hr>172</ns3:hr>
            <ns3:cad>82</ns3:cad>
          </ns3:TrackPointExtension>
        </extensions>
      </trkpt>
      <trkpt lat="52.07592931576073169708251953125" lon="1.37730318121612071990966796875">
        <ele>-119.40000152587890625</ele>
        <time>2025-09-05T14:50:09.000Z</time>
        <extensions>
          <ns3:TrackPointExtension>
            <ns3:hr>174</ns3:hr>
            <ns3:cad>82</ns3:cad>
          </ns3:TrackPointExtension>
        </extensions>
      </trkpt>
      <trkpt lat="52.07586913369596004486083984375" lon="1.37742807157337665557861328125">
        <ele>-118.1999969482421875</ele>
        <time>2025-09-05T14:50:13.000Z</time>
        <extensions>
          <ns3:TrackPointExtension>
            <ns3:hr>175</ns3:hr>
            <ns3:cad>82</ns3:cad>
          </ns3:TrackPointExtension>
        </extensions>
      </trkpt>
      <trkpt lat="52.0758321695029735565185546875" lon="1.37754105962812900543212890625">
        <ele>-117.40000152587890625</ele>
        <time>2025-09-05T14:50:16.000Z</time>
        <extensions>
          <ns3:TrackPointExtension>
            <ns3:hr>174</ns3:hr>
            <ns3:cad>81</ns3:cad>
          </ns3:TrackPointExtension>
        </extensions>
      </trkpt>
      <trkpt lat="52.0758194290101528167724609375" lon="1.3775704801082611083984375">
        <ele>-117</ele>
        <time>2025-09-05T14:50:17.000Z</time>
        <extensions>
          <ns3:TrackPointExtension>
            <ns3:hr>174</ns3:hr>
            <ns3:cad>81</ns3:cad>
          </ns3:TrackPointExtension>
        </extensions>
      </trkpt>
      <trkpt lat="52.0757553912699222564697265625" lon="1.37770584784448146820068359375">
        <ele>-115.8000030517578125</ele>
        <time>2025-09-05T14:50:21.000Z</time>
        <extensions>
          <ns3:TrackPointExtension>
            <ns3:hr>173</ns3:hr>
            <ns3:cad>81</ns3:cad>
          </ns3:TrackPointExtension>
        </extensions>
      </trkpt>
      <trkpt lat="52.07572328858077526092529296875" lon="1.37777441181242465972900390625">
        <ele>-115.40000152587890625</ele>
        <time>2025-09-05T14:50:23.000Z</time>
        <extensions>
          <ns3:TrackPointExtension>
            <ns3:hr>173</ns3:hr>
            <ns3:cad>81</ns3:cad>
          </ns3:TrackPointExtension>
        </extensions>
      </trkpt>
      <trkpt lat="52.075696550309658050537109375" lon="1.3778462447226047515869140625">
        <ele>-114.8000030517578125</ele>
        <time>2025-09-05T14:50:25.000Z</time>
        <extensions>
          <ns3:TrackPointExtension>
            <ns3:hr>174</ns3:hr>
            <ns3:cad>80</ns3:cad>
          </ns3:TrackPointExtension>
        </extensions>
      </trkpt>
      <trkpt lat="52.07562790252268314361572265625" lon="1.3780024833977222442626953125">
        <ele>-113.8000030517578125</ele>
        <time>2025-09-05T14:50:29.000Z</time>
        <extensions>
          <ns3:TrackPointExtension>
            <ns3:hr>173</ns3:hr>
            <ns3:cad>81</ns3:cad>
          </ns3:TrackPointExtension>
        </extensions>
      </trkpt>
      <trkpt lat="52.075612060725688934326171875" lon="1.37804062105715274810791015625">
        <ele>-113.40000152587890625</ele>
        <time>2025-09-05T14:50:30.000Z</time>
        <extensions>
          <ns3:TrackPointExtension>
            <ns3:hr>173</ns3:hr>
            <ns3:cad>81</ns3:cad>
          </ns3:TrackPointExtension>
        </extensions>
      </trkpt>
      <trkpt lat="52.0755619369447231292724609375" lon="1.3781697861850261688232421875">
        <ele>-112.59999847412109375</ele>
        <time>2025-09-05T14:50:34.000Z</time>
        <extensions>
          <ns3:TrackPointExtension>
            <ns3:hr>173</ns3:hr>
            <ns3:cad>81</ns3:cad>
          </ns3:TrackPointExtension>
        </extensions>
      </trkpt>
      <trkpt lat="52.07550988532602787017822265625" lon="1.3782371766865253448486328125">
        <ele>-111.8000030517578125</ele>
        <time>2025-09-05T14:50:37.000Z</time>
        <extensions>
          <ns3:TrackPointExtension>
            <ns3:hr>173</ns3:hr>
            <ns3:cad>81</ns3:cad>
          </ns3:TrackPointExtension>
        </extensions>
      </trkpt>
      <trkpt lat="52.07548297941684722900390625" lon="1.3782857917249202728271484375">
        <ele>-111.40000152587890625</ele>
        <time>2025-09-05T14:50:39.000Z</time>
        <extensions>
          <ns3:TrackPointExtension>
            <ns3:hr>173</ns3:hr>
            <ns3:cad>81</ns3:cad>
          </ns3:TrackPointExtension>
        </extensions>
      </trkpt>
      <trkpt lat="52.07542137242853641510009765625" lon="1.3784209080040454864501953125">
        <ele>-110.40000152587890625</ele>
        <time>2025-09-05T14:50:44.000Z</time>
        <extensions>
          <ns3:TrackPointExtension>
            <ns3:hr>172</ns3:hr>
            <ns3:cad>80</ns3:cad>
          </ns3:TrackPointExtension>
        </extensions>
      </trkpt>
      <trkpt lat="52.07540729083120822906494140625" lon="1.3784571178257465362548828125">
        <ele>-110.1999969482421875</ele>
        <time>2025-09-05T14:50:45.000Z</time>
        <extensions>
          <ns3:TrackPointExtension>
            <ns3:hr>173</ns3:hr>
            <ns3:cad>80</ns3:cad>
          </ns3:TrackPointExtension>
        </extensions>
      </trkpt>
      <trkpt lat="52.07533889450132846832275390625" lon="1.37861184775829315185546875">
        <ele>-109.1999969482421875</ele>
        <time>2025-09-05T14:50:50.000Z</time>
        <extensions>
          <ns3:TrackPointExtension>
            <ns3:hr>174</ns3:hr>
            <ns3:cad>80</ns3:cad>
          </ns3:TrackPointExtension>
        </extensions>
      </trkpt>
      <trkpt lat="52.075307630002498626708984375" lon="1.37866607867181301116943359375">
        <ele>-109</ele>
        <time>2025-09-05T14:50:52.000Z</time>
        <extensions>
          <ns3:TrackPointExtension>
            <ns3:hr>173</ns3:hr>
            <ns3:cad>80</ns3:cad>
          </ns3:TrackPointExtension>
        </extensions>
      </trkpt>
      <trkpt lat="52.0752601884305477142333984375" lon="1.37879331596195697784423828125">
        <ele>-108.1999969482421875</ele>
        <time>2025-09-05T14:50:56.000Z</time>
        <extensions>
          <ns3:TrackPointExtension>
            <ns3:hr>175</ns3:hr>
            <ns3:cad>80</ns3:cad>
          </ns3:TrackPointExtension>
        </extensions>
      </trkpt>
      <trkpt lat="52.075243927538394927978515625" lon="1.3788326270878314971923828125">
        <ele>-107.8000030517578125</ele>
        <time>2025-09-05T14:50:58.000Z</time>
        <extensions>
          <ns3:TrackPointExtension>
            <ns3:hr>174</ns3:hr>
            <ns3:cad>80</ns3:cad>
          </ns3:TrackPointExtension>
        </extensions>
      </trkpt>
      <trkpt lat="52.0751921273767948150634765625" lon="1.37896455824375152587890625">
        <ele>-107</ele>
        <time>2025-09-05T14:51:03.000Z</time>
        <extensions>
          <ns3:TrackPointExtension>
            <ns3:hr>173</ns3:hr>
            <ns3:cad>80</ns3:cad>
          </ns3:TrackPointExtension>
        </extensions>
      </trkpt>
      <trkpt lat="52.07516723312437534332275390625" lon="1.379007808864116668701171875">
        <ele>-106.8000030517578125</ele>
        <time>2025-09-05T14:51:05.000Z</time>
        <extensions>
          <ns3:TrackPointExtension>
            <ns3:hr>174</ns3:hr>
            <ns3:cad>80</ns3:cad>
          </ns3:TrackPointExtension>
        </extensions>
      </trkpt>
      <trkpt lat="52.07511107437312602996826171875" lon="1.379086934030055999755859375">
        <ele>-106</ele>
        <time>2025-09-05T14:51:10.000Z</time>
        <extensions>
          <ns3:TrackPointExtension>
            <ns3:hr>174</ns3:hr>
            <ns3:cad>80</ns3:cad>
          </ns3:TrackPointExtension>
        </extensions>
      </trkpt>
      <trkpt lat="52.0750885270535945892333984375" lon="1.37911216355860233306884765625">
        <ele>-105.8000030517578125</ele>
        <time>2025-09-05T14:51:12.000Z</time>
        <extensions>
          <ns3:TrackPointExtension>
            <ns3:hr>175</ns3:hr>
            <ns3:cad>80</ns3:cad>
          </ns3:TrackPointExtension>
        </extensions>
      </trkpt>
      <trkpt lat="52.07497595809400081634521484375" lon="1.37916932813823223114013671875">
        <ele>-105.1999969482421875</ele>
        <time>2025-09-05T14:51:20.000Z</time>
        <extensions>
          <ns3:TrackPointExtension>
            <ns3:hr>175</ns3:hr>
            <ns3:cad>60</ns3:cad>
          </ns3:TrackPointExtension>
        </extensions>
      </trkpt>
      <trkpt lat="52.0749329589307308197021484375" lon="1.3791990838944911956787109375">
        <ele>-105.40000152587890625</ele>
        <time>2025-09-05T14:51:23.000Z</time>
        <extensions>
          <ns3:TrackPointExtension>
            <ns3:hr>171</ns3:hr>
            <ns3:cad>60</ns3:cad>
          </ns3:TrackPointExtension>
        </extensions>
      </trkpt>
      <trkpt lat="52.07490521483123302459716796875" lon="1.37923655100166797637939453125">
        <ele>-105.40000152587890625</ele>
        <time>2025-09-05T14:51:25.000Z</time>
        <extensions>
          <ns3:TrackPointExtension>
            <ns3:hr>168</ns3:hr>
            <ns3:cad>59</ns3:cad>
          </ns3:TrackPointExtension>
        </extensions>
      </trkpt>
      <trkpt lat="52.07486364059150218963623046875" lon="1.37928935699164867401123046875">
        <ele>-105.59999847412109375</ele>
        <time>2025-09-05T14:51:28.000Z</time>
        <extensions>
          <ns3:TrackPointExtension>
            <ns3:hr>168</ns3:hr>
            <ns3:cad>60</ns3:cad>
          </ns3:TrackPointExtension>
        </extensions>
      </trkpt>
      <trkpt lat="52.0748514868319034576416015625" lon="1.37930327095091342926025390625">
        <ele>-105.8000030517578125</ele>
        <time>2025-09-05T14:51:29.000Z</time>
        <extensions>
          <ns3:TrackPointExtension>
            <ns3:hr>165</ns3:hr>
            <ns3:cad>60</ns3:cad>
          </ns3:TrackPointExtension>
        </extensions>
      </trkpt>
      <trkpt lat="52.07477646879851818084716796875" lon="1.379355490207672119140625">
        <ele>-106.40000152587890625</ele>
        <time>2025-09-05T14:51:35.000Z</time>
        <extensions>
          <ns3:TrackPointExtension>
            <ns3:hr>162</ns3:hr>
            <ns3:cad>58</ns3:cad>
          </ns3:TrackPointExtension>
        </extensions>
      </trkpt>
      <trkpt lat="52.0747460424900054931640625" lon="1.3794022612273693084716796875">
        <ele>-106.8000030517578125</ele>
        <time>2025-09-05T14:51:38.000Z</time>
        <extensions>
          <ns3:TrackPointExtension>
            <ns3:hr>161</ns3:hr>
            <ns3:cad>58</ns3:cad>
          </ns3:TrackPointExtension>
        </extensions>
      </trkpt>
      <trkpt lat="52.074742019176483154296875" lon="1.37941558845341205596923828125">
        <ele>-107</ele>
        <time>2025-09-05T14:51:39.000Z</time>
        <extensions>
          <ns3:TrackPointExtension>
            <ns3:hr>161</ns3:hr>
            <ns3:cad>115</ns3:cad>
          </ns3:TrackPointExtension>
        </extensions>
      </trkpt>
      <trkpt lat="52.07469415850937366485595703125" lon="1.3795043528079986572265625">
        <ele>-107.59999847412109375</ele>
        <time>2025-09-05T14:51:43.000Z</time>
        <extensions>
          <ns3:TrackPointExtension>
            <ns3:hr>162</ns3:hr>
            <ns3:cad>0</ns3:cad>
          </ns3:TrackPointExtension>
        </extensions>
      </trkpt>
      <trkpt lat="52.074661217629909515380859375" lon="1.3795454241335391998291015625">
        <ele>-107.8000030517578125</ele>
        <time>2025-09-05T14:51:45.000Z</time>
        <extensions>
          <ns3:TrackPointExtension>
            <ns3:hr>167</ns3:hr>
            <ns3:cad>80</ns3:cad>
          </ns3:TrackPointExtension>
        </extensions>
      </trkpt>
      <trkpt lat="52.07463012076914310455322265625" lon="1.37959362007677555084228515625">
        <ele>-108.1999969482421875</ele>
        <time>2025-09-05T14:51:47.000Z</time>
        <extensions>
          <ns3:TrackPointExtension>
            <ns3:hr>169</ns3:hr>
            <ns3:cad>81</ns3:cad>
          </ns3:TrackPointExtension>
        </extensions>
      </trkpt>
      <trkpt lat="52.07457505166530609130859375" lon="1.37964676134288311004638671875">
        <ele>-108.59999847412109375</ele>
        <time>2025-09-05T14:51:50.000Z</time>
        <extensions>
          <ns3:TrackPointExtension>
            <ns3:hr>168</ns3:hr>
            <ns3:cad>82</ns3:cad>
          </ns3:TrackPointExtension>
        </extensions>
      </trkpt>
      <trkpt lat="52.07451461814343929290771484375" lon="1.37969805859029293060302734375">
        <ele>-109</ele>
        <time>2025-09-05T14:51:54.000Z</time>
        <extensions>
          <ns3:TrackPointExtension>
            <ns3:hr>172</ns3:hr>
            <ns3:cad>82</ns3:cad>
          </ns3:TrackPointExtension>
        </extensions>
      </trkpt>
      <trkpt lat="52.0744927413761615753173828125" lon="1.3797201029956340789794921875">
        <ele>-109</ele>
        <time>2025-09-05T14:51:56.000Z</time>
        <extensions>
          <ns3:TrackPointExtension>
            <ns3:hr>173</ns3:hr>
            <ns3:cad>81</ns3:cad>
          </ns3:TrackPointExtension>
        </extensions>
      </trkpt>
      <trkpt lat="52.07446348853409290313720703125" lon="1.37975849211215972900390625">
        <ele>-109.1999969482421875</ele>
        <time>2025-09-05T14:51:58.000Z</time>
        <extensions>
          <ns3:TrackPointExtension>
            <ns3:hr>177</ns3:hr>
            <ns3:cad>81</ns3:cad>
          </ns3:TrackPointExtension>
        </extensions>
      </trkpt>
      <trkpt lat="52.07441814243793487548828125" lon="1.3798344321548938751220703125">
        <ele>-109.40000152587890625</ele>
        <time>2025-09-05T14:52:01.000Z</time>
        <extensions>
          <ns3:TrackPointExtension>
            <ns3:hr>176</ns3:hr>
            <ns3:cad>79</ns3:cad>
          </ns3:TrackPointExtension>
        </extensions>
      </trkpt>
      <trkpt lat="52.07432694733142852783203125" lon="1.37995974160730838775634765625">
        <ele>-109.59999847412109375</ele>
        <time>2025-09-05T14:52:07.000Z</time>
        <extensions>
          <ns3:TrackPointExtension>
            <ns3:hr>175</ns3:hr>
            <ns3:cad>79</ns3:cad>
          </ns3:TrackPointExtension>
        </extensions>
      </trkpt>
      <trkpt lat="52.07424136810004711151123046875" lon="1.380111873149871826171875">
        <ele>-109.8000030517578125</ele>
        <time>2025-09-05T14:52:13.000Z</time>
        <extensions>
          <ns3:TrackPointExtension>
            <ns3:hr>178</ns3:hr>
            <ns3:cad>80</ns3:cad>
          </ns3:TrackPointExtension>
        </extensions>
      </trkpt>
      <trkpt lat="52.07422862760722637176513671875" lon="1.38013425283133983612060546875">
        <ele>-110</ele>
        <time>2025-09-05T14:52:14.000Z</time>
        <extensions>
          <ns3:TrackPointExtension>
            <ns3:hr>177</ns3:hr>
            <ns3:cad>81</ns3:cad>
          </ns3:TrackPointExtension>
        </extensions>
      </trkpt>
      <trkpt lat="52.07416467368602752685546875" lon="1.38025880791246891021728515625">
        <ele>-110</ele>
        <time>2025-09-05T14:52:19.000Z</time>
        <extensions>
          <ns3:TrackPointExtension>
            <ns3:hr>180</ns3:hr>
            <ns3:cad>80</ns3:cad>
          </ns3:TrackPointExtension>
        </extensions>
      </trkpt>
      <trkpt lat="52.0741396956145763397216796875" lon="1.38029501773416996002197265625">
        <ele>-110</ele>
        <time>2025-09-05T14:52:21.000Z</time>
        <extensions>
          <ns3:TrackPointExtension>
            <ns3:hr>180</ns3:hr>
            <ns3:cad>81</ns3:cad>
          </ns3:TrackPointExtension>
        </extensions>
      </trkpt>
      <trkpt lat="52.07412846386432647705078125" lon="1.38031496666371822357177734375">
        <ele>-110</ele>
        <time>2025-09-05T14:52:22.000Z</time>
        <extensions>
          <ns3:TrackPointExtension>
            <ns3:hr>177</ns3:hr>
            <ns3:cad>80</ns3:cad>
          </ns3:TrackPointExtension>
        </extensions>
      </trkpt>
      <trkpt lat="52.07401354797184467315673828125" lon="1.38048176653683185577392578125">
        <ele>-109.8000030517578125</ele>
        <time>2025-09-05T14:52:30.000Z</time>
        <extensions>
          <ns3:TrackPointExtension>
            <ns3:hr>178</ns3:hr>
            <ns3:cad>81</ns3:cad>
          </ns3:TrackPointExtension>
        </extensions>
      </trkpt>
      <trkpt lat="52.07390340976417064666748046875" lon="1.38063465245068073272705078125">
        <ele>-109.59999847412109375</ele>
        <time>2025-09-05T14:52:38.000Z</time>
        <extensions>
          <ns3:TrackPointExtension>
            <ns3:hr>179</ns3:hr>
            <ns3:cad>80</ns3:cad>
          </ns3:TrackPointExtension>
        </extensions>
      </trkpt>
      <trkpt lat="52.07383568398654460906982421875" lon="1.3807359896600246429443359375">
        <ele>-109.1999969482421875</ele>
        <time>2025-09-05T14:52:43.000Z</time>
        <extensions>
          <ns3:TrackPointExtension>
            <ns3:hr>176</ns3:hr>
            <ns3:cad>78</ns3:cad>
          </ns3:TrackPointExtension>
        </extensions>
      </trkpt>
      <trkpt lat="52.07378203980624675750732421875" lon="1.380790136754512786865234375">
        <ele>-109</ele>
        <time>2025-09-05T14:52:46.000Z</time>
        <extensions>
          <ns3:TrackPointExtension>
            <ns3:hr>176</ns3:hr>
            <ns3:cad>78</ns3:cad>
          </ns3:TrackPointExtension>
        </extensions>
      </trkpt>
      <trkpt lat="52.07364038564264774322509765625" lon="1.3809527456760406494140625">
        <ele>-108.59999847412109375</ele>
        <time>2025-09-05T14:52:53.000Z</time>
        <extensions>
          <ns3:TrackPointExtension>
            <ns3:hr>181</ns3:hr>
            <ns3:cad>80</ns3:cad>
          </ns3:TrackPointExtension>
        </extensions>
      </trkpt>
      <trkpt lat="52.07361876033246517181396484375" lon="1.38097998686134815216064453125">
        <ele>-108.59999847412109375</ele>
        <time>2025-09-05T14:52:54.000Z</time>
        <extensions>
          <ns3:TrackPointExtension>
            <ns3:hr>181</ns3:hr>
            <ns3:cad>80</ns3:cad>
          </ns3:TrackPointExtension>
        </extensions>
      </trkpt>
      <trkpt lat="52.07350350916385650634765625" lon="1.38109062798321247100830078125">
        <ele>-108.1999969482421875</ele>
        <time>2025-09-05T14:53:01.000Z</time>
        <extensions>
          <ns3:TrackPointExtension>
            <ns3:hr>183</ns3:hr>
            <ns3:cad>81</ns3:cad>
          </ns3:TrackPointExtension>
        </extensions>
      </trkpt>
      <trkpt lat="52.07347802817821502685546875" lon="1.3811302743852138519287109375">
        <ele>-108.1999969482421875</ele>
        <time>2025-09-05T14:53:03.000Z</time>
        <extensions>
          <ns3:TrackPointExtension>
            <ns3:hr>183</ns3:hr>
            <ns3:cad>79</ns3:cad>
          </ns3:TrackPointExtension>
        </extensions>
      </trkpt>
      <trkpt lat="52.07338959909975528717041015625" lon="1.381248794496059417724609375">
        <ele>-107.8000030517578125</ele>
        <time>2025-09-05T14:53:09.000Z</time>
        <extensions>
          <ns3:TrackPointExtension>
            <ns3:hr>184</ns3:hr>
            <ns3:cad>81</ns3:cad>
          </ns3:TrackPointExtension>
        </extensions>
      </trkpt>
      <trkpt lat="52.073279879987239837646484375" lon="1.38140109367668628692626953125">
        <ele>-107.1999969482421875</ele>
        <time>2025-09-05T14:53:16.000Z</time>
        <extensions>
          <ns3:TrackPointExtension>
            <ns3:hr>187</ns3:hr>
            <ns3:cad>81</ns3:cad>
          </ns3:TrackPointExtension>
        </extensions>
      </trkpt>
      <trkpt lat="52.07324241288006305694580078125" lon="1.38146814890205860137939453125">
        <ele>-107</ele>
        <time>2025-09-05T14:53:19.000Z</time>
        <extensions>
          <ns3:TrackPointExtension>
            <ns3:hr>187</ns3:hr>
            <ns3:cad>81</ns3:cad>
          </ns3:TrackPointExtension>
        </extensions>
      </trkpt>
      <trkpt lat="52.0731895230710506439208984375" lon="1.3815696537494659423828125">
        <ele>-106.8000030517578125</ele>
        <time>2025-09-05T14:53:23.000Z</time>
        <extensions>
          <ns3:TrackPointExtension>
            <ns3:hr>187</ns3:hr>
            <ns3:cad>80</ns3:cad>
          </ns3:TrackPointExtension>
        </extensions>
      </trkpt>
      <trkpt lat="52.07307209260761737823486328125" lon="1.38175397180020809173583984375">
        <ele>-106.8000030517578125</ele>
        <time>2025-09-05T14:53:31.000Z</time>
        <extensions>
          <ns3:TrackPointExtension>
            <ns3:hr>188</ns3:hr>
            <ns3:cad>80</ns3:cad>
          </ns3:TrackPointExtension>
        </extensions>
      </trkpt>
      <trkpt lat="52.07294384948909282684326171875" lon="1.38194927014410495758056640625">
        <ele>-106.8000030517578125</ele>
        <time>2025-09-05T14:53:40.000Z</time>
        <extensions>
          <ns3:TrackPointExtension>
            <ns3:hr>187</ns3:hr>
            <ns3:cad>80</ns3:cad>
          </ns3:TrackPointExtension>
        </extensions>
      </trkpt>
      <trkpt lat="52.0728658139705657958984375" lon="1.382060162723064422607421875">
        <ele>-106.8000030517578125</ele>
        <time>2025-09-05T14:53:46.000Z</time>
        <extensions>
          <ns3:TrackPointExtension>
            <ns3:hr>187</ns3:hr>
            <ns3:cad>80</ns3:cad>
          </ns3:TrackPointExtension>
        </extensions>
      </trkpt>
      <trkpt lat="52.07276062108576297760009765625" lon="1.38225537724792957305908203125">
        <ele>-106.59999847412109375</ele>
        <time>2025-09-05T14:53:53.000Z</time>
        <extensions>
          <ns3:TrackPointExtension>
            <ns3:hr>188</ns3:hr>
            <ns3:cad>81</ns3:cad>
          </ns3:TrackPointExtension>
        </extensions>
      </trkpt>
      <trkpt lat="52.07268032245337963104248046875" lon="1.38236182741820812225341796875">
        <ele>-106.40000152587890625</ele>
        <time>2025-09-05T14:53:58.000Z</time>
        <extensions>
          <ns3:TrackPointExtension>
            <ns3:hr>188</ns3:hr>
            <ns3:cad>82</ns3:cad>
          </ns3:TrackPointExtension>
        </extensions>
      </trkpt>
      <trkpt lat="52.072595246136188507080078125" lon="1.3824800960719585418701171875">
        <ele>-106</ele>
        <time>2025-09-05T14:54:03.000Z</time>
        <extensions>
          <ns3:TrackPointExtension>
            <ns3:hr>188</ns3:hr>
            <ns3:cad>80</ns3:cad>
          </ns3:TrackPointExtension>
        </extensions>
      </trkpt>
      <trkpt lat="52.072564065456390380859375" lon="1.38252896256744861602783203125">
        <ele>-105.8000030517578125</ele>
        <time>2025-09-05T14:54:05.000Z</time>
        <extensions>
          <ns3:TrackPointExtension>
            <ns3:hr>188</ns3:hr>
            <ns3:cad>81</ns3:cad>
          </ns3:TrackPointExtension>
        </extensions>
      </trkpt>
      <trkpt lat="52.07245468162000179290771484375" lon="1.3826899789273738861083984375">
        <ele>-105.1999969482421875</ele>
        <time>2025-09-05T14:54:12.000Z</time>
        <extensions>
          <ns3:TrackPointExtension>
            <ns3:hr>187</ns3:hr>
            <ns3:cad>81</ns3:cad>
          </ns3:TrackPointExtension>
        </extensions>
      </trkpt>
      <trkpt lat="52.07243842072784900665283203125" lon="1.382707245647907257080078125">
        <ele>-105</ele>
        <time>2025-09-05T14:54:13.000Z</time>
        <extensions>
          <ns3:TrackPointExtension>
            <ns3:hr>189</ns3:hr>
            <ns3:cad>81</ns3:cad>
          </ns3:TrackPointExtension>
        </extensions>
      </trkpt>
      <trkpt lat="52.07235074602067470550537109375" lon="1.38280548155307769775390625">
        <ele>-104.1999969482421875</ele>
        <time>2025-09-05T14:54:18.000Z</time>
        <extensions>
          <ns3:TrackPointExtension>
            <ns3:hr>190</ns3:hr>
            <ns3:cad>81</ns3:cad>
          </ns3:TrackPointExtension>
        </extensions>
      </trkpt>
      <trkpt lat="52.07231705076992511749267578125" lon="1.38285107910633087158203125">
        <ele>-103.8000030517578125</ele>
        <time>2025-09-05T14:54:20.000Z</time>
        <extensions>
          <ns3:TrackPointExtension>
            <ns3:hr>190</ns3:hr>
            <ns3:cad>81</ns3:cad>
          </ns3:TrackPointExtension>
        </extensions>
      </trkpt>
      <trkpt lat="52.07220087759196758270263671875" lon="1.38297856785356998443603515625">
        <ele>-102.8000030517578125</ele>
        <time>2025-09-05T14:54:26.000Z</time>
        <extensions>
          <ns3:TrackPointExtension>
            <ns3:hr>189</ns3:hr>
            <ns3:cad>81</ns3:cad>
          </ns3:TrackPointExtension>
        </extensions>
      </trkpt>
      <trkpt lat="52.07209409214556217193603515625" lon="1.38309440575540065765380859375">
        <ele>-101.8000030517578125</ele>
        <time>2025-09-05T14:54:32.000Z</time>
        <extensions>
          <ns3:TrackPointExtension>
            <ns3:hr>189</ns3:hr>
            <ns3:cad>81</ns3:cad>
          </ns3:TrackPointExtension>
        </extensions>
      </trkpt>
      <trkpt lat="52.0720770768821239471435546875" lon="1.383106224238872528076171875">
        <ele>-101.59999847412109375</ele>
        <time>2025-09-05T14:54:33.000Z</time>
        <extensions>
          <ns3:TrackPointExtension>
            <ns3:hr>189</ns3:hr>
            <ns3:cad>81</ns3:cad>
          </ns3:TrackPointExtension>
        </extensions>
      </trkpt>
      <trkpt lat="52.072003148496150970458984375" lon="1.38318903744220733642578125">
        <ele>-100.59999847412109375</ele>
        <time>2025-09-05T14:54:38.000Z</time>
        <extensions>
          <ns3:TrackPointExtension>
            <ns3:hr>190</ns3:hr>
            <ns3:cad>81</ns3:cad>
          </ns3:TrackPointExtension>
        </extensions>
      </trkpt>
      <trkpt lat="52.07198445685207843780517578125" lon="1.3832058012485504150390625">
        <ele>-100.40000152587890625</ele>
        <time>2025-09-05T14:54:39.000Z</time>
        <extensions>
          <ns3:TrackPointExtension>
            <ns3:hr>187</ns3:hr>
            <ns3:cad>81</ns3:cad>
          </ns3:TrackPointExtension>
        </extensions>
      </trkpt>
      <trkpt lat="52.07196719013154506683349609375" lon="1.38322524726390838623046875">
        <ele>-100.1999969482421875</ele>
        <time>2025-09-05T14:54:40.000Z</time>
        <extensions>
          <ns3:TrackPointExtension>
            <ns3:hr>187</ns3:hr>
            <ns3:cad>80</ns3:cad>
          </ns3:TrackPointExtension>
        </extensions>
      </trkpt>
      <trkpt lat="52.07191673107445240020751953125" lon="1.38327931053936481475830078125">
        <ele>-99.59999847412109375</ele>
        <time>2025-09-05T14:54:43.000Z</time>
        <extensions>
          <ns3:TrackPointExtension>
            <ns3:hr>187</ns3:hr>
            <ns3:cad>81</ns3:cad>
          </ns3:TrackPointExtension>
        </extensions>
      </trkpt>
      <trkpt lat="52.07185721956193447113037109375" lon="1.38336363248527050018310546875">
        <ele>-98.8000030517578125</ele>
        <time>2025-09-05T14:54:47.000Z</time>
        <extensions>
          <ns3:TrackPointExtension>
            <ns3:hr>186</ns3:hr>
            <ns3:cad>80</ns3:cad>
          </ns3:TrackPointExtension>
        </extensions>
      </trkpt>
      <trkpt lat="52.071843557059764862060546875" lon="1.383383162319660186767578125">
        <ele>-98.59999847412109375</ele>
        <time>2025-09-05T14:54:48.000Z</time>
        <extensions>
          <ns3:TrackPointExtension>
            <ns3:hr>186</ns3:hr>
            <ns3:cad>80</ns3:cad>
          </ns3:TrackPointExtension>
        </extensions>
      </trkpt>
      <trkpt lat="52.07176200114190578460693359375" lon="1.383465640246868133544921875">
        <ele>-97.40000152587890625</ele>
        <time>2025-09-05T14:54:53.000Z</time>
        <extensions>
          <ns3:TrackPointExtension>
            <ns3:hr>185</ns3:hr>
            <ns3:cad>80</ns3:cad>
          </ns3:TrackPointExtension>
        </extensions>
      </trkpt>
      <trkpt lat="52.07172763533890247344970703125" lon="1.38351283036172389984130859375">
        <ele>-97</ele>
        <time>2025-09-05T14:54:55.000Z</time>
        <extensions>
          <ns3:TrackPointExtension>
            <ns3:hr>185</ns3:hr>
            <ns3:cad>81</ns3:cad>
          </ns3:TrackPointExtension>
        </extensions>
      </trkpt>
      <trkpt lat="52.07166896201670169830322265625" lon="1.383564211428165435791015625">
        <ele>-96.1999969482421875</ele>
        <time>2025-09-05T14:54:58.000Z</time>
        <extensions>
          <ns3:TrackPointExtension>
            <ns3:hr>186</ns3:hr>
            <ns3:cad>81</ns3:cad>
          </ns3:TrackPointExtension>
        </extensions>
      </trkpt>
      <trkpt lat="52.07160157151520252227783203125" lon="1.38365163467824459075927734375">
        <ele>-95.1999969482421875</ele>
        <time>2025-09-05T14:55:02.000Z</time>
        <extensions>
          <ns3:TrackPointExtension>
            <ns3:hr>184</ns3:hr>
            <ns3:cad>81</ns3:cad>
          </ns3:TrackPointExtension>
        </extensions>
      </trkpt>
      <trkpt lat="52.07155756652355194091796875" lon="1.383684910833835601806640625">
        <ele>-94.1999969482421875</ele>
        <time>2025-09-05T14:55:06.000Z</time>
        <extensions>
          <ns3:TrackPointExtension>
            <ns3:hr>184</ns3:hr>
            <ns3:cad>81</ns3:cad>
          </ns3:TrackPointExtension>
        </extensions>
      </trkpt>
      <trkpt lat="52.07150870002806186676025390625" lon="1.38370729051530361175537109375">
        <ele>-93.1999969482421875</ele>
        <time>2025-09-05T14:55:10.000Z</time>
        <extensions>
          <ns3:TrackPointExtension>
            <ns3:hr>183</ns3:hr>
            <ns3:cad>59</ns3:cad>
          </ns3:TrackPointExtension>
        </extensions>
      </trkpt>
      <trkpt lat="52.07145790569484233856201171875" lon="1.3837269879877567291259765625">
        <ele>-92.40000152587890625</ele>
        <time>2025-09-05T14:55:14.000Z</time>
        <extensions>
          <ns3:TrackPointExtension>
            <ns3:hr>178</ns3:hr>
            <ns3:cad>58</ns3:cad>
          </ns3:TrackPointExtension>
        </extensions>
      </trkpt>
      <trkpt lat="52.071431167423725128173828125" lon="1.38372036628425121307373046875">
        <ele>-92</ele>
        <time>2025-09-05T14:55:16.000Z</time>
        <extensions>
          <ns3:TrackPointExtension>
            <ns3:hr>176</ns3:hr>
            <ns3:cad>59</ns3:cad>
          </ns3:TrackPointExtension>
        </extensions>
      </trkpt>
      <trkpt lat="52.0714172534644603729248046875" lon="1.383714415132999420166015625">
        <ele>-92</ele>
        <time>2025-09-05T14:55:17.000Z</time>
        <extensions>
          <ns3:TrackPointExtension>
            <ns3:hr>175</ns3:hr>
            <ns3:cad>59</ns3:cad>
          </ns3:TrackPointExtension>
        </extensions>
      </trkpt>
      <trkpt lat="52.07139152102172374725341796875" lon="1.38368600048124790191650390625">
        <ele>-91.8000030517578125</ele>
        <time>2025-09-05T14:55:20.000Z</time>
        <extensions>
          <ns3:TrackPointExtension>
            <ns3:hr>172</ns3:hr>
            <ns3:cad>0</ns3:cad>
          </ns3:TrackPointExtension>
        </extensions>
      </trkpt>
      <trkpt lat="52.07136637531220912933349609375" lon="1.38370661996304988861083984375">
        <ele>-91.59999847412109375</ele>
        <time>2025-09-05T14:55:23.000Z</time>
        <extensions>
          <ns3:TrackPointExtension>
            <ns3:hr>171</ns3:hr>
            <ns3:cad>0</ns3:cad>
          </ns3:TrackPointExtension>
        </extensions>
      </trkpt>
      <trkpt lat="52.07135514356195926666259765625" lon="1.3837135769426822662353515625">
        <ele>-91.59999847412109375</ele>
        <time>2025-09-05T14:55:24.000Z</time>
        <extensions>
          <ns3:TrackPointExtension>
            <ns3:hr>170</ns3:hr>
            <ns3:cad>0</ns3:cad>
          </ns3:TrackPointExtension>
        </extensions>
      </trkpt>
      <trkpt lat="52.0713039301335811614990234375" lon="1.38380527496337890625">
        <ele>-91.8000030517578125</ele>
        <time>2025-09-05T14:55:29.000Z</time>
        <extensions>
          <ns3:TrackPointExtension>
            <ns3:hr>169</ns3:hr>
            <ns3:cad>58</ns3:cad>
          </ns3:TrackPointExtension>
        </extensions>
      </trkpt>
      <trkpt lat="52.07123109139502048492431640625" lon="1.38390711508691310882568359375">
        <ele>-92.1999969482421875</ele>
        <time>2025-09-05T14:55:37.000Z</time>
        <extensions>
          <ns3:TrackPointExtension>
            <ns3:hr>170</ns3:hr>
            <ns3:cad>60</ns3:cad>
          </ns3:TrackPointExtension>
        </extensions>
      </trkpt>
      <trkpt lat="52.07116956822574138641357421875" lon="1.38402161188423633575439453125">
        <ele>-92.8000030517578125</ele>
        <time>2025-09-05T14:55:45.000Z</time>
        <extensions>
          <ns3:TrackPointExtension>
            <ns3:hr>167</ns3:hr>
            <ns3:cad>60</ns3:cad>
          </ns3:TrackPointExtension>
        </extensions>
      </trkpt>
      <trkpt lat="52.07115867175161838531494140625" lon="1.38403703458607196807861328125">
        <ele>-93</ele>
        <time>2025-09-05T14:55:46.000Z</time>
        <extensions>
          <ns3:TrackPointExtension>
            <ns3:hr>167</ns3:hr>
            <ns3:cad>59</ns3:cad>
          </ns3:TrackPointExtension>
        </extensions>
      </trkpt>
      <trkpt lat="52.07115096040070056915283203125" lon="1.38405404984951019287109375">
        <ele>-93</ele>
        <time>2025-09-05T14:55:47.000Z</time>
        <extensions>
          <ns3:TrackPointExtension>
            <ns3:hr>162</ns3:hr>
            <ns3:cad>59</ns3:cad>
          </ns3:TrackPointExtension>
        </extensions>
      </trkpt>
      <trkpt lat="52.071144841611385345458984375" lon="1.384070478379726409912109375">
        <ele>-93.1999969482421875</ele>
        <time>2025-09-05T14:55:48.000Z</time>
        <extensions>
          <ns3:TrackPointExtension>
            <ns3:hr>161</ns3:hr>
            <ns3:cad>59</ns3:cad>
          </ns3:TrackPointExtension>
        </extensions>
      </trkpt>
      <trkpt lat="52.0710953883826732635498046875" lon="1.38415572233498096466064453125">
        <ele>-93.8000030517578125</ele>
        <time>2025-09-05T14:55:54.000Z</time>
        <extensions>
          <ns3:TrackPointExtension>
            <ns3:hr>158</ns3:hr>
            <ns3:cad>61</ns3:cad>
          </ns3:TrackPointExtension>
        </extensions>
      </trkpt>
      <trkpt lat="52.0710732601583003997802734375" lon="1.3841883279383182525634765625">
        <ele>-94</ele>
        <time>2025-09-05T14:55:56.000Z</time>
        <extensions>
          <ns3:TrackPointExtension>
            <ns3:hr>158</ns3:hr>
            <ns3:cad>60</ns3:cad>
          </ns3:TrackPointExtension>
        </extensions>
      </trkpt>
      <trkpt lat="52.071063034236431121826171875" lon="1.38420693576335906982421875">
        <ele>-94.1999969482421875</ele>
        <time>2025-09-05T14:55:57.000Z</time>
        <extensions>
          <ns3:TrackPointExtension>
            <ns3:hr>157</ns3:hr>
            <ns3:cad>60</ns3:cad>
          </ns3:TrackPointExtension>
        </extensions>
      </trkpt>
      <trkpt lat="52.07099958322942256927490234375" lon="1.38429419137537479400634765625">
        <ele>-95</ele>
        <time>2025-09-05T14:56:04.000Z</time>
        <extensions>
          <ns3:TrackPointExtension>
            <ns3:hr>154</ns3:hr>
            <ns3:cad>60</ns3:cad>
          </ns3:TrackPointExtension>
        </extensions>
      </trkpt>
      <trkpt lat="52.07098818384110927581787109375" lon="1.38430709950625896453857421875">
        <ele>-95.1999969482421875</ele>
        <time>2025-09-05T14:56:05.000Z</time>
        <extensions>
          <ns3:TrackPointExtension>
            <ns3:hr>154</ns3:hr>
            <ns3:cad>60</ns3:cad>
          </ns3:TrackPointExtension>
        </extensions>
      </trkpt>
      <trkpt lat="52.070976197719573974609375" lon="1.3843264617025852203369140625">
        <ele>-95.1999969482421875</ele>
        <time>2025-09-05T14:56:06.000Z</time>
        <extensions>
          <ns3:TrackPointExtension>
            <ns3:hr>155</ns3:hr>
            <ns3:cad>59</ns3:cad>
          </ns3:TrackPointExtension>
        </extensions>
      </trkpt>
      <trkpt lat="52.07088223658502101898193359375" lon="1.38441145420074462890625">
        <ele>-96.1999969482421875</ele>
        <time>2025-09-05T14:56:13.000Z</time>
        <extensions>
          <ns3:TrackPointExtension>
            <ns3:hr>153</ns3:hr>
            <ns3:cad>59</ns3:cad>
          </ns3:TrackPointExtension>
        </extensions>
      </trkpt>
      <trkpt lat="52.070755921304225921630859375" lon="1.38453290797770023345947265625">
        <ele>-97.40000152587890625</ele>
        <time>2025-09-05T14:56:21.000Z</time>
        <extensions>
          <ns3:TrackPointExtension>
            <ns3:hr>152</ns3:hr>
            <ns3:cad>81</ns3:cad>
          </ns3:TrackPointExtension>
        </extensions>
      </trkpt>
      <trkpt lat="52.07070118747651576995849609375" lon="1.3846085965633392333984375">
        <ele>-97.8000030517578125</ele>
        <time>2025-09-05T14:56:24.000Z</time>
        <extensions>
          <ns3:TrackPointExtension>
            <ns3:hr>157</ns3:hr>
            <ns3:cad>81</ns3:cad>
          </ns3:TrackPointExtension>
        </extensions>
      </trkpt>
      <trkpt lat="52.0706685818731784820556640625" lon="1.384655870497226715087890625">
        <ele>-98</ele>
        <time>2025-09-05T14:56:26.000Z</time>
        <extensions>
          <ns3:TrackPointExtension>
            <ns3:hr>161</ns3:hr>
            <ns3:cad>81</ns3:cad>
          </ns3:TrackPointExtension>
        </extensions>
      </trkpt>
      <trkpt lat="52.0706395804882049560546875" lon="1.38469803147017955780029296875">
        <ele>-98.1999969482421875</ele>
        <time>2025-09-05T14:56:28.000Z</time>
        <extensions>
          <ns3:TrackPointExtension>
            <ns3:hr>164</ns3:hr>
            <ns3:cad>81</ns3:cad>
          </ns3:TrackPointExtension>
        </extensions>
      </trkpt>
      <trkpt lat="52.07057378254830837249755859375" lon="1.38479509390890598297119140625">
        <ele>-98.40000152587890625</ele>
        <time>2025-09-05T14:56:31.000Z</time>
        <extensions>
          <ns3:TrackPointExtension>
            <ns3:hr>168</ns3:hr>
            <ns3:cad>81</ns3:cad>
          </ns3:TrackPointExtension>
        </extensions>
      </trkpt>
      <trkpt lat="52.07053363323211669921875" lon="1.38484806753695011138916015625">
        <ele>-98.40000152587890625</ele>
        <time>2025-09-05T14:56:33.000Z</time>
        <extensions>
          <ns3:TrackPointExtension>
            <ns3:hr>168</ns3:hr>
            <ns3:cad>80</ns3:cad>
          </ns3:TrackPointExtension>
        </extensions>
      </trkpt>
      <trkpt lat="52.07047269679605960845947265625" lon="1.38491143472492694854736328125">
        <ele>-98.59999847412109375</ele>
        <time>2025-09-05T14:56:36.000Z</time>
        <extensions>
          <ns3:TrackPointExtension>
            <ns3:hr>170</ns3:hr>
            <ns3:cad>80</ns3:cad>
          </ns3:TrackPointExtension>
        </extensions>
      </trkpt>
      <trkpt lat="52.07040010951459407806396484375" lon="1.38500162400305271148681640625">
        <ele>-98.8000030517578125</ele>
        <time>2025-09-05T14:56:40.000Z</time>
        <extensions>
          <ns3:TrackPointExtension>
            <ns3:hr>173</ns3:hr>
            <ns3:cad>80</ns3:cad>
          </ns3:TrackPointExtension>
        </extensions>
      </trkpt>
      <trkpt lat="52.070330791175365447998046875" lon="1.38507354073226451873779296875">
        <ele>-99</ele>
        <time>2025-09-05T14:56:44.000Z</time>
        <extensions>
          <ns3:TrackPointExtension>
            <ns3:hr>174</ns3:hr>
            <ns3:cad>81</ns3:cad>
          </ns3:TrackPointExtension>
        </extensions>
      </trkpt>
      <trkpt lat="52.0702582038938999176025390625" lon="1.38516775332391262054443359375">
        <ele>-99</ele>
        <time>2025-09-05T14:56:49.000Z</time>
        <extensions>
          <ns3:TrackPointExtension>
            <ns3:hr>177</ns3:hr>
            <ns3:cad>82</ns3:cad>
          </ns3:TrackPointExtension>
        </extensions>
      </trkpt>
      <trkpt lat="52.0702059008181095123291015625" lon="1.385237239301204681396484375">
        <ele>-98.8000030517578125</ele>
        <time>2025-09-05T14:56:53.000Z</time>
        <extensions>
          <ns3:TrackPointExtension>
            <ns3:hr>178</ns3:hr>
            <ns3:cad>82</ns3:cad>
          </ns3:TrackPointExtension>
        </extensions>
      </trkpt>
      <trkpt lat="52.07007698714733123779296875" lon="1.38540311716496944427490234375">
        <ele>-98.40000152587890625</ele>
        <time>2025-09-05T14:57:00.000Z</time>
        <extensions>
          <ns3:TrackPointExtension>
            <ns3:hr>178</ns3:hr>
            <ns3:cad>81</ns3:cad>
          </ns3:TrackPointExtension>
        </extensions>
      </trkpt>
      <trkpt lat="52.06996324472129344940185546875" lon="1.385511495172977447509765625">
        <ele>-98</ele>
        <time>2025-09-05T14:57:06.000Z</time>
        <extensions>
          <ns3:TrackPointExtension>
            <ns3:hr>179</ns3:hr>
            <ns3:cad>81</ns3:cad>
          </ns3:TrackPointExtension>
        </extensions>
      </trkpt>
      <trkpt lat="52.06987456418573856353759765625" lon="1.3856169395148754119873046875">
        <ele>-97.40000152587890625</ele>
        <time>2025-09-05T14:57:13.000Z</time>
        <extensions>
          <ns3:TrackPointExtension>
            <ns3:hr>179</ns3:hr>
            <ns3:cad>81</ns3:cad>
          </ns3:TrackPointExtension>
        </extensions>
      </trkpt>
      <trkpt lat="52.069858051836490631103515625" lon="1.3856412470340728759765625">
        <ele>-97.40000152587890625</ele>
        <time>2025-09-05T14:57:14.000Z</time>
        <extensions>
          <ns3:TrackPointExtension>
            <ns3:hr>179</ns3:hr>
            <ns3:cad>81</ns3:cad>
          </ns3:TrackPointExtension>
        </extensions>
      </trkpt>
      <trkpt lat="52.06974900327622890472412109375" lon="1.38578474521636962890625">
        <ele>-97.1999969482421875</ele>
        <time>2025-09-05T14:57:20.000Z</time>
        <extensions>
          <ns3:TrackPointExtension>
            <ns3:hr>178</ns3:hr>
            <ns3:cad>79</ns3:cad>
          </ns3:TrackPointExtension>
        </extensions>
      </trkpt>
      <trkpt lat="52.0696288906037807464599609375" lon="1.38596286065876483917236328125">
        <ele>-97.40000152587890625</ele>
        <time>2025-09-05T14:57:28.000Z</time>
        <extensions>
          <ns3:TrackPointExtension>
            <ns3:hr>179</ns3:hr>
            <ns3:cad>81</ns3:cad>
          </ns3:TrackPointExtension>
        </extensions>
      </trkpt>
      <trkpt lat="52.06959963776171207427978515625" lon="1.3859941251575946807861328125">
        <ele>-97.40000152587890625</ele>
        <time>2025-09-05T14:57:30.000Z</time>
        <extensions>
          <ns3:TrackPointExtension>
            <ns3:hr>176</ns3:hr>
            <ns3:cad>81</ns3:cad>
          </ns3:TrackPointExtension>
        </extensions>
      </trkpt>
      <trkpt lat="52.0695323310792446136474609375" lon="1.386075429618358612060546875">
        <ele>-97.40000152587890625</ele>
        <time>2025-09-05T14:57:34.000Z</time>
        <extensions>
          <ns3:TrackPointExtension>
            <ns3:hr>179</ns3:hr>
            <ns3:cad>81</ns3:cad>
          </ns3:TrackPointExtension>
        </extensions>
      </trkpt>
      <trkpt lat="52.06949134357273578643798828125" lon="1.386142484843730926513671875">
        <ele>-97.40000152587890625</ele>
        <time>2025-09-05T14:57:36.000Z</time>
        <extensions>
          <ns3:TrackPointExtension>
            <ns3:hr>177</ns3:hr>
            <ns3:cad>81</ns3:cad>
          </ns3:TrackPointExtension>
        </extensions>
      </trkpt>
      <trkpt lat="52.06933292560279369354248046875" lon="1.38630903325974941253662109375">
        <ele>-97.59999847412109375</ele>
        <time>2025-09-05T14:57:45.000Z</time>
        <extensions>
          <ns3:TrackPointExtension>
            <ns3:hr>178</ns3:hr>
            <ns3:cad>80</ns3:cad>
          </ns3:TrackPointExtension>
        </extensions>
      </trkpt>
      <trkpt lat="52.06927509047091007232666015625" lon="1.38638933189213275909423828125">
        <ele>-97.59999847412109375</ele>
        <time>2025-09-05T14:57:49.000Z</time>
        <extensions>
          <ns3:TrackPointExtension>
            <ns3:hr>175</ns3:hr>
            <ns3:cad>80</ns3:cad>
          </ns3:TrackPointExtension>
        </extensions>
      </trkpt>
      <trkpt lat="52.06923619844019412994384765625" lon="1.3864480890333652496337890625">
        <ele>-97.59999847412109375</ele>
        <time>2025-09-05T14:57:51.000Z</time>
        <extensions>
          <ns3:TrackPointExtension>
            <ns3:hr>178</ns3:hr>
            <ns3:cad>81</ns3:cad>
          </ns3:TrackPointExtension>
        </extensions>
      </trkpt>
      <trkpt lat="52.0692014135420322418212890625" lon="1.3865205086767673492431640625">
        <ele>-97.59999847412109375</ele>
        <time>2025-09-05T14:57:53.000Z</time>
        <extensions>
          <ns3:TrackPointExtension>
            <ns3:hr>177</ns3:hr>
            <ns3:cad>81</ns3:cad>
          </ns3:TrackPointExtension>
        </extensions>
      </trkpt>
      <trkpt lat="52.0691013336181640625" lon="1.38670214451849460601806640625">
        <ele>-97.59999847412109375</ele>
        <time>2025-09-05T14:57:59.000Z</time>
        <extensions>
          <ns3:TrackPointExtension>
            <ns3:hr>177</ns3:hr>
            <ns3:cad>80</ns3:cad>
          </ns3:TrackPointExtension>
        </extensions>
      </trkpt>
      <trkpt lat="52.06896227784454822540283203125" lon="1.38685335405170917510986328125">
        <ele>-97.40000152587890625</ele>
        <time>2025-09-05T14:58:06.000Z</time>
        <extensions>
          <ns3:TrackPointExtension>
            <ns3:hr>175</ns3:hr>
            <ns3:cad>81</ns3:cad>
          </ns3:TrackPointExtension>
        </extensions>
      </trkpt>
      <trkpt lat="52.0688647963106632232666015625" lon="1.38694547116756439208984375">
        <ele>-97.40000152587890625</ele>
        <time>2025-09-05T14:58:11.000Z</time>
        <extensions>
          <ns3:TrackPointExtension>
            <ns3:hr>178</ns3:hr>
            <ns3:cad>81</ns3:cad>
          </ns3:TrackPointExtension>
        </extensions>
      </trkpt>
      <trkpt lat="52.06880603916943073272705078125" lon="1.38700422830879688262939453125">
        <ele>-97.40000152587890625</ele>
        <time>2025-09-05T14:58:14.000Z</time>
        <extensions>
          <ns3:TrackPointExtension>
            <ns3:hr>178</ns3:hr>
            <ns3:cad>81</ns3:cad>
          </ns3:TrackPointExtension>
        </extensions>
      </trkpt>
      <trkpt lat="52.06868114881217479705810546875" lon="1.3871424458920955657958984375">
        <ele>-97.40000152587890625</ele>
        <time>2025-09-05T14:58:21.000Z</time>
        <extensions>
          <ns3:TrackPointExtension>
            <ns3:hr>178</ns3:hr>
            <ns3:cad>81</ns3:cad>
          </ns3:TrackPointExtension>
        </extensions>
      </trkpt>
      <trkpt lat="52.06857285462319850921630859375" lon="1.3872493989765644073486328125">
        <ele>-97.59999847412109375</ele>
        <time>2025-09-05T14:58:28.000Z</time>
        <extensions>
          <ns3:TrackPointExtension>
            <ns3:hr>177</ns3:hr>
            <ns3:cad>80</ns3:cad>
          </ns3:TrackPointExtension>
        </extensions>
      </trkpt>
      <trkpt lat="52.06846900284290313720703125" lon="1.38733707368373870849609375">
        <ele>-97.59999847412109375</ele>
        <time>2025-09-05T14:58:37.000Z</time>
        <extensions>
          <ns3:TrackPointExtension>
            <ns3:hr>174</ns3:hr>
            <ns3:cad>58</ns3:cad>
          </ns3:TrackPointExtension>
        </extensions>
      </trkpt>
      <trkpt lat="52.06838862039148807525634765625" lon="1.3873994350433349609375">
        <ele>-97.8000030517578125</ele>
        <time>2025-09-05T14:58:43.000Z</time>
        <extensions>
          <ns3:TrackPointExtension>
            <ns3:hr>171</ns3:hr>
            <ns3:cad>59</ns3:cad>
          </ns3:TrackPointExtension>
        </extensions>
      </trkpt>
      <trkpt lat="52.06835559569299221038818359375" lon="1.38744897209107875823974609375">
        <ele>-98</ele>
        <time>2025-09-05T14:58:45.000Z</time>
        <extensions>
          <ns3:TrackPointExtension>
            <ns3:hr>172</ns3:hr>
            <ns3:cad>56</ns3:cad>
          </ns3:TrackPointExtension>
        </extensions>
      </trkpt>
      <trkpt lat="52.06831284798681735992431640625" lon="1.38749205507338047027587890625">
        <ele>-98.40000152587890625</ele>
        <time>2025-09-05T14:58:48.000Z</time>
        <extensions>
          <ns3:TrackPointExtension>
            <ns3:hr>172</ns3:hr>
            <ns3:cad>56</ns3:cad>
          </ns3:TrackPointExtension>
        </extensions>
      </trkpt>
      <trkpt lat="52.06826825626194477081298828125" lon="1.3875590264797210693359375">
        <ele>-99</ele>
        <time>2025-09-05T14:58:52.000Z</time>
        <extensions>
          <ns3:TrackPointExtension>
            <ns3:hr>172</ns3:hr>
            <ns3:cad>0</ns3:cad>
          </ns3:TrackPointExtension>
        </extensions>
      </trkpt>
      <trkpt lat="52.06822366453707218170166015625" lon="1.38761761598289012908935546875">
        <ele>-99.59999847412109375</ele>
        <time>2025-09-05T14:58:55.000Z</time>
        <extensions>
          <ns3:TrackPointExtension>
            <ns3:hr>171</ns3:hr>
            <ns3:cad>59</ns3:cad>
          </ns3:TrackPointExtension>
        </extensions>
      </trkpt>
      <trkpt lat="52.0681496523320674896240234375" lon="1.3877633772790431976318359375">
        <ele>-100.59999847412109375</ele>
        <time>2025-09-05T14:59:01.000Z</time>
        <extensions>
          <ns3:TrackPointExtension>
            <ns3:hr>169</ns3:hr>
            <ns3:cad>59</ns3:cad>
          </ns3:TrackPointExtension>
        </extensions>
      </trkpt>
      <trkpt lat="52.068138755857944488525390625" lon="1.387780643999576568603515625">
        <ele>-100.59999847412109375</ele>
        <time>2025-09-05T14:59:02.000Z</time>
        <extensions>
          <ns3:TrackPointExtension>
            <ns3:hr>168</ns3:hr>
            <ns3:cad>59</ns3:cad>
          </ns3:TrackPointExtension>
        </extensions>
      </trkpt>
      <trkpt lat="52.0680665038526058197021484375" lon="1.38788248412311077117919921875">
        <ele>-101.59999847412109375</ele>
        <time>2025-09-05T14:59:08.000Z</time>
        <extensions>
          <ns3:TrackPointExtension>
            <ns3:hr>167</ns3:hr>
            <ns3:cad>0</ns3:cad>
          </ns3:TrackPointExtension>
        </extensions>
      </trkpt>
      <trkpt lat="52.06805300898849964141845703125" lon="1.3878964819014072418212890625">
        <ele>-101.59999847412109375</ele>
        <time>2025-09-05T14:59:09.000Z</time>
        <extensions>
          <ns3:TrackPointExtension>
            <ns3:hr>169</ns3:hr>
            <ns3:cad>0</ns3:cad>
          </ns3:TrackPointExtension>
        </extensions>
      </trkpt>
      <trkpt lat="52.06796818412840366363525390625" lon="1.38794836588203907012939453125">
        <ele>-102.8000030517578125</ele>
        <time>2025-09-05T14:59:16.000Z</time>
        <extensions>
          <ns3:TrackPointExtension>
            <ns3:hr>169</ns3:hr>
            <ns3:cad>60</ns3:cad>
          </ns3:TrackPointExtension>
        </extensions>
      </trkpt>
      <trkpt lat="52.06790515221655368804931640625" lon="1.38799899257719516754150390625">
        <ele>-104</ele>
        <time>2025-09-05T14:59:22.000Z</time>
        <extensions>
          <ns3:TrackPointExtension>
            <ns3:hr>167</ns3:hr>
            <ns3:cad>60</ns3:cad>
          </ns3:TrackPointExtension>
        </extensions>
      </trkpt>
      <trkpt lat="52.0678914897143840789794921875" lon="1.3880123198032379150390625">
        <ele>-104.1999969482421875</ele>
        <time>2025-09-05T14:59:23.000Z</time>
        <extensions>
          <ns3:TrackPointExtension>
            <ns3:hr>167</ns3:hr>
            <ns3:cad>58</ns3:cad>
          </ns3:TrackPointExtension>
        </extensions>
      </trkpt>
      <trkpt lat="52.06784815527498722076416015625" lon="1.388066299259662628173828125">
        <ele>-105</ele>
        <time>2025-09-05T14:59:27.000Z</time>
        <extensions>
          <ns3:TrackPointExtension>
            <ns3:hr>165</ns3:hr>
            <ns3:cad>61</ns3:cad>
          </ns3:TrackPointExtension>
        </extensions>
      </trkpt>
      <trkpt lat="52.06780641339719295501708984375" lon="1.38813042081892490386962890625">
        <ele>-105.8000030517578125</ele>
        <time>2025-09-05T14:59:31.000Z</time>
        <extensions>
          <ns3:TrackPointExtension>
            <ns3:hr>163</ns3:hr>
            <ns3:cad>61</ns3:cad>
          </ns3:TrackPointExtension>
        </extensions>
      </trkpt>
      <trkpt lat="52.0678002946078777313232421875" lon="1.38813528232276439666748046875">
        <ele>-106</ele>
        <time>2025-09-05T14:59:32.000Z</time>
        <extensions>
          <ns3:TrackPointExtension>
            <ns3:hr>163</ns3:hr>
            <ns3:cad>60</ns3:cad>
          </ns3:TrackPointExtension>
        </extensions>
      </trkpt>
      <trkpt lat="52.06775964237749576568603515625" lon="1.38820820488035678863525390625">
        <ele>-107.1999969482421875</ele>
        <time>2025-09-05T14:59:37.000Z</time>
        <extensions>
          <ns3:TrackPointExtension>
            <ns3:hr>162</ns3:hr>
            <ns3:cad>60</ns3:cad>
          </ns3:TrackPointExtension>
        </extensions>
      </trkpt>
      <trkpt lat="52.067730724811553955078125" lon="1.3882562331855297088623046875">
        <ele>-107.8000030517578125</ele>
        <time>2025-09-05T14:59:40.000Z</time>
        <extensions>
          <ns3:TrackPointExtension>
            <ns3:hr>162</ns3:hr>
            <ns3:cad>60</ns3:cad>
          </ns3:TrackPointExtension>
        </extensions>
      </trkpt>
      <trkpt lat="52.06772175617516040802001953125" lon="1.3882671296596527099609375">
        <ele>-108</ele>
        <time>2025-09-05T14:59:41.000Z</time>
        <extensions>
          <ns3:TrackPointExtension>
            <ns3:hr>159</ns3:hr>
            <ns3:cad>60</ns3:cad>
          </ns3:TrackPointExtension>
        </extensions>
      </trkpt>
      <trkpt lat="52.0677121169865131378173828125" lon="1.38827718794345855712890625">
        <ele>-108.1999969482421875</ele>
        <time>2025-09-05T14:59:42.000Z</time>
        <extensions>
          <ns3:TrackPointExtension>
            <ns3:hr>158</ns3:hr>
            <ns3:cad>0</ns3:cad>
          </ns3:TrackPointExtension>
        </extensions>
      </trkpt>
      <trkpt lat="52.06769593991339206695556640625" lon="1.38828900642693042755126953125">
        <ele>-109.40000152587890625</ele>
        <time>2025-09-05T14:59:47.000Z</time>
        <extensions>
          <ns3:TrackPointExtension>
            <ns3:hr>155</ns3:hr>
            <ns3:cad>0</ns3:cad>
          </ns3:TrackPointExtension>
        </extensions>
      </trkpt>
      <trkpt lat="52.067664675414562225341796875" lon="1.3883192650973796844482421875">
        <ele>-110.59999847412109375</ele>
        <time>2025-09-05T14:59:52.000Z</time>
        <extensions>
          <ns3:TrackPointExtension>
            <ns3:hr>153</ns3:hr>
            <ns3:cad>0</ns3:cad>
          </ns3:TrackPointExtension>
        </extensions>
      </trkpt>
      <trkpt lat="52.067653946578502655029296875" lon="1.38832773081958293914794921875">
        <ele>-111</ele>
        <time>2025-09-05T14:59:54.000Z</time>
        <extensions>
          <ns3:TrackPointExtension>
            <ns3:hr>152</ns3:hr>
            <ns3:cad>44</ns3:cad>
          </ns3:TrackPointExtension>
        </extensions>
      </trkpt>
      <trkpt lat="52.06762268207967281341552734375" lon="1.38834449462592601776123046875">
        <ele>-111.8000030517578125</ele>
        <time>2025-09-05T14:59:57.000Z</time>
        <extensions>
          <ns3:TrackPointExtension>
            <ns3:hr>149</ns3:hr>
            <ns3:cad>49</ns3:cad>
          </ns3:TrackPointExtension>
        </extensions>
      </trkpt>
      <trkpt lat="52.06758278422057628631591796875" lon="1.3883936963975429534912109375">
        <ele>-112.40000152587890625</ele>
        <time>2025-09-05T15:00:00.000Z</time>
        <extensions>
          <ns3:TrackPointExtension>
            <ns3:hr>148</ns3:hr>
            <ns3:cad>0</ns3:cad>
          </ns3:TrackPointExtension>
        </extensions>
      </trkpt>
      <trkpt lat="52.0675555430352687835693359375" lon="1.38843015767633914947509765625">
        <ele>-113</ele>
        <time>2025-09-05T15:00:02.000Z</time>
        <extensions>
          <ns3:TrackPointExtension>
            <ns3:hr>150</ns3:hr>
            <ns3:cad>0</ns3:cad>
          </ns3:TrackPointExtension>
        </extensions>
      </trkpt>
      <trkpt lat="52.0675401203334331512451171875" lon="1.388450525701045989990234375">
        <ele>-113.1999969482421875</ele>
        <time>2025-09-05T15:00:03.000Z</time>
        <extensions>
          <ns3:TrackPointExtension>
            <ns3:hr>146</ns3:hr>
            <ns3:cad>0</ns3:cad>
          </ns3:TrackPointExtension>
        </extensions>
      </trkpt>
      <trkpt lat="52.0674987137317657470703125" lon="1.388497464358806610107421875">
        <ele>-114</ele>
        <time>2025-09-05T15:00:06.000Z</time>
        <extensions>
          <ns3:TrackPointExtension>
            <ns3:hr>150</ns3:hr>
            <ns3:cad>0</ns3:cad>
          </ns3:TrackPointExtension>
        </extensions>
      </trkpt>
      <trkpt lat="52.06748857162892818450927734375" lon="1.3885127194225788116455078125">
        <ele>-114.1999969482421875</ele>
        <time>2025-09-05T15:00:07.000Z</time>
        <extensions>
          <ns3:TrackPointExtension>
            <ns3:hr>151</ns3:hr>
            <ns3:cad>0</ns3:cad>
          </ns3:TrackPointExtension>
        </extensions>
      </trkpt>
      <trkpt lat="52.06747733987867832183837890625" lon="1.3885318301618099212646484375">
        <ele>-114.40000152587890625</ele>
        <time>2025-09-05T15:00:08.000Z</time>
        <extensions>
          <ns3:TrackPointExtension>
            <ns3:hr>150</ns3:hr>
            <ns3:cad>0</ns3:cad>
          </ns3:TrackPointExtension>
        </extensions>
      </trkpt>
      <trkpt lat="52.067421935498714447021484375" lon="1.388583295047283172607421875">
        <ele>-115.40000152587890625</ele>
        <time>2025-09-05T15:00:12.000Z</time>
        <extensions>
          <ns3:TrackPointExtension>
            <ns3:hr>152</ns3:hr>
            <ns3:cad>60</ns3:cad>
          </ns3:TrackPointExtension>
        </extensions>
      </trkpt>
      <trkpt lat="52.06738782115280628204345703125" lon="1.3886166550219058990478515625">
        <ele>-116</ele>
        <time>2025-09-05T15:00:15.000Z</time>
        <extensions>
          <ns3:TrackPointExtension>
            <ns3:hr>151</ns3:hr>
            <ns3:cad>57</ns3:cad>
          </ns3:TrackPointExtension>
        </extensions>
      </trkpt>
      <trkpt lat="52.067363262176513671875" lon="1.388652361929416656494140625">
        <ele>-116.59999847412109375</ele>
        <time>2025-09-05T15:00:17.000Z</time>
        <extensions>
          <ns3:TrackPointExtension>
            <ns3:hr>152</ns3:hr>
            <ns3:cad>0</ns3:cad>
          </ns3:TrackPointExtension>
        </extensions>
      </trkpt>
      <trkpt lat="52.06731255166232585906982421875" lon="1.388730145990848541259765625">
        <ele>-117.59999847412109375</ele>
        <time>2025-09-05T15:00:22.000Z</time>
        <extensions>
          <ns3:TrackPointExtension>
            <ns3:hr>150</ns3:hr>
            <ns3:cad>59</ns3:cad>
          </ns3:TrackPointExtension>
        </extensions>
      </trkpt>
      <trkpt lat="52.067307941615581512451171875" lon="1.38876526616513729095458984375">
        <ele>-118</ele>
        <time>2025-09-05T15:00:24.000Z</time>
        <extensions>
          <ns3:TrackPointExtension>
            <ns3:hr>151</ns3:hr>
            <ns3:cad>59</ns3:cad>
          </ns3:TrackPointExtension>
        </extensions>
      </trkpt>
      <trkpt lat="52.06729151308536529541015625" lon="1.3888359256088733673095703125">
        <ele>-118.59999847412109375</ele>
        <time>2025-09-05T15:00:27.000Z</time>
        <extensions>
          <ns3:TrackPointExtension>
            <ns3:hr>148</ns3:hr>
            <ns3:cad>0</ns3:cad>
          </ns3:TrackPointExtension>
        </extensions>
      </trkpt>
      <trkpt lat="52.0672685466706752777099609375" lon="1.3889108598232269287109375">
        <ele>-119.59999847412109375</ele>
        <time>2025-09-05T15:00:31.000Z</time>
        <extensions>
          <ns3:TrackPointExtension>
            <ns3:hr>146</ns3:hr>
            <ns3:cad>57</ns3:cad>
          </ns3:TrackPointExtension>
        </extensions>
      </trkpt>
      <trkpt lat="52.06726343370974063873291015625" lon="1.38891555368900299072265625">
        <ele>-119.8000030517578125</ele>
        <time>2025-09-05T15:00:32.000Z</time>
        <extensions>
          <ns3:TrackPointExtension>
            <ns3:hr>147</ns3:hr>
            <ns3:cad>57</ns3:cad>
          </ns3:TrackPointExtension>
        </extensions>
      </trkpt>
      <trkpt lat="52.06726511009037494659423828125" lon="1.38891287147998809814453125">
        <ele>-120.40000152587890625</ele>
        <time>2025-09-05T15:00:35.000Z</time>
        <extensions>
          <ns3:TrackPointExtension>
            <ns3:hr>150</ns3:hr>
            <ns3:cad>0</ns3:cad>
          </ns3:TrackPointExtension>
        </extensions>
      </trkpt>
      <trkpt lat="52.067271061241626739501953125" lon="1.38891999609768390655517578125">
        <ele>-120.8000030517578125</ele>
        <time>2025-09-05T15:00:37.000Z</time>
        <extensions>
          <ns3:TrackPointExtension>
            <ns3:hr>152</ns3:hr>
            <ns3:cad>0</ns3:cad>
          </ns3:TrackPointExtension>
        </extensions>
      </trkpt>
      <trkpt lat="52.06727919168770313262939453125" lon="1.38895218260586261749267578125">
        <ele>-121.40000152587890625</ele>
        <time>2025-09-05T15:00:40.000Z</time>
        <extensions>
          <ns3:TrackPointExtension>
            <ns3:hr>155</ns3:hr>
            <ns3:cad>0</ns3:cad>
          </ns3:TrackPointExtension>
        </extensions>
      </trkpt>
      <trkpt lat="52.067301906645298004150390625" lon="1.3890035636723041534423828125">
        <ele>-122</ele>
        <time>2025-09-05T15:00:43.000Z</time>
        <extensions>
          <ns3:TrackPointExtension>
            <ns3:hr>154</ns3:hr>
            <ns3:cad>48</ns3:cad>
          </ns3:TrackPointExtension>
        </extensions>
      </trkpt>
      <trkpt lat="52.06731623969972133636474609375" lon="1.3890369236469268798828125">
        <ele>-122.1999969482421875</ele>
        <time>2025-09-05T15:00:45.000Z</time>
        <extensions>
          <ns3:TrackPointExtension>
            <ns3:hr>152</ns3:hr>
            <ns3:cad>55</ns3:cad>
          </ns3:TrackPointExtension>
        </extensions>
      </trkpt>
      <trkpt lat="52.06733183003962039947509765625" lon="1.3891034759581089019775390625">
        <ele>-122.40000152587890625</ele>
        <time>2025-09-05T15:00:48.000Z</time>
        <extensions>
          <ns3:TrackPointExtension>
            <ns3:hr>150</ns3:hr>
            <ns3:cad>58</ns3:cad>
          </ns3:TrackPointExtension>
        </extensions>
      </trkpt>
      <trkpt lat="52.06735731102526187896728515625" lon="1.38915871270000934600830078125">
        <ele>-122.40000152587890625</ele>
        <time>2025-09-05T15:00:51.000Z</time>
        <extensions>
          <ns3:TrackPointExtension>
            <ns3:hr>154</ns3:hr>
            <ns3:cad>0</ns3:cad>
          </ns3:TrackPointExtension>
        </extensions>
      </trkpt>
      <trkpt lat="52.06737390719354152679443359375" lon="1.389241106808185577392578125">
        <ele>-122.59999847412109375</ele>
        <time>2025-09-05T15:00:55.000Z</time>
        <extensions>
          <ns3:TrackPointExtension>
            <ns3:hr>151</ns3:hr>
            <ns3:cad>0</ns3:cad>
          </ns3:TrackPointExtension>
        </extensions>
      </trkpt>
      <trkpt lat="52.067381031811237335205078125" lon="1.3892731256783008575439453125">
        <ele>-122.8000030517578125</ele>
        <time>2025-09-05T15:00:57.000Z</time>
        <extensions>
          <ns3:TrackPointExtension>
            <ns3:hr>150</ns3:hr>
            <ns3:cad>0</ns3:cad>
          </ns3:TrackPointExtension>
        </extensions>
      </trkpt>
      <trkpt lat="52.06739385612308979034423828125" lon="1.38931478373706340789794921875">
        <ele>-123</ele>
        <time>2025-09-05T15:00:59.000Z</time>
        <extensions>
          <ns3:TrackPointExtension>
            <ns3:hr>147</ns3:hr>
            <ns3:cad>55</ns3:cad>
          </ns3:TrackPointExtension>
        </extensions>
      </trkpt>
      <trkpt lat="52.06740676425397396087646484375" lon="1.3893683440983295440673828125">
        <ele>-123.40000152587890625</ele>
        <time>2025-09-05T15:01:02.000Z</time>
        <extensions>
          <ns3:TrackPointExtension>
            <ns3:hr>144</ns3:hr>
            <ns3:cad>60</ns3:cad>
          </ns3:TrackPointExtension>
        </extensions>
      </trkpt>
      <trkpt lat="52.0674257911741733551025390625" lon="1.3894732855260372161865234375">
        <ele>-123.8000030517578125</ele>
        <time>2025-09-05T15:01:06.000Z</time>
        <extensions>
          <ns3:TrackPointExtension>
            <ns3:hr>144</ns3:hr>
            <ns3:cad>60</ns3:cad>
          </ns3:TrackPointExtension>
        </extensions>
      </trkpt>
      <trkpt lat="52.0674381963908672332763671875" lon="1.38953187502920627593994140625">
        <ele>-124</ele>
        <time>2025-09-05T15:01:08.000Z</time>
        <extensions>
          <ns3:TrackPointExtension>
            <ns3:hr>145</ns3:hr>
            <ns3:cad>60</ns3:cad>
          </ns3:TrackPointExtension>
        </extensions>
      </trkpt>
      <trkpt lat="52.067470215260982513427734375" lon="1.38964653946459293365478515625">
        <ele>-124.59999847412109375</ele>
        <time>2025-09-05T15:01:12.000Z</time>
        <extensions>
          <ns3:TrackPointExtension>
            <ns3:hr>145</ns3:hr>
            <ns3:cad>80</ns3:cad>
          </ns3:TrackPointExtension>
        </extensions>
      </trkpt>
      <trkpt lat="52.06749158911406993865966796875" lon="1.3897089846432209014892578125">
        <ele>-124.8000030517578125</ele>
        <time>2025-09-05T15:01:15.000Z</time>
        <extensions>
          <ns3:TrackPointExtension>
            <ns3:hr>148</ns3:hr>
            <ns3:cad>81</ns3:cad>
          </ns3:TrackPointExtension>
        </extensions>
      </trkpt>
      <trkpt lat="52.06749561242759227752685546875" lon="1.38971409760415554046630859375">
        <ele>-124.8000030517578125</ele>
        <time>2025-09-05T15:01:16.000Z</time>
        <extensions>
          <ns3:TrackPointExtension>
            <ns3:hr>152</ns3:hr>
            <ns3:cad>81</ns3:cad>
          </ns3:TrackPointExtension>
        </extensions>
      </trkpt>
      <trkpt lat="52.067504413425922393798828125" lon="1.3897106610238552093505859375">
        <ele>-125</ele>
        <time>2025-09-05T15:01:17.000Z</time>
        <extensions>
          <ns3:TrackPointExtension>
            <ns3:hr>157</ns3:hr>
            <ns3:cad>0</ns3:cad>
          </ns3:TrackPointExtension>
        </extensions>
      </trkpt>
      <trkpt lat="52.0675082691013813018798828125" lon="1.3897264190018177032470703125">
        <ele>-125</ele>
        <time>2025-09-05T15:01:18.000Z</time>
        <extensions>
          <ns3:TrackPointExtension>
            <ns3:hr>158</ns3:hr>
            <ns3:cad>0</ns3:cad>
          </ns3:TrackPointExtension>
        </extensions>
      </trkpt>
      <trkpt lat="52.06751639954745769500732421875" lon="1.3897369801998138427734375">
        <ele>-125.1999969482421875</ele>
        <time>2025-09-05T15:01:19.000Z</time>
        <extensions>
          <ns3:TrackPointExtension>
            <ns3:hr>161</ns3:hr>
            <ns3:cad>78</ns3:cad>
          </ns3:TrackPointExtension>
        </extensions>
      </trkpt>
      <trkpt lat="52.06752109341323375701904296875" lon="1.3897659815847873687744140625">
        <ele>-125.40000152587890625</ele>
        <time>2025-09-05T15:01:21.000Z</time>
        <extensions>
          <ns3:TrackPointExtension>
            <ns3:hr>165</ns3:hr>
            <ns3:cad>77</ns3:cad>
          </ns3:TrackPointExtension>
        </extensions>
      </trkpt>
      <trkpt lat="52.06753022968769073486328125" lon="1.38979389332234859466552734375">
        <ele>-125.59999847412109375</ele>
        <time>2025-09-05T15:01:23.000Z</time>
        <extensions>
          <ns3:TrackPointExtension>
            <ns3:hr>168</ns3:hr>
            <ns3:cad>0</ns3:cad>
          </ns3:TrackPointExtension>
        </extensions>
      </trkpt>
      <trkpt lat="52.06752763129770755767822265625" lon="1.3898469507694244384765625">
        <ele>-125.59999847412109375</ele>
        <time>2025-09-05T15:01:25.000Z</time>
        <extensions>
          <ns3:TrackPointExtension>
            <ns3:hr>170</ns3:hr>
            <ns3:cad>0</ns3:cad>
          </ns3:TrackPointExtension>
        </extensions>
      </trkpt>
      <trkpt lat="52.06752897240221500396728515625" lon="1.38986983336508274078369140625">
        <ele>-125.8000030517578125</ele>
        <time>2025-09-05T15:01:26.000Z</time>
        <extensions>
          <ns3:TrackPointExtension>
            <ns3:hr>172</ns3:hr>
            <ns3:cad>0</ns3:cad>
          </ns3:TrackPointExtension>
        </extensions>
      </trkpt>
      <trkpt lat="52.0675629191100597381591796875" lon="1.39001651667058467864990234375">
        <ele>-126.1999969482421875</ele>
        <time>2025-09-05T15:01:31.000Z</time>
        <extensions>
          <ns3:TrackPointExtension>
            <ns3:hr>170</ns3:hr>
            <ns3:cad>81</ns3:cad>
          </ns3:TrackPointExtension>
        </extensions>
      </trkpt>
      <trkpt lat="52.0675885677337646484375" lon="1.3900710828602313995361328125">
        <ele>-126.40000152587890625</ele>
        <time>2025-09-05T15:01:33.000Z</time>
        <extensions>
          <ns3:TrackPointExtension>
            <ns3:hr>168</ns3:hr>
            <ns3:cad>82</ns3:cad>
          </ns3:TrackPointExtension>
        </extensions>
      </trkpt>
      <trkpt lat="52.06766031682491302490234375" lon="1.3902412354946136474609375">
        <ele>-127.1999969482421875</ele>
        <time>2025-09-05T15:01:39.000Z</time>
        <extensions>
          <ns3:TrackPointExtension>
            <ns3:hr>172</ns3:hr>
            <ns3:cad>82</ns3:cad>
          </ns3:TrackPointExtension>
        </extensions>
      </trkpt>
      <trkpt lat="52.0676668547093868255615234375" lon="1.3902725838124752044677734375">
        <ele>-127.40000152587890625</ele>
        <time>2025-09-05T15:01:40.000Z</time>
        <extensions>
          <ns3:TrackPointExtension>
            <ns3:hr>172</ns3:hr>
            <ns3:cad>82</ns3:cad>
          </ns3:TrackPointExtension>
        </extensions>
      </trkpt>
      <trkpt lat="52.06767381168901920318603515625" lon="1.39030468650162220001220703125">
        <ele>-127.40000152587890625</ele>
        <time>2025-09-05T15:01:41.000Z</time>
        <extensions>
          <ns3:TrackPointExtension>
            <ns3:hr>173</ns3:hr>
            <ns3:cad>82</ns3:cad>
          </ns3:TrackPointExtension>
        </extensions>
      </trkpt>
      <trkpt lat="52.067709602415561676025390625" lon="1.39042857103049755096435546875">
        <ele>-128</ele>
        <time>2025-09-05T15:01:45.000Z</time>
        <extensions>
          <ns3:TrackPointExtension>
            <ns3:hr>176</ns3:hr>
            <ns3:cad>82</ns3:cad>
          </ns3:TrackPointExtension>
        </extensions>
      </trkpt>
      <trkpt lat="52.06773868761956691741943359375" lon="1.39050501398742198944091796875">
        <ele>-128.399993896484375</ele>
        <time>2025-09-05T15:01:48.000Z</time>
        <extensions>
          <ns3:TrackPointExtension>
            <ns3:hr>178</ns3:hr>
            <ns3:cad>82</ns3:cad>
          </ns3:TrackPointExtension>
        </extensions>
      </trkpt>
      <trkpt lat="52.06774673424661159515380859375" lon="1.39052831567823886871337890625">
        <ele>-128.600006103515625</ele>
        <time>2025-09-05T15:01:49.000Z</time>
        <extensions>
          <ns3:TrackPointExtension>
            <ns3:hr>175</ns3:hr>
            <ns3:cad>82</ns3:cad>
          </ns3:TrackPointExtension>
        </extensions>
      </trkpt>
      <trkpt lat="52.06775880418717861175537109375" lon="1.390551365911960601806640625">
        <ele>-128.600006103515625</ele>
        <time>2025-09-05T15:01:50.000Z</time>
        <extensions>
          <ns3:TrackPointExtension>
            <ns3:hr>177</ns3:hr>
            <ns3:cad>82</ns3:cad>
          </ns3:TrackPointExtension>
        </extensions>
      </trkpt>
      <trkpt lat="52.06777942366898059844970703125" lon="1.3905870728194713592529296875">
        <ele>-129</ele>
        <time>2025-09-05T15:01:52.000Z</time>
        <extensions>
          <ns3:TrackPointExtension>
            <ns3:hr>173</ns3:hr>
            <ns3:cad>82</ns3:cad>
          </ns3:TrackPointExtension>
        </extensions>
      </trkpt>
      <trkpt lat="52.0678368397057056427001953125" lon="1.39066703617572784423828125">
        <ele>-129.600006103515625</ele>
        <time>2025-09-05T15:01:57.000Z</time>
        <extensions>
          <ns3:TrackPointExtension>
            <ns3:hr>171</ns3:hr>
            <ns3:cad>82</ns3:cad>
          </ns3:TrackPointExtension>
        </extensions>
      </trkpt>
      <trkpt lat="52.06786391325294971466064453125" lon="1.39068991877138614654541015625">
        <ele>-129.600006103515625</ele>
        <time>2025-09-05T15:01:59.000Z</time>
        <extensions>
          <ns3:TrackPointExtension>
            <ns3:hr>169</ns3:hr>
            <ns3:cad>82</ns3:cad>
          </ns3:TrackPointExtension>
        </extensions>
      </trkpt>
      <trkpt lat="52.06790263764560222625732421875" lon="1.390909440815448760986328125">
        <ele>-130.1999969482421875</ele>
        <time>2025-09-05T15:02:06.000Z</time>
        <extensions>
          <ns3:TrackPointExtension>
            <ns3:hr>169</ns3:hr>
            <ns3:cad>82</ns3:cad>
          </ns3:TrackPointExtension>
        </extensions>
      </trkpt>
      <trkpt lat="52.067943625152111053466796875" lon="1.39115008525550365447998046875">
        <ele>-130</ele>
        <time>2025-09-05T15:02:13.000Z</time>
        <extensions>
          <ns3:TrackPointExtension>
            <ns3:hr>169</ns3:hr>
            <ns3:cad>82</ns3:cad>
          </ns3:TrackPointExtension>
        </extensions>
      </trkpt>
      <trkpt lat="52.06797572784125804901123046875" lon="1.391221247613430023193359375">
        <ele>-129.8000030517578125</ele>
        <time>2025-09-05T15:02:16.000Z</time>
        <extensions>
          <ns3:TrackPointExtension>
            <ns3:hr>172</ns3:hr>
            <ns3:cad>82</ns3:cad>
          </ns3:TrackPointExtension>
        </extensions>
      </trkpt>
      <trkpt lat="52.0680242590606212615966796875" lon="1.39128285460174083709716796875">
        <ele>-129.399993896484375</ele>
        <time>2025-09-05T15:02:19.000Z</time>
        <extensions>
          <ns3:TrackPointExtension>
            <ns3:hr>176</ns3:hr>
            <ns3:cad>82</ns3:cad>
          </ns3:TrackPointExtension>
        </extensions>
      </trkpt>
      <trkpt lat="52.06812710501253604888916015625" lon="1.39150313101708889007568359375">
        <ele>-128.8000030517578125</ele>
        <time>2025-09-05T15:02:26.000Z</time>
        <extensions>
          <ns3:TrackPointExtension>
            <ns3:hr>175</ns3:hr>
            <ns3:cad>82</ns3:cad>
          </ns3:TrackPointExtension>
        </extensions>
      </trkpt>
      <trkpt lat="52.0681516639888286590576171875" lon="1.39160086400806903839111328125">
        <ele>-128.399993896484375</ele>
        <time>2025-09-05T15:02:29.000Z</time>
        <extensions>
          <ns3:TrackPointExtension>
            <ns3:hr>175</ns3:hr>
            <ns3:cad>82</ns3:cad>
          </ns3:TrackPointExtension>
        </extensions>
      </trkpt>
      <trkpt lat="52.06819047220051288604736328125" lon="1.391720809042453765869140625">
        <ele>-127.1999969482421875</ele>
        <time>2025-09-05T15:02:33.000Z</time>
        <extensions>
          <ns3:TrackPointExtension>
            <ns3:hr>175</ns3:hr>
            <ns3:cad>82</ns3:cad>
          </ns3:TrackPointExtension>
        </extensions>
      </trkpt>
      <trkpt lat="52.0681987702846527099609375" lon="1.3917528279125690460205078125">
        <ele>-127</ele>
        <time>2025-09-05T15:02:34.000Z</time>
        <extensions>
          <ns3:TrackPointExtension>
            <ns3:hr>176</ns3:hr>
            <ns3:cad>82</ns3:cad>
          </ns3:TrackPointExtension>
        </extensions>
      </trkpt>
      <trkpt lat="52.06821553409099578857421875" lon="1.39185466803610324859619140625">
        <ele>-126.1999969482421875</ele>
        <time>2025-09-05T15:02:37.000Z</time>
        <extensions>
          <ns3:TrackPointExtension>
            <ns3:hr>176</ns3:hr>
            <ns3:cad>82</ns3:cad>
          </ns3:TrackPointExtension>
        </extensions>
      </trkpt>
      <trkpt lat="52.06822969950735569000244140625" lon="1.39198802411556243896484375">
        <ele>-125</ele>
        <time>2025-09-05T15:02:41.000Z</time>
        <extensions>
          <ns3:TrackPointExtension>
            <ns3:hr>177</ns3:hr>
            <ns3:cad>82</ns3:cad>
          </ns3:TrackPointExtension>
        </extensions>
      </trkpt>
      <trkpt lat="52.06825685687363147735595703125" lon="1.392116434872150421142578125">
        <ele>-123.8000030517578125</ele>
        <time>2025-09-05T15:02:45.000Z</time>
        <extensions>
          <ns3:TrackPointExtension>
            <ns3:hr>176</ns3:hr>
            <ns3:cad>82</ns3:cad>
          </ns3:TrackPointExtension>
        </extensions>
      </trkpt>
      <trkpt lat="52.068278230726718902587890625" lon="1.39219011180102825164794921875">
        <ele>-123.1999969482421875</ele>
        <time>2025-09-05T15:02:48.000Z</time>
        <extensions>
          <ns3:TrackPointExtension>
            <ns3:hr>175</ns3:hr>
            <ns3:cad>81</ns3:cad>
          </ns3:TrackPointExtension>
        </extensions>
      </trkpt>
      <trkpt lat="52.06828619353473186492919921875" lon="1.3922141678631305694580078125">
        <ele>-122.8000030517578125</ele>
        <time>2025-09-05T15:02:49.000Z</time>
        <extensions>
          <ns3:TrackPointExtension>
            <ns3:hr>175</ns3:hr>
            <ns3:cad>81</ns3:cad>
          </ns3:TrackPointExtension>
        </extensions>
      </trkpt>
      <trkpt lat="52.06832944415509700775146484375" lon="1.39235506765544414520263671875">
        <ele>-121.59999847412109375</ele>
        <time>2025-09-05T15:02:54.000Z</time>
        <extensions>
          <ns3:TrackPointExtension>
            <ns3:hr>174</ns3:hr>
            <ns3:cad>81</ns3:cad>
          </ns3:TrackPointExtension>
        </extensions>
      </trkpt>
      <trkpt lat="52.0683535002171993255615234375" lon="1.3924445025622844696044921875">
        <ele>-121</ele>
        <time>2025-09-05T15:02:57.000Z</time>
        <extensions>
          <ns3:TrackPointExtension>
            <ns3:hr>177</ns3:hr>
            <ns3:cad>81</ns3:cad>
          </ns3:TrackPointExtension>
        </extensions>
      </trkpt>
      <trkpt lat="52.06836028955876827239990234375" lon="1.39246855862438678741455078125">
        <ele>-120.8000030517578125</ele>
        <time>2025-09-05T15:02:58.000Z</time>
        <extensions>
          <ns3:TrackPointExtension>
            <ns3:hr>176</ns3:hr>
            <ns3:cad>82</ns3:cad>
          </ns3:TrackPointExtension>
        </extensions>
      </trkpt>
      <trkpt lat="52.0683642290532588958740234375" lon="1.3924890942871570587158203125">
        <ele>-120.59999847412109375</ele>
        <time>2025-09-05T15:02:59.000Z</time>
        <extensions>
          <ns3:TrackPointExtension>
            <ns3:hr>176</ns3:hr>
            <ns3:cad>82</ns3:cad>
          </ns3:TrackPointExtension>
        </extensions>
      </trkpt>
      <trkpt lat="52.06839700229465961456298828125" lon="1.392624378204345703125">
        <ele>-119.59999847412109375</ele>
        <time>2025-09-05T15:03:04.000Z</time>
        <extensions>
          <ns3:TrackPointExtension>
            <ns3:hr>176</ns3:hr>
            <ns3:cad>82</ns3:cad>
          </ns3:TrackPointExtension>
        </extensions>
      </trkpt>
      <trkpt lat="52.0684054680168628692626953125" lon="1.392688415944576263427734375">
        <ele>-119.1999969482421875</ele>
        <time>2025-09-05T15:03:06.000Z</time>
        <extensions>
          <ns3:TrackPointExtension>
            <ns3:hr>176</ns3:hr>
            <ns3:cad>82</ns3:cad>
          </ns3:TrackPointExtension>
        </extensions>
      </trkpt>
      <trkpt lat="52.06844544969499111175537109375" lon="1.39277567155659198760986328125">
        <ele>-118.40000152587890625</ele>
        <time>2025-09-05T15:03:10.000Z</time>
        <extensions>
          <ns3:TrackPointExtension>
            <ns3:hr>175</ns3:hr>
            <ns3:cad>82</ns3:cad>
          </ns3:TrackPointExtension>
        </extensions>
      </trkpt>
      <trkpt lat="52.0684715174138545989990234375" lon="1.39288497157394886016845703125">
        <ele>-117.8000030517578125</ele>
        <time>2025-09-05T15:03:14.000Z</time>
        <extensions>
          <ns3:TrackPointExtension>
            <ns3:hr>175</ns3:hr>
            <ns3:cad>82</ns3:cad>
          </ns3:TrackPointExtension>
        </extensions>
      </trkpt>
      <trkpt lat="52.06849037669599056243896484375" lon="1.3929824531078338623046875">
        <ele>-117.40000152587890625</ele>
        <time>2025-09-05T15:03:17.000Z</time>
        <extensions>
          <ns3:TrackPointExtension>
            <ns3:hr>176</ns3:hr>
            <ns3:cad>82</ns3:cad>
          </ns3:TrackPointExtension>
        </extensions>
      </trkpt>
      <trkpt lat="52.06854519434273242950439453125" lon="1.39320440590381622314453125">
        <ele>-116.59999847412109375</ele>
        <time>2025-09-05T15:03:22.000Z</time>
        <extensions>
          <ns3:TrackPointExtension>
            <ns3:hr>176</ns3:hr>
            <ns3:cad>82</ns3:cad>
          </ns3:TrackPointExtension>
        </extensions>
      </trkpt>
      <trkpt lat="52.06858165562152862548828125" lon="1.39333910308778285980224609375">
        <ele>-116.1999969482421875</ele>
        <time>2025-09-05T15:03:25.000Z</time>
        <extensions>
          <ns3:TrackPointExtension>
            <ns3:hr>176</ns3:hr>
            <ns3:cad>81</ns3:cad>
          </ns3:TrackPointExtension>
        </extensions>
      </trkpt>
      <trkpt lat="52.0686049573123455047607421875" lon="1.39346265234053134918212890625">
        <ele>-115.8000030517578125</ele>
        <time>2025-09-05T15:03:28.000Z</time>
        <extensions>
          <ns3:TrackPointExtension>
            <ns3:hr>178</ns3:hr>
            <ns3:cad>81</ns3:cad>
          </ns3:TrackPointExtension>
        </extensions>
      </trkpt>
      <trkpt lat="52.06863990984857082366943359375" lon="1.39365677721798419952392578125">
        <ele>-115.1999969482421875</ele>
        <time>2025-09-05T15:03:34.000Z</time>
        <extensions>
          <ns3:TrackPointExtension>
            <ns3:hr>179</ns3:hr>
            <ns3:cad>81</ns3:cad>
          </ns3:TrackPointExtension>
        </extensions>
      </trkpt>
      <trkpt lat="52.0686565898358821868896484375" lon="1.39371092431247234344482421875">
        <ele>-115</ele>
        <time>2025-09-05T15:03:36.000Z</time>
        <extensions>
          <ns3:TrackPointExtension>
            <ns3:hr>176</ns3:hr>
            <ns3:cad>80</ns3:cad>
          </ns3:TrackPointExtension>
        </extensions>
      </trkpt>
      <trkpt lat="52.06866614520549774169921875" lon="1.39373011887073516845703125">
        <ele>-115</ele>
        <time>2025-09-05T15:03:37.000Z</time>
        <extensions>
          <ns3:TrackPointExtension>
            <ns3:hr>179</ns3:hr>
            <ns3:cad>80</ns3:cad>
          </ns3:TrackPointExtension>
        </extensions>
      </trkpt>
      <trkpt lat="52.06873185932636260986328125" lon="1.39387655071914196014404296875">
        <ele>-114.1999969482421875</ele>
        <time>2025-09-05T15:03:43.000Z</time>
        <extensions>
          <ns3:TrackPointExtension>
            <ns3:hr>177</ns3:hr>
            <ns3:cad>81</ns3:cad>
          </ns3:TrackPointExtension>
        </extensions>
      </trkpt>
      <trkpt lat="52.06874049268662929534912109375" lon="1.3939012773334980010986328125">
        <ele>-114.1999969482421875</ele>
        <time>2025-09-05T15:03:44.000Z</time>
        <extensions>
          <ns3:TrackPointExtension>
            <ns3:hr>176</ns3:hr>
            <ns3:cad>81</ns3:cad>
          </ns3:TrackPointExtension>
        </extensions>
      </trkpt>
      <trkpt lat="52.068788520991802215576171875" lon="1.39400948770344257354736328125">
        <ele>-113.59999847412109375</ele>
        <time>2025-09-05T15:03:50.000Z</time>
        <extensions>
          <ns3:TrackPointExtension>
            <ns3:hr>176</ns3:hr>
            <ns3:cad>82</ns3:cad>
          </ns3:TrackPointExtension>
        </extensions>
      </trkpt>
      <trkpt lat="52.06882481463253498077392578125" lon="1.3940984196960926055908203125">
        <ele>-113.1999969482421875</ele>
        <time>2025-09-05T15:03:54.000Z</time>
        <extensions>
          <ns3:TrackPointExtension>
            <ns3:hr>177</ns3:hr>
            <ns3:cad>82</ns3:cad>
          </ns3:TrackPointExtension>
        </extensions>
      </trkpt>
      <trkpt lat="52.068885080516338348388671875" lon="1.39418064616620540618896484375">
        <ele>-112.8000030517578125</ele>
        <time>2025-09-05T15:03:58.000Z</time>
        <extensions>
          <ns3:TrackPointExtension>
            <ns3:hr>175</ns3:hr>
            <ns3:cad>81</ns3:cad>
          </ns3:TrackPointExtension>
        </extensions>
      </trkpt>
      <trkpt lat="52.06898289732635021209716796875" lon="1.39435482211410999298095703125">
        <ele>-112.40000152587890625</ele>
        <time>2025-09-05T15:04:06.000Z</time>
        <extensions>
          <ns3:TrackPointExtension>
            <ns3:hr>176</ns3:hr>
            <ns3:cad>82</ns3:cad>
          </ns3:TrackPointExtension>
        </extensions>
      </trkpt>
      <trkpt lat="52.0690119825303554534912109375" lon="1.39456906355917453765869140625">
        <ele>-112.1999969482421875</ele>
        <time>2025-09-05T15:04:11.000Z</time>
        <extensions>
          <ns3:TrackPointExtension>
            <ns3:hr>177</ns3:hr>
            <ns3:cad>81</ns3:cad>
          </ns3:TrackPointExtension>
        </extensions>
      </trkpt>
      <trkpt lat="52.0690297521650791168212890625" lon="1.39462807215750217437744140625">
        <ele>-112</ele>
        <time>2025-09-05T15:04:13.000Z</time>
        <extensions>
          <ns3:TrackPointExtension>
            <ns3:hr>178</ns3:hr>
            <ns3:cad>81</ns3:cad>
          </ns3:TrackPointExtension>
        </extensions>
      </trkpt>
      <trkpt lat="52.0691038481891155242919921875" lon="1.394753046333789825439453125">
        <ele>-112</ele>
        <time>2025-09-05T15:04:19.000Z</time>
        <extensions>
          <ns3:TrackPointExtension>
            <ns3:hr>180</ns3:hr>
            <ns3:cad>81</ns3:cad>
          </ns3:TrackPointExtension>
        </extensions>
      </trkpt>
      <trkpt lat="52.0691655389964580535888671875" lon="1.3948866538703441619873046875">
        <ele>-112</ele>
        <time>2025-09-05T15:04:24.000Z</time>
        <extensions>
          <ns3:TrackPointExtension>
            <ns3:hr>177</ns3:hr>
            <ns3:cad>82</ns3:cad>
          </ns3:TrackPointExtension>
        </extensions>
      </trkpt>
      <trkpt lat="52.0691885054111480712890625" lon="1.3949607498943805694580078125">
        <ele>-112</ele>
        <time>2025-09-05T15:04:27.000Z</time>
        <extensions>
          <ns3:TrackPointExtension>
            <ns3:hr>176</ns3:hr>
            <ns3:cad>82</ns3:cad>
          </ns3:TrackPointExtension>
        </extensions>
      </trkpt>
      <trkpt lat="52.0692600868642330169677734375" lon="1.39514188282191753387451171875">
        <ele>-112</ele>
        <time>2025-09-05T15:04:35.000Z</time>
        <extensions>
          <ns3:TrackPointExtension>
            <ns3:hr>177</ns3:hr>
            <ns3:cad>81</ns3:cad>
          </ns3:TrackPointExtension>
        </extensions>
      </trkpt>
      <trkpt lat="52.069308198988437652587890625" lon="1.39537272043526172637939453125">
        <ele>-112.1999969482421875</ele>
        <time>2025-09-05T15:04:42.000Z</time>
        <extensions>
          <ns3:TrackPointExtension>
            <ns3:hr>175</ns3:hr>
            <ns3:cad>80</ns3:cad>
          </ns3:TrackPointExtension>
        </extensions>
      </trkpt>
      <trkpt lat="52.06938371993601322174072265625" lon="1.39565871097147464752197265625">
        <ele>-112.59999847412109375</ele>
        <time>2025-09-05T15:04:50.000Z</time>
        <extensions>
          <ns3:TrackPointExtension>
            <ns3:hr>174</ns3:hr>
            <ns3:cad>80</ns3:cad>
          </ns3:TrackPointExtension>
        </extensions>
      </trkpt>
      <trkpt lat="52.06939729861915111541748046875" lon="1.39569190330803394317626953125">
        <ele>-112.59999847412109375</ele>
        <time>2025-09-05T15:04:51.000Z</time>
        <extensions>
          <ns3:TrackPointExtension>
            <ns3:hr>174</ns3:hr>
            <ns3:cad>80</ns3:cad>
          </ns3:TrackPointExtension>
        </extensions>
      </trkpt>
      <trkpt lat="52.0694699697196483612060546875" lon="1.3958710245788097381591796875">
        <ele>-113</ele>
        <time>2025-09-05T15:04:58.000Z</time>
        <extensions>
          <ns3:TrackPointExtension>
            <ns3:hr>176</ns3:hr>
            <ns3:cad>81</ns3:cad>
          </ns3:TrackPointExtension>
        </extensions>
      </trkpt>
      <trkpt lat="52.0694991387426853179931640625" lon="1.39591746032238006591796875">
        <ele>-113.1999969482421875</ele>
        <time>2025-09-05T15:05:00.000Z</time>
        <extensions>
          <ns3:TrackPointExtension>
            <ns3:hr>175</ns3:hr>
            <ns3:cad>82</ns3:cad>
          </ns3:TrackPointExtension>
        </extensions>
      </trkpt>
      <trkpt lat="52.0695785991847515106201171875" lon="1.39608518220484256744384765625">
        <ele>-113.59999847412109375</ele>
        <time>2025-09-05T15:05:06.000Z</time>
        <extensions>
          <ns3:TrackPointExtension>
            <ns3:hr>178</ns3:hr>
            <ns3:cad>81</ns3:cad>
          </ns3:TrackPointExtension>
        </extensions>
      </trkpt>
      <trkpt lat="52.0696402899920940399169921875" lon="1.3962171971797943115234375">
        <ele>-113.8000030517578125</ele>
        <time>2025-09-05T15:05:11.000Z</time>
        <extensions>
          <ns3:TrackPointExtension>
            <ns3:hr>175</ns3:hr>
            <ns3:cad>80</ns3:cad>
          </ns3:TrackPointExtension>
        </extensions>
      </trkpt>
      <trkpt lat="52.06968513317406177520751953125" lon="1.3962706737220287322998046875">
        <ele>-114</ele>
        <time>2025-09-05T15:05:14.000Z</time>
        <extensions>
          <ns3:TrackPointExtension>
            <ns3:hr>175</ns3:hr>
            <ns3:cad>80</ns3:cad>
          </ns3:TrackPointExtension>
        </extensions>
      </trkpt>
      <trkpt lat="52.06982125528156757354736328125" lon="1.39635357074439525604248046875">
        <ele>-114.1999969482421875</ele>
        <time>2025-09-05T15:05:20.000Z</time>
        <extensions>
          <ns3:TrackPointExtension>
            <ns3:hr>176</ns3:hr>
            <ns3:cad>80</ns3:cad>
          </ns3:TrackPointExtension>
        </extensions>
      </trkpt>
      <trkpt lat="52.0698501728475093841552734375" lon="1.39639757573604583740234375">
        <ele>-114.40000152587890625</ele>
        <time>2025-09-05T15:05:22.000Z</time>
        <extensions>
          <ns3:TrackPointExtension>
            <ns3:hr>177</ns3:hr>
            <ns3:cad>80</ns3:cad>
          </ns3:TrackPointExtension>
        </extensions>
      </trkpt>
      <trkpt lat="52.06994815729558467864990234375" lon="1.39655188657343387603759765625">
        <ele>-115</ele>
        <time>2025-09-05T15:05:29.000Z</time>
        <extensions>
          <ns3:TrackPointExtension>
            <ns3:hr>176</ns3:hr>
            <ns3:cad>79</ns3:cad>
          </ns3:TrackPointExtension>
        </extensions>
      </trkpt>
      <trkpt lat="52.070031724870204925537109375" lon="1.39658222906291484832763671875">
        <ele>-115.40000152587890625</ele>
        <time>2025-09-05T15:05:33.000Z</time>
        <extensions>
          <ns3:TrackPointExtension>
            <ns3:hr>176</ns3:hr>
            <ns3:cad>58</ns3:cad>
          </ns3:TrackPointExtension>
        </extensions>
      </trkpt>
      <trkpt lat="52.07004941068589687347412109375" lon="1.3965982384979724884033203125">
        <ele>-115.40000152587890625</ele>
        <time>2025-09-05T15:05:34.000Z</time>
        <extensions>
          <ns3:TrackPointExtension>
            <ns3:hr>176</ns3:hr>
            <ns3:cad>58</ns3:cad>
          </ns3:TrackPointExtension>
        </extensions>
      </trkpt>
      <trkpt lat="52.070064246654510498046875" lon="1.39661081135272979736328125">
        <ele>-115.59999847412109375</ele>
        <time>2025-09-05T15:05:35.000Z</time>
        <extensions>
          <ns3:TrackPointExtension>
            <ns3:hr>175</ns3:hr>
            <ns3:cad>58</ns3:cad>
          </ns3:TrackPointExtension>
        </extensions>
      </trkpt>
      <trkpt lat="52.0701006241142749786376953125" lon="1.39666101895272731781005859375">
        <ele>-116</ele>
        <time>2025-09-05T15:05:40.000Z</time>
        <extensions>
          <ns3:TrackPointExtension>
            <ns3:hr>172</ns3:hr>
            <ns3:cad>55</ns3:cad>
          </ns3:TrackPointExtension>
        </extensions>
      </trkpt>
      <trkpt lat="52.0701004564762115478515625" lon="1.39665481634438037872314453125">
        <ele>-116.1999969482421875</ele>
        <time>2025-09-05T15:05:41.000Z</time>
        <extensions>
          <ns3:TrackPointExtension>
            <ns3:hr>171</ns3:hr>
            <ns3:cad>55</ns3:cad>
          </ns3:TrackPointExtension>
        </extensions>
      </trkpt>
      <trkpt lat="52.070098780095577239990234375" lon="1.3966518826782703399658203125">
        <ele>-116.40000152587890625</ele>
        <time>2025-09-05T15:05:42.000Z</time>
        <extensions>
          <ns3:TrackPointExtension>
            <ns3:hr>170</ns3:hr>
            <ns3:cad>55</ns3:cad>
          </ns3:TrackPointExtension>
        </extensions>
      </trkpt>
      <trkpt lat="52.07011319696903228759765625" lon="1.39668867923319339752197265625">
        <ele>-117.1999969482421875</ele>
        <time>2025-09-05T15:05:47.000Z</time>
        <extensions>
          <ns3:TrackPointExtension>
            <ns3:hr>167</ns3:hr>
            <ns3:cad>0</ns3:cad>
          </ns3:TrackPointExtension>
        </extensions>
      </trkpt>
      <trkpt lat="52.07011747173964977264404296875" lon="1.39670510776340961456298828125">
        <ele>-117.40000152587890625</ele>
        <time>2025-09-05T15:05:48.000Z</time>
        <extensions>
          <ns3:TrackPointExtension>
            <ns3:hr>165</ns3:hr>
            <ns3:cad>0</ns3:cad>
          </ns3:TrackPointExtension>
        </extensions>
      </trkpt>
      <trkpt lat="52.0701210759580135345458984375" lon="1.39671751298010349273681640625">
        <ele>-117.59999847412109375</ele>
        <time>2025-09-05T15:05:49.000Z</time>
        <extensions>
          <ns3:TrackPointExtension>
            <ns3:hr>166</ns3:hr>
            <ns3:cad>0</ns3:cad>
          </ns3:TrackPointExtension>
        </extensions>
      </trkpt>
      <trkpt lat="52.07015200518071651458740234375" lon="1.3968099653720855712890625">
        <ele>-118.59999847412109375</ele>
        <time>2025-09-05T15:05:54.000Z</time>
        <extensions>
          <ns3:TrackPointExtension>
            <ns3:hr>163</ns3:hr>
            <ns3:cad>57</ns3:cad>
          </ns3:TrackPointExtension>
        </extensions>
      </trkpt>
      <trkpt lat="52.07016273401677608489990234375" lon="1.396823041141033172607421875">
        <ele>-118.8000030517578125</ele>
        <time>2025-09-05T15:05:55.000Z</time>
        <extensions>
          <ns3:TrackPointExtension>
            <ns3:hr>163</ns3:hr>
            <ns3:cad>56</ns3:cad>
          </ns3:TrackPointExtension>
        </extensions>
      </trkpt>
      <trkpt lat="52.07020707428455352783203125" lon="1.39690853655338287353515625">
        <ele>-119.59999847412109375</ele>
        <time>2025-09-05T15:05:59.000Z</time>
        <extensions>
          <ns3:TrackPointExtension>
            <ns3:hr>159</ns3:hr>
            <ns3:cad>59</ns3:cad>
          </ns3:TrackPointExtension>
        </extensions>
      </trkpt>
      <trkpt lat="52.07025024108588695526123046875" lon="1.39693795703351497650146484375">
        <ele>-120.40000152587890625</ele>
        <time>2025-09-05T15:06:02.000Z</time>
        <extensions>
          <ns3:TrackPointExtension>
            <ns3:hr>161</ns3:hr>
            <ns3:cad>58</ns3:cad>
          </ns3:TrackPointExtension>
        </extensions>
      </trkpt>
      <trkpt lat="52.070281840860843658447265625" lon="1.39696109108626842498779296875">
        <ele>-120.8000030517578125</ele>
        <time>2025-09-05T15:06:04.000Z</time>
        <extensions>
          <ns3:TrackPointExtension>
            <ns3:hr>160</ns3:hr>
            <ns3:cad>59</ns3:cad>
          </ns3:TrackPointExtension>
        </extensions>
      </trkpt>
      <trkpt lat="52.07031947560608386993408203125" lon="1.39701406471431255340576171875">
        <ele>-121.8000030517578125</ele>
        <time>2025-09-05T15:06:08.000Z</time>
        <extensions>
          <ns3:TrackPointExtension>
            <ns3:hr>160</ns3:hr>
            <ns3:cad>58</ns3:cad>
          </ns3:TrackPointExtension>
        </extensions>
      </trkpt>
      <trkpt lat="52.070327103137969970703125" lon="1.397031247615814208984375">
        <ele>-122</ele>
        <time>2025-09-05T15:06:09.000Z</time>
        <extensions>
          <ns3:TrackPointExtension>
            <ns3:hr>159</ns3:hr>
            <ns3:cad>59</ns3:cad>
          </ns3:TrackPointExtension>
        </extensions>
      </trkpt>
      <trkpt lat="52.070385105907917022705078125" lon="1.39709897339344024658203125">
        <ele>-122.8000030517578125</ele>
        <time>2025-09-05T15:06:13.000Z</time>
        <extensions>
          <ns3:TrackPointExtension>
            <ns3:hr>158</ns3:hr>
            <ns3:cad>0</ns3:cad>
          </ns3:TrackPointExtension>
        </extensions>
      </trkpt>
      <trkpt lat="52.07040010951459407806396484375" lon="1.39712152071297168731689453125">
        <ele>-123.1999969482421875</ele>
        <time>2025-09-05T15:06:14.000Z</time>
        <extensions>
          <ns3:TrackPointExtension>
            <ns3:hr>158</ns3:hr>
            <ns3:cad>60</ns3:cad>
          </ns3:TrackPointExtension>
        </extensions>
      </trkpt>
      <trkpt lat="52.0704556815326213836669921875" lon="1.39719964005053043365478515625">
        <ele>-124.1999969482421875</ele>
        <time>2025-09-05T15:06:18.000Z</time>
        <extensions>
          <ns3:TrackPointExtension>
            <ns3:hr>156</ns3:hr>
            <ns3:cad>59</ns3:cad>
          </ns3:TrackPointExtension>
        </extensions>
      </trkpt>
      <trkpt lat="52.07046783529222011566162109375" lon="1.39721908606588840484619140625">
        <ele>-124.40000152587890625</ele>
        <time>2025-09-05T15:06:19.000Z</time>
        <extensions>
          <ns3:TrackPointExtension>
            <ns3:hr>156</ns3:hr>
            <ns3:cad>59</ns3:cad>
          </ns3:TrackPointExtension>
        </extensions>
      </trkpt>
      <trkpt lat="52.07048225216567516326904296875" lon="1.3972605764865875244140625">
        <ele>-125</ele>
        <time>2025-09-05T15:06:21.000Z</time>
        <extensions>
          <ns3:TrackPointExtension>
            <ns3:hr>156</ns3:hr>
            <ns3:cad>0</ns3:cad>
          </ns3:TrackPointExtension>
        </extensions>
      </trkpt>
      <trkpt lat="52.07049583084881305694580078125" lon="1.397268287837505340576171875">
        <ele>-125.1999969482421875</ele>
        <time>2025-09-05T15:06:22.000Z</time>
        <extensions>
          <ns3:TrackPointExtension>
            <ns3:hr>156</ns3:hr>
            <ns3:cad>0</ns3:cad>
          </ns3:TrackPointExtension>
        </extensions>
      </trkpt>
      <trkpt lat="52.070537991821765899658203125" lon="1.397299468517303466796875">
        <ele>-126</ele>
        <time>2025-09-05T15:06:25.000Z</time>
        <extensions>
          <ns3:TrackPointExtension>
            <ns3:hr>156</ns3:hr>
            <ns3:cad>61</ns3:cad>
          </ns3:TrackPointExtension>
        </extensions>
      </trkpt>
      <trkpt lat="52.07055509090423583984375" lon="1.39732562005519866943359375">
        <ele>-126.40000152587890625</ele>
        <time>2025-09-05T15:06:27.000Z</time>
        <extensions>
          <ns3:TrackPointExtension>
            <ns3:hr>156</ns3:hr>
            <ns3:cad>61</ns3:cad>
          </ns3:TrackPointExtension>
        </extensions>
      </trkpt>
      <trkpt lat="52.07059741951525211334228515625" lon="1.39739594422280788421630859375">
        <ele>-127.59999847412109375</ele>
        <time>2025-09-05T15:06:32.000Z</time>
        <extensions>
          <ns3:TrackPointExtension>
            <ns3:hr>156</ns3:hr>
            <ns3:cad>60</ns3:cad>
          </ns3:TrackPointExtension>
        </extensions>
      </trkpt>
      <trkpt lat="52.07060295157134532928466796875" lon="1.39741891063749790191650390625">
        <ele>-127.8000030517578125</ele>
        <time>2025-09-05T15:06:33.000Z</time>
        <extensions>
          <ns3:TrackPointExtension>
            <ns3:hr>157</ns3:hr>
            <ns3:cad>59</ns3:cad>
          </ns3:TrackPointExtension>
        </extensions>
      </trkpt>
      <trkpt lat="52.0706394128501415252685546875" lon="1.39752301387488842010498046875">
        <ele>-128.8000030517578125</ele>
        <time>2025-09-05T15:06:38.000Z</time>
        <extensions>
          <ns3:TrackPointExtension>
            <ns3:hr>161</ns3:hr>
            <ns3:cad>61</ns3:cad>
          </ns3:TrackPointExtension>
        </extensions>
      </trkpt>
      <trkpt lat="52.07070202566683292388916015625" lon="1.39758671633899211883544921875">
        <ele>-129.600006103515625</ele>
        <time>2025-09-05T15:06:43.000Z</time>
        <extensions>
          <ns3:TrackPointExtension>
            <ns3:hr>161</ns3:hr>
            <ns3:cad>58</ns3:cad>
          </ns3:TrackPointExtension>
        </extensions>
      </trkpt>
      <trkpt lat="52.07071535289287567138671875" lon="1.397593505680561065673828125">
        <ele>-129.8000030517578125</ele>
        <time>2025-09-05T15:06:44.000Z</time>
        <extensions>
          <ns3:TrackPointExtension>
            <ns3:hr>159</ns3:hr>
            <ns3:cad>59</ns3:cad>
          </ns3:TrackPointExtension>
        </extensions>
      </trkpt>
      <trkpt lat="52.0707503892481327056884765625" lon="1.39763784594833850860595703125">
        <ele>-130.1999969482421875</ele>
        <time>2025-09-05T15:06:47.000Z</time>
        <extensions>
          <ns3:TrackPointExtension>
            <ns3:hr>156</ns3:hr>
            <ns3:cad>59</ns3:cad>
          </ns3:TrackPointExtension>
        </extensions>
      </trkpt>
      <trkpt lat="52.07077176310122013092041015625" lon="1.39767221175134181976318359375">
        <ele>-130.600006103515625</ele>
        <time>2025-09-05T15:06:49.000Z</time>
        <extensions>
          <ns3:TrackPointExtension>
            <ns3:hr>156</ns3:hr>
            <ns3:cad>60</ns3:cad>
          </ns3:TrackPointExtension>
        </extensions>
      </trkpt>
      <trkpt lat="52.07079087384045124053955078125" lon="1.39770372770726680755615234375">
        <ele>-130.8000030517578125</ele>
        <time>2025-09-05T15:06:51.000Z</time>
        <extensions>
          <ns3:TrackPointExtension>
            <ns3:hr>157</ns3:hr>
            <ns3:cad>60</ns3:cad>
          </ns3:TrackPointExtension>
        </extensions>
      </trkpt>
      <trkpt lat="52.07085994072258472442626953125" lon="1.39780707657337188720703125">
        <ele>-131.8000030517578125</ele>
        <time>2025-09-05T15:06:56.000Z</time>
        <extensions>
          <ns3:TrackPointExtension>
            <ns3:hr>156</ns3:hr>
            <ns3:cad>78</ns3:cad>
          </ns3:TrackPointExtension>
        </extensions>
      </trkpt>
      <trkpt lat="52.07087519578635692596435546875" lon="1.39782744459807872772216796875">
        <ele>-132</ele>
        <time>2025-09-05T15:06:57.000Z</time>
        <extensions>
          <ns3:TrackPointExtension>
            <ns3:hr>154</ns3:hr>
            <ns3:cad>80</ns3:cad>
          </ns3:TrackPointExtension>
        </extensions>
      </trkpt>
      <trkpt lat="52.0709374733269214630126953125" lon="1.3979229144752025604248046875">
        <ele>-132.600006103515625</ele>
        <time>2025-09-05T15:07:01.000Z</time>
        <extensions>
          <ns3:TrackPointExtension>
            <ns3:hr>158</ns3:hr>
            <ns3:cad>80</ns3:cad>
          </ns3:TrackPointExtension>
        </extensions>
      </trkpt>
      <trkpt lat="52.0709508843719959259033203125" lon="1.39796339906752109527587890625">
        <ele>-132.8000030517578125</ele>
        <time>2025-09-05T15:07:02.000Z</time>
        <extensions>
          <ns3:TrackPointExtension>
            <ns3:hr>161</ns3:hr>
            <ns3:cad>79</ns3:cad>
          </ns3:TrackPointExtension>
        </extensions>
      </trkpt>
      <trkpt lat="52.07096588797867298126220703125" lon="1.39799290336668491363525390625">
        <ele>-133</ele>
        <time>2025-09-05T15:07:03.000Z</time>
        <extensions>
          <ns3:TrackPointExtension>
            <ns3:hr>163</ns3:hr>
            <ns3:cad>79</ns3:cad>
          </ns3:TrackPointExtension>
        </extensions>
      </trkpt>
      <trkpt lat="52.0709817297756671905517578125" lon="1.3980204798281192779541015625">
        <ele>-133.1999969482421875</ele>
        <time>2025-09-05T15:07:04.000Z</time>
        <extensions>
          <ns3:TrackPointExtension>
            <ns3:hr>165</ns3:hr>
            <ns3:cad>80</ns3:cad>
          </ns3:TrackPointExtension>
        </extensions>
      </trkpt>
      <trkpt lat="52.07099723629653453826904296875" lon="1.39804135076701641082763671875">
        <ele>-133.399993896484375</ele>
        <time>2025-09-05T15:07:05.000Z</time>
        <extensions>
          <ns3:TrackPointExtension>
            <ns3:hr>168</ns3:hr>
            <ns3:cad>82</ns3:cad>
          </ns3:TrackPointExtension>
        </extensions>
      </trkpt>
      <trkpt lat="52.071072757244110107421875" lon="1.39807395637035369873046875">
        <ele>-133.8000030517578125</ele>
        <time>2025-09-05T15:07:08.000Z</time>
        <extensions>
          <ns3:TrackPointExtension>
            <ns3:hr>171</ns3:hr>
            <ns3:cad>82</ns3:cad>
          </ns3:TrackPointExtension>
        </extensions>
      </trkpt>
      <trkpt lat="52.07108876667916774749755859375" lon="1.3980985991656780242919921875">
        <ele>-134</ele>
        <time>2025-09-05T15:07:09.000Z</time>
        <extensions>
          <ns3:TrackPointExtension>
            <ns3:hr>173</ns3:hr>
            <ns3:cad>82</ns3:cad>
          </ns3:TrackPointExtension>
        </extensions>
      </trkpt>
      <trkpt lat="52.0711138285696506500244140625" lon="1.398146711289882659912109375">
        <ele>-134.399993896484375</ele>
        <time>2025-09-05T15:07:11.000Z</time>
        <extensions>
          <ns3:TrackPointExtension>
            <ns3:hr>176</ns3:hr>
            <ns3:cad>82</ns3:cad>
          </ns3:TrackPointExtension>
        </extensions>
      </trkpt>
      <trkpt lat="52.07121097482740879058837890625" lon="1.39824704267084598541259765625">
        <ele>-135</ele>
        <time>2025-09-05T15:07:17.000Z</time>
        <extensions>
          <ns3:TrackPointExtension>
            <ns3:hr>177</ns3:hr>
            <ns3:cad>80</ns3:cad>
          </ns3:TrackPointExtension>
        </extensions>
      </trkpt>
      <trkpt lat="52.0712298341095447540283203125" lon="1.39826565049588680267333984375">
        <ele>-135.1999969482421875</ele>
        <time>2025-09-05T15:07:18.000Z</time>
        <extensions>
          <ns3:TrackPointExtension>
            <ns3:hr>177</ns3:hr>
            <ns3:cad>81</ns3:cad>
          </ns3:TrackPointExtension>
        </extensions>
      </trkpt>
      <trkpt lat="52.0712801255285739898681640625" lon="1.39831292442977428436279296875">
        <ele>-135.399993896484375</ele>
        <time>2025-09-05T15:07:21.000Z</time>
        <extensions>
          <ns3:TrackPointExtension>
            <ns3:hr>180</ns3:hr>
            <ns3:cad>81</ns3:cad>
          </ns3:TrackPointExtension>
        </extensions>
      </trkpt>
      <trkpt lat="52.07133536227047443389892578125" lon="1.39838366769254207611083984375">
        <ele>-135.1999969482421875</ele>
        <time>2025-09-05T15:07:25.000Z</time>
        <extensions>
          <ns3:TrackPointExtension>
            <ns3:hr>180</ns3:hr>
            <ns3:cad>81</ns3:cad>
          </ns3:TrackPointExtension>
        </extensions>
      </trkpt>
      <trkpt lat="52.07143426872789859771728515625" lon="1.39856471680104732513427734375">
        <ele>-134.399993896484375</ele>
        <time>2025-09-05T15:07:33.000Z</time>
        <extensions>
          <ns3:TrackPointExtension>
            <ns3:hr>182</ns3:hr>
            <ns3:cad>81</ns3:cad>
          </ns3:TrackPointExtension>
        </extensions>
      </trkpt>
      <trkpt lat="52.0715004019439220428466796875" lon="1.3986813090741634368896484375">
        <ele>-134</ele>
        <time>2025-09-05T15:07:38.000Z</time>
        <extensions>
          <ns3:TrackPointExtension>
            <ns3:hr>181</ns3:hr>
            <ns3:cad>82</ns3:cad>
          </ns3:TrackPointExtension>
        </extensions>
      </trkpt>
      <trkpt lat="52.0715153217315673828125" lon="1.39870653860270977020263671875">
        <ele>-134</ele>
        <time>2025-09-05T15:07:39.000Z</time>
        <extensions>
          <ns3:TrackPointExtension>
            <ns3:hr>181</ns3:hr>
            <ns3:cad>82</ns3:cad>
          </ns3:TrackPointExtension>
        </extensions>
      </trkpt>
      <trkpt lat="52.07164876163005828857421875" lon="1.3988838158547878265380859375">
        <ele>-133.399993896484375</ele>
        <time>2025-09-05T15:07:47.000Z</time>
        <extensions>
          <ns3:TrackPointExtension>
            <ns3:hr>181</ns3:hr>
            <ns3:cad>82</ns3:cad>
          </ns3:TrackPointExtension>
        </extensions>
      </trkpt>
      <trkpt lat="52.0717461593449115753173828125" lon="1.39901943504810333251953125">
        <ele>-133</ele>
        <time>2025-09-05T15:07:53.000Z</time>
        <extensions>
          <ns3:TrackPointExtension>
            <ns3:hr>181</ns3:hr>
            <ns3:cad>81</ns3:cad>
          </ns3:TrackPointExtension>
        </extensions>
      </trkpt>
      <trkpt lat="52.07184699364006519317626953125" lon="1.3991221971809864044189453125">
        <ele>-132.8000030517578125</ele>
        <time>2025-09-05T15:07:59.000Z</time>
        <extensions>
          <ns3:TrackPointExtension>
            <ns3:hr>181</ns3:hr>
            <ns3:cad>81</ns3:cad>
          </ns3:TrackPointExtension>
        </extensions>
      </trkpt>
      <trkpt lat="52.0719780027866363525390625" lon="1.39924733899533748626708984375">
        <ele>-132.600006103515625</ele>
        <time>2025-09-05T15:08:07.000Z</time>
        <extensions>
          <ns3:TrackPointExtension>
            <ns3:hr>182</ns3:hr>
            <ns3:cad>82</ns3:cad>
          </ns3:TrackPointExtension>
        </extensions>
      </trkpt>
      <trkpt lat="52.07209375686943531036376953125" lon="1.39944129623472690582275390625">
        <ele>-132.600006103515625</ele>
        <time>2025-09-05T15:08:15.000Z</time>
        <extensions>
          <ns3:TrackPointExtension>
            <ns3:hr>181</ns3:hr>
            <ns3:cad>81</ns3:cad>
          </ns3:TrackPointExtension>
        </extensions>
      </trkpt>
      <trkpt lat="52.0722145400941371917724609375" lon="1.39961580745875835418701171875">
        <ele>-132.600006103515625</ele>
        <time>2025-09-05T15:08:23.000Z</time>
        <extensions>
          <ns3:TrackPointExtension>
            <ns3:hr>181</ns3:hr>
            <ns3:cad>82</ns3:cad>
          </ns3:TrackPointExtension>
        </extensions>
      </trkpt>
      <trkpt lat="52.07231604494154453277587890625" lon="1.39977925457060337066650390625">
        <ele>-132.600006103515625</ele>
        <time>2025-09-05T15:08:30.000Z</time>
        <extensions>
          <ns3:TrackPointExtension>
            <ns3:hr>178</ns3:hr>
            <ns3:cad>82</ns3:cad>
          </ns3:TrackPointExtension>
        </extensions>
      </trkpt>
      <trkpt lat="52.07232870161533355712890625" lon="1.39980523847043514251708984375">
        <ele>-132.600006103515625</ele>
        <time>2025-09-05T15:08:31.000Z</time>
        <extensions>
          <ns3:TrackPointExtension>
            <ns3:hr>178</ns3:hr>
            <ns3:cad>82</ns3:cad>
          </ns3:TrackPointExtension>
        </extensions>
      </trkpt>
      <trkpt lat="52.0724203996360301971435546875" lon="1.3999275304377079010009765625">
        <ele>-132.600006103515625</ele>
        <time>2025-09-05T15:08:37.000Z</time>
        <extensions>
          <ns3:TrackPointExtension>
            <ns3:hr>177</ns3:hr>
            <ns3:cad>82</ns3:cad>
          </ns3:TrackPointExtension>
        </extensions>
      </trkpt>
      <trkpt lat="52.0725126005709171295166015625" lon="1.4001209847629070281982421875">
        <ele>-132.600006103515625</ele>
        <time>2025-09-05T15:08:44.000Z</time>
        <extensions>
          <ns3:TrackPointExtension>
            <ns3:hr>178</ns3:hr>
            <ns3:cad>82</ns3:cad>
          </ns3:TrackPointExtension>
        </extensions>
      </trkpt>
      <trkpt lat="52.07257144153118133544921875" lon="1.4002644829452037811279296875">
        <ele>-132.600006103515625</ele>
        <time>2025-09-05T15:08:49.000Z</time>
        <extensions>
          <ns3:TrackPointExtension>
            <ns3:hr>181</ns3:hr>
            <ns3:cad>82</ns3:cad>
          </ns3:TrackPointExtension>
        </extensions>
      </trkpt>
      <trkpt lat="52.07260739989578723907470703125" lon="1.40032910741865634918212890625">
        <ele>-132.600006103515625</ele>
        <time>2025-09-05T15:08:52.000Z</time>
        <extensions>
          <ns3:TrackPointExtension>
            <ns3:hr>180</ns3:hr>
            <ns3:cad>82</ns3:cad>
          </ns3:TrackPointExtension>
        </extensions>
      </trkpt>
      <trkpt lat="52.072719968855381011962890625" lon="1.40058408491313457489013671875">
        <ele>-132.8000030517578125</ele>
        <time>2025-09-05T15:09:01.000Z</time>
        <extensions>
          <ns3:TrackPointExtension>
            <ns3:hr>179</ns3:hr>
            <ns3:cad>81</ns3:cad>
          </ns3:TrackPointExtension>
        </extensions>
      </trkpt>
      <trkpt lat="52.0727845095098018646240234375" lon="1.400696150958538055419921875">
        <ele>-132.8000030517578125</ele>
        <time>2025-09-05T15:09:05.000Z</time>
        <extensions>
          <ns3:TrackPointExtension>
            <ns3:hr>176</ns3:hr>
            <ns3:cad>79</ns3:cad>
          </ns3:TrackPointExtension>
        </extensions>
      </trkpt>
      <trkpt lat="52.07283589057624340057373046875" lon="1.4007447659969329833984375">
        <ele>-133</ele>
        <time>2025-09-05T15:09:08.000Z</time>
        <extensions>
          <ns3:TrackPointExtension>
            <ns3:hr>176</ns3:hr>
            <ns3:cad>81</ns3:cad>
          </ns3:TrackPointExtension>
        </extensions>
      </trkpt>
      <trkpt lat="52.072892971336841583251953125" lon="1.40082531608641147613525390625">
        <ele>-133.1999969482421875</ele>
        <time>2025-09-05T15:09:12.000Z</time>
        <extensions>
          <ns3:TrackPointExtension>
            <ns3:hr>180</ns3:hr>
            <ns3:cad>80</ns3:cad>
          </ns3:TrackPointExtension>
        </extensions>
      </trkpt>
      <trkpt lat="52.07293597050011157989501953125" lon="1.40093444846570491790771484375">
        <ele>-133.600006103515625</ele>
        <time>2025-09-05T15:09:16.000Z</time>
        <extensions>
          <ns3:TrackPointExtension>
            <ns3:hr>179</ns3:hr>
            <ns3:cad>79</ns3:cad>
          </ns3:TrackPointExtension>
        </extensions>
      </trkpt>
      <trkpt lat="52.07297687418758869171142578125" lon="1.4010523818433284759521484375">
        <ele>-134.1999969482421875</ele>
        <time>2025-09-05T15:09:20.000Z</time>
        <extensions>
          <ns3:TrackPointExtension>
            <ns3:hr>180</ns3:hr>
            <ns3:cad>79</ns3:cad>
          </ns3:TrackPointExtension>
        </extensions>
      </trkpt>
      <trkpt lat="52.07302632741630077362060546875" lon="1.40114902518689632415771484375">
        <ele>-134.600006103515625</ele>
        <time>2025-09-05T15:09:24.000Z</time>
        <extensions>
          <ns3:TrackPointExtension>
            <ns3:hr>179</ns3:hr>
            <ns3:cad>81</ns3:cad>
          </ns3:TrackPointExtension>
        </extensions>
      </trkpt>
      <trkpt lat="52.0730822347104549407958984375" lon="1.4012168347835540771484375">
        <ele>-135.1999969482421875</ele>
        <time>2025-09-05T15:09:28.000Z</time>
        <extensions>
          <ns3:TrackPointExtension>
            <ns3:hr>178</ns3:hr>
            <ns3:cad>80</ns3:cad>
          </ns3:TrackPointExtension>
        </extensions>
      </trkpt>
      <trkpt lat="52.07318122498691082000732421875" lon="1.40124298632144927978515625">
        <ele>-136</ele>
        <time>2025-09-05T15:09:33.000Z</time>
        <extensions>
          <ns3:TrackPointExtension>
            <ns3:hr>178</ns3:hr>
            <ns3:cad>82</ns3:cad>
          </ns3:TrackPointExtension>
        </extensions>
      </trkpt>
      <trkpt lat="52.073238305747509002685546875" lon="1.40129663050174713134765625">
        <ele>-136.1999969482421875</ele>
        <time>2025-09-05T15:09:36.000Z</time>
        <extensions>
          <ns3:TrackPointExtension>
            <ns3:hr>179</ns3:hr>
            <ns3:cad>81</ns3:cad>
          </ns3:TrackPointExtension>
        </extensions>
      </trkpt>
      <trkpt lat="52.07330812700092792510986328125" lon="1.40137734822928905487060546875">
        <ele>-136.8000030517578125</ele>
        <time>2025-09-05T15:09:40.000Z</time>
        <extensions>
          <ns3:TrackPointExtension>
            <ns3:hr>180</ns3:hr>
            <ns3:cad>82</ns3:cad>
          </ns3:TrackPointExtension>
        </extensions>
      </trkpt>
      <trkpt lat="52.07337878644466400146484375" lon="1.40146485529839992523193359375">
        <ele>-137.399993896484375</ele>
        <time>2025-09-05T15:09:44.000Z</time>
        <extensions>
          <ns3:TrackPointExtension>
            <ns3:hr>180</ns3:hr>
            <ns3:cad>82</ns3:cad>
          </ns3:TrackPointExtension>
        </extensions>
      </trkpt>
      <trkpt lat="52.0734295807778835296630859375" lon="1.40151657164096832275390625">
        <ele>-137.8000030517578125</ele>
        <time>2025-09-05T15:09:47.000Z</time>
        <extensions>
          <ns3:TrackPointExtension>
            <ns3:hr>181</ns3:hr>
            <ns3:cad>82</ns3:cad>
          </ns3:TrackPointExtension>
        </extensions>
      </trkpt>
      <trkpt lat="52.07350510172545909881591796875" lon="1.40164741314947605133056640625">
        <ele>-138.399993896484375</ele>
        <time>2025-09-05T15:09:52.000Z</time>
        <extensions>
          <ns3:TrackPointExtension>
            <ns3:hr>180</ns3:hr>
            <ns3:cad>82</ns3:cad>
          </ns3:TrackPointExtension>
        </extensions>
      </trkpt>
      <trkpt lat="52.07354047335684299468994140625" lon="1.4016998000442981719970703125">
        <ele>-138.8000030517578125</ele>
        <time>2025-09-05T15:09:54.000Z</time>
        <extensions>
          <ns3:TrackPointExtension>
            <ns3:hr>182</ns3:hr>
            <ns3:cad>82</ns3:cad>
          </ns3:TrackPointExtension>
        </extensions>
      </trkpt>
      <trkpt lat="52.07355958409607410430908203125" lon="1.4017236046493053436279296875">
        <ele>-138.8000030517578125</ele>
        <time>2025-09-05T15:09:55.000Z</time>
        <extensions>
          <ns3:TrackPointExtension>
            <ns3:hr>179</ns3:hr>
            <ns3:cad>82</ns3:cad>
          </ns3:TrackPointExtension>
        </extensions>
      </trkpt>
      <trkpt lat="52.0736538805067539215087890625" lon="1.40182896517217159271240234375">
        <ele>-139.600006103515625</ele>
        <time>2025-09-05T15:10:00.000Z</time>
        <extensions>
          <ns3:TrackPointExtension>
            <ns3:hr>180</ns3:hr>
            <ns3:cad>82</ns3:cad>
          </ns3:TrackPointExtension>
        </extensions>
      </trkpt>
      <trkpt lat="52.07367022521793842315673828125" lon="1.4018543623387813568115234375">
        <ele>-139.600006103515625</ele>
        <time>2025-09-05T15:10:01.000Z</time>
        <extensions>
          <ns3:TrackPointExtension>
            <ns3:hr>180</ns3:hr>
            <ns3:cad>82</ns3:cad>
          </ns3:TrackPointExtension>
        </extensions>
      </trkpt>
      <trkpt lat="52.07375572063028812408447265625" lon="1.4020697772502899169921875">
        <ele>-140.399993896484375</ele>
        <time>2025-09-05T15:10:08.000Z</time>
        <extensions>
          <ns3:TrackPointExtension>
            <ns3:hr>180</ns3:hr>
            <ns3:cad>82</ns3:cad>
          </ns3:TrackPointExtension>
        </extensions>
      </trkpt>
      <trkpt lat="52.07375605590641498565673828125" lon="1.40207891352474689483642578125">
        <ele>-140.600006103515625</ele>
        <time>2025-09-05T15:10:09.000Z</time>
        <extensions>
          <ns3:TrackPointExtension>
            <ns3:hr>180</ns3:hr>
            <ns3:cad>82</ns3:cad>
          </ns3:TrackPointExtension>
        </extensions>
      </trkpt>
      <trkpt lat="52.07374029792845249176025390625" lon="1.40216038562357425689697265625">
        <ele>-140.8000030517578125</ele>
        <time>2025-09-05T15:10:12.000Z</time>
        <extensions>
          <ns3:TrackPointExtension>
            <ns3:hr>180</ns3:hr>
            <ns3:cad>0</ns3:cad>
          </ns3:TrackPointExtension>
        </extensions>
      </trkpt>
      <trkpt lat="52.073738873004913330078125" lon="1.402190141379833221435546875">
        <ele>-141</ele>
        <time>2025-09-05T15:10:13.000Z</time>
        <extensions>
          <ns3:TrackPointExtension>
            <ns3:hr>178</ns3:hr>
            <ns3:cad>54</ns3:cad>
          </ns3:TrackPointExtension>
        </extensions>
      </trkpt>
      <trkpt lat="52.07371062599122524261474609375" lon="1.4023567736148834228515625">
        <ele>-141.600006103515625</ele>
        <time>2025-09-05T15:10:18.000Z</time>
        <extensions>
          <ns3:TrackPointExtension>
            <ns3:hr>175</ns3:hr>
            <ns3:cad>0</ns3:cad>
          </ns3:TrackPointExtension>
        </extensions>
      </trkpt>
      <trkpt lat="52.073702327907085418701171875" lon="1.4023864455521106719970703125">
        <ele>-141.600006103515625</ele>
        <time>2025-09-05T15:10:19.000Z</time>
        <extensions>
          <ns3:TrackPointExtension>
            <ns3:hr>175</ns3:hr>
            <ns3:cad>54</ns3:cad>
          </ns3:TrackPointExtension>
        </extensions>
      </trkpt>
      <trkpt lat="52.0736934430897235870361328125" lon="1.4024075679481029510498046875">
        <ele>-141.8000030517578125</ele>
        <time>2025-09-05T15:10:20.000Z</time>
        <extensions>
          <ns3:TrackPointExtension>
            <ns3:hr>175</ns3:hr>
            <ns3:cad>54</ns3:cad>
          </ns3:TrackPointExtension>
        </extensions>
      </trkpt>
      <trkpt lat="52.07368330098688602447509765625" lon="1.40245257876813411712646484375">
        <ele>-142</ele>
        <time>2025-09-05T15:10:22.000Z</time>
        <extensions>
          <ns3:TrackPointExtension>
            <ns3:hr>171</ns3:hr>
            <ns3:cad>54</ns3:cad>
          </ns3:TrackPointExtension>
        </extensions>
      </trkpt>
      <trkpt lat="52.07365279085934162139892578125" lon="1.40251929871737957000732421875">
        <ele>-142.8000030517578125</ele>
        <time>2025-09-05T15:10:26.000Z</time>
        <extensions>
          <ns3:TrackPointExtension>
            <ns3:hr>173</ns3:hr>
            <ns3:cad>58</ns3:cad>
          </ns3:TrackPointExtension>
        </extensions>
      </trkpt>
      <trkpt lat="52.07364675588905811309814453125" lon="1.40252483077347278594970703125">
        <ele>-143</ele>
        <time>2025-09-05T15:10:27.000Z</time>
        <extensions>
          <ns3:TrackPointExtension>
            <ns3:hr>173</ns3:hr>
            <ns3:cad>58</ns3:cad>
          </ns3:TrackPointExtension>
        </extensions>
      </trkpt>
      <trkpt lat="52.0736458338797092437744140625" lon="1.40250974334776401519775390625">
        <ele>-143.600006103515625</ele>
        <time>2025-09-05T15:10:31.000Z</time>
        <extensions>
          <ns3:TrackPointExtension>
            <ns3:hr>170</ns3:hr>
            <ns3:cad>0</ns3:cad>
          </ns3:TrackPointExtension>
        </extensions>
      </trkpt>
      <trkpt lat="52.0736454986035823822021484375" lon="1.40250588767230510711669921875">
        <ele>-143.8000030517578125</ele>
        <time>2025-09-05T15:10:32.000Z</time>
        <extensions>
          <ns3:TrackPointExtension>
            <ns3:hr>171</ns3:hr>
            <ns3:cad>0</ns3:cad>
          </ns3:TrackPointExtension>
        </extensions>
      </trkpt>
      <trkpt lat="52.07364927046000957489013671875" lon="1.402540840208530426025390625">
        <ele>-144.600006103515625</ele>
        <time>2025-09-05T15:10:36.000Z</time>
        <extensions>
          <ns3:TrackPointExtension>
            <ns3:hr>169</ns3:hr>
            <ns3:cad>0</ns3:cad>
          </ns3:TrackPointExtension>
        </extensions>
      </trkpt>
      <trkpt lat="52.07363535650074481964111328125" lon="1.40259322710335254669189453125">
        <ele>-145</ele>
        <time>2025-09-05T15:10:38.000Z</time>
        <extensions>
          <ns3:TrackPointExtension>
            <ns3:hr>167</ns3:hr>
            <ns3:cad>0</ns3:cad>
          </ns3:TrackPointExtension>
        </extensions>
      </trkpt>
      <trkpt lat="52.07362010143697261810302734375" lon="1.40265843831002712249755859375">
        <ele>-145.399993896484375</ele>
        <time>2025-09-05T15:10:41.000Z</time>
        <extensions>
          <ns3:TrackPointExtension>
            <ns3:hr>164</ns3:hr>
            <ns3:cad>58</ns3:cad>
          </ns3:TrackPointExtension>
        </extensions>
      </trkpt>
      <trkpt lat="52.0735915191471576690673828125" lon="1.4027565903961658477783203125">
        <ele>-146</ele>
        <time>2025-09-05T15:10:45.000Z</time>
        <extensions>
          <ns3:TrackPointExtension>
            <ns3:hr>163</ns3:hr>
            <ns3:cad>61</ns3:cad>
          </ns3:TrackPointExtension>
        </extensions>
      </trkpt>
      <trkpt lat="52.07358288578689098358154296875" lon="1.4027807302772998809814453125">
        <ele>-146.1999969482421875</ele>
        <time>2025-09-05T15:10:46.000Z</time>
        <extensions>
          <ns3:TrackPointExtension>
            <ns3:hr>162</ns3:hr>
            <ns3:cad>61</ns3:cad>
          </ns3:TrackPointExtension>
        </extensions>
      </trkpt>
      <trkpt lat="52.0735348574817180633544921875" lon="1.4028910361230373382568359375">
        <ele>-147.1999969482421875</ele>
        <time>2025-09-05T15:10:51.000Z</time>
        <extensions>
          <ns3:TrackPointExtension>
            <ns3:hr>159</ns3:hr>
            <ns3:cad>0</ns3:cad>
          </ns3:TrackPointExtension>
        </extensions>
      </trkpt>
      <trkpt lat="52.073495127260684967041015625" lon="1.40298306941986083984375">
        <ele>-148</ele>
        <time>2025-09-05T15:10:55.000Z</time>
        <extensions>
          <ns3:TrackPointExtension>
            <ns3:hr>157</ns3:hr>
            <ns3:cad>60</ns3:cad>
          </ns3:TrackPointExtension>
        </extensions>
      </trkpt>
      <trkpt lat="52.07348481751978397369384765625" lon="1.40300662256777286529541015625">
        <ele>-148.1999969482421875</ele>
        <time>2025-09-05T15:10:56.000Z</time>
        <extensions>
          <ns3:TrackPointExtension>
            <ns3:hr>156</ns3:hr>
            <ns3:cad>60</ns3:cad>
          </ns3:TrackPointExtension>
        </extensions>
      </trkpt>
      <trkpt lat="52.07344173453748226165771484375" lon="1.4031170122325420379638671875">
        <ele>-149.600006103515625</ele>
        <time>2025-09-05T15:11:01.000Z</time>
        <extensions>
          <ns3:TrackPointExtension>
            <ns3:hr>156</ns3:hr>
            <ns3:cad>60</ns3:cad>
          </ns3:TrackPointExtension>
        </extensions>
      </trkpt>
      <trkpt lat="52.07343720830976963043212890625" lon="1.40313101001083850860595703125">
        <ele>-149.8000030517578125</ele>
        <time>2025-09-05T15:11:02.000Z</time>
        <extensions>
          <ns3:TrackPointExtension>
            <ns3:hr>154</ns3:hr>
            <ns3:cad>61</ns3:cad>
          </ns3:TrackPointExtension>
        </extensions>
      </trkpt>
      <trkpt lat="52.07342111505568027496337890625" lon="1.40318850986659526824951171875">
        <ele>-150.600006103515625</ele>
        <time>2025-09-05T15:11:05.000Z</time>
        <extensions>
          <ns3:TrackPointExtension>
            <ns3:hr>154</ns3:hr>
            <ns3:cad>61</ns3:cad>
          </ns3:TrackPointExtension>
        </extensions>
      </trkpt>
      <trkpt lat="52.07341223023831844329833984375" lon="1.40320862643420696258544921875">
        <ele>-150.8000030517578125</ele>
        <time>2025-09-05T15:11:06.000Z</time>
        <extensions>
          <ns3:TrackPointExtension>
            <ns3:hr>151</ns3:hr>
            <ns3:cad>61</ns3:cad>
          </ns3:TrackPointExtension>
        </extensions>
      </trkpt>
      <trkpt lat="52.07339764572679996490478515625" lon="1.40325020067393779754638671875">
        <ele>-151.399993896484375</ele>
        <time>2025-09-05T15:11:08.000Z</time>
        <extensions>
          <ns3:TrackPointExtension>
            <ns3:hr>154</ns3:hr>
            <ns3:cad>60</ns3:cad>
          </ns3:TrackPointExtension>
        </extensions>
      </trkpt>
      <trkpt lat="52.07339127548038959503173828125" lon="1.4032722450792789459228515625">
        <ele>-151.600006103515625</ele>
        <time>2025-09-05T15:11:09.000Z</time>
        <extensions>
          <ns3:TrackPointExtension>
            <ns3:hr>152</ns3:hr>
            <ns3:cad>59</ns3:cad>
          </ns3:TrackPointExtension>
        </extensions>
      </trkpt>
      <trkpt lat="52.07335422746837139129638671875" lon="1.403372995555400848388671875">
        <ele>-152.8000030517578125</ele>
        <time>2025-09-05T15:11:13.000Z</time>
        <extensions>
          <ns3:TrackPointExtension>
            <ns3:hr>153</ns3:hr>
            <ns3:cad>60</ns3:cad>
          </ns3:TrackPointExtension>
        </extensions>
      </trkpt>
      <trkpt lat="52.0733323507010936737060546875" lon="1.40344868414103984832763671875">
        <ele>-153.600006103515625</ele>
        <time>2025-09-05T15:11:16.000Z</time>
        <extensions>
          <ns3:TrackPointExtension>
            <ns3:hr>152</ns3:hr>
            <ns3:cad>60</ns3:cad>
          </ns3:TrackPointExtension>
        </extensions>
      </trkpt>
      <trkpt lat="52.07332522608339786529541015625" lon="1.40347567386925220489501953125">
        <ele>-153.8000030517578125</ele>
        <time>2025-09-05T15:11:17.000Z</time>
        <extensions>
          <ns3:TrackPointExtension>
            <ns3:hr>151</ns3:hr>
            <ns3:cad>60</ns3:cad>
          </ns3:TrackPointExtension>
        </extensions>
      </trkpt>
      <trkpt lat="52.07330209203064441680908203125" lon="1.4035696350038051605224609375">
        <ele>-155</ele>
        <time>2025-09-05T15:11:21.000Z</time>
        <extensions>
          <ns3:TrackPointExtension>
            <ns3:hr>150</ns3:hr>
            <ns3:cad>60</ns3:cad>
          </ns3:TrackPointExtension>
        </extensions>
      </trkpt>
      <trkpt lat="52.07330477423965930938720703125" lon="1.4035917632281780242919921875">
        <ele>-155.1999969482421875</ele>
        <time>2025-09-05T15:11:22.000Z</time>
        <extensions>
          <ns3:TrackPointExtension>
            <ns3:hr>149</ns3:hr>
            <ns3:cad>60</ns3:cad>
          </ns3:TrackPointExtension>
        </extensions>
      </trkpt>
      <trkpt lat="52.07330544479191303253173828125" lon="1.40365823172032833099365234375">
        <ele>-156</ele>
        <time>2025-09-05T15:11:25.000Z</time>
        <extensions>
          <ns3:TrackPointExtension>
            <ns3:hr>149</ns3:hr>
            <ns3:cad>0</ns3:cad>
          </ns3:TrackPointExtension>
        </extensions>
      </trkpt>
      <trkpt lat="52.0732880942523479461669921875" lon="1.40372914262115955352783203125">
        <ele>-156.600006103515625</ele>
        <time>2025-09-05T15:11:28.000Z</time>
        <extensions>
          <ns3:TrackPointExtension>
            <ns3:hr>149</ns3:hr>
            <ns3:cad>60</ns3:cad>
          </ns3:TrackPointExtension>
        </extensions>
      </trkpt>
      <trkpt lat="52.0732723362743854522705078125" lon="1.403780020773410797119140625">
        <ele>-157.1999969482421875</ele>
        <time>2025-09-05T15:11:30.000Z</time>
        <extensions>
          <ns3:TrackPointExtension>
            <ns3:hr>150</ns3:hr>
            <ns3:cad>60</ns3:cad>
          </ns3:TrackPointExtension>
        </extensions>
      </trkpt>
      <trkpt lat="52.07325196824967861175537109375" lon="1.40383224003016948699951171875">
        <ele>-157.600006103515625</ele>
        <time>2025-09-05T15:11:32.000Z</time>
        <extensions>
          <ns3:TrackPointExtension>
            <ns3:hr>153</ns3:hr>
            <ns3:cad>0</ns3:cad>
          </ns3:TrackPointExtension>
        </extensions>
      </trkpt>
      <trkpt lat="52.07323235459625720977783203125" lon="1.40390030108392238616943359375">
        <ele>-158.1999969482421875</ele>
        <time>2025-09-05T15:11:35.000Z</time>
        <extensions>
          <ns3:TrackPointExtension>
            <ns3:hr>152</ns3:hr>
            <ns3:cad>62</ns3:cad>
          </ns3:TrackPointExtension>
        </extensions>
      </trkpt>
      <trkpt lat="52.073230259120464324951171875" lon="1.40392159111797809600830078125">
        <ele>-158.399993896484375</ele>
        <time>2025-09-05T15:11:36.000Z</time>
        <extensions>
          <ns3:TrackPointExtension>
            <ns3:hr>155</ns3:hr>
            <ns3:cad>61</ns3:cad>
          </ns3:TrackPointExtension>
        </extensions>
      </trkpt>
      <trkpt lat="52.07322858273983001708984375" lon="1.40393902547657489776611328125">
        <ele>-158.600006103515625</ele>
        <time>2025-09-05T15:11:37.000Z</time>
        <extensions>
          <ns3:TrackPointExtension>
            <ns3:hr>150</ns3:hr>
            <ns3:cad>61</ns3:cad>
          </ns3:TrackPointExtension>
        </extensions>
      </trkpt>
      <trkpt lat="52.07322296686470508575439453125" lon="1.40399493277072906494140625">
        <ele>-159.399993896484375</ele>
        <time>2025-09-05T15:11:41.000Z</time>
        <extensions>
          <ns3:TrackPointExtension>
            <ns3:hr>149</ns3:hr>
            <ns3:cad>61</ns3:cad>
          </ns3:TrackPointExtension>
        </extensions>
      </trkpt>
      <trkpt lat="52.0732163451611995697021484375" lon="1.40402284450829029083251953125">
        <ele>-159.8000030517578125</ele>
        <time>2025-09-05T15:11:43.000Z</time>
        <extensions>
          <ns3:TrackPointExtension>
            <ns3:hr>146</ns3:hr>
            <ns3:cad>61</ns3:cad>
          </ns3:TrackPointExtension>
        </extensions>
      </trkpt>
      <trkpt lat="52.07320419140160083770751953125" lon="1.40405737794935703277587890625">
        <ele>-160.1999969482421875</ele>
        <time>2025-09-05T15:11:46.000Z</time>
        <extensions>
          <ns3:TrackPointExtension>
            <ns3:hr>143</ns3:hr>
            <ns3:cad>55</ns3:cad>
          </ns3:TrackPointExtension>
        </extensions>
      </trkpt>
      <trkpt lat="52.0731992460787296295166015625" lon="1.40407162718474864959716796875">
        <ele>-160.600006103515625</ele>
        <time>2025-09-05T15:11:48.000Z</time>
        <extensions>
          <ns3:TrackPointExtension>
            <ns3:hr>143</ns3:hr>
            <ns3:cad>55</ns3:cad>
          </ns3:TrackPointExtension>
        </extensions>
      </trkpt>
      <trkpt lat="52.07319916225969791412353515625" lon="1.40410347841680049896240234375">
        <ele>-161</ele>
        <time>2025-09-05T15:11:51.000Z</time>
        <extensions>
          <ns3:TrackPointExtension>
            <ns3:hr>146</ns3:hr>
            <ns3:cad>52</ns3:cad>
          </ns3:TrackPointExtension>
        </extensions>
      </trkpt>
      <trkpt lat="52.07320435903966426849365234375" lon="1.40411253087222576141357421875">
        <ele>-161.1999969482421875</ele>
        <time>2025-09-05T15:11:52.000Z</time>
        <extensions>
          <ns3:TrackPointExtension>
            <ns3:hr>147</ns3:hr>
            <ns3:cad>53</ns3:cad>
          </ns3:TrackPointExtension>
        </extensions>
      </trkpt>
      <trkpt lat="52.073220871388912200927734375" lon="1.40412728302180767059326171875">
        <ele>-161.399993896484375</ele>
        <time>2025-09-05T15:11:54.000Z</time>
        <extensions>
          <ns3:TrackPointExtension>
            <ns3:hr>145</ns3:hr>
            <ns3:cad>52</ns3:cad>
          </ns3:TrackPointExtension>
        </extensions>
      </trkpt>
      <trkpt lat="52.0732310973107814788818359375" lon="1.40413231216371059417724609375">
        <ele>-161.600006103515625</ele>
        <time>2025-09-05T15:11:55.000Z</time>
        <extensions>
          <ns3:TrackPointExtension>
            <ns3:hr>145</ns3:hr>
            <ns3:cad>52</ns3:cad>
          </ns3:TrackPointExtension>
        </extensions>
      </trkpt>
      <trkpt lat="52.073250375688076019287109375" lon="1.40414723195135593414306640625">
        <ele>-162</ele>
        <time>2025-09-05T15:11:58.000Z</time>
        <extensions>
          <ns3:TrackPointExtension>
            <ns3:hr>144</ns3:hr>
            <ns3:cad>0</ns3:cad>
          </ns3:TrackPointExtension>
        </extensions>
      </trkpt>
      <trkpt lat="52.0732267387211322784423828125" lon="1.404187045991420745849609375">
        <ele>-162.600006103515625</ele>
        <time>2025-09-05T15:12:03.000Z</time>
        <extensions>
          <ns3:TrackPointExtension>
            <ns3:hr>148</ns3:hr>
            <ns3:cad>0</ns3:cad>
          </ns3:TrackPointExtension>
        </extensions>
      </trkpt>
      <trkpt lat="52.07321777008473873138427734375" lon="1.40420280396938323974609375">
        <ele>-162.8000030517578125</ele>
        <time>2025-09-05T15:12:04.000Z</time>
        <extensions>
          <ns3:TrackPointExtension>
            <ns3:hr>149</ns3:hr>
            <ns3:cad>0</ns3:cad>
          </ns3:TrackPointExtension>
        </extensions>
      </trkpt>
      <trkpt lat="52.0731321908533573150634765625" lon="1.40429508872330188751220703125">
        <ele>-163.600006103515625</ele>
        <time>2025-09-05T15:12:11.000Z</time>
        <extensions>
          <ns3:TrackPointExtension>
            <ns3:hr>147</ns3:hr>
            <ns3:cad>55</ns3:cad>
          </ns3:TrackPointExtension>
        </extensions>
      </trkpt>
      <trkpt lat="52.073116265237331390380859375" lon="1.40433691442012786865234375">
        <ele>-163.8000030517578125</ele>
        <time>2025-09-05T15:12:13.000Z</time>
        <extensions>
          <ns3:TrackPointExtension>
            <ns3:hr>150</ns3:hr>
            <ns3:cad>0</ns3:cad>
          </ns3:TrackPointExtension>
        </extensions>
      </trkpt>
      <trkpt lat="52.07307301461696624755859375" lon="1.404463313519954681396484375">
        <ele>-164.1999969482421875</ele>
        <time>2025-09-05T15:12:19.000Z</time>
        <extensions>
          <ns3:TrackPointExtension>
            <ns3:hr>147</ns3:hr>
            <ns3:cad>0</ns3:cad>
          </ns3:TrackPointExtension>
        </extensions>
      </trkpt>
      <trkpt lat="52.0730386488139629364013671875" lon="1.4045727811753749847412109375">
        <ele>-164.1999969482421875</ele>
        <time>2025-09-05T15:12:24.000Z</time>
        <extensions>
          <ns3:TrackPointExtension>
            <ns3:hr>150</ns3:hr>
            <ns3:cad>0</ns3:cad>
          </ns3:TrackPointExtension>
        </extensions>
      </trkpt>
      <trkpt lat="52.07299816422164440155029296875" lon="1.4046931453049182891845703125">
        <ele>-164.1999969482421875</ele>
        <time>2025-09-05T15:12:29.000Z</time>
        <extensions>
          <ns3:TrackPointExtension>
            <ns3:hr>150</ns3:hr>
            <ns3:cad>0</ns3:cad>
          </ns3:TrackPointExtension>
        </extensions>
      </trkpt>
      <trkpt lat="52.07295491360127925872802734375" lon="1.40484326519072055816650390625">
        <ele>-164.1999969482421875</ele>
        <time>2025-09-05T15:12:36.000Z</time>
        <extensions>
          <ns3:TrackPointExtension>
            <ns3:hr>147</ns3:hr>
            <ns3:cad>57</ns3:cad>
          </ns3:TrackPointExtension>
        </extensions>
      </trkpt>
      <trkpt lat="52.0729516446590423583984375" lon="1.4048607833683490753173828125">
        <ele>-164.1999969482421875</ele>
        <time>2025-09-05T15:12:37.000Z</time>
        <extensions>
          <ns3:TrackPointExtension>
            <ns3:hr>146</ns3:hr>
            <ns3:cad>57</ns3:cad>
          </ns3:TrackPointExtension>
        </extensions>
      </trkpt>
      <trkpt lat="52.0729424245655536651611328125" lon="1.404894478619098663330078125">
        <ele>-164.1999969482421875</ele>
        <time>2025-09-05T15:12:39.000Z</time>
        <extensions>
          <ns3:TrackPointExtension>
            <ns3:hr>141</ns3:hr>
            <ns3:cad>55</ns3:cad>
          </ns3:TrackPointExtension>
        </extensions>
      </trkpt>
      <trkpt lat="52.07292507402598857879638671875" lon="1.40494435094296932220458984375">
        <ele>-164.1999969482421875</ele>
        <time>2025-09-05T15:12:43.000Z</time>
        <extensions>
          <ns3:TrackPointExtension>
            <ns3:hr>137</ns3:hr>
            <ns3:cad>55</ns3:cad>
          </ns3:TrackPointExtension>
        </extensions>
      </trkpt>
      <trkpt lat="52.07292146980762481689453125" lon="1.40496723353862762451171875">
        <ele>-164.1999969482421875</ele>
        <time>2025-09-05T15:12:44.000Z</time>
        <extensions>
          <ns3:TrackPointExtension>
            <ns3:hr>136</ns3:hr>
            <ns3:cad>55</ns3:cad>
          </ns3:TrackPointExtension>
        </extensions>
      </trkpt>
      <trkpt lat="52.0729189552366733551025390625" lon="1.40506169758737087249755859375">
        <ele>-164.1999969482421875</ele>
        <time>2025-09-05T15:12:48.000Z</time>
        <extensions>
          <ns3:TrackPointExtension>
            <ns3:hr>133</ns3:hr>
            <ns3:cad>0</ns3:cad>
          </ns3:TrackPointExtension>
        </extensions>
      </trkpt>
      <trkpt lat="52.0729315280914306640625" lon="1.4050951413810253143310546875">
        <ele>-164.1999969482421875</ele>
        <time>2025-09-05T15:12:50.000Z</time>
        <extensions>
          <ns3:TrackPointExtension>
            <ns3:hr>134</ns3:hr>
            <ns3:cad>0</ns3:cad>
          </ns3:TrackPointExtension>
        </extensions>
      </trkpt>
      <trkpt lat="52.07293915562331676483154296875" lon="1.4051239751279354095458984375">
        <ele>-164.1999969482421875</ele>
        <time>2025-09-05T15:12:52.000Z</time>
        <extensions>
          <ns3:TrackPointExtension>
            <ns3:hr>137</ns3:hr>
            <ns3:cad>57</ns3:cad>
          </ns3:TrackPointExtension>
        </extensions>
      </trkpt>
      <trkpt lat="52.0729578472673892974853515625" lon="1.40518315136432647705078125">
        <ele>-164.1999969482421875</ele>
        <time>2025-09-05T15:12:57.000Z</time>
        <extensions>
          <ns3:TrackPointExtension>
            <ns3:hr>136</ns3:hr>
            <ns3:cad>57</ns3:cad>
          </ns3:TrackPointExtension>
        </extensions>
      </trkpt>
      <trkpt lat="52.07300771959125995635986328125" lon="1.40526705421507358551025390625">
        <ele>-164.1999969482421875</ele>
        <time>2025-09-05T15:13:02.000Z</time>
        <extensions>
          <ns3:TrackPointExtension>
            <ns3:hr>139</ns3:hr>
            <ns3:cad>55</ns3:cad>
          </ns3:TrackPointExtension>
        </extensions>
      </trkpt>
      <trkpt lat="52.07302733324468135833740234375" lon="1.4052835665643215179443359375">
        <ele>-164.1999969482421875</ele>
        <time>2025-09-05T15:13:04.000Z</time>
        <extensions>
          <ns3:TrackPointExtension>
            <ns3:hr>142</ns3:hr>
            <ns3:cad>55</ns3:cad>
          </ns3:TrackPointExtension>
        </extensions>
      </trkpt>
      <trkpt lat="52.073043845593929290771484375" lon="1.4052939601242542266845703125">
        <ele>-164.1999969482421875</ele>
        <time>2025-09-05T15:13:06.000Z</time>
        <extensions>
          <ns3:TrackPointExtension>
            <ns3:hr>143</ns3:hr>
            <ns3:cad>55</ns3:cad>
          </ns3:TrackPointExtension>
        </extensions>
      </trkpt>
      <trkpt lat="52.073099501430988311767578125" lon="1.40536151826381683349609375">
        <ele>-164.399993896484375</ele>
        <time>2025-09-05T15:13:12.000Z</time>
        <extensions>
          <ns3:TrackPointExtension>
            <ns3:hr>140</ns3:hr>
            <ns3:cad>61</ns3:cad>
          </ns3:TrackPointExtension>
        </extensions>
      </trkpt>
      <trkpt lat="52.0731942169368267059326171875" lon="1.4054334349930286407470703125">
        <ele>-164.399993896484375</ele>
        <time>2025-09-05T15:13:18.000Z</time>
        <extensions>
          <ns3:TrackPointExtension>
            <ns3:hr>141</ns3:hr>
            <ns3:cad>61</ns3:cad>
          </ns3:TrackPointExtension>
        </extensions>
      </trkpt>
      <trkpt lat="52.073236294090747833251953125" lon="1.40546771697700023651123046875">
        <ele>-164.399993896484375</ele>
        <time>2025-09-05T15:13:21.000Z</time>
        <extensions>
          <ns3:TrackPointExtension>
            <ns3:hr>145</ns3:hr>
            <ns3:cad>58</ns3:cad>
          </ns3:TrackPointExtension>
        </extensions>
      </trkpt>
      <trkpt lat="52.073266468942165374755859375" lon="1.40545682050287723541259765625">
        <ele>-164.1999969482421875</ele>
        <time>2025-09-05T15:13:24.000Z</time>
        <extensions>
          <ns3:TrackPointExtension>
            <ns3:hr>146</ns3:hr>
            <ns3:cad>0</ns3:cad>
          </ns3:TrackPointExtension>
        </extensions>
      </trkpt>
      <trkpt lat="52.07329756580293178558349609375" lon="1.40545363537967205047607421875">
        <ele>-164.1999969482421875</ele>
        <time>2025-09-05T15:13:28.000Z</time>
        <extensions>
          <ns3:TrackPointExtension>
            <ns3:hr>147</ns3:hr>
            <ns3:cad>0</ns3:cad>
          </ns3:TrackPointExtension>
        </extensions>
      </trkpt>
      <trkpt lat="52.073320448398590087890625" lon="1.40547090210020542144775390625">
        <ele>-164.1999969482421875</ele>
        <time>2025-09-05T15:13:30.000Z</time>
        <extensions>
          <ns3:TrackPointExtension>
            <ns3:hr>147</ns3:hr>
            <ns3:cad>0</ns3:cad>
          </ns3:TrackPointExtension>
        </extensions>
      </trkpt>
      <trkpt lat="52.07339831627905368804931640625" lon="1.40551197342574596405029296875">
        <ele>-164.1999969482421875</ele>
        <time>2025-09-05T15:13:37.000Z</time>
        <extensions>
          <ns3:TrackPointExtension>
            <ns3:hr>144</ns3:hr>
            <ns3:cad>58</ns3:cad>
          </ns3:TrackPointExtension>
        </extensions>
      </trkpt>
      <trkpt lat="52.073407955467700958251953125" lon="1.40552379190921783447265625">
        <ele>-164.1999969482421875</ele>
        <time>2025-09-05T15:13:39.000Z</time>
        <extensions>
          <ns3:TrackPointExtension>
            <ns3:hr>144</ns3:hr>
            <ns3:cad>60</ns3:cad>
          </ns3:TrackPointExtension>
        </extensions>
      </trkpt>
      <trkpt lat="52.07346855662763118743896484375" lon="1.4056255482137203216552734375">
        <ele>-164.399993896484375</ele>
        <time>2025-09-05T15:13:47.000Z</time>
        <extensions>
          <ns3:TrackPointExtension>
            <ns3:hr>145</ns3:hr>
            <ns3:cad>60</ns3:cad>
          </ns3:TrackPointExtension>
        </extensions>
      </trkpt>
      <trkpt lat="52.07349940203130245208740234375" lon="1.40581875108182430267333984375">
        <ele>-164.8000030517578125</ele>
        <time>2025-09-05T15:13:56.000Z</time>
        <extensions>
          <ns3:TrackPointExtension>
            <ns3:hr>145</ns3:hr>
            <ns3:cad>60</ns3:cad>
          </ns3:TrackPointExtension>
        </extensions>
      </trkpt>
      <trkpt lat="52.07350778393447399139404296875" lon="1.40583534725010395050048828125">
        <ele>-164.8000030517578125</ele>
        <time>2025-09-05T15:13:57.000Z</time>
        <extensions>
          <ns3:TrackPointExtension>
            <ns3:hr>146</ns3:hr>
            <ns3:cad>60</ns3:cad>
          </ns3:TrackPointExtension>
        </extensions>
      </trkpt>
      <trkpt lat="52.07357324659824371337890625" lon="1.40598236583173274993896484375">
        <ele>-165</ele>
        <time>2025-09-05T15:14:03.000Z</time>
        <extensions>
          <ns3:TrackPointExtension>
            <ns3:hr>143</ns3:hr>
            <ns3:cad>81</ns3:cad>
          </ns3:TrackPointExtension>
        </extensions>
      </trkpt>
      <trkpt lat="52.0736431516706943511962890625" lon="1.40610809437930583953857421875">
        <ele>-165.1999969482421875</ele>
        <time>2025-09-05T15:14:07.000Z</time>
        <extensions>
          <ns3:TrackPointExtension>
            <ns3:hr>147</ns3:hr>
            <ns3:cad>82</ns3:cad>
          </ns3:TrackPointExtension>
        </extensions>
      </trkpt>
      <trkpt lat="52.07366771064698696136474609375" lon="1.406163163483142852783203125">
        <ele>-165.1999969482421875</ele>
        <time>2025-09-05T15:14:09.000Z</time>
        <extensions>
          <ns3:TrackPointExtension>
            <ns3:hr>151</ns3:hr>
            <ns3:cad>82</ns3:cad>
          </ns3:TrackPointExtension>
        </extensions>
      </trkpt>
      <trkpt lat="52.07368430681526660919189453125" lon="1.40618906356394290924072265625">
        <ele>-165.399993896484375</ele>
        <time>2025-09-05T15:14:10.000Z</time>
        <extensions>
          <ns3:TrackPointExtension>
            <ns3:hr>157</ns3:hr>
            <ns3:cad>82</ns3:cad>
          </ns3:TrackPointExtension>
        </extensions>
      </trkpt>
      <trkpt lat="52.07369704730808734893798828125" lon="1.40621286816895008087158203125">
        <ele>-165.399993896484375</ele>
        <time>2025-09-05T15:14:11.000Z</time>
        <extensions>
          <ns3:TrackPointExtension>
            <ns3:hr>160</ns3:hr>
            <ns3:cad>82</ns3:cad>
          </ns3:TrackPointExtension>
        </extensions>
      </trkpt>
      <trkpt lat="52.07371138036251068115234375" lon="1.4062280394136905670166015625">
        <ele>-165.399993896484375</ele>
        <time>2025-09-05T15:14:12.000Z</time>
        <extensions>
          <ns3:TrackPointExtension>
            <ns3:hr>163</ns3:hr>
            <ns3:cad>82</ns3:cad>
          </ns3:TrackPointExtension>
        </extensions>
      </trkpt>
      <trkpt lat="52.07372202537953853607177734375" lon="1.40623600222170352935791015625">
        <ele>-165.399993896484375</ele>
        <time>2025-09-05T15:14:13.000Z</time>
        <extensions>
          <ns3:TrackPointExtension>
            <ns3:hr>166</ns3:hr>
            <ns3:cad>82</ns3:cad>
          </ns3:TrackPointExtension>
        </extensions>
      </trkpt>
      <trkpt lat="52.073743902146816253662109375" lon="1.40625259838998317718505859375">
        <ele>-165.399993896484375</ele>
        <time>2025-09-05T15:14:15.000Z</time>
        <extensions>
          <ns3:TrackPointExtension>
            <ns3:hr>169</ns3:hr>
            <ns3:cad>82</ns3:cad>
          </ns3:TrackPointExtension>
        </extensions>
      </trkpt>
      <trkpt lat="52.0738104544579982757568359375" lon="1.40632049180567264556884765625">
        <ele>-165.1999969482421875</ele>
        <time>2025-09-05T15:14:19.000Z</time>
        <extensions>
          <ns3:TrackPointExtension>
            <ns3:hr>170</ns3:hr>
            <ns3:cad>82</ns3:cad>
          </ns3:TrackPointExtension>
        </extensions>
      </trkpt>
      <trkpt lat="52.0738275535404682159423828125" lon="1.4063286222517490386962890625">
        <ele>-165</ele>
        <time>2025-09-05T15:14:20.000Z</time>
        <extensions>
          <ns3:TrackPointExtension>
            <ns3:hr>173</ns3:hr>
            <ns3:cad>82</ns3:cad>
          </ns3:TrackPointExtension>
        </extensions>
      </trkpt>
      <trkpt lat="52.07390047609806060791015625" lon="1.4064178057014942169189453125">
        <ele>-164</ele>
        <time>2025-09-05T15:14:24.000Z</time>
        <extensions>
          <ns3:TrackPointExtension>
            <ns3:hr>176</ns3:hr>
            <ns3:cad>82</ns3:cad>
          </ns3:TrackPointExtension>
        </extensions>
      </trkpt>
      <trkpt lat="52.073922939598560333251953125" lon="1.40644772909581661224365234375">
        <ele>-163.8000030517578125</ele>
        <time>2025-09-05T15:14:25.000Z</time>
        <extensions>
          <ns3:TrackPointExtension>
            <ns3:hr>175</ns3:hr>
            <ns3:cad>82</ns3:cad>
          </ns3:TrackPointExtension>
        </extensions>
      </trkpt>
      <trkpt lat="52.07393936812877655029296875" lon="1.40647086314857006072998046875">
        <ele>-163.399993896484375</ele>
        <time>2025-09-05T15:14:26.000Z</time>
        <extensions>
          <ns3:TrackPointExtension>
            <ns3:hr>176</ns3:hr>
            <ns3:cad>82</ns3:cad>
          </ns3:TrackPointExtension>
        </extensions>
      </trkpt>
      <trkpt lat="52.0739911682903766632080078125" lon="1.4065140299499034881591796875">
        <ele>-162.600006103515625</ele>
        <time>2025-09-05T15:14:29.000Z</time>
        <extensions>
          <ns3:TrackPointExtension>
            <ns3:hr>178</ns3:hr>
            <ns3:cad>81</ns3:cad>
          </ns3:TrackPointExtension>
        </extensions>
      </trkpt>
      <trkpt lat="52.0740609057247638702392578125" lon="1.40666917897760868072509765625">
        <ele>-161.399993896484375</ele>
        <time>2025-09-05T15:14:33.000Z</time>
        <extensions>
          <ns3:TrackPointExtension>
            <ns3:hr>179</ns3:hr>
            <ns3:cad>81</ns3:cad>
          </ns3:TrackPointExtension>
        </extensions>
      </trkpt>
      <trkpt lat="52.07409669645130634307861328125" lon="1.406777389347553253173828125">
        <ele>-160.1999969482421875</ele>
        <time>2025-09-05T15:14:36.000Z</time>
        <extensions>
          <ns3:TrackPointExtension>
            <ns3:hr>180</ns3:hr>
            <ns3:cad>81</ns3:cad>
          </ns3:TrackPointExtension>
        </extensions>
      </trkpt>
      <trkpt lat="52.07413173280656337738037109375" lon="1.40686347149312496185302734375">
        <ele>-158.600006103515625</ele>
        <time>2025-09-05T15:14:39.000Z</time>
        <extensions>
          <ns3:TrackPointExtension>
            <ns3:hr>181</ns3:hr>
            <ns3:cad>81</ns3:cad>
          </ns3:TrackPointExtension>
        </extensions>
      </trkpt>
      <trkpt lat="52.0741638354957103729248046875" lon="1.40688191168010234832763671875">
        <ele>-157.399993896484375</ele>
        <time>2025-09-05T15:14:41.000Z</time>
        <extensions>
          <ns3:TrackPointExtension>
            <ns3:hr>180</ns3:hr>
            <ns3:cad>81</ns3:cad>
          </ns3:TrackPointExtension>
        </extensions>
      </trkpt>
      <trkpt lat="52.074199877679347991943359375" lon="1.40693387947976589202880859375">
        <ele>-156</ele>
        <time>2025-09-05T15:14:43.000Z</time>
        <extensions>
          <ns3:TrackPointExtension>
            <ns3:hr>180</ns3:hr>
            <ns3:cad>82</ns3:cad>
          </ns3:TrackPointExtension>
        </extensions>
      </trkpt>
      <trkpt lat="52.07423650659620761871337890625" lon="1.40698182396590709686279296875">
        <ele>-154.8000030517578125</ele>
        <time>2025-09-05T15:14:45.000Z</time>
        <extensions>
          <ns3:TrackPointExtension>
            <ns3:hr>179</ns3:hr>
            <ns3:cad>82</ns3:cad>
          </ns3:TrackPointExtension>
        </extensions>
      </trkpt>
      <trkpt lat="52.0742801763117313385009765625" lon="1.40703379176557064056396484375">
        <ele>-153.399993896484375</ele>
        <time>2025-09-05T15:14:47.000Z</time>
        <extensions>
          <ns3:TrackPointExtension>
            <ns3:hr>177</ns3:hr>
            <ns3:cad>81</ns3:cad>
          </ns3:TrackPointExtension>
        </extensions>
      </trkpt>
      <trkpt lat="52.0743180625140666961669921875" lon="1.4070645533502101898193359375">
        <ele>-152</ele>
        <time>2025-09-05T15:14:49.000Z</time>
        <extensions>
          <ns3:TrackPointExtension>
            <ns3:hr>174</ns3:hr>
            <ns3:cad>82</ns3:cad>
          </ns3:TrackPointExtension>
        </extensions>
      </trkpt>
      <trkpt lat="52.07436458207666873931884765625" lon="1.40708693303167819976806640625">
        <ele>-150.600006103515625</ele>
        <time>2025-09-05T15:14:51.000Z</time>
        <extensions>
          <ns3:TrackPointExtension>
            <ns3:hr>175</ns3:hr>
            <ns3:cad>82</ns3:cad>
          </ns3:TrackPointExtension>
        </extensions>
      </trkpt>
      <trkpt lat="52.07440749742090702056884765625" lon="1.4071141742169857025146484375">
        <ele>-149.399993896484375</ele>
        <time>2025-09-05T15:14:53.000Z</time>
        <extensions>
          <ns3:TrackPointExtension>
            <ns3:hr>176</ns3:hr>
            <ns3:cad>82</ns3:cad>
          </ns3:TrackPointExtension>
        </extensions>
      </trkpt>
      <trkpt lat="52.07444622181355953216552734375" lon="1.40714091248810291290283203125">
        <ele>-148</ele>
        <time>2025-09-05T15:14:55.000Z</time>
        <extensions>
          <ns3:TrackPointExtension>
            <ns3:hr>177</ns3:hr>
            <ns3:cad>82</ns3:cad>
          </ns3:TrackPointExtension>
        </extensions>
      </trkpt>
      <trkpt lat="52.0744803361594676971435546875" lon="1.4071901142597198486328125">
        <ele>-146.8000030517578125</ele>
        <time>2025-09-05T15:14:57.000Z</time>
        <extensions>
          <ns3:TrackPointExtension>
            <ns3:hr>176</ns3:hr>
            <ns3:cad>82</ns3:cad>
          </ns3:TrackPointExtension>
        </extensions>
      </trkpt>
      <trkpt lat="52.07451478578150272369384765625" lon="1.40723311342298984527587890625">
        <ele>-145.600006103515625</ele>
        <time>2025-09-05T15:14:59.000Z</time>
        <extensions>
          <ns3:TrackPointExtension>
            <ns3:hr>177</ns3:hr>
            <ns3:cad>82</ns3:cad>
          </ns3:TrackPointExtension>
        </extensions>
      </trkpt>
      <trkpt lat="52.07453087903559207916259765625" lon="1.4072516374289989471435546875">
        <ele>-145</ele>
        <time>2025-09-05T15:15:00.000Z</time>
        <extensions>
          <ns3:TrackPointExtension>
            <ns3:hr>178</ns3:hr>
            <ns3:cad>82</ns3:cad>
          </ns3:TrackPointExtension>
        </extensions>
      </trkpt>
      <trkpt lat="52.07454747520387172698974609375" lon="1.4072643779218196868896484375">
        <ele>-144.600006103515625</ele>
        <time>2025-09-05T15:15:01.000Z</time>
        <extensions>
          <ns3:TrackPointExtension>
            <ns3:hr>178</ns3:hr>
            <ns3:cad>82</ns3:cad>
          </ns3:TrackPointExtension>
        </extensions>
      </trkpt>
      <trkpt lat="52.07457882352173328399658203125" lon="1.407301425933837890625">
        <ele>-143.399993896484375</ele>
        <time>2025-09-05T15:15:03.000Z</time>
        <extensions>
          <ns3:TrackPointExtension>
            <ns3:hr>180</ns3:hr>
            <ns3:cad>82</ns3:cad>
          </ns3:TrackPointExtension>
        </extensions>
      </trkpt>
      <trkpt lat="52.07461050711572170257568359375" lon="1.407334618270397186279296875">
        <ele>-142.1999969482421875</ele>
        <time>2025-09-05T15:15:05.000Z</time>
        <extensions>
          <ns3:TrackPointExtension>
            <ns3:hr>180</ns3:hr>
            <ns3:cad>82</ns3:cad>
          </ns3:TrackPointExtension>
        </extensions>
      </trkpt>
      <trkpt lat="52.07464118488132953643798828125" lon="1.4073698222637176513671875">
        <ele>-141.1999969482421875</ele>
        <time>2025-09-05T15:15:07.000Z</time>
        <extensions>
          <ns3:TrackPointExtension>
            <ns3:hr>181</ns3:hr>
            <ns3:cad>82</ns3:cad>
          </ns3:TrackPointExtension>
        </extensions>
      </trkpt>
      <trkpt lat="52.07465861923992633819580078125" lon="1.40738566406071186065673828125">
        <ele>-140.600006103515625</ele>
        <time>2025-09-05T15:15:08.000Z</time>
        <extensions>
          <ns3:TrackPointExtension>
            <ns3:hr>181</ns3:hr>
            <ns3:cad>82</ns3:cad>
          </ns3:TrackPointExtension>
        </extensions>
      </trkpt>
      <trkpt lat="52.0746717788279056549072265625" lon="1.4074048586189746856689453125">
        <ele>-140.1999969482421875</ele>
        <time>2025-09-05T15:15:09.000Z</time>
        <extensions>
          <ns3:TrackPointExtension>
            <ns3:hr>181</ns3:hr>
            <ns3:cad>82</ns3:cad>
          </ns3:TrackPointExtension>
        </extensions>
      </trkpt>
      <trkpt lat="52.074688039720058441162109375" lon="1.4074574969708919525146484375">
        <ele>-139</ele>
        <time>2025-09-05T15:15:11.000Z</time>
        <extensions>
          <ns3:TrackPointExtension>
            <ns3:hr>179</ns3:hr>
            <ns3:cad>82</ns3:cad>
          </ns3:TrackPointExtension>
        </extensions>
      </trkpt>
      <trkpt lat="52.07470572553575038909912109375" lon="1.4075104705989360809326171875">
        <ele>-138</ele>
        <time>2025-09-05T15:15:13.000Z</time>
        <extensions>
          <ns3:TrackPointExtension>
            <ns3:hr>180</ns3:hr>
            <ns3:cad>82</ns3:cad>
          </ns3:TrackPointExtension>
        </extensions>
      </trkpt>
      <trkpt lat="52.07472919486463069915771484375" lon="1.4075550623238086700439453125">
        <ele>-137</ele>
        <time>2025-09-05T15:15:15.000Z</time>
        <extensions>
          <ns3:TrackPointExtension>
            <ns3:hr>181</ns3:hr>
            <ns3:cad>82</ns3:cad>
          </ns3:TrackPointExtension>
        </extensions>
      </trkpt>
      <trkpt lat="52.074740342795848846435546875" lon="1.4075781963765621185302734375">
        <ele>-136.600006103515625</ele>
        <time>2025-09-05T15:15:16.000Z</time>
        <extensions>
          <ns3:TrackPointExtension>
            <ns3:hr>182</ns3:hr>
            <ns3:cad>82</ns3:cad>
          </ns3:TrackPointExtension>
        </extensions>
      </trkpt>
      <trkpt lat="52.07477361895143985748291015625" lon="1.40765522606670856475830078125">
        <ele>-135.399993896484375</ele>
        <time>2025-09-05T15:15:19.000Z</time>
        <extensions>
          <ns3:TrackPointExtension>
            <ns3:hr>181</ns3:hr>
            <ns3:cad>82</ns3:cad>
          </ns3:TrackPointExtension>
        </extensions>
      </trkpt>
      <trkpt lat="52.07480438053607940673828125" lon="1.40773854218423366546630859375">
        <ele>-134.1999969482421875</ele>
        <time>2025-09-05T15:15:22.000Z</time>
        <extensions>
          <ns3:TrackPointExtension>
            <ns3:hr>181</ns3:hr>
            <ns3:cad>80</ns3:cad>
          </ns3:TrackPointExtension>
        </extensions>
      </trkpt>
      <trkpt lat="52.07481569610536098480224609375" lon="1.40776284970343112945556640625">
        <ele>-133.8000030517578125</ele>
        <time>2025-09-05T15:15:23.000Z</time>
        <extensions>
          <ns3:TrackPointExtension>
            <ns3:hr>180</ns3:hr>
            <ns3:cad>80</ns3:cad>
          </ns3:TrackPointExtension>
        </extensions>
      </trkpt>
      <trkpt lat="52.0748420991003513336181640625" lon="1.40781171619892120361328125">
        <ele>-133</ele>
        <time>2025-09-05T15:15:25.000Z</time>
        <extensions>
          <ns3:TrackPointExtension>
            <ns3:hr>179</ns3:hr>
            <ns3:cad>82</ns3:cad>
          </ns3:TrackPointExtension>
        </extensions>
      </trkpt>
      <trkpt lat="52.07488995976746082305908203125" lon="1.40788388438522815704345703125">
        <ele>-132</ele>
        <time>2025-09-05T15:15:28.000Z</time>
        <extensions>
          <ns3:TrackPointExtension>
            <ns3:hr>178</ns3:hr>
            <ns3:cad>82</ns3:cad>
          </ns3:TrackPointExtension>
        </extensions>
      </trkpt>
      <trkpt lat="52.07491694949567317962646484375" lon="1.40792696736752986907958984375">
        <ele>-131.399993896484375</ele>
        <time>2025-09-05T15:15:30.000Z</time>
        <extensions>
          <ns3:TrackPointExtension>
            <ns3:hr>180</ns3:hr>
            <ns3:cad>82</ns3:cad>
          </ns3:TrackPointExtension>
        </extensions>
      </trkpt>
      <trkpt lat="52.07494377158582210540771484375" lon="1.4079788513481616973876953125">
        <ele>-130.8000030517578125</ele>
        <time>2025-09-05T15:15:32.000Z</time>
        <extensions>
          <ns3:TrackPointExtension>
            <ns3:hr>181</ns3:hr>
            <ns3:cad>82</ns3:cad>
          </ns3:TrackPointExtension>
        </extensions>
      </trkpt>
      <trkpt lat="52.07499079406261444091796875" lon="1.4080859720706939697265625">
        <ele>-129.600006103515625</ele>
        <time>2025-09-05T15:15:36.000Z</time>
        <extensions>
          <ns3:TrackPointExtension>
            <ns3:hr>180</ns3:hr>
            <ns3:cad>81</ns3:cad>
          </ns3:TrackPointExtension>
        </extensions>
      </trkpt>
      <trkpt lat="52.07502608187496662139892578125" lon="1.40814757905900478363037109375">
        <ele>-128.600006103515625</ele>
        <time>2025-09-05T15:15:39.000Z</time>
        <extensions>
          <ns3:TrackPointExtension>
            <ns3:hr>181</ns3:hr>
            <ns3:cad>82</ns3:cad>
          </ns3:TrackPointExtension>
        </extensions>
      </trkpt>
      <trkpt lat="52.07503647543489933013916015625" lon="1.40817088074982166290283203125">
        <ele>-128.399993896484375</ele>
        <time>2025-09-05T15:15:40.000Z</time>
        <extensions>
          <ns3:TrackPointExtension>
            <ns3:hr>180</ns3:hr>
            <ns3:cad>82</ns3:cad>
          </ns3:TrackPointExtension>
        </extensions>
      </trkpt>
      <trkpt lat="52.07508123479783535003662109375" lon="1.408268027007579803466796875">
        <ele>-127.1999969482421875</ele>
        <time>2025-09-05T15:15:44.000Z</time>
        <extensions>
          <ns3:TrackPointExtension>
            <ns3:hr>179</ns3:hr>
            <ns3:cad>82</ns3:cad>
          </ns3:TrackPointExtension>
        </extensions>
      </trkpt>
      <trkpt lat="52.0751227252185344696044921875" lon="1.40841680578887462615966796875">
        <ele>-126</ele>
        <time>2025-09-05T15:15:49.000Z</time>
        <extensions>
          <ns3:TrackPointExtension>
            <ns3:hr>182</ns3:hr>
            <ns3:cad>82</ns3:cad>
          </ns3:TrackPointExtension>
        </extensions>
      </trkpt>
      <trkpt lat="52.0751642994582653045654296875" lon="1.40854840166866779327392578125">
        <ele>-125</ele>
        <time>2025-09-05T15:15:54.000Z</time>
        <extensions>
          <ns3:TrackPointExtension>
            <ns3:hr>181</ns3:hr>
            <ns3:cad>82</ns3:cad>
          </ns3:TrackPointExtension>
        </extensions>
      </trkpt>
      <trkpt lat="52.07520126365125179290771484375" lon="1.40865535475313663482666015625">
        <ele>-124.40000152587890625</ele>
        <time>2025-09-05T15:15:58.000Z</time>
        <extensions>
          <ns3:TrackPointExtension>
            <ns3:hr>178</ns3:hr>
            <ns3:cad>82</ns3:cad>
          </ns3:TrackPointExtension>
        </extensions>
      </trkpt>
      <trkpt lat="52.07523697055876255035400390625" lon="1.4087633974850177764892578125">
        <ele>-124</ele>
        <time>2025-09-05T15:16:02.000Z</time>
        <extensions>
          <ns3:TrackPointExtension>
            <ns3:hr>180</ns3:hr>
            <ns3:cad>82</ns3:cad>
          </ns3:TrackPointExtension>
        </extensions>
      </trkpt>
      <trkpt lat="52.07527636550366878509521484375" lon="1.40889021568000316619873046875">
        <ele>-123.8000030517578125</ele>
        <time>2025-09-05T15:16:06.000Z</time>
        <extensions>
          <ns3:TrackPointExtension>
            <ns3:hr>182</ns3:hr>
            <ns3:cad>83</ns3:cad>
          </ns3:TrackPointExtension>
        </extensions>
      </trkpt>
      <trkpt lat="52.075332440435886383056640625" lon="1.40912692062556743621826171875">
        <ele>-123.59999847412109375</ele>
        <time>2025-09-05T15:16:15.000Z</time>
        <extensions>
          <ns3:TrackPointExtension>
            <ns3:hr>182</ns3:hr>
            <ns3:cad>81</ns3:cad>
          </ns3:TrackPointExtension>
        </extensions>
      </trkpt>
      <trkpt lat="52.0753701590001583099365234375" lon="1.40931769274175167083740234375">
        <ele>-123.40000152587890625</ele>
        <time>2025-09-05T15:16:21.000Z</time>
        <extensions>
          <ns3:TrackPointExtension>
            <ns3:hr>178</ns3:hr>
            <ns3:cad>81</ns3:cad>
          </ns3:TrackPointExtension>
        </extensions>
      </trkpt>
      <trkpt lat="52.07539857365190982818603515625" lon="1.40943302772939205169677734375">
        <ele>-123.1999969482421875</ele>
        <time>2025-09-05T15:16:25.000Z</time>
        <extensions>
          <ns3:TrackPointExtension>
            <ns3:hr>179</ns3:hr>
            <ns3:cad>81</ns3:cad>
          </ns3:TrackPointExtension>
        </extensions>
      </trkpt>
      <trkpt lat="52.075417600572109222412109375" lon="1.409500502049922943115234375">
        <ele>-123</ele>
        <time>2025-09-05T15:16:28.000Z</time>
        <extensions>
          <ns3:TrackPointExtension>
            <ns3:hr>181</ns3:hr>
            <ns3:cad>82</ns3:cad>
          </ns3:TrackPointExtension>
        </extensions>
      </trkpt>
      <trkpt lat="52.07548490725457668304443359375" lon="1.40959362499415874481201171875">
        <ele>-122.59999847412109375</ele>
        <time>2025-09-05T15:16:32.000Z</time>
        <extensions>
          <ns3:TrackPointExtension>
            <ns3:hr>181</ns3:hr>
            <ns3:cad>82</ns3:cad>
          </ns3:TrackPointExtension>
        </extensions>
      </trkpt>
      <trkpt lat="52.07559772767126560211181640625" lon="1.40973058529198169708251953125">
        <ele>-121.8000030517578125</ele>
        <time>2025-09-05T15:16:38.000Z</time>
        <extensions>
          <ns3:TrackPointExtension>
            <ns3:hr>182</ns3:hr>
            <ns3:cad>81</ns3:cad>
          </ns3:TrackPointExtension>
        </extensions>
      </trkpt>
      <trkpt lat="52.075614072382450103759765625" lon="1.40975723974406719207763671875">
        <ele>-121.8000030517578125</ele>
        <time>2025-09-05T15:16:39.000Z</time>
        <extensions>
          <ns3:TrackPointExtension>
            <ns3:hr>181</ns3:hr>
            <ns3:cad>81</ns3:cad>
          </ns3:TrackPointExtension>
        </extensions>
      </trkpt>
      <trkpt lat="52.07567215897142887115478515625" lon="1.40992940403521060943603515625">
        <ele>-121</ele>
        <time>2025-09-05T15:16:45.000Z</time>
        <extensions>
          <ns3:TrackPointExtension>
            <ns3:hr>180</ns3:hr>
            <ns3:cad>81</ns3:cad>
          </ns3:TrackPointExtension>
        </extensions>
      </trkpt>
      <trkpt lat="52.07569629885256290435791015625" lon="1.40998455695807933807373046875">
        <ele>-120.8000030517578125</ele>
        <time>2025-09-05T15:16:47.000Z</time>
        <extensions>
          <ns3:TrackPointExtension>
            <ns3:hr>179</ns3:hr>
            <ns3:cad>81</ns3:cad>
          </ns3:TrackPointExtension>
        </extensions>
      </trkpt>
      <trkpt lat="52.0757828839123249053955078125" lon="1.4101512730121612548828125">
        <ele>-119.8000030517578125</ele>
        <time>2025-09-05T15:16:55.000Z</time>
        <extensions>
          <ns3:TrackPointExtension>
            <ns3:hr>179</ns3:hr>
            <ns3:cad>81</ns3:cad>
          </ns3:TrackPointExtension>
        </extensions>
      </trkpt>
      <trkpt lat="52.07579319365322589874267578125" lon="1.4101685397326946258544921875">
        <ele>-119.8000030517578125</ele>
        <time>2025-09-05T15:16:56.000Z</time>
        <extensions>
          <ns3:TrackPointExtension>
            <ns3:hr>178</ns3:hr>
            <ns3:cad>81</ns3:cad>
          </ns3:TrackPointExtension>
        </extensions>
      </trkpt>
      <trkpt lat="52.0759109593927860260009765625" lon="1.41037414781749248504638671875">
        <ele>-118.59999847412109375</ele>
        <time>2025-09-05T15:17:04.000Z</time>
        <extensions>
          <ns3:TrackPointExtension>
            <ns3:hr>179</ns3:hr>
            <ns3:cad>81</ns3:cad>
          </ns3:TrackPointExtension>
        </extensions>
      </trkpt>
      <trkpt lat="52.0759277231991291046142578125" lon="1.41041035763919353485107421875">
        <ele>-118.40000152587890625</ele>
        <time>2025-09-05T15:17:05.000Z</time>
        <extensions>
          <ns3:TrackPointExtension>
            <ns3:hr>180</ns3:hr>
            <ns3:cad>81</ns3:cad>
          </ns3:TrackPointExtension>
        </extensions>
      </trkpt>
      <trkpt lat="52.0760202594101428985595703125" lon="1.41060146503150463104248046875">
        <ele>-117.59999847412109375</ele>
        <time>2025-09-05T15:17:11.000Z</time>
        <extensions>
          <ns3:TrackPointExtension>
            <ns3:hr>179</ns3:hr>
            <ns3:cad>81</ns3:cad>
          </ns3:TrackPointExtension>
        </extensions>
      </trkpt>
      <trkpt lat="52.07605470903217792510986328125" lon="1.41068561933934688568115234375">
        <ele>-117.1999969482421875</ele>
        <time>2025-09-05T15:17:14.000Z</time>
        <extensions>
          <ns3:TrackPointExtension>
            <ns3:hr>178</ns3:hr>
            <ns3:cad>81</ns3:cad>
          </ns3:TrackPointExtension>
        </extensions>
      </trkpt>
      <trkpt lat="52.07609376870095729827880859375" lon="1.41080548055469989776611328125">
        <ele>-116.59999847412109375</ele>
        <time>2025-09-05T15:17:18.000Z</time>
        <extensions>
          <ns3:TrackPointExtension>
            <ns3:hr>179</ns3:hr>
            <ns3:cad>80</ns3:cad>
          </ns3:TrackPointExtension>
        </extensions>
      </trkpt>
      <trkpt lat="52.07614556886255741119384765625" lon="1.41091679222881793975830078125">
        <ele>-116</ele>
        <time>2025-09-05T15:17:22.000Z</time>
        <extensions>
          <ns3:TrackPointExtension>
            <ns3:hr>178</ns3:hr>
            <ns3:cad>81</ns3:cad>
          </ns3:TrackPointExtension>
        </extensions>
      </trkpt>
      <trkpt lat="52.07627247087657451629638671875" lon="1.4110980927944183349609375">
        <ele>-115.59999847412109375</ele>
        <time>2025-09-05T15:17:28.000Z</time>
        <extensions>
          <ns3:TrackPointExtension>
            <ns3:hr>179</ns3:hr>
            <ns3:cad>81</ns3:cad>
          </ns3:TrackPointExtension>
        </extensions>
      </trkpt>
      <trkpt lat="52.0762891508638858795166015625" lon="1.41112885437905788421630859375">
        <ele>-115.40000152587890625</ele>
        <time>2025-09-05T15:17:29.000Z</time>
        <extensions>
          <ns3:TrackPointExtension>
            <ns3:hr>179</ns3:hr>
            <ns3:cad>81</ns3:cad>
          </ns3:TrackPointExtension>
        </extensions>
      </trkpt>
      <trkpt lat="52.07636483944952487945556640625" lon="1.41133840195834636688232421875">
        <ele>-115</ele>
        <time>2025-09-05T15:17:36.000Z</time>
        <extensions>
          <ns3:TrackPointExtension>
            <ns3:hr>179</ns3:hr>
            <ns3:cad>81</ns3:cad>
          </ns3:TrackPointExtension>
        </extensions>
      </trkpt>
      <trkpt lat="52.07639400847256183624267578125" lon="1.411391794681549072265625">
        <ele>-114.8000030517578125</ele>
        <time>2025-09-05T15:17:42.000Z</time>
        <extensions>
          <ns3:TrackPointExtension>
            <ns3:hr>177</ns3:hr>
            <ns3:cad>0</ns3:cad>
          </ns3:TrackPointExtension>
        </extensions>
      </trkpt>
      <trkpt lat="52.07643985748291015625" lon="1.4114952273666858673095703125">
        <ele>-115.1999969482421875</ele>
        <time>2025-09-05T15:17:47.000Z</time>
        <extensions>
          <ns3:TrackPointExtension>
            <ns3:hr>175</ns3:hr>
            <ns3:cad>53</ns3:cad>
          </ns3:TrackPointExtension>
        </extensions>
      </trkpt>
      <trkpt lat="52.0764641650021076202392578125" lon="1.41154124401509761810302734375">
        <ele>-115.40000152587890625</ele>
        <time>2025-09-05T15:17:49.000Z</time>
        <extensions>
          <ns3:TrackPointExtension>
            <ns3:hr>172</ns3:hr>
            <ns3:cad>60</ns3:cad>
          </ns3:TrackPointExtension>
        </extensions>
      </trkpt>
      <trkpt lat="52.076492495834827423095703125" lon="1.41162288375198841094970703125">
        <ele>-116</ele>
        <time>2025-09-05T15:17:52.000Z</time>
        <extensions>
          <ns3:TrackPointExtension>
            <ns3:hr>169</ns3:hr>
            <ns3:cad>59</ns3:cad>
          </ns3:TrackPointExtension>
        </extensions>
      </trkpt>
      <trkpt lat="52.07650314085185527801513671875" lon="1.4116484485566616058349609375">
        <ele>-116.40000152587890625</ele>
        <time>2025-09-05T15:17:53.000Z</time>
        <extensions>
          <ns3:TrackPointExtension>
            <ns3:hr>170</ns3:hr>
            <ns3:cad>59</ns3:cad>
          </ns3:TrackPointExtension>
        </extensions>
      </trkpt>
      <trkpt lat="52.0765107683837413787841796875" lon="1.41167485155165195465087890625">
        <ele>-116.59999847412109375</ele>
        <time>2025-09-05T15:17:54.000Z</time>
        <extensions>
          <ns3:TrackPointExtension>
            <ns3:hr>169</ns3:hr>
            <ns3:cad>59</ns3:cad>
          </ns3:TrackPointExtension>
        </extensions>
      </trkpt>
      <trkpt lat="52.076528035104274749755859375" lon="1.41170016489923000335693359375">
        <ele>-117</ele>
        <time>2025-09-05T15:17:56.000Z</time>
        <extensions>
          <ns3:TrackPointExtension>
            <ns3:hr>166</ns3:hr>
            <ns3:cad>59</ns3:cad>
          </ns3:TrackPointExtension>
        </extensions>
      </trkpt>
      <trkpt lat="52.07654002122581005096435546875" lon="1.41168591566383838653564453125">
        <ele>-117.59999847412109375</ele>
        <time>2025-09-05T15:17:58.000Z</time>
        <extensions>
          <ns3:TrackPointExtension>
            <ns3:hr>166</ns3:hr>
            <ns3:cad>58</ns3:cad>
          </ns3:TrackPointExtension>
        </extensions>
      </trkpt>
      <trkpt lat="52.07655209116637706756591796875" lon="1.4116611890494823455810546875">
        <ele>-117.8000030517578125</ele>
        <time>2025-09-05T15:17:59.000Z</time>
        <extensions>
          <ns3:TrackPointExtension>
            <ns3:hr>166</ns3:hr>
            <ns3:cad>58</ns3:cad>
          </ns3:TrackPointExtension>
        </extensions>
      </trkpt>
      <trkpt lat="52.07656935788691043853759765625" lon="1.4116303436458110809326171875">
        <ele>-118.8000030517578125</ele>
        <time>2025-09-05T15:18:03.000Z</time>
        <extensions>
          <ns3:TrackPointExtension>
            <ns3:hr>163</ns3:hr>
            <ns3:cad>58</ns3:cad>
          </ns3:TrackPointExtension>
        </extensions>
      </trkpt>
      <trkpt lat="52.0765835233032703399658203125" lon="1.41159899532794952392578125">
        <ele>-119.8000030517578125</ele>
        <time>2025-09-05T15:18:07.000Z</time>
        <extensions>
          <ns3:TrackPointExtension>
            <ns3:hr>161</ns3:hr>
            <ns3:cad>0</ns3:cad>
          </ns3:TrackPointExtension>
        </extensions>
      </trkpt>
      <trkpt lat="52.0765806734561920166015625" lon="1.411599330604076385498046875">
        <ele>-120</ele>
        <time>2025-09-05T15:18:08.000Z</time>
        <extensions>
          <ns3:TrackPointExtension>
            <ns3:hr>160</ns3:hr>
            <ns3:cad>0</ns3:cad>
          </ns3:TrackPointExtension>
        </extensions>
      </trkpt>
      <trkpt lat="52.0765647478401660919189453125" lon="1.41160645522177219390869140625">
        <ele>-121</ele>
        <time>2025-09-05T15:18:11.000Z</time>
        <extensions>
          <ns3:TrackPointExtension>
            <ns3:hr>158</ns3:hr>
            <ns3:cad>0</ns3:cad>
          </ns3:TrackPointExtension>
        </extensions>
      </trkpt>
      <trkpt lat="52.07657338120043277740478515625" lon="1.4115860871970653533935546875">
        <ele>-122.1999969482421875</ele>
        <time>2025-09-05T15:18:15.000Z</time>
        <extensions>
          <ns3:TrackPointExtension>
            <ns3:hr>158</ns3:hr>
            <ns3:cad>0</ns3:cad>
          </ns3:TrackPointExtension>
        </extensions>
      </trkpt>
      <trkpt lat="52.07657623104751110076904296875" lon="1.41159170307219028472900390625">
        <ele>-123.40000152587890625</ele>
        <time>2025-09-05T15:18:19.000Z</time>
        <extensions>
          <ns3:TrackPointExtension>
            <ns3:hr>156</ns3:hr>
            <ns3:cad>0</ns3:cad>
          </ns3:TrackPointExtension>
        </extensions>
      </trkpt>
      <trkpt lat="52.0765687711536884307861328125" lon="1.411601006984710693359375">
        <ele>-124.40000152587890625</ele>
        <time>2025-09-05T15:18:23.000Z</time>
        <extensions>
          <ns3:TrackPointExtension>
            <ns3:hr>154</ns3:hr>
            <ns3:cad>0</ns3:cad>
          </ns3:TrackPointExtension>
        </extensions>
      </trkpt>
      <trkpt lat="52.07660020329058170318603515625" lon="1.41168306581676006317138671875">
        <ele>-125.59999847412109375</ele>
        <time>2025-09-05T15:18:29.000Z</time>
        <extensions>
          <ns3:TrackPointExtension>
            <ns3:hr>151</ns3:hr>
            <ns3:cad>0</ns3:cad>
          </ns3:TrackPointExtension>
        </extensions>
      </trkpt>
      <trkpt lat="52.07661026157438755035400390625" lon="1.4117071218788623809814453125">
        <ele>-125.8000030517578125</ele>
        <time>2025-09-05T15:18:30.000Z</time>
        <extensions>
          <ns3:TrackPointExtension>
            <ns3:hr>151</ns3:hr>
            <ns3:cad>0</ns3:cad>
          </ns3:TrackPointExtension>
        </extensions>
      </trkpt>
      <trkpt lat="52.07662434317171573638916015625" lon="1.41183695755898952484130859375">
        <ele>-126.59999847412109375</ele>
        <time>2025-09-05T15:18:35.000Z</time>
        <extensions>
          <ns3:TrackPointExtension>
            <ns3:hr>152</ns3:hr>
            <ns3:cad>60</ns3:cad>
          </ns3:TrackPointExtension>
        </extensions>
      </trkpt>
      <trkpt lat="52.07663775421679019927978515625" lon="1.41187903471291065216064453125">
        <ele>-127.1999969482421875</ele>
        <time>2025-09-05T15:18:38.000Z</time>
        <extensions>
          <ns3:TrackPointExtension>
            <ns3:hr>155</ns3:hr>
            <ns3:cad>58</ns3:cad>
          </ns3:TrackPointExtension>
        </extensions>
      </trkpt>
      <trkpt lat="52.07666172645986080169677734375" lon="1.41196453012526035308837890625">
        <ele>-127.8000030517578125</ele>
        <time>2025-09-05T15:18:41.000Z</time>
        <extensions>
          <ns3:TrackPointExtension>
            <ns3:hr>152</ns3:hr>
            <ns3:cad>58</ns3:cad>
          </ns3:TrackPointExtension>
        </extensions>
      </trkpt>
      <trkpt lat="52.07670179195702075958251953125" lon="1.41204281710088253021240234375">
        <ele>-128.8000030517578125</ele>
        <time>2025-09-05T15:18:46.000Z</time>
        <extensions>
          <ns3:TrackPointExtension>
            <ns3:hr>152</ns3:hr>
            <ns3:cad>57</ns3:cad>
          </ns3:TrackPointExtension>
        </extensions>
      </trkpt>
      <trkpt lat="52.07672811113297939300537109375" lon="1.41209092922508716583251953125">
        <ele>-129</ele>
        <time>2025-09-05T15:18:47.000Z</time>
        <extensions>
          <ns3:TrackPointExtension>
            <ns3:hr>152</ns3:hr>
            <ns3:cad>0</ns3:cad>
          </ns3:TrackPointExtension>
        </extensions>
      </trkpt>
      <trkpt lat="52.076759040355682373046875" lon="1.41214809380471706390380859375">
        <ele>-130</ele>
        <time>2025-09-05T15:18:51.000Z</time>
        <extensions>
          <ns3:TrackPointExtension>
            <ns3:hr>151</ns3:hr>
            <ns3:cad>58</ns3:cad>
          </ns3:TrackPointExtension>
        </extensions>
      </trkpt>
      <trkpt lat="52.076790221035480499267578125" lon="1.41221011988818645477294921875">
        <ele>-130.600006103515625</ele>
        <time>2025-09-05T15:18:54.000Z</time>
        <extensions>
          <ns3:TrackPointExtension>
            <ns3:hr>150</ns3:hr>
            <ns3:cad>58</ns3:cad>
          </ns3:TrackPointExtension>
        </extensions>
      </trkpt>
      <trkpt lat="52.07681209780275821685791015625" lon="1.41225420869886875152587890625">
        <ele>-131</ele>
        <time>2025-09-05T15:18:56.000Z</time>
        <extensions>
          <ns3:TrackPointExtension>
            <ns3:hr>152</ns3:hr>
            <ns3:cad>58</ns3:cad>
          </ns3:TrackPointExtension>
        </extensions>
      </trkpt>
      <trkpt lat="52.0768534205853939056396484375" lon="1.41233350150287151336669921875">
        <ele>-132.1999969482421875</ele>
        <time>2025-09-05T15:19:00.000Z</time>
        <extensions>
          <ns3:TrackPointExtension>
            <ns3:hr>151</ns3:hr>
            <ns3:cad>58</ns3:cad>
          </ns3:TrackPointExtension>
        </extensions>
      </trkpt>
      <trkpt lat="52.07687412388622760772705078125" lon="1.41237080097198486328125">
        <ele>-132.8000030517578125</ele>
        <time>2025-09-05T15:19:02.000Z</time>
        <extensions>
          <ns3:TrackPointExtension>
            <ns3:hr>148</ns3:hr>
            <ns3:cad>61</ns3:cad>
          </ns3:TrackPointExtension>
        </extensions>
      </trkpt>
      <trkpt lat="52.0768936537206172943115234375" lon="1.41240558587014675140380859375">
        <ele>-133.399993896484375</ele>
        <time>2025-09-05T15:19:04.000Z</time>
        <extensions>
          <ns3:TrackPointExtension>
            <ns3:hr>148</ns3:hr>
            <ns3:cad>60</ns3:cad>
          </ns3:TrackPointExtension>
        </extensions>
      </trkpt>
      <trkpt lat="52.07692827098071575164794921875" lon="1.41248202882707118988037109375">
        <ele>-134.600006103515625</ele>
        <time>2025-09-05T15:19:08.000Z</time>
        <extensions>
          <ns3:TrackPointExtension>
            <ns3:hr>146</ns3:hr>
            <ns3:cad>61</ns3:cad>
          </ns3:TrackPointExtension>
        </extensions>
      </trkpt>
      <trkpt lat="52.07694067619740962982177734375" lon="1.41250826418399810791015625">
        <ele>-135</ele>
        <time>2025-09-05T15:19:09.000Z</time>
        <extensions>
          <ns3:TrackPointExtension>
            <ns3:hr>145</ns3:hr>
            <ns3:cad>61</ns3:cad>
          </ns3:TrackPointExtension>
        </extensions>
      </trkpt>
      <trkpt lat="52.07697831094264984130859375" lon="1.41258210875093936920166015625">
        <ele>-136</ele>
        <time>2025-09-05T15:19:12.000Z</time>
        <extensions>
          <ns3:TrackPointExtension>
            <ns3:hr>144</ns3:hr>
            <ns3:cad>60</ns3:cad>
          </ns3:TrackPointExtension>
        </extensions>
      </trkpt>
      <trkpt lat="52.0769972540438175201416015625" lon="1.41262016259133815765380859375">
        <ele>-136.600006103515625</ele>
        <time>2025-09-05T15:19:14.000Z</time>
        <extensions>
          <ns3:TrackPointExtension>
            <ns3:hr>144</ns3:hr>
            <ns3:cad>59</ns3:cad>
          </ns3:TrackPointExtension>
        </extensions>
      </trkpt>
      <trkpt lat="52.0770213939249515533447265625" lon="1.41266089864075183868408203125">
        <ele>-137.1999969482421875</ele>
        <time>2025-09-05T15:19:16.000Z</time>
        <extensions>
          <ns3:TrackPointExtension>
            <ns3:hr>144</ns3:hr>
            <ns3:cad>59</ns3:cad>
          </ns3:TrackPointExtension>
        </extensions>
      </trkpt>
      <trkpt lat="52.07707076333463191986083984375" lon="1.412745974957942962646484375">
        <ele>-138.600006103515625</ele>
        <time>2025-09-05T15:19:20.000Z</time>
        <extensions>
          <ns3:TrackPointExtension>
            <ns3:hr>143</ns3:hr>
            <ns3:cad>60</ns3:cad>
          </ns3:TrackPointExtension>
        </extensions>
      </trkpt>
      <trkpt lat="52.0770985074341297149658203125" lon="1.41281378455460071563720703125">
        <ele>-139.600006103515625</ele>
        <time>2025-09-05T15:19:23.000Z</time>
        <extensions>
          <ns3:TrackPointExtension>
            <ns3:hr>141</ns3:hr>
            <ns3:cad>60</ns3:cad>
          </ns3:TrackPointExtension>
        </extensions>
      </trkpt>
      <trkpt lat="52.07712423987686634063720703125" lon="1.41284379176795482635498046875">
        <ele>-140.1999969482421875</ele>
        <time>2025-09-05T15:19:25.000Z</time>
        <extensions>
          <ns3:TrackPointExtension>
            <ns3:hr>142</ns3:hr>
            <ns3:cad>61</ns3:cad>
          </ns3:TrackPointExtension>
        </extensions>
      </trkpt>
      <trkpt lat="52.07712423987686634063720703125" lon="1.41284379176795482635498046875">
        <ele>-140.600006103515625</ele>
        <time>2025-09-05T15:19:26.000Z</time>
        <extensions>
          <ns3:TrackPointExtension>
            <ns3:hr>142</ns3:hr>
            <ns3:cad>61</ns3:cad>
          </ns3:TrackPointExtension>
        </extensions>
      </trkpt>
      <trkpt lat="52.07715391181409358978271484375" lon="1.4128899760544300079345703125">
        <ele>-141.600006103515625</ele>
        <time>2025-09-05T15:19:29.000Z</time>
        <extensions>
          <ns3:TrackPointExtension>
            <ns3:hr>142</ns3:hr>
            <ns3:cad>63</ns3:cad>
          </ns3:TrackPointExtension>
        </extensions>
      </trkpt>
      <trkpt lat="52.07716380245983600616455078125" lon="1.4129037223756313323974609375">
        <ele>-142</ele>
        <time>2025-09-05T15:19:30.000Z</time>
        <extensions>
          <ns3:TrackPointExtension>
            <ns3:hr>141</ns3:hr>
            <ns3:cad>63</ns3:cad>
          </ns3:TrackPointExtension>
        </extensions>
      </trkpt>
      <trkpt lat="52.07718073390424251556396484375" lon="1.41294303350150585174560546875">
        <ele>-142.600006103515625</ele>
        <time>2025-09-05T15:19:32.000Z</time>
        <extensions>
          <ns3:TrackPointExtension>
            <ns3:hr>143</ns3:hr>
            <ns3:cad>78</ns3:cad>
          </ns3:TrackPointExtension>
        </extensions>
      </trkpt>
      <trkpt lat="52.07719045691192150115966796875" lon="1.41303624026477336883544921875">
        <ele>-144</ele>
        <time>2025-09-05T15:19:36.000Z</time>
        <extensions>
          <ns3:TrackPointExtension>
            <ns3:hr>143</ns3:hr>
            <ns3:cad>80</ns3:cad>
          </ns3:TrackPointExtension>
        </extensions>
      </trkpt>
      <trkpt lat="52.07719682715833187103271484375" lon="1.41305954195559024810791015625">
        <ele>-144.1999969482421875</ele>
        <time>2025-09-05T15:19:37.000Z</time>
        <extensions>
          <ns3:TrackPointExtension>
            <ns3:hr>143</ns3:hr>
            <ns3:cad>80</ns3:cad>
          </ns3:TrackPointExtension>
        </extensions>
      </trkpt>
      <trkpt lat="52.07722113467752933502197265625" lon="1.4131204783916473388671875">
        <ele>-145.1999969482421875</ele>
        <time>2025-09-05T15:19:40.000Z</time>
        <extensions>
          <ns3:TrackPointExtension>
            <ns3:hr>141</ns3:hr>
            <ns3:cad>80</ns3:cad>
          </ns3:TrackPointExtension>
        </extensions>
      </trkpt>
      <trkpt lat="52.07723940722644329071044921875" lon="1.4131692610681056976318359375">
        <ele>-145.600006103515625</ele>
        <time>2025-09-05T15:19:41.000Z</time>
        <extensions>
          <ns3:TrackPointExtension>
            <ns3:hr>148</ns3:hr>
            <ns3:cad>80</ns3:cad>
          </ns3:TrackPointExtension>
        </extensions>
      </trkpt>
      <trkpt lat="52.07725298590958118438720703125" lon="1.4131954126060009002685546875">
        <ele>-145.600006103515625</ele>
        <time>2025-09-05T15:19:42.000Z</time>
        <extensions>
          <ns3:TrackPointExtension>
            <ns3:hr>148</ns3:hr>
            <ns3:cad>80</ns3:cad>
          </ns3:TrackPointExtension>
        </extensions>
      </trkpt>
      <trkpt lat="52.07725298590958118438720703125" lon="1.4131954126060009002685546875">
        <ele>-145.8000030517578125</ele>
        <time>2025-09-05T15:19:43.000Z</time>
        <extensions>
          <ns3:TrackPointExtension>
            <ns3:hr>152</ns3:hr>
            <ns3:cad>80</ns3:cad>
          </ns3:TrackPointExtension>
        </extensions>
      </trkpt>
      <trkpt lat="52.07730227150022983551025390625" lon="1.41326640732586383819580078125">
        <ele>-146</ele>
        <time>2025-09-05T15:19:45.000Z</time>
        <extensions>
          <ns3:TrackPointExtension>
            <ns3:hr>153</ns3:hr>
            <ns3:cad>80</ns3:cad>
          </ns3:TrackPointExtension>
        </extensions>
      </trkpt>
      <trkpt lat="52.07730227150022983551025390625" lon="1.41326640732586383819580078125">
        <ele>-146.1999969482421875</ele>
        <time>2025-09-05T15:19:46.000Z</time>
        <extensions>
          <ns3:TrackPointExtension>
            <ns3:hr>155</ns3:hr>
            <ns3:cad>80</ns3:cad>
          </ns3:TrackPointExtension>
        </extensions>
      </trkpt>
      <trkpt lat="52.07733638584613800048828125" lon="1.413309238851070404052734375">
        <ele>-146.399993896484375</ele>
        <time>2025-09-05T15:19:48.000Z</time>
        <extensions>
          <ns3:TrackPointExtension>
            <ns3:hr>160</ns3:hr>
            <ns3:cad>80</ns3:cad>
          </ns3:TrackPointExtension>
        </extensions>
      </trkpt>
      <trkpt lat="52.07736915908753871917724609375" lon="1.41335257329046726226806640625">
        <ele>-146.600006103515625</ele>
        <time>2025-09-05T15:19:50.000Z</time>
        <extensions>
          <ns3:TrackPointExtension>
            <ns3:hr>165</ns3:hr>
            <ns3:cad>81</ns3:cad>
          </ns3:TrackPointExtension>
        </extensions>
      </trkpt>
      <trkpt lat="52.07740050740540027618408203125" lon="1.413415186107158660888671875">
        <ele>-146.8000030517578125</ele>
        <time>2025-09-05T15:19:52.000Z</time>
        <extensions>
          <ns3:TrackPointExtension>
            <ns3:hr>168</ns3:hr>
            <ns3:cad>82</ns3:cad>
          </ns3:TrackPointExtension>
        </extensions>
      </trkpt>
      <trkpt lat="52.07740671001374721527099609375" lon="1.41343924216926097869873046875">
        <ele>-147</ele>
        <time>2025-09-05T15:19:53.000Z</time>
        <extensions>
          <ns3:TrackPointExtension>
            <ns3:hr>171</ns3:hr>
            <ns3:cad>82</ns3:cad>
          </ns3:TrackPointExtension>
        </extensions>
      </trkpt>
      <trkpt lat="52.07742623984813690185546875" lon="1.413482241332530975341796875">
        <ele>-147</ele>
        <time>2025-09-05T15:19:55.000Z</time>
        <extensions>
          <ns3:TrackPointExtension>
            <ns3:hr>173</ns3:hr>
            <ns3:cad>82</ns3:cad>
          </ns3:TrackPointExtension>
        </extensions>
      </trkpt>
      <trkpt lat="52.0774937979876995086669921875" lon="1.413636468350887298583984375">
        <ele>-146.8000030517578125</ele>
        <time>2025-09-05T15:20:03.000Z</time>
        <extensions>
          <ns3:TrackPointExtension>
            <ns3:hr>173</ns3:hr>
            <ns3:cad>81</ns3:cad>
          </ns3:TrackPointExtension>
        </extensions>
      </trkpt>
      <trkpt lat="52.0775918662548065185546875" lon="1.41381391324102878570556640625">
        <ele>-145.8000030517578125</ele>
        <time>2025-09-05T15:20:10.000Z</time>
        <extensions>
          <ns3:TrackPointExtension>
            <ns3:hr>176</ns3:hr>
            <ns3:cad>81</ns3:cad>
          </ns3:TrackPointExtension>
        </extensions>
      </trkpt>
      <trkpt lat="52.07760251127183437347412109375" lon="1.413837634027004241943359375">
        <ele>-145.600006103515625</ele>
        <time>2025-09-05T15:20:11.000Z</time>
        <extensions>
          <ns3:TrackPointExtension>
            <ns3:hr>177</ns3:hr>
            <ns3:cad>81</ns3:cad>
          </ns3:TrackPointExtension>
        </extensions>
      </trkpt>
      <trkpt lat="52.077631764113903045654296875" lon="1.41392447054386138916015625">
        <ele>-145</ele>
        <time>2025-09-05T15:20:14.000Z</time>
        <extensions>
          <ns3:TrackPointExtension>
            <ns3:hr>176</ns3:hr>
            <ns3:cad>81</ns3:cad>
          </ns3:TrackPointExtension>
        </extensions>
      </trkpt>
      <trkpt lat="52.07765690982341766357421875" lon="1.41400091350078582763671875">
        <ele>-144.1999969482421875</ele>
        <time>2025-09-05T15:20:17.000Z</time>
        <extensions>
          <ns3:TrackPointExtension>
            <ns3:hr>179</ns3:hr>
            <ns3:cad>81</ns3:cad>
          </ns3:TrackPointExtension>
        </extensions>
      </trkpt>
      <trkpt lat="52.07766202278435230255126953125" lon="1.41402329318225383758544921875">
        <ele>-144</ele>
        <time>2025-09-05T15:20:18.000Z</time>
        <extensions>
          <ns3:TrackPointExtension>
            <ns3:hr>178</ns3:hr>
            <ns3:cad>81</ns3:cad>
          </ns3:TrackPointExtension>
        </extensions>
      </trkpt>
      <trkpt lat="52.07766487263143062591552734375" lon="1.4140513725578784942626953125">
        <ele>-143.600006103515625</ele>
        <time>2025-09-05T15:20:19.000Z</time>
        <extensions>
          <ns3:TrackPointExtension>
            <ns3:hr>178</ns3:hr>
            <ns3:cad>81</ns3:cad>
          </ns3:TrackPointExtension>
        </extensions>
      </trkpt>
      <trkpt lat="52.077695466578006744384765625" lon="1.41413644887506961822509765625">
        <ele>-142.8000030517578125</ele>
        <time>2025-09-05T15:20:22.000Z</time>
        <extensions>
          <ns3:TrackPointExtension>
            <ns3:hr>177</ns3:hr>
            <ns3:cad>80</ns3:cad>
          </ns3:TrackPointExtension>
        </extensions>
      </trkpt>
      <trkpt lat="52.0777321793138980865478515625" lon="1.4142662845551967620849609375">
        <ele>-141.8000030517578125</ele>
        <time>2025-09-05T15:20:26.000Z</time>
        <extensions>
          <ns3:TrackPointExtension>
            <ns3:hr>178</ns3:hr>
            <ns3:cad>79</ns3:cad>
          </ns3:TrackPointExtension>
        </extensions>
      </trkpt>
      <trkpt lat="52.077747099101543426513671875" lon="1.4143068529665470123291015625">
        <ele>-141.399993896484375</ele>
        <time>2025-09-05T15:20:27.000Z</time>
        <extensions>
          <ns3:TrackPointExtension>
            <ns3:hr>177</ns3:hr>
            <ns3:cad>80</ns3:cad>
          </ns3:TrackPointExtension>
        </extensions>
      </trkpt>
      <trkpt lat="52.0777861587703227996826171875" lon="1.4144114591181278228759765625">
        <ele>-140.600006103515625</ele>
        <time>2025-09-05T15:20:30.000Z</time>
        <extensions>
          <ns3:TrackPointExtension>
            <ns3:hr>177</ns3:hr>
            <ns3:cad>80</ns3:cad>
          </ns3:TrackPointExtension>
        </extensions>
      </trkpt>
      <trkpt lat="52.07782630808651447296142578125" lon="1.4145378582179546356201171875">
        <ele>-139.399993896484375</ele>
        <time>2025-09-05T15:20:34.000Z</time>
        <extensions>
          <ns3:TrackPointExtension>
            <ns3:hr>177</ns3:hr>
            <ns3:cad>79</ns3:cad>
          </ns3:TrackPointExtension>
        </extensions>
      </trkpt>
      <trkpt lat="52.0778367854654788970947265625" lon="1.4145730622112751007080078125">
        <ele>-139.1999969482421875</ele>
        <time>2025-09-05T15:20:35.000Z</time>
        <extensions>
          <ns3:TrackPointExtension>
            <ns3:hr>175</ns3:hr>
            <ns3:cad>79</ns3:cad>
          </ns3:TrackPointExtension>
        </extensions>
      </trkpt>
      <trkpt lat="52.07787358202040195465087890625" lon="1.41471211798489093780517578125">
        <ele>-138.399993896484375</ele>
        <time>2025-09-05T15:20:39.000Z</time>
        <extensions>
          <ns3:TrackPointExtension>
            <ns3:hr>176</ns3:hr>
            <ns3:cad>79</ns3:cad>
          </ns3:TrackPointExtension>
        </extensions>
      </trkpt>
      <trkpt lat="52.0778810419142246246337890625" lon="1.41480968333780765533447265625">
        <ele>-137.8000030517578125</ele>
        <time>2025-09-05T15:20:42.000Z</time>
        <extensions>
          <ns3:TrackPointExtension>
            <ns3:hr>175</ns3:hr>
            <ns3:cad>79</ns3:cad>
          </ns3:TrackPointExtension>
        </extensions>
      </trkpt>
      <trkpt lat="52.07789696753025054931640625" lon="1.41490926034748554229736328125">
        <ele>-137.1999969482421875</ele>
        <time>2025-09-05T15:20:45.000Z</time>
        <extensions>
          <ns3:TrackPointExtension>
            <ns3:hr>176</ns3:hr>
            <ns3:cad>80</ns3:cad>
          </ns3:TrackPointExtension>
        </extensions>
      </trkpt>
      <trkpt lat="52.0779078640043735504150390625" lon="1.41497145406901836395263671875">
        <ele>-136.8000030517578125</ele>
        <time>2025-09-05T15:20:47.000Z</time>
        <extensions>
          <ns3:TrackPointExtension>
            <ns3:hr>179</ns3:hr>
            <ns3:cad>80</ns3:cad>
          </ns3:TrackPointExtension>
        </extensions>
      </trkpt>
      <trkpt lat="52.0779155753552913665771484375" lon="1.41500581987202167510986328125">
        <ele>-136.8000030517578125</ele>
        <time>2025-09-05T15:20:48.000Z</time>
        <extensions>
          <ns3:TrackPointExtension>
            <ns3:hr>178</ns3:hr>
            <ns3:cad>81</ns3:cad>
          </ns3:TrackPointExtension>
        </extensions>
      </trkpt>
      <trkpt lat="52.07793577574193477630615234375" lon="1.41517094336450099945068359375">
        <ele>-136.1999969482421875</ele>
        <time>2025-09-05T15:20:53.000Z</time>
        <extensions>
          <ns3:TrackPointExtension>
            <ns3:hr>179</ns3:hr>
            <ns3:cad>80</ns3:cad>
          </ns3:TrackPointExtension>
        </extensions>
      </trkpt>
      <trkpt lat="52.0779427327215671539306640625" lon="1.41523933969438076019287109375">
        <ele>-136</ele>
        <time>2025-09-05T15:20:55.000Z</time>
        <extensions>
          <ns3:TrackPointExtension>
            <ns3:hr>179</ns3:hr>
            <ns3:cad>80</ns3:cad>
          </ns3:TrackPointExtension>
        </extensions>
      </trkpt>
      <trkpt lat="52.077965699136257171630859375" lon="1.41548627056181430816650390625">
        <ele>-135.600006103515625</ele>
        <time>2025-09-05T15:21:02.000Z</time>
        <extensions>
          <ns3:TrackPointExtension>
            <ns3:hr>179</ns3:hr>
            <ns3:cad>80</ns3:cad>
          </ns3:TrackPointExtension>
        </extensions>
      </trkpt>
      <trkpt lat="52.0780020765960216522216796875" lon="1.41577385365962982177734375">
        <ele>-135.399993896484375</ele>
        <time>2025-09-05T15:21:11.000Z</time>
        <extensions>
          <ns3:TrackPointExtension>
            <ns3:hr>179</ns3:hr>
            <ns3:cad>81</ns3:cad>
          </ns3:TrackPointExtension>
        </extensions>
      </trkpt>
      <trkpt lat="52.07800953648984432220458984375" lon="1.41583864577114582061767578125">
        <ele>-135.399993896484375</ele>
        <time>2025-09-05T15:21:13.000Z</time>
        <extensions>
          <ns3:TrackPointExtension>
            <ns3:hr>182</ns3:hr>
            <ns3:cad>81</ns3:cad>
          </ns3:TrackPointExtension>
        </extensions>
      </trkpt>
      <trkpt lat="52.07801490090787410736083984375" lon="1.4158712513744831085205078125">
        <ele>-135.399993896484375</ele>
        <time>2025-09-05T15:21:14.000Z</time>
        <extensions>
          <ns3:TrackPointExtension>
            <ns3:hr>178</ns3:hr>
            <ns3:cad>81</ns3:cad>
          </ns3:TrackPointExtension>
        </extensions>
      </trkpt>
      <trkpt lat="52.0780406333506107330322265625" lon="1.416002847254276275634765625">
        <ele>-135.1999969482421875</ele>
        <time>2025-09-05T15:21:18.000Z</time>
        <extensions>
          <ns3:TrackPointExtension>
            <ns3:hr>176</ns3:hr>
            <ns3:cad>81</ns3:cad>
          </ns3:TrackPointExtension>
        </extensions>
      </trkpt>
      <trkpt lat="52.0780614204704761505126953125" lon="1.41609303653240203857421875">
        <ele>-135.1999969482421875</ele>
        <time>2025-09-05T15:21:21.000Z</time>
        <extensions>
          <ns3:TrackPointExtension>
            <ns3:hr>174</ns3:hr>
            <ns3:cad>81</ns3:cad>
          </ns3:TrackPointExtension>
        </extensions>
      </trkpt>
      <trkpt lat="52.0780879072844982147216796875" lon="1.4163017459213733673095703125">
        <ele>-134.8000030517578125</ele>
        <time>2025-09-05T15:21:27.000Z</time>
        <extensions>
          <ns3:TrackPointExtension>
            <ns3:hr>174</ns3:hr>
            <ns3:cad>81</ns3:cad>
          </ns3:TrackPointExtension>
        </extensions>
      </trkpt>
      <trkpt lat="52.078094445168972015380859375" lon="1.4164952002465724945068359375">
        <ele>-134</ele>
        <time>2025-09-05T15:21:33.000Z</time>
        <extensions>
          <ns3:TrackPointExtension>
            <ns3:hr>175</ns3:hr>
            <ns3:cad>81</ns3:cad>
          </ns3:TrackPointExtension>
        </extensions>
      </trkpt>
      <trkpt lat="52.07810073159635066986083984375" lon="1.416561417281627655029296875">
        <ele>-133.8000030517578125</ele>
        <time>2025-09-05T15:21:35.000Z</time>
        <extensions>
          <ns3:TrackPointExtension>
            <ns3:hr>174</ns3:hr>
            <ns3:cad>81</ns3:cad>
          </ns3:TrackPointExtension>
        </extensions>
      </trkpt>
      <trkpt lat="52.07812000997364521026611328125" lon="1.41668823547661304473876953125">
        <ele>-133.399993896484375</ele>
        <time>2025-09-05T15:21:39.000Z</time>
        <extensions>
          <ns3:TrackPointExtension>
            <ns3:hr>177</ns3:hr>
            <ns3:cad>81</ns3:cad>
          </ns3:TrackPointExtension>
        </extensions>
      </trkpt>
      <trkpt lat="52.07813677377998828887939453125" lon="1.41681589186191558837890625">
        <ele>-133.1999969482421875</ele>
        <time>2025-09-05T15:21:43.000Z</time>
        <extensions>
          <ns3:TrackPointExtension>
            <ns3:hr>176</ns3:hr>
            <ns3:cad>81</ns3:cad>
          </ns3:TrackPointExtension>
        </extensions>
      </trkpt>
      <trkpt lat="52.0781499333679676055908203125" lon="1.41691203229129314422607421875">
        <ele>-133</ele>
        <time>2025-09-05T15:21:46.000Z</time>
        <extensions>
          <ns3:TrackPointExtension>
            <ns3:hr>177</ns3:hr>
            <ns3:cad>81</ns3:cad>
          </ns3:TrackPointExtension>
        </extensions>
      </trkpt>
      <trkpt lat="52.07816761918365955352783203125" lon="1.4170177280902862548828125">
        <ele>-132.8000030517578125</ele>
        <time>2025-09-05T15:21:49.000Z</time>
        <extensions>
          <ns3:TrackPointExtension>
            <ns3:hr>176</ns3:hr>
            <ns3:cad>81</ns3:cad>
          </ns3:TrackPointExtension>
        </extensions>
      </trkpt>
      <trkpt lat="52.07818119786679744720458984375" lon="1.41722484491765499114990234375">
        <ele>-132.600006103515625</ele>
        <time>2025-09-05T15:21:55.000Z</time>
        <extensions>
          <ns3:TrackPointExtension>
            <ns3:hr>176</ns3:hr>
            <ns3:cad>81</ns3:cad>
          </ns3:TrackPointExtension>
        </extensions>
      </trkpt>
      <trkpt lat="52.0782220177352428436279296875" lon="1.4174576103687286376953125">
        <ele>-132.1999969482421875</ele>
        <time>2025-09-05T15:22:03.000Z</time>
        <extensions>
          <ns3:TrackPointExtension>
            <ns3:hr>177</ns3:hr>
            <ns3:cad>81</ns3:cad>
          </ns3:TrackPointExtension>
        </extensions>
      </trkpt>
      <trkpt lat="52.07824104465544223785400390625" lon="1.41751058399677276611328125">
        <ele>-132</ele>
        <time>2025-09-05T15:22:05.000Z</time>
        <extensions>
          <ns3:TrackPointExtension>
            <ns3:hr>177</ns3:hr>
            <ns3:cad>81</ns3:cad>
          </ns3:TrackPointExtension>
        </extensions>
      </trkpt>
      <trkpt lat="52.0782652683556079864501953125" lon="1.417704708874225616455078125">
        <ele>-131.600006103515625</ele>
        <time>2025-09-05T15:22:11.000Z</time>
        <extensions>
          <ns3:TrackPointExtension>
            <ns3:hr>177</ns3:hr>
            <ns3:cad>81</ns3:cad>
          </ns3:TrackPointExtension>
        </extensions>
      </trkpt>
      <trkpt lat="52.078278847038745880126953125" lon="1.41791425645351409912109375">
        <ele>-131</ele>
        <time>2025-09-05T15:22:18.000Z</time>
        <extensions>
          <ns3:TrackPointExtension>
            <ns3:hr>177</ns3:hr>
            <ns3:cad>81</ns3:cad>
          </ns3:TrackPointExtension>
        </extensions>
      </trkpt>
      <trkpt lat="52.07827876321971416473388671875" lon="1.41794510185718536376953125">
        <ele>-130.8000030517578125</ele>
        <time>2025-09-05T15:22:19.000Z</time>
        <extensions>
          <ns3:TrackPointExtension>
            <ns3:hr>178</ns3:hr>
            <ns3:cad>81</ns3:cad>
          </ns3:TrackPointExtension>
        </extensions>
      </trkpt>
      <trkpt lat="52.07828521728515625" lon="1.4181648753583431243896484375">
        <ele>-130</ele>
        <time>2025-09-05T15:22:26.000Z</time>
        <extensions>
          <ns3:TrackPointExtension>
            <ns3:hr>178</ns3:hr>
            <ns3:cad>81</ns3:cad>
          </ns3:TrackPointExtension>
        </extensions>
      </trkpt>
      <trkpt lat="52.07828161306679248809814453125" lon="1.41819429583847522735595703125">
        <ele>-130</ele>
        <time>2025-09-05T15:22:27.000Z</time>
        <extensions>
          <ns3:TrackPointExtension>
            <ns3:hr>177</ns3:hr>
            <ns3:cad>81</ns3:cad>
          </ns3:TrackPointExtension>
        </extensions>
      </trkpt>
      <trkpt lat="52.078265435993671417236328125" lon="1.4183650352060794830322265625">
        <ele>-129.1999969482421875</ele>
        <time>2025-09-05T15:22:33.000Z</time>
        <extensions>
          <ns3:TrackPointExtension>
            <ns3:hr>177</ns3:hr>
            <ns3:cad>81</ns3:cad>
          </ns3:TrackPointExtension>
        </extensions>
      </trkpt>
      <trkpt lat="52.07830608822405338287353515625" lon="1.41847106628119945526123046875">
        <ele>-128.8000030517578125</ele>
        <time>2025-09-05T15:22:37.000Z</time>
        <extensions>
          <ns3:TrackPointExtension>
            <ns3:hr>177</ns3:hr>
            <ns3:cad>81</ns3:cad>
          </ns3:TrackPointExtension>
        </extensions>
      </trkpt>
      <trkpt lat="52.0783319883048534393310546875" lon="1.41854180954396724700927734375">
        <ele>-128.600006103515625</ele>
        <time>2025-09-05T15:22:40.000Z</time>
        <extensions>
          <ns3:TrackPointExtension>
            <ns3:hr>178</ns3:hr>
            <ns3:cad>80</ns3:cad>
          </ns3:TrackPointExtension>
        </extensions>
      </trkpt>
      <trkpt lat="52.0783913321793079376220703125" lon="1.41882059164345264434814453125">
        <ele>-128.600006103515625</ele>
        <time>2025-09-05T15:22:48.000Z</time>
        <extensions>
          <ns3:TrackPointExtension>
            <ns3:hr>179</ns3:hr>
            <ns3:cad>80</ns3:cad>
          </ns3:TrackPointExtension>
        </extensions>
      </trkpt>
      <trkpt lat="52.07839661277830600738525390625" lon="1.41906266100704669952392578125">
        <ele>-129.1999969482421875</ele>
        <time>2025-09-05T15:22:56.000Z</time>
        <extensions>
          <ns3:TrackPointExtension>
            <ns3:hr>177</ns3:hr>
            <ns3:cad>79</ns3:cad>
          </ns3:TrackPointExtension>
        </extensions>
      </trkpt>
      <trkpt lat="52.07842393778264522552490234375" lon="1.41927941702306270599365234375">
        <ele>-129.8000030517578125</ele>
        <time>2025-09-05T15:23:03.000Z</time>
        <extensions>
          <ns3:TrackPointExtension>
            <ns3:hr>178</ns3:hr>
            <ns3:cad>80</ns3:cad>
          </ns3:TrackPointExtension>
        </extensions>
      </trkpt>
      <trkpt lat="52.07842427305877208709716796875" lon="1.41932333819568157196044921875">
        <ele>-130</ele>
        <time>2025-09-05T15:23:04.000Z</time>
        <extensions>
          <ns3:TrackPointExtension>
            <ns3:hr>178</ns3:hr>
            <ns3:cad>80</ns3:cad>
          </ns3:TrackPointExtension>
        </extensions>
      </trkpt>
      <trkpt lat="52.07842175848782062530517578125" lon="1.41944923438131809234619140625">
        <ele>-130.1999969482421875</ele>
        <time>2025-09-05T15:23:07.000Z</time>
        <extensions>
          <ns3:TrackPointExtension>
            <ns3:hr>174</ns3:hr>
            <ns3:cad>79</ns3:cad>
          </ns3:TrackPointExtension>
        </extensions>
      </trkpt>
      <trkpt lat="52.07843072712421417236328125" lon="1.419544704258441925048828125">
        <ele>-130.600006103515625</ele>
        <time>2025-09-05T15:23:10.000Z</time>
        <extensions>
          <ns3:TrackPointExtension>
            <ns3:hr>175</ns3:hr>
            <ns3:cad>80</ns3:cad>
          </ns3:TrackPointExtension>
        </extensions>
      </trkpt>
      <trkpt lat="52.07843634299933910369873046875" lon="1.419614441692829132080078125">
        <ele>-131</ele>
        <time>2025-09-05T15:23:13.000Z</time>
        <extensions>
          <ns3:TrackPointExtension>
            <ns3:hr>176</ns3:hr>
            <ns3:cad>80</ns3:cad>
          </ns3:TrackPointExtension>
        </extensions>
      </trkpt>
      <trkpt lat="52.07844237796962261199951171875" lon="1.41966666094958782196044921875">
        <ele>-131.1999969482421875</ele>
        <time>2025-09-05T15:23:15.000Z</time>
        <extensions>
          <ns3:TrackPointExtension>
            <ns3:hr>180</ns3:hr>
            <ns3:cad>80</ns3:cad>
          </ns3:TrackPointExtension>
        </extensions>
      </trkpt>
      <trkpt lat="52.0784557051956653594970703125" lon="1.41975634731352329254150390625">
        <ele>-131.600006103515625</ele>
        <time>2025-09-05T15:23:18.000Z</time>
        <extensions>
          <ns3:TrackPointExtension>
            <ns3:hr>183</ns3:hr>
            <ns3:cad>79</ns3:cad>
          </ns3:TrackPointExtension>
        </extensions>
      </trkpt>
      <trkpt lat="52.07846450619399547576904296875" lon="1.41985676251351833343505859375">
        <ele>-132</ele>
        <time>2025-09-05T15:23:21.000Z</time>
        <extensions>
          <ns3:TrackPointExtension>
            <ns3:hr>188</ns3:hr>
            <ns3:cad>79</ns3:cad>
          </ns3:TrackPointExtension>
        </extensions>
      </trkpt>
      <trkpt lat="52.0784764923155307769775390625" lon="1.41999967396259307861328125">
        <ele>-132.8000030517578125</ele>
        <time>2025-09-05T15:23:26.000Z</time>
        <extensions>
          <ns3:TrackPointExtension>
            <ns3:hr>190</ns3:hr>
            <ns3:cad>79</ns3:cad>
          </ns3:TrackPointExtension>
        </extensions>
      </trkpt>
      <trkpt lat="52.07847909070551395416259765625" lon="1.420049965381622314453125">
        <ele>-133.1999969482421875</ele>
        <time>2025-09-05T15:23:28.000Z</time>
        <extensions>
          <ns3:TrackPointExtension>
            <ns3:hr>191</ns3:hr>
            <ns3:cad>78</ns3:cad>
          </ns3:TrackPointExtension>
        </extensions>
      </trkpt>
      <trkpt lat="52.07851630635559558868408203125" lon="1.4201505482196807861328125">
        <ele>-134.1999969482421875</ele>
        <time>2025-09-05T15:23:33.000Z</time>
        <extensions>
          <ns3:TrackPointExtension>
            <ns3:hr>192</ns3:hr>
            <ns3:cad>80</ns3:cad>
          </ns3:TrackPointExtension>
        </extensions>
      </trkpt>
      <trkpt lat="52.07852602936327457427978515625" lon="1.420168317854404449462890625">
        <ele>-134.399993896484375</ele>
        <time>2025-09-05T15:23:34.000Z</time>
        <extensions>
          <ns3:TrackPointExtension>
            <ns3:hr>193</ns3:hr>
            <ns3:cad>80</ns3:cad>
          </ns3:TrackPointExtension>
        </extensions>
      </trkpt>
      <trkpt lat="52.0785462297499179840087890625" lon="1.42029681243002414703369140625">
        <ele>-135.399993896484375</ele>
        <time>2025-09-05T15:23:39.000Z</time>
        <extensions>
          <ns3:TrackPointExtension>
            <ns3:hr>193</ns3:hr>
            <ns3:cad>79</ns3:cad>
          </ns3:TrackPointExtension>
        </extensions>
      </trkpt>
      <trkpt lat="52.0785462297499179840087890625" lon="1.42038457095623016357421875">
        <ele>-135.8000030517578125</ele>
        <time>2025-09-05T15:23:41.000Z</time>
        <extensions>
          <ns3:TrackPointExtension>
            <ns3:hr>193</ns3:hr>
            <ns3:cad>79</ns3:cad>
          </ns3:TrackPointExtension>
        </extensions>
      </trkpt>
      <trkpt lat="52.0785462297499179840087890625" lon="1.42055095173418521881103515625">
        <ele>-136.600006103515625</ele>
        <time>2025-09-05T15:23:45.000Z</time>
        <extensions>
          <ns3:TrackPointExtension>
            <ns3:hr>192</ns3:hr>
            <ns3:cad>79</ns3:cad>
          </ns3:TrackPointExtension>
        </extensions>
      </trkpt>
      <trkpt lat="52.07853944040834903717041015625" lon="1.42061465419828891754150390625">
        <ele>-136.8000030517578125</ele>
        <time>2025-09-05T15:23:47.000Z</time>
        <extensions>
          <ns3:TrackPointExtension>
            <ns3:hr>193</ns3:hr>
            <ns3:cad>80</ns3:cad>
          </ns3:TrackPointExtension>
        </extensions>
      </trkpt>
      <trkpt lat="52.07852686755359172821044921875" lon="1.4207478426396846771240234375">
        <ele>-137.600006103515625</ele>
        <time>2025-09-05T15:23:51.000Z</time>
        <extensions>
          <ns3:TrackPointExtension>
            <ns3:hr>192</ns3:hr>
            <ns3:cad>81</ns3:cad>
          </ns3:TrackPointExtension>
        </extensions>
      </trkpt>
      <trkpt lat="52.0785445533692836761474609375" lon="1.4208863116800785064697265625">
        <ele>-138.1999969482421875</ele>
        <time>2025-09-05T15:23:56.000Z</time>
        <extensions>
          <ns3:TrackPointExtension>
            <ns3:hr>191</ns3:hr>
            <ns3:cad>81</ns3:cad>
          </ns3:TrackPointExtension>
        </extensions>
      </trkpt>
      <trkpt lat="52.07856408320367336273193359375" lon="1.42098580487072467803955078125">
        <ele>-138.8000030517578125</ele>
        <time>2025-09-05T15:24:00.000Z</time>
        <extensions>
          <ns3:TrackPointExtension>
            <ns3:hr>190</ns3:hr>
            <ns3:cad>80</ns3:cad>
          </ns3:TrackPointExtension>
        </extensions>
      </trkpt>
      <trkpt lat="52.07857095636427402496337890625" lon="1.42110348679125308990478515625">
        <ele>-139</ele>
        <time>2025-09-05T15:24:03.000Z</time>
        <extensions>
          <ns3:TrackPointExtension>
            <ns3:hr>190</ns3:hr>
            <ns3:cad>79</ns3:cad>
          </ns3:TrackPointExtension>
        </extensions>
      </trkpt>
      <trkpt lat="52.07857782952487468719482421875" lon="1.4212209172546863555908203125">
        <ele>-139.1999969482421875</ele>
        <time>2025-09-05T15:24:06.000Z</time>
        <extensions>
          <ns3:TrackPointExtension>
            <ns3:hr>187</ns3:hr>
            <ns3:cad>80</ns3:cad>
          </ns3:TrackPointExtension>
        </extensions>
      </trkpt>
      <trkpt lat="52.0785894803702831268310546875" lon="1.42137975431978702545166015625">
        <ele>-139.399993896484375</ele>
        <time>2025-09-05T15:24:10.000Z</time>
        <extensions>
          <ns3:TrackPointExtension>
            <ns3:hr>187</ns3:hr>
            <ns3:cad>79</ns3:cad>
          </ns3:TrackPointExtension>
        </extensions>
      </trkpt>
      <trkpt lat="52.07859828136861324310302734375" lon="1.4215424470603466033935546875">
        <ele>-139.8000030517578125</ele>
        <time>2025-09-05T15:24:15.000Z</time>
        <extensions>
          <ns3:TrackPointExtension>
            <ns3:hr>189</ns3:hr>
            <ns3:cad>80</ns3:cad>
          </ns3:TrackPointExtension>
        </extensions>
      </trkpt>
      <trkpt lat="52.07860247232019901275634765625" lon="1.42160229384899139404296875">
        <ele>-140</ele>
        <time>2025-09-05T15:24:17.000Z</time>
        <extensions>
          <ns3:TrackPointExtension>
            <ns3:hr>188</ns3:hr>
            <ns3:cad>81</ns3:cad>
          </ns3:TrackPointExtension>
        </extensions>
      </trkpt>
      <trkpt lat="52.07860951311886310577392578125" lon="1.42175962217152118682861328125">
        <ele>-140.1999969482421875</ele>
        <time>2025-09-05T15:24:22.000Z</time>
        <extensions>
          <ns3:TrackPointExtension>
            <ns3:hr>184</ns3:hr>
            <ns3:cad>81</ns3:cad>
          </ns3:TrackPointExtension>
        </extensions>
      </trkpt>
      <trkpt lat="52.07861940376460552215576171875" lon="1.4218270964920520782470703125">
        <ele>-140.399993896484375</ele>
        <time>2025-09-05T15:24:24.000Z</time>
        <extensions>
          <ns3:TrackPointExtension>
            <ns3:hr>183</ns3:hr>
            <ns3:cad>81</ns3:cad>
          </ns3:TrackPointExtension>
        </extensions>
      </trkpt>
      <trkpt lat="52.07863415591418743133544921875" lon="1.42203572206199169158935546875">
        <ele>-140.8000030517578125</ele>
        <time>2025-09-05T15:24:30.000Z</time>
        <extensions>
          <ns3:TrackPointExtension>
            <ns3:hr>184</ns3:hr>
            <ns3:cad>81</ns3:cad>
          </ns3:TrackPointExtension>
        </extensions>
      </trkpt>
      <trkpt lat="52.07863859832286834716796875" lon="1.4220698364078998565673828125">
        <ele>-141</ele>
        <time>2025-09-05T15:24:31.000Z</time>
        <extensions>
          <ns3:TrackPointExtension>
            <ns3:hr>184</ns3:hr>
            <ns3:cad>81</ns3:cad>
          </ns3:TrackPointExtension>
        </extensions>
      </trkpt>
      <trkpt lat="52.0786647498607635498046875" lon="1.4223186112940311431884765625">
        <ele>-141.399993896484375</ele>
        <time>2025-09-05T15:24:38.000Z</time>
        <extensions>
          <ns3:TrackPointExtension>
            <ns3:hr>181</ns3:hr>
            <ns3:cad>81</ns3:cad>
          </ns3:TrackPointExtension>
        </extensions>
      </trkpt>
      <trkpt lat="52.0786806754767894744873046875" lon="1.4225405640900135040283203125">
        <ele>-141.8000030517578125</ele>
        <time>2025-09-05T15:24:45.000Z</time>
        <extensions>
          <ns3:TrackPointExtension>
            <ns3:hr>181</ns3:hr>
            <ns3:cad>81</ns3:cad>
          </ns3:TrackPointExtension>
        </extensions>
      </trkpt>
      <trkpt lat="52.0786722935736179351806640625" lon="1.42271884717047214508056640625">
        <ele>-141.8000030517578125</ele>
        <time>2025-09-05T15:24:50.000Z</time>
        <extensions>
          <ns3:TrackPointExtension>
            <ns3:hr>181</ns3:hr>
            <ns3:cad>81</ns3:cad>
          </ns3:TrackPointExtension>
        </extensions>
      </trkpt>
      <trkpt lat="52.0786692760884761810302734375" lon="1.42279093153774738311767578125">
        <ele>-142</ele>
        <time>2025-09-05T15:24:52.000Z</time>
        <extensions>
          <ns3:TrackPointExtension>
            <ns3:hr>182</ns3:hr>
            <ns3:cad>80</ns3:cad>
          </ns3:TrackPointExtension>
        </extensions>
      </trkpt>
      <trkpt lat="52.07869760692119598388671875" lon="1.423040293157100677490234375">
        <ele>-142</ele>
        <time>2025-09-05T15:25:00.000Z</time>
        <extensions>
          <ns3:TrackPointExtension>
            <ns3:hr>181</ns3:hr>
            <ns3:cad>81</ns3:cad>
          </ns3:TrackPointExtension>
        </extensions>
      </trkpt>
      <trkpt lat="52.07872116006910800933837890625" lon="1.423267610371112823486328125">
        <ele>-142</ele>
        <time>2025-09-05T15:25:05.000Z</time>
        <extensions>
          <ns3:TrackPointExtension>
            <ns3:hr>178</ns3:hr>
            <ns3:cad>80</ns3:cad>
          </ns3:TrackPointExtension>
        </extensions>
      </trkpt>
      <trkpt lat="52.07872233353555202484130859375" lon="1.42329476773738861083984375">
        <ele>-142</ele>
        <time>2025-09-05T15:25:07.000Z</time>
        <extensions>
          <ns3:TrackPointExtension>
            <ns3:hr>179</ns3:hr>
            <ns3:cad>79</ns3:cad>
          </ns3:TrackPointExtension>
        </extensions>
      </trkpt>
      <trkpt lat="52.07872979342937469482421875" lon="1.42338051460683345794677734375">
        <ele>-142</ele>
        <time>2025-09-05T15:25:11.000Z</time>
        <extensions>
          <ns3:TrackPointExtension>
            <ns3:hr>177</ns3:hr>
            <ns3:cad>79</ns3:cad>
          </ns3:TrackPointExtension>
        </extensions>
      </trkpt>
      <trkpt lat="52.07874446175992488861083984375" lon="1.42346777021884918212890625">
        <ele>-142</ele>
        <time>2025-09-05T15:25:16.000Z</time>
        <extensions>
          <ns3:TrackPointExtension>
            <ns3:hr>180</ns3:hr>
            <ns3:cad>59</ns3:cad>
          </ns3:TrackPointExtension>
        </extensions>
      </trkpt>
      <trkpt lat="52.0787524245679378509521484375" lon="1.42353943549096584320068359375">
        <ele>-142.1999969482421875</ele>
        <time>2025-09-05T15:25:19.000Z</time>
        <extensions>
          <ns3:TrackPointExtension>
            <ns3:hr>179</ns3:hr>
            <ns3:cad>59</ns3:cad>
          </ns3:TrackPointExtension>
        </extensions>
      </trkpt>
      <trkpt lat="52.07875452004373073577880859375" lon="1.42363515682518482208251953125">
        <ele>-142.399993896484375</ele>
        <time>2025-09-05T15:25:22.000Z</time>
        <extensions>
          <ns3:TrackPointExtension>
            <ns3:hr>176</ns3:hr>
            <ns3:cad>58</ns3:cad>
          </ns3:TrackPointExtension>
        </extensions>
      </trkpt>
      <trkpt lat="52.07873809151351451873779296875" lon="1.42372165806591510772705078125">
        <ele>-142.600006103515625</ele>
        <time>2025-09-05T15:25:26.000Z</time>
        <extensions>
          <ns3:TrackPointExtension>
            <ns3:hr>174</ns3:hr>
            <ns3:cad>58</ns3:cad>
          </ns3:TrackPointExtension>
        </extensions>
      </trkpt>
      <trkpt lat="52.0787393487989902496337890625" lon="1.42374412156641483306884765625">
        <ele>-142.8000030517578125</ele>
        <time>2025-09-05T15:25:28.000Z</time>
        <extensions>
          <ns3:TrackPointExtension>
            <ns3:hr>171</ns3:hr>
            <ns3:cad>58</ns3:cad>
          </ns3:TrackPointExtension>
        </extensions>
      </trkpt>
      <trkpt lat="52.07874915562570095062255859375" lon="1.4237834326922893524169921875">
        <ele>-143</ele>
        <time>2025-09-05T15:25:30.000Z</time>
        <extensions>
          <ns3:TrackPointExtension>
            <ns3:hr>172</ns3:hr>
            <ns3:cad>57</ns3:cad>
          </ns3:TrackPointExtension>
        </extensions>
      </trkpt>
      <trkpt lat="52.07876541651785373687744140625" lon="1.423847638070583343505859375">
        <ele>-143.399993896484375</ele>
        <time>2025-09-05T15:25:32.000Z</time>
        <extensions>
          <ns3:TrackPointExtension>
            <ns3:hr>172</ns3:hr>
            <ns3:cad>57</ns3:cad>
          </ns3:TrackPointExtension>
        </extensions>
      </trkpt>
      <trkpt lat="52.07879039458930492401123046875" lon="1.42392165027558803558349609375">
        <ele>-144.1999969482421875</ele>
        <time>2025-09-05T15:25:35.000Z</time>
        <extensions>
          <ns3:TrackPointExtension>
            <ns3:hr>172</ns3:hr>
            <ns3:cad>57</ns3:cad>
          </ns3:TrackPointExtension>
        </extensions>
      </trkpt>
      <trkpt lat="52.07882224582135677337646484375" lon="1.42401896417140960693359375">
        <ele>-145.399993896484375</ele>
        <time>2025-09-05T15:25:39.000Z</time>
        <extensions>
          <ns3:TrackPointExtension>
            <ns3:hr>172</ns3:hr>
            <ns3:cad>57</ns3:cad>
          </ns3:TrackPointExtension>
        </extensions>
      </trkpt>
      <trkpt lat="52.07882903516292572021484375" lon="1.424040086567401885986328125">
        <ele>-145.600006103515625</ele>
        <time>2025-09-05T15:25:40.000Z</time>
        <extensions>
          <ns3:TrackPointExtension>
            <ns3:hr>172</ns3:hr>
            <ns3:cad>57</ns3:cad>
          </ns3:TrackPointExtension>
        </extensions>
      </trkpt>
      <trkpt lat="52.07884722389280796051025390625" lon="1.42409867607057094573974609375">
        <ele>-146.600006103515625</ele>
        <time>2025-09-05T15:25:43.000Z</time>
        <extensions>
          <ns3:TrackPointExtension>
            <ns3:hr>171</ns3:hr>
            <ns3:cad>57</ns3:cad>
          </ns3:TrackPointExtension>
        </extensions>
      </trkpt>
      <trkpt lat="52.0788657478988170623779296875" lon="1.4241512306034564971923828125">
        <ele>-147.600006103515625</ele>
        <time>2025-09-05T15:25:47.000Z</time>
        <extensions>
          <ns3:TrackPointExtension>
            <ns3:hr>168</ns3:hr>
            <ns3:cad>59</ns3:cad>
          </ns3:TrackPointExtension>
        </extensions>
      </trkpt>
      <trkpt lat="52.078876979649066925048828125" lon="1.42418232746422290802001953125">
        <ele>-148.1999969482421875</ele>
        <time>2025-09-05T15:25:49.000Z</time>
        <extensions>
          <ns3:TrackPointExtension>
            <ns3:hr>165</ns3:hr>
            <ns3:cad>60</ns3:cad>
          </ns3:TrackPointExtension>
        </extensions>
      </trkpt>
      <trkpt lat="52.07890681922435760498046875" lon="1.42424033023416996002197265625">
        <ele>-148.8000030517578125</ele>
        <time>2025-09-05T15:25:51.000Z</time>
        <extensions>
          <ns3:TrackPointExtension>
            <ns3:hr>166</ns3:hr>
            <ns3:cad>60</ns3:cad>
          </ns3:TrackPointExtension>
        </extensions>
      </trkpt>
      <trkpt lat="52.0789395086467266082763671875" lon="1.42428894527256488800048828125">
        <ele>-149.8000030517578125</ele>
        <time>2025-09-05T15:25:54.000Z</time>
        <extensions>
          <ns3:TrackPointExtension>
            <ns3:hr>166</ns3:hr>
            <ns3:cad>60</ns3:cad>
          </ns3:TrackPointExtension>
        </extensions>
      </trkpt>
      <trkpt lat="52.07894847728312015533447265625" lon="1.4243061281740665435791015625">
        <ele>-150.1999969482421875</ele>
        <time>2025-09-05T15:25:55.000Z</time>
        <extensions>
          <ns3:TrackPointExtension>
            <ns3:hr>167</ns3:hr>
            <ns3:cad>60</ns3:cad>
          </ns3:TrackPointExtension>
        </extensions>
      </trkpt>
      <trkpt lat="52.078960798680782318115234375" lon="1.42437645234167575836181640625">
        <ele>-151.399993896484375</ele>
        <time>2025-09-05T15:25:59.000Z</time>
        <extensions>
          <ns3:TrackPointExtension>
            <ns3:hr>165</ns3:hr>
            <ns3:cad>61</ns3:cad>
          </ns3:TrackPointExtension>
        </extensions>
      </trkpt>
      <trkpt lat="52.07896985113620758056640625" lon="1.42440176568925380706787109375">
        <ele>-152</ele>
        <time>2025-09-05T15:26:01.000Z</time>
        <extensions>
          <ns3:TrackPointExtension>
            <ns3:hr>165</ns3:hr>
            <ns3:cad>61</ns3:cad>
          </ns3:TrackPointExtension>
        </extensions>
      </trkpt>
      <trkpt lat="52.07897865213453769683837890625" lon="1.42442925833165645599365234375">
        <ele>-152.600006103515625</ele>
        <time>2025-09-05T15:26:03.000Z</time>
        <extensions>
          <ns3:TrackPointExtension>
            <ns3:hr>164</ns3:hr>
            <ns3:cad>61</ns3:cad>
          </ns3:TrackPointExtension>
        </extensions>
      </trkpt>
      <trkpt lat="52.079003043472766876220703125" lon="1.42448927275836467742919921875">
        <ele>-153.8000030517578125</ele>
        <time>2025-09-05T15:26:08.000Z</time>
        <extensions>
          <ns3:TrackPointExtension>
            <ns3:hr>162</ns3:hr>
            <ns3:cad>59</ns3:cad>
          </ns3:TrackPointExtension>
        </extensions>
      </trkpt>
      <trkpt lat="52.07901234738528728485107421875" lon="1.42452665604650974273681640625">
        <ele>-154.1999969482421875</ele>
        <time>2025-09-05T15:26:10.000Z</time>
        <extensions>
          <ns3:TrackPointExtension>
            <ns3:hr>159</ns3:hr>
            <ns3:cad>59</ns3:cad>
          </ns3:TrackPointExtension>
        </extensions>
      </trkpt>
      <trkpt lat="52.079029195010662078857421875" lon="1.4245720021426677703857421875">
        <ele>-154.8000030517578125</ele>
        <time>2025-09-05T15:26:13.000Z</time>
        <extensions>
          <ns3:TrackPointExtension>
            <ns3:hr>157</ns3:hr>
            <ns3:cad>60</ns3:cad>
          </ns3:TrackPointExtension>
        </extensions>
      </trkpt>
      <trkpt lat="52.07904361188411712646484375" lon="1.42459790222346782684326171875">
        <ele>-155</ele>
        <time>2025-09-05T15:26:15.000Z</time>
        <extensions>
          <ns3:TrackPointExtension>
            <ns3:hr>154</ns3:hr>
            <ns3:cad>58</ns3:cad>
          </ns3:TrackPointExtension>
        </extensions>
      </trkpt>
      <trkpt lat="52.07906766794621944427490234375" lon="1.4246271550655364990234375">
        <ele>-155.600006103515625</ele>
        <time>2025-09-05T15:26:18.000Z</time>
        <extensions>
          <ns3:TrackPointExtension>
            <ns3:hr>153</ns3:hr>
            <ns3:cad>0</ns3:cad>
          </ns3:TrackPointExtension>
        </extensions>
      </trkpt>
      <trkpt lat="52.079068757593631744384765625" lon="1.4246310107409954071044921875">
        <ele>-155.8000030517578125</ele>
        <time>2025-09-05T15:26:19.000Z</time>
        <extensions>
          <ns3:TrackPointExtension>
            <ns3:hr>150</ns3:hr>
            <ns3:cad>0</ns3:cad>
          </ns3:TrackPointExtension>
        </extensions>
      </trkpt>
      <trkpt lat="52.079097591340541839599609375" lon="1.4246915280818939208984375">
        <ele>-156.8000030517578125</ele>
        <time>2025-09-05T15:26:25.000Z</time>
        <extensions>
          <ns3:TrackPointExtension>
            <ns3:hr>153</ns3:hr>
            <ns3:cad>0</ns3:cad>
          </ns3:TrackPointExtension>
        </extensions>
      </trkpt>
      <trkpt lat="52.07910488359630107879638671875" lon="1.4247101359069347381591796875">
        <ele>-157</ele>
        <time>2025-09-05T15:26:26.000Z</time>
        <extensions>
          <ns3:TrackPointExtension>
            <ns3:hr>153</ns3:hr>
            <ns3:cad>55</ns3:cad>
          </ns3:TrackPointExtension>
        </extensions>
      </trkpt>
      <trkpt lat="52.0791503973305225372314453125" lon="1.42483762465417385101318359375">
        <ele>-158</ele>
        <time>2025-09-05T15:26:34.000Z</time>
        <extensions>
          <ns3:TrackPointExtension>
            <ns3:hr>153</ns3:hr>
            <ns3:cad>60</ns3:cad>
          </ns3:TrackPointExtension>
        </extensions>
      </trkpt>
      <trkpt lat="52.07915785722434520721435546875" lon="1.42485841177403926849365234375">
        <ele>-158</ele>
        <time>2025-09-05T15:26:35.000Z</time>
        <extensions>
          <ns3:TrackPointExtension>
            <ns3:hr>154</ns3:hr>
            <ns3:cad>59</ns3:cad>
          </ns3:TrackPointExtension>
        </extensions>
      </trkpt>
      <trkpt lat="52.07921393215656280517578125" lon="1.4248968847095966339111328125">
        <ele>-158.1999969482421875</ele>
        <time>2025-09-05T15:26:37.000Z</time>
        <extensions>
          <ns3:TrackPointExtension>
            <ns3:hr>154</ns3:hr>
            <ns3:cad>60</ns3:cad>
          </ns3:TrackPointExtension>
        </extensions>
      </trkpt>
      <trkpt lat="52.07926698960363864898681640625" lon="1.42498782835900783538818359375">
        <ele>-158.8000030517578125</ele>
        <time>2025-09-05T15:26:42.000Z</time>
        <extensions>
          <ns3:TrackPointExtension>
            <ns3:hr>154</ns3:hr>
            <ns3:cad>57</ns3:cad>
          </ns3:TrackPointExtension>
        </extensions>
      </trkpt>
      <trkpt lat="52.07927268929779529571533203125" lon="1.4250323362648487091064453125">
        <ele>-159</ele>
        <time>2025-09-05T15:26:45.000Z</time>
        <extensions>
          <ns3:TrackPointExtension>
            <ns3:hr>154</ns3:hr>
            <ns3:cad>60</ns3:cad>
          </ns3:TrackPointExtension>
        </extensions>
      </trkpt>
      <trkpt lat="52.0793210528790950775146484375" lon="1.42508271150290966033935546875">
        <ele>-159.399993896484375</ele>
        <time>2025-09-05T15:26:50.000Z</time>
        <extensions>
          <ns3:TrackPointExtension>
            <ns3:hr>152</ns3:hr>
            <ns3:cad>60</ns3:cad>
          </ns3:TrackPointExtension>
        </extensions>
      </trkpt>
      <trkpt lat="52.0793639682233333587646484375" lon="1.4251801930367946624755859375">
        <ele>-160</ele>
        <time>2025-09-05T15:26:56.000Z</time>
        <extensions>
          <ns3:TrackPointExtension>
            <ns3:hr>150</ns3:hr>
            <ns3:cad>62</ns3:cad>
          </ns3:TrackPointExtension>
        </extensions>
      </trkpt>
      <trkpt lat="52.07938685081899166107177734375" lon="1.42526543699204921722412109375">
        <ele>-160.399993896484375</ele>
        <time>2025-09-05T15:27:00.000Z</time>
        <extensions>
          <ns3:TrackPointExtension>
            <ns3:hr>147</ns3:hr>
            <ns3:cad>60</ns3:cad>
          </ns3:TrackPointExtension>
        </extensions>
      </trkpt>
      <trkpt lat="52.07944217137992382049560546875" lon="1.425381191074848175048828125">
        <ele>-161</ele>
        <time>2025-09-05T15:27:06.000Z</time>
        <extensions>
          <ns3:TrackPointExtension>
            <ns3:hr>147</ns3:hr>
            <ns3:cad>60</ns3:cad>
          </ns3:TrackPointExtension>
        </extensions>
      </trkpt>
      <trkpt lat="52.0794856734573841094970703125" lon="1.42547531984746456146240234375">
        <ele>-161.399993896484375</ele>
        <time>2025-09-05T15:27:10.000Z</time>
        <extensions>
          <ns3:TrackPointExtension>
            <ns3:hr>147</ns3:hr>
            <ns3:cad>60</ns3:cad>
          </ns3:TrackPointExtension>
        </extensions>
      </trkpt>
      <trkpt lat="52.07954677753150463104248046875" lon="1.42559073865413665771484375">
        <ele>-162</ele>
        <time>2025-09-05T15:27:15.000Z</time>
        <extensions>
          <ns3:TrackPointExtension>
            <ns3:hr>145</ns3:hr>
            <ns3:cad>60</ns3:cad>
          </ns3:TrackPointExtension>
        </extensions>
      </trkpt>
      <trkpt lat="52.07959002815186977386474609375" lon="1.42568998038768768310546875">
        <ele>-162.600006103515625</ele>
        <time>2025-09-05T15:27:20.000Z</time>
        <extensions>
          <ns3:TrackPointExtension>
            <ns3:hr>145</ns3:hr>
            <ns3:cad>60</ns3:cad>
          </ns3:TrackPointExtension>
        </extensions>
      </trkpt>
      <trkpt lat="52.0796357095241546630859375" lon="1.42578695900738239288330078125">
        <ele>-163</ele>
        <time>2025-09-05T15:27:24.000Z</time>
        <extensions>
          <ns3:TrackPointExtension>
            <ns3:hr>143</ns3:hr>
            <ns3:cad>60</ns3:cad>
          </ns3:TrackPointExtension>
        </extensions>
      </trkpt>
      <trkpt lat="52.07969128154218196868896484375" lon="1.42591788433492183685302734375">
        <ele>-163.600006103515625</ele>
        <time>2025-09-05T15:27:29.000Z</time>
        <extensions>
          <ns3:TrackPointExtension>
            <ns3:hr>142</ns3:hr>
            <ns3:cad>60</ns3:cad>
          </ns3:TrackPointExtension>
        </extensions>
      </trkpt>
      <trkpt lat="52.0797109790146350860595703125" lon="1.42599768005311489105224609375">
        <ele>-164</ele>
        <time>2025-09-05T15:27:32.000Z</time>
        <extensions>
          <ns3:TrackPointExtension>
            <ns3:hr>143</ns3:hr>
            <ns3:cad>60</ns3:cad>
          </ns3:TrackPointExtension>
        </extensions>
      </trkpt>
      <trkpt lat="52.07973117940127849578857421875" lon="1.42615710385143756866455078125">
        <ele>-164.8000030517578125</ele>
        <time>2025-09-05T15:27:38.000Z</time>
        <extensions>
          <ns3:TrackPointExtension>
            <ns3:hr>138</ns3:hr>
            <ns3:cad>60</ns3:cad>
          </ns3:TrackPointExtension>
        </extensions>
      </trkpt>
      <trkpt lat="52.079735957086086273193359375" lon="1.426197923719882965087890625">
        <ele>-165.1999969482421875</ele>
        <time>2025-09-05T15:27:40.000Z</time>
        <extensions>
          <ns3:TrackPointExtension>
            <ns3:hr>136</ns3:hr>
            <ns3:cad>61</ns3:cad>
          </ns3:TrackPointExtension>
        </extensions>
      </trkpt>
      <trkpt lat="52.0797746814787387847900390625" lon="1.42631351016461849212646484375">
        <ele>-166.1999969482421875</ele>
        <time>2025-09-05T15:27:46.000Z</time>
        <extensions>
          <ns3:TrackPointExtension>
            <ns3:hr>136</ns3:hr>
            <ns3:cad>60</ns3:cad>
          </ns3:TrackPointExtension>
        </extensions>
      </trkpt>
      <trkpt lat="52.07979236729443073272705078125" lon="1.42637436278164386749267578125">
        <ele>-166.8000030517578125</ele>
        <time>2025-09-05T15:27:49.000Z</time>
        <extensions>
          <ns3:TrackPointExtension>
            <ns3:hr>132</ns3:hr>
            <ns3:cad>60</ns3:cad>
          </ns3:TrackPointExtension>
        </extensions>
      </trkpt>
      <trkpt lat="52.07980276085436344146728515625" lon="1.4263922162353992462158203125">
        <ele>-167</ele>
        <time>2025-09-05T15:27:50.000Z</time>
        <extensions>
          <ns3:TrackPointExtension>
            <ns3:hr>133</ns3:hr>
            <ns3:cad>60</ns3:cad>
          </ns3:TrackPointExtension>
        </extensions>
      </trkpt>
      <trkpt lat="52.0798226259648799896240234375" lon="1.4264247380197048187255859375">
        <ele>-167.399993896484375</ele>
        <time>2025-09-05T15:27:52.000Z</time>
        <extensions>
          <ns3:TrackPointExtension>
            <ns3:hr>134</ns3:hr>
            <ns3:cad>60</ns3:cad>
          </ns3:TrackPointExtension>
        </extensions>
      </trkpt>
      <trkpt lat="52.07988674752414226531982421875" lon="1.42657435499131679534912109375">
        <ele>-168.399993896484375</ele>
        <time>2025-09-05T15:27:57.000Z</time>
        <extensions>
          <ns3:TrackPointExtension>
            <ns3:hr>136</ns3:hr>
            <ns3:cad>124</ns3:cad>
          </ns3:TrackPointExtension>
        </extensions>
      </trkpt>
      <trkpt lat="52.07990384660661220550537109375" lon="1.42664543353021144866943359375">
        <ele>-169</ele>
        <time>2025-09-05T15:27:59.000Z</time>
        <extensions>
          <ns3:TrackPointExtension>
            <ns3:hr>136</ns3:hr>
            <ns3:cad>80</ns3:cad>
          </ns3:TrackPointExtension>
        </extensions>
      </trkpt>
      <trkpt lat="52.07992329262197017669677734375" lon="1.42675615847110748291015625">
        <ele>-169.600006103515625</ele>
        <time>2025-09-05T15:28:02.000Z</time>
        <extensions>
          <ns3:TrackPointExtension>
            <ns3:hr>137</ns3:hr>
            <ns3:cad>80</ns3:cad>
          </ns3:TrackPointExtension>
        </extensions>
      </trkpt>
      <trkpt lat="52.07996352575719356536865234375" lon="1.42694835551083087921142578125">
        <ele>-170.600006103515625</ele>
        <time>2025-09-05T15:28:07.000Z</time>
        <extensions>
          <ns3:TrackPointExtension>
            <ns3:hr>136</ns3:hr>
            <ns3:cad>81</ns3:cad>
          </ns3:TrackPointExtension>
        </extensions>
      </trkpt>
      <trkpt lat="52.07997157238423824310302734375" lon="1.42699009738862514495849609375">
        <ele>-170.8000030517578125</ele>
        <time>2025-09-05T15:28:08.000Z</time>
        <extensions>
          <ns3:TrackPointExtension>
            <ns3:hr>140</ns3:hr>
            <ns3:cad>81</ns3:cad>
          </ns3:TrackPointExtension>
        </extensions>
      </trkpt>
      <trkpt lat="52.07998012192547321319580078125" lon="1.4270242117345333099365234375">
        <ele>-171</ele>
        <time>2025-09-05T15:28:09.000Z</time>
        <extensions>
          <ns3:TrackPointExtension>
            <ns3:hr>145</ns3:hr>
            <ns3:cad>82</ns3:cad>
          </ns3:TrackPointExtension>
        </extensions>
      </trkpt>
      <trkpt lat="52.079993449151515960693359375" lon="1.42705095000565052032470703125">
        <ele>-171</ele>
        <time>2025-09-05T15:28:10.000Z</time>
        <extensions>
          <ns3:TrackPointExtension>
            <ns3:hr>150</ns3:hr>
            <ns3:cad>82</ns3:cad>
          </ns3:TrackPointExtension>
        </extensions>
      </trkpt>
      <trkpt lat="52.080013565719127655029296875" lon="1.42711817286908626556396484375">
        <ele>-171.1999969482421875</ele>
        <time>2025-09-05T15:28:12.000Z</time>
        <extensions>
          <ns3:TrackPointExtension>
            <ns3:hr>155</ns3:hr>
            <ns3:cad>82</ns3:cad>
          </ns3:TrackPointExtension>
        </extensions>
      </trkpt>
      <trkpt lat="52.0800247974693775177001953125" lon="1.42715455032885074615478515625">
        <ele>-171.1999969482421875</ele>
        <time>2025-09-05T15:28:13.000Z</time>
        <extensions>
          <ns3:TrackPointExtension>
            <ns3:hr>160</ns3:hr>
            <ns3:cad>82</ns3:cad>
          </ns3:TrackPointExtension>
        </extensions>
      </trkpt>
      <trkpt lat="52.0800422318279743194580078125" lon="1.42722646705806255340576171875">
        <ele>-171.399993896484375</ele>
        <time>2025-09-05T15:28:15.000Z</time>
        <extensions>
          <ns3:TrackPointExtension>
            <ns3:hr>164</ns3:hr>
            <ns3:cad>82</ns3:cad>
          </ns3:TrackPointExtension>
        </extensions>
      </trkpt>
      <trkpt lat="52.08006226457655429840087890625" lon="1.42729268409311771392822265625">
        <ele>-171.399993896484375</ele>
        <time>2025-09-05T15:28:17.000Z</time>
        <extensions>
          <ns3:TrackPointExtension>
            <ns3:hr>164</ns3:hr>
            <ns3:cad>82</ns3:cad>
          </ns3:TrackPointExtension>
        </extensions>
      </trkpt>
      <trkpt lat="52.08009101450443267822265625" lon="1.42738941125571727752685546875">
        <ele>-171.1999969482421875</ele>
        <time>2025-09-05T15:28:20.000Z</time>
        <extensions>
          <ns3:TrackPointExtension>
            <ns3:hr>167</ns3:hr>
            <ns3:cad>82</ns3:cad>
          </ns3:TrackPointExtension>
        </extensions>
      </trkpt>
      <trkpt lat="52.08010601811110973358154296875" lon="1.42745965160429477691650390625">
        <ele>-171</ele>
        <time>2025-09-05T15:28:22.000Z</time>
        <extensions>
          <ns3:TrackPointExtension>
            <ns3:hr>170</ns3:hr>
            <ns3:cad>82</ns3:cad>
          </ns3:TrackPointExtension>
        </extensions>
      </trkpt>
      <trkpt lat="52.08012663759291172027587890625" lon="1.4275516010820865631103515625">
        <ele>-170.600006103515625</ele>
        <time>2025-09-05T15:28:25.000Z</time>
        <extensions>
          <ns3:TrackPointExtension>
            <ns3:hr>173</ns3:hr>
            <ns3:cad>82</ns3:cad>
          </ns3:TrackPointExtension>
        </extensions>
      </trkpt>
      <trkpt lat="52.0801636017858982086181640625" lon="1.42771747894585132598876953125">
        <ele>-169.399993896484375</ele>
        <time>2025-09-05T15:28:30.000Z</time>
        <extensions>
          <ns3:TrackPointExtension>
            <ns3:hr>175</ns3:hr>
            <ns3:cad>81</ns3:cad>
          </ns3:TrackPointExtension>
        </extensions>
      </trkpt>
      <trkpt lat="52.080184556543827056884765625" lon="1.42777497880160808563232421875">
        <ele>-168.8000030517578125</ele>
        <time>2025-09-05T15:28:32.000Z</time>
        <extensions>
          <ns3:TrackPointExtension>
            <ns3:hr>176</ns3:hr>
            <ns3:cad>81</ns3:cad>
          </ns3:TrackPointExtension>
        </extensions>
      </trkpt>
      <trkpt lat="52.0802011527121067047119140625" lon="1.42784119583666324615478515625">
        <ele>-168.1999969482421875</ele>
        <time>2025-09-05T15:28:34.000Z</time>
        <extensions>
          <ns3:TrackPointExtension>
            <ns3:hr>174</ns3:hr>
            <ns3:cad>81</ns3:cad>
          </ns3:TrackPointExtension>
        </extensions>
      </trkpt>
      <trkpt lat="52.080216743052005767822265625" lon="1.42789743840694427490234375">
        <ele>-167.600006103515625</ele>
        <time>2025-09-05T15:28:36.000Z</time>
        <extensions>
          <ns3:TrackPointExtension>
            <ns3:hr>177</ns3:hr>
            <ns3:cad>82</ns3:cad>
          </ns3:TrackPointExtension>
        </extensions>
      </trkpt>
      <trkpt lat="52.08023610524833202362060546875" lon="1.4279539324343204498291015625">
        <ele>-166.8000030517578125</ele>
        <time>2025-09-05T15:28:38.000Z</time>
        <extensions>
          <ns3:TrackPointExtension>
            <ns3:hr>176</ns3:hr>
            <ns3:cad>82</ns3:cad>
          </ns3:TrackPointExtension>
        </extensions>
      </trkpt>
      <trkpt lat="52.08025404252111911773681640625" lon="1.4280126057565212249755859375">
        <ele>-166.1999969482421875</ele>
        <time>2025-09-05T15:28:40.000Z</time>
        <extensions>
          <ns3:TrackPointExtension>
            <ns3:hr>177</ns3:hr>
            <ns3:cad>82</ns3:cad>
          </ns3:TrackPointExtension>
        </extensions>
      </trkpt>
      <trkpt lat="52.0802685432136058807373046875" lon="1.4280685968697071075439453125">
        <ele>-165.600006103515625</ele>
        <time>2025-09-05T15:28:42.000Z</time>
        <extensions>
          <ns3:TrackPointExtension>
            <ns3:hr>181</ns3:hr>
            <ns3:cad>82</ns3:cad>
          </ns3:TrackPointExtension>
        </extensions>
      </trkpt>
      <trkpt lat="52.0802967064082622528076171875" lon="1.428149230778217315673828125">
        <ele>-164.399993896484375</ele>
        <time>2025-09-05T15:28:45.000Z</time>
        <extensions>
          <ns3:TrackPointExtension>
            <ns3:hr>181</ns3:hr>
            <ns3:cad>83</ns3:cad>
          </ns3:TrackPointExtension>
        </extensions>
      </trkpt>
      <trkpt lat="52.08031942136585712432861328125" lon="1.428216956555843353271484375">
        <ele>-163.600006103515625</ele>
        <time>2025-09-05T15:28:47.000Z</time>
        <extensions>
          <ns3:TrackPointExtension>
            <ns3:hr>184</ns3:hr>
            <ns3:cad>82</ns3:cad>
          </ns3:TrackPointExtension>
        </extensions>
      </trkpt>
      <trkpt lat="52.08032981492578983306884765625" lon="1.4282462932169437408447265625">
        <ele>-163.1999969482421875</ele>
        <time>2025-09-05T15:28:48.000Z</time>
        <extensions>
          <ns3:TrackPointExtension>
            <ns3:hr>183</ns3:hr>
            <ns3:cad>82</ns3:cad>
          </ns3:TrackPointExtension>
        </extensions>
      </trkpt>
      <trkpt lat="52.080363593995571136474609375" lon="1.428336985409259796142578125">
        <ele>-162</ele>
        <time>2025-09-05T15:28:51.000Z</time>
        <extensions>
          <ns3:TrackPointExtension>
            <ns3:hr>184</ns3:hr>
            <ns3:cad>83</ns3:cad>
          </ns3:TrackPointExtension>
        </extensions>
      </trkpt>
      <trkpt lat="52.080407179892063140869140625" lon="1.42840781249105930328369140625">
        <ele>-160.8000030517578125</ele>
        <time>2025-09-05T15:28:54.000Z</time>
        <extensions>
          <ns3:TrackPointExtension>
            <ns3:hr>183</ns3:hr>
            <ns3:cad>82</ns3:cad>
          </ns3:TrackPointExtension>
        </extensions>
      </trkpt>
      <trkpt lat="52.0804430544376373291015625" lon="1.428452990949153900146484375">
        <ele>-159.8000030517578125</ele>
        <time>2025-09-05T15:28:56.000Z</time>
        <extensions>
          <ns3:TrackPointExtension>
            <ns3:hr>182</ns3:hr>
            <ns3:cad>82</ns3:cad>
          </ns3:TrackPointExtension>
        </extensions>
      </trkpt>
      <trkpt lat="52.08045889623463153839111328125" lon="1.42847788520157337188720703125">
        <ele>-159.399993896484375</ele>
        <time>2025-09-05T15:28:57.000Z</time>
        <extensions>
          <ns3:TrackPointExtension>
            <ns3:hr>181</ns3:hr>
            <ns3:cad>82</ns3:cad>
          </ns3:TrackPointExtension>
        </extensions>
      </trkpt>
      <trkpt lat="52.0805146358907222747802734375" lon="1.428541839122772216796875">
        <ele>-158</ele>
        <time>2025-09-05T15:29:00.000Z</time>
        <extensions>
          <ns3:TrackPointExtension>
            <ns3:hr>181</ns3:hr>
            <ns3:cad>82</ns3:cad>
          </ns3:TrackPointExtension>
        </extensions>
      </trkpt>
      <trkpt lat="52.08056442439556121826171875" lon="1.42861702479422092437744140625">
        <ele>-156.8000030517578125</ele>
        <time>2025-09-05T15:29:03.000Z</time>
        <extensions>
          <ns3:TrackPointExtension>
            <ns3:hr>181</ns3:hr>
            <ns3:cad>83</ns3:cad>
          </ns3:TrackPointExtension>
        </extensions>
      </trkpt>
      <trkpt lat="52.08057490177452564239501953125" lon="1.42863865010440349578857421875">
        <ele>-156.399993896484375</ele>
        <time>2025-09-05T15:29:04.000Z</time>
        <extensions>
          <ns3:TrackPointExtension>
            <ns3:hr>180</ns3:hr>
            <ns3:cad>81</ns3:cad>
          </ns3:TrackPointExtension>
        </extensions>
      </trkpt>
      <trkpt lat="52.0805924199521541595458984375" lon="1.428693719208240509033203125">
        <ele>-155.399993896484375</ele>
        <time>2025-09-05T15:29:06.000Z</time>
        <extensions>
          <ns3:TrackPointExtension>
            <ns3:hr>179</ns3:hr>
            <ns3:cad>81</ns3:cad>
          </ns3:TrackPointExtension>
        </extensions>
      </trkpt>
      <trkpt lat="52.0806202478706836700439453125" lon="1.428774856030941009521484375">
        <ele>-154.1999969482421875</ele>
        <time>2025-09-05T15:29:09.000Z</time>
        <extensions>
          <ns3:TrackPointExtension>
            <ns3:hr>180</ns3:hr>
            <ns3:cad>81</ns3:cad>
          </ns3:TrackPointExtension>
        </extensions>
      </trkpt>
      <trkpt lat="52.08064380101859569549560546875" lon="1.42885054461658000946044921875">
        <ele>-152.8000030517578125</ele>
        <time>2025-09-05T15:29:12.000Z</time>
        <extensions>
          <ns3:TrackPointExtension>
            <ns3:hr>182</ns3:hr>
            <ns3:cad>82</ns3:cad>
          </ns3:TrackPointExtension>
        </extensions>
      </trkpt>
      <trkpt lat="52.0806718803942203521728515625" lon="1.4289118163287639617919921875">
        <ele>-151.600006103515625</ele>
        <time>2025-09-05T15:29:14.000Z</time>
        <extensions>
          <ns3:TrackPointExtension>
            <ns3:hr>182</ns3:hr>
            <ns3:cad>82</ns3:cad>
          </ns3:TrackPointExtension>
        </extensions>
      </trkpt>
      <trkpt lat="52.0806923322379589080810546875" lon="1.4289711602032184600830078125">
        <ele>-150.399993896484375</ele>
        <time>2025-09-05T15:29:16.000Z</time>
        <extensions>
          <ns3:TrackPointExtension>
            <ns3:hr>182</ns3:hr>
            <ns3:cad>82</ns3:cad>
          </ns3:TrackPointExtension>
        </extensions>
      </trkpt>
      <trkpt lat="52.08070884458720684051513671875" lon="1.42903595231473445892333984375">
        <ele>-149.399993896484375</ele>
        <time>2025-09-05T15:29:18.000Z</time>
        <extensions>
          <ns3:TrackPointExtension>
            <ns3:hr>183</ns3:hr>
            <ns3:cad>82</ns3:cad>
          </ns3:TrackPointExtension>
        </extensions>
      </trkpt>
      <trkpt lat="52.0807288773357868194580078125" lon="1.4291076175868511199951171875">
        <ele>-148.1999969482421875</ele>
        <time>2025-09-05T15:29:20.000Z</time>
        <extensions>
          <ns3:TrackPointExtension>
            <ns3:hr>183</ns3:hr>
            <ns3:cad>82</ns3:cad>
          </ns3:TrackPointExtension>
        </extensions>
      </trkpt>
      <trkpt lat="52.0807546935975551605224609375" lon="1.42917551100254058837890625">
        <ele>-147</ele>
        <time>2025-09-05T15:29:22.000Z</time>
        <extensions>
          <ns3:TrackPointExtension>
            <ns3:hr>183</ns3:hr>
            <ns3:cad>82</ns3:cad>
          </ns3:TrackPointExtension>
        </extensions>
      </trkpt>
      <trkpt lat="52.0807731337845325469970703125" lon="1.429246254265308380126953125">
        <ele>-146</ele>
        <time>2025-09-05T15:29:24.000Z</time>
        <extensions>
          <ns3:TrackPointExtension>
            <ns3:hr>182</ns3:hr>
            <ns3:cad>82</ns3:cad>
          </ns3:TrackPointExtension>
        </extensions>
      </trkpt>
      <trkpt lat="52.08078302443027496337890625" lon="1.4292806200683116912841796875">
        <ele>-145.399993896484375</ele>
        <time>2025-09-05T15:29:25.000Z</time>
        <extensions>
          <ns3:TrackPointExtension>
            <ns3:hr>182</ns3:hr>
            <ns3:cad>82</ns3:cad>
          </ns3:TrackPointExtension>
        </extensions>
      </trkpt>
      <trkpt lat="52.08079417236149311065673828125" lon="1.42931624315679073333740234375">
        <ele>-145</ele>
        <time>2025-09-05T15:29:26.000Z</time>
        <extensions>
          <ns3:TrackPointExtension>
            <ns3:hr>182</ns3:hr>
            <ns3:cad>82</ns3:cad>
          </ns3:TrackPointExtension>
        </extensions>
      </trkpt>
      <trkpt lat="52.08081278018653392791748046875" lon="1.42938413657248020172119140625">
        <ele>-143.8000030517578125</ele>
        <time>2025-09-05T15:29:28.000Z</time>
        <extensions>
          <ns3:TrackPointExtension>
            <ns3:hr>185</ns3:hr>
            <ns3:cad>82</ns3:cad>
          </ns3:TrackPointExtension>
        </extensions>
      </trkpt>
      <trkpt lat="52.08084211684763431549072265625" lon="1.4294566400349140167236328125">
        <ele>-142.8000030517578125</ele>
        <time>2025-09-05T15:29:30.000Z</time>
        <extensions>
          <ns3:TrackPointExtension>
            <ns3:hr>184</ns3:hr>
            <ns3:cad>82</ns3:cad>
          </ns3:TrackPointExtension>
        </extensions>
      </trkpt>
      <trkpt lat="52.0808639936149120330810546875" lon="1.42952528782188892364501953125">
        <ele>-141.600006103515625</ele>
        <time>2025-09-05T15:29:32.000Z</time>
        <extensions>
          <ns3:TrackPointExtension>
            <ns3:hr>183</ns3:hr>
            <ns3:cad>82</ns3:cad>
          </ns3:TrackPointExtension>
        </extensions>
      </trkpt>
      <trkpt lat="52.080873548984527587890625" lon="1.42956309020519256591796875">
        <ele>-141.1999969482421875</ele>
        <time>2025-09-05T15:29:33.000Z</time>
        <extensions>
          <ns3:TrackPointExtension>
            <ns3:hr>184</ns3:hr>
            <ns3:cad>82</ns3:cad>
          </ns3:TrackPointExtension>
        </extensions>
      </trkpt>
      <trkpt lat="52.08088536746799945831298828125" lon="1.4295974560081958770751953125">
        <ele>-140.600006103515625</ele>
        <time>2025-09-05T15:29:34.000Z</time>
        <extensions>
          <ns3:TrackPointExtension>
            <ns3:hr>185</ns3:hr>
            <ns3:cad>82</ns3:cad>
          </ns3:TrackPointExtension>
        </extensions>
      </trkpt>
      <trkpt lat="52.08091445267200469970703125" lon="1.42967482097446918487548828125">
        <ele>-139.600006103515625</ele>
        <time>2025-09-05T15:29:36.000Z</time>
        <extensions>
          <ns3:TrackPointExtension>
            <ns3:hr>185</ns3:hr>
            <ns3:cad>82</ns3:cad>
          </ns3:TrackPointExtension>
        </extensions>
      </trkpt>
      <trkpt lat="52.0809290371835231781005859375" lon="1.42974774353206157684326171875">
        <ele>-138.600006103515625</ele>
        <time>2025-09-05T15:29:38.000Z</time>
        <extensions>
          <ns3:TrackPointExtension>
            <ns3:hr>183</ns3:hr>
            <ns3:cad>81</ns3:cad>
          </ns3:TrackPointExtension>
        </extensions>
      </trkpt>
      <trkpt lat="52.08092995919287204742431640625" lon="1.429786384105682373046875">
        <ele>-138.1999969482421875</ele>
        <time>2025-09-05T15:29:39.000Z</time>
        <extensions>
          <ns3:TrackPointExtension>
            <ns3:hr>184</ns3:hr>
            <ns3:cad>81</ns3:cad>
          </ns3:TrackPointExtension>
        </extensions>
      </trkpt>
      <trkpt lat="52.0809347368776798248291015625" lon="1.42986324615776538848876953125">
        <ele>-137.1999969482421875</ele>
        <time>2025-09-05T15:29:41.000Z</time>
        <extensions>
          <ns3:TrackPointExtension>
            <ns3:hr>182</ns3:hr>
            <ns3:cad>81</ns3:cad>
          </ns3:TrackPointExtension>
        </extensions>
      </trkpt>
      <trkpt lat="52.080948315560817718505859375" lon="1.42996684648096561431884765625">
        <ele>-135.600006103515625</ele>
        <time>2025-09-05T15:29:44.000Z</time>
        <extensions>
          <ns3:TrackPointExtension>
            <ns3:hr>182</ns3:hr>
            <ns3:cad>81</ns3:cad>
          </ns3:TrackPointExtension>
        </extensions>
      </trkpt>
      <trkpt lat="52.0809793286025524139404296875" lon="1.4300618134438991546630859375">
        <ele>-134.1999969482421875</ele>
        <time>2025-09-05T15:29:47.000Z</time>
        <extensions>
          <ns3:TrackPointExtension>
            <ns3:hr>182</ns3:hr>
            <ns3:cad>81</ns3:cad>
          </ns3:TrackPointExtension>
        </extensions>
      </trkpt>
      <trkpt lat="52.08099357783794403076171875" lon="1.43012844957411289215087890625">
        <ele>-133.399993896484375</ele>
        <time>2025-09-05T15:29:49.000Z</time>
        <extensions>
          <ns3:TrackPointExtension>
            <ns3:hr>185</ns3:hr>
            <ns3:cad>82</ns3:cad>
          </ns3:TrackPointExtension>
        </extensions>
      </trkpt>
      <trkpt lat="52.080995254218578338623046875" lon="1.43016482703387737274169921875">
        <ele>-132.8000030517578125</ele>
        <time>2025-09-05T15:29:50.000Z</time>
        <extensions>
          <ns3:TrackPointExtension>
            <ns3:hr>184</ns3:hr>
            <ns3:cad>82</ns3:cad>
          </ns3:TrackPointExtension>
        </extensions>
      </trkpt>
      <trkpt lat="52.08100724034011363983154296875" lon="1.43028921447694301605224609375">
        <ele>-131.600006103515625</ele>
        <time>2025-09-05T15:29:53.000Z</time>
        <extensions>
          <ns3:TrackPointExtension>
            <ns3:hr>186</ns3:hr>
            <ns3:cad>81</ns3:cad>
          </ns3:TrackPointExtension>
        </extensions>
      </trkpt>
      <trkpt lat="52.08101880736649036407470703125" lon="1.43033095635473728179931640625">
        <ele>-131.1999969482421875</ele>
        <time>2025-09-05T15:29:54.000Z</time>
        <extensions>
          <ns3:TrackPointExtension>
            <ns3:hr>186</ns3:hr>
            <ns3:cad>82</ns3:cad>
          </ns3:TrackPointExtension>
        </extensions>
      </trkpt>
      <trkpt lat="52.08103490062057971954345703125" lon="1.43040002323687076568603515625">
        <ele>-130.1999969482421875</ele>
        <time>2025-09-05T15:29:56.000Z</time>
        <extensions>
          <ns3:TrackPointExtension>
            <ns3:hr>186</ns3:hr>
            <ns3:cad>82</ns3:cad>
          </ns3:TrackPointExtension>
        </extensions>
      </trkpt>
      <trkpt lat="52.08103892393410205841064453125" lon="1.4305151067674160003662109375">
        <ele>-129</ele>
        <time>2025-09-05T15:29:59.000Z</time>
        <extensions>
          <ns3:TrackPointExtension>
            <ns3:hr>186</ns3:hr>
            <ns3:cad>82</ns3:cad>
          </ns3:TrackPointExtension>
        </extensions>
      </trkpt>
      <trkpt lat="52.08104127086699008941650390625" lon="1.43055123277008533477783203125">
        <ele>-128.600006103515625</ele>
        <time>2025-09-05T15:30:00.000Z</time>
        <extensions>
          <ns3:TrackPointExtension>
            <ns3:hr>186</ns3:hr>
            <ns3:cad>82</ns3:cad>
          </ns3:TrackPointExtension>
        </extensions>
      </trkpt>
      <trkpt lat="52.08104177378118038177490234375" lon="1.43062122166156768798828125">
        <ele>-127.8000030517578125</ele>
        <time>2025-09-05T15:30:02.000Z</time>
        <extensions>
          <ns3:TrackPointExtension>
            <ns3:hr>187</ns3:hr>
            <ns3:cad>81</ns3:cad>
          </ns3:TrackPointExtension>
        </extensions>
      </trkpt>
      <trkpt lat="52.08104579709470272064208984375" lon="1.4307102374732494354248046875">
        <ele>-126.8000030517578125</ele>
        <time>2025-09-05T15:30:05.000Z</time>
        <extensions>
          <ns3:TrackPointExtension>
            <ns3:hr>186</ns3:hr>
            <ns3:cad>81</ns3:cad>
          </ns3:TrackPointExtension>
        </extensions>
      </trkpt>
      <trkpt lat="52.08105853758752346038818359375" lon="1.4307774603366851806640625">
        <ele>-125.59999847412109375</ele>
        <time>2025-09-05T15:30:08.000Z</time>
        <extensions>
          <ns3:TrackPointExtension>
            <ns3:hr>185</ns3:hr>
            <ns3:cad>81</ns3:cad>
          </ns3:TrackPointExtension>
        </extensions>
      </trkpt>
      <trkpt lat="52.0810614712536334991455078125" lon="1.43080419860780239105224609375">
        <ele>-125.1999969482421875</ele>
        <time>2025-09-05T15:30:09.000Z</time>
        <extensions>
          <ns3:TrackPointExtension>
            <ns3:hr>185</ns3:hr>
            <ns3:cad>81</ns3:cad>
          </ns3:TrackPointExtension>
        </extensions>
      </trkpt>
      <trkpt lat="52.081065662205219268798828125" lon="1.4308591000735759735107421875">
        <ele>-124.40000152587890625</ele>
        <time>2025-09-05T15:30:11.000Z</time>
        <extensions>
          <ns3:TrackPointExtension>
            <ns3:hr>185</ns3:hr>
            <ns3:cad>82</ns3:cad>
          </ns3:TrackPointExtension>
        </extensions>
      </trkpt>
      <trkpt lat="52.08107094280421733856201171875" lon="1.43097183667123317718505859375">
        <ele>-123.1999969482421875</ele>
        <time>2025-09-05T15:30:14.000Z</time>
        <extensions>
          <ns3:TrackPointExtension>
            <ns3:hr>184</ns3:hr>
            <ns3:cad>82</ns3:cad>
          </ns3:TrackPointExtension>
        </extensions>
      </trkpt>
      <trkpt lat="52.08107178099453449249267578125" lon="1.431036293506622314453125">
        <ele>-122.59999847412109375</ele>
        <time>2025-09-05T15:30:16.000Z</time>
        <extensions>
          <ns3:TrackPointExtension>
            <ns3:hr>184</ns3:hr>
            <ns3:cad>82</ns3:cad>
          </ns3:TrackPointExtension>
        </extensions>
      </trkpt>
      <trkpt lat="52.08107295446097850799560546875" lon="1.43106521107256412506103515625">
        <ele>-122.1999969482421875</ele>
        <time>2025-09-05T15:30:17.000Z</time>
        <extensions>
          <ns3:TrackPointExtension>
            <ns3:hr>185</ns3:hr>
            <ns3:cad>82</ns3:cad>
          </ns3:TrackPointExtension>
        </extensions>
      </trkpt>
      <trkpt lat="52.081083767116069793701171875" lon="1.43113897182047367095947265625">
        <ele>-121</ele>
        <time>2025-09-05T15:30:20.000Z</time>
        <extensions>
          <ns3:TrackPointExtension>
            <ns3:hr>185</ns3:hr>
            <ns3:cad>82</ns3:cad>
          </ns3:TrackPointExtension>
        </extensions>
      </trkpt>
      <trkpt lat="52.081093490123748779296875" lon="1.43120518885552883148193359375">
        <ele>-120</ele>
        <time>2025-09-05T15:30:23.000Z</time>
        <extensions>
          <ns3:TrackPointExtension>
            <ns3:hr>184</ns3:hr>
            <ns3:cad>82</ns3:cad>
          </ns3:TrackPointExtension>
        </extensions>
      </trkpt>
      <trkpt lat="52.08109550178050994873046875" lon="1.43125112168490886688232421875">
        <ele>-119.40000152587890625</ele>
        <time>2025-09-05T15:30:25.000Z</time>
        <extensions>
          <ns3:TrackPointExtension>
            <ns3:hr>185</ns3:hr>
            <ns3:cad>82</ns3:cad>
          </ns3:TrackPointExtension>
        </extensions>
      </trkpt>
      <trkpt lat="52.081092484295368194580078125" lon="1.43129319883882999420166015625">
        <ele>-118.59999847412109375</ele>
        <time>2025-09-05T15:30:27.000Z</time>
        <extensions>
          <ns3:TrackPointExtension>
            <ns3:hr>185</ns3:hr>
            <ns3:cad>82</ns3:cad>
          </ns3:TrackPointExtension>
        </extensions>
      </trkpt>
      <trkpt lat="52.08108955062925815582275390625" lon="1.43144323490560054779052734375">
        <ele>-117.40000152587890625</ele>
        <time>2025-09-05T15:30:31.000Z</time>
        <extensions>
          <ns3:TrackPointExtension>
            <ns3:hr>184</ns3:hr>
            <ns3:cad>81</ns3:cad>
          </ns3:TrackPointExtension>
        </extensions>
      </trkpt>
      <trkpt lat="52.0810886286199092864990234375" lon="1.43151833675801753997802734375">
        <ele>-116.8000030517578125</ele>
        <time>2025-09-05T15:30:33.000Z</time>
        <extensions>
          <ns3:TrackPointExtension>
            <ns3:hr>184</ns3:hr>
            <ns3:cad>81</ns3:cad>
          </ns3:TrackPointExtension>
        </extensions>
      </trkpt>
      <trkpt lat="52.08109952509403228759765625" lon="1.431578099727630615234375">
        <ele>-116.1999969482421875</ele>
        <time>2025-09-05T15:30:35.000Z</time>
        <extensions>
          <ns3:TrackPointExtension>
            <ns3:hr>184</ns3:hr>
            <ns3:cad>81</ns3:cad>
          </ns3:TrackPointExtension>
        </extensions>
      </trkpt>
      <trkpt lat="52.08112492226064205169677734375" lon="1.4317029900848865509033203125">
        <ele>-115.1999969482421875</ele>
        <time>2025-09-05T15:30:39.000Z</time>
        <extensions>
          <ns3:TrackPointExtension>
            <ns3:hr>183</ns3:hr>
            <ns3:cad>81</ns3:cad>
          </ns3:TrackPointExtension>
        </extensions>
      </trkpt>
      <trkpt lat="52.08114939741790294647216796875" lon="1.4318324066698551177978515625">
        <ele>-114</ele>
        <time>2025-09-05T15:30:43.000Z</time>
        <extensions>
          <ns3:TrackPointExtension>
            <ns3:hr>183</ns3:hr>
            <ns3:cad>81</ns3:cad>
          </ns3:TrackPointExtension>
        </extensions>
      </trkpt>
      <trkpt lat="52.08116951398551464080810546875" lon="1.43198235891759395599365234375">
        <ele>-113</ele>
        <time>2025-09-05T15:30:48.000Z</time>
        <extensions>
          <ns3:TrackPointExtension>
            <ns3:hr>181</ns3:hr>
            <ns3:cad>81</ns3:cad>
          </ns3:TrackPointExtension>
        </extensions>
      </trkpt>
      <trkpt lat="52.08117253147065639495849609375" lon="1.432010941207408905029296875">
        <ele>-112.40000152587890625</ele>
        <time>2025-09-05T15:30:50.000Z</time>
        <extensions>
          <ns3:TrackPointExtension>
            <ns3:hr>180</ns3:hr>
            <ns3:cad>81</ns3:cad>
          </ns3:TrackPointExtension>
        </extensions>
      </trkpt>
      <trkpt lat="52.08118761889636516571044921875" lon="1.43201052211225032806396484375">
        <ele>-111.8000030517578125</ele>
        <time>2025-09-05T15:30:53.000Z</time>
        <extensions>
          <ns3:TrackPointExtension>
            <ns3:hr>181</ns3:hr>
            <ns3:cad>57</ns3:cad>
          </ns3:TrackPointExtension>
        </extensions>
      </trkpt>
      <trkpt lat="52.08123053424060344696044921875" lon="1.432013623416423797607421875">
        <ele>-111.1999969482421875</ele>
        <time>2025-09-05T15:30:57.000Z</time>
        <extensions>
          <ns3:TrackPointExtension>
            <ns3:hr>181</ns3:hr>
            <ns3:cad>60</ns3:cad>
          </ns3:TrackPointExtension>
        </extensions>
      </trkpt>
      <trkpt lat="52.08124159835278987884521484375" lon="1.432018317282199859619140625">
        <ele>-111.1999969482421875</ele>
        <time>2025-09-05T15:30:58.000Z</time>
        <extensions>
          <ns3:TrackPointExtension>
            <ns3:hr>182</ns3:hr>
            <ns3:cad>60</ns3:cad>
          </ns3:TrackPointExtension>
        </extensions>
      </trkpt>
      <trkpt lat="52.08125383593142032623291015625" lon="1.43203030340373516082763671875">
        <ele>-111</ele>
        <time>2025-09-05T15:31:00.000Z</time>
        <extensions>
          <ns3:TrackPointExtension>
            <ns3:hr>178</ns3:hr>
            <ns3:cad>60</ns3:cad>
          </ns3:TrackPointExtension>
        </extensions>
      </trkpt>
      <trkpt lat="52.08126422949135303497314453125" lon="1.432031728327274322509765625">
        <ele>-110.8000030517578125</ele>
        <time>2025-09-05T15:31:02.000Z</time>
        <extensions>
          <ns3:TrackPointExtension>
            <ns3:hr>178</ns3:hr>
            <ns3:cad>61</ns3:cad>
          </ns3:TrackPointExtension>
        </extensions>
      </trkpt>
      <trkpt lat="52.081294991075992584228515625" lon="1.43203533254563808441162109375">
        <ele>-110.8000030517578125</ele>
        <time>2025-09-05T15:31:05.000Z</time>
        <extensions>
          <ns3:TrackPointExtension>
            <ns3:hr>175</ns3:hr>
            <ns3:cad>59</ns3:cad>
          </ns3:TrackPointExtension>
        </extensions>
      </trkpt>
      <trkpt lat="52.08132843486964702606201171875" lon="1.43203365616500377655029296875">
        <ele>-110.8000030517578125</ele>
        <time>2025-09-05T15:31:08.000Z</time>
        <extensions>
          <ns3:TrackPointExtension>
            <ns3:hr>173</ns3:hr>
            <ns3:cad>61</ns3:cad>
          </ns3:TrackPointExtension>
        </extensions>
      </trkpt>
      <trkpt lat="52.0813534967601299285888671875" lon="1.43204639665782451629638671875">
        <ele>-110.8000030517578125</ele>
        <time>2025-09-05T15:31:11.000Z</time>
        <extensions>
          <ns3:TrackPointExtension>
            <ns3:hr>170</ns3:hr>
            <ns3:cad>60</ns3:cad>
          </ns3:TrackPointExtension>
        </extensions>
      </trkpt>
      <trkpt lat="52.08139331080019474029541015625" lon="1.43199543468654155731201171875">
        <ele>-111.1999969482421875</ele>
        <time>2025-09-05T15:31:15.000Z</time>
        <extensions>
          <ns3:TrackPointExtension>
            <ns3:hr>168</ns3:hr>
            <ns3:cad>60</ns3:cad>
          </ns3:TrackPointExtension>
        </extensions>
      </trkpt>
      <trkpt lat="52.081433124840259552001953125" lon="1.43196090124547481536865234375">
        <ele>-111.40000152587890625</ele>
        <time>2025-09-05T15:31:18.000Z</time>
        <extensions>
          <ns3:TrackPointExtension>
            <ns3:hr>165</ns3:hr>
            <ns3:cad>60</ns3:cad>
          </ns3:TrackPointExtension>
        </extensions>
      </trkpt>
      <trkpt lat="52.08149841986596584320068359375" lon="1.431968696415424346923828125">
        <ele>-111.8000030517578125</ele>
        <time>2025-09-05T15:31:21.000Z</time>
        <extensions>
          <ns3:TrackPointExtension>
            <ns3:hr>165</ns3:hr>
            <ns3:cad>60</ns3:cad>
          </ns3:TrackPointExtension>
        </extensions>
      </trkpt>
      <trkpt lat="52.08150856196880340576171875" lon="1.431964337825775146484375">
        <ele>-112</ele>
        <time>2025-09-05T15:31:22.000Z</time>
        <extensions>
          <ns3:TrackPointExtension>
            <ns3:hr>163</ns3:hr>
            <ns3:cad>80</ns3:cad>
          </ns3:TrackPointExtension>
        </extensions>
      </trkpt>
      <trkpt lat="52.0816515572369098663330078125" lon="1.431964002549648284912109375">
        <ele>-112.40000152587890625</ele>
        <time>2025-09-05T15:31:27.000Z</time>
        <extensions>
          <ns3:TrackPointExtension>
            <ns3:hr>161</ns3:hr>
            <ns3:cad>81</ns3:cad>
          </ns3:TrackPointExtension>
        </extensions>
      </trkpt>
      <trkpt lat="52.0817251503467559814453125" lon="1.4319765754044055938720703125">
        <ele>-112.59999847412109375</ele>
        <time>2025-09-05T15:31:30.000Z</time>
        <extensions>
          <ns3:TrackPointExtension>
            <ns3:hr>165</ns3:hr>
            <ns3:cad>82</ns3:cad>
          </ns3:TrackPointExtension>
        </extensions>
      </trkpt>
      <trkpt lat="52.0817665569484233856201171875" lon="1.43196995370090007781982421875">
        <ele>-112.59999847412109375</ele>
        <time>2025-09-05T15:31:32.000Z</time>
        <extensions>
          <ns3:TrackPointExtension>
            <ns3:hr>170</ns3:hr>
            <ns3:cad>83</ns3:cad>
          </ns3:TrackPointExtension>
        </extensions>
      </trkpt>
      <trkpt lat="52.08179145120084285736083984375" lon="1.43195151351392269134521484375">
        <ele>-112.59999847412109375</ele>
        <time>2025-09-05T15:31:34.000Z</time>
        <extensions>
          <ns3:TrackPointExtension>
            <ns3:hr>174</ns3:hr>
            <ns3:cad>83</ns3:cad>
          </ns3:TrackPointExtension>
        </extensions>
      </trkpt>
      <trkpt lat="52.08181693218648433685302734375" lon="1.43194313161075115203857421875">
        <ele>-112.8000030517578125</ele>
        <time>2025-09-05T15:31:36.000Z</time>
        <extensions>
          <ns3:TrackPointExtension>
            <ns3:hr>177</ns3:hr>
            <ns3:cad>82</ns3:cad>
          </ns3:TrackPointExtension>
        </extensions>
      </trkpt>
      <trkpt lat="52.08192790858447551727294921875" lon="1.43191077746450901031494140625">
        <ele>-112.59999847412109375</ele>
        <time>2025-09-05T15:31:44.000Z</time>
        <extensions>
          <ns3:TrackPointExtension>
            <ns3:hr>179</ns3:hr>
            <ns3:cad>81</ns3:cad>
          </ns3:TrackPointExtension>
        </extensions>
      </trkpt>
      <trkpt lat="52.08194366656243801116943359375" lon="1.431910693645477294921875">
        <ele>-112.59999847412109375</ele>
        <time>2025-09-05T15:31:45.000Z</time>
        <extensions>
          <ns3:TrackPointExtension>
            <ns3:hr>183</ns3:hr>
            <ns3:cad>81</ns3:cad>
          </ns3:TrackPointExtension>
        </extensions>
      </trkpt>
      <trkpt lat="52.08210778422653675079345703125" lon="1.43185813911259174346923828125">
        <ele>-112.1999969482421875</ele>
        <time>2025-09-05T15:31:55.000Z</time>
        <extensions>
          <ns3:TrackPointExtension>
            <ns3:hr>185</ns3:hr>
            <ns3:cad>81</ns3:cad>
          </ns3:TrackPointExtension>
        </extensions>
      </trkpt>
      <trkpt lat="52.08228372037410736083984375" lon="1.431823186576366424560546875">
        <ele>-111.8000030517578125</ele>
        <time>2025-09-05T15:32:02.000Z</time>
        <extensions>
          <ns3:TrackPointExtension>
            <ns3:hr>184</ns3:hr>
            <ns3:cad>80</ns3:cad>
          </ns3:TrackPointExtension>
        </extensions>
      </trkpt>
      <trkpt lat="52.082418836653232574462890625" lon="1.4318045787513256072998046875">
        <ele>-111.40000152587890625</ele>
        <time>2025-09-05T15:32:08.000Z</time>
        <extensions>
          <ns3:TrackPointExtension>
            <ns3:hr>187</ns3:hr>
            <ns3:cad>82</ns3:cad>
          </ns3:TrackPointExtension>
        </extensions>
      </trkpt>
      <trkpt lat="52.082466445863246917724609375" lon="1.4318069256842136383056640625">
        <ele>-111.1999969482421875</ele>
        <time>2025-09-05T15:32:11.000Z</time>
        <extensions>
          <ns3:TrackPointExtension>
            <ns3:hr>186</ns3:hr>
            <ns3:cad>82</ns3:cad>
          </ns3:TrackPointExtension>
        </extensions>
      </trkpt>
      <trkpt lat="52.0825138874351978302001953125" lon="1.4318020641803741455078125">
        <ele>-110.8000030517578125</ele>
        <time>2025-09-05T15:32:15.000Z</time>
        <extensions>
          <ns3:TrackPointExtension>
            <ns3:hr>185</ns3:hr>
            <ns3:cad>81</ns3:cad>
          </ns3:TrackPointExtension>
        </extensions>
      </trkpt>
      <trkpt lat="52.0826292224228382110595703125" lon="1.431781612336635589599609375">
        <ele>-110.1999969482421875</ele>
        <time>2025-09-05T15:32:22.000Z</time>
        <extensions>
          <ns3:TrackPointExtension>
            <ns3:hr>186</ns3:hr>
            <ns3:cad>81</ns3:cad>
          </ns3:TrackPointExtension>
        </extensions>
      </trkpt>
      <trkpt lat="52.08271781913936138153076171875" lon="1.43177432008087635040283203125">
        <ele>-109.8000030517578125</ele>
        <time>2025-09-05T15:32:26.000Z</time>
        <extensions>
          <ns3:TrackPointExtension>
            <ns3:hr>186</ns3:hr>
            <ns3:cad>82</ns3:cad>
          </ns3:TrackPointExtension>
        </extensions>
      </trkpt>
      <trkpt lat="52.0827948488295078277587890625" lon="1.43175034783780574798583984375">
        <ele>-109.40000152587890625</ele>
        <time>2025-09-05T15:32:30.000Z</time>
        <extensions>
          <ns3:TrackPointExtension>
            <ns3:hr>186</ns3:hr>
            <ns3:cad>82</ns3:cad>
          </ns3:TrackPointExtension>
        </extensions>
      </trkpt>
      <trkpt lat="52.08283667452633380889892578125" lon="1.43170659430325031280517578125">
        <ele>-109</ele>
        <time>2025-09-05T15:32:33.000Z</time>
        <extensions>
          <ns3:TrackPointExtension>
            <ns3:hr>189</ns3:hr>
            <ns3:cad>82</ns3:cad>
          </ns3:TrackPointExtension>
        </extensions>
      </trkpt>
      <trkpt lat="52.08286701701581478118896484375" lon="1.4316786825656890869140625">
        <ele>-108.8000030517578125</ele>
        <time>2025-09-05T15:32:35.000Z</time>
        <extensions>
          <ns3:TrackPointExtension>
            <ns3:hr>187</ns3:hr>
            <ns3:cad>82</ns3:cad>
          </ns3:TrackPointExtension>
        </extensions>
      </trkpt>
      <trkpt lat="52.0828813500702381134033203125" lon="1.4316791854798793792724609375">
        <ele>-108.8000030517578125</ele>
        <time>2025-09-05T15:32:36.000Z</time>
        <extensions>
          <ns3:TrackPointExtension>
            <ns3:hr>188</ns3:hr>
            <ns3:cad>82</ns3:cad>
          </ns3:TrackPointExtension>
        </extensions>
      </trkpt>
      <trkpt lat="52.08289937116205692291259765625" lon="1.43168069422245025634765625">
        <ele>-108.59999847412109375</ele>
        <time>2025-09-05T15:32:37.000Z</time>
        <extensions>
          <ns3:TrackPointExtension>
            <ns3:hr>187</ns3:hr>
            <ns3:cad>82</ns3:cad>
          </ns3:TrackPointExtension>
        </extensions>
      </trkpt>
      <trkpt lat="52.08294480107724666595458984375" lon="1.43177733756601810455322265625">
        <ele>-108.1999969482421875</ele>
        <time>2025-09-05T15:32:44.000Z</time>
        <extensions>
          <ns3:TrackPointExtension>
            <ns3:hr>186</ns3:hr>
            <ns3:cad>0</ns3:cad>
          </ns3:TrackPointExtension>
        </extensions>
      </trkpt>
      <trkpt lat="52.08294832147657871246337890625" lon="1.4317851327359676361083984375">
        <ele>-108.1999969482421875</ele>
        <time>2025-09-05T15:32:45.000Z</time>
        <extensions>
          <ns3:TrackPointExtension>
            <ns3:hr>187</ns3:hr>
            <ns3:cad>0</ns3:cad>
          </ns3:TrackPointExtension>
        </extensions>
      </trkpt>
      <trkpt lat="52.0829737186431884765625" lon="1.43179208971560001373291015625">
        <ele>-108.1999969482421875</ele>
        <time>2025-09-05T15:32:48.000Z</time>
        <extensions>
          <ns3:TrackPointExtension>
            <ns3:hr>184</ns3:hr>
            <ns3:cad>0</ns3:cad>
          </ns3:TrackPointExtension>
        </extensions>
      </trkpt>
      <trkpt lat="52.0830214954912662506103515625" lon="1.431785635650157928466796875">
        <ele>-108.40000152587890625</ele>
        <time>2025-09-05T15:32:52.000Z</time>
        <extensions>
          <ns3:TrackPointExtension>
            <ns3:hr>180</ns3:hr>
            <ns3:cad>0</ns3:cad>
          </ns3:TrackPointExtension>
        </extensions>
      </trkpt>
      <trkpt lat="52.08302727900445461273193359375" lon="1.43178789876401424407958984375">
        <ele>-108.59999847412109375</ele>
        <time>2025-09-05T15:32:53.000Z</time>
        <extensions>
          <ns3:TrackPointExtension>
            <ns3:hr>179</ns3:hr>
            <ns3:cad>0</ns3:cad>
          </ns3:TrackPointExtension>
        </extensions>
      </trkpt>
      <trkpt lat="52.08304102532565593719482421875" lon="1.43178706057369709014892578125">
        <ele>-109.40000152587890625</ele>
        <time>2025-09-05T15:32:57.000Z</time>
        <extensions>
          <ns3:TrackPointExtension>
            <ns3:hr>176</ns3:hr>
            <ns3:cad>0</ns3:cad>
          </ns3:TrackPointExtension>
        </extensions>
      </trkpt>
      <trkpt lat="52.08304278552532196044921875" lon="1.431784294545650482177734375">
        <ele>-109.8000030517578125</ele>
        <time>2025-09-05T15:32:59.000Z</time>
        <extensions>
          <ns3:TrackPointExtension>
            <ns3:hr>176</ns3:hr>
            <ns3:cad>0</ns3:cad>
          </ns3:TrackPointExtension>
        </extensions>
      </trkpt>
      <trkpt lat="52.0830489881336688995361328125" lon="1.431788317859172821044921875">
        <ele>-110.59999847412109375</ele>
        <time>2025-09-05T15:33:03.000Z</time>
        <extensions>
          <ns3:TrackPointExtension>
            <ns3:hr>174</ns3:hr>
            <ns3:cad>0</ns3:cad>
          </ns3:TrackPointExtension>
        </extensions>
      </trkpt>
      <trkpt lat="52.08304873667657375335693359375" lon="1.4317958615720272064208984375">
        <ele>-110.8000030517578125</ele>
        <time>2025-09-05T15:33:04.000Z</time>
        <extensions>
          <ns3:TrackPointExtension>
            <ns3:hr>174</ns3:hr>
            <ns3:cad>0</ns3:cad>
          </ns3:TrackPointExtension>
        </extensions>
      </trkpt>
      <trkpt lat="52.08305460400879383087158203125" lon="1.43182553350925445556640625">
        <ele>-111.40000152587890625</ele>
        <time>2025-09-05T15:33:07.000Z</time>
        <extensions>
          <ns3:TrackPointExtension>
            <ns3:hr>171</ns3:hr>
            <ns3:cad>57</ns3:cad>
          </ns3:TrackPointExtension>
        </extensions>
      </trkpt>
      <trkpt lat="52.083055190742015838623046875" lon="1.4318441413342952728271484375">
        <ele>-111.8000030517578125</ele>
        <time>2025-09-05T15:33:09.000Z</time>
        <extensions>
          <ns3:TrackPointExtension>
            <ns3:hr>168</ns3:hr>
            <ns3:cad>57</ns3:cad>
          </ns3:TrackPointExtension>
        </extensions>
      </trkpt>
      <trkpt lat="52.08307220600545406341552734375" lon="1.431865431368350982666015625">
        <ele>-112</ele>
        <time>2025-09-05T15:33:10.000Z</time>
        <extensions>
          <ns3:TrackPointExtension>
            <ns3:hr>169</ns3:hr>
            <ns3:cad>58</ns3:cad>
          </ns3:TrackPointExtension>
        </extensions>
      </trkpt>
      <trkpt lat="52.083078324794769287109375" lon="1.431881524622440338134765625">
        <ele>-112.40000152587890625</ele>
        <time>2025-09-05T15:33:12.000Z</time>
        <extensions>
          <ns3:TrackPointExtension>
            <ns3:hr>168</ns3:hr>
            <ns3:cad>58</ns3:cad>
          </ns3:TrackPointExtension>
        </extensions>
      </trkpt>
      <trkpt lat="52.0831096731126308441162109375" lon="1.43192787654697895050048828125">
        <ele>-113.1999969482421875</ele>
        <time>2025-09-05T15:33:17.000Z</time>
        <extensions>
          <ns3:TrackPointExtension>
            <ns3:hr>166</ns3:hr>
            <ns3:cad>60</ns3:cad>
          </ns3:TrackPointExtension>
        </extensions>
      </trkpt>
      <trkpt lat="52.0831961743533611297607421875" lon="1.432002894580364227294921875">
        <ele>-113.59999847412109375</ele>
        <time>2025-09-05T15:33:20.000Z</time>
        <extensions>
          <ns3:TrackPointExtension>
            <ns3:hr>166</ns3:hr>
            <ns3:cad>59</ns3:cad>
          </ns3:TrackPointExtension>
        </extensions>
      </trkpt>
      <trkpt lat="52.08323213271796703338623046875" lon="1.43204170279204845428466796875">
        <ele>-114</ele>
        <time>2025-09-05T15:33:22.000Z</time>
        <extensions>
          <ns3:TrackPointExtension>
            <ns3:hr>165</ns3:hr>
            <ns3:cad>60</ns3:cad>
          </ns3:TrackPointExtension>
        </extensions>
      </trkpt>
      <trkpt lat="52.0832514949142932891845703125" lon="1.4320560358464717864990234375">
        <ele>-114.1999969482421875</ele>
        <time>2025-09-05T15:33:23.000Z</time>
        <extensions>
          <ns3:TrackPointExtension>
            <ns3:hr>166</ns3:hr>
            <ns3:cad>60</ns3:cad>
          </ns3:TrackPointExtension>
        </extensions>
      </trkpt>
      <trkpt lat="52.08326800726354122161865234375" lon="1.43207372166216373443603515625">
        <ele>-114.40000152587890625</ele>
        <time>2025-09-05T15:33:24.000Z</time>
        <extensions>
          <ns3:TrackPointExtension>
            <ns3:hr>162</ns3:hr>
            <ns3:cad>60</ns3:cad>
          </ns3:TrackPointExtension>
        </extensions>
      </trkpt>
      <trkpt lat="52.08326767198741436004638671875" lon="1.43214094452559947967529296875">
        <ele>-115.1999969482421875</ele>
        <time>2025-09-05T15:33:28.000Z</time>
        <extensions>
          <ns3:TrackPointExtension>
            <ns3:hr>162</ns3:hr>
            <ns3:cad>61</ns3:cad>
          </ns3:TrackPointExtension>
        </extensions>
      </trkpt>
      <trkpt lat="52.08325493149459362030029296875" lon="1.4321894757449626922607421875">
        <ele>-115.8000030517578125</ele>
        <time>2025-09-05T15:33:30.000Z</time>
        <extensions>
          <ns3:TrackPointExtension>
            <ns3:hr>162</ns3:hr>
            <ns3:cad>61</ns3:cad>
          </ns3:TrackPointExtension>
        </extensions>
      </trkpt>
      <trkpt lat="52.0832578651607036590576171875" lon="1.43226751126348972320556640625">
        <ele>-116.40000152587890625</ele>
        <time>2025-09-05T15:33:33.000Z</time>
        <extensions>
          <ns3:TrackPointExtension>
            <ns3:hr>161</ns3:hr>
            <ns3:cad>60</ns3:cad>
          </ns3:TrackPointExtension>
        </extensions>
      </trkpt>
      <trkpt lat="52.0833601243793964385986328125" lon="1.43239290453493595123291015625">
        <ele>-117.40000152587890625</ele>
        <time>2025-09-05T15:33:38.000Z</time>
        <extensions>
          <ns3:TrackPointExtension>
            <ns3:hr>160</ns3:hr>
            <ns3:cad>62</ns3:cad>
          </ns3:TrackPointExtension>
        </extensions>
      </trkpt>
      <trkpt lat="52.08337604999542236328125" lon="1.4324174635112285614013671875">
        <ele>-117.8000030517578125</ele>
        <time>2025-09-05T15:33:39.000Z</time>
        <extensions>
          <ns3:TrackPointExtension>
            <ns3:hr>160</ns3:hr>
            <ns3:cad>62</ns3:cad>
          </ns3:TrackPointExtension>
        </extensions>
      </trkpt>
      <trkpt lat="52.0834010280668735504150390625" lon="1.432511508464813232421875">
        <ele>-118.59999847412109375</ele>
        <time>2025-09-05T15:33:43.000Z</time>
        <extensions>
          <ns3:TrackPointExtension>
            <ns3:hr>159</ns3:hr>
            <ns3:cad>60</ns3:cad>
          </ns3:TrackPointExtension>
        </extensions>
      </trkpt>
      <trkpt lat="52.08342089317739009857177734375" lon="1.4326172880828380584716796875">
        <ele>-119.59999847412109375</ele>
        <time>2025-09-05T15:33:48.000Z</time>
        <extensions>
          <ns3:TrackPointExtension>
            <ns3:hr>158</ns3:hr>
            <ns3:cad>61</ns3:cad>
          </ns3:TrackPointExtension>
        </extensions>
      </trkpt>
      <trkpt lat="52.083425335586071014404296875" lon="1.43265031278133392333984375">
        <ele>-119.8000030517578125</ele>
        <time>2025-09-05T15:33:49.000Z</time>
        <extensions>
          <ns3:TrackPointExtension>
            <ns3:hr>158</ns3:hr>
            <ns3:cad>60</ns3:cad>
          </ns3:TrackPointExtension>
        </extensions>
      </trkpt>
      <trkpt lat="52.0834640599787235260009765625" lon="1.432735137641429901123046875">
        <ele>-120.59999847412109375</ele>
        <time>2025-09-05T15:33:53.000Z</time>
        <extensions>
          <ns3:TrackPointExtension>
            <ns3:hr>157</ns3:hr>
            <ns3:cad>60</ns3:cad>
          </ns3:TrackPointExtension>
        </extensions>
      </trkpt>
      <trkpt lat="52.0835059694945812225341796875" lon="1.43280562944710254669189453125">
        <ele>-121.40000152587890625</ele>
        <time>2025-09-05T15:33:57.000Z</time>
        <extensions>
          <ns3:TrackPointExtension>
            <ns3:hr>156</ns3:hr>
            <ns3:cad>56</ns3:cad>
          </ns3:TrackPointExtension>
        </extensions>
      </trkpt>
      <trkpt lat="52.08351678214967250823974609375" lon="1.43282222561538219451904296875">
        <ele>-121.59999847412109375</ele>
        <time>2025-09-05T15:33:58.000Z</time>
        <extensions>
          <ns3:TrackPointExtension>
            <ns3:hr>156</ns3:hr>
            <ns3:cad>56</ns3:cad>
          </ns3:TrackPointExtension>
        </extensions>
      </trkpt>
      <trkpt lat="52.0835374854505062103271484375" lon="1.432877965271472930908203125">
        <ele>-122.59999847412109375</ele>
        <time>2025-09-05T15:34:02.000Z</time>
        <extensions>
          <ns3:TrackPointExtension>
            <ns3:hr>153</ns3:hr>
            <ns3:cad>56</ns3:cad>
          </ns3:TrackPointExtension>
        </extensions>
      </trkpt>
      <trkpt lat="52.083545364439487457275390625" lon="1.4328962378203868865966796875">
        <ele>-122.8000030517578125</ele>
        <time>2025-09-05T15:34:03.000Z</time>
        <extensions>
          <ns3:TrackPointExtension>
            <ns3:hr>153</ns3:hr>
            <ns3:cad>56</ns3:cad>
          </ns3:TrackPointExtension>
        </extensions>
      </trkpt>
      <trkpt lat="52.08355030976235866546630859375" lon="1.4329384826123714447021484375">
        <ele>-123.40000152587890625</ele>
        <time>2025-09-05T15:34:05.000Z</time>
        <extensions>
          <ns3:TrackPointExtension>
            <ns3:hr>152</ns3:hr>
            <ns3:cad>56</ns3:cad>
          </ns3:TrackPointExtension>
        </extensions>
      </trkpt>
      <trkpt lat="52.08354360423982143402099609375" lon="1.43299975432455539703369140625">
        <ele>-124</ele>
        <time>2025-09-05T15:34:08.000Z</time>
        <extensions>
          <ns3:TrackPointExtension>
            <ns3:hr>153</ns3:hr>
            <ns3:cad>56</ns3:cad>
          </ns3:TrackPointExtension>
        </extensions>
      </trkpt>
      <trkpt lat="52.08355064503848552703857421875" lon="1.4330466091632843017578125">
        <ele>-124.8000030517578125</ele>
        <time>2025-09-05T15:34:11.000Z</time>
        <extensions>
          <ns3:TrackPointExtension>
            <ns3:hr>156</ns3:hr>
            <ns3:cad>57</ns3:cad>
          </ns3:TrackPointExtension>
        </extensions>
      </trkpt>
      <trkpt lat="52.0835639722645282745361328125" lon="1.433057673275470733642578125">
        <ele>-125</ele>
        <time>2025-09-05T15:34:12.000Z</time>
        <extensions>
          <ns3:TrackPointExtension>
            <ns3:hr>157</ns3:hr>
            <ns3:cad>57</ns3:cad>
          </ns3:TrackPointExtension>
        </extensions>
      </trkpt>
      <trkpt lat="52.083574868738651275634765625" lon="1.43306312151253223419189453125">
        <ele>-125.1999969482421875</ele>
        <time>2025-09-05T15:34:13.000Z</time>
        <extensions>
          <ns3:TrackPointExtension>
            <ns3:hr>157</ns3:hr>
            <ns3:cad>58</ns3:cad>
          </ns3:TrackPointExtension>
        </extensions>
      </trkpt>
      <trkpt lat="52.08365173079073429107666015625" lon="1.43308910541236400604248046875">
        <ele>-126.40000152587890625</ele>
        <time>2025-09-05T15:34:18.000Z</time>
        <extensions>
          <ns3:TrackPointExtension>
            <ns3:hr>156</ns3:hr>
            <ns3:cad>59</ns3:cad>
          </ns3:TrackPointExtension>
        </extensions>
      </trkpt>
      <trkpt lat="52.08366681821644306182861328125" lon="1.4330963976681232452392578125">
        <ele>-126.59999847412109375</ele>
        <time>2025-09-05T15:34:19.000Z</time>
        <extensions>
          <ns3:TrackPointExtension>
            <ns3:hr>156</ns3:hr>
            <ns3:cad>59</ns3:cad>
          </ns3:TrackPointExtension>
        </extensions>
      </trkpt>
      <trkpt lat="52.0837155170738697052001953125" lon="1.43313839100301265716552734375">
        <ele>-127.59999847412109375</ele>
        <time>2025-09-05T15:34:24.000Z</time>
        <extensions>
          <ns3:TrackPointExtension>
            <ns3:hr>154</ns3:hr>
            <ns3:cad>60</ns3:cad>
          </ns3:TrackPointExtension>
        </extensions>
      </trkpt>
      <trkpt lat="52.08373152650892734527587890625" lon="1.43317862413823604583740234375">
        <ele>-127.8000030517578125</ele>
        <time>2025-09-05T15:34:25.000Z</time>
        <extensions>
          <ns3:TrackPointExtension>
            <ns3:hr>154</ns3:hr>
            <ns3:cad>60</ns3:cad>
          </ns3:TrackPointExtension>
        </extensions>
      </trkpt>
      <trkpt lat="52.08375667221844196319580078125" lon="1.43323377706110477447509765625">
        <ele>-128.1999969482421875</ele>
        <time>2025-09-05T15:34:27.000Z</time>
        <extensions>
          <ns3:TrackPointExtension>
            <ns3:hr>154</ns3:hr>
            <ns3:cad>60</ns3:cad>
          </ns3:TrackPointExtension>
        </extensions>
      </trkpt>
      <trkpt lat="52.0837822370231151580810546875" lon="1.43332430161535739898681640625">
        <ele>-128.8000030517578125</ele>
        <time>2025-09-05T15:34:30.000Z</time>
        <extensions>
          <ns3:TrackPointExtension>
            <ns3:hr>153</ns3:hr>
            <ns3:cad>59</ns3:cad>
          </ns3:TrackPointExtension>
        </extensions>
      </trkpt>
      <trkpt lat="52.08382037468254566192626953125" lon="1.43339336849749088287353515625">
        <ele>-129.1999969482421875</ele>
        <time>2025-09-05T15:34:33.000Z</time>
        <extensions>
          <ns3:TrackPointExtension>
            <ns3:hr>153</ns3:hr>
            <ns3:cad>60</ns3:cad>
          </ns3:TrackPointExtension>
        </extensions>
      </trkpt>
      <trkpt lat="52.08387468941509723663330078125" lon="1.43345774151384830474853515625">
        <ele>-129.8000030517578125</ele>
        <time>2025-09-05T15:34:36.000Z</time>
        <extensions>
          <ns3:TrackPointExtension>
            <ns3:hr>153</ns3:hr>
            <ns3:cad>60</ns3:cad>
          </ns3:TrackPointExtension>
        </extensions>
      </trkpt>
      <trkpt lat="52.083955742418766021728515625" lon="1.43356000073254108428955078125">
        <ele>-131</ele>
        <time>2025-09-05T15:34:41.000Z</time>
        <extensions>
          <ns3:TrackPointExtension>
            <ns3:hr>153</ns3:hr>
            <ns3:cad>59</ns3:cad>
          </ns3:TrackPointExtension>
        </extensions>
      </trkpt>
      <trkpt lat="52.08397694863379001617431640625" lon="1.4335815422236919403076171875">
        <ele>-131.399993896484375</ele>
        <time>2025-09-05T15:34:43.000Z</time>
        <extensions>
          <ns3:TrackPointExtension>
            <ns3:hr>152</ns3:hr>
            <ns3:cad>60</ns3:cad>
          </ns3:TrackPointExtension>
        </extensions>
      </trkpt>
      <trkpt lat="52.083999328315258026123046875" lon="1.43364314921200275421142578125">
        <ele>-132</ele>
        <time>2025-09-05T15:34:46.000Z</time>
        <extensions>
          <ns3:TrackPointExtension>
            <ns3:hr>152</ns3:hr>
            <ns3:cad>62</ns3:cad>
          </ns3:TrackPointExtension>
        </extensions>
      </trkpt>
      <trkpt lat="52.08401785232126712799072265625" lon="1.43375412560999393463134765625">
        <ele>-133</ele>
        <time>2025-09-05T15:34:51.000Z</time>
        <extensions>
          <ns3:TrackPointExtension>
            <ns3:hr>152</ns3:hr>
            <ns3:cad>60</ns3:cad>
          </ns3:TrackPointExtension>
        </extensions>
      </trkpt>
      <trkpt lat="52.08402154035866260528564453125" lon="1.4337743259966373443603515625">
        <ele>-133.1999969482421875</ele>
        <time>2025-09-05T15:34:52.000Z</time>
        <extensions>
          <ns3:TrackPointExtension>
            <ns3:hr>152</ns3:hr>
            <ns3:cad>61</ns3:cad>
          </ns3:TrackPointExtension>
        </extensions>
      </trkpt>
      <trkpt lat="52.084058336913585662841796875" lon="1.43390131182968616485595703125">
        <ele>-134.1999969482421875</ele>
        <time>2025-09-05T15:34:57.000Z</time>
        <extensions>
          <ns3:TrackPointExtension>
            <ns3:hr>152</ns3:hr>
            <ns3:cad>60</ns3:cad>
          </ns3:TrackPointExtension>
        </extensions>
      </trkpt>
      <trkpt lat="52.084083817899227142333984375" lon="1.433974988758563995361328125">
        <ele>-134.8000030517578125</ele>
        <time>2025-09-05T15:35:00.000Z</time>
        <extensions>
          <ns3:TrackPointExtension>
            <ns3:hr>152</ns3:hr>
            <ns3:cad>59</ns3:cad>
          </ns3:TrackPointExtension>
        </extensions>
      </trkpt>
      <trkpt lat="52.0840997435152530670166015625" lon="1.43404908478260040283203125">
        <ele>-135.399993896484375</ele>
        <time>2025-09-05T15:35:03.000Z</time>
        <extensions>
          <ns3:TrackPointExtension>
            <ns3:hr>153</ns3:hr>
            <ns3:cad>58</ns3:cad>
          </ns3:TrackPointExtension>
        </extensions>
      </trkpt>
      <trkpt lat="52.0841175131499767303466796875" lon="1.434191577136516571044921875">
        <ele>-136.399993896484375</ele>
        <time>2025-09-05T15:35:09.000Z</time>
        <extensions>
          <ns3:TrackPointExtension>
            <ns3:hr>153</ns3:hr>
            <ns3:cad>60</ns3:cad>
          </ns3:TrackPointExtension>
        </extensions>
      </trkpt>
      <trkpt lat="52.08412145264446735382080078125" lon="1.43424413166940212249755859375">
        <ele>-136.8000030517578125</ele>
        <time>2025-09-05T15:35:11.000Z</time>
        <extensions>
          <ns3:TrackPointExtension>
            <ns3:hr>153</ns3:hr>
            <ns3:cad>59</ns3:cad>
          </ns3:TrackPointExtension>
        </extensions>
      </trkpt>
      <trkpt lat="52.08414223976433277130126953125" lon="1.43430246971547603607177734375">
        <ele>-137.399993896484375</ele>
        <time>2025-09-05T15:35:14.000Z</time>
        <extensions>
          <ns3:TrackPointExtension>
            <ns3:hr>153</ns3:hr>
            <ns3:cad>60</ns3:cad>
          </ns3:TrackPointExtension>
        </extensions>
      </trkpt>
      <trkpt lat="52.08417878486216068267822265625" lon="1.43439400009810924530029296875">
        <ele>-138.399993896484375</ele>
        <time>2025-09-05T15:35:19.000Z</time>
        <extensions>
          <ns3:TrackPointExtension>
            <ns3:hr>152</ns3:hr>
            <ns3:cad>59</ns3:cad>
          </ns3:TrackPointExtension>
        </extensions>
      </trkpt>
      <trkpt lat="52.08418264053761959075927734375" lon="1.4344131946563720703125">
        <ele>-138.600006103515625</ele>
        <time>2025-09-05T15:35:20.000Z</time>
        <extensions>
          <ns3:TrackPointExtension>
            <ns3:hr>152</ns3:hr>
            <ns3:cad>59</ns3:cad>
          </ns3:TrackPointExtension>
        </extensions>
      </trkpt>
      <trkpt lat="52.0841989852488040924072265625" lon="1.4345286972820758819580078125">
        <ele>-139.8000030517578125</ele>
        <time>2025-09-05T15:35:26.000Z</time>
        <extensions>
          <ns3:TrackPointExtension>
            <ns3:hr>151</ns3:hr>
            <ns3:cad>60</ns3:cad>
          </ns3:TrackPointExtension>
        </extensions>
      </trkpt>
      <trkpt lat="52.08422362804412841796875" lon="1.4346453733742237091064453125">
        <ele>-140.8000030517578125</ele>
        <time>2025-09-05T15:35:32.000Z</time>
        <extensions>
          <ns3:TrackPointExtension>
            <ns3:hr>153</ns3:hr>
            <ns3:cad>60</ns3:cad>
          </ns3:TrackPointExtension>
        </extensions>
      </trkpt>
      <trkpt lat="52.0842452533543109893798828125" lon="1.43473028205335140228271484375">
        <ele>-141.399993896484375</ele>
        <time>2025-09-05T15:35:36.000Z</time>
        <extensions>
          <ns3:TrackPointExtension>
            <ns3:hr>150</ns3:hr>
            <ns3:cad>59</ns3:cad>
          </ns3:TrackPointExtension>
        </extensions>
      </trkpt>
      <trkpt lat="52.08425380289554595947265625" lon="1.434793733060359954833984375">
        <ele>-142</ele>
        <time>2025-09-05T15:35:39.000Z</time>
        <extensions>
          <ns3:TrackPointExtension>
            <ns3:hr>149</ns3:hr>
            <ns3:cad>59</ns3:cad>
          </ns3:TrackPointExtension>
        </extensions>
      </trkpt>
      <trkpt lat="52.08425254561007022857666015625" lon="1.4348208904266357421875">
        <ele>-142</ele>
        <time>2025-09-05T15:35:40.000Z</time>
        <extensions>
          <ns3:TrackPointExtension>
            <ns3:hr>148</ns3:hr>
            <ns3:cad>59</ns3:cad>
          </ns3:TrackPointExtension>
        </extensions>
      </trkpt>
      <trkpt lat="52.08427702076733112335205078125" lon="1.4349829964339733123779296875">
        <ele>-143</ele>
        <time>2025-09-05T15:35:46.000Z</time>
        <extensions>
          <ns3:TrackPointExtension>
            <ns3:hr>145</ns3:hr>
            <ns3:cad>59</ns3:cad>
          </ns3:TrackPointExtension>
        </extensions>
      </trkpt>
      <trkpt lat="52.08428456448018550872802734375" lon="1.43509154208004474639892578125">
        <ele>-143.600006103515625</ele>
        <time>2025-09-05T15:35:50.000Z</time>
        <extensions>
          <ns3:TrackPointExtension>
            <ns3:hr>145</ns3:hr>
            <ns3:cad>60</ns3:cad>
          </ns3:TrackPointExtension>
        </extensions>
      </trkpt>
      <trkpt lat="52.0842596702277660369873046875" lon="1.4352032728493213653564453125">
        <ele>-144.1999969482421875</ele>
        <time>2025-09-05T15:35:54.000Z</time>
        <extensions>
          <ns3:TrackPointExtension>
            <ns3:hr>147</ns3:hr>
            <ns3:cad>60</ns3:cad>
          </ns3:TrackPointExtension>
        </extensions>
      </trkpt>
      <trkpt lat="52.08424483425915241241455078125" lon="1.43529362976551055908203125">
        <ele>-144.600006103515625</ele>
        <time>2025-09-05T15:35:58.000Z</time>
        <extensions>
          <ns3:TrackPointExtension>
            <ns3:hr>146</ns3:hr>
            <ns3:cad>60</ns3:cad>
          </ns3:TrackPointExtension>
        </extensions>
      </trkpt>
      <trkpt lat="52.084234021604061126708984375" lon="1.4353705756366252899169921875">
        <ele>-145.1999969482421875</ele>
        <time>2025-09-05T15:36:02.000Z</time>
        <extensions>
          <ns3:TrackPointExtension>
            <ns3:hr>147</ns3:hr>
            <ns3:cad>60</ns3:cad>
          </ns3:TrackPointExtension>
        </extensions>
      </trkpt>
      <trkpt lat="52.0842274837195873260498046875" lon="1.43545900471508502960205078125">
        <ele>-145.600006103515625</ele>
        <time>2025-09-05T15:36:06.000Z</time>
        <extensions>
          <ns3:TrackPointExtension>
            <ns3:hr>145</ns3:hr>
            <ns3:cad>60</ns3:cad>
          </ns3:TrackPointExtension>
        </extensions>
      </trkpt>
      <trkpt lat="52.084228657186031341552734375" lon="1.43557383678853511810302734375">
        <ele>-115.59999847412109375</ele>
        <time>2025-09-05T15:36:11.000Z</time>
        <extensions>
          <ns3:TrackPointExtension>
            <ns3:hr>145</ns3:hr>
            <ns3:cad>60</ns3:cad>
          </ns3:TrackPointExtension>
        </extensions>
      </trkpt>
      <trkpt lat="52.084256820380687713623046875" lon="1.43567207269370555877685546875">
        <ele>-115.59999847412109375</ele>
        <time>2025-09-05T15:36:15.000Z</time>
        <extensions>
          <ns3:TrackPointExtension>
            <ns3:hr>146</ns3:hr>
            <ns3:cad>60</ns3:cad>
          </ns3:TrackPointExtension>
        </extensions>
      </trkpt>
      <trkpt lat="52.08428464829921722412109375" lon="1.4358926005661487579345703125">
        <ele>-116.59999847412109375</ele>
        <time>2025-09-05T15:36:24.000Z</time>
        <extensions>
          <ns3:TrackPointExtension>
            <ns3:hr>147</ns3:hr>
            <ns3:cad>60</ns3:cad>
          </ns3:TrackPointExtension>
        </extensions>
      </trkpt>
      <trkpt lat="52.0843015797436237335205078125" lon="1.436081193387508392333984375">
        <ele>-117.59999847412109375</ele>
        <time>2025-09-05T15:36:32.000Z</time>
        <extensions>
          <ns3:TrackPointExtension>
            <ns3:hr>148</ns3:hr>
            <ns3:cad>60</ns3:cad>
          </ns3:TrackPointExtension>
        </extensions>
      </trkpt>
      <trkpt lat="52.0843049325048923492431640625" lon="1.43610424362123012542724609375">
        <ele>-117.59999847412109375</ele>
        <time>2025-09-05T15:36:33.000Z</time>
        <extensions>
          <ns3:TrackPointExtension>
            <ns3:hr>147</ns3:hr>
            <ns3:cad>60</ns3:cad>
          </ns3:TrackPointExtension>
        </extensions>
      </trkpt>
      <trkpt lat="52.0843163318932056427001953125" lon="1.436248831450939178466796875">
        <ele>-118.40000152587890625</ele>
        <time>2025-09-05T15:36:39.000Z</time>
        <extensions>
          <ns3:TrackPointExtension>
            <ns3:hr>148</ns3:hr>
            <ns3:cad>60</ns3:cad>
          </ns3:TrackPointExtension>
        </extensions>
      </trkpt>
      <trkpt lat="52.08431549370288848876953125" lon="1.4363207481801509857177734375">
        <ele>-118.8000030517578125</ele>
        <time>2025-09-05T15:36:42.000Z</time>
        <extensions>
          <ns3:TrackPointExtension>
            <ns3:hr>147</ns3:hr>
            <ns3:cad>61</ns3:cad>
          </ns3:TrackPointExtension>
        </extensions>
      </trkpt>
      <trkpt lat="52.08429898135364055633544921875" lon="1.4364655874669551849365234375">
        <ele>-119.40000152587890625</ele>
        <time>2025-09-05T15:36:48.000Z</time>
        <extensions>
          <ns3:TrackPointExtension>
            <ns3:hr>147</ns3:hr>
            <ns3:cad>60</ns3:cad>
          </ns3:TrackPointExtension>
        </extensions>
      </trkpt>
      <trkpt lat="52.084295712411403656005859375" lon="1.436507999897003173828125">
        <ele>-119.59999847412109375</ele>
        <time>2025-09-05T15:36:50.000Z</time>
        <extensions>
          <ns3:TrackPointExtension>
            <ns3:hr>144</ns3:hr>
            <ns3:cad>61</ns3:cad>
          </ns3:TrackPointExtension>
        </extensions>
      </trkpt>
      <trkpt lat="52.08429277874529361724853515625" lon="1.43654898740351200103759765625">
        <ele>-119.8000030517578125</ele>
        <time>2025-09-05T15:36:52.000Z</time>
        <extensions>
          <ns3:TrackPointExtension>
            <ns3:hr>145</ns3:hr>
            <ns3:cad>61</ns3:cad>
          </ns3:TrackPointExtension>
        </extensions>
      </trkpt>
      <trkpt lat="52.0842797867953777313232421875" lon="1.43666717223823070526123046875">
        <ele>-120.59999847412109375</ele>
        <time>2025-09-05T15:36:58.000Z</time>
        <extensions>
          <ns3:TrackPointExtension>
            <ns3:hr>143</ns3:hr>
            <ns3:cad>59</ns3:cad>
          </ns3:TrackPointExtension>
        </extensions>
      </trkpt>
      <trkpt lat="52.0842744223773479461669921875" lon="1.43671142868697643280029296875">
        <ele>-121</ele>
        <time>2025-09-05T15:37:00.000Z</time>
        <extensions>
          <ns3:TrackPointExtension>
            <ns3:hr>142</ns3:hr>
            <ns3:cad>59</ns3:cad>
          </ns3:TrackPointExtension>
        </extensions>
      </trkpt>
      <trkpt lat="52.084256149828433990478515625" lon="1.436797678470611572265625">
        <ele>-121.59999847412109375</ele>
        <time>2025-09-05T15:37:04.000Z</time>
        <extensions>
          <ns3:TrackPointExtension>
            <ns3:hr>145</ns3:hr>
            <ns3:cad>60</ns3:cad>
          </ns3:TrackPointExtension>
        </extensions>
      </trkpt>
      <trkpt lat="52.0842546410858631134033203125" lon="1.436830200254917144775390625">
        <ele>-122</ele>
        <time>2025-09-05T15:37:06.000Z</time>
        <extensions>
          <ns3:TrackPointExtension>
            <ns3:hr>145</ns3:hr>
            <ns3:cad>60</ns3:cad>
          </ns3:TrackPointExtension>
        </extensions>
      </trkpt>
      <trkpt lat="52.08425120450556278228759765625" lon="1.43684319220483303070068359375">
        <ele>-122</ele>
        <time>2025-09-05T15:37:07.000Z</time>
        <extensions>
          <ns3:TrackPointExtension>
            <ns3:hr>146</ns3:hr>
            <ns3:cad>61</ns3:cad>
          </ns3:TrackPointExtension>
        </extensions>
      </trkpt>
      <trkpt lat="52.08422471769154071807861328125" lon="1.437012590467929840087890625">
        <ele>-123.1999969482421875</ele>
        <time>2025-09-05T15:37:13.000Z</time>
        <extensions>
          <ns3:TrackPointExtension>
            <ns3:hr>143</ns3:hr>
            <ns3:cad>60</ns3:cad>
          </ns3:TrackPointExtension>
        </extensions>
      </trkpt>
      <trkpt lat="52.0842103846371173858642578125" lon="1.4370865188539028167724609375">
        <ele>-123.40000152587890625</ele>
        <time>2025-09-05T15:37:15.000Z</time>
        <extensions>
          <ns3:TrackPointExtension>
            <ns3:hr>146</ns3:hr>
            <ns3:cad>80</ns3:cad>
          </ns3:TrackPointExtension>
        </extensions>
      </trkpt>
      <trkpt lat="52.08418817259371280670166015625" lon="1.43723286688327789306640625">
        <ele>-124.1999969482421875</ele>
        <time>2025-09-05T15:37:19.000Z</time>
        <extensions>
          <ns3:TrackPointExtension>
            <ns3:hr>146</ns3:hr>
            <ns3:cad>81</ns3:cad>
          </ns3:TrackPointExtension>
        </extensions>
      </trkpt>
      <trkpt lat="52.08418448455631732940673828125" lon="1.43726714886724948883056640625">
        <ele>-124.40000152587890625</ele>
        <time>2025-09-05T15:37:20.000Z</time>
        <extensions>
          <ns3:TrackPointExtension>
            <ns3:hr>143</ns3:hr>
            <ns3:cad>81</ns3:cad>
          </ns3:TrackPointExtension>
        </extensions>
      </trkpt>
      <trkpt lat="52.08417509682476520538330078125" lon="1.437339819967746734619140625">
        <ele>-124.59999847412109375</ele>
        <time>2025-09-05T15:37:22.000Z</time>
        <extensions>
          <ns3:TrackPointExtension>
            <ns3:hr>150</ns3:hr>
            <ns3:cad>82</ns3:cad>
          </ns3:TrackPointExtension>
        </extensions>
      </trkpt>
      <trkpt lat="52.0841694809496402740478515625" lon="1.4373792149126529693603515625">
        <ele>-124.8000030517578125</ele>
        <time>2025-09-05T15:37:23.000Z</time>
        <extensions>
          <ns3:TrackPointExtension>
            <ns3:hr>153</ns3:hr>
            <ns3:cad>82</ns3:cad>
          </ns3:TrackPointExtension>
        </extensions>
      </trkpt>
      <trkpt lat="52.08416503854095935821533203125" lon="1.4374160952866077423095703125">
        <ele>-124.8000030517578125</ele>
        <time>2025-09-05T15:37:24.000Z</time>
        <extensions>
          <ns3:TrackPointExtension>
            <ns3:hr>156</ns3:hr>
            <ns3:cad>82</ns3:cad>
          </ns3:TrackPointExtension>
        </extensions>
      </trkpt>
      <trkpt lat="52.0841597579419612884521484375" lon="1.43745540641248226165771484375">
        <ele>-125</ele>
        <time>2025-09-05T15:37:25.000Z</time>
        <extensions>
          <ns3:TrackPointExtension>
            <ns3:hr>160</ns3:hr>
            <ns3:cad>82</ns3:cad>
          </ns3:TrackPointExtension>
        </extensions>
      </trkpt>
      <trkpt lat="52.0841486938297748565673828125" lon="1.43752883188426494598388671875">
        <ele>-125.1999969482421875</ele>
        <time>2025-09-05T15:37:27.000Z</time>
        <extensions>
          <ns3:TrackPointExtension>
            <ns3:hr>164</ns3:hr>
            <ns3:cad>82</ns3:cad>
          </ns3:TrackPointExtension>
        </extensions>
      </trkpt>
      <trkpt lat="52.0841399766504764556884765625" lon="1.4375602640211582183837890625">
        <ele>-125.1999969482421875</ele>
        <time>2025-09-05T15:37:28.000Z</time>
        <extensions>
          <ns3:TrackPointExtension>
            <ns3:hr>167</ns3:hr>
            <ns3:cad>82</ns3:cad>
          </ns3:TrackPointExtension>
        </extensions>
      </trkpt>
      <trkpt lat="52.08410200662910938262939453125" lon="1.43770451657474040985107421875">
        <ele>-125.40000152587890625</ele>
        <time>2025-09-05T15:37:33.000Z</time>
        <extensions>
          <ns3:TrackPointExtension>
            <ns3:hr>171</ns3:hr>
            <ns3:cad>82</ns3:cad>
          </ns3:TrackPointExtension>
        </extensions>
      </trkpt>
      <trkpt lat="52.08409077487885951995849609375" lon="1.43776738084852695465087890625">
        <ele>-125.40000152587890625</ele>
        <time>2025-09-05T15:37:35.000Z</time>
        <extensions>
          <ns3:TrackPointExtension>
            <ns3:hr>168</ns3:hr>
            <ns3:cad>82</ns3:cad>
          </ns3:TrackPointExtension>
        </extensions>
      </trkpt>
      <trkpt lat="52.0840678922832012176513671875" lon="1.43792211078107357025146484375">
        <ele>-125.40000152587890625</ele>
        <time>2025-09-05T15:37:40.000Z</time>
        <extensions>
          <ns3:TrackPointExtension>
            <ns3:hr>169</ns3:hr>
            <ns3:cad>82</ns3:cad>
          </ns3:TrackPointExtension>
        </extensions>
      </trkpt>
      <trkpt lat="52.0840665511786937713623046875" lon="1.43795530311763286590576171875">
        <ele>-125.40000152587890625</ele>
        <time>2025-09-05T15:37:41.000Z</time>
        <extensions>
          <ns3:TrackPointExtension>
            <ns3:hr>172</ns3:hr>
            <ns3:cad>82</ns3:cad>
          </ns3:TrackPointExtension>
        </extensions>
      </trkpt>
      <trkpt lat="52.0840762741863727569580078125" lon="1.43813685514032840728759765625">
        <ele>-125</ele>
        <time>2025-09-05T15:37:47.000Z</time>
        <extensions>
          <ns3:TrackPointExtension>
            <ns3:hr>173</ns3:hr>
            <ns3:cad>82</ns3:cad>
          </ns3:TrackPointExtension>
        </extensions>
      </trkpt>
      <trkpt lat="52.0840464346110820770263671875" lon="1.438318155705928802490234375">
        <ele>-124.8000030517578125</ele>
        <time>2025-09-05T15:37:53.000Z</time>
        <extensions>
          <ns3:TrackPointExtension>
            <ns3:hr>174</ns3:hr>
            <ns3:cad>81</ns3:cad>
          </ns3:TrackPointExtension>
        </extensions>
      </trkpt>
      <trkpt lat="52.08400125615298748016357421875" lon="1.43849375657737255096435546875">
        <ele>-124.1999969482421875</ele>
        <time>2025-09-05T15:37:59.000Z</time>
        <extensions>
          <ns3:TrackPointExtension>
            <ns3:hr>175</ns3:hr>
            <ns3:cad>81</ns3:cad>
          </ns3:TrackPointExtension>
        </extensions>
      </trkpt>
      <trkpt lat="52.0839914493262767791748046875" lon="1.43855921924114227294921875">
        <ele>-124</ele>
        <time>2025-09-05T15:38:01.000Z</time>
        <extensions>
          <ns3:TrackPointExtension>
            <ns3:hr>175</ns3:hr>
            <ns3:cad>81</ns3:cad>
          </ns3:TrackPointExtension>
        </extensions>
      </trkpt>
      <trkpt lat="52.08397326059639453887939453125" lon="1.43878930248320102691650390625">
        <ele>-123.1999969482421875</ele>
        <time>2025-09-05T15:38:09.000Z</time>
        <extensions>
          <ns3:TrackPointExtension>
            <ns3:hr>173</ns3:hr>
            <ns3:cad>81</ns3:cad>
          </ns3:TrackPointExtension>
        </extensions>
      </trkpt>
      <trkpt lat="52.08398482762277126312255859375" lon="1.43882031552493572235107421875">
        <ele>-123</ele>
        <time>2025-09-05T15:38:10.000Z</time>
        <extensions>
          <ns3:TrackPointExtension>
            <ns3:hr>175</ns3:hr>
            <ns3:cad>81</ns3:cad>
          </ns3:TrackPointExtension>
        </extensions>
      </trkpt>
      <trkpt lat="52.08400963805615901947021484375" lon="1.43896565772593021392822265625">
        <ele>-122.59999847412109375</ele>
        <time>2025-09-05T15:38:15.000Z</time>
        <extensions>
          <ns3:TrackPointExtension>
            <ns3:hr>174</ns3:hr>
            <ns3:cad>81</ns3:cad>
          </ns3:TrackPointExtension>
        </extensions>
      </trkpt>
      <trkpt lat="52.08401533775031566619873046875" lon="1.43913698382675647735595703125">
        <ele>-122</ele>
        <time>2025-09-05T15:38:20.000Z</time>
        <extensions>
          <ns3:TrackPointExtension>
            <ns3:hr>174</ns3:hr>
            <ns3:cad>81</ns3:cad>
          </ns3:TrackPointExtension>
        </extensions>
      </trkpt>
      <trkpt lat="52.08401500247418880462646484375" lon="1.4392027817666530609130859375">
        <ele>-121.8000030517578125</ele>
        <time>2025-09-05T15:38:22.000Z</time>
        <extensions>
          <ns3:TrackPointExtension>
            <ns3:hr>175</ns3:hr>
            <ns3:cad>82</ns3:cad>
          </ns3:TrackPointExtension>
        </extensions>
      </trkpt>
      <trkpt lat="52.0840179361402988433837890625" lon="1.4393972419202327728271484375">
        <ele>-121</ele>
        <time>2025-09-05T15:38:28.000Z</time>
        <extensions>
          <ns3:TrackPointExtension>
            <ns3:hr>175</ns3:hr>
            <ns3:cad>81</ns3:cad>
          </ns3:TrackPointExtension>
        </extensions>
      </trkpt>
      <trkpt lat="52.0840172655880451202392578125" lon="1.43942783586680889129638671875">
        <ele>-121</ele>
        <time>2025-09-05T15:38:29.000Z</time>
        <extensions>
          <ns3:TrackPointExtension>
            <ns3:hr>175</ns3:hr>
            <ns3:cad>81</ns3:cad>
          </ns3:TrackPointExtension>
        </extensions>
      </trkpt>
      <trkpt lat="52.08399941213428974151611328125" lon="1.43967459909617900848388671875">
        <ele>-120</ele>
        <time>2025-09-05T15:38:37.000Z</time>
        <extensions>
          <ns3:TrackPointExtension>
            <ns3:hr>174</ns3:hr>
            <ns3:cad>81</ns3:cad>
          </ns3:TrackPointExtension>
        </extensions>
      </trkpt>
      <trkpt lat="52.08399103023111820220947265625" lon="1.43973276950418949127197265625">
        <ele>-119.8000030517578125</ele>
        <time>2025-09-05T15:38:39.000Z</time>
        <extensions>
          <ns3:TrackPointExtension>
            <ns3:hr>174</ns3:hr>
            <ns3:cad>81</ns3:cad>
          </ns3:TrackPointExtension>
        </extensions>
      </trkpt>
      <trkpt lat="52.083977200090885162353515625" lon="1.439887247979640960693359375">
        <ele>-119.40000152587890625</ele>
        <time>2025-09-05T15:38:44.000Z</time>
        <extensions>
          <ns3:TrackPointExtension>
            <ns3:hr>173</ns3:hr>
            <ns3:cad>81</ns3:cad>
          </ns3:TrackPointExtension>
        </extensions>
      </trkpt>
      <trkpt lat="52.0839720033109188079833984375" lon="1.4400580711662769317626953125">
        <ele>-118.8000030517578125</ele>
        <time>2025-09-05T15:38:49.000Z</time>
        <extensions>
          <ns3:TrackPointExtension>
            <ns3:hr>176</ns3:hr>
            <ns3:cad>81</ns3:cad>
          </ns3:TrackPointExtension>
        </extensions>
      </trkpt>
      <trkpt lat="52.08397577516734600067138671875" lon="1.440121941268444061279296875">
        <ele>-118.40000152587890625</ele>
        <time>2025-09-05T15:38:51.000Z</time>
        <extensions>
          <ns3:TrackPointExtension>
            <ns3:hr>176</ns3:hr>
            <ns3:cad>81</ns3:cad>
          </ns3:TrackPointExtension>
        </extensions>
      </trkpt>
      <trkpt lat="52.083971165120601654052734375" lon="1.4402029104530811309814453125">
        <ele>-118</ele>
        <time>2025-09-05T15:38:54.000Z</time>
        <extensions>
          <ns3:TrackPointExtension>
            <ns3:hr>173</ns3:hr>
            <ns3:cad>80</ns3:cad>
          </ns3:TrackPointExtension>
        </extensions>
      </trkpt>
      <trkpt lat="52.083968482911586761474609375" lon="1.44029418937861919403076171875">
        <ele>-117.59999847412109375</ele>
        <time>2025-09-05T15:38:57.000Z</time>
        <extensions>
          <ns3:TrackPointExtension>
            <ns3:hr>174</ns3:hr>
            <ns3:cad>81</ns3:cad>
          </ns3:TrackPointExtension>
        </extensions>
      </trkpt>
      <trkpt lat="52.08394710905849933624267578125" lon="1.4405220933258533477783203125">
        <ele>-116.59999847412109375</ele>
        <time>2025-09-05T15:39:04.000Z</time>
        <extensions>
          <ns3:TrackPointExtension>
            <ns3:hr>177</ns3:hr>
            <ns3:cad>81</ns3:cad>
          </ns3:TrackPointExtension>
        </extensions>
      </trkpt>
      <trkpt lat="52.08392112515866756439208984375" lon="1.44076122902333736419677734375">
        <ele>-115.59999847412109375</ele>
        <time>2025-09-05T15:39:11.000Z</time>
        <extensions>
          <ns3:TrackPointExtension>
            <ns3:hr>175</ns3:hr>
            <ns3:cad>81</ns3:cad>
          </ns3:TrackPointExtension>
        </extensions>
      </trkpt>
      <trkpt lat="52.0839160121977329254150390625" lon="1.44089081324636936187744140625">
        <ele>-114.8000030517578125</ele>
        <time>2025-09-05T15:39:16.000Z</time>
        <extensions>
          <ns3:TrackPointExtension>
            <ns3:hr>175</ns3:hr>
            <ns3:cad>81</ns3:cad>
          </ns3:TrackPointExtension>
        </extensions>
      </trkpt>
      <trkpt lat="52.08391844294965267181396484375" lon="1.4409576170146465301513671875">
        <ele>-114.59999847412109375</ele>
        <time>2025-09-05T15:39:18.000Z</time>
        <extensions>
          <ns3:TrackPointExtension>
            <ns3:hr>175</ns3:hr>
            <ns3:cad>82</ns3:cad>
          </ns3:TrackPointExtension>
        </extensions>
      </trkpt>
      <trkpt lat="52.08392322063446044921875" lon="1.44113673828542232513427734375">
        <ele>-113.8000030517578125</ele>
        <time>2025-09-05T15:39:24.000Z</time>
        <extensions>
          <ns3:TrackPointExtension>
            <ns3:hr>175</ns3:hr>
            <ns3:cad>81</ns3:cad>
          </ns3:TrackPointExtension>
        </extensions>
      </trkpt>
      <trkpt lat="52.0839218795299530029296875" lon="1.44121192395687103271484375">
        <ele>-113.40000152587890625</ele>
        <time>2025-09-05T15:39:27.000Z</time>
        <extensions>
          <ns3:TrackPointExtension>
            <ns3:hr>173</ns3:hr>
            <ns3:cad>80</ns3:cad>
          </ns3:TrackPointExtension>
        </extensions>
      </trkpt>
      <trkpt lat="52.0839528925716876983642578125" lon="1.4413860999047756195068359375">
        <ele>-112.8000030517578125</ele>
        <time>2025-09-05T15:39:33.000Z</time>
        <extensions>
          <ns3:TrackPointExtension>
            <ns3:hr>174</ns3:hr>
            <ns3:cad>81</ns3:cad>
          </ns3:TrackPointExtension>
        </extensions>
      </trkpt>
      <trkpt lat="52.0839582569897174835205078125" lon="1.44154292531311511993408203125">
        <ele>-112.40000152587890625</ele>
        <time>2025-09-05T15:39:38.000Z</time>
        <extensions>
          <ns3:TrackPointExtension>
            <ns3:hr>175</ns3:hr>
            <ns3:cad>81</ns3:cad>
          </ns3:TrackPointExtension>
        </extensions>
      </trkpt>
      <trkpt lat="52.08395817317068576812744140625" lon="1.44161417149007320404052734375">
        <ele>-112.1999969482421875</ele>
        <time>2025-09-05T15:39:40.000Z</time>
        <extensions>
          <ns3:TrackPointExtension>
            <ns3:hr>175</ns3:hr>
            <ns3:cad>81</ns3:cad>
          </ns3:TrackPointExtension>
        </extensions>
      </trkpt>
      <trkpt lat="52.0839666388928890228271484375" lon="1.44186378456652164459228515625">
        <ele>-111.8000030517578125</ele>
        <time>2025-09-05T15:39:47.000Z</time>
        <extensions>
          <ns3:TrackPointExtension>
            <ns3:hr>174</ns3:hr>
            <ns3:cad>81</ns3:cad>
          </ns3:TrackPointExtension>
        </extensions>
      </trkpt>
      <trkpt lat="52.08395247347652912139892578125" lon="1.44197140820324420928955078125">
        <ele>-111.59999847412109375</ele>
        <time>2025-09-05T15:39:50.000Z</time>
        <extensions>
          <ns3:TrackPointExtension>
            <ns3:hr>177</ns3:hr>
            <ns3:cad>81</ns3:cad>
          </ns3:TrackPointExtension>
        </extensions>
      </trkpt>
      <trkpt lat="52.08394073881208896636962890625" lon="1.44207383506000041961669921875">
        <ele>-111.40000152587890625</ele>
        <time>2025-09-05T15:39:53.000Z</time>
        <extensions>
          <ns3:TrackPointExtension>
            <ns3:hr>177</ns3:hr>
            <ns3:cad>81</ns3:cad>
          </ns3:TrackPointExtension>
        </extensions>
      </trkpt>
      <trkpt lat="52.08394241519272327423095703125" lon="1.44212479703128337860107421875">
        <ele>-111.1999969482421875</ele>
        <time>2025-09-05T15:39:55.000Z</time>
        <extensions>
          <ns3:TrackPointExtension>
            <ns3:hr>178</ns3:hr>
            <ns3:cad>81</ns3:cad>
          </ns3:TrackPointExtension>
        </extensions>
      </trkpt>
      <trkpt lat="52.083934955298900604248046875" lon="1.44230467267334461212158203125">
        <ele>-110.8000030517578125</ele>
        <time>2025-09-05T15:40:02.000Z</time>
        <extensions>
          <ns3:TrackPointExtension>
            <ns3:hr>177</ns3:hr>
            <ns3:cad>81</ns3:cad>
          </ns3:TrackPointExtension>
        </extensions>
      </trkpt>
      <trkpt lat="52.08397041074931621551513671875" lon="1.442511118948459625244140625">
        <ele>-110.40000152587890625</ele>
        <time>2025-09-05T15:40:08.000Z</time>
        <extensions>
          <ns3:TrackPointExtension>
            <ns3:hr>177</ns3:hr>
            <ns3:cad>81</ns3:cad>
          </ns3:TrackPointExtension>
        </extensions>
      </trkpt>
      <trkpt lat="52.083981223404407501220703125" lon="1.4425726421177387237548828125">
        <ele>-110.1999969482421875</ele>
        <time>2025-09-05T15:40:10.000Z</time>
        <extensions>
          <ns3:TrackPointExtension>
            <ns3:hr>177</ns3:hr>
            <ns3:cad>81</ns3:cad>
          </ns3:TrackPointExtension>
        </extensions>
      </trkpt>
      <trkpt lat="52.08399890922009944915771484375" lon="1.44271153025329113006591796875">
        <ele>-109.8000030517578125</ele>
        <time>2025-09-05T15:40:15.000Z</time>
        <extensions>
          <ns3:TrackPointExtension>
            <ns3:hr>180</ns3:hr>
            <ns3:cad>81</ns3:cad>
          </ns3:TrackPointExtension>
        </extensions>
      </trkpt>
      <trkpt lat="52.0840048603713512420654296875" lon="1.4427508413791656494140625">
        <ele>-109.8000030517578125</ele>
        <time>2025-09-05T15:40:17.000Z</time>
        <extensions>
          <ns3:TrackPointExtension>
            <ns3:hr>181</ns3:hr>
            <ns3:cad>81</ns3:cad>
          </ns3:TrackPointExtension>
        </extensions>
      </trkpt>
      <trkpt lat="52.0840259827673435211181640625" lon="1.4428901486098766326904296875">
        <ele>-109.40000152587890625</ele>
        <time>2025-09-05T15:40:24.000Z</time>
        <extensions>
          <ns3:TrackPointExtension>
            <ns3:hr>177</ns3:hr>
            <ns3:cad>81</ns3:cad>
          </ns3:TrackPointExtension>
        </extensions>
      </trkpt>
      <trkpt lat="52.084030173718929290771484375" lon="1.44290716387331485748291015625">
        <ele>-109.40000152587890625</ele>
        <time>2025-09-05T15:40:25.000Z</time>
        <extensions>
          <ns3:TrackPointExtension>
            <ns3:hr>176</ns3:hr>
            <ns3:cad>80</ns3:cad>
          </ns3:TrackPointExtension>
        </extensions>
      </trkpt>
      <trkpt lat="52.08410485647618770599365234375" lon="1.4430061541497707366943359375">
        <ele>-109.1999969482421875</ele>
        <time>2025-09-05T15:40:31.000Z</time>
        <extensions>
          <ns3:TrackPointExtension>
            <ns3:hr>175</ns3:hr>
            <ns3:cad>80</ns3:cad>
          </ns3:TrackPointExtension>
        </extensions>
      </trkpt>
      <trkpt lat="52.0841724984347820281982421875" lon="1.4430487342178821563720703125">
        <ele>-109.1999969482421875</ele>
        <time>2025-09-05T15:40:36.000Z</time>
        <extensions>
          <ns3:TrackPointExtension>
            <ns3:hr>178</ns3:hr>
            <ns3:cad>81</ns3:cad>
          </ns3:TrackPointExtension>
        </extensions>
      </trkpt>
      <trkpt lat="52.08421113900840282440185546875" lon="1.44306826405227184295654296875">
        <ele>-109</ele>
        <time>2025-09-05T15:40:39.000Z</time>
        <extensions>
          <ns3:TrackPointExtension>
            <ns3:hr>179</ns3:hr>
            <ns3:cad>81</ns3:cad>
          </ns3:TrackPointExtension>
        </extensions>
      </trkpt>
      <trkpt lat="52.08434659056365489959716796875" lon="1.44315208308398723602294921875">
        <ele>-109</ele>
        <time>2025-09-05T15:40:48.000Z</time>
        <extensions>
          <ns3:TrackPointExtension>
            <ns3:hr>179</ns3:hr>
            <ns3:cad>81</ns3:cad>
          </ns3:TrackPointExtension>
        </extensions>
      </trkpt>
      <trkpt lat="52.0844100415706634521484375" lon="1.44318074919283390045166015625">
        <ele>-108.8000030517578125</ele>
        <time>2025-09-05T15:40:54.000Z</time>
        <extensions>
          <ns3:TrackPointExtension>
            <ns3:hr>174</ns3:hr>
            <ns3:cad>81</ns3:cad>
          </ns3:TrackPointExtension>
        </extensions>
      </trkpt>
      <trkpt lat="52.08448288030922412872314453125" lon="1.44320941530168056488037109375">
        <ele>-108.59999847412109375</ele>
        <time>2025-09-05T15:40:57.000Z</time>
        <extensions>
          <ns3:TrackPointExtension>
            <ns3:hr>171</ns3:hr>
            <ns3:cad>81</ns3:cad>
          </ns3:TrackPointExtension>
        </extensions>
      </trkpt>
      <trkpt lat="52.0846254564821720123291015625" lon="1.44323967397212982177734375">
        <ele>-108.40000152587890625</ele>
        <time>2025-09-05T15:41:05.000Z</time>
        <extensions>
          <ns3:TrackPointExtension>
            <ns3:hr>173</ns3:hr>
            <ns3:cad>81</ns3:cad>
          </ns3:TrackPointExtension>
        </extensions>
      </trkpt>
      <trkpt lat="52.0846445672214031219482421875" lon="1.4432448707520961761474609375">
        <ele>-108.40000152587890625</ele>
        <time>2025-09-05T15:41:06.000Z</time>
        <extensions>
          <ns3:TrackPointExtension>
            <ns3:hr>173</ns3:hr>
            <ns3:cad>80</ns3:cad>
          </ns3:TrackPointExtension>
        </extensions>
      </trkpt>
      <trkpt lat="52.08469008095562458038330078125" lon="1.44324964843690395355224609375">
        <ele>-108.1999969482421875</ele>
        <time>2025-09-05T15:41:09.000Z</time>
        <extensions>
          <ns3:TrackPointExtension>
            <ns3:hr>177</ns3:hr>
            <ns3:cad>80</ns3:cad>
          </ns3:TrackPointExtension>
        </extensions>
      </trkpt>
      <trkpt lat="52.08478219807147979736328125" lon="1.44326590932905673980712890625">
        <ele>-108</ele>
        <time>2025-09-05T15:41:16.000Z</time>
        <extensions>
          <ns3:TrackPointExtension>
            <ns3:hr>177</ns3:hr>
            <ns3:cad>81</ns3:cad>
          </ns3:TrackPointExtension>
        </extensions>
      </trkpt>
      <trkpt lat="52.08491773344576358795166015625" lon="1.443301700055599212646484375">
        <ele>-108</ele>
        <time>2025-09-05T15:41:26.000Z</time>
        <extensions>
          <ns3:TrackPointExtension>
            <ns3:hr>175</ns3:hr>
            <ns3:cad>80</ns3:cad>
          </ns3:TrackPointExtension>
        </extensions>
      </trkpt>
      <trkpt lat="52.0850484073162078857421875" lon="1.4433301985263824462890625">
        <ele>-107.8000030517578125</ele>
        <time>2025-09-05T15:41:33.000Z</time>
        <extensions>
          <ns3:TrackPointExtension>
            <ns3:hr>177</ns3:hr>
            <ns3:cad>80</ns3:cad>
          </ns3:TrackPointExtension>
        </extensions>
      </trkpt>
      <trkpt lat="52.0852307975292205810546875" lon="1.443378813564777374267578125">
        <ele>-107.59999847412109375</ele>
        <time>2025-09-05T15:41:42.000Z</time>
        <extensions>
          <ns3:TrackPointExtension>
            <ns3:hr>178</ns3:hr>
            <ns3:cad>81</ns3:cad>
          </ns3:TrackPointExtension>
        </extensions>
      </trkpt>
      <trkpt lat="52.08525619469583034515380859375" lon="1.44338761456310749053955078125">
        <ele>-107.40000152587890625</ele>
        <time>2025-09-05T15:41:43.000Z</time>
        <extensions>
          <ns3:TrackPointExtension>
            <ns3:hr>178</ns3:hr>
            <ns3:cad>81</ns3:cad>
          </ns3:TrackPointExtension>
        </extensions>
      </trkpt>
      <trkpt lat="52.08534135483205318450927734375" lon="1.4434031210839748382568359375">
        <ele>-107.1999969482421875</ele>
        <time>2025-09-05T15:41:47.000Z</time>
        <extensions>
          <ns3:TrackPointExtension>
            <ns3:hr>178</ns3:hr>
            <ns3:cad>81</ns3:cad>
          </ns3:TrackPointExtension>
        </extensions>
      </trkpt>
      <trkpt lat="52.08539080806076526641845703125" lon="1.4433731138706207275390625">
        <ele>-107</ele>
        <time>2025-09-05T15:41:52.000Z</time>
        <extensions>
          <ns3:TrackPointExtension>
            <ns3:hr>182</ns3:hr>
            <ns3:cad>81</ns3:cad>
          </ns3:TrackPointExtension>
        </extensions>
      </trkpt>
      <trkpt lat="52.08539533428847789764404296875" lon="1.44336733035743236541748046875">
        <ele>-107</ele>
        <time>2025-09-05T15:41:53.000Z</time>
        <extensions>
          <ns3:TrackPointExtension>
            <ns3:hr>182</ns3:hr>
            <ns3:cad>81</ns3:cad>
          </ns3:TrackPointExtension>
        </extensions>
      </trkpt>
      <trkpt lat="52.08550949580967426300048828125" lon="1.44329608418047428131103515625">
        <ele>-106.8000030517578125</ele>
        <time>2025-09-05T15:42:02.000Z</time>
        <extensions>
          <ns3:TrackPointExtension>
            <ns3:hr>179</ns3:hr>
            <ns3:cad>81</ns3:cad>
          </ns3:TrackPointExtension>
        </extensions>
      </trkpt>
      <trkpt lat="52.085551656782627105712890625" lon="1.44329893402755260467529296875">
        <ele>-106.8000030517578125</ele>
        <time>2025-09-05T15:42:05.000Z</time>
        <extensions>
          <ns3:TrackPointExtension>
            <ns3:hr>176</ns3:hr>
            <ns3:cad>81</ns3:cad>
          </ns3:TrackPointExtension>
        </extensions>
      </trkpt>
      <trkpt lat="52.08562466315925121307373046875" lon="1.4432649873197078704833984375">
        <ele>-106.8000030517578125</ele>
        <time>2025-09-05T15:42:10.000Z</time>
        <extensions>
          <ns3:TrackPointExtension>
            <ns3:hr>175</ns3:hr>
            <ns3:cad>81</ns3:cad>
          </ns3:TrackPointExtension>
        </extensions>
      </trkpt>
      <trkpt lat="52.085803113877773284912109375" lon="1.44327378831803798675537109375">
        <ele>-106.8000030517578125</ele>
        <time>2025-09-05T15:42:21.000Z</time>
        <extensions>
          <ns3:TrackPointExtension>
            <ns3:hr>175</ns3:hr>
            <ns3:cad>81</ns3:cad>
          </ns3:TrackPointExtension>
        </extensions>
      </trkpt>
      <trkpt lat="52.0859380625188350677490234375" lon="1.44328393042087554931640625">
        <ele>-106.8000030517578125</ele>
        <time>2025-09-05T15:42:30.000Z</time>
        <extensions>
          <ns3:TrackPointExtension>
            <ns3:hr>176</ns3:hr>
            <ns3:cad>81</ns3:cad>
          </ns3:TrackPointExtension>
        </extensions>
      </trkpt>
      <trkpt lat="52.0861875079572200775146484375" lon="1.44335274584591388702392578125">
        <ele>-106.8000030517578125</ele>
        <time>2025-09-05T15:42:38.000Z</time>
        <extensions>
          <ns3:TrackPointExtension>
            <ns3:hr>176</ns3:hr>
            <ns3:cad>81</ns3:cad>
          </ns3:TrackPointExtension>
        </extensions>
      </trkpt>
      <trkpt lat="52.08624961785972118377685546875" lon="1.44338627345860004425048828125">
        <ele>-106.8000030517578125</ele>
        <time>2025-09-05T15:42:40.000Z</time>
        <extensions>
          <ns3:TrackPointExtension>
            <ns3:hr>176</ns3:hr>
            <ns3:cad>81</ns3:cad>
          </ns3:TrackPointExtension>
        </extensions>
      </trkpt>
      <trkpt lat="52.0864439941942691802978515625" lon="1.44344628788530826568603515625">
        <ele>-107</ele>
        <time>2025-09-05T15:42:46.000Z</time>
        <extensions>
          <ns3:TrackPointExtension>
            <ns3:hr>176</ns3:hr>
            <ns3:cad>81</ns3:cad>
          </ns3:TrackPointExtension>
        </extensions>
      </trkpt>
      <trkpt lat="52.08649688400328159332275390625" lon="1.44346640445291996002197265625">
        <ele>-107</ele>
        <time>2025-09-05T15:42:48.000Z</time>
        <extensions>
          <ns3:TrackPointExtension>
            <ns3:hr>176</ns3:hr>
            <ns3:cad>81</ns3:cad>
          </ns3:TrackPointExtension>
        </extensions>
      </trkpt>
      <trkpt lat="52.0866817049682140350341796875" lon="1.44353614188730716705322265625">
        <ele>-107</ele>
        <time>2025-09-05T15:42:54.000Z</time>
        <extensions>
          <ns3:TrackPointExtension>
            <ns3:hr>176</ns3:hr>
            <ns3:cad>81</ns3:cad>
          </ns3:TrackPointExtension>
        </extensions>
      </trkpt>
      <trkpt lat="52.0867249555885791778564453125" lon="1.4435593597590923309326171875">
        <ele>-107</ele>
        <time>2025-09-05T15:42:56.000Z</time>
        <extensions>
          <ns3:TrackPointExtension>
            <ns3:hr>174</ns3:hr>
            <ns3:cad>81</ns3:cad>
          </ns3:TrackPointExtension>
        </extensions>
      </trkpt>
      <trkpt lat="52.0868915878236293792724609375" lon="1.443525664508342742919921875">
        <ele>-107</ele>
        <time>2025-09-05T15:43:03.000Z</time>
        <extensions>
          <ns3:TrackPointExtension>
            <ns3:hr>176</ns3:hr>
            <ns3:cad>81</ns3:cad>
          </ns3:TrackPointExtension>
        </extensions>
      </trkpt>
      <trkpt lat="52.0869375206530094146728515625" lon="1.44351183436810970306396484375">
        <ele>-107</ele>
        <time>2025-09-05T15:43:05.000Z</time>
        <extensions>
          <ns3:TrackPointExtension>
            <ns3:hr>175</ns3:hr>
            <ns3:cad>80</ns3:cad>
          </ns3:TrackPointExtension>
        </extensions>
      </trkpt>
      <trkpt lat="52.0870359241962432861328125" lon="1.4435179531574249267578125">
        <ele>-107.1999969482421875</ele>
        <time>2025-09-05T15:43:10.000Z</time>
        <extensions>
          <ns3:TrackPointExtension>
            <ns3:hr>172</ns3:hr>
            <ns3:cad>80</ns3:cad>
          </ns3:TrackPointExtension>
        </extensions>
      </trkpt>
      <trkpt lat="52.0871145464479923248291015625" lon="1.44353806972503662109375">
        <ele>-107.1999969482421875</ele>
        <time>2025-09-05T15:43:14.000Z</time>
        <extensions>
          <ns3:TrackPointExtension>
            <ns3:hr>172</ns3:hr>
            <ns3:cad>80</ns3:cad>
          </ns3:TrackPointExtension>
        </extensions>
      </trkpt>
      <trkpt lat="52.08724773488938808441162109375" lon="1.44359028898179531097412109375">
        <ele>-107.40000152587890625</ele>
        <time>2025-09-05T15:43:22.000Z</time>
        <extensions>
          <ns3:TrackPointExtension>
            <ns3:hr>170</ns3:hr>
            <ns3:cad>58</ns3:cad>
          </ns3:TrackPointExtension>
        </extensions>
      </trkpt>
      <trkpt lat="52.08743900991976261138916015625" lon="1.44363395869731903076171875">
        <ele>-107.8000030517578125</ele>
        <time>2025-09-05T15:43:29.000Z</time>
        <extensions>
          <ns3:TrackPointExtension>
            <ns3:hr>168</ns3:hr>
            <ns3:cad>58</ns3:cad>
          </ns3:TrackPointExtension>
        </extensions>
      </trkpt>
      <trkpt lat="52.08747102878987789154052734375" lon="1.44364535808563232421875">
        <ele>-108</ele>
        <time>2025-09-05T15:43:30.000Z</time>
        <extensions>
          <ns3:TrackPointExtension>
            <ns3:hr>167</ns3:hr>
            <ns3:cad>61</ns3:cad>
          </ns3:TrackPointExtension>
        </extensions>
      </trkpt>
      <trkpt lat="52.0875366590917110443115234375" lon="1.44369036890566349029541015625">
        <ele>-108.40000152587890625</ele>
        <time>2025-09-05T15:43:34.000Z</time>
        <extensions>
          <ns3:TrackPointExtension>
            <ns3:hr>168</ns3:hr>
            <ns3:cad>60</ns3:cad>
          </ns3:TrackPointExtension>
        </extensions>
      </trkpt>
      <trkpt lat="52.08756155334413051605224609375" lon="1.44373177550733089447021484375">
        <ele>-108.8000030517578125</ele>
        <time>2025-09-05T15:43:37.000Z</time>
        <extensions>
          <ns3:TrackPointExtension>
            <ns3:hr>167</ns3:hr>
            <ns3:cad>60</ns3:cad>
          </ns3:TrackPointExtension>
        </extensions>
      </trkpt>
      <trkpt lat="52.0876127667725086212158203125" lon="1.4437451027333736419677734375">
        <ele>-109.40000152587890625</ele>
        <time>2025-09-05T15:43:42.000Z</time>
        <extensions>
          <ns3:TrackPointExtension>
            <ns3:hr>164</ns3:hr>
            <ns3:cad>60</ns3:cad>
          </ns3:TrackPointExtension>
        </extensions>
      </trkpt>
      <trkpt lat="52.0876778103411197662353515625" lon="1.44377410411834716796875">
        <ele>-110.1999969482421875</ele>
        <time>2025-09-05T15:43:46.000Z</time>
        <extensions>
          <ns3:TrackPointExtension>
            <ns3:hr>163</ns3:hr>
            <ns3:cad>58</ns3:cad>
          </ns3:TrackPointExtension>
        </extensions>
      </trkpt>
      <trkpt lat="52.08770857192575931549072265625" lon="1.443807967007160186767578125">
        <ele>-110.59999847412109375</ele>
        <time>2025-09-05T15:43:48.000Z</time>
        <extensions>
          <ns3:TrackPointExtension>
            <ns3:hr>165</ns3:hr>
            <ns3:cad>60</ns3:cad>
          </ns3:TrackPointExtension>
        </extensions>
      </trkpt>
      <trkpt lat="52.08774142898619174957275390625" lon="1.4438272453844547271728515625">
        <ele>-111.1999969482421875</ele>
        <time>2025-09-05T15:43:52.000Z</time>
        <extensions>
          <ns3:TrackPointExtension>
            <ns3:hr>168</ns3:hr>
            <ns3:cad>60</ns3:cad>
          </ns3:TrackPointExtension>
        </extensions>
      </trkpt>
      <trkpt lat="52.08775886334478855133056640625" lon="1.44385398365557193756103515625">
        <ele>-111.59999847412109375</ele>
        <time>2025-09-05T15:43:54.000Z</time>
        <extensions>
          <ns3:TrackPointExtension>
            <ns3:hr>168</ns3:hr>
            <ns3:cad>58</ns3:cad>
          </ns3:TrackPointExtension>
        </extensions>
      </trkpt>
      <trkpt lat="52.08777420222759246826171875" lon="1.4438678137958049774169921875">
        <ele>-111.8000030517578125</ele>
        <time>2025-09-05T15:43:55.000Z</time>
        <extensions>
          <ns3:TrackPointExtension>
            <ns3:hr>168</ns3:hr>
            <ns3:cad>58</ns3:cad>
          </ns3:TrackPointExtension>
        </extensions>
      </trkpt>
      <trkpt lat="52.08789666183292865753173828125" lon="1.4439015090465545654296875">
        <ele>-112.59999847412109375</ele>
        <time>2025-09-05T15:43:59.000Z</time>
        <extensions>
          <ns3:TrackPointExtension>
            <ns3:hr>166</ns3:hr>
            <ns3:cad>75</ns3:cad>
          </ns3:TrackPointExtension>
        </extensions>
      </trkpt>
      <trkpt lat="52.0879279263317584991455078125" lon="1.4439127407968044281005859375">
        <ele>-112.8000030517578125</ele>
        <time>2025-09-05T15:44:00.000Z</time>
        <extensions>
          <ns3:TrackPointExtension>
            <ns3:hr>165</ns3:hr>
            <ns3:cad>75</ns3:cad>
          </ns3:TrackPointExtension>
        </extensions>
      </trkpt>
      <trkpt lat="52.08805206231772899627685546875" lon="1.44396127201616764068603515625">
        <ele>-113.40000152587890625</ele>
        <time>2025-09-05T15:44:04.000Z</time>
        <extensions>
          <ns3:TrackPointExtension>
            <ns3:hr>168</ns3:hr>
            <ns3:cad>80</ns3:cad>
          </ns3:TrackPointExtension>
        </extensions>
      </trkpt>
      <trkpt lat="52.08808206953108310699462890625" lon="1.44397334195673465728759765625">
        <ele>-113.40000152587890625</ele>
        <time>2025-09-05T15:44:05.000Z</time>
        <extensions>
          <ns3:TrackPointExtension>
            <ns3:hr>170</ns3:hr>
            <ns3:cad>80</ns3:cad>
          </ns3:TrackPointExtension>
        </extensions>
      </trkpt>
      <trkpt lat="52.0881555788218975067138671875" lon="1.44400418736040592193603515625">
        <ele>-113.8000030517578125</ele>
        <time>2025-09-05T15:44:08.000Z</time>
        <extensions>
          <ns3:TrackPointExtension>
            <ns3:hr>174</ns3:hr>
            <ns3:cad>81</ns3:cad>
          </ns3:TrackPointExtension>
        </extensions>
      </trkpt>
      <trkpt lat="52.08818030543625354766845703125" lon="1.444004438817501068115234375">
        <ele>-113.8000030517578125</ele>
        <time>2025-09-05T15:44:09.000Z</time>
        <extensions>
          <ns3:TrackPointExtension>
            <ns3:hr>175</ns3:hr>
            <ns3:cad>81</ns3:cad>
          </ns3:TrackPointExtension>
        </extensions>
      </trkpt>
      <trkpt lat="52.08820444531738758087158203125" lon="1.4440113119781017303466796875">
        <ele>-113.8000030517578125</ele>
        <time>2025-09-05T15:44:10.000Z</time>
        <extensions>
          <ns3:TrackPointExtension>
            <ns3:hr>175</ns3:hr>
            <ns3:cad>81</ns3:cad>
          </ns3:TrackPointExtension>
        </extensions>
      </trkpt>
      <trkpt lat="52.08836001344025135040283203125" lon="1.44403536804020404815673828125">
        <ele>-114</ele>
        <time>2025-09-05T15:44:17.000Z</time>
        <extensions>
          <ns3:TrackPointExtension>
            <ns3:hr>177</ns3:hr>
            <ns3:cad>81</ns3:cad>
          </ns3:TrackPointExtension>
        </extensions>
      </trkpt>
      <trkpt lat="52.08851004950702190399169921875" lon="1.44402480684220790863037109375">
        <ele>-114</ele>
        <time>2025-09-05T15:44:24.000Z</time>
        <extensions>
          <ns3:TrackPointExtension>
            <ns3:hr>180</ns3:hr>
            <ns3:cad>82</ns3:cad>
          </ns3:TrackPointExtension>
        </extensions>
      </trkpt>
      <trkpt lat="52.0886427350342273712158203125" lon="1.4440917782485485076904296875">
        <ele>-113.8000030517578125</ele>
        <time>2025-09-05T15:44:31.000Z</time>
        <extensions>
          <ns3:TrackPointExtension>
            <ns3:hr>179</ns3:hr>
            <ns3:cad>81</ns3:cad>
          </ns3:TrackPointExtension>
        </extensions>
      </trkpt>
      <trkpt lat="52.08879369311034679412841796875" lon="1.44414491951465606689453125">
        <ele>-113.59999847412109375</ele>
        <time>2025-09-05T15:44:38.000Z</time>
        <extensions>
          <ns3:TrackPointExtension>
            <ns3:hr>179</ns3:hr>
            <ns3:cad>81</ns3:cad>
          </ns3:TrackPointExtension>
        </extensions>
      </trkpt>
      <trkpt lat="52.08893199451267719268798828125" lon="1.44422530196607112884521484375">
        <ele>-113.1999969482421875</ele>
        <time>2025-09-05T15:44:43.000Z</time>
        <extensions>
          <ns3:TrackPointExtension>
            <ns3:hr>176</ns3:hr>
            <ns3:cad>81</ns3:cad>
          </ns3:TrackPointExtension>
        </extensions>
      </trkpt>
      <trkpt lat="52.08897792734205722808837890625" lon="1.44423787482082843780517578125">
        <ele>-113</ele>
        <time>2025-09-05T15:44:45.000Z</time>
        <extensions>
          <ns3:TrackPointExtension>
            <ns3:hr>175</ns3:hr>
            <ns3:cad>81</ns3:cad>
          </ns3:TrackPointExtension>
        </extensions>
      </trkpt>
      <trkpt lat="52.0890759117901325225830078125" lon="1.44426234997808933258056640625">
        <ele>-112.8000030517578125</ele>
        <time>2025-09-05T15:44:49.000Z</time>
        <extensions>
          <ns3:TrackPointExtension>
            <ns3:hr>173</ns3:hr>
            <ns3:cad>81</ns3:cad>
          </ns3:TrackPointExtension>
        </extensions>
      </trkpt>
      <trkpt lat="52.0891414582729339599609375" lon="1.44429034553468227386474609375">
        <ele>-112.59999847412109375</ele>
        <time>2025-09-05T15:44:52.000Z</time>
        <extensions>
          <ns3:TrackPointExtension>
            <ns3:hr>173</ns3:hr>
            <ns3:cad>81</ns3:cad>
          </ns3:TrackPointExtension>
        </extensions>
      </trkpt>
      <trkpt lat="52.0893008820712566375732421875" lon="1.44434164278209209442138671875">
        <ele>-112</ele>
        <time>2025-09-05T15:44:59.000Z</time>
        <extensions>
          <ns3:TrackPointExtension>
            <ns3:hr>174</ns3:hr>
            <ns3:cad>81</ns3:cad>
          </ns3:TrackPointExtension>
        </extensions>
      </trkpt>
      <trkpt lat="52.08935134112834930419921875" lon="1.444377265870571136474609375">
        <ele>-111.8000030517578125</ele>
        <time>2025-09-05T15:45:02.000Z</time>
        <extensions>
          <ns3:TrackPointExtension>
            <ns3:hr>175</ns3:hr>
            <ns3:cad>81</ns3:cad>
          </ns3:TrackPointExtension>
        </extensions>
      </trkpt>
      <trkpt lat="52.0894245989620685577392578125" lon="1.44444088451564311981201171875">
        <ele>-111.40000152587890625</ele>
        <time>2025-09-05T15:45:06.000Z</time>
        <extensions>
          <ns3:TrackPointExtension>
            <ns3:hr>173</ns3:hr>
            <ns3:cad>81</ns3:cad>
          </ns3:TrackPointExtension>
        </extensions>
      </trkpt>
      <trkpt lat="52.0895369164645671844482421875" lon="1.44449385814368724822998046875">
        <ele>-110.8000030517578125</ele>
        <time>2025-09-05T15:45:12.000Z</time>
        <extensions>
          <ns3:TrackPointExtension>
            <ns3:hr>176</ns3:hr>
            <ns3:cad>81</ns3:cad>
          </ns3:TrackPointExtension>
        </extensions>
      </trkpt>
      <trkpt lat="52.0896130241453647613525390625" lon="1.44452218897640705108642578125">
        <ele>-109.59999847412109375</ele>
        <time>2025-09-05T15:45:16.000Z</time>
        <extensions>
          <ns3:TrackPointExtension>
            <ns3:hr>176</ns3:hr>
            <ns3:cad>81</ns3:cad>
          </ns3:TrackPointExtension>
        </extensions>
      </trkpt>
      <trkpt lat="52.0896939933300018310546875" lon="1.44453174434602260589599609375">
        <ele>-108.40000152587890625</ele>
        <time>2025-09-05T15:45:20.000Z</time>
        <extensions>
          <ns3:TrackPointExtension>
            <ns3:hr>179</ns3:hr>
            <ns3:cad>81</ns3:cad>
          </ns3:TrackPointExtension>
        </extensions>
      </trkpt>
      <trkpt lat="52.089779488742351531982421875" lon="1.444529481232166290283203125">
        <ele>-107.1999969482421875</ele>
        <time>2025-09-05T15:45:24.000Z</time>
        <extensions>
          <ns3:TrackPointExtension>
            <ns3:hr>180</ns3:hr>
            <ns3:cad>81</ns3:cad>
          </ns3:TrackPointExtension>
        </extensions>
      </trkpt>
      <trkpt lat="52.089855931699275970458984375" lon="1.44457885064184665679931640625">
        <ele>-106</ele>
        <time>2025-09-05T15:45:28.000Z</time>
        <extensions>
          <ns3:TrackPointExtension>
            <ns3:hr>181</ns3:hr>
            <ns3:cad>80</ns3:cad>
          </ns3:TrackPointExtension>
        </extensions>
      </trkpt>
      <trkpt lat="52.0899523235857486724853515625" lon="1.44462612457573413848876953125">
        <ele>-104.8000030517578125</ele>
        <time>2025-09-05T15:45:32.000Z</time>
        <extensions>
          <ns3:TrackPointExtension>
            <ns3:hr>179</ns3:hr>
            <ns3:cad>80</ns3:cad>
          </ns3:TrackPointExtension>
        </extensions>
      </trkpt>
      <trkpt lat="52.090035974979400634765625" lon="1.44463844597339630126953125">
        <ele>-103.8000030517578125</ele>
        <time>2025-09-05T15:45:36.000Z</time>
        <extensions>
          <ns3:TrackPointExtension>
            <ns3:hr>179</ns3:hr>
            <ns3:cad>81</ns3:cad>
          </ns3:TrackPointExtension>
        </extensions>
      </trkpt>
      <trkpt lat="52.0900606177747249603271484375" lon="1.44463710486888885498046875">
        <ele>-103.59999847412109375</ele>
        <time>2025-09-05T15:45:37.000Z</time>
        <extensions>
          <ns3:TrackPointExtension>
            <ns3:hr>180</ns3:hr>
            <ns3:cad>81</ns3:cad>
          </ns3:TrackPointExtension>
        </extensions>
      </trkpt>
      <trkpt lat="52.09019011817872524261474609375" lon="1.4446215145289897918701171875">
        <ele>-102.59999847412109375</ele>
        <time>2025-09-05T15:45:42.000Z</time>
        <extensions>
          <ns3:TrackPointExtension>
            <ns3:hr>180</ns3:hr>
            <ns3:cad>81</ns3:cad>
          </ns3:TrackPointExtension>
        </extensions>
      </trkpt>
      <trkpt lat="52.09025482647120952606201171875" lon="1.44464389421045780181884765625">
        <ele>-102</ele>
        <time>2025-09-05T15:45:45.000Z</time>
        <extensions>
          <ns3:TrackPointExtension>
            <ns3:hr>181</ns3:hr>
            <ns3:cad>81</ns3:cad>
          </ns3:TrackPointExtension>
        </extensions>
      </trkpt>
      <trkpt lat="52.09029271267354488372802734375" lon="1.44466116093099117279052734375">
        <ele>-101.59999847412109375</ele>
        <time>2025-09-05T15:45:48.000Z</time>
        <extensions>
          <ns3:TrackPointExtension>
            <ns3:hr>182</ns3:hr>
            <ns3:cad>81</ns3:cad>
          </ns3:TrackPointExtension>
        </extensions>
      </trkpt>
      <trkpt lat="52.090369574725627899169921875" lon="1.44470709376037120819091796875">
        <ele>-101</ele>
        <time>2025-09-05T15:45:52.000Z</time>
        <extensions>
          <ns3:TrackPointExtension>
            <ns3:hr>180</ns3:hr>
            <ns3:cad>81</ns3:cad>
          </ns3:TrackPointExtension>
        </extensions>
      </trkpt>
      <trkpt lat="52.0904639549553394317626953125" lon="1.444758139550685882568359375">
        <ele>-100.40000152587890625</ele>
        <time>2025-09-05T15:45:56.000Z</time>
        <extensions>
          <ns3:TrackPointExtension>
            <ns3:hr>180</ns3:hr>
            <ns3:cad>81</ns3:cad>
          </ns3:TrackPointExtension>
        </extensions>
      </trkpt>
      <trkpt lat="52.090557329356670379638671875" lon="1.44479694776237010955810546875">
        <ele>-100</ele>
        <time>2025-09-05T15:46:00.000Z</time>
        <extensions>
          <ns3:TrackPointExtension>
            <ns3:hr>179</ns3:hr>
            <ns3:cad>81</ns3:cad>
          </ns3:TrackPointExtension>
        </extensions>
      </trkpt>
      <trkpt lat="52.0906379632651805877685546875" lon="1.44480231218039989471435546875">
        <ele>-99.40000152587890625</ele>
        <time>2025-09-05T15:46:05.000Z</time>
        <extensions>
          <ns3:TrackPointExtension>
            <ns3:hr>176</ns3:hr>
            <ns3:cad>80</ns3:cad>
          </ns3:TrackPointExtension>
        </extensions>
      </trkpt>
      <trkpt lat="52.0906624384224414825439453125" lon="1.44480767659842967987060546875">
        <ele>-99.1999969482421875</ele>
        <time>2025-09-05T15:46:07.000Z</time>
        <extensions>
          <ns3:TrackPointExtension>
            <ns3:hr>176</ns3:hr>
            <ns3:cad>81</ns3:cad>
          </ns3:TrackPointExtension>
        </extensions>
      </trkpt>
      <trkpt lat="52.09075438790023326873779296875" lon="1.44486433826386928558349609375">
        <ele>-98.59999847412109375</ele>
        <time>2025-09-05T15:46:13.000Z</time>
        <extensions>
          <ns3:TrackPointExtension>
            <ns3:hr>176</ns3:hr>
            <ns3:cad>80</ns3:cad>
          </ns3:TrackPointExtension>
        </extensions>
      </trkpt>
      <trkpt lat="52.09080317057669162750244140625" lon="1.4448858797550201416015625">
        <ele>-98.40000152587890625</ele>
        <time>2025-09-05T15:46:15.000Z</time>
        <extensions>
          <ns3:TrackPointExtension>
            <ns3:hr>176</ns3:hr>
            <ns3:cad>81</ns3:cad>
          </ns3:TrackPointExtension>
        </extensions>
      </trkpt>
      <trkpt lat="52.09086284972727298736572265625" lon="1.44492502324283123016357421875">
        <ele>-98</ele>
        <time>2025-09-05T15:46:19.000Z</time>
        <extensions>
          <ns3:TrackPointExtension>
            <ns3:hr>178</ns3:hr>
            <ns3:cad>81</ns3:cad>
          </ns3:TrackPointExtension>
        </extensions>
      </trkpt>
      <trkpt lat="52.09098279476165771484375" lon="1.44498319365084171295166015625">
        <ele>-97.8000030517578125</ele>
        <time>2025-09-05T15:46:27.000Z</time>
        <extensions>
          <ns3:TrackPointExtension>
            <ns3:hr>178</ns3:hr>
            <ns3:cad>81</ns3:cad>
          </ns3:TrackPointExtension>
        </extensions>
      </trkpt>
      <trkpt lat="52.09108832292258739471435546875" lon="1.44500113092362880706787109375">
        <ele>-97.59999847412109375</ele>
        <time>2025-09-05T15:46:35.000Z</time>
        <extensions>
          <ns3:TrackPointExtension>
            <ns3:hr>180</ns3:hr>
            <ns3:cad>81</ns3:cad>
          </ns3:TrackPointExtension>
        </extensions>
      </trkpt>
      <trkpt lat="52.091113887727260589599609375" lon="1.444973051548004150390625">
        <ele>-97.59999847412109375</ele>
        <time>2025-09-05T15:46:38.000Z</time>
        <extensions>
          <ns3:TrackPointExtension>
            <ns3:hr>180</ns3:hr>
            <ns3:cad>0</ns3:cad>
          </ns3:TrackPointExtension>
        </extensions>
      </trkpt>
      <trkpt lat="52.09114850498735904693603515625" lon="1.44493055529892444610595703125">
        <ele>-97.59999847412109375</ele>
        <time>2025-09-05T15:46:40.000Z</time>
        <extensions>
          <ns3:TrackPointExtension>
            <ns3:hr>181</ns3:hr>
            <ns3:cad>0</ns3:cad>
          </ns3:TrackPointExtension>
        </extensions>
      </trkpt>
      <trkpt lat="52.091183960437774658203125" lon="1.44488043151795864105224609375">
        <ele>-97.8000030517578125</ele>
        <time>2025-09-05T15:46:42.000Z</time>
        <extensions>
          <ns3:TrackPointExtension>
            <ns3:hr>178</ns3:hr>
            <ns3:cad>0</ns3:cad>
          </ns3:TrackPointExtension>
        </extensions>
      </trkpt>
      <trkpt lat="52.0912282168865203857421875" lon="1.44479828886687755584716796875">
        <ele>-98</ele>
        <time>2025-09-05T15:46:46.000Z</time>
        <extensions>
          <ns3:TrackPointExtension>
            <ns3:hr>176</ns3:hr>
            <ns3:cad>59</ns3:cad>
          </ns3:TrackPointExtension>
        </extensions>
      </trkpt>
      <trkpt lat="52.0912672765552997589111328125" lon="1.44466652534902095794677734375">
        <ele>-99.1999969482421875</ele>
        <time>2025-09-05T15:46:51.000Z</time>
        <extensions>
          <ns3:TrackPointExtension>
            <ns3:hr>176</ns3:hr>
            <ns3:cad>60</ns3:cad>
          </ns3:TrackPointExtension>
        </extensions>
      </trkpt>
      <trkpt lat="52.09127716720104217529296875" lon="1.44464573822915554046630859375">
        <ele>-99.40000152587890625</ele>
        <time>2025-09-05T15:46:52.000Z</time>
        <extensions>
          <ns3:TrackPointExtension>
            <ns3:hr>175</ns3:hr>
            <ns3:cad>60</ns3:cad>
          </ns3:TrackPointExtension>
        </extensions>
      </trkpt>
      <trkpt lat="52.09128228016197681427001953125" lon="1.44462126307189464569091796875">
        <ele>-99.8000030517578125</ele>
        <time>2025-09-05T15:46:53.000Z</time>
        <extensions>
          <ns3:TrackPointExtension>
            <ns3:hr>175</ns3:hr>
            <ns3:cad>60</ns3:cad>
          </ns3:TrackPointExtension>
        </extensions>
      </trkpt>
      <trkpt lat="52.0913034863770008087158203125" lon="1.44456200301647186279296875">
        <ele>-100.8000030517578125</ele>
        <time>2025-09-05T15:46:56.000Z</time>
        <extensions>
          <ns3:TrackPointExtension>
            <ns3:hr>175</ns3:hr>
            <ns3:cad>121</ns3:cad>
          </ns3:TrackPointExtension>
        </extensions>
      </trkpt>
      <trkpt lat="52.091325782239437103271484375" lon="1.444501318037509918212890625">
        <ele>-101.8000030517578125</ele>
        <time>2025-09-05T15:46:59.000Z</time>
        <extensions>
          <ns3:TrackPointExtension>
            <ns3:hr>172</ns3:hr>
            <ns3:cad>61</ns3:cad>
          </ns3:TrackPointExtension>
        </extensions>
      </trkpt>
      <trkpt lat="52.09133173339068889617919921875" lon="1.4444743283092975616455078125">
        <ele>-102.1999969482421875</ele>
        <time>2025-09-05T15:47:00.000Z</time>
        <extensions>
          <ns3:TrackPointExtension>
            <ns3:hr>171</ns3:hr>
            <ns3:cad>61</ns3:cad>
          </ns3:TrackPointExtension>
        </extensions>
      </trkpt>
      <trkpt lat="52.09134648554027080535888671875" lon="1.44442143850028514862060546875">
        <ele>-102.8000030517578125</ele>
        <time>2025-09-05T15:47:02.000Z</time>
        <extensions>
          <ns3:TrackPointExtension>
            <ns3:hr>170</ns3:hr>
            <ns3:cad>61</ns3:cad>
          </ns3:TrackPointExtension>
        </extensions>
      </trkpt>
      <trkpt lat="52.091361992061138153076171875" lon="1.44435354508459568023681640625">
        <ele>-104</ele>
        <time>2025-09-05T15:47:05.000Z</time>
        <extensions>
          <ns3:TrackPointExtension>
            <ns3:hr>169</ns3:hr>
            <ns3:cad>61</ns3:cad>
          </ns3:TrackPointExtension>
        </extensions>
      </trkpt>
      <trkpt lat="52.0913661830127239227294921875" lon="1.44430493004620075225830078125">
        <ele>-105</ele>
        <time>2025-09-05T15:47:08.000Z</time>
        <extensions>
          <ns3:TrackPointExtension>
            <ns3:hr>168</ns3:hr>
            <ns3:cad>61</ns3:cad>
          </ns3:TrackPointExtension>
        </extensions>
      </trkpt>
      <trkpt lat="52.0913695357739925384521484375" lon="1.444289423525333404541015625">
        <ele>-105.40000152587890625</ele>
        <time>2025-09-05T15:47:09.000Z</time>
        <extensions>
          <ns3:TrackPointExtension>
            <ns3:hr>168</ns3:hr>
            <ns3:cad>61</ns3:cad>
          </ns3:TrackPointExtension>
        </extensions>
      </trkpt>
      <trkpt lat="52.09137565456330776214599609375" lon="1.44424977712333202362060546875">
        <ele>-106.1999969482421875</ele>
        <time>2025-09-05T15:47:11.000Z</time>
        <extensions>
          <ns3:TrackPointExtension>
            <ns3:hr>166</ns3:hr>
            <ns3:cad>61</ns3:cad>
          </ns3:TrackPointExtension>
        </extensions>
      </trkpt>
      <trkpt lat="52.09139023907482624053955078125" lon="1.444180794060230255126953125">
        <ele>-107.1999969482421875</ele>
        <time>2025-09-05T15:47:14.000Z</time>
        <extensions>
          <ns3:TrackPointExtension>
            <ns3:hr>165</ns3:hr>
            <ns3:cad>61</ns3:cad>
          </ns3:TrackPointExtension>
        </extensions>
      </trkpt>
      <trkpt lat="52.09139761514961719512939453125" lon="1.444103009998798370361328125">
        <ele>-108.40000152587890625</ele>
        <time>2025-09-05T15:47:17.000Z</time>
        <extensions>
          <ns3:TrackPointExtension>
            <ns3:hr>164</ns3:hr>
            <ns3:cad>61</ns3:cad>
          </ns3:TrackPointExtension>
        </extensions>
      </trkpt>
      <trkpt lat="52.091396860778331756591796875" lon="1.44408046267926692962646484375">
        <ele>-108.8000030517578125</ele>
        <time>2025-09-05T15:47:18.000Z</time>
        <extensions>
          <ns3:TrackPointExtension>
            <ns3:hr>165</ns3:hr>
            <ns3:cad>61</ns3:cad>
          </ns3:TrackPointExtension>
        </extensions>
      </trkpt>
      <trkpt lat="52.09139493294060230255126953125" lon="1.44403620623052120208740234375">
        <ele>-109.59999847412109375</ele>
        <time>2025-09-05T15:47:20.000Z</time>
        <extensions>
          <ns3:TrackPointExtension>
            <ns3:hr>164</ns3:hr>
            <ns3:cad>61</ns3:cad>
          </ns3:TrackPointExtension>
        </extensions>
      </trkpt>
      <trkpt lat="52.09139392711222171783447265625" lon="1.44395406357944011688232421875">
        <ele>-111</ele>
        <time>2025-09-05T15:47:23.000Z</time>
        <extensions>
          <ns3:TrackPointExtension>
            <ns3:hr>165</ns3:hr>
            <ns3:cad>62</ns3:cad>
          </ns3:TrackPointExtension>
        </extensions>
      </trkpt>
      <trkpt lat="52.09139795042574405670166015625" lon="1.4438926242291927337646484375">
        <ele>-111.8000030517578125</ele>
        <time>2025-09-05T15:47:25.000Z</time>
        <extensions>
          <ns3:TrackPointExtension>
            <ns3:hr>164</ns3:hr>
            <ns3:cad>61</ns3:cad>
          </ns3:TrackPointExtension>
        </extensions>
      </trkpt>
      <trkpt lat="52.091395854949951171875" lon="1.44386404193937778472900390625">
        <ele>-112.1999969482421875</ele>
        <time>2025-09-05T15:47:26.000Z</time>
        <extensions>
          <ns3:TrackPointExtension>
            <ns3:hr>163</ns3:hr>
            <ns3:cad>61</ns3:cad>
          </ns3:TrackPointExtension>
        </extensions>
      </trkpt>
      <trkpt lat="52.09139241836965084075927734375" lon="1.4437789656221866607666015625">
        <ele>-113.8000030517578125</ele>
        <time>2025-09-05T15:47:29.000Z</time>
        <extensions>
          <ns3:TrackPointExtension>
            <ns3:hr>162</ns3:hr>
            <ns3:cad>62</ns3:cad>
          </ns3:TrackPointExtension>
        </extensions>
      </trkpt>
      <trkpt lat="52.09140147082507610321044921875" lon="1.44370042718946933746337890625">
        <ele>-115.1999969482421875</ele>
        <time>2025-09-05T15:47:32.000Z</time>
        <extensions>
          <ns3:TrackPointExtension>
            <ns3:hr>164</ns3:hr>
            <ns3:cad>0</ns3:cad>
          </ns3:TrackPointExtension>
        </extensions>
      </trkpt>
      <trkpt lat="52.0914052426815032958984375" lon="1.44367343746125698089599609375">
        <ele>-115.59999847412109375</ele>
        <time>2025-09-05T15:47:33.000Z</time>
        <extensions>
          <ns3:TrackPointExtension>
            <ns3:hr>160</ns3:hr>
            <ns3:cad>0</ns3:cad>
          </ns3:TrackPointExtension>
        </extensions>
      </trkpt>
      <trkpt lat="52.0914079248905181884765625" lon="1.44361426122486591339111328125">
        <ele>-116.59999847412109375</ele>
        <time>2025-09-05T15:47:35.000Z</time>
        <extensions>
          <ns3:TrackPointExtension>
            <ns3:hr>158</ns3:hr>
            <ns3:cad>0</ns3:cad>
          </ns3:TrackPointExtension>
        </extensions>
      </trkpt>
      <trkpt lat="52.09141890518367290496826171875" lon="1.44352189265191555023193359375">
        <ele>-118</ele>
        <time>2025-09-05T15:47:38.000Z</time>
        <extensions>
          <ns3:TrackPointExtension>
            <ns3:hr>157</ns3:hr>
            <ns3:cad>58</ns3:cad>
          </ns3:TrackPointExtension>
        </extensions>
      </trkpt>
      <trkpt lat="52.0914278738200664520263671875" lon="1.44346841610968112945556640625">
        <ele>-119</ele>
        <time>2025-09-05T15:47:40.000Z</time>
        <extensions>
          <ns3:TrackPointExtension>
            <ns3:hr>155</ns3:hr>
            <ns3:cad>58</ns3:cad>
          </ns3:TrackPointExtension>
        </extensions>
      </trkpt>
      <trkpt lat="52.09143097512423992156982421875" lon="1.4434410072863101959228515625">
        <ele>-119.40000152587890625</ele>
        <time>2025-09-05T15:47:41.000Z</time>
        <extensions>
          <ns3:TrackPointExtension>
            <ns3:hr>155</ns3:hr>
            <ns3:cad>58</ns3:cad>
          </ns3:TrackPointExtension>
        </extensions>
      </trkpt>
      <trkpt lat="52.09144036285579204559326171875" lon="1.4433610439300537109375">
        <ele>-120.8000030517578125</ele>
        <time>2025-09-05T15:47:44.000Z</time>
        <extensions>
          <ns3:TrackPointExtension>
            <ns3:hr>153</ns3:hr>
            <ns3:cad>60</ns3:cad>
          </ns3:TrackPointExtension>
        </extensions>
      </trkpt>
      <trkpt lat="52.09144757129251956939697265625" lon="1.44328795373439788818359375">
        <ele>-122.1999969482421875</ele>
        <time>2025-09-05T15:47:47.000Z</time>
        <extensions>
          <ns3:TrackPointExtension>
            <ns3:hr>153</ns3:hr>
            <ns3:cad>61</ns3:cad>
          </ns3:TrackPointExtension>
        </extensions>
      </trkpt>
      <trkpt lat="52.09145327098667621612548828125" lon="1.443264149129390716552734375">
        <ele>-122.59999847412109375</ele>
        <time>2025-09-05T15:47:48.000Z</time>
        <extensions>
          <ns3:TrackPointExtension>
            <ns3:hr>153</ns3:hr>
            <ns3:cad>61</ns3:cad>
          </ns3:TrackPointExtension>
        </extensions>
      </trkpt>
      <trkpt lat="52.091457881033420562744140625" lon="1.44323590211570262908935546875">
        <ele>-123</ele>
        <time>2025-09-05T15:47:49.000Z</time>
        <extensions>
          <ns3:TrackPointExtension>
            <ns3:hr>156</ns3:hr>
            <ns3:cad>61</ns3:cad>
          </ns3:TrackPointExtension>
        </extensions>
      </trkpt>
      <trkpt lat="52.09146735258400440216064453125" lon="1.44321276806294918060302734375">
        <ele>-123.40000152587890625</ele>
        <time>2025-09-05T15:47:50.000Z</time>
        <extensions>
          <ns3:TrackPointExtension>
            <ns3:hr>155</ns3:hr>
            <ns3:cad>60</ns3:cad>
          </ns3:TrackPointExtension>
        </extensions>
      </trkpt>
      <trkpt lat="52.091479003429412841796875" lon="1.44314571283757686614990234375">
        <ele>-124.8000030517578125</ele>
        <time>2025-09-05T15:47:53.000Z</time>
        <extensions>
          <ns3:TrackPointExtension>
            <ns3:hr>153</ns3:hr>
            <ns3:cad>60</ns3:cad>
          </ns3:TrackPointExtension>
        </extensions>
      </trkpt>
      <trkpt lat="52.0914831943809986114501953125" lon="1.44307010807096958160400390625">
        <ele>-126</ele>
        <time>2025-09-05T15:47:56.000Z</time>
        <extensions>
          <ns3:TrackPointExtension>
            <ns3:hr>152</ns3:hr>
            <ns3:cad>61</ns3:cad>
          </ns3:TrackPointExtension>
        </extensions>
      </trkpt>
      <trkpt lat="52.0915066637098789215087890625" lon="1.442984528839588165283203125">
        <ele>-127</ele>
        <time>2025-09-05T15:47:59.000Z</time>
        <extensions>
          <ns3:TrackPointExtension>
            <ns3:hr>151</ns3:hr>
            <ns3:cad>61</ns3:cad>
          </ns3:TrackPointExtension>
        </extensions>
      </trkpt>
      <trkpt lat="52.09153239615261554718017578125" lon="1.442908756434917449951171875">
        <ele>-128.1999969482421875</ele>
        <time>2025-09-05T15:48:02.000Z</time>
        <extensions>
          <ns3:TrackPointExtension>
            <ns3:hr>150</ns3:hr>
            <ns3:cad>61</ns3:cad>
          </ns3:TrackPointExtension>
        </extensions>
      </trkpt>
      <trkpt lat="52.09154714830219745635986328125" lon="1.44287028349936008453369140625">
        <ele>-128.8000030517578125</ele>
        <time>2025-09-05T15:48:04.000Z</time>
        <extensions>
          <ns3:TrackPointExtension>
            <ns3:hr>150</ns3:hr>
            <ns3:cad>61</ns3:cad>
          </ns3:TrackPointExtension>
        </extensions>
      </trkpt>
      <trkpt lat="52.09155536256730556488037109375" lon="1.44283331930637359619140625">
        <ele>-129.399993896484375</ele>
        <time>2025-09-05T15:48:06.000Z</time>
        <extensions>
          <ns3:TrackPointExtension>
            <ns3:hr>151</ns3:hr>
            <ns3:cad>61</ns3:cad>
          </ns3:TrackPointExtension>
        </extensions>
      </trkpt>
      <trkpt lat="52.09157212637364864349365234375" lon="1.44274807535111904144287109375">
        <ele>-130.600006103515625</ele>
        <time>2025-09-05T15:48:10.000Z</time>
        <extensions>
          <ns3:TrackPointExtension>
            <ns3:hr>151</ns3:hr>
            <ns3:cad>60</ns3:cad>
          </ns3:TrackPointExtension>
        </extensions>
      </trkpt>
      <trkpt lat="52.091583274304866790771484375" lon="1.44270851276814937591552734375">
        <ele>-131</ele>
        <time>2025-09-05T15:48:12.000Z</time>
        <extensions>
          <ns3:TrackPointExtension>
            <ns3:hr>151</ns3:hr>
            <ns3:cad>60</ns3:cad>
          </ns3:TrackPointExtension>
        </extensions>
      </trkpt>
      <trkpt lat="52.09160330705344676971435546875" lon="1.4426806010305881500244140625">
        <ele>-131.399993896484375</ele>
        <time>2025-09-05T15:48:14.000Z</time>
        <extensions>
          <ns3:TrackPointExtension>
            <ns3:hr>148</ns3:hr>
            <ns3:cad>61</ns3:cad>
          </ns3:TrackPointExtension>
        </extensions>
      </trkpt>
      <trkpt lat="52.09161378443241119384765625" lon="1.442662663757801055908203125">
        <ele>-131.600006103515625</ele>
        <time>2025-09-05T15:48:15.000Z</time>
        <extensions>
          <ns3:TrackPointExtension>
            <ns3:hr>149</ns3:hr>
            <ns3:cad>61</ns3:cad>
          </ns3:TrackPointExtension>
        </extensions>
      </trkpt>
      <trkpt lat="52.091628201305866241455078125" lon="1.4426470734179019927978515625">
        <ele>-131.8000030517578125</ele>
        <time>2025-09-05T15:48:16.000Z</time>
        <extensions>
          <ns3:TrackPointExtension>
            <ns3:hr>146</ns3:hr>
            <ns3:cad>61</ns3:cad>
          </ns3:TrackPointExtension>
        </extensions>
      </trkpt>
      <trkpt lat="52.09167455323040485382080078125" lon="1.44260189495980739593505859375">
        <ele>-132.1999969482421875</ele>
        <time>2025-09-05T15:48:19.000Z</time>
        <extensions>
          <ns3:TrackPointExtension>
            <ns3:hr>149</ns3:hr>
            <ns3:cad>61</ns3:cad>
          </ns3:TrackPointExtension>
        </extensions>
      </trkpt>
      <trkpt lat="52.09168897010385990142822265625" lon="1.442562080919742584228515625">
        <ele>-132.600006103515625</ele>
        <time>2025-09-05T15:48:21.000Z</time>
        <extensions>
          <ns3:TrackPointExtension>
            <ns3:hr>148</ns3:hr>
            <ns3:cad>61</ns3:cad>
          </ns3:TrackPointExtension>
        </extensions>
      </trkpt>
      <trkpt lat="52.09173071198165416717529296875" lon="1.44247532822191715240478515625">
        <ele>-133.600006103515625</ele>
        <time>2025-09-05T15:48:27.000Z</time>
        <extensions>
          <ns3:TrackPointExtension>
            <ns3:hr>146</ns3:hr>
            <ns3:cad>60</ns3:cad>
          </ns3:TrackPointExtension>
        </extensions>
      </trkpt>
      <trkpt lat="52.09173607639968395233154296875" lon="1.442462168633937835693359375">
        <ele>-133.600006103515625</ele>
        <time>2025-09-05T15:48:28.000Z</time>
        <extensions>
          <ns3:TrackPointExtension>
            <ns3:hr>146</ns3:hr>
            <ns3:cad>60</ns3:cad>
          </ns3:TrackPointExtension>
        </extensions>
      </trkpt>
      <trkpt lat="52.09177748300135135650634765625" lon="1.44246183335781097412109375">
        <ele>-134</ele>
        <time>2025-09-05T15:48:31.000Z</time>
        <extensions>
          <ns3:TrackPointExtension>
            <ns3:hr>145</ns3:hr>
            <ns3:cad>60</ns3:cad>
          </ns3:TrackPointExtension>
        </extensions>
      </trkpt>
      <trkpt lat="52.09183313883841037750244140625" lon="1.44247918389737606048583984375">
        <ele>-134.399993896484375</ele>
        <time>2025-09-05T15:48:34.000Z</time>
        <extensions>
          <ns3:TrackPointExtension>
            <ns3:hr>145</ns3:hr>
            <ns3:cad>60</ns3:cad>
          </ns3:TrackPointExtension>
        </extensions>
      </trkpt>
      <trkpt lat="52.09187538363039493560791015625" lon="1.44248857162892818450927734375">
        <ele>-134.8000030517578125</ele>
        <time>2025-09-05T15:48:36.000Z</time>
        <extensions>
          <ns3:TrackPointExtension>
            <ns3:hr>146</ns3:hr>
            <ns3:cad>60</ns3:cad>
          </ns3:TrackPointExtension>
        </extensions>
      </trkpt>
      <trkpt lat="52.09186364896595478057861328125" lon="1.44244431518018245697021484375">
        <ele>-135.1999969482421875</ele>
        <time>2025-09-05T15:48:39.000Z</time>
        <extensions>
          <ns3:TrackPointExtension>
            <ns3:hr>150</ns3:hr>
            <ns3:cad>60</ns3:cad>
          </ns3:TrackPointExtension>
        </extensions>
      </trkpt>
      <trkpt lat="52.09187337197363376617431640625" lon="1.4424291439354419708251953125">
        <ele>-135.600006103515625</ele>
        <time>2025-09-05T15:48:42.000Z</time>
        <extensions>
          <ns3:TrackPointExtension>
            <ns3:hr>153</ns3:hr>
            <ns3:cad>60</ns3:cad>
          </ns3:TrackPointExtension>
        </extensions>
      </trkpt>
      <trkpt lat="52.09190882742404937744140625" lon="1.44244884140789508819580078125">
        <ele>-135.8000030517578125</ele>
        <time>2025-09-05T15:48:44.000Z</time>
        <extensions>
          <ns3:TrackPointExtension>
            <ns3:hr>153</ns3:hr>
            <ns3:cad>60</ns3:cad>
          </ns3:TrackPointExtension>
        </extensions>
      </trkpt>
      <trkpt lat="52.091940343379974365234375" lon="1.4424593187868595123291015625">
        <ele>-136</ele>
        <time>2025-09-05T15:48:46.000Z</time>
        <extensions>
          <ns3:TrackPointExtension>
            <ns3:hr>160</ns3:hr>
            <ns3:cad>59</ns3:cad>
          </ns3:TrackPointExtension>
        </extensions>
      </trkpt>
      <trkpt lat="52.0919431932270526885986328125" lon="1.44244330935180187225341796875">
        <ele>-136.1999969482421875</ele>
        <time>2025-09-05T15:48:48.000Z</time>
        <extensions>
          <ns3:TrackPointExtension>
            <ns3:hr>162</ns3:hr>
            <ns3:cad>118</ns3:cad>
          </ns3:TrackPointExtension>
        </extensions>
      </trkpt>
      <trkpt lat="52.09202282130718231201171875" lon="1.44248957745730876922607421875">
        <ele>-136.8000030517578125</ele>
        <time>2025-09-05T15:48:53.000Z</time>
        <extensions>
          <ns3:TrackPointExtension>
            <ns3:hr>163</ns3:hr>
            <ns3:cad>76</ns3:cad>
          </ns3:TrackPointExtension>
        </extensions>
      </trkpt>
      <trkpt lat="52.0920716039836406707763671875" lon="1.442505419254302978515625">
        <ele>-137</ele>
        <time>2025-09-05T15:48:56.000Z</time>
        <extensions>
          <ns3:TrackPointExtension>
            <ns3:hr>161</ns3:hr>
            <ns3:cad>78</ns3:cad>
          </ns3:TrackPointExtension>
        </extensions>
      </trkpt>
      <trkpt lat="52.0921118371188640594482421875" lon="1.44250282086431980133056640625">
        <ele>-137.399993896484375</ele>
        <time>2025-09-05T15:49:00.000Z</time>
        <extensions>
          <ns3:TrackPointExtension>
            <ns3:hr>165</ns3:hr>
            <ns3:cad>81</ns3:cad>
          </ns3:TrackPointExtension>
        </extensions>
      </trkpt>
      <trkpt lat="52.0921239070594310760498046875" lon="1.44250785000622272491455078125">
        <ele>-137.399993896484375</ele>
        <time>2025-09-05T15:49:01.000Z</time>
        <extensions>
          <ns3:TrackPointExtension>
            <ns3:hr>168</ns3:hr>
            <ns3:cad>81</ns3:cad>
          </ns3:TrackPointExtension>
        </extensions>
      </trkpt>
      <trkpt lat="52.0921473763883113861083984375" lon="1.44252930767834186553955078125">
        <ele>-137.399993896484375</ele>
        <time>2025-09-05T15:49:03.000Z</time>
        <extensions>
          <ns3:TrackPointExtension>
            <ns3:hr>171</ns3:hr>
            <ns3:cad>81</ns3:cad>
          </ns3:TrackPointExtension>
        </extensions>
      </trkpt>
      <trkpt lat="52.09227872081100940704345703125" lon="1.44263106398284435272216796875">
        <ele>-137.1999969482421875</ele>
        <time>2025-09-05T15:49:10.000Z</time>
        <extensions>
          <ns3:TrackPointExtension>
            <ns3:hr>175</ns3:hr>
            <ns3:cad>81</ns3:cad>
          </ns3:TrackPointExtension>
        </extensions>
      </trkpt>
      <trkpt lat="52.0923093147575855255126953125" lon="1.4426484145224094390869140625">
        <ele>-137</ele>
        <time>2025-09-05T15:49:11.000Z</time>
        <extensions>
          <ns3:TrackPointExtension>
            <ns3:hr>177</ns3:hr>
            <ns3:cad>81</ns3:cad>
          </ns3:TrackPointExtension>
        </extensions>
      </trkpt>
      <trkpt lat="52.0923787169158458709716796875" lon="1.4426918327808380126953125">
        <ele>-135.600006103515625</ele>
        <time>2025-09-05T15:49:15.000Z</time>
        <extensions>
          <ns3:TrackPointExtension>
            <ns3:hr>179</ns3:hr>
            <ns3:cad>81</ns3:cad>
          </ns3:TrackPointExtension>
        </extensions>
      </trkpt>
      <trkpt lat="52.09241584874689579010009765625" lon="1.44273868761956691741943359375">
        <ele>-134.399993896484375</ele>
        <time>2025-09-05T15:49:18.000Z</time>
        <extensions>
          <ns3:TrackPointExtension>
            <ns3:hr>183</ns3:hr>
            <ns3:cad>82</ns3:cad>
          </ns3:TrackPointExtension>
        </extensions>
      </trkpt>
      <trkpt lat="52.0924605242908000946044921875" lon="1.44276081584393978118896484375">
        <ele>-133.399993896484375</ele>
        <time>2025-09-05T15:49:21.000Z</time>
        <extensions>
          <ns3:TrackPointExtension>
            <ns3:hr>183</ns3:hr>
            <ns3:cad>82</ns3:cad>
          </ns3:TrackPointExtension>
        </extensions>
      </trkpt>
      <trkpt lat="52.09251358173787593841552734375" lon="1.44279685802757740020751953125">
        <ele>-132.399993896484375</ele>
        <time>2025-09-05T15:49:24.000Z</time>
        <extensions>
          <ns3:TrackPointExtension>
            <ns3:hr>182</ns3:hr>
            <ns3:cad>81</ns3:cad>
          </ns3:TrackPointExtension>
        </extensions>
      </trkpt>
      <trkpt lat="52.09253646433353424072265625" lon="1.44281454384326934814453125">
        <ele>-132</ele>
        <time>2025-09-05T15:49:25.000Z</time>
        <extensions>
          <ns3:TrackPointExtension>
            <ns3:hr>182</ns3:hr>
            <ns3:cad>81</ns3:cad>
          </ns3:TrackPointExtension>
        </extensions>
      </trkpt>
      <trkpt lat="52.092564292252063751220703125" lon="1.44284404814243316650390625">
        <ele>-131.399993896484375</ele>
        <time>2025-09-05T15:49:27.000Z</time>
        <extensions>
          <ns3:TrackPointExtension>
            <ns3:hr>183</ns3:hr>
            <ns3:cad>81</ns3:cad>
          </ns3:TrackPointExtension>
        </extensions>
      </trkpt>
      <trkpt lat="52.09260326810181140899658203125" lon="1.4429015479981899261474609375">
        <ele>-130.399993896484375</ele>
        <time>2025-09-05T15:49:30.000Z</time>
        <extensions>
          <ns3:TrackPointExtension>
            <ns3:hr>183</ns3:hr>
            <ns3:cad>81</ns3:cad>
          </ns3:TrackPointExtension>
        </extensions>
      </trkpt>
      <trkpt lat="52.0926841534674167633056640625" lon="1.44297002814710140228271484375">
        <ele>-129</ele>
        <time>2025-09-05T15:49:34.000Z</time>
        <extensions>
          <ns3:TrackPointExtension>
            <ns3:hr>185</ns3:hr>
            <ns3:cad>81</ns3:cad>
          </ns3:TrackPointExtension>
        </extensions>
      </trkpt>
      <trkpt lat="52.09271608851850032806396484375" lon="1.443005315959453582763671875">
        <ele>-128.399993896484375</ele>
        <time>2025-09-05T15:49:36.000Z</time>
        <extensions>
          <ns3:TrackPointExtension>
            <ns3:hr>186</ns3:hr>
            <ns3:cad>81</ns3:cad>
          </ns3:TrackPointExtension>
        </extensions>
      </trkpt>
      <trkpt lat="52.09276101551949977874755859375" lon="1.4430286176502704620361328125">
        <ele>-127.8000030517578125</ele>
        <time>2025-09-05T15:49:38.000Z</time>
        <extensions>
          <ns3:TrackPointExtension>
            <ns3:hr>187</ns3:hr>
            <ns3:cad>81</ns3:cad>
          </ns3:TrackPointExtension>
        </extensions>
      </trkpt>
      <trkpt lat="52.092868052423000335693359375" lon="1.4430986903607845306396484375">
        <ele>-126.59999847412109375</ele>
        <time>2025-09-05T15:49:42.000Z</time>
        <extensions>
          <ns3:TrackPointExtension>
            <ns3:hr>189</ns3:hr>
            <ns3:cad>81</ns3:cad>
          </ns3:TrackPointExtension>
        </extensions>
      </trkpt>
      <trkpt lat="52.09292261861264705657958984375" lon="1.44312878139317035675048828125">
        <ele>-126</ele>
        <time>2025-09-05T15:49:44.000Z</time>
        <extensions>
          <ns3:TrackPointExtension>
            <ns3:hr>190</ns3:hr>
            <ns3:cad>81</ns3:cad>
          </ns3:TrackPointExtension>
        </extensions>
      </trkpt>
      <trkpt lat="52.09296318702399730682373046875" lon="1.44315644167363643646240234375">
        <ele>-125.40000152587890625</ele>
        <time>2025-09-05T15:49:46.000Z</time>
        <extensions>
          <ns3:TrackPointExtension>
            <ns3:hr>190</ns3:hr>
            <ns3:cad>81</ns3:cad>
          </ns3:TrackPointExtension>
        </extensions>
      </trkpt>
      <trkpt lat="52.0930445753037929534912109375" lon="1.44319298677146434783935546875">
        <ele>-124.40000152587890625</ele>
        <time>2025-09-05T15:49:50.000Z</time>
        <extensions>
          <ns3:TrackPointExtension>
            <ns3:hr>190</ns3:hr>
            <ns3:cad>81</ns3:cad>
          </ns3:TrackPointExtension>
        </extensions>
      </trkpt>
      <trkpt lat="52.093086652457714080810546875" lon="1.4432026259601116180419921875">
        <ele>-123.8000030517578125</ele>
        <time>2025-09-05T15:49:52.000Z</time>
        <extensions>
          <ns3:TrackPointExtension>
            <ns3:hr>192</ns3:hr>
            <ns3:cad>81</ns3:cad>
          </ns3:TrackPointExtension>
        </extensions>
      </trkpt>
      <trkpt lat="52.0931196771562099456787109375" lon="1.4432121813297271728515625">
        <ele>-123.40000152587890625</ele>
        <time>2025-09-05T15:49:54.000Z</time>
        <extensions>
          <ns3:TrackPointExtension>
            <ns3:hr>191</ns3:hr>
            <ns3:cad>81</ns3:cad>
          </ns3:TrackPointExtension>
        </extensions>
      </trkpt>
      <trkpt lat="52.09314390085637569427490234375" lon="1.44323087297379970550537109375">
        <ele>-122.8000030517578125</ele>
        <time>2025-09-05T15:49:56.000Z</time>
        <extensions>
          <ns3:TrackPointExtension>
            <ns3:hr>187</ns3:hr>
            <ns3:cad>81</ns3:cad>
          </ns3:TrackPointExtension>
        </extensions>
      </trkpt>
      <trkpt lat="52.0932034961879253387451171875" lon="1.443254761397838592529296875">
        <ele>-122.1999969482421875</ele>
        <time>2025-09-05T15:49:59.000Z</time>
        <extensions>
          <ns3:TrackPointExtension>
            <ns3:hr>189</ns3:hr>
            <ns3:cad>81</ns3:cad>
          </ns3:TrackPointExtension>
        </extensions>
      </trkpt>
      <trkpt lat="52.09330081008374691009521484375" lon="1.44329608418047428131103515625">
        <ele>-121.1999969482421875</ele>
        <time>2025-09-05T15:50:04.000Z</time>
        <extensions>
          <ns3:TrackPointExtension>
            <ns3:hr>190</ns3:hr>
            <ns3:cad>81</ns3:cad>
          </ns3:TrackPointExtension>
        </extensions>
      </trkpt>
      <trkpt lat="52.0933578908443450927734375" lon="1.4433196373283863067626953125">
        <ele>-120.59999847412109375</ele>
        <time>2025-09-05T15:50:07.000Z</time>
        <extensions>
          <ns3:TrackPointExtension>
            <ns3:hr>189</ns3:hr>
            <ns3:cad>81</ns3:cad>
          </ns3:TrackPointExtension>
        </extensions>
      </trkpt>
      <trkpt lat="52.09340684115886688232421875" lon="1.443355344235897064208984375">
        <ele>-120</ele>
        <time>2025-09-05T15:50:10.000Z</time>
        <extensions>
          <ns3:TrackPointExtension>
            <ns3:hr>190</ns3:hr>
            <ns3:cad>81</ns3:cad>
          </ns3:TrackPointExtension>
        </extensions>
      </trkpt>
      <trkpt lat="52.09351639263331890106201171875" lon="1.44342474639415740966796875">
        <ele>-119</ele>
        <time>2025-09-05T15:50:15.000Z</time>
        <extensions>
          <ns3:TrackPointExtension>
            <ns3:hr>190</ns3:hr>
            <ns3:cad>81</ns3:cad>
          </ns3:TrackPointExtension>
        </extensions>
      </trkpt>
      <trkpt lat="52.09353424608707427978515625" lon="1.44343371503055095672607421875">
        <ele>-119</ele>
        <time>2025-09-05T15:50:16.000Z</time>
        <extensions>
          <ns3:TrackPointExtension>
            <ns3:hr>190</ns3:hr>
            <ns3:cad>81</ns3:cad>
          </ns3:TrackPointExtension>
        </extensions>
      </trkpt>
      <trkpt lat="52.093615047633647918701171875" lon="1.443435139954090118408203125">
        <ele>-118.1999969482421875</ele>
        <time>2025-09-05T15:50:21.000Z</time>
        <extensions>
          <ns3:TrackPointExtension>
            <ns3:hr>189</ns3:hr>
            <ns3:cad>80</ns3:cad>
          </ns3:TrackPointExtension>
        </extensions>
      </trkpt>
      <trkpt lat="52.09366089664399623870849609375" lon="1.4433655701577663421630859375">
        <ele>-117.8000030517578125</ele>
        <time>2025-09-05T15:50:24.000Z</time>
        <extensions>
          <ns3:TrackPointExtension>
            <ns3:hr>188</ns3:hr>
            <ns3:cad>80</ns3:cad>
          </ns3:TrackPointExtension>
        </extensions>
      </trkpt>
      <trkpt lat="52.0937181450426578521728515625" lon="1.44324964843690395355224609375">
        <ele>-117.40000152587890625</ele>
        <time>2025-09-05T15:50:28.000Z</time>
        <extensions>
          <ns3:TrackPointExtension>
            <ns3:hr>189</ns3:hr>
            <ns3:cad>81</ns3:cad>
          </ns3:TrackPointExtension>
        </extensions>
      </trkpt>
      <trkpt lat="52.09378411062061786651611328125" lon="1.44311319105327129364013671875">
        <ele>-116.8000030517578125</ele>
        <time>2025-09-05T15:50:33.000Z</time>
        <extensions>
          <ns3:TrackPointExtension>
            <ns3:hr>191</ns3:hr>
            <ns3:cad>81</ns3:cad>
          </ns3:TrackPointExtension>
        </extensions>
      </trkpt>
      <trkpt lat="52.09383741952478885650634765625" lon="1.443007327616214752197265625">
        <ele>-116.40000152587890625</ele>
        <time>2025-09-05T15:50:36.000Z</time>
        <extensions>
          <ns3:TrackPointExtension>
            <ns3:hr>192</ns3:hr>
            <ns3:cad>81</ns3:cad>
          </ns3:TrackPointExtension>
        </extensions>
      </trkpt>
      <trkpt lat="52.09386826492846012115478515625" lon="1.44290347583591938018798828125">
        <ele>-116</ele>
        <time>2025-09-05T15:50:39.000Z</time>
        <extensions>
          <ns3:TrackPointExtension>
            <ns3:hr>189</ns3:hr>
            <ns3:cad>81</ns3:cad>
          </ns3:TrackPointExtension>
        </extensions>
      </trkpt>
      <trkpt lat="52.09387916140258312225341796875" lon="1.44283977337181568145751953125">
        <ele>-115.59999847412109375</ele>
        <time>2025-09-05T15:50:41.000Z</time>
        <extensions>
          <ns3:TrackPointExtension>
            <ns3:hr>185</ns3:hr>
            <ns3:cad>81</ns3:cad>
          </ns3:TrackPointExtension>
        </extensions>
      </trkpt>
      <trkpt lat="52.09388787858188152313232421875" lon="1.44277992658317089080810546875">
        <ele>-115.40000152587890625</ele>
        <time>2025-09-05T15:50:43.000Z</time>
        <extensions>
          <ns3:TrackPointExtension>
            <ns3:hr>181</ns3:hr>
            <ns3:cad>82</ns3:cad>
          </ns3:TrackPointExtension>
        </extensions>
      </trkpt>
      <trkpt lat="52.0939292013645172119140625" lon="1.4426470734179019927978515625">
        <ele>-114.59999847412109375</ele>
        <time>2025-09-05T15:50:48.000Z</time>
        <extensions>
          <ns3:TrackPointExtension>
            <ns3:hr>181</ns3:hr>
            <ns3:cad>82</ns3:cad>
          </ns3:TrackPointExtension>
        </extensions>
      </trkpt>
      <trkpt lat="52.09394152276217937469482421875" lon="1.442619748413562774658203125">
        <ele>-114.40000152587890625</ele>
        <time>2025-09-05T15:50:49.000Z</time>
        <extensions>
          <ns3:TrackPointExtension>
            <ns3:hr>182</ns3:hr>
            <ns3:cad>82</ns3:cad>
          </ns3:TrackPointExtension>
        </extensions>
      </trkpt>
      <trkpt lat="52.09401193074882030487060546875" lon="1.44248672761023044586181640625">
        <ele>-113.40000152587890625</ele>
        <time>2025-09-05T15:50:54.000Z</time>
        <extensions>
          <ns3:TrackPointExtension>
            <ns3:hr>181</ns3:hr>
            <ns3:cad>81</ns3:cad>
          </ns3:TrackPointExtension>
        </extensions>
      </trkpt>
      <trkpt lat="52.0940654911100864410400390625" lon="1.4423936046659946441650390625">
        <ele>-113</ele>
        <time>2025-09-05T15:50:57.000Z</time>
        <extensions>
          <ns3:TrackPointExtension>
            <ns3:hr>182</ns3:hr>
            <ns3:cad>82</ns3:cad>
          </ns3:TrackPointExtension>
        </extensions>
      </trkpt>
      <trkpt lat="52.094111256301403045654296875" lon="1.44228204153478145599365234375">
        <ele>-112.40000152587890625</ele>
        <time>2025-09-05T15:51:00.000Z</time>
        <extensions>
          <ns3:TrackPointExtension>
            <ns3:hr>182</ns3:hr>
            <ns3:cad>82</ns3:cad>
          </ns3:TrackPointExtension>
        </extensions>
      </trkpt>
      <trkpt lat="52.0941610448062419891357421875" lon="1.4421746693551540374755859375">
        <ele>-111.8000030517578125</ele>
        <time>2025-09-05T15:51:03.000Z</time>
        <extensions>
          <ns3:TrackPointExtension>
            <ns3:hr>181</ns3:hr>
            <ns3:cad>83</ns3:cad>
          </ns3:TrackPointExtension>
        </extensions>
      </trkpt>
      <trkpt lat="52.0942053012549877166748046875" lon="1.4420885033905506134033203125">
        <ele>-111.1999969482421875</ele>
        <time>2025-09-05T15:51:06.000Z</time>
        <extensions>
          <ns3:TrackPointExtension>
            <ns3:hr>183</ns3:hr>
            <ns3:cad>82</ns3:cad>
          </ns3:TrackPointExtension>
        </extensions>
      </trkpt>
      <trkpt lat="52.09422918967902660369873046875" lon="1.44190032966434955596923828125">
        <ele>-110.40000152587890625</ele>
        <time>2025-09-05T15:51:11.000Z</time>
        <extensions>
          <ns3:TrackPointExtension>
            <ns3:hr>180</ns3:hr>
            <ns3:cad>81</ns3:cad>
          </ns3:TrackPointExtension>
        </extensions>
      </trkpt>
      <trkpt lat="52.0942368172109127044677734375" lon="1.44186906516551971435546875">
        <ele>-110.1999969482421875</ele>
        <time>2025-09-05T15:51:12.000Z</time>
        <extensions>
          <ns3:TrackPointExtension>
            <ns3:hr>178</ns3:hr>
            <ns3:cad>81</ns3:cad>
          </ns3:TrackPointExtension>
        </extensions>
      </trkpt>
      <trkpt lat="52.09423857741057872772216796875" lon="1.44176781177520751953125">
        <ele>-109.8000030517578125</ele>
        <time>2025-09-05T15:51:15.000Z</time>
        <extensions>
          <ns3:TrackPointExtension>
            <ns3:hr>175</ns3:hr>
            <ns3:cad>81</ns3:cad>
          </ns3:TrackPointExtension>
        </extensions>
      </trkpt>
      <trkpt lat="52.0942666567862033843994140625" lon="1.44166915677487850189208984375">
        <ele>-109.1999969482421875</ele>
        <time>2025-09-05T15:51:19.000Z</time>
        <extensions>
          <ns3:TrackPointExtension>
            <ns3:hr>175</ns3:hr>
            <ns3:cad>81</ns3:cad>
          </ns3:TrackPointExtension>
        </extensions>
      </trkpt>
      <trkpt lat="52.0942706800997257232666015625" lon="1.44164836965501308441162109375">
        <ele>-109</ele>
        <time>2025-09-05T15:51:20.000Z</time>
        <extensions>
          <ns3:TrackPointExtension>
            <ns3:hr>177</ns3:hr>
            <ns3:cad>81</ns3:cad>
          </ns3:TrackPointExtension>
        </extensions>
      </trkpt>
      <trkpt lat="52.09431946277618408203125" lon="1.4415051229298114776611328125">
        <ele>-108.59999847412109375</ele>
        <time>2025-09-05T15:51:25.000Z</time>
        <extensions>
          <ns3:TrackPointExtension>
            <ns3:hr>180</ns3:hr>
            <ns3:cad>82</ns3:cad>
          </ns3:TrackPointExtension>
        </extensions>
      </trkpt>
      <trkpt lat="52.09433228708803653717041015625" lon="1.44148039631545543670654296875">
        <ele>-108.40000152587890625</ele>
        <time>2025-09-05T15:51:26.000Z</time>
        <extensions>
          <ns3:TrackPointExtension>
            <ns3:hr>182</ns3:hr>
            <ns3:cad>82</ns3:cad>
          </ns3:TrackPointExtension>
        </extensions>
      </trkpt>
      <trkpt lat="52.094360031187534332275390625" lon="1.44140160642564296722412109375">
        <ele>-108.1999969482421875</ele>
        <time>2025-09-05T15:51:28.000Z</time>
        <extensions>
          <ns3:TrackPointExtension>
            <ns3:hr>181</ns3:hr>
            <ns3:cad>82</ns3:cad>
          </ns3:TrackPointExtension>
        </extensions>
      </trkpt>
      <trkpt lat="52.0944182015955448150634765625" lon="1.4412513189017772674560546875">
        <ele>-107.59999847412109375</ele>
        <time>2025-09-05T15:51:33.000Z</time>
        <extensions>
          <ns3:TrackPointExtension>
            <ns3:hr>183</ns3:hr>
            <ns3:cad>82</ns3:cad>
          </ns3:TrackPointExtension>
        </extensions>
      </trkpt>
      <trkpt lat="52.094454579055309295654296875" lon="1.44115962088108062744140625">
        <ele>-107.40000152587890625</ele>
        <time>2025-09-05T15:51:36.000Z</time>
        <extensions>
          <ns3:TrackPointExtension>
            <ns3:hr>180</ns3:hr>
            <ns3:cad>81</ns3:cad>
          </ns3:TrackPointExtension>
        </extensions>
      </trkpt>
      <trkpt lat="52.094474025070667266845703125" lon="1.4410809986293315887451171875">
        <ele>-107.1999969482421875</ele>
        <time>2025-09-05T15:51:38.000Z</time>
        <extensions>
          <ns3:TrackPointExtension>
            <ns3:hr>180</ns3:hr>
            <ns3:cad>81</ns3:cad>
          </ns3:TrackPointExtension>
        </extensions>
      </trkpt>
      <trkpt lat="52.0945010147988796234130859375" lon="1.44101436249911785125732421875">
        <ele>-107</ele>
        <time>2025-09-05T15:51:40.000Z</time>
        <extensions>
          <ns3:TrackPointExtension>
            <ns3:hr>181</ns3:hr>
            <ns3:cad>81</ns3:cad>
          </ns3:TrackPointExtension>
        </extensions>
      </trkpt>
      <trkpt lat="52.0946230553090572357177734375" lon="1.4407869614660739898681640625">
        <ele>-106.59999847412109375</ele>
        <time>2025-09-05T15:51:47.000Z</time>
        <extensions>
          <ns3:TrackPointExtension>
            <ns3:hr>180</ns3:hr>
            <ns3:cad>81</ns3:cad>
          </ns3:TrackPointExtension>
        </extensions>
      </trkpt>
      <trkpt lat="52.09466421045362949371337890625" lon="1.44072501920163631439208984375">
        <ele>-106.40000152587890625</ele>
        <time>2025-09-05T15:51:49.000Z</time>
        <extensions>
          <ns3:TrackPointExtension>
            <ns3:hr>179</ns3:hr>
            <ns3:cad>81</ns3:cad>
          </ns3:TrackPointExtension>
        </extensions>
      </trkpt>
      <trkpt lat="52.09472238086163997650146484375" lon="1.4405914954841136932373046875">
        <ele>-106.1999969482421875</ele>
        <time>2025-09-05T15:51:53.000Z</time>
        <extensions>
          <ns3:TrackPointExtension>
            <ns3:hr>179</ns3:hr>
            <ns3:cad>81</ns3:cad>
          </ns3:TrackPointExtension>
        </extensions>
      </trkpt>
      <trkpt lat="52.094737552106380462646484375" lon="1.440427713096141815185546875">
        <ele>-105.8000030517578125</ele>
        <time>2025-09-05T15:51:58.000Z</time>
        <extensions>
          <ns3:TrackPointExtension>
            <ns3:hr>180</ns3:hr>
            <ns3:cad>82</ns3:cad>
          </ns3:TrackPointExtension>
        </extensions>
      </trkpt>
      <trkpt lat="52.0947901904582977294921875" lon="1.4402622543275356292724609375">
        <ele>-105.40000152587890625</ele>
        <time>2025-09-05T15:52:04.000Z</time>
        <extensions>
          <ns3:TrackPointExtension>
            <ns3:hr>183</ns3:hr>
            <ns3:cad>82</ns3:cad>
          </ns3:TrackPointExtension>
        </extensions>
      </trkpt>
      <trkpt lat="52.09481223486363887786865234375" lon="1.44013560377061367034912109375">
        <ele>-105.1999969482421875</ele>
        <time>2025-09-05T15:52:08.000Z</time>
        <extensions>
          <ns3:TrackPointExtension>
            <ns3:hr>181</ns3:hr>
            <ns3:cad>82</ns3:cad>
          </ns3:TrackPointExtension>
        </extensions>
      </trkpt>
      <trkpt lat="52.09487208165228366851806640625" lon="1.43984936177730560302734375">
        <ele>-104.40000152587890625</ele>
        <time>2025-09-05T15:52:17.000Z</time>
        <extensions>
          <ns3:TrackPointExtension>
            <ns3:hr>182</ns3:hr>
            <ns3:cad>81</ns3:cad>
          </ns3:TrackPointExtension>
        </extensions>
      </trkpt>
      <trkpt lat="52.094938717782497406005859375" lon="1.43975489772856235504150390625">
        <ele>-104</ele>
        <time>2025-09-05T15:52:21.000Z</time>
        <extensions>
          <ns3:TrackPointExtension>
            <ns3:hr>182</ns3:hr>
            <ns3:cad>82</ns3:cad>
          </ns3:TrackPointExtension>
        </extensions>
      </trkpt>
      <trkpt lat="52.094989009201526641845703125" lon="1.43964090384542942047119140625">
        <ele>-103.8000030517578125</ele>
        <time>2025-09-05T15:52:25.000Z</time>
        <extensions>
          <ns3:TrackPointExtension>
            <ns3:hr>182</ns3:hr>
            <ns3:cad>81</ns3:cad>
          </ns3:TrackPointExtension>
        </extensions>
      </trkpt>
      <trkpt lat="52.0950538851320743560791015625" lon="1.43942180089652538299560546875">
        <ele>-103.1999969482421875</ele>
        <time>2025-09-05T15:52:32.000Z</time>
        <extensions>
          <ns3:TrackPointExtension>
            <ns3:hr>183</ns3:hr>
            <ns3:cad>81</ns3:cad>
          </ns3:TrackPointExtension>
        </extensions>
      </trkpt>
      <trkpt lat="52.0950817130506038665771484375" lon="1.4393422566354274749755859375">
        <ele>-103</ele>
        <time>2025-09-05T15:52:34.000Z</time>
        <extensions>
          <ns3:TrackPointExtension>
            <ns3:hr>184</ns3:hr>
            <ns3:cad>81</ns3:cad>
          </ns3:TrackPointExtension>
        </extensions>
      </trkpt>
      <trkpt lat="52.09515136666595935821533203125" lon="1.4391608722507953643798828125">
        <ele>-102.8000030517578125</ele>
        <time>2025-09-05T15:52:39.000Z</time>
        <extensions>
          <ns3:TrackPointExtension>
            <ns3:hr>182</ns3:hr>
            <ns3:cad>81</ns3:cad>
          </ns3:TrackPointExtension>
        </extensions>
      </trkpt>
      <trkpt lat="52.0951863192021846771240234375" lon="1.4390435256063938140869140625">
        <ele>-102.59999847412109375</ele>
        <time>2025-09-05T15:52:42.000Z</time>
        <extensions>
          <ns3:TrackPointExtension>
            <ns3:hr>185</ns3:hr>
            <ns3:cad>81</ns3:cad>
          </ns3:TrackPointExtension>
        </extensions>
      </trkpt>
      <trkpt lat="52.09520065225660800933837890625" lon="1.4388976804912090301513671875">
        <ele>-102.40000152587890625</ele>
        <time>2025-09-05T15:52:46.000Z</time>
        <extensions>
          <ns3:TrackPointExtension>
            <ns3:hr>183</ns3:hr>
            <ns3:cad>81</ns3:cad>
          </ns3:TrackPointExtension>
        </extensions>
      </trkpt>
      <trkpt lat="52.0951018296182155609130859375" lon="1.43857053481042385101318359375">
        <ele>-102.40000152587890625</ele>
        <time>2025-09-05T15:52:56.000Z</time>
        <extensions>
          <ns3:TrackPointExtension>
            <ns3:hr>182</ns3:hr>
            <ns3:cad>81</ns3:cad>
          </ns3:TrackPointExtension>
        </extensions>
      </trkpt>
      <trkpt lat="52.0951400510966777801513671875" lon="1.43831002525985240936279296875">
        <ele>-102.59999847412109375</ele>
        <time>2025-09-05T15:53:04.000Z</time>
        <extensions>
          <ns3:TrackPointExtension>
            <ns3:hr>182</ns3:hr>
            <ns3:cad>81</ns3:cad>
          </ns3:TrackPointExtension>
        </extensions>
      </trkpt>
      <trkpt lat="52.0951755903661251068115234375" lon="1.43804180435836315155029296875">
        <ele>-102.59999847412109375</ele>
        <time>2025-09-05T15:53:11.000Z</time>
        <extensions>
          <ns3:TrackPointExtension>
            <ns3:hr>185</ns3:hr>
            <ns3:cad>82</ns3:cad>
          </ns3:TrackPointExtension>
        </extensions>
      </trkpt>
      <trkpt lat="52.09524524398148059844970703125" lon="1.43777257762849330902099609375">
        <ele>-102.59999847412109375</ele>
        <time>2025-09-05T15:53:19.000Z</time>
        <extensions>
          <ns3:TrackPointExtension>
            <ns3:hr>185</ns3:hr>
            <ns3:cad>81</ns3:cad>
          </ns3:TrackPointExtension>
        </extensions>
      </trkpt>
      <trkpt lat="52.0952607505023479461669921875" lon="1.43766411580145359039306640625">
        <ele>-102.59999847412109375</ele>
        <time>2025-09-05T15:53:23.000Z</time>
        <extensions>
          <ns3:TrackPointExtension>
            <ns3:hr>182</ns3:hr>
            <ns3:cad>81</ns3:cad>
          </ns3:TrackPointExtension>
        </extensions>
      </trkpt>
      <trkpt lat="52.09525580517947673797607421875" lon="1.43757208250463008880615234375">
        <ele>-102.59999847412109375</ele>
        <time>2025-09-05T15:53:27.000Z</time>
        <extensions>
          <ns3:TrackPointExtension>
            <ns3:hr>182</ns3:hr>
            <ns3:cad>61</ns3:cad>
          </ns3:TrackPointExtension>
        </extensions>
      </trkpt>
      <trkpt lat="52.09526871331036090850830078125" lon="1.4374462701380252838134765625">
        <ele>-103</ele>
        <time>2025-09-05T15:53:34.000Z</time>
        <extensions>
          <ns3:TrackPointExtension>
            <ns3:hr>182</ns3:hr>
            <ns3:cad>60</ns3:cad>
          </ns3:TrackPointExtension>
        </extensions>
      </trkpt>
      <trkpt lat="52.09526133723556995391845703125" lon="1.43726547248661518096923828125">
        <ele>-103.8000030517578125</ele>
        <time>2025-09-05T15:53:41.000Z</time>
        <extensions>
          <ns3:TrackPointExtension>
            <ns3:hr>179</ns3:hr>
            <ns3:cad>61</ns3:cad>
          </ns3:TrackPointExtension>
        </extensions>
      </trkpt>
      <trkpt lat="52.09526234306395053863525390625" lon="1.43724703229963779449462890625">
        <ele>-104</ele>
        <time>2025-09-05T15:53:42.000Z</time>
        <extensions>
          <ns3:TrackPointExtension>
            <ns3:hr>178</ns3:hr>
            <ns3:cad>61</ns3:cad>
          </ns3:TrackPointExtension>
        </extensions>
      </trkpt>
      <trkpt lat="52.09527458064258098602294921875" lon="1.4372115768492221832275390625">
        <ele>-104.40000152587890625</ele>
        <time>2025-09-05T15:53:44.000Z</time>
        <extensions>
          <ns3:TrackPointExtension>
            <ns3:hr>174</ns3:hr>
            <ns3:cad>60</ns3:cad>
          </ns3:TrackPointExtension>
        </extensions>
      </trkpt>
      <trkpt lat="52.0952902548015117645263671875" lon="1.43717494793236255645751953125">
        <ele>-104.8000030517578125</ele>
        <time>2025-09-05T15:53:46.000Z</time>
        <extensions>
          <ns3:TrackPointExtension>
            <ns3:hr>171</ns3:hr>
            <ns3:cad>59</ns3:cad>
          </ns3:TrackPointExtension>
        </extensions>
      </trkpt>
      <trkpt lat="52.09530509077012538909912109375" lon="1.437133289873600006103515625">
        <ele>-105.1999969482421875</ele>
        <time>2025-09-05T15:53:48.000Z</time>
        <extensions>
          <ns3:TrackPointExtension>
            <ns3:hr>171</ns3:hr>
            <ns3:cad>59</ns3:cad>
          </ns3:TrackPointExtension>
        </extensions>
      </trkpt>
      <trkpt lat="52.0953103713691234588623046875" lon="1.43711107783019542694091796875">
        <ele>-105.40000152587890625</ele>
        <time>2025-09-05T15:53:49.000Z</time>
        <extensions>
          <ns3:TrackPointExtension>
            <ns3:hr>170</ns3:hr>
            <ns3:cad>59</ns3:cad>
          </ns3:TrackPointExtension>
        </extensions>
      </trkpt>
      <trkpt lat="52.09531498141586780548095703125" lon="1.4370053820312023162841796875">
        <ele>-106.1999969482421875</ele>
        <time>2025-09-05T15:53:53.000Z</time>
        <extensions>
          <ns3:TrackPointExtension>
            <ns3:hr>174</ns3:hr>
            <ns3:cad>60</ns3:cad>
          </ns3:TrackPointExtension>
        </extensions>
      </trkpt>
      <trkpt lat="52.09533266723155975341796875" lon="1.4369229041039943695068359375">
        <ele>-107</ele>
        <time>2025-09-05T15:53:56.000Z</time>
        <extensions>
          <ns3:TrackPointExtension>
            <ns3:hr>175</ns3:hr>
            <ns3:cad>59</ns3:cad>
          </ns3:TrackPointExtension>
        </extensions>
      </trkpt>
      <trkpt lat="52.09535337053239345550537109375" lon="1.4368799887597560882568359375">
        <ele>-107.40000152587890625</ele>
        <time>2025-09-05T15:53:58.000Z</time>
        <extensions>
          <ns3:TrackPointExtension>
            <ns3:hr>175</ns3:hr>
            <ns3:cad>60</ns3:cad>
          </ns3:TrackPointExtension>
        </extensions>
      </trkpt>
      <trkpt lat="52.0954143069684505462646484375" lon="1.43679843284189701080322265625">
        <ele>-108.8000030517578125</ele>
        <time>2025-09-05T15:54:03.000Z</time>
        <extensions>
          <ns3:TrackPointExtension>
            <ns3:hr>174</ns3:hr>
            <ns3:cad>62</ns3:cad>
          </ns3:TrackPointExtension>
        </extensions>
      </trkpt>
      <trkpt lat="52.09541581571102142333984375" lon="1.4366235025227069854736328125">
        <ele>-110</ele>
        <time>2025-09-05T15:54:08.000Z</time>
        <extensions>
          <ns3:TrackPointExtension>
            <ns3:hr>173</ns3:hr>
            <ns3:cad>123</ns3:cad>
          </ns3:TrackPointExtension>
        </extensions>
      </trkpt>
      <trkpt lat="52.09542998112738132476806640625" lon="1.4365621469914913177490234375">
        <ele>-110.40000152587890625</ele>
        <time>2025-09-05T15:54:10.000Z</time>
        <extensions>
          <ns3:TrackPointExtension>
            <ns3:hr>172</ns3:hr>
            <ns3:cad>75</ns3:cad>
          </ns3:TrackPointExtension>
        </extensions>
      </trkpt>
      <trkpt lat="52.09545009769499301910400390625" lon="1.43645108677446842193603515625">
        <ele>-111</ele>
        <time>2025-09-05T15:54:13.000Z</time>
        <extensions>
          <ns3:TrackPointExtension>
            <ns3:hr>170</ns3:hr>
            <ns3:cad>79</ns3:cad>
          </ns3:TrackPointExtension>
        </extensions>
      </trkpt>
      <trkpt lat="52.09548764862120151519775390625" lon="1.43632250837981700897216796875">
        <ele>-111.8000030517578125</ele>
        <time>2025-09-05T15:54:17.000Z</time>
        <extensions>
          <ns3:TrackPointExtension>
            <ns3:hr>169</ns3:hr>
            <ns3:cad>81</ns3:cad>
          </ns3:TrackPointExtension>
        </extensions>
      </trkpt>
      <trkpt lat="52.09550256840884685516357421875" lon="1.43624589778482913970947265625">
        <ele>-112.1999969482421875</ele>
        <time>2025-09-05T15:54:19.000Z</time>
        <extensions>
          <ns3:TrackPointExtension>
            <ns3:hr>171</ns3:hr>
            <ns3:cad>81</ns3:cad>
          </ns3:TrackPointExtension>
        </extensions>
      </trkpt>
      <trkpt lat="52.09551715292036533355712890625" lon="1.436167024075984954833984375">
        <ele>-112.59999847412109375</ele>
        <time>2025-09-05T15:54:21.000Z</time>
        <extensions>
          <ns3:TrackPointExtension>
            <ns3:hr>175</ns3:hr>
            <ns3:cad>82</ns3:cad>
          </ns3:TrackPointExtension>
        </extensions>
      </trkpt>
      <trkpt lat="52.09554397501051425933837890625" lon="1.4360676147043704986572265625">
        <ele>-112.8000030517578125</ele>
        <time>2025-09-05T15:54:24.000Z</time>
        <extensions>
          <ns3:TrackPointExtension>
            <ns3:hr>178</ns3:hr>
            <ns3:cad>81</ns3:cad>
          </ns3:TrackPointExtension>
        </extensions>
      </trkpt>
      <trkpt lat="52.0955527760088443756103515625" lon="1.43603534437716007232666015625">
        <ele>-113</ele>
        <time>2025-09-05T15:54:25.000Z</time>
        <extensions>
          <ns3:TrackPointExtension>
            <ns3:hr>179</ns3:hr>
            <ns3:cad>82</ns3:cad>
          </ns3:TrackPointExtension>
        </extensions>
      </trkpt>
      <trkpt lat="52.09560566581785678863525390625" lon="1.43586955033242702484130859375">
        <ele>-113.1999969482421875</ele>
        <time>2025-09-05T15:54:30.000Z</time>
        <extensions>
          <ns3:TrackPointExtension>
            <ns3:hr>179</ns3:hr>
            <ns3:cad>83</ns3:cad>
          </ns3:TrackPointExtension>
        </extensions>
      </trkpt>
      <trkpt lat="52.09562662057578563690185546875" lon="1.43576125614345073699951171875">
        <ele>-113.1999969482421875</ele>
        <time>2025-09-05T15:54:33.000Z</time>
        <extensions>
          <ns3:TrackPointExtension>
            <ns3:hr>180</ns3:hr>
            <ns3:cad>83</ns3:cad>
          </ns3:TrackPointExtension>
        </extensions>
      </trkpt>
      <trkpt lat="52.095700800418853759765625" lon="1.4354973100125789642333984375">
        <ele>-113.1999969482421875</ele>
        <time>2025-09-05T15:54:41.000Z</time>
        <extensions>
          <ns3:TrackPointExtension>
            <ns3:hr>178</ns3:hr>
            <ns3:cad>81</ns3:cad>
          </ns3:TrackPointExtension>
        </extensions>
      </trkpt>
      <trkpt lat="52.09575603716075420379638671875" lon="1.435262449085712432861328125">
        <ele>-113</ele>
        <time>2025-09-05T15:54:48.000Z</time>
        <extensions>
          <ns3:TrackPointExtension>
            <ns3:hr>178</ns3:hr>
            <ns3:cad>82</ns3:cad>
          </ns3:TrackPointExtension>
        </extensions>
      </trkpt>
      <trkpt lat="52.09581487812101840972900390625" lon="1.435000598430633544921875">
        <ele>-112.1999969482421875</ele>
        <time>2025-09-05T15:54:56.000Z</time>
        <extensions>
          <ns3:TrackPointExtension>
            <ns3:hr>177</ns3:hr>
            <ns3:cad>81</ns3:cad>
          </ns3:TrackPointExtension>
        </extensions>
      </trkpt>
      <trkpt lat="52.095859386026859283447265625" lon="1.4347952418029308319091796875">
        <ele>-111.40000152587890625</ele>
        <time>2025-09-05T15:55:02.000Z</time>
        <extensions>
          <ns3:TrackPointExtension>
            <ns3:hr>177</ns3:hr>
            <ns3:cad>81</ns3:cad>
          </ns3:TrackPointExtension>
        </extensions>
      </trkpt>
      <trkpt lat="52.0958773232996463775634765625" lon="1.43472692929208278656005859375">
        <ele>-111</ele>
        <time>2025-09-05T15:55:04.000Z</time>
        <extensions>
          <ns3:TrackPointExtension>
            <ns3:hr>176</ns3:hr>
            <ns3:cad>82</ns3:cad>
          </ns3:TrackPointExtension>
        </extensions>
      </trkpt>
      <trkpt lat="52.0959225855767726898193359375" lon="1.43456901423633098602294921875">
        <ele>-110.40000152587890625</ele>
        <time>2025-09-05T15:55:09.000Z</time>
        <extensions>
          <ns3:TrackPointExtension>
            <ns3:hr>181</ns3:hr>
            <ns3:cad>82</ns3:cad>
          </ns3:TrackPointExtension>
        </extensions>
      </trkpt>
      <trkpt lat="52.095929794013500213623046875" lon="1.4345379173755645751953125">
        <ele>-110.1999969482421875</ele>
        <time>2025-09-05T15:55:10.000Z</time>
        <extensions>
          <ns3:TrackPointExtension>
            <ns3:hr>180</ns3:hr>
            <ns3:cad>82</ns3:cad>
          </ns3:TrackPointExtension>
        </extensions>
      </trkpt>
      <trkpt lat="52.095953933894634246826171875" lon="1.43448670394718647003173828125">
        <ele>-110</ele>
        <time>2025-09-05T15:55:12.000Z</time>
        <extensions>
          <ns3:TrackPointExtension>
            <ns3:hr>180</ns3:hr>
            <ns3:cad>81</ns3:cad>
          </ns3:TrackPointExtension>
        </extensions>
      </trkpt>
      <trkpt lat="52.09599860943853855133056640625" lon="1.434304229915142059326171875">
        <ele>-109.1999969482421875</ele>
        <time>2025-09-05T15:55:18.000Z</time>
        <extensions>
          <ns3:TrackPointExtension>
            <ns3:hr>180</ns3:hr>
            <ns3:cad>81</ns3:cad>
          </ns3:TrackPointExtension>
        </extensions>
      </trkpt>
      <trkpt lat="52.09601126611232757568359375" lon="1.434241198003292083740234375">
        <ele>-109</ele>
        <time>2025-09-05T15:55:20.000Z</time>
        <extensions>
          <ns3:TrackPointExtension>
            <ns3:hr>179</ns3:hr>
            <ns3:cad>82</ns3:cad>
          </ns3:TrackPointExtension>
        </extensions>
      </trkpt>
      <trkpt lat="52.09606952033936977386474609375" lon="1.43407397903501987457275390625">
        <ele>-108</ele>
        <time>2025-09-05T15:55:26.000Z</time>
        <extensions>
          <ns3:TrackPointExtension>
            <ns3:hr>180</ns3:hr>
            <ns3:cad>81</ns3:cad>
          </ns3:TrackPointExtension>
        </extensions>
      </trkpt>
      <trkpt lat="52.0960798300802707672119140625" lon="1.43404430709779262542724609375">
        <ele>-108</ele>
        <time>2025-09-05T15:55:27.000Z</time>
        <extensions>
          <ns3:TrackPointExtension>
            <ns3:hr>179</ns3:hr>
            <ns3:cad>81</ns3:cad>
          </ns3:TrackPointExtension>
        </extensions>
      </trkpt>
      <trkpt lat="52.096110843122005462646484375" lon="1.433962248265743255615234375">
        <ele>-107.40000152587890625</ele>
        <time>2025-09-05T15:55:30.000Z</time>
        <extensions>
          <ns3:TrackPointExtension>
            <ns3:hr>176</ns3:hr>
            <ns3:cad>81</ns3:cad>
          </ns3:TrackPointExtension>
        </extensions>
      </trkpt>
      <trkpt lat="52.09616306237876415252685546875" lon="1.43378547392785549163818359375">
        <ele>-106.8000030517578125</ele>
        <time>2025-09-05T15:55:35.000Z</time>
        <extensions>
          <ns3:TrackPointExtension>
            <ns3:hr>175</ns3:hr>
            <ns3:cad>82</ns3:cad>
          </ns3:TrackPointExtension>
        </extensions>
      </trkpt>
      <trkpt lat="52.09618250839412212371826171875" lon="1.43361884169280529022216796875">
        <ele>-106.40000152587890625</ele>
        <time>2025-09-05T15:55:39.000Z</time>
        <extensions>
          <ns3:TrackPointExtension>
            <ns3:hr>178</ns3:hr>
            <ns3:cad>82</ns3:cad>
          </ns3:TrackPointExtension>
        </extensions>
      </trkpt>
      <trkpt lat="52.09619742818176746368408203125" lon="1.433553881943225860595703125">
        <ele>-106.1999969482421875</ele>
        <time>2025-09-05T15:55:41.000Z</time>
        <extensions>
          <ns3:TrackPointExtension>
            <ns3:hr>177</ns3:hr>
            <ns3:cad>82</ns3:cad>
          </ns3:TrackPointExtension>
        </extensions>
      </trkpt>
      <trkpt lat="52.09622626192867755889892578125" lon="1.43346813507378101348876953125">
        <ele>-105.8000030517578125</ele>
        <time>2025-09-05T15:55:44.000Z</time>
        <extensions>
          <ns3:TrackPointExtension>
            <ns3:hr>177</ns3:hr>
            <ns3:cad>81</ns3:cad>
          </ns3:TrackPointExtension>
        </extensions>
      </trkpt>
      <trkpt lat="52.096267752349376678466796875" lon="1.43331558443605899810791015625">
        <ele>-105.40000152587890625</ele>
        <time>2025-09-05T15:55:49.000Z</time>
        <extensions>
          <ns3:TrackPointExtension>
            <ns3:hr>177</ns3:hr>
            <ns3:cad>82</ns3:cad>
          </ns3:TrackPointExtension>
        </extensions>
      </trkpt>
      <trkpt lat="52.0963121764361858367919921875" lon="1.4330695755779743194580078125">
        <ele>-105.1999969482421875</ele>
        <time>2025-09-05T15:55:56.000Z</time>
        <extensions>
          <ns3:TrackPointExtension>
            <ns3:hr>177</ns3:hr>
            <ns3:cad>81</ns3:cad>
          </ns3:TrackPointExtension>
        </extensions>
      </trkpt>
      <trkpt lat="52.0963503979146480560302734375" lon="1.4329062961041927337646484375">
        <ele>-105.1999969482421875</ele>
        <time>2025-09-05T15:56:01.000Z</time>
        <extensions>
          <ns3:TrackPointExtension>
            <ns3:hr>174</ns3:hr>
            <ns3:cad>81</ns3:cad>
          </ns3:TrackPointExtension>
        </extensions>
      </trkpt>
      <trkpt lat="52.09637914784252643585205078125" lon="1.43281099386513233184814453125">
        <ele>-105.1999969482421875</ele>
        <time>2025-09-05T15:56:04.000Z</time>
        <extensions>
          <ns3:TrackPointExtension>
            <ns3:hr>172</ns3:hr>
            <ns3:cad>81</ns3:cad>
          </ns3:TrackPointExtension>
        </extensions>
      </trkpt>
      <trkpt lat="52.0964529924094676971435546875" lon="1.432617790997028350830078125">
        <ele>-105.40000152587890625</ele>
        <time>2025-09-05T15:56:11.000Z</time>
        <extensions>
          <ns3:TrackPointExtension>
            <ns3:hr>173</ns3:hr>
            <ns3:cad>81</ns3:cad>
          </ns3:TrackPointExtension>
        </extensions>
      </trkpt>
      <trkpt lat="52.09652499295771121978759765625" lon="1.4323787391185760498046875">
        <ele>-106</ele>
        <time>2025-09-05T15:56:18.000Z</time>
        <extensions>
          <ns3:TrackPointExtension>
            <ns3:hr>176</ns3:hr>
            <ns3:cad>81</ns3:cad>
          </ns3:TrackPointExtension>
        </extensions>
      </trkpt>
      <trkpt lat="52.09654326550662517547607421875" lon="1.43230120651423931121826171875">
        <ele>-106</ele>
        <time>2025-09-05T15:56:20.000Z</time>
        <extensions>
          <ns3:TrackPointExtension>
            <ns3:hr>177</ns3:hr>
            <ns3:cad>81</ns3:cad>
          </ns3:TrackPointExtension>
        </extensions>
      </trkpt>
      <trkpt lat="52.0965834148228168487548828125" lon="1.4320836961269378662109375">
        <ele>-106.8000030517578125</ele>
        <time>2025-09-05T15:56:26.000Z</time>
        <extensions>
          <ns3:TrackPointExtension>
            <ns3:hr>174</ns3:hr>
            <ns3:cad>81</ns3:cad>
          </ns3:TrackPointExtension>
        </extensions>
      </trkpt>
      <trkpt lat="52.09658794105052947998046875" lon="1.432049833238124847412109375">
        <ele>-106.8000030517578125</ele>
        <time>2025-09-05T15:56:27.000Z</time>
        <extensions>
          <ns3:TrackPointExtension>
            <ns3:hr>173</ns3:hr>
            <ns3:cad>81</ns3:cad>
          </ns3:TrackPointExtension>
        </extensions>
      </trkpt>
      <trkpt lat="52.09659556858241558074951171875" lon="1.43201303668320178985595703125">
        <ele>-107</ele>
        <time>2025-09-05T15:56:28.000Z</time>
        <extensions>
          <ns3:TrackPointExtension>
            <ns3:hr>173</ns3:hr>
            <ns3:cad>81</ns3:cad>
          </ns3:TrackPointExtension>
        </extensions>
      </trkpt>
      <trkpt lat="52.09666815586388111114501953125" lon="1.4317884854972362518310546875">
        <ele>-107.8000030517578125</ele>
        <time>2025-09-05T15:56:35.000Z</time>
        <extensions>
          <ns3:TrackPointExtension>
            <ns3:hr>175</ns3:hr>
            <ns3:cad>81</ns3:cad>
          </ns3:TrackPointExtension>
        </extensions>
      </trkpt>
      <trkpt lat="52.0967403240501880645751953125" lon="1.43155940808355808258056640625">
        <ele>-108.8000030517578125</ele>
        <time>2025-09-05T15:56:42.000Z</time>
        <extensions>
          <ns3:TrackPointExtension>
            <ns3:hr>175</ns3:hr>
            <ns3:cad>81</ns3:cad>
          </ns3:TrackPointExtension>
        </extensions>
      </trkpt>
      <trkpt lat="52.09674887359142303466796875" lon="1.43152319826185703277587890625">
        <ele>-109</ele>
        <time>2025-09-05T15:56:43.000Z</time>
        <extensions>
          <ns3:TrackPointExtension>
            <ns3:hr>175</ns3:hr>
            <ns3:cad>81</ns3:cad>
          </ns3:TrackPointExtension>
        </extensions>
      </trkpt>
      <trkpt lat="52.09681668318808078765869140625" lon="1.43135958351194858551025390625">
        <ele>-109.8000030517578125</ele>
        <time>2025-09-05T15:56:49.000Z</time>
        <extensions>
          <ns3:TrackPointExtension>
            <ns3:hr>175</ns3:hr>
            <ns3:cad>81</ns3:cad>
          </ns3:TrackPointExtension>
        </extensions>
      </trkpt>
      <trkpt lat="52.096840403974056243896484375" lon="1.43130526877939701080322265625">
        <ele>-110.1999969482421875</ele>
        <time>2025-09-05T15:56:51.000Z</time>
        <extensions>
          <ns3:TrackPointExtension>
            <ns3:hr>176</ns3:hr>
            <ns3:cad>81</ns3:cad>
          </ns3:TrackPointExtension>
        </extensions>
      </trkpt>
      <trkpt lat="52.096910811960697174072265625" lon="1.4311383850872516632080078125">
        <ele>-110.8000030517578125</ele>
        <time>2025-09-05T15:56:57.000Z</time>
        <extensions>
          <ns3:TrackPointExtension>
            <ns3:hr>176</ns3:hr>
            <ns3:cad>81</ns3:cad>
          </ns3:TrackPointExtension>
        </extensions>
      </trkpt>
      <trkpt lat="52.09693419747054576873779296875" lon="1.4310864172875881195068359375">
        <ele>-111.1999969482421875</ele>
        <time>2025-09-05T15:56:59.000Z</time>
        <extensions>
          <ns3:TrackPointExtension>
            <ns3:hr>177</ns3:hr>
            <ns3:cad>81</ns3:cad>
          </ns3:TrackPointExtension>
        </extensions>
      </trkpt>
      <trkpt lat="52.09697015583515167236328125" lon="1.43094266764819622039794921875">
        <ele>-111.59999847412109375</ele>
        <time>2025-09-05T15:57:04.000Z</time>
        <extensions>
          <ns3:TrackPointExtension>
            <ns3:hr>177</ns3:hr>
            <ns3:cad>81</ns3:cad>
          </ns3:TrackPointExtension>
        </extensions>
      </trkpt>
      <trkpt lat="52.0970048569142818450927734375" lon="1.43072524107992649078369140625">
        <ele>-112</ele>
        <time>2025-09-05T15:57:10.000Z</time>
        <extensions>
          <ns3:TrackPointExtension>
            <ns3:hr>180</ns3:hr>
            <ns3:cad>81</ns3:cad>
          </ns3:TrackPointExtension>
        </extensions>
      </trkpt>
      <trkpt lat="52.09701349027454853057861328125" lon="1.4306460320949554443359375">
        <ele>-112.1999969482421875</ele>
        <time>2025-09-05T15:57:12.000Z</time>
        <extensions>
          <ns3:TrackPointExtension>
            <ns3:hr>180</ns3:hr>
            <ns3:cad>82</ns3:cad>
          </ns3:TrackPointExtension>
        </extensions>
      </trkpt>
      <trkpt lat="52.09701650775969028472900390625" lon="1.430599428713321685791015625">
        <ele>-112.1999969482421875</ele>
        <time>2025-09-05T15:57:13.000Z</time>
        <extensions>
          <ns3:TrackPointExtension>
            <ns3:hr>179</ns3:hr>
            <ns3:cad>81</ns3:cad>
          </ns3:TrackPointExtension>
        </extensions>
      </trkpt>
      <trkpt lat="52.09706403315067291259765625" lon="1.4303307048976421356201171875">
        <ele>-112.40000152587890625</ele>
        <time>2025-09-05T15:57:21.000Z</time>
        <extensions>
          <ns3:TrackPointExtension>
            <ns3:hr>179</ns3:hr>
            <ns3:cad>80</ns3:cad>
          </ns3:TrackPointExtension>
        </extensions>
      </trkpt>
      <trkpt lat="52.097098566591739654541015625" lon="1.43020388670265674591064453125">
        <ele>-112.59999847412109375</ele>
        <time>2025-09-05T15:57:25.000Z</time>
        <extensions>
          <ns3:TrackPointExtension>
            <ns3:hr>182</ns3:hr>
            <ns3:cad>81</ns3:cad>
          </ns3:TrackPointExtension>
        </extensions>
      </trkpt>
      <trkpt lat="52.0971262268722057342529296875" lon="1.430036164820194244384765625">
        <ele>-112.59999847412109375</ele>
        <time>2025-09-05T15:57:29.000Z</time>
        <extensions>
          <ns3:TrackPointExtension>
            <ns3:hr>181</ns3:hr>
            <ns3:cad>81</ns3:cad>
          </ns3:TrackPointExtension>
        </extensions>
      </trkpt>
      <trkpt lat="52.097179703414440155029296875" lon="1.42975260503590106964111328125">
        <ele>-112.8000030517578125</ele>
        <time>2025-09-05T15:57:37.000Z</time>
        <extensions>
          <ns3:TrackPointExtension>
            <ns3:hr>181</ns3:hr>
            <ns3:cad>81</ns3:cad>
          </ns3:TrackPointExtension>
        </extensions>
      </trkpt>
      <trkpt lat="52.09719152189791202545166015625" lon="1.42959385178983211517333984375">
        <ele>-112.8000030517578125</ele>
        <time>2025-09-05T15:57:41.000Z</time>
        <extensions>
          <ns3:TrackPointExtension>
            <ns3:hr>178</ns3:hr>
            <ns3:cad>81</ns3:cad>
          </ns3:TrackPointExtension>
        </extensions>
      </trkpt>
      <trkpt lat="52.09720443002879619598388671875" lon="1.429534591734409332275390625">
        <ele>-112.8000030517578125</ele>
        <time>2025-09-05T15:57:43.000Z</time>
        <extensions>
          <ns3:TrackPointExtension>
            <ns3:hr>178</ns3:hr>
            <ns3:cad>81</ns3:cad>
          </ns3:TrackPointExtension>
        </extensions>
      </trkpt>
      <trkpt lat="52.0972739160060882568359375" lon="1.42930953763425350189208984375">
        <ele>-112.8000030517578125</ele>
        <time>2025-09-05T15:57:51.000Z</time>
        <extensions>
          <ns3:TrackPointExtension>
            <ns3:hr>177</ns3:hr>
            <ns3:cad>81</ns3:cad>
          </ns3:TrackPointExtension>
        </extensions>
      </trkpt>
      <trkpt lat="52.097315825521945953369140625" lon="1.42910082824528217315673828125">
        <ele>-112.59999847412109375</ele>
        <time>2025-09-05T15:57:59.000Z</time>
        <extensions>
          <ns3:TrackPointExtension>
            <ns3:hr>176</ns3:hr>
            <ns3:cad>58</ns3:cad>
          </ns3:TrackPointExtension>
        </extensions>
      </trkpt>
      <trkpt lat="52.09735597483813762664794921875" lon="1.42896420322358608245849609375">
        <ele>-112.59999847412109375</ele>
        <time>2025-09-05T15:58:06.000Z</time>
        <extensions>
          <ns3:TrackPointExtension>
            <ns3:hr>174</ns3:hr>
            <ns3:cad>59</ns3:cad>
          </ns3:TrackPointExtension>
        </extensions>
      </trkpt>
      <trkpt lat="52.09736586548388004302978515625" lon="1.42889094538986682891845703125">
        <ele>-113.1999969482421875</ele>
        <time>2025-09-05T15:58:10.000Z</time>
        <extensions>
          <ns3:TrackPointExtension>
            <ns3:hr>171</ns3:hr>
            <ns3:cad>59</ns3:cad>
          </ns3:TrackPointExtension>
        </extensions>
      </trkpt>
      <trkpt lat="52.09736620076000690460205078125" lon="1.42887116409838199615478515625">
        <ele>-113.1999969482421875</ele>
        <time>2025-09-05T15:58:11.000Z</time>
        <extensions>
          <ns3:TrackPointExtension>
            <ns3:hr>171</ns3:hr>
            <ns3:cad>59</ns3:cad>
          </ns3:TrackPointExtension>
        </extensions>
      </trkpt>
      <trkpt lat="52.09738858044147491455078125" lon="1.42877376638352870941162109375">
        <ele>-114.1999969482421875</ele>
        <time>2025-09-05T15:58:16.000Z</time>
        <extensions>
          <ns3:TrackPointExtension>
            <ns3:hr>170</ns3:hr>
            <ns3:cad>60</ns3:cad>
          </ns3:TrackPointExtension>
        </extensions>
      </trkpt>
      <trkpt lat="52.0973919332027435302734375" lon="1.42876245081424713134765625">
        <ele>-114.40000152587890625</ele>
        <time>2025-09-05T15:58:17.000Z</time>
        <extensions>
          <ns3:TrackPointExtension>
            <ns3:hr>170</ns3:hr>
            <ns3:cad>60</ns3:cad>
          </ns3:TrackPointExtension>
        </extensions>
      </trkpt>
      <trkpt lat="52.09741699509322643280029296875" lon="1.42870956100523471832275390625">
        <ele>-115.40000152587890625</ele>
        <time>2025-09-05T15:58:22.000Z</time>
        <extensions>
          <ns3:TrackPointExtension>
            <ns3:hr>169</ns3:hr>
            <ns3:cad>59</ns3:cad>
          </ns3:TrackPointExtension>
        </extensions>
      </trkpt>
      <trkpt lat="52.0974276401102542877197265625" lon="1.4286839962005615234375">
        <ele>-115.8000030517578125</ele>
        <time>2025-09-05T15:58:24.000Z</time>
        <extensions>
          <ns3:TrackPointExtension>
            <ns3:hr>169</ns3:hr>
            <ns3:cad>59</ns3:cad>
          </ns3:TrackPointExtension>
        </extensions>
      </trkpt>
      <trkpt lat="52.0974283106625080108642578125" lon="1.42857729457318782806396484375">
        <ele>-116.40000152587890625</ele>
        <time>2025-09-05T15:58:27.000Z</time>
        <extensions>
          <ns3:TrackPointExtension>
            <ns3:hr>166</ns3:hr>
            <ns3:cad>60</ns3:cad>
          </ns3:TrackPointExtension>
        </extensions>
      </trkpt>
      <trkpt lat="52.09743979386985301971435546875" lon="1.42845961265265941619873046875">
        <ele>-117.40000152587890625</ele>
        <time>2025-09-05T15:58:31.000Z</time>
        <extensions>
          <ns3:TrackPointExtension>
            <ns3:hr>166</ns3:hr>
            <ns3:cad>57</ns3:cad>
          </ns3:TrackPointExtension>
        </extensions>
      </trkpt>
      <trkpt lat="52.09744616411626338958740234375" lon="1.4284380711615085601806640625">
        <ele>-117.59999847412109375</ele>
        <time>2025-09-05T15:58:32.000Z</time>
        <extensions>
          <ns3:TrackPointExtension>
            <ns3:hr>167</ns3:hr>
            <ns3:cad>57</ns3:cad>
          </ns3:TrackPointExtension>
        </extensions>
      </trkpt>
      <trkpt lat="52.09745471365749835968017578125" lon="1.428311169147491455078125">
        <ele>-118.59999847412109375</ele>
        <time>2025-09-05T15:58:36.000Z</time>
        <extensions>
          <ns3:TrackPointExtension>
            <ns3:hr>169</ns3:hr>
            <ns3:cad>60</ns3:cad>
          </ns3:TrackPointExtension>
        </extensions>
      </trkpt>
      <trkpt lat="52.09745873697102069854736328125" lon="1.42828996293246746063232421875">
        <ele>-119</ele>
        <time>2025-09-05T15:58:37.000Z</time>
        <extensions>
          <ns3:TrackPointExtension>
            <ns3:hr>169</ns3:hr>
            <ns3:cad>60</ns3:cad>
          </ns3:TrackPointExtension>
        </extensions>
      </trkpt>
      <trkpt lat="52.09747709333896636962890625" lon="1.4281903021037578582763671875">
        <ele>-119.8000030517578125</ele>
        <time>2025-09-05T15:58:41.000Z</time>
        <extensions>
          <ns3:TrackPointExtension>
            <ns3:hr>168</ns3:hr>
            <ns3:cad>0</ns3:cad>
          </ns3:TrackPointExtension>
        </extensions>
      </trkpt>
      <trkpt lat="52.09749964065849781036376953125" lon="1.42810522578656673431396484375">
        <ele>-120.59999847412109375</ele>
        <time>2025-09-05T15:58:44.000Z</time>
        <extensions>
          <ns3:TrackPointExtension>
            <ns3:hr>169</ns3:hr>
            <ns3:cad>0</ns3:cad>
          </ns3:TrackPointExtension>
        </extensions>
      </trkpt>
      <trkpt lat="52.09750927984714508056640625" lon="1.428052671253681182861328125">
        <ele>-121</ele>
        <time>2025-09-05T15:58:46.000Z</time>
        <extensions>
          <ns3:TrackPointExtension>
            <ns3:hr>171</ns3:hr>
            <ns3:cad>60</ns3:cad>
          </ns3:TrackPointExtension>
        </extensions>
      </trkpt>
      <trkpt lat="52.0975275523960590362548828125" lon="1.42800162546336650848388671875">
        <ele>-121.40000152587890625</ele>
        <time>2025-09-05T15:58:48.000Z</time>
        <extensions>
          <ns3:TrackPointExtension>
            <ns3:hr>166</ns3:hr>
            <ns3:cad>0</ns3:cad>
          </ns3:TrackPointExtension>
        </extensions>
      </trkpt>
      <trkpt lat="52.0975399576127529144287109375" lon="1.4279495738446712493896484375">
        <ele>-121.8000030517578125</ele>
        <time>2025-09-05T15:58:50.000Z</time>
        <extensions>
          <ns3:TrackPointExtension>
            <ns3:hr>168</ns3:hr>
            <ns3:cad>0</ns3:cad>
          </ns3:TrackPointExtension>
        </extensions>
      </trkpt>
      <trkpt lat="52.09754507057368755340576171875" lon="1.4279250986874103546142578125">
        <ele>-122</ele>
        <time>2025-09-05T15:58:51.000Z</time>
        <extensions>
          <ns3:TrackPointExtension>
            <ns3:hr>169</ns3:hr>
            <ns3:cad>0</ns3:cad>
          </ns3:TrackPointExtension>
        </extensions>
      </trkpt>
      <trkpt lat="52.0975966192781925201416015625" lon="1.4278157986700534820556640625">
        <ele>-123</ele>
        <time>2025-09-05T15:58:56.000Z</time>
        <extensions>
          <ns3:TrackPointExtension>
            <ns3:hr>166</ns3:hr>
            <ns3:cad>0</ns3:cad>
          </ns3:TrackPointExtension>
        </extensions>
      </trkpt>
      <trkpt lat="52.09762394428253173828125" lon="1.42775301821529865264892578125">
        <ele>-123.59999847412109375</ele>
        <time>2025-09-05T15:58:59.000Z</time>
        <extensions>
          <ns3:TrackPointExtension>
            <ns3:hr>168</ns3:hr>
            <ns3:cad>0</ns3:cad>
          </ns3:TrackPointExtension>
        </extensions>
      </trkpt>
      <trkpt lat="52.09764607250690460205078125" lon="1.42769753001630306243896484375">
        <ele>-124.1999969482421875</ele>
        <time>2025-09-05T15:59:02.000Z</time>
        <extensions>
          <ns3:TrackPointExtension>
            <ns3:hr>169</ns3:hr>
            <ns3:cad>61</ns3:cad>
          </ns3:TrackPointExtension>
        </extensions>
      </trkpt>
      <trkpt lat="52.0976673625409603118896484375" lon="1.42764220945537090301513671875">
        <ele>-124.8000030517578125</ele>
        <time>2025-09-05T15:59:05.000Z</time>
        <extensions>
          <ns3:TrackPointExtension>
            <ns3:hr>165</ns3:hr>
            <ns3:cad>60</ns3:cad>
          </ns3:TrackPointExtension>
        </extensions>
      </trkpt>
      <trkpt lat="52.09769007749855518341064453125" lon="1.42761136405169963836669921875">
        <ele>-125</ele>
        <time>2025-09-05T15:59:07.000Z</time>
        <extensions>
          <ns3:TrackPointExtension>
            <ns3:hr>161</ns3:hr>
            <ns3:cad>59</ns3:cad>
          </ns3:TrackPointExtension>
        </extensions>
      </trkpt>
      <trkpt lat="52.0976975373923778533935546875" lon="1.4275925047695636749267578125">
        <ele>-125.1999969482421875</ele>
        <time>2025-09-05T15:59:08.000Z</time>
        <extensions>
          <ns3:TrackPointExtension>
            <ns3:hr>159</ns3:hr>
            <ns3:cad>59</ns3:cad>
          </ns3:TrackPointExtension>
        </extensions>
      </trkpt>
      <trkpt lat="52.09770315326750278472900390625" lon="1.42754833213984966278076171875">
        <ele>-125.59999847412109375</ele>
        <time>2025-09-05T15:59:10.000Z</time>
        <extensions>
          <ns3:TrackPointExtension>
            <ns3:hr>157</ns3:hr>
            <ns3:cad>59</ns3:cad>
          </ns3:TrackPointExtension>
        </extensions>
      </trkpt>
      <trkpt lat="52.09771203808486461639404296875" lon="1.4274919219315052032470703125">
        <ele>-126</ele>
        <time>2025-09-05T15:59:12.000Z</time>
        <extensions>
          <ns3:TrackPointExtension>
            <ns3:hr>154</ns3:hr>
            <ns3:cad>60</ns3:cad>
          </ns3:TrackPointExtension>
        </extensions>
      </trkpt>
      <trkpt lat="52.0977283827960491180419921875" lon="1.42744087614119052886962890625">
        <ele>-126.40000152587890625</ele>
        <time>2025-09-05T15:59:14.000Z</time>
        <extensions>
          <ns3:TrackPointExtension>
            <ns3:hr>154</ns3:hr>
            <ns3:cad>60</ns3:cad>
          </ns3:TrackPointExtension>
        </extensions>
      </trkpt>
      <trkpt lat="52.09774606861174106597900390625" lon="1.42733643762767314910888671875">
        <ele>-127</ele>
        <time>2025-09-05T15:59:18.000Z</time>
        <extensions>
          <ns3:TrackPointExtension>
            <ns3:hr>154</ns3:hr>
            <ns3:cad>60</ns3:cad>
          </ns3:TrackPointExtension>
        </extensions>
      </trkpt>
      <trkpt lat="52.0977625809609889984130859375" lon="1.42727659083902835845947265625">
        <ele>-127.40000152587890625</ele>
        <time>2025-09-05T15:59:20.000Z</time>
        <extensions>
          <ns3:TrackPointExtension>
            <ns3:hr>153</ns3:hr>
            <ns3:cad>60</ns3:cad>
          </ns3:TrackPointExtension>
        </extensions>
      </trkpt>
      <trkpt lat="52.097809016704559326171875" lon="1.42716108821332454681396484375">
        <ele>-128.399993896484375</ele>
        <time>2025-09-05T15:59:25.000Z</time>
        <extensions>
          <ns3:TrackPointExtension>
            <ns3:hr>153</ns3:hr>
            <ns3:cad>60</ns3:cad>
          </ns3:TrackPointExtension>
        </extensions>
      </trkpt>
      <trkpt lat="52.097816057503223419189453125" lon="1.42713493667542934417724609375">
        <ele>-128.600006103515625</ele>
        <time>2025-09-05T15:59:26.000Z</time>
        <extensions>
          <ns3:TrackPointExtension>
            <ns3:hr>153</ns3:hr>
            <ns3:cad>60</ns3:cad>
          </ns3:TrackPointExtension>
        </extensions>
      </trkpt>
      <trkpt lat="52.0978447236120700836181640625" lon="1.4269928634166717529296875">
        <ele>-129.600006103515625</ele>
        <time>2025-09-05T15:59:32.000Z</time>
        <extensions>
          <ns3:TrackPointExtension>
            <ns3:hr>153</ns3:hr>
            <ns3:cad>60</ns3:cad>
          </ns3:TrackPointExtension>
        </extensions>
      </trkpt>
      <trkpt lat="52.09785101003944873809814453125" lon="1.42696939408779144287109375">
        <ele>-129.8000030517578125</ele>
        <time>2025-09-05T15:59:33.000Z</time>
        <extensions>
          <ns3:TrackPointExtension>
            <ns3:hr>153</ns3:hr>
            <ns3:cad>60</ns3:cad>
          </ns3:TrackPointExtension>
        </extensions>
      </trkpt>
      <trkpt lat="52.097855620086193084716796875" lon="1.42686755396425724029541015625">
        <ele>-130.600006103515625</ele>
        <time>2025-09-05T15:59:37.000Z</time>
        <extensions>
          <ns3:TrackPointExtension>
            <ns3:hr>150</ns3:hr>
            <ns3:cad>60</ns3:cad>
          </ns3:TrackPointExtension>
        </extensions>
      </trkpt>
      <trkpt lat="52.09785654209554195404052734375" lon="1.4268451742827892303466796875">
        <ele>-130.8000030517578125</ele>
        <time>2025-09-05T15:59:38.000Z</time>
        <extensions>
          <ns3:TrackPointExtension>
            <ns3:hr>148</ns3:hr>
            <ns3:cad>60</ns3:cad>
          </ns3:TrackPointExtension>
        </extensions>
      </trkpt>
      <trkpt lat="52.097862660884857177734375" lon="1.42682329751551151275634765625">
        <ele>-131</ele>
        <time>2025-09-05T15:59:39.000Z</time>
        <extensions>
          <ns3:TrackPointExtension>
            <ns3:hr>150</ns3:hr>
            <ns3:cad>60</ns3:cad>
          </ns3:TrackPointExtension>
        </extensions>
      </trkpt>
      <trkpt lat="52.0978782512247562408447265625" lon="1.4266897737979888916015625">
        <ele>-132</ele>
        <time>2025-09-05T15:59:44.000Z</time>
        <extensions>
          <ns3:TrackPointExtension>
            <ns3:hr>148</ns3:hr>
            <ns3:cad>0</ns3:cad>
          </ns3:TrackPointExtension>
        </extensions>
      </trkpt>
      <trkpt lat="52.09788755513727664947509765625" lon="1.426635123789310455322265625">
        <ele>-132.399993896484375</ele>
        <time>2025-09-05T15:59:46.000Z</time>
        <extensions>
          <ns3:TrackPointExtension>
            <ns3:hr>148</ns3:hr>
            <ns3:cad>59</ns3:cad>
          </ns3:TrackPointExtension>
        </extensions>
      </trkpt>
      <trkpt lat="52.0978990383446216583251953125" lon="1.42656446434557437896728515625">
        <ele>-133</ele>
        <time>2025-09-05T15:59:49.000Z</time>
        <extensions>
          <ns3:TrackPointExtension>
            <ns3:hr>152</ns3:hr>
            <ns3:cad>59</ns3:cad>
          </ns3:TrackPointExtension>
        </extensions>
      </trkpt>
      <trkpt lat="52.0979211665689945220947265625" lon="1.426473520696163177490234375">
        <ele>-134</ele>
        <time>2025-09-05T15:59:54.000Z</time>
        <extensions>
          <ns3:TrackPointExtension>
            <ns3:hr>151</ns3:hr>
            <ns3:cad>59</ns3:cad>
          </ns3:TrackPointExtension>
        </extensions>
      </trkpt>
      <trkpt lat="52.0979597233235836029052734375" lon="1.4263734407722949981689453125">
        <ele>-135.1999969482421875</ele>
        <time>2025-09-05T15:59:59.000Z</time>
        <extensions>
          <ns3:TrackPointExtension>
            <ns3:hr>151</ns3:hr>
            <ns3:cad>60</ns3:cad>
          </ns3:TrackPointExtension>
        </extensions>
      </trkpt>
      <trkpt lat="52.09797824732959270477294921875" lon="1.4263236522674560546875">
        <ele>-135.8000030517578125</ele>
        <time>2025-09-05T16:00:02.000Z</time>
        <extensions>
          <ns3:TrackPointExtension>
            <ns3:hr>150</ns3:hr>
            <ns3:cad>59</ns3:cad>
          </ns3:TrackPointExtension>
        </extensions>
      </trkpt>
      <trkpt lat="52.09799216128885746002197265625" lon="1.42628668807446956634521484375">
        <ele>-136.399993896484375</ele>
        <time>2025-09-05T16:00:04.000Z</time>
        <extensions>
          <ns3:TrackPointExtension>
            <ns3:hr>154</ns3:hr>
            <ns3:cad>55</ns3:cad>
          </ns3:TrackPointExtension>
        </extensions>
      </trkpt>
      <trkpt lat="52.098017223179340362548828125" lon="1.426222063601016998291015625">
        <ele>-137</ele>
        <time>2025-09-05T16:00:07.000Z</time>
        <extensions>
          <ns3:TrackPointExtension>
            <ns3:hr>151</ns3:hr>
            <ns3:cad>113</ns3:cad>
          </ns3:TrackPointExtension>
        </extensions>
      </trkpt>
      <trkpt lat="52.0980338193476200103759765625" lon="1.4261514879763126373291015625">
        <ele>-137.399993896484375</ele>
        <time>2025-09-05T16:00:09.000Z</time>
        <extensions>
          <ns3:TrackPointExtension>
            <ns3:hr>152</ns3:hr>
            <ns3:cad>53</ns3:cad>
          </ns3:TrackPointExtension>
        </extensions>
      </trkpt>
      <trkpt lat="52.09803541190922260284423828125" lon="1.4261186309158802032470703125">
        <ele>-137.600006103515625</ele>
        <time>2025-09-05T16:00:10.000Z</time>
        <extensions>
          <ns3:TrackPointExtension>
            <ns3:hr>154</ns3:hr>
            <ns3:cad>53</ns3:cad>
          </ns3:TrackPointExtension>
        </extensions>
      </trkpt>
      <trkpt lat="52.0980505831539630889892578125" lon="1.42601008526980876922607421875">
        <ele>-138.600006103515625</ele>
        <time>2025-09-05T16:00:14.000Z</time>
        <extensions>
          <ns3:TrackPointExtension>
            <ns3:hr>151</ns3:hr>
            <ns3:cad>0</ns3:cad>
          </ns3:TrackPointExtension>
        </extensions>
      </trkpt>
      <trkpt lat="52.0980603061616420745849609375" lon="1.425952501595020294189453125">
        <ele>-139.399993896484375</ele>
        <time>2025-09-05T16:00:17.000Z</time>
        <extensions>
          <ns3:TrackPointExtension>
            <ns3:hr>152</ns3:hr>
            <ns3:cad>0</ns3:cad>
          </ns3:TrackPointExtension>
        </extensions>
      </trkpt>
      <trkpt lat="52.09808117710053920745849609375" lon="1.4259057305753231048583984375">
        <ele>-139.8000030517578125</ele>
        <time>2025-09-05T16:00:19.000Z</time>
        <extensions>
          <ns3:TrackPointExtension>
            <ns3:hr>152</ns3:hr>
            <ns3:cad>0</ns3:cad>
          </ns3:TrackPointExtension>
        </extensions>
      </trkpt>
      <trkpt lat="52.09812409244477748870849609375" lon="1.42580665647983551025390625">
        <ele>-140.8000030517578125</ele>
        <time>2025-09-05T16:00:23.000Z</time>
        <extensions>
          <ns3:TrackPointExtension>
            <ns3:hr>152</ns3:hr>
            <ns3:cad>80</ns3:cad>
          </ns3:TrackPointExtension>
        </extensions>
      </trkpt>
      <trkpt lat="52.098127864301204681396484375" lon="1.42577505670487880706787109375">
        <ele>-141</ele>
        <time>2025-09-05T16:00:24.000Z</time>
        <extensions>
          <ns3:TrackPointExtension>
            <ns3:hr>151</ns3:hr>
            <ns3:cad>81</ns3:cad>
          </ns3:TrackPointExtension>
        </extensions>
      </trkpt>
      <trkpt lat="52.0981806702911853790283203125" lon="1.42566055990755558013916015625">
        <ele>-142</ele>
        <time>2025-09-05T16:00:28.000Z</time>
        <extensions>
          <ns3:TrackPointExtension>
            <ns3:hr>152</ns3:hr>
            <ns3:cad>82</ns3:cad>
          </ns3:TrackPointExtension>
        </extensions>
      </trkpt>
      <trkpt lat="52.09819030947983264923095703125" lon="1.4256338216364383697509765625">
        <ele>-142.1999969482421875</ele>
        <time>2025-09-05T16:00:29.000Z</time>
        <extensions>
          <ns3:TrackPointExtension>
            <ns3:hr>156</ns3:hr>
            <ns3:cad>83</ns3:cad>
          </ns3:TrackPointExtension>
        </extensions>
      </trkpt>
      <trkpt lat="52.0982007868587970733642578125" lon="1.425583362579345703125">
        <ele>-142.600006103515625</ele>
        <time>2025-09-05T16:00:31.000Z</time>
        <extensions>
          <ns3:TrackPointExtension>
            <ns3:hr>160</ns3:hr>
            <ns3:cad>83</ns3:cad>
          </ns3:TrackPointExtension>
        </extensions>
      </trkpt>
      <trkpt lat="52.0982118509709835052490234375" lon="1.4255605638027191162109375">
        <ele>-142.8000030517578125</ele>
        <time>2025-09-05T16:00:32.000Z</time>
        <extensions>
          <ns3:TrackPointExtension>
            <ns3:hr>156</ns3:hr>
            <ns3:cad>83</ns3:cad>
          </ns3:TrackPointExtension>
        </extensions>
      </trkpt>
      <trkpt lat="52.0982336439192295074462890625" lon="1.42549945972859859466552734375">
        <ele>-143</ele>
        <time>2025-09-05T16:00:34.000Z</time>
        <extensions>
          <ns3:TrackPointExtension>
            <ns3:hr>158</ns3:hr>
            <ns3:cad>83</ns3:cad>
          </ns3:TrackPointExtension>
        </extensions>
      </trkpt>
      <trkpt lat="52.0982675068080425262451171875" lon="1.4253795146942138671875">
        <ele>-143.399993896484375</ele>
        <time>2025-09-05T16:00:38.000Z</time>
        <extensions>
          <ns3:TrackPointExtension>
            <ns3:hr>160</ns3:hr>
            <ns3:cad>83</ns3:cad>
          </ns3:TrackPointExtension>
        </extensions>
      </trkpt>
      <trkpt lat="52.0982805825769901275634765625" lon="1.42531958408653736114501953125">
        <ele>-143.399993896484375</ele>
        <time>2025-09-05T16:00:40.000Z</time>
        <extensions>
          <ns3:TrackPointExtension>
            <ns3:hr>163</ns3:hr>
            <ns3:cad>82</ns3:cad>
          </ns3:TrackPointExtension>
        </extensions>
      </trkpt>
      <trkpt lat="52.0983188040554523468017578125" lon="1.4251302368938922882080078125">
        <ele>-143.1999969482421875</ele>
        <time>2025-09-05T16:00:46.000Z</time>
        <extensions>
          <ns3:TrackPointExtension>
            <ns3:hr>164</ns3:hr>
            <ns3:cad>81</ns3:cad>
          </ns3:TrackPointExtension>
        </extensions>
      </trkpt>
      <trkpt lat="52.098333723843097686767578125" lon="1.425002329051494598388671875">
        <ele>-142.8000030517578125</ele>
        <time>2025-09-05T16:00:50.000Z</time>
        <extensions>
          <ns3:TrackPointExtension>
            <ns3:hr>167</ns3:hr>
            <ns3:cad>81</ns3:cad>
          </ns3:TrackPointExtension>
        </extensions>
      </trkpt>
      <trkpt lat="52.09836482070386409759521484375" lon="1.42481666989624500274658203125">
        <ele>-142.1999969482421875</ele>
        <time>2025-09-05T16:00:55.000Z</time>
        <extensions>
          <ns3:TrackPointExtension>
            <ns3:hr>171</ns3:hr>
            <ns3:cad>82</ns3:cad>
          </ns3:TrackPointExtension>
        </extensions>
      </trkpt>
      <trkpt lat="52.09837429225444793701171875" lon="1.4247486926615238189697265625">
        <ele>-142</ele>
        <time>2025-09-05T16:00:57.000Z</time>
        <extensions>
          <ns3:TrackPointExtension>
            <ns3:hr>171</ns3:hr>
            <ns3:cad>81</ns3:cad>
          </ns3:TrackPointExtension>
        </extensions>
      </trkpt>
      <trkpt lat="52.0983338914811611175537109375" lon="1.4246652089059352874755859375">
        <ele>-141.8000030517578125</ele>
        <time>2025-09-05T16:00:59.000Z</time>
        <extensions>
          <ns3:TrackPointExtension>
            <ns3:hr>170</ns3:hr>
            <ns3:cad>81</ns3:cad>
          </ns3:TrackPointExtension>
        </extensions>
      </trkpt>
      <trkpt lat="52.0982779003679752349853515625" lon="1.4245842397212982177734375">
        <ele>-141.399993896484375</ele>
        <time>2025-09-05T16:01:01.000Z</time>
        <extensions>
          <ns3:TrackPointExtension>
            <ns3:hr>169</ns3:hr>
            <ns3:cad>81</ns3:cad>
          </ns3:TrackPointExtension>
        </extensions>
      </trkpt>
      <trkpt lat="52.0981903932988643646240234375" lon="1.4244982413947582244873046875">
        <ele>-141</ele>
        <time>2025-09-05T16:01:04.000Z</time>
        <extensions>
          <ns3:TrackPointExtension>
            <ns3:hr>169</ns3:hr>
            <ns3:cad>82</ns3:cad>
          </ns3:TrackPointExtension>
        </extensions>
      </trkpt>
      <trkpt lat="52.09810741245746612548828125" lon="1.42444283701479434967041015625">
        <ele>-140.399993896484375</ele>
        <time>2025-09-05T16:01:07.000Z</time>
        <extensions>
          <ns3:TrackPointExtension>
            <ns3:hr>172</ns3:hr>
            <ns3:cad>83</ns3:cad>
          </ns3:TrackPointExtension>
        </extensions>
      </trkpt>
      <trkpt lat="52.098044045269489288330078125" lon="1.42435952089726924896240234375">
        <ele>-139.8000030517578125</ele>
        <time>2025-09-05T16:01:11.000Z</time>
        <extensions>
          <ns3:TrackPointExtension>
            <ns3:hr>174</ns3:hr>
            <ns3:cad>83</ns3:cad>
          </ns3:TrackPointExtension>
        </extensions>
      </trkpt>
      <trkpt lat="52.09799735806882381439208984375" lon="1.42429246567189693450927734375">
        <ele>-139.1999969482421875</ele>
        <time>2025-09-05T16:01:14.000Z</time>
        <extensions>
          <ns3:TrackPointExtension>
            <ns3:hr>174</ns3:hr>
            <ns3:cad>82</ns3:cad>
          </ns3:TrackPointExtension>
        </extensions>
      </trkpt>
      <trkpt lat="52.0979429595172405242919921875" lon="1.42420403659343719482421875">
        <ele>-138.600006103515625</ele>
        <time>2025-09-05T16:01:18.000Z</time>
        <extensions>
          <ns3:TrackPointExtension>
            <ns3:hr>173</ns3:hr>
            <ns3:cad>82</ns3:cad>
          </ns3:TrackPointExtension>
        </extensions>
      </trkpt>
      <trkpt lat="52.0979191549122333526611328125" lon="1.424121558666229248046875">
        <ele>-138.1999969482421875</ele>
        <time>2025-09-05T16:01:21.000Z</time>
        <extensions>
          <ns3:TrackPointExtension>
            <ns3:hr>173</ns3:hr>
            <ns3:cad>82</ns3:cad>
          </ns3:TrackPointExtension>
        </extensions>
      </trkpt>
      <trkpt lat="52.09794647991657257080078125" lon="1.424001194536685943603515625">
        <ele>-137.600006103515625</ele>
        <time>2025-09-05T16:01:25.000Z</time>
        <extensions>
          <ns3:TrackPointExtension>
            <ns3:hr>173</ns3:hr>
            <ns3:cad>81</ns3:cad>
          </ns3:TrackPointExtension>
        </extensions>
      </trkpt>
      <trkpt lat="52.097969613969326019287109375" lon="1.4239349775016307830810546875">
        <ele>-137.1999969482421875</ele>
        <time>2025-09-05T16:01:27.000Z</time>
        <extensions>
          <ns3:TrackPointExtension>
            <ns3:hr>173</ns3:hr>
            <ns3:cad>81</ns3:cad>
          </ns3:TrackPointExtension>
        </extensions>
      </trkpt>
      <trkpt lat="52.0979939214885234832763671875" lon="1.42384436912834644317626953125">
        <ele>-136.399993896484375</ele>
        <time>2025-09-05T16:01:30.000Z</time>
        <extensions>
          <ns3:TrackPointExtension>
            <ns3:hr>174</ns3:hr>
            <ns3:cad>82</ns3:cad>
          </ns3:TrackPointExtension>
        </extensions>
      </trkpt>
      <trkpt lat="52.09803021512925624847412109375" lon="1.4237670041620731353759765625">
        <ele>-135.399993896484375</ele>
        <time>2025-09-05T16:01:33.000Z</time>
        <extensions>
          <ns3:TrackPointExtension>
            <ns3:hr>174</ns3:hr>
            <ns3:cad>82</ns3:cad>
          </ns3:TrackPointExtension>
        </extensions>
      </trkpt>
      <trkpt lat="52.0980572886765003204345703125" lon="1.42372366972267627716064453125">
        <ele>-134.8000030517578125</ele>
        <time>2025-09-05T16:01:35.000Z</time>
        <extensions>
          <ns3:TrackPointExtension>
            <ns3:hr>174</ns3:hr>
            <ns3:cad>81</ns3:cad>
          </ns3:TrackPointExtension>
        </extensions>
      </trkpt>
      <trkpt lat="52.09806977771222591400146484375" lon="1.423703134059906005859375">
        <ele>-134.399993896484375</ele>
        <time>2025-09-05T16:01:36.000Z</time>
        <extensions>
          <ns3:TrackPointExtension>
            <ns3:hr>174</ns3:hr>
            <ns3:cad>81</ns3:cad>
          </ns3:TrackPointExtension>
        </extensions>
      </trkpt>
      <trkpt lat="52.0980898104608058929443359375" lon="1.42362861894071102142333984375">
        <ele>-133.1999969482421875</ele>
        <time>2025-09-05T16:01:39.000Z</time>
        <extensions>
          <ns3:TrackPointExtension>
            <ns3:hr>173</ns3:hr>
            <ns3:cad>81</ns3:cad>
          </ns3:TrackPointExtension>
        </extensions>
      </trkpt>
      <trkpt lat="52.09813180379569530487060546875" lon="1.42356156371533870697021484375">
        <ele>-132</ele>
        <time>2025-09-05T16:01:42.000Z</time>
        <extensions>
          <ns3:TrackPointExtension>
            <ns3:hr>173</ns3:hr>
            <ns3:cad>81</ns3:cad>
          </ns3:TrackPointExtension>
        </extensions>
      </trkpt>
      <trkpt lat="52.09814521484076976776123046875" lon="1.4235333167016506195068359375">
        <ele>-131.8000030517578125</ele>
        <time>2025-09-05T16:01:43.000Z</time>
        <extensions>
          <ns3:TrackPointExtension>
            <ns3:hr>172</ns3:hr>
            <ns3:cad>81</ns3:cad>
          </ns3:TrackPointExtension>
        </extensions>
      </trkpt>
      <trkpt lat="52.0981662534177303314208984375" lon="1.4234709553420543670654296875">
        <ele>-131</ele>
        <time>2025-09-05T16:01:45.000Z</time>
        <extensions>
          <ns3:TrackPointExtension>
            <ns3:hr>172</ns3:hr>
            <ns3:cad>81</ns3:cad>
          </ns3:TrackPointExtension>
        </extensions>
      </trkpt>
      <trkpt lat="52.09821092896163463592529296875" lon="1.423382945358753204345703125">
        <ele>-129.8000030517578125</ele>
        <time>2025-09-05T16:01:48.000Z</time>
        <extensions>
          <ns3:TrackPointExtension>
            <ns3:hr>173</ns3:hr>
            <ns3:cad>81</ns3:cad>
          </ns3:TrackPointExtension>
        </extensions>
      </trkpt>
      <trkpt lat="52.09825149737298488616943359375" lon="1.42328579910099506378173828125">
        <ele>-128.600006103515625</ele>
        <time>2025-09-05T16:01:51.000Z</time>
        <extensions>
          <ns3:TrackPointExtension>
            <ns3:hr>176</ns3:hr>
            <ns3:cad>82</ns3:cad>
          </ns3:TrackPointExtension>
        </extensions>
      </trkpt>
      <trkpt lat="52.098255939781665802001953125" lon="1.42316409386694431304931640625">
        <ele>-127.40000152587890625</ele>
        <time>2025-09-05T16:01:54.000Z</time>
        <extensions>
          <ns3:TrackPointExtension>
            <ns3:hr>175</ns3:hr>
            <ns3:cad>82</ns3:cad>
          </ns3:TrackPointExtension>
        </extensions>
      </trkpt>
      <trkpt lat="52.09828955121338367462158203125" lon="1.42307608388364315032958984375">
        <ele>-126.1999969482421875</ele>
        <time>2025-09-05T16:01:57.000Z</time>
        <extensions>
          <ns3:TrackPointExtension>
            <ns3:hr>177</ns3:hr>
            <ns3:cad>83</ns3:cad>
          </ns3:TrackPointExtension>
        </extensions>
      </trkpt>
      <trkpt lat="52.09830447100102901458740234375" lon="1.42301757819950580596923828125">
        <ele>-125.59999847412109375</ele>
        <time>2025-09-05T16:01:59.000Z</time>
        <extensions>
          <ns3:TrackPointExtension>
            <ns3:hr>177</ns3:hr>
            <ns3:cad>83</ns3:cad>
          </ns3:TrackPointExtension>
        </extensions>
      </trkpt>
      <trkpt lat="52.09830882959067821502685546875" lon="1.422992013394832611083984375">
        <ele>-125.1999969482421875</ele>
        <time>2025-09-05T16:02:00.000Z</time>
        <extensions>
          <ns3:TrackPointExtension>
            <ns3:hr>178</ns3:hr>
            <ns3:cad>82</ns3:cad>
          </ns3:TrackPointExtension>
        </extensions>
      </trkpt>
      <trkpt lat="52.09833028726279735565185546875" lon="1.4229143969714641571044921875">
        <ele>-124</ele>
        <time>2025-09-05T16:02:03.000Z</time>
        <extensions>
          <ns3:TrackPointExtension>
            <ns3:hr>177</ns3:hr>
            <ns3:cad>82</ns3:cad>
          </ns3:TrackPointExtension>
        </extensions>
      </trkpt>
      <trkpt lat="52.09837102331221103668212890625" lon="1.42281138338148593902587890625">
        <ele>-122.8000030517578125</ele>
        <time>2025-09-05T16:02:07.000Z</time>
        <extensions>
          <ns3:TrackPointExtension>
            <ns3:hr>178</ns3:hr>
            <ns3:cad>82</ns3:cad>
          </ns3:TrackPointExtension>
        </extensions>
      </trkpt>
      <trkpt lat="52.0983929000794887542724609375" lon="1.4226803742349147796630859375">
        <ele>-121.59999847412109375</ele>
        <time>2025-09-05T16:02:11.000Z</time>
        <extensions>
          <ns3:TrackPointExtension>
            <ns3:hr>176</ns3:hr>
            <ns3:cad>81</ns3:cad>
          </ns3:TrackPointExtension>
        </extensions>
      </trkpt>
      <trkpt lat="52.098424248397350311279296875" lon="1.4225734211504459381103515625">
        <ele>-120.8000030517578125</ele>
        <time>2025-09-05T16:02:14.000Z</time>
        <extensions>
          <ns3:TrackPointExtension>
            <ns3:hr>177</ns3:hr>
            <ns3:cad>82</ns3:cad>
          </ns3:TrackPointExtension>
        </extensions>
      </trkpt>
      <trkpt lat="52.09843673743307590484619140625" lon="1.42254048027098178863525390625">
        <ele>-120.59999847412109375</ele>
        <time>2025-09-05T16:02:15.000Z</time>
        <extensions>
          <ns3:TrackPointExtension>
            <ns3:hr>177</ns3:hr>
            <ns3:cad>82</ns3:cad>
          </ns3:TrackPointExtension>
        </extensions>
      </trkpt>
      <trkpt lat="52.098477892577648162841796875" lon="1.4224161766469478607177734375">
        <ele>-119.40000152587890625</ele>
        <time>2025-09-05T16:02:19.000Z</time>
        <extensions>
          <ns3:TrackPointExtension>
            <ns3:hr>178</ns3:hr>
            <ns3:cad>81</ns3:cad>
          </ns3:TrackPointExtension>
        </extensions>
      </trkpt>
      <trkpt lat="52.09851653315126895904541015625" lon="1.42229321412742137908935546875">
        <ele>-118.59999847412109375</ele>
        <time>2025-09-05T16:02:23.000Z</time>
        <extensions>
          <ns3:TrackPointExtension>
            <ns3:hr>178</ns3:hr>
            <ns3:cad>82</ns3:cad>
          </ns3:TrackPointExtension>
        </extensions>
      </trkpt>
      <trkpt lat="52.098522484302520751953125" lon="1.4222626201808452606201171875">
        <ele>-118.40000152587890625</ele>
        <time>2025-09-05T16:02:24.000Z</time>
        <extensions>
          <ns3:TrackPointExtension>
            <ns3:hr>177</ns3:hr>
            <ns3:cad>81</ns3:cad>
          </ns3:TrackPointExtension>
        </extensions>
      </trkpt>
      <trkpt lat="52.098581492900848388671875" lon="1.4221060462296009063720703125">
        <ele>-117.1999969482421875</ele>
        <time>2025-09-05T16:02:29.000Z</time>
        <extensions>
          <ns3:TrackPointExtension>
            <ns3:hr>178</ns3:hr>
            <ns3:cad>82</ns3:cad>
          </ns3:TrackPointExtension>
        </extensions>
      </trkpt>
      <trkpt lat="52.09859012626111507415771484375" lon="1.42206086777150630950927734375">
        <ele>-116.8000030517578125</ele>
        <time>2025-09-05T16:02:31.000Z</time>
        <extensions>
          <ns3:TrackPointExtension>
            <ns3:hr>178</ns3:hr>
            <ns3:cad>82</ns3:cad>
          </ns3:TrackPointExtension>
        </extensions>
      </trkpt>
      <trkpt lat="52.09863848984241485595703125" lon="1.4219665713608264923095703125">
        <ele>-116.1999969482421875</ele>
        <time>2025-09-05T16:02:35.000Z</time>
        <extensions>
          <ns3:TrackPointExtension>
            <ns3:hr>177</ns3:hr>
            <ns3:cad>81</ns3:cad>
          </ns3:TrackPointExtension>
        </extensions>
      </trkpt>
      <trkpt lat="52.098673023283481597900390625" lon="1.42186875455081462860107421875">
        <ele>-115.59999847412109375</ele>
        <time>2025-09-05T16:02:38.000Z</time>
        <extensions>
          <ns3:TrackPointExtension>
            <ns3:hr>177</ns3:hr>
            <ns3:cad>81</ns3:cad>
          </ns3:TrackPointExtension>
        </extensions>
      </trkpt>
      <trkpt lat="52.09868752397596836090087890625" lon="1.4218220673501491546630859375">
        <ele>-115.40000152587890625</ele>
        <time>2025-09-05T16:02:40.000Z</time>
        <extensions>
          <ns3:TrackPointExtension>
            <ns3:hr>174</ns3:hr>
            <ns3:cad>81</ns3:cad>
          </ns3:TrackPointExtension>
        </extensions>
      </trkpt>
      <trkpt lat="52.09870143793523311614990234375" lon="1.42179013229906558990478515625">
        <ele>-115</ele>
        <time>2025-09-05T16:02:42.000Z</time>
        <extensions>
          <ns3:TrackPointExtension>
            <ns3:hr>175</ns3:hr>
            <ns3:cad>81</ns3:cad>
          </ns3:TrackPointExtension>
        </extensions>
      </trkpt>
      <trkpt lat="52.09872859530150890350341796875" lon="1.4217328839004039764404296875">
        <ele>-114.59999847412109375</ele>
        <time>2025-09-05T16:02:45.000Z</time>
        <extensions>
          <ns3:TrackPointExtension>
            <ns3:hr>176</ns3:hr>
            <ns3:cad>81</ns3:cad>
          </ns3:TrackPointExtension>
        </extensions>
      </trkpt>
      <trkpt lat="52.09875675849616527557373046875" lon="1.4215721189975738525390625">
        <ele>-114</ele>
        <time>2025-09-05T16:02:50.000Z</time>
        <extensions>
          <ns3:TrackPointExtension>
            <ns3:hr>177</ns3:hr>
            <ns3:cad>81</ns3:cad>
          </ns3:TrackPointExtension>
        </extensions>
      </trkpt>
      <trkpt lat="52.09876379929482936859130859375" lon="1.42143256030976772308349609375">
        <ele>-113.40000152587890625</ele>
        <time>2025-09-05T16:02:54.000Z</time>
        <extensions>
          <ns3:TrackPointExtension>
            <ns3:hr>177</ns3:hr>
            <ns3:cad>81</ns3:cad>
          </ns3:TrackPointExtension>
        </extensions>
      </trkpt>
      <trkpt lat="52.09877570159733295440673828125" lon="1.421196274459362030029296875">
        <ele>-113</ele>
        <time>2025-09-05T16:02:59.000Z</time>
        <extensions>
          <ns3:TrackPointExtension>
            <ns3:hr>177</ns3:hr>
            <ns3:cad>81</ns3:cad>
          </ns3:TrackPointExtension>
        </extensions>
      </trkpt>
      <trkpt lat="52.09879464469850063323974609375" lon="1.42107532359659671783447265625">
        <ele>-112.59999847412109375</ele>
        <time>2025-09-05T16:03:02.000Z</time>
        <extensions>
          <ns3:TrackPointExtension>
            <ns3:hr>176</ns3:hr>
            <ns3:cad>81</ns3:cad>
          </ns3:TrackPointExtension>
        </extensions>
      </trkpt>
      <trkpt lat="52.09883186034858226776123046875" lon="1.4207783527672290802001953125">
        <ele>-111.8000030517578125</ele>
        <time>2025-09-05T16:03:09.000Z</time>
        <extensions>
          <ns3:TrackPointExtension>
            <ns3:hr>176</ns3:hr>
            <ns3:cad>82</ns3:cad>
          </ns3:TrackPointExtension>
        </extensions>
      </trkpt>
      <trkpt lat="52.09885784424841403961181640625" lon="1.42066930420696735382080078125">
        <ele>-111.59999847412109375</ele>
        <time>2025-09-05T16:03:12.000Z</time>
        <extensions>
          <ns3:TrackPointExtension>
            <ns3:hr>176</ns3:hr>
            <ns3:cad>81</ns3:cad>
          </ns3:TrackPointExtension>
        </extensions>
      </trkpt>
      <trkpt lat="52.0989283360540866851806640625" lon="1.42053854651749134063720703125">
        <ele>-111</ele>
        <time>2025-09-05T16:03:18.000Z</time>
        <extensions>
          <ns3:TrackPointExtension>
            <ns3:hr>176</ns3:hr>
            <ns3:cad>82</ns3:cad>
          </ns3:TrackPointExtension>
        </extensions>
      </trkpt>
      <trkpt lat="52.09895172156393527984619140625" lon="1.4204675517976284027099609375">
        <ele>-110.8000030517578125</ele>
        <time>2025-09-05T16:03:20.000Z</time>
        <extensions>
          <ns3:TrackPointExtension>
            <ns3:hr>176</ns3:hr>
            <ns3:cad>81</ns3:cad>
          </ns3:TrackPointExtension>
        </extensions>
      </trkpt>
      <trkpt lat="52.098974771797657012939453125" lon="1.42032581381499767303466796875">
        <ele>-110.40000152587890625</ele>
        <time>2025-09-05T16:03:24.000Z</time>
        <extensions>
          <ns3:TrackPointExtension>
            <ns3:hr>176</ns3:hr>
            <ns3:cad>81</ns3:cad>
          </ns3:TrackPointExtension>
        </extensions>
      </trkpt>
      <trkpt lat="52.09905616007745265960693359375" lon="1.42011157236993312835693359375">
        <ele>-109.8000030517578125</ele>
        <time>2025-09-05T16:03:31.000Z</time>
        <extensions>
          <ns3:TrackPointExtension>
            <ns3:hr>176</ns3:hr>
            <ns3:cad>81</ns3:cad>
          </ns3:TrackPointExtension>
        </extensions>
      </trkpt>
      <trkpt lat="52.0990711636841297149658203125" lon="1.4200834929943084716796875">
        <ele>-109.59999847412109375</ele>
        <time>2025-09-05T16:03:32.000Z</time>
        <extensions>
          <ns3:TrackPointExtension>
            <ns3:hr>176</ns3:hr>
            <ns3:cad>81</ns3:cad>
          </ns3:TrackPointExtension>
        </extensions>
      </trkpt>
      <trkpt lat="52.09918322972953319549560546875" lon="1.41981862485408782958984375">
        <ele>-108.8000030517578125</ele>
        <time>2025-09-05T16:03:41.000Z</time>
        <extensions>
          <ns3:TrackPointExtension>
            <ns3:hr>178</ns3:hr>
            <ns3:cad>81</ns3:cad>
          </ns3:TrackPointExtension>
        </extensions>
      </trkpt>
      <trkpt lat="52.09919412620365619659423828125" lon="1.41979306004941463470458984375">
        <ele>-108.8000030517578125</ele>
        <time>2025-09-05T16:03:42.000Z</time>
        <extensions>
          <ns3:TrackPointExtension>
            <ns3:hr>178</ns3:hr>
            <ns3:cad>81</ns3:cad>
          </ns3:TrackPointExtension>
        </extensions>
      </trkpt>
      <trkpt lat="52.099206782877445220947265625" lon="1.4197708480060100555419921875">
        <ele>-108.59999847412109375</ele>
        <time>2025-09-05T16:03:43.000Z</time>
        <extensions>
          <ns3:TrackPointExtension>
            <ns3:hr>178</ns3:hr>
            <ns3:cad>81</ns3:cad>
          </ns3:TrackPointExtension>
        </extensions>
      </trkpt>
      <trkpt lat="52.09922446869313716888427734375" lon="1.4196518249809741973876953125">
        <ele>-108.40000152587890625</ele>
        <time>2025-09-05T16:03:46.000Z</time>
        <extensions>
          <ns3:TrackPointExtension>
            <ns3:hr>175</ns3:hr>
            <ns3:cad>81</ns3:cad>
          </ns3:TrackPointExtension>
        </extensions>
      </trkpt>
      <trkpt lat="52.099267803132534027099609375" lon="1.419489383697509765625">
        <ele>-108</ele>
        <time>2025-09-05T16:03:50.000Z</time>
        <extensions>
          <ns3:TrackPointExtension>
            <ns3:hr>174</ns3:hr>
            <ns3:cad>81</ns3:cad>
          </ns3:TrackPointExtension>
        </extensions>
      </trkpt>
      <trkpt lat="52.0992914400994777679443359375" lon="1.41933825798332691192626953125">
        <ele>-107.59999847412109375</ele>
        <time>2025-09-05T16:03:54.000Z</time>
        <extensions>
          <ns3:TrackPointExtension>
            <ns3:hr>176</ns3:hr>
            <ns3:cad>82</ns3:cad>
          </ns3:TrackPointExtension>
        </extensions>
      </trkpt>
      <trkpt lat="52.09930493496358394622802734375" lon="1.41927589662373065948486328125">
        <ele>-107.40000152587890625</ele>
        <time>2025-09-05T16:03:56.000Z</time>
        <extensions>
          <ns3:TrackPointExtension>
            <ns3:hr>175</ns3:hr>
            <ns3:cad>81</ns3:cad>
          </ns3:TrackPointExtension>
        </extensions>
      </trkpt>
      <trkpt lat="52.09935866296291351318359375" lon="1.41904137097299098968505859375">
        <ele>-106.59999847412109375</ele>
        <time>2025-09-05T16:04:03.000Z</time>
        <extensions>
          <ns3:TrackPointExtension>
            <ns3:hr>176</ns3:hr>
            <ns3:cad>81</ns3:cad>
          </ns3:TrackPointExtension>
        </extensions>
      </trkpt>
      <trkpt lat="52.099368385970592498779296875" lon="1.41897615976631641387939453125">
        <ele>-106.40000152587890625</ele>
        <time>2025-09-05T16:04:05.000Z</time>
        <extensions>
          <ns3:TrackPointExtension>
            <ns3:hr>177</ns3:hr>
            <ns3:cad>81</ns3:cad>
          </ns3:TrackPointExtension>
        </extensions>
      </trkpt>
      <trkpt lat="52.0993836410343647003173828125" lon="1.4187831245362758636474609375">
        <ele>-105.59999847412109375</ele>
        <time>2025-09-05T16:04:11.000Z</time>
        <extensions>
          <ns3:TrackPointExtension>
            <ns3:hr>177</ns3:hr>
            <ns3:cad>82</ns3:cad>
          </ns3:TrackPointExtension>
        </extensions>
      </trkpt>
      <trkpt lat="52.09947693161666393280029296875" lon="1.418573744595050811767578125">
        <ele>-104.59999847412109375</ele>
        <time>2025-09-05T16:04:18.000Z</time>
        <extensions>
          <ns3:TrackPointExtension>
            <ns3:hr>178</ns3:hr>
            <ns3:cad>82</ns3:cad>
          </ns3:TrackPointExtension>
        </extensions>
      </trkpt>
      <trkpt lat="52.09950392134487628936767578125" lon="1.41852219589054584503173828125">
        <ele>-104.40000152587890625</ele>
        <time>2025-09-05T16:04:20.000Z</time>
        <extensions>
          <ns3:TrackPointExtension>
            <ns3:hr>178</ns3:hr>
            <ns3:cad>81</ns3:cad>
          </ns3:TrackPointExtension>
        </extensions>
      </trkpt>
      <trkpt lat="52.0995817892253398895263671875" lon="1.418355815112590789794921875">
        <ele>-103.59999847412109375</ele>
        <time>2025-09-05T16:04:26.000Z</time>
        <extensions>
          <ns3:TrackPointExtension>
            <ns3:hr>178</ns3:hr>
            <ns3:cad>82</ns3:cad>
          </ns3:TrackPointExtension>
        </extensions>
      </trkpt>
      <trkpt lat="52.0995848067104816436767578125" lon="1.418320275843143463134765625">
        <ele>-103.40000152587890625</ele>
        <time>2025-09-05T16:04:27.000Z</time>
        <extensions>
          <ns3:TrackPointExtension>
            <ns3:hr>178</ns3:hr>
            <ns3:cad>82</ns3:cad>
          </ns3:TrackPointExtension>
        </extensions>
      </trkpt>
      <trkpt lat="52.0996565558016300201416015625" lon="1.41803286038339138031005859375">
        <ele>-102.8000030517578125</ele>
        <time>2025-09-05T16:04:36.000Z</time>
        <extensions>
          <ns3:TrackPointExtension>
            <ns3:hr>177</ns3:hr>
            <ns3:cad>82</ns3:cad>
          </ns3:TrackPointExtension>
        </extensions>
      </trkpt>
      <trkpt lat="52.09968228824436664581298828125" lon="1.41795507632195949554443359375">
        <ele>-102.59999847412109375</ele>
        <time>2025-09-05T16:04:39.000Z</time>
        <extensions>
          <ns3:TrackPointExtension>
            <ns3:hr>178</ns3:hr>
            <ns3:cad>82</ns3:cad>
          </ns3:TrackPointExtension>
        </extensions>
      </trkpt>
      <trkpt lat="52.099725790321826934814453125" lon="1.41780562698841094970703125">
        <ele>-102.1999969482421875</ele>
        <time>2025-09-05T16:04:44.000Z</time>
        <extensions>
          <ns3:TrackPointExtension>
            <ns3:hr>179</ns3:hr>
            <ns3:cad>83</ns3:cad>
          </ns3:TrackPointExtension>
        </extensions>
      </trkpt>
      <trkpt lat="52.0997678674757480621337890625" lon="1.4175560139119625091552734375">
        <ele>-101.59999847412109375</ele>
        <time>2025-09-05T16:04:51.000Z</time>
        <extensions>
          <ns3:TrackPointExtension>
            <ns3:hr>177</ns3:hr>
            <ns3:cad>81</ns3:cad>
          </ns3:TrackPointExtension>
        </extensions>
      </trkpt>
      <trkpt lat="52.0997745729982852935791015625" lon="1.417535059154033660888671875">
        <ele>-101.59999847412109375</ele>
        <time>2025-09-05T16:04:52.000Z</time>
        <extensions>
          <ns3:TrackPointExtension>
            <ns3:hr>177</ns3:hr>
            <ns3:cad>79</ns3:cad>
          </ns3:TrackPointExtension>
        </extensions>
      </trkpt>
      <trkpt lat="52.09983902983367443084716796875" lon="1.417442522943019866943359375">
        <ele>-101.1999969482421875</ele>
        <time>2025-09-05T16:04:58.000Z</time>
        <extensions>
          <ns3:TrackPointExtension>
            <ns3:hr>176</ns3:hr>
            <ns3:cad>59</ns3:cad>
          </ns3:TrackPointExtension>
        </extensions>
      </trkpt>
      <trkpt lat="52.099888063967227935791015625" lon="1.41738594509661197662353515625">
        <ele>-101.1999969482421875</ele>
        <time>2025-09-05T16:05:02.000Z</time>
        <extensions>
          <ns3:TrackPointExtension>
            <ns3:hr>172</ns3:hr>
            <ns3:cad>59</ns3:cad>
          </ns3:TrackPointExtension>
        </extensions>
      </trkpt>
      <trkpt lat="52.09993190132081508636474609375" lon="1.4173662476241588592529296875">
        <ele>-101.40000152587890625</ele>
        <time>2025-09-05T16:05:05.000Z</time>
        <extensions>
          <ns3:TrackPointExtension>
            <ns3:hr>171</ns3:hr>
            <ns3:cad>60</ns3:cad>
          </ns3:TrackPointExtension>
        </extensions>
      </trkpt>
      <trkpt lat="52.0999462343752384185791015625" lon="1.41736574470996856689453125">
        <ele>-101.40000152587890625</ele>
        <time>2025-09-05T16:05:06.000Z</time>
        <extensions>
          <ns3:TrackPointExtension>
            <ns3:hr>168</ns3:hr>
            <ns3:cad>60</ns3:cad>
          </ns3:TrackPointExtension>
        </extensions>
      </trkpt>
      <trkpt lat="52.10001580417156219482421875" lon="1.41729106195271015167236328125">
        <ele>-102.40000152587890625</ele>
        <time>2025-09-05T16:05:12.000Z</time>
        <extensions>
          <ns3:TrackPointExtension>
            <ns3:hr>165</ns3:hr>
            <ns3:cad>0</ns3:cad>
          </ns3:TrackPointExtension>
        </extensions>
      </trkpt>
      <trkpt lat="52.10002720355987548828125" lon="1.41727949492633342742919921875">
        <ele>-102.40000152587890625</ele>
        <time>2025-09-05T16:05:13.000Z</time>
        <extensions>
          <ns3:TrackPointExtension>
            <ns3:hr>165</ns3:hr>
            <ns3:cad>0</ns3:cad>
          </ns3:TrackPointExtension>
        </extensions>
      </trkpt>
      <trkpt lat="52.10004053078591823577880859375" lon="1.41726491041481494903564453125">
        <ele>-102.59999847412109375</ele>
        <time>2025-09-05T16:05:14.000Z</time>
        <extensions>
          <ns3:TrackPointExtension>
            <ns3:hr>166</ns3:hr>
            <ns3:cad>0</ns3:cad>
          </ns3:TrackPointExtension>
        </extensions>
      </trkpt>
      <trkpt lat="52.1000920794904232025146484375" lon="1.4171920716762542724609375">
        <ele>-103.8000030517578125</ele>
        <time>2025-09-05T16:05:20.000Z</time>
        <extensions>
          <ns3:TrackPointExtension>
            <ns3:hr>166</ns3:hr>
            <ns3:cad>0</ns3:cad>
          </ns3:TrackPointExtension>
        </extensions>
      </trkpt>
      <trkpt lat="52.100099287927150726318359375" lon="1.41718075610697269439697265625">
        <ele>-104</ele>
        <time>2025-09-05T16:05:21.000Z</time>
        <extensions>
          <ns3:TrackPointExtension>
            <ns3:hr>165</ns3:hr>
            <ns3:cad>0</ns3:cad>
          </ns3:TrackPointExtension>
        </extensions>
      </trkpt>
      <trkpt lat="52.10014949552714824676513671875" lon="1.41714203171432018280029296875">
        <ele>-105</ele>
        <time>2025-09-05T16:05:25.000Z</time>
        <extensions>
          <ns3:TrackPointExtension>
            <ns3:hr>163</ns3:hr>
            <ns3:cad>0</ns3:cad>
          </ns3:TrackPointExtension>
        </extensions>
      </trkpt>
      <trkpt lat="52.1001785807311534881591796875" lon="1.41712258569896221160888671875">
        <ele>-105.59999847412109375</ele>
        <time>2025-09-05T16:05:27.000Z</time>
        <extensions>
          <ns3:TrackPointExtension>
            <ns3:hr>160</ns3:hr>
            <ns3:cad>0</ns3:cad>
          </ns3:TrackPointExtension>
        </extensions>
      </trkpt>
      <trkpt lat="52.10021286271512508392333984375" lon="1.41708671115338802337646484375">
        <ele>-106</ele>
        <time>2025-09-05T16:05:29.000Z</time>
        <extensions>
          <ns3:TrackPointExtension>
            <ns3:hr>159</ns3:hr>
            <ns3:cad>0</ns3:cad>
          </ns3:TrackPointExtension>
        </extensions>
      </trkpt>
      <trkpt lat="52.100279666483402252197265625" lon="1.41703356988728046417236328125">
        <ele>-107</ele>
        <time>2025-09-05T16:05:33.000Z</time>
        <extensions>
          <ns3:TrackPointExtension>
            <ns3:hr>157</ns3:hr>
            <ns3:cad>0</ns3:cad>
          </ns3:TrackPointExtension>
        </extensions>
      </trkpt>
      <trkpt lat="52.10032300092279911041259765625" lon="1.4170172251760959625244140625">
        <ele>-108</ele>
        <time>2025-09-05T16:05:36.000Z</time>
        <extensions>
          <ns3:TrackPointExtension>
            <ns3:hr>160</ns3:hr>
            <ns3:cad>0</ns3:cad>
          </ns3:TrackPointExtension>
        </extensions>
      </trkpt>
      <trkpt lat="52.1003338135778903961181640625" lon="1.417018063366413116455078125">
        <ele>-108.1999969482421875</ele>
        <time>2025-09-05T16:05:37.000Z</time>
        <extensions>
          <ns3:TrackPointExtension>
            <ns3:hr>161</ns3:hr>
            <ns3:cad>0</ns3:cad>
          </ns3:TrackPointExtension>
        </extensions>
      </trkpt>
      <trkpt lat="52.10034915246069431304931640625" lon="1.41700708307325839996337890625">
        <ele>-108.8000030517578125</ele>
        <time>2025-09-05T16:05:39.000Z</time>
        <extensions>
          <ns3:TrackPointExtension>
            <ns3:hr>160</ns3:hr>
            <ns3:cad>0</ns3:cad>
          </ns3:TrackPointExtension>
        </extensions>
      </trkpt>
      <trkpt lat="52.10036910139024257659912109375" lon="1.41698780469596385955810546875">
        <ele>-109.40000152587890625</ele>
        <time>2025-09-05T16:05:41.000Z</time>
        <extensions>
          <ns3:TrackPointExtension>
            <ns3:hr>159</ns3:hr>
            <ns3:cad>0</ns3:cad>
          </ns3:TrackPointExtension>
        </extensions>
      </trkpt>
      <trkpt lat="52.1004146151244640350341796875" lon="1.4169578813016414642333984375">
        <ele>-110.8000030517578125</ele>
        <time>2025-09-05T16:05:45.000Z</time>
        <extensions>
          <ns3:TrackPointExtension>
            <ns3:hr>157</ns3:hr>
            <ns3:cad>0</ns3:cad>
          </ns3:TrackPointExtension>
        </extensions>
      </trkpt>
      <trkpt lat="52.1004228293895721435546875" lon="1.41694874502718448638916015625">
        <ele>-111.1999969482421875</ele>
        <time>2025-09-05T16:05:46.000Z</time>
        <extensions>
          <ns3:TrackPointExtension>
            <ns3:hr>157</ns3:hr>
            <ns3:cad>0</ns3:cad>
          </ns3:TrackPointExtension>
        </extensions>
      </trkpt>
      <trkpt lat="52.10046566091477870941162109375" lon="1.41691287048161029815673828125">
        <ele>-112</ele>
        <time>2025-09-05T16:05:49.000Z</time>
        <extensions>
          <ns3:TrackPointExtension>
            <ns3:hr>157</ns3:hr>
            <ns3:cad>0</ns3:cad>
          </ns3:TrackPointExtension>
        </extensions>
      </trkpt>
      <trkpt lat="52.10052450187504291534423828125" lon="1.416883952915668487548828125">
        <ele>-113.1999969482421875</ele>
        <time>2025-09-05T16:05:53.000Z</time>
        <extensions>
          <ns3:TrackPointExtension>
            <ns3:hr>155</ns3:hr>
            <ns3:cad>0</ns3:cad>
          </ns3:TrackPointExtension>
        </extensions>
      </trkpt>
      <trkpt lat="52.10053791292011737823486328125" lon="1.41687565483152866363525390625">
        <ele>-113.59999847412109375</ele>
        <time>2025-09-05T16:05:54.000Z</time>
        <extensions>
          <ns3:TrackPointExtension>
            <ns3:hr>155</ns3:hr>
            <ns3:cad>0</ns3:cad>
          </ns3:TrackPointExtension>
        </extensions>
      </trkpt>
      <trkpt lat="52.100574709475040435791015625" lon="1.4168541133403778076171875">
        <ele>-114.40000152587890625</ele>
        <time>2025-09-05T16:05:57.000Z</time>
        <extensions>
          <ns3:TrackPointExtension>
            <ns3:hr>155</ns3:hr>
            <ns3:cad>61</ns3:cad>
          </ns3:TrackPointExtension>
        </extensions>
      </trkpt>
      <trkpt lat="52.1006040461361408233642578125" lon="1.41685009002685546875">
        <ele>-115</ele>
        <time>2025-09-05T16:05:59.000Z</time>
        <extensions>
          <ns3:TrackPointExtension>
            <ns3:hr>151</ns3:hr>
            <ns3:cad>61</ns3:cad>
          </ns3:TrackPointExtension>
        </extensions>
      </trkpt>
      <trkpt lat="52.10063078440725803375244140625" lon="1.41685738228261470794677734375">
        <ele>-115.59999847412109375</ele>
        <time>2025-09-05T16:06:01.000Z</time>
        <extensions>
          <ns3:TrackPointExtension>
            <ns3:hr>149</ns3:hr>
            <ns3:cad>61</ns3:cad>
          </ns3:TrackPointExtension>
        </extensions>
      </trkpt>
      <trkpt lat="52.1006892062723636627197265625" lon="1.41686274670064449310302734375">
        <ele>-116.59999847412109375</ele>
        <time>2025-09-05T16:06:05.000Z</time>
        <extensions>
          <ns3:TrackPointExtension>
            <ns3:hr>148</ns3:hr>
            <ns3:cad>61</ns3:cad>
          </ns3:TrackPointExtension>
        </extensions>
      </trkpt>
      <trkpt lat="52.1006989292800426483154296875" lon="1.41686811111867427825927734375">
        <ele>-117.1999969482421875</ele>
        <time>2025-09-05T16:06:07.000Z</time>
        <extensions>
          <ns3:TrackPointExtension>
            <ns3:hr>148</ns3:hr>
            <ns3:cad>0</ns3:cad>
          </ns3:TrackPointExtension>
        </extensions>
      </trkpt>
      <trkpt lat="52.1007232367992401123046875" lon="1.41687381081283092498779296875">
        <ele>-117.8000030517578125</ele>
        <time>2025-09-05T16:06:09.000Z</time>
        <extensions>
          <ns3:TrackPointExtension>
            <ns3:hr>148</ns3:hr>
            <ns3:cad>60</ns3:cad>
          </ns3:TrackPointExtension>
        </extensions>
      </trkpt>
      <trkpt lat="52.10077344439923763275146484375" lon="1.41688303090631961822509765625">
        <ele>-118.8000030517578125</ele>
        <time>2025-09-05T16:06:13.000Z</time>
        <extensions>
          <ns3:TrackPointExtension>
            <ns3:hr>149</ns3:hr>
            <ns3:cad>61</ns3:cad>
          </ns3:TrackPointExtension>
        </extensions>
      </trkpt>
      <trkpt lat="52.10081434808671474456787109375" lon="1.41685788519680500030517578125">
        <ele>-119.59999847412109375</ele>
        <time>2025-09-05T16:06:16.000Z</time>
        <extensions>
          <ns3:TrackPointExtension>
            <ns3:hr>146</ns3:hr>
            <ns3:cad>61</ns3:cad>
          </ns3:TrackPointExtension>
        </extensions>
      </trkpt>
      <trkpt lat="52.10082910023629665374755859375" lon="1.4168433845043182373046875">
        <ele>-119.8000030517578125</ele>
        <time>2025-09-05T16:06:17.000Z</time>
        <extensions>
          <ns3:TrackPointExtension>
            <ns3:hr>146</ns3:hr>
            <ns3:cad>0</ns3:cad>
          </ns3:TrackPointExtension>
        </extensions>
      </trkpt>
      <trkpt lat="52.1008772961795330047607421875" lon="1.4168251119554042816162109375">
        <ele>-120.59999847412109375</ele>
        <time>2025-09-05T16:06:20.000Z</time>
        <extensions>
          <ns3:TrackPointExtension>
            <ns3:hr>145</ns3:hr>
            <ns3:cad>0</ns3:cad>
          </ns3:TrackPointExtension>
        </extensions>
      </trkpt>
      <trkpt lat="52.10089330561459064483642578125" lon="1.4168187417089939117431640625">
        <ele>-121</ele>
        <time>2025-09-05T16:06:21.000Z</time>
        <extensions>
          <ns3:TrackPointExtension>
            <ns3:hr>145</ns3:hr>
            <ns3:cad>0</ns3:cad>
          </ns3:TrackPointExtension>
        </extensions>
      </trkpt>
      <trkpt lat="52.10097176022827625274658203125" lon="1.4167942665517330169677734375">
        <ele>-122</ele>
        <time>2025-09-05T16:06:25.000Z</time>
        <extensions>
          <ns3:TrackPointExtension>
            <ns3:hr>147</ns3:hr>
            <ns3:cad>0</ns3:cad>
          </ns3:TrackPointExtension>
        </extensions>
      </trkpt>
      <trkpt lat="52.1009902842342853546142578125" lon="1.4167946018278598785400390625">
        <ele>-122.1999969482421875</ele>
        <time>2025-09-05T16:06:26.000Z</time>
        <extensions>
          <ns3:TrackPointExtension>
            <ns3:hr>149</ns3:hr>
            <ns3:cad>0</ns3:cad>
          </ns3:TrackPointExtension>
        </extensions>
      </trkpt>
      <trkpt lat="52.10100411437451839447021484375" lon="1.4167905785143375396728515625">
        <ele>-122.40000152587890625</ele>
        <time>2025-09-05T16:06:27.000Z</time>
        <extensions>
          <ns3:TrackPointExtension>
            <ns3:hr>149</ns3:hr>
            <ns3:cad>0</ns3:cad>
          </ns3:TrackPointExtension>
        </extensions>
      </trkpt>
      <trkpt lat="52.1010787971317768096923828125" lon="1.41680382192134857177734375">
        <ele>-123.40000152587890625</ele>
        <time>2025-09-05T16:06:31.000Z</time>
        <extensions>
          <ns3:TrackPointExtension>
            <ns3:hr>150</ns3:hr>
            <ns3:cad>60</ns3:cad>
          </ns3:TrackPointExtension>
        </extensions>
      </trkpt>
      <trkpt lat="52.10115264169871807098388671875" lon="1.4167640917003154754638671875">
        <ele>-124.1999969482421875</ele>
        <time>2025-09-05T16:06:35.000Z</time>
        <extensions>
          <ns3:TrackPointExtension>
            <ns3:hr>149</ns3:hr>
            <ns3:cad>61</ns3:cad>
          </ns3:TrackPointExtension>
        </extensions>
      </trkpt>
      <trkpt lat="52.10117259062826633453369140625" lon="1.41674372367560863494873046875">
        <ele>-124.40000152587890625</ele>
        <time>2025-09-05T16:06:36.000Z</time>
        <extensions>
          <ns3:TrackPointExtension>
            <ns3:hr>149</ns3:hr>
            <ns3:cad>61</ns3:cad>
          </ns3:TrackPointExtension>
        </extensions>
      </trkpt>
      <trkpt lat="52.10122548043727874755859375" lon="1.416705586016178131103515625">
        <ele>-125.40000152587890625</ele>
        <time>2025-09-05T16:06:40.000Z</time>
        <extensions>
          <ns3:TrackPointExtension>
            <ns3:hr>145</ns3:hr>
            <ns3:cad>61</ns3:cad>
          </ns3:TrackPointExtension>
        </extensions>
      </trkpt>
      <trkpt lat="52.10124098695814609527587890625" lon="1.41669452190399169921875">
        <ele>-125.59999847412109375</ele>
        <time>2025-09-05T16:06:41.000Z</time>
        <extensions>
          <ns3:TrackPointExtension>
            <ns3:hr>146</ns3:hr>
            <ns3:cad>61</ns3:cad>
          </ns3:TrackPointExtension>
        </extensions>
      </trkpt>
      <trkpt lat="52.1013379655778408050537109375" lon="1.4166608266532421112060546875">
        <ele>-126.59999847412109375</ele>
        <time>2025-09-05T16:06:47.000Z</time>
        <extensions>
          <ns3:TrackPointExtension>
            <ns3:hr>146</ns3:hr>
            <ns3:cad>0</ns3:cad>
          </ns3:TrackPointExtension>
        </extensions>
      </trkpt>
      <trkpt lat="52.10135313682258129119873046875" lon="1.41665755771100521087646484375">
        <ele>-126.8000030517578125</ele>
        <time>2025-09-05T16:06:48.000Z</time>
        <extensions>
          <ns3:TrackPointExtension>
            <ns3:hr>146</ns3:hr>
            <ns3:cad>0</ns3:cad>
          </ns3:TrackPointExtension>
        </extensions>
      </trkpt>
      <trkpt lat="52.10144801996648311614990234375" lon="1.416580192744731903076171875">
        <ele>-127.8000030517578125</ele>
        <time>2025-09-05T16:06:54.000Z</time>
        <extensions>
          <ns3:TrackPointExtension>
            <ns3:hr>147</ns3:hr>
            <ns3:cad>0</ns3:cad>
          </ns3:TrackPointExtension>
        </extensions>
      </trkpt>
      <trkpt lat="52.1014603413641452789306640625" lon="1.41656351275742053985595703125">
        <ele>-128</ele>
        <time>2025-09-05T16:06:55.000Z</time>
        <extensions>
          <ns3:TrackPointExtension>
            <ns3:hr>145</ns3:hr>
            <ns3:cad>61</ns3:cad>
          </ns3:TrackPointExtension>
        </extensions>
      </trkpt>
      <trkpt lat="52.10157307796180248260498046875" lon="1.4164938591420650482177734375">
        <ele>-128.8000030517578125</ele>
        <time>2025-09-05T16:07:02.000Z</time>
        <extensions>
          <ns3:TrackPointExtension>
            <ns3:hr>144</ns3:hr>
            <ns3:cad>0</ns3:cad>
          </ns3:TrackPointExtension>
        </extensions>
      </trkpt>
      <trkpt lat="52.101659663021564483642578125" lon="1.41648271121084690093994140625">
        <ele>-129.600006103515625</ele>
        <time>2025-09-05T16:07:08.000Z</time>
        <extensions>
          <ns3:TrackPointExtension>
            <ns3:hr>144</ns3:hr>
            <ns3:cad>0</ns3:cad>
          </ns3:TrackPointExtension>
        </extensions>
      </trkpt>
      <trkpt lat="52.1017101220786571502685546875" lon="1.41646292991936206817626953125">
        <ele>-130</ele>
        <time>2025-09-05T16:07:11.000Z</time>
        <extensions>
          <ns3:TrackPointExtension>
            <ns3:hr>143</ns3:hr>
            <ns3:cad>59</ns3:cad>
          </ns3:TrackPointExtension>
        </extensions>
      </trkpt>
      <trkpt lat="52.10178514011204242706298828125" lon="1.41645605675876140594482421875">
        <ele>-130.399993896484375</ele>
        <time>2025-09-05T16:07:16.000Z</time>
        <extensions>
          <ns3:TrackPointExtension>
            <ns3:hr>144</ns3:hr>
            <ns3:cad>59</ns3:cad>
          </ns3:TrackPointExtension>
        </extensions>
      </trkpt>
      <trkpt lat="52.10186812095344066619873046875" lon="1.41642571426928043365478515625">
        <ele>-131</ele>
        <time>2025-09-05T16:07:21.000Z</time>
        <extensions>
          <ns3:TrackPointExtension>
            <ns3:hr>142</ns3:hr>
            <ns3:cad>61</ns3:cad>
          </ns3:TrackPointExtension>
        </extensions>
      </trkpt>
      <trkpt lat="52.10190349258482456207275390625" lon="1.416421942412853240966796875">
        <ele>-131.1999969482421875</ele>
        <time>2025-09-05T16:07:23.000Z</time>
        <extensions>
          <ns3:TrackPointExtension>
            <ns3:hr>142</ns3:hr>
            <ns3:cad>61</ns3:cad>
          </ns3:TrackPointExtension>
        </extensions>
      </trkpt>
      <trkpt lat="52.101968787610530853271484375" lon="1.41640693880617618560791015625">
        <ele>-132.1999969482421875</ele>
        <time>2025-09-05T16:07:28.000Z</time>
        <extensions>
          <ns3:TrackPointExtension>
            <ns3:hr>139</ns3:hr>
            <ns3:cad>61</ns3:cad>
          </ns3:TrackPointExtension>
        </extensions>
      </trkpt>
      <trkpt lat="52.102005667984485626220703125" lon="1.41639612615108489990234375">
        <ele>-132.600006103515625</ele>
        <time>2025-09-05T16:07:31.000Z</time>
        <extensions>
          <ns3:TrackPointExtension>
            <ns3:hr>138</ns3:hr>
            <ns3:cad>61</ns3:cad>
          </ns3:TrackPointExtension>
        </extensions>
      </trkpt>
      <trkpt lat="52.1020453982055187225341796875" lon="1.41639151610434055328369140625">
        <ele>-133.1999969482421875</ele>
        <time>2025-09-05T16:07:34.000Z</time>
        <extensions>
          <ns3:TrackPointExtension>
            <ns3:hr>140</ns3:hr>
            <ns3:cad>62</ns3:cad>
          </ns3:TrackPointExtension>
        </extensions>
      </trkpt>
      <trkpt lat="52.10211823694407939910888671875" lon="1.41634776256978511810302734375">
        <ele>-134</ele>
        <time>2025-09-05T16:07:39.000Z</time>
        <extensions>
          <ns3:TrackPointExtension>
            <ns3:hr>140</ns3:hr>
            <ns3:cad>0</ns3:cad>
          </ns3:TrackPointExtension>
        </extensions>
      </trkpt>
      <trkpt lat="52.10213902406394481658935546875" lon="1.4163403026759624481201171875">
        <ele>-134.1999969482421875</ele>
        <time>2025-09-05T16:07:40.000Z</time>
        <extensions>
          <ns3:TrackPointExtension>
            <ns3:hr>138</ns3:hr>
            <ns3:cad>0</ns3:cad>
          </ns3:TrackPointExtension>
        </extensions>
      </trkpt>
      <trkpt lat="52.10222032852470874786376953125" lon="1.4163278974592685699462890625">
        <ele>-134.8000030517578125</ele>
        <time>2025-09-05T16:07:43.000Z</time>
        <extensions>
          <ns3:TrackPointExtension>
            <ns3:hr>142</ns3:hr>
            <ns3:cad>61</ns3:cad>
          </ns3:TrackPointExtension>
        </extensions>
      </trkpt>
      <trkpt lat="52.1022660098969936370849609375" lon="1.41635245643556118011474609375">
        <ele>-135</ele>
        <time>2025-09-05T16:07:45.000Z</time>
        <extensions>
          <ns3:TrackPointExtension>
            <ns3:hr>143</ns3:hr>
            <ns3:cad>0</ns3:cad>
          </ns3:TrackPointExtension>
        </extensions>
      </trkpt>
      <trkpt lat="52.10231135599315166473388671875" lon="1.4164170809090137481689453125">
        <ele>-135.399993896484375</ele>
        <time>2025-09-05T16:07:48.000Z</time>
        <extensions>
          <ns3:TrackPointExtension>
            <ns3:hr>139</ns3:hr>
            <ns3:cad>0</ns3:cad>
          </ns3:TrackPointExtension>
        </extensions>
      </trkpt>
      <trkpt lat="52.10233868099749088287353515625" lon="1.416442729532718658447265625">
        <ele>-135.600006103515625</ele>
        <time>2025-09-05T16:07:51.000Z</time>
        <extensions>
          <ns3:TrackPointExtension>
            <ns3:hr>139</ns3:hr>
            <ns3:cad>0</ns3:cad>
          </ns3:TrackPointExtension>
        </extensions>
      </trkpt>
      <trkpt lat="52.1023404411971569061279296875" lon="1.4164499379694461822509765625">
        <ele>-135.8000030517578125</ele>
        <time>2025-09-05T16:07:52.000Z</time>
        <extensions>
          <ns3:TrackPointExtension>
            <ns3:hr>138</ns3:hr>
            <ns3:cad>0</ns3:cad>
          </ns3:TrackPointExtension>
        </extensions>
      </trkpt>
    </trkseg>
  </trk>
</gpx>
